<?xml version="1.0" encoding="UTF-8"?>
<gpx xmlns="http://www.topografix.com/GPX/1/1"
     creator="GpsDump 4.79"
     version="1.1"
     xmlns:xsi="http://www.w3.org/2001/XMLSchema-instance"
     xsi:schemaLocation="http://www.topografix.com/GPX/1/1 http://www.topografix.com/GPX/1/1/gpx.xsd">
  <metadata>
    <link href="http://www.gethome.no/stein.sorensen/">
      <text>GPS dump for www.flightlog.org</text>
    </link>
    <time>2015-03-18T08:50:05Z</time>
    <bounds minlat="43.110517" minlon="-4.822700" maxlat="43.197550" maxlon="-4.617100"/>
  </metadata>
  <trk>
    <name>Track 001</name>
    <trkseg>
      <trkpt lat="43.140533" lon="-4.651167">
        <ele>1059.0</ele>
        <time>2015-03-17T13:14:18Z</time>
      </trkpt>
      <trkpt lat="43.140567" lon="-4.651100">
        <ele>1059.0</ele>
        <time>2015-03-17T13:14:19Z</time>
      </trkpt>
      <trkpt lat="43.140617" lon="-4.651050">
        <ele>1059.0</ele>
        <time>2015-03-17T13:14:20Z</time>
      </trkpt>
      <trkpt lat="43.140633" lon="-4.650967">
        <ele>1059.0</ele>
        <time>2015-03-17T13:14:21Z</time>
      </trkpt>
      <trkpt lat="43.140667" lon="-4.650883">
        <ele>1058.0</ele>
        <time>2015-03-17T13:14:22Z</time>
      </trkpt>
      <trkpt lat="43.140683" lon="-4.650767">
        <ele>1058.0</ele>
        <time>2015-03-17T13:14:23Z</time>
      </trkpt>
      <trkpt lat="43.140700" lon="-4.650667">
        <ele>1058.0</ele>
        <time>2015-03-17T13:14:24Z</time>
      </trkpt>
      <trkpt lat="43.140717" lon="-4.650583">
        <ele>1058.0</ele>
        <time>2015-03-17T13:14:25Z</time>
      </trkpt>
      <trkpt lat="43.140733" lon="-4.650500">
        <ele>1057.0</ele>
        <time>2015-03-17T13:14:26Z</time>
      </trkpt>
      <trkpt lat="43.140750" lon="-4.650417">
        <ele>1056.0</ele>
        <time>2015-03-17T13:14:27Z</time>
      </trkpt>
      <trkpt lat="43.140750" lon="-4.650283">
        <ele>1053.0</ele>
        <time>2015-03-17T13:14:28Z</time>
      </trkpt>
      <trkpt lat="43.140767" lon="-4.650150">
        <ele>1052.0</ele>
        <time>2015-03-17T13:14:29Z</time>
      </trkpt>
      <trkpt lat="43.140783" lon="-4.650033">
        <ele>1052.0</ele>
        <time>2015-03-17T13:14:30Z</time>
      </trkpt>
      <trkpt lat="43.140783" lon="-4.649917">
        <ele>1052.0</ele>
        <time>2015-03-17T13:14:31Z</time>
      </trkpt>
      <trkpt lat="43.140767" lon="-4.649817">
        <ele>1051.0</ele>
        <time>2015-03-17T13:14:32Z</time>
      </trkpt>
      <trkpt lat="43.140767" lon="-4.649700">
        <ele>1050.0</ele>
        <time>2015-03-17T13:14:33Z</time>
      </trkpt>
      <trkpt lat="43.140783" lon="-4.649583">
        <ele>1048.0</ele>
        <time>2015-03-17T13:14:34Z</time>
      </trkpt>
      <trkpt lat="43.140783" lon="-4.649450">
        <ele>1047.0</ele>
        <time>2015-03-17T13:14:35Z</time>
      </trkpt>
      <trkpt lat="43.140800" lon="-4.649333">
        <ele>1046.0</ele>
        <time>2015-03-17T13:14:36Z</time>
      </trkpt>
      <trkpt lat="43.140783" lon="-4.649217">
        <ele>1046.0</ele>
        <time>2015-03-17T13:14:37Z</time>
      </trkpt>
      <trkpt lat="43.140783" lon="-4.649117">
        <ele>1045.0</ele>
        <time>2015-03-17T13:14:38Z</time>
      </trkpt>
      <trkpt lat="43.140800" lon="-4.649000">
        <ele>1043.0</ele>
        <time>2015-03-17T13:14:39Z</time>
      </trkpt>
      <trkpt lat="43.140817" lon="-4.648867">
        <ele>1041.0</ele>
        <time>2015-03-17T13:14:40Z</time>
      </trkpt>
      <trkpt lat="43.140833" lon="-4.648717">
        <ele>1039.0</ele>
        <time>2015-03-17T13:14:41Z</time>
      </trkpt>
      <trkpt lat="43.140850" lon="-4.648583">
        <ele>1039.0</ele>
        <time>2015-03-17T13:14:42Z</time>
      </trkpt>
      <trkpt lat="43.140867" lon="-4.648450">
        <ele>1040.0</ele>
        <time>2015-03-17T13:14:43Z</time>
      </trkpt>
      <trkpt lat="43.140867" lon="-4.648333">
        <ele>1039.0</ele>
        <time>2015-03-17T13:14:44Z</time>
      </trkpt>
      <trkpt lat="43.140883" lon="-4.648217">
        <ele>1039.0</ele>
        <time>2015-03-17T13:14:45Z</time>
      </trkpt>
      <trkpt lat="43.140900" lon="-4.648100">
        <ele>1040.0</ele>
        <time>2015-03-17T13:14:46Z</time>
      </trkpt>
      <trkpt lat="43.140917" lon="-4.647983">
        <ele>1040.0</ele>
        <time>2015-03-17T13:14:47Z</time>
      </trkpt>
      <trkpt lat="43.140917" lon="-4.647900">
        <ele>1040.0</ele>
        <time>2015-03-17T13:14:48Z</time>
      </trkpt>
      <trkpt lat="43.140917" lon="-4.647817">
        <ele>1041.0</ele>
        <time>2015-03-17T13:14:49Z</time>
      </trkpt>
      <trkpt lat="43.140933" lon="-4.647750">
        <ele>1040.0</ele>
        <time>2015-03-17T13:14:50Z</time>
      </trkpt>
      <trkpt lat="43.140933" lon="-4.647667">
        <ele>1040.0</ele>
        <time>2015-03-17T13:14:51Z</time>
      </trkpt>
      <trkpt lat="43.140967" lon="-4.647583">
        <ele>1039.0</ele>
        <time>2015-03-17T13:14:52Z</time>
      </trkpt>
      <trkpt lat="43.140983" lon="-4.647517">
        <ele>1038.0</ele>
        <time>2015-03-17T13:14:53Z</time>
      </trkpt>
      <trkpt lat="43.141033" lon="-4.647450">
        <ele>1037.0</ele>
        <time>2015-03-17T13:14:54Z</time>
      </trkpt>
      <trkpt lat="43.141083" lon="-4.647417">
        <ele>1037.0</ele>
        <time>2015-03-17T13:14:55Z</time>
      </trkpt>
      <trkpt lat="43.141133" lon="-4.647383">
        <ele>1037.0</ele>
        <time>2015-03-17T13:14:56Z</time>
      </trkpt>
      <trkpt lat="43.141183" lon="-4.647333">
        <ele>1037.0</ele>
        <time>2015-03-17T13:14:57Z</time>
      </trkpt>
      <trkpt lat="43.141233" lon="-4.647300">
        <ele>1037.0</ele>
        <time>2015-03-17T13:14:58Z</time>
      </trkpt>
      <trkpt lat="43.141283" lon="-4.647267">
        <ele>1037.0</ele>
        <time>2015-03-17T13:14:59Z</time>
      </trkpt>
      <trkpt lat="43.141333" lon="-4.647217">
        <ele>1036.0</ele>
        <time>2015-03-17T13:15:00Z</time>
      </trkpt>
      <trkpt lat="43.141383" lon="-4.647183">
        <ele>1036.0</ele>
        <time>2015-03-17T13:15:01Z</time>
      </trkpt>
      <trkpt lat="43.141433" lon="-4.647150">
        <ele>1036.0</ele>
        <time>2015-03-17T13:15:02Z</time>
      </trkpt>
      <trkpt lat="43.141517" lon="-4.647150">
        <ele>1035.0</ele>
        <time>2015-03-17T13:15:03Z</time>
      </trkpt>
      <trkpt lat="43.141567" lon="-4.647167">
        <ele>1035.0</ele>
        <time>2015-03-17T13:15:04Z</time>
      </trkpt>
      <trkpt lat="43.141617" lon="-4.647217">
        <ele>1034.0</ele>
        <time>2015-03-17T13:15:05Z</time>
      </trkpt>
      <trkpt lat="43.141650" lon="-4.647283">
        <ele>1034.0</ele>
        <time>2015-03-17T13:15:06Z</time>
      </trkpt>
      <trkpt lat="43.141683" lon="-4.647367">
        <ele>1034.0</ele>
        <time>2015-03-17T13:15:07Z</time>
      </trkpt>
      <trkpt lat="43.141683" lon="-4.647467">
        <ele>1033.0</ele>
        <time>2015-03-17T13:15:08Z</time>
      </trkpt>
      <trkpt lat="43.141683" lon="-4.647567">
        <ele>1033.0</ele>
        <time>2015-03-17T13:15:09Z</time>
      </trkpt>
      <trkpt lat="43.141650" lon="-4.647667">
        <ele>1032.0</ele>
        <time>2015-03-17T13:15:10Z</time>
      </trkpt>
      <trkpt lat="43.141617" lon="-4.647767">
        <ele>1032.0</ele>
        <time>2015-03-17T13:15:11Z</time>
      </trkpt>
      <trkpt lat="43.141583" lon="-4.647867">
        <ele>1032.0</ele>
        <time>2015-03-17T13:15:12Z</time>
      </trkpt>
      <trkpt lat="43.141567" lon="-4.647967">
        <ele>1031.0</ele>
        <time>2015-03-17T13:15:13Z</time>
      </trkpt>
      <trkpt lat="43.141550" lon="-4.648067">
        <ele>1031.0</ele>
        <time>2015-03-17T13:15:14Z</time>
      </trkpt>
      <trkpt lat="43.141550" lon="-4.648167">
        <ele>1032.0</ele>
        <time>2015-03-17T13:15:15Z</time>
      </trkpt>
      <trkpt lat="43.141533" lon="-4.648250">
        <ele>1031.0</ele>
        <time>2015-03-17T13:15:16Z</time>
      </trkpt>
      <trkpt lat="43.141500" lon="-4.648350">
        <ele>1031.0</ele>
        <time>2015-03-17T13:15:17Z</time>
      </trkpt>
      <trkpt lat="43.141483" lon="-4.648433">
        <ele>1030.0</ele>
        <time>2015-03-17T13:15:18Z</time>
      </trkpt>
      <trkpt lat="43.141467" lon="-4.648533">
        <ele>1029.0</ele>
        <time>2015-03-17T13:15:19Z</time>
      </trkpt>
      <trkpt lat="43.141433" lon="-4.648617">
        <ele>1027.0</ele>
        <time>2015-03-17T13:15:20Z</time>
      </trkpt>
      <trkpt lat="43.141417" lon="-4.648733">
        <ele>1026.0</ele>
        <time>2015-03-17T13:15:21Z</time>
      </trkpt>
      <trkpt lat="43.141400" lon="-4.648850">
        <ele>1026.0</ele>
        <time>2015-03-17T13:15:22Z</time>
      </trkpt>
      <trkpt lat="43.141383" lon="-4.648933">
        <ele>1026.0</ele>
        <time>2015-03-17T13:15:23Z</time>
      </trkpt>
      <trkpt lat="43.141400" lon="-4.649017">
        <ele>1026.0</ele>
        <time>2015-03-17T13:15:24Z</time>
      </trkpt>
      <trkpt lat="43.141450" lon="-4.649083">
        <ele>1024.0</ele>
        <time>2015-03-17T13:15:25Z</time>
      </trkpt>
      <trkpt lat="43.141500" lon="-4.649133">
        <ele>1023.0</ele>
        <time>2015-03-17T13:15:26Z</time>
      </trkpt>
      <trkpt lat="43.141567" lon="-4.649133">
        <ele>1021.0</ele>
        <time>2015-03-17T13:15:27Z</time>
      </trkpt>
      <trkpt lat="43.141633" lon="-4.649100">
        <ele>1019.0</ele>
        <time>2015-03-17T13:15:28Z</time>
      </trkpt>
      <trkpt lat="43.141700" lon="-4.649017">
        <ele>1018.0</ele>
        <time>2015-03-17T13:15:29Z</time>
      </trkpt>
      <trkpt lat="43.141767" lon="-4.648950">
        <ele>1017.0</ele>
        <time>2015-03-17T13:15:30Z</time>
      </trkpt>
      <trkpt lat="43.141833" lon="-4.648883">
        <ele>1017.0</ele>
        <time>2015-03-17T13:15:31Z</time>
      </trkpt>
      <trkpt lat="43.141900" lon="-4.648817">
        <ele>1016.0</ele>
        <time>2015-03-17T13:15:32Z</time>
      </trkpt>
      <trkpt lat="43.141967" lon="-4.648750">
        <ele>1015.0</ele>
        <time>2015-03-17T13:15:33Z</time>
      </trkpt>
      <trkpt lat="43.142033" lon="-4.648667">
        <ele>1014.0</ele>
        <time>2015-03-17T13:15:34Z</time>
      </trkpt>
      <trkpt lat="43.142083" lon="-4.648567">
        <ele>1013.0</ele>
        <time>2015-03-17T13:15:35Z</time>
      </trkpt>
      <trkpt lat="43.142117" lon="-4.648467">
        <ele>1012.0</ele>
        <time>2015-03-17T13:15:36Z</time>
      </trkpt>
      <trkpt lat="43.142167" lon="-4.648367">
        <ele>1012.0</ele>
        <time>2015-03-17T13:15:37Z</time>
      </trkpt>
      <trkpt lat="43.142217" lon="-4.648250">
        <ele>1012.0</ele>
        <time>2015-03-17T13:15:38Z</time>
      </trkpt>
      <trkpt lat="43.142250" lon="-4.648133">
        <ele>1011.0</ele>
        <time>2015-03-17T13:15:39Z</time>
      </trkpt>
      <trkpt lat="43.142283" lon="-4.648000">
        <ele>1011.0</ele>
        <time>2015-03-17T13:15:40Z</time>
      </trkpt>
      <trkpt lat="43.142300" lon="-4.647867">
        <ele>1010.0</ele>
        <time>2015-03-17T13:15:41Z</time>
      </trkpt>
      <trkpt lat="43.142333" lon="-4.647733">
        <ele>1010.0</ele>
        <time>2015-03-17T13:15:42Z</time>
      </trkpt>
      <trkpt lat="43.142350" lon="-4.647617">
        <ele>1009.0</ele>
        <time>2015-03-17T13:15:43Z</time>
      </trkpt>
      <trkpt lat="43.142367" lon="-4.647500">
        <ele>1009.0</ele>
        <time>2015-03-17T13:15:44Z</time>
      </trkpt>
      <trkpt lat="43.142383" lon="-4.647367">
        <ele>1009.0</ele>
        <time>2015-03-17T13:15:45Z</time>
      </trkpt>
      <trkpt lat="43.142417" lon="-4.647250">
        <ele>1008.0</ele>
        <time>2015-03-17T13:15:46Z</time>
      </trkpt>
      <trkpt lat="43.142450" lon="-4.647117">
        <ele>1008.0</ele>
        <time>2015-03-17T13:15:47Z</time>
      </trkpt>
      <trkpt lat="43.142483" lon="-4.647000">
        <ele>1009.0</ele>
        <time>2015-03-17T13:15:48Z</time>
      </trkpt>
      <trkpt lat="43.142500" lon="-4.646900">
        <ele>1010.0</ele>
        <time>2015-03-17T13:15:49Z</time>
      </trkpt>
      <trkpt lat="43.142517" lon="-4.646783">
        <ele>1009.0</ele>
        <time>2015-03-17T13:15:50Z</time>
      </trkpt>
      <trkpt lat="43.142533" lon="-4.646683">
        <ele>1009.0</ele>
        <time>2015-03-17T13:15:51Z</time>
      </trkpt>
      <trkpt lat="43.142567" lon="-4.646600">
        <ele>1008.0</ele>
        <time>2015-03-17T13:15:52Z</time>
      </trkpt>
      <trkpt lat="43.142617" lon="-4.646517">
        <ele>1007.0</ele>
        <time>2015-03-17T13:15:53Z</time>
      </trkpt>
      <trkpt lat="43.142667" lon="-4.646433">
        <ele>1007.0</ele>
        <time>2015-03-17T13:15:54Z</time>
      </trkpt>
      <trkpt lat="43.142683" lon="-4.646333">
        <ele>1007.0</ele>
        <time>2015-03-17T13:15:55Z</time>
      </trkpt>
      <trkpt lat="43.142717" lon="-4.646250">
        <ele>1007.0</ele>
        <time>2015-03-17T13:15:56Z</time>
      </trkpt>
      <trkpt lat="43.142717" lon="-4.646167">
        <ele>1007.0</ele>
        <time>2015-03-17T13:15:57Z</time>
      </trkpt>
      <trkpt lat="43.142733" lon="-4.646083">
        <ele>1007.0</ele>
        <time>2015-03-17T13:15:58Z</time>
      </trkpt>
      <trkpt lat="43.142750" lon="-4.646000">
        <ele>1006.0</ele>
        <time>2015-03-17T13:15:59Z</time>
      </trkpt>
      <trkpt lat="43.142767" lon="-4.645917">
        <ele>1005.0</ele>
        <time>2015-03-17T13:16:00Z</time>
      </trkpt>
      <trkpt lat="43.142767" lon="-4.645817">
        <ele>1004.0</ele>
        <time>2015-03-17T13:16:01Z</time>
      </trkpt>
      <trkpt lat="43.142767" lon="-4.645700">
        <ele>1003.0</ele>
        <time>2015-03-17T13:16:02Z</time>
      </trkpt>
      <trkpt lat="43.142783" lon="-4.645583">
        <ele>1004.0</ele>
        <time>2015-03-17T13:16:03Z</time>
      </trkpt>
      <trkpt lat="43.142800" lon="-4.645483">
        <ele>1004.0</ele>
        <time>2015-03-17T13:16:04Z</time>
      </trkpt>
      <trkpt lat="43.142833" lon="-4.645383">
        <ele>1003.0</ele>
        <time>2015-03-17T13:16:05Z</time>
      </trkpt>
      <trkpt lat="43.142850" lon="-4.645283">
        <ele>1003.0</ele>
        <time>2015-03-17T13:16:06Z</time>
      </trkpt>
      <trkpt lat="43.142867" lon="-4.645200">
        <ele>1002.0</ele>
        <time>2015-03-17T13:16:07Z</time>
      </trkpt>
      <trkpt lat="43.142883" lon="-4.645117">
        <ele>1000.0</ele>
        <time>2015-03-17T13:16:08Z</time>
      </trkpt>
      <trkpt lat="43.142917" lon="-4.645017">
        <ele>999.0</ele>
        <time>2015-03-17T13:16:09Z</time>
      </trkpt>
      <trkpt lat="43.142933" lon="-4.644900">
        <ele>998.0</ele>
        <time>2015-03-17T13:16:10Z</time>
      </trkpt>
      <trkpt lat="43.142950" lon="-4.644800">
        <ele>998.0</ele>
        <time>2015-03-17T13:16:11Z</time>
      </trkpt>
      <trkpt lat="43.142967" lon="-4.644700">
        <ele>998.0</ele>
        <time>2015-03-17T13:16:12Z</time>
      </trkpt>
      <trkpt lat="43.142983" lon="-4.644617">
        <ele>998.0</ele>
        <time>2015-03-17T13:16:13Z</time>
      </trkpt>
      <trkpt lat="43.143000" lon="-4.644567">
        <ele>998.0</ele>
        <time>2015-03-17T13:16:14Z</time>
      </trkpt>
      <trkpt lat="43.143017" lon="-4.644517">
        <ele>998.0</ele>
        <time>2015-03-17T13:16:15Z</time>
      </trkpt>
      <trkpt lat="43.143033" lon="-4.644483">
        <ele>996.0</ele>
        <time>2015-03-17T13:16:16Z</time>
      </trkpt>
      <trkpt lat="43.143067" lon="-4.644433">
        <ele>994.0</ele>
        <time>2015-03-17T13:16:17Z</time>
      </trkpt>
      <trkpt lat="43.143083" lon="-4.644367">
        <ele>992.0</ele>
        <time>2015-03-17T13:16:18Z</time>
      </trkpt>
      <trkpt lat="43.143117" lon="-4.644283">
        <ele>991.0</ele>
        <time>2015-03-17T13:16:19Z</time>
      </trkpt>
      <trkpt lat="43.143167" lon="-4.644217">
        <ele>989.0</ele>
        <time>2015-03-17T13:16:20Z</time>
      </trkpt>
      <trkpt lat="43.143200" lon="-4.644150">
        <ele>988.0</ele>
        <time>2015-03-17T13:16:21Z</time>
      </trkpt>
      <trkpt lat="43.143233" lon="-4.644100">
        <ele>986.0</ele>
        <time>2015-03-17T13:16:22Z</time>
      </trkpt>
      <trkpt lat="43.143267" lon="-4.644017">
        <ele>984.0</ele>
        <time>2015-03-17T13:16:23Z</time>
      </trkpt>
      <trkpt lat="43.143317" lon="-4.643950">
        <ele>982.0</ele>
        <time>2015-03-17T13:16:24Z</time>
      </trkpt>
      <trkpt lat="43.143367" lon="-4.643850">
        <ele>980.0</ele>
        <time>2015-03-17T13:16:25Z</time>
      </trkpt>
      <trkpt lat="43.143417" lon="-4.643767">
        <ele>978.0</ele>
        <time>2015-03-17T13:16:26Z</time>
      </trkpt>
      <trkpt lat="43.143467" lon="-4.643683">
        <ele>978.0</ele>
        <time>2015-03-17T13:16:27Z</time>
      </trkpt>
      <trkpt lat="43.143500" lon="-4.643583">
        <ele>977.0</ele>
        <time>2015-03-17T13:16:28Z</time>
      </trkpt>
      <trkpt lat="43.143517" lon="-4.643500">
        <ele>976.0</ele>
        <time>2015-03-17T13:16:29Z</time>
      </trkpt>
      <trkpt lat="43.143550" lon="-4.643400">
        <ele>974.0</ele>
        <time>2015-03-17T13:16:30Z</time>
      </trkpt>
      <trkpt lat="43.143567" lon="-4.643283">
        <ele>973.0</ele>
        <time>2015-03-17T13:16:31Z</time>
      </trkpt>
      <trkpt lat="43.143600" lon="-4.643167">
        <ele>975.0</ele>
        <time>2015-03-17T13:16:32Z</time>
      </trkpt>
      <trkpt lat="43.143617" lon="-4.643050">
        <ele>975.0</ele>
        <time>2015-03-17T13:16:33Z</time>
      </trkpt>
      <trkpt lat="43.143633" lon="-4.642933">
        <ele>975.0</ele>
        <time>2015-03-17T13:16:34Z</time>
      </trkpt>
      <trkpt lat="43.143650" lon="-4.642817">
        <ele>975.0</ele>
        <time>2015-03-17T13:16:35Z</time>
      </trkpt>
      <trkpt lat="43.143650" lon="-4.642717">
        <ele>975.0</ele>
        <time>2015-03-17T13:16:36Z</time>
      </trkpt>
      <trkpt lat="43.143667" lon="-4.642617">
        <ele>976.0</ele>
        <time>2015-03-17T13:16:37Z</time>
      </trkpt>
      <trkpt lat="43.143667" lon="-4.642550">
        <ele>977.0</ele>
        <time>2015-03-17T13:16:38Z</time>
      </trkpt>
      <trkpt lat="43.143667" lon="-4.642517">
        <ele>976.0</ele>
        <time>2015-03-17T13:16:39Z</time>
      </trkpt>
      <trkpt lat="43.143683" lon="-4.642467">
        <ele>976.0</ele>
        <time>2015-03-17T13:16:40Z</time>
      </trkpt>
      <trkpt lat="43.143717" lon="-4.642417">
        <ele>976.0</ele>
        <time>2015-03-17T13:16:41Z</time>
      </trkpt>
      <trkpt lat="43.143750" lon="-4.642367">
        <ele>976.0</ele>
        <time>2015-03-17T13:16:42Z</time>
      </trkpt>
      <trkpt lat="43.143800" lon="-4.642317">
        <ele>976.0</ele>
        <time>2015-03-17T13:16:43Z</time>
      </trkpt>
      <trkpt lat="43.143867" lon="-4.642300">
        <ele>976.0</ele>
        <time>2015-03-17T13:16:44Z</time>
      </trkpt>
      <trkpt lat="43.143933" lon="-4.642317">
        <ele>976.0</ele>
        <time>2015-03-17T13:16:45Z</time>
      </trkpt>
      <trkpt lat="43.144000" lon="-4.642383">
        <ele>977.0</ele>
        <time>2015-03-17T13:16:46Z</time>
      </trkpt>
      <trkpt lat="43.144033" lon="-4.642467">
        <ele>977.0</ele>
        <time>2015-03-17T13:16:47Z</time>
      </trkpt>
      <trkpt lat="43.144050" lon="-4.642567">
        <ele>978.0</ele>
        <time>2015-03-17T13:16:48Z</time>
      </trkpt>
      <trkpt lat="43.144050" lon="-4.642650">
        <ele>979.0</ele>
        <time>2015-03-17T13:16:49Z</time>
      </trkpt>
      <trkpt lat="43.144050" lon="-4.642733">
        <ele>979.0</ele>
        <time>2015-03-17T13:16:50Z</time>
      </trkpt>
      <trkpt lat="43.144050" lon="-4.642800">
        <ele>980.0</ele>
        <time>2015-03-17T13:16:51Z</time>
      </trkpt>
      <trkpt lat="43.144033" lon="-4.642883">
        <ele>979.0</ele>
        <time>2015-03-17T13:16:52Z</time>
      </trkpt>
      <trkpt lat="43.143983" lon="-4.642983">
        <ele>979.0</ele>
        <time>2015-03-17T13:16:53Z</time>
      </trkpt>
      <trkpt lat="43.143933" lon="-4.643050">
        <ele>980.0</ele>
        <time>2015-03-17T13:16:54Z</time>
      </trkpt>
      <trkpt lat="43.143850" lon="-4.643100">
        <ele>980.0</ele>
        <time>2015-03-17T13:16:55Z</time>
      </trkpt>
      <trkpt lat="43.143783" lon="-4.643100">
        <ele>980.0</ele>
        <time>2015-03-17T13:16:56Z</time>
      </trkpt>
      <trkpt lat="43.143700" lon="-4.643100">
        <ele>980.0</ele>
        <time>2015-03-17T13:16:57Z</time>
      </trkpt>
      <trkpt lat="43.143633" lon="-4.643100">
        <ele>980.0</ele>
        <time>2015-03-17T13:16:58Z</time>
      </trkpt>
      <trkpt lat="43.143550" lon="-4.643117">
        <ele>980.0</ele>
        <time>2015-03-17T13:16:59Z</time>
      </trkpt>
      <trkpt lat="43.143483" lon="-4.643133">
        <ele>981.0</ele>
        <time>2015-03-17T13:17:00Z</time>
      </trkpt>
      <trkpt lat="43.143400" lon="-4.643150">
        <ele>982.0</ele>
        <time>2015-03-17T13:17:01Z</time>
      </trkpt>
      <trkpt lat="43.143333" lon="-4.643167">
        <ele>982.0</ele>
        <time>2015-03-17T13:17:02Z</time>
      </trkpt>
      <trkpt lat="43.143267" lon="-4.643167">
        <ele>983.0</ele>
        <time>2015-03-17T13:17:03Z</time>
      </trkpt>
      <trkpt lat="43.143217" lon="-4.643167">
        <ele>983.0</ele>
        <time>2015-03-17T13:17:04Z</time>
      </trkpt>
      <trkpt lat="43.143150" lon="-4.643167">
        <ele>983.0</ele>
        <time>2015-03-17T13:17:05Z</time>
      </trkpt>
      <trkpt lat="43.143067" lon="-4.643150">
        <ele>983.0</ele>
        <time>2015-03-17T13:17:06Z</time>
      </trkpt>
      <trkpt lat="43.143000" lon="-4.643133">
        <ele>983.0</ele>
        <time>2015-03-17T13:17:07Z</time>
      </trkpt>
      <trkpt lat="43.142933" lon="-4.643117">
        <ele>983.0</ele>
        <time>2015-03-17T13:17:08Z</time>
      </trkpt>
      <trkpt lat="43.142867" lon="-4.643100">
        <ele>983.0</ele>
        <time>2015-03-17T13:17:09Z</time>
      </trkpt>
      <trkpt lat="43.142800" lon="-4.643083">
        <ele>984.0</ele>
        <time>2015-03-17T13:17:10Z</time>
      </trkpt>
      <trkpt lat="43.142733" lon="-4.643067">
        <ele>984.0</ele>
        <time>2015-03-17T13:17:11Z</time>
      </trkpt>
      <trkpt lat="43.142667" lon="-4.643050">
        <ele>985.0</ele>
        <time>2015-03-17T13:17:12Z</time>
      </trkpt>
      <trkpt lat="43.142600" lon="-4.643033">
        <ele>985.0</ele>
        <time>2015-03-17T13:17:13Z</time>
      </trkpt>
      <trkpt lat="43.142533" lon="-4.643017">
        <ele>986.0</ele>
        <time>2015-03-17T13:17:14Z</time>
      </trkpt>
      <trkpt lat="43.142483" lon="-4.642983">
        <ele>986.0</ele>
        <time>2015-03-17T13:17:15Z</time>
      </trkpt>
      <trkpt lat="43.142433" lon="-4.642917">
        <ele>987.0</ele>
        <time>2015-03-17T13:17:16Z</time>
      </trkpt>
      <trkpt lat="43.142383" lon="-4.642850">
        <ele>989.0</ele>
        <time>2015-03-17T13:17:17Z</time>
      </trkpt>
      <trkpt lat="43.142333" lon="-4.642800">
        <ele>990.0</ele>
        <time>2015-03-17T13:17:18Z</time>
      </trkpt>
      <trkpt lat="43.142283" lon="-4.642767">
        <ele>991.0</ele>
        <time>2015-03-17T13:17:19Z</time>
      </trkpt>
      <trkpt lat="43.142233" lon="-4.642700">
        <ele>991.0</ele>
        <time>2015-03-17T13:17:20Z</time>
      </trkpt>
      <trkpt lat="43.142183" lon="-4.642617">
        <ele>992.0</ele>
        <time>2015-03-17T13:17:21Z</time>
      </trkpt>
      <trkpt lat="43.142167" lon="-4.642533">
        <ele>993.0</ele>
        <time>2015-03-17T13:17:22Z</time>
      </trkpt>
      <trkpt lat="43.142133" lon="-4.642450">
        <ele>994.0</ele>
        <time>2015-03-17T13:17:23Z</time>
      </trkpt>
      <trkpt lat="43.142133" lon="-4.642350">
        <ele>995.0</ele>
        <time>2015-03-17T13:17:24Z</time>
      </trkpt>
      <trkpt lat="43.142133" lon="-4.642250">
        <ele>996.0</ele>
        <time>2015-03-17T13:17:25Z</time>
      </trkpt>
      <trkpt lat="43.142150" lon="-4.642150">
        <ele>996.0</ele>
        <time>2015-03-17T13:17:26Z</time>
      </trkpt>
      <trkpt lat="43.142200" lon="-4.642067">
        <ele>997.0</ele>
        <time>2015-03-17T13:17:27Z</time>
      </trkpt>
      <trkpt lat="43.142267" lon="-4.642017">
        <ele>997.0</ele>
        <time>2015-03-17T13:17:28Z</time>
      </trkpt>
      <trkpt lat="43.142333" lon="-4.642033">
        <ele>997.0</ele>
        <time>2015-03-17T13:17:29Z</time>
      </trkpt>
      <trkpt lat="43.142400" lon="-4.642100">
        <ele>997.0</ele>
        <time>2015-03-17T13:17:30Z</time>
      </trkpt>
      <trkpt lat="43.142467" lon="-4.642200">
        <ele>999.0</ele>
        <time>2015-03-17T13:17:31Z</time>
      </trkpt>
      <trkpt lat="43.142500" lon="-4.642300">
        <ele>1002.0</ele>
        <time>2015-03-17T13:17:32Z</time>
      </trkpt>
      <trkpt lat="43.142550" lon="-4.642383">
        <ele>1003.0</ele>
        <time>2015-03-17T13:17:33Z</time>
      </trkpt>
      <trkpt lat="43.142583" lon="-4.642450">
        <ele>1002.0</ele>
        <time>2015-03-17T13:17:34Z</time>
      </trkpt>
      <trkpt lat="43.142633" lon="-4.642550">
        <ele>1003.0</ele>
        <time>2015-03-17T13:17:35Z</time>
      </trkpt>
      <trkpt lat="43.142667" lon="-4.642650">
        <ele>1003.0</ele>
        <time>2015-03-17T13:17:36Z</time>
      </trkpt>
      <trkpt lat="43.142683" lon="-4.642767">
        <ele>1003.0</ele>
        <time>2015-03-17T13:17:37Z</time>
      </trkpt>
      <trkpt lat="43.142650" lon="-4.642867">
        <ele>1003.0</ele>
        <time>2015-03-17T13:17:38Z</time>
      </trkpt>
      <trkpt lat="43.142617" lon="-4.642950">
        <ele>1004.0</ele>
        <time>2015-03-17T13:17:39Z</time>
      </trkpt>
      <trkpt lat="43.142550" lon="-4.643017">
        <ele>1004.0</ele>
        <time>2015-03-17T13:17:40Z</time>
      </trkpt>
      <trkpt lat="43.142483" lon="-4.643083">
        <ele>1004.0</ele>
        <time>2015-03-17T13:17:41Z</time>
      </trkpt>
      <trkpt lat="43.142417" lon="-4.643150">
        <ele>1005.0</ele>
        <time>2015-03-17T13:17:42Z</time>
      </trkpt>
      <trkpt lat="43.142350" lon="-4.643200">
        <ele>1007.0</ele>
        <time>2015-03-17T13:17:43Z</time>
      </trkpt>
      <trkpt lat="43.142283" lon="-4.643250">
        <ele>1009.0</ele>
        <time>2015-03-17T13:17:44Z</time>
      </trkpt>
      <trkpt lat="43.142233" lon="-4.643283">
        <ele>1011.0</ele>
        <time>2015-03-17T13:17:45Z</time>
      </trkpt>
      <trkpt lat="43.142183" lon="-4.643300">
        <ele>1012.0</ele>
        <time>2015-03-17T13:17:46Z</time>
      </trkpt>
      <trkpt lat="43.142117" lon="-4.643317">
        <ele>1012.0</ele>
        <time>2015-03-17T13:17:47Z</time>
      </trkpt>
      <trkpt lat="43.142050" lon="-4.643317">
        <ele>1012.0</ele>
        <time>2015-03-17T13:17:48Z</time>
      </trkpt>
      <trkpt lat="43.141983" lon="-4.643300">
        <ele>1013.0</ele>
        <time>2015-03-17T13:17:49Z</time>
      </trkpt>
      <trkpt lat="43.141917" lon="-4.643250">
        <ele>1014.0</ele>
        <time>2015-03-17T13:17:50Z</time>
      </trkpt>
      <trkpt lat="43.141883" lon="-4.643167">
        <ele>1015.0</ele>
        <time>2015-03-17T13:17:51Z</time>
      </trkpt>
      <trkpt lat="43.141850" lon="-4.643100">
        <ele>1017.0</ele>
        <time>2015-03-17T13:17:52Z</time>
      </trkpt>
      <trkpt lat="43.141817" lon="-4.643017">
        <ele>1020.0</ele>
        <time>2015-03-17T13:17:53Z</time>
      </trkpt>
      <trkpt lat="43.141800" lon="-4.642950">
        <ele>1023.0</ele>
        <time>2015-03-17T13:17:54Z</time>
      </trkpt>
      <trkpt lat="43.141800" lon="-4.642883">
        <ele>1022.0</ele>
        <time>2015-03-17T13:17:55Z</time>
      </trkpt>
      <trkpt lat="43.141817" lon="-4.642833">
        <ele>1023.0</ele>
        <time>2015-03-17T13:17:56Z</time>
      </trkpt>
      <trkpt lat="43.141833" lon="-4.642750">
        <ele>1024.0</ele>
        <time>2015-03-17T13:17:57Z</time>
      </trkpt>
      <trkpt lat="43.141850" lon="-4.642667">
        <ele>1026.0</ele>
        <time>2015-03-17T13:17:58Z</time>
      </trkpt>
      <trkpt lat="43.141883" lon="-4.642583">
        <ele>1028.0</ele>
        <time>2015-03-17T13:17:59Z</time>
      </trkpt>
      <trkpt lat="43.141917" lon="-4.642550">
        <ele>1030.0</ele>
        <time>2015-03-17T13:18:00Z</time>
      </trkpt>
      <trkpt lat="43.141950" lon="-4.642533">
        <ele>1031.0</ele>
        <time>2015-03-17T13:18:01Z</time>
      </trkpt>
      <trkpt lat="43.142000" lon="-4.642533">
        <ele>1032.0</ele>
        <time>2015-03-17T13:18:02Z</time>
      </trkpt>
      <trkpt lat="43.142050" lon="-4.642550">
        <ele>1031.0</ele>
        <time>2015-03-17T13:18:03Z</time>
      </trkpt>
      <trkpt lat="43.142100" lon="-4.642583">
        <ele>1032.0</ele>
        <time>2015-03-17T13:18:04Z</time>
      </trkpt>
      <trkpt lat="43.142150" lon="-4.642617">
        <ele>1033.0</ele>
        <time>2015-03-17T13:18:05Z</time>
      </trkpt>
      <trkpt lat="43.142200" lon="-4.642700">
        <ele>1033.0</ele>
        <time>2015-03-17T13:18:06Z</time>
      </trkpt>
      <trkpt lat="43.142233" lon="-4.642783">
        <ele>1033.0</ele>
        <time>2015-03-17T13:18:07Z</time>
      </trkpt>
      <trkpt lat="43.142267" lon="-4.642900">
        <ele>1034.0</ele>
        <time>2015-03-17T13:18:08Z</time>
      </trkpt>
      <trkpt lat="43.142267" lon="-4.643017">
        <ele>1035.0</ele>
        <time>2015-03-17T13:18:09Z</time>
      </trkpt>
      <trkpt lat="43.142267" lon="-4.643117">
        <ele>1036.0</ele>
        <time>2015-03-17T13:18:10Z</time>
      </trkpt>
      <trkpt lat="43.142233" lon="-4.643200">
        <ele>1037.0</ele>
        <time>2015-03-17T13:18:11Z</time>
      </trkpt>
      <trkpt lat="43.142200" lon="-4.643283">
        <ele>1038.0</ele>
        <time>2015-03-17T13:18:12Z</time>
      </trkpt>
      <trkpt lat="43.142150" lon="-4.643350">
        <ele>1039.0</ele>
        <time>2015-03-17T13:18:13Z</time>
      </trkpt>
      <trkpt lat="43.142117" lon="-4.643433">
        <ele>1041.0</ele>
        <time>2015-03-17T13:18:14Z</time>
      </trkpt>
      <trkpt lat="43.142067" lon="-4.643500">
        <ele>1042.0</ele>
        <time>2015-03-17T13:18:15Z</time>
      </trkpt>
      <trkpt lat="43.142017" lon="-4.643550">
        <ele>1043.0</ele>
        <time>2015-03-17T13:18:16Z</time>
      </trkpt>
      <trkpt lat="43.141950" lon="-4.643583">
        <ele>1044.0</ele>
        <time>2015-03-17T13:18:17Z</time>
      </trkpt>
      <trkpt lat="43.141883" lon="-4.643600">
        <ele>1045.0</ele>
        <time>2015-03-17T13:18:18Z</time>
      </trkpt>
      <trkpt lat="43.141833" lon="-4.643600">
        <ele>1047.0</ele>
        <time>2015-03-17T13:18:19Z</time>
      </trkpt>
      <trkpt lat="43.141767" lon="-4.643583">
        <ele>1049.0</ele>
        <time>2015-03-17T13:18:20Z</time>
      </trkpt>
      <trkpt lat="43.141717" lon="-4.643567">
        <ele>1050.0</ele>
        <time>2015-03-17T13:18:21Z</time>
      </trkpt>
      <trkpt lat="43.141650" lon="-4.643550">
        <ele>1053.0</ele>
        <time>2015-03-17T13:18:22Z</time>
      </trkpt>
      <trkpt lat="43.141600" lon="-4.643533">
        <ele>1055.0</ele>
        <time>2015-03-17T13:18:23Z</time>
      </trkpt>
      <trkpt lat="43.141533" lon="-4.643500">
        <ele>1058.0</ele>
        <time>2015-03-17T13:18:24Z</time>
      </trkpt>
      <trkpt lat="43.141483" lon="-4.643467">
        <ele>1059.0</ele>
        <time>2015-03-17T13:18:25Z</time>
      </trkpt>
      <trkpt lat="43.141433" lon="-4.643417">
        <ele>1061.0</ele>
        <time>2015-03-17T13:18:26Z</time>
      </trkpt>
      <trkpt lat="43.141383" lon="-4.643367">
        <ele>1060.0</ele>
        <time>2015-03-17T13:18:27Z</time>
      </trkpt>
      <trkpt lat="43.141333" lon="-4.643317">
        <ele>1062.0</ele>
        <time>2015-03-17T13:18:28Z</time>
      </trkpt>
      <trkpt lat="43.141283" lon="-4.643267">
        <ele>1065.0</ele>
        <time>2015-03-17T13:18:29Z</time>
      </trkpt>
      <trkpt lat="43.141250" lon="-4.643217">
        <ele>1067.0</ele>
        <time>2015-03-17T13:18:30Z</time>
      </trkpt>
      <trkpt lat="43.141217" lon="-4.643167">
        <ele>1068.0</ele>
        <time>2015-03-17T13:18:31Z</time>
      </trkpt>
      <trkpt lat="43.141183" lon="-4.643100">
        <ele>1069.0</ele>
        <time>2015-03-17T13:18:32Z</time>
      </trkpt>
      <trkpt lat="43.141167" lon="-4.643017">
        <ele>1069.0</ele>
        <time>2015-03-17T13:18:33Z</time>
      </trkpt>
      <trkpt lat="43.141167" lon="-4.642933">
        <ele>1069.0</ele>
        <time>2015-03-17T13:18:34Z</time>
      </trkpt>
      <trkpt lat="43.141200" lon="-4.642850">
        <ele>1068.0</ele>
        <time>2015-03-17T13:18:35Z</time>
      </trkpt>
      <trkpt lat="43.141267" lon="-4.642783">
        <ele>1069.0</ele>
        <time>2015-03-17T13:18:36Z</time>
      </trkpt>
      <trkpt lat="43.141317" lon="-4.642750">
        <ele>1069.0</ele>
        <time>2015-03-17T13:18:37Z</time>
      </trkpt>
      <trkpt lat="43.141383" lon="-4.642733">
        <ele>1072.0</ele>
        <time>2015-03-17T13:18:38Z</time>
      </trkpt>
      <trkpt lat="43.141417" lon="-4.642750">
        <ele>1076.0</ele>
        <time>2015-03-17T13:18:39Z</time>
      </trkpt>
      <trkpt lat="43.141467" lon="-4.642783">
        <ele>1077.0</ele>
        <time>2015-03-17T13:18:40Z</time>
      </trkpt>
      <trkpt lat="43.141517" lon="-4.642800">
        <ele>1078.0</ele>
        <time>2015-03-17T13:18:41Z</time>
      </trkpt>
      <trkpt lat="43.141567" lon="-4.642850">
        <ele>1080.0</ele>
        <time>2015-03-17T13:18:42Z</time>
      </trkpt>
      <trkpt lat="43.141617" lon="-4.642900">
        <ele>1082.0</ele>
        <time>2015-03-17T13:18:43Z</time>
      </trkpt>
      <trkpt lat="43.141650" lon="-4.642967">
        <ele>1083.0</ele>
        <time>2015-03-17T13:18:44Z</time>
      </trkpt>
      <trkpt lat="43.141667" lon="-4.643067">
        <ele>1085.0</ele>
        <time>2015-03-17T13:18:45Z</time>
      </trkpt>
      <trkpt lat="43.141683" lon="-4.643167">
        <ele>1086.0</ele>
        <time>2015-03-17T13:18:46Z</time>
      </trkpt>
      <trkpt lat="43.141667" lon="-4.643283">
        <ele>1087.0</ele>
        <time>2015-03-17T13:18:47Z</time>
      </trkpt>
      <trkpt lat="43.141650" lon="-4.643383">
        <ele>1088.0</ele>
        <time>2015-03-17T13:18:48Z</time>
      </trkpt>
      <trkpt lat="43.141600" lon="-4.643467">
        <ele>1090.0</ele>
        <time>2015-03-17T13:18:49Z</time>
      </trkpt>
      <trkpt lat="43.141550" lon="-4.643550">
        <ele>1092.0</ele>
        <time>2015-03-17T13:18:50Z</time>
      </trkpt>
      <trkpt lat="43.141500" lon="-4.643617">
        <ele>1093.0</ele>
        <time>2015-03-17T13:18:51Z</time>
      </trkpt>
      <trkpt lat="43.141450" lon="-4.643700">
        <ele>1095.0</ele>
        <time>2015-03-17T13:18:52Z</time>
      </trkpt>
      <trkpt lat="43.141417" lon="-4.643750">
        <ele>1097.0</ele>
        <time>2015-03-17T13:18:53Z</time>
      </trkpt>
      <trkpt lat="43.141367" lon="-4.643800">
        <ele>1099.0</ele>
        <time>2015-03-17T13:18:54Z</time>
      </trkpt>
      <trkpt lat="43.141300" lon="-4.643800">
        <ele>1099.0</ele>
        <time>2015-03-17T13:18:55Z</time>
      </trkpt>
      <trkpt lat="43.141233" lon="-4.643800">
        <ele>1100.0</ele>
        <time>2015-03-17T13:18:56Z</time>
      </trkpt>
      <trkpt lat="43.141150" lon="-4.643783">
        <ele>1103.0</ele>
        <time>2015-03-17T13:18:57Z</time>
      </trkpt>
      <trkpt lat="43.141083" lon="-4.643750">
        <ele>1102.0</ele>
        <time>2015-03-17T13:18:58Z</time>
      </trkpt>
      <trkpt lat="43.141050" lon="-4.643717">
        <ele>1104.0</ele>
        <time>2015-03-17T13:18:59Z</time>
      </trkpt>
      <trkpt lat="43.141017" lon="-4.643667">
        <ele>1105.0</ele>
        <time>2015-03-17T13:19:00Z</time>
      </trkpt>
      <trkpt lat="43.141000" lon="-4.643583">
        <ele>1105.0</ele>
        <time>2015-03-17T13:19:01Z</time>
      </trkpt>
      <trkpt lat="43.140967" lon="-4.643500">
        <ele>1105.0</ele>
        <time>2015-03-17T13:19:02Z</time>
      </trkpt>
      <trkpt lat="43.140967" lon="-4.643417">
        <ele>1106.0</ele>
        <time>2015-03-17T13:19:03Z</time>
      </trkpt>
      <trkpt lat="43.140983" lon="-4.643350">
        <ele>1108.0</ele>
        <time>2015-03-17T13:19:04Z</time>
      </trkpt>
      <trkpt lat="43.141000" lon="-4.643283">
        <ele>1110.0</ele>
        <time>2015-03-17T13:19:05Z</time>
      </trkpt>
      <trkpt lat="43.141017" lon="-4.643233">
        <ele>1111.0</ele>
        <time>2015-03-17T13:19:06Z</time>
      </trkpt>
      <trkpt lat="43.141067" lon="-4.643183">
        <ele>1112.0</ele>
        <time>2015-03-17T13:19:07Z</time>
      </trkpt>
      <trkpt lat="43.141100" lon="-4.643117">
        <ele>1113.0</ele>
        <time>2015-03-17T13:19:08Z</time>
      </trkpt>
      <trkpt lat="43.141150" lon="-4.643050">
        <ele>1113.0</ele>
        <time>2015-03-17T13:19:09Z</time>
      </trkpt>
      <trkpt lat="43.141183" lon="-4.643000">
        <ele>1114.0</ele>
        <time>2015-03-17T13:19:10Z</time>
      </trkpt>
      <trkpt lat="43.141233" lon="-4.642967">
        <ele>1115.0</ele>
        <time>2015-03-17T13:19:11Z</time>
      </trkpt>
      <trkpt lat="43.141267" lon="-4.642933">
        <ele>1116.0</ele>
        <time>2015-03-17T13:19:12Z</time>
      </trkpt>
      <trkpt lat="43.141317" lon="-4.642917">
        <ele>1117.0</ele>
        <time>2015-03-17T13:19:13Z</time>
      </trkpt>
      <trkpt lat="43.141350" lon="-4.642917">
        <ele>1119.0</ele>
        <time>2015-03-17T13:19:14Z</time>
      </trkpt>
      <trkpt lat="43.141400" lon="-4.642917">
        <ele>1121.0</ele>
        <time>2015-03-17T13:19:15Z</time>
      </trkpt>
      <trkpt lat="43.141467" lon="-4.642950">
        <ele>1122.0</ele>
        <time>2015-03-17T13:19:16Z</time>
      </trkpt>
      <trkpt lat="43.141517" lon="-4.643000">
        <ele>1122.0</ele>
        <time>2015-03-17T13:19:17Z</time>
      </trkpt>
      <trkpt lat="43.141567" lon="-4.643100">
        <ele>1124.0</ele>
        <time>2015-03-17T13:19:18Z</time>
      </trkpt>
      <trkpt lat="43.141600" lon="-4.643217">
        <ele>1125.0</ele>
        <time>2015-03-17T13:19:19Z</time>
      </trkpt>
      <trkpt lat="43.141600" lon="-4.643350">
        <ele>1127.0</ele>
        <time>2015-03-17T13:19:20Z</time>
      </trkpt>
      <trkpt lat="43.141600" lon="-4.643467">
        <ele>1128.0</ele>
        <time>2015-03-17T13:19:21Z</time>
      </trkpt>
      <trkpt lat="43.141600" lon="-4.643583">
        <ele>1129.0</ele>
        <time>2015-03-17T13:19:22Z</time>
      </trkpt>
      <trkpt lat="43.141567" lon="-4.643700">
        <ele>1131.0</ele>
        <time>2015-03-17T13:19:23Z</time>
      </trkpt>
      <trkpt lat="43.141550" lon="-4.643817">
        <ele>1132.0</ele>
        <time>2015-03-17T13:19:24Z</time>
      </trkpt>
      <trkpt lat="43.141517" lon="-4.643933">
        <ele>1134.0</ele>
        <time>2015-03-17T13:19:25Z</time>
      </trkpt>
      <trkpt lat="43.141483" lon="-4.644033">
        <ele>1137.0</ele>
        <time>2015-03-17T13:19:26Z</time>
      </trkpt>
      <trkpt lat="43.141450" lon="-4.644117">
        <ele>1140.0</ele>
        <time>2015-03-17T13:19:27Z</time>
      </trkpt>
      <trkpt lat="43.141417" lon="-4.644200">
        <ele>1142.0</ele>
        <time>2015-03-17T13:19:28Z</time>
      </trkpt>
      <trkpt lat="43.141383" lon="-4.644283">
        <ele>1140.0</ele>
        <time>2015-03-17T13:19:29Z</time>
      </trkpt>
      <trkpt lat="43.141333" lon="-4.644333">
        <ele>1141.0</ele>
        <time>2015-03-17T13:19:30Z</time>
      </trkpt>
      <trkpt lat="43.141283" lon="-4.644383">
        <ele>1144.0</ele>
        <time>2015-03-17T13:19:31Z</time>
      </trkpt>
      <trkpt lat="43.141217" lon="-4.644417">
        <ele>1146.0</ele>
        <time>2015-03-17T13:19:32Z</time>
      </trkpt>
      <trkpt lat="43.141133" lon="-4.644417">
        <ele>1148.0</ele>
        <time>2015-03-17T13:19:33Z</time>
      </trkpt>
      <trkpt lat="43.141067" lon="-4.644400">
        <ele>1149.0</ele>
        <time>2015-03-17T13:19:34Z</time>
      </trkpt>
      <trkpt lat="43.141000" lon="-4.644383">
        <ele>1151.0</ele>
        <time>2015-03-17T13:19:35Z</time>
      </trkpt>
      <trkpt lat="43.140917" lon="-4.644383">
        <ele>1152.0</ele>
        <time>2015-03-17T13:19:36Z</time>
      </trkpt>
      <trkpt lat="43.140850" lon="-4.644367">
        <ele>1153.0</ele>
        <time>2015-03-17T13:19:37Z</time>
      </trkpt>
      <trkpt lat="43.140767" lon="-4.644333">
        <ele>1154.0</ele>
        <time>2015-03-17T13:19:38Z</time>
      </trkpt>
      <trkpt lat="43.140667" lon="-4.644300">
        <ele>1154.0</ele>
        <time>2015-03-17T13:19:39Z</time>
      </trkpt>
      <trkpt lat="43.140583" lon="-4.644250">
        <ele>1154.0</ele>
        <time>2015-03-17T13:19:40Z</time>
      </trkpt>
      <trkpt lat="43.140483" lon="-4.644200">
        <ele>1155.0</ele>
        <time>2015-03-17T13:19:41Z</time>
      </trkpt>
      <trkpt lat="43.140400" lon="-4.644167">
        <ele>1157.0</ele>
        <time>2015-03-17T13:19:42Z</time>
      </trkpt>
      <trkpt lat="43.140333" lon="-4.644133">
        <ele>1159.0</ele>
        <time>2015-03-17T13:19:43Z</time>
      </trkpt>
      <trkpt lat="43.140250" lon="-4.644117">
        <ele>1161.0</ele>
        <time>2015-03-17T13:19:44Z</time>
      </trkpt>
      <trkpt lat="43.140200" lon="-4.644083">
        <ele>1162.0</ele>
        <time>2015-03-17T13:19:45Z</time>
      </trkpt>
      <trkpt lat="43.140133" lon="-4.644067">
        <ele>1163.0</ele>
        <time>2015-03-17T13:19:46Z</time>
      </trkpt>
      <trkpt lat="43.140083" lon="-4.644050">
        <ele>1163.0</ele>
        <time>2015-03-17T13:19:47Z</time>
      </trkpt>
      <trkpt lat="43.140017" lon="-4.644033">
        <ele>1163.0</ele>
        <time>2015-03-17T13:19:48Z</time>
      </trkpt>
      <trkpt lat="43.139950" lon="-4.644017">
        <ele>1162.0</ele>
        <time>2015-03-17T13:19:49Z</time>
      </trkpt>
      <trkpt lat="43.139850" lon="-4.644017">
        <ele>1162.0</ele>
        <time>2015-03-17T13:19:50Z</time>
      </trkpt>
      <trkpt lat="43.139750" lon="-4.644033">
        <ele>1162.0</ele>
        <time>2015-03-17T13:19:51Z</time>
      </trkpt>
      <trkpt lat="43.139667" lon="-4.644050">
        <ele>1163.0</ele>
        <time>2015-03-17T13:19:52Z</time>
      </trkpt>
      <trkpt lat="43.139567" lon="-4.644067">
        <ele>1164.0</ele>
        <time>2015-03-17T13:19:53Z</time>
      </trkpt>
      <trkpt lat="43.139483" lon="-4.644100">
        <ele>1166.0</ele>
        <time>2015-03-17T13:19:54Z</time>
      </trkpt>
      <trkpt lat="43.139400" lon="-4.644150">
        <ele>1169.0</ele>
        <time>2015-03-17T13:19:55Z</time>
      </trkpt>
      <trkpt lat="43.139300" lon="-4.644183">
        <ele>1172.0</ele>
        <time>2015-03-17T13:19:56Z</time>
      </trkpt>
      <trkpt lat="43.139217" lon="-4.644217">
        <ele>1175.0</ele>
        <time>2015-03-17T13:19:57Z</time>
      </trkpt>
      <trkpt lat="43.139133" lon="-4.644250">
        <ele>1178.0</ele>
        <time>2015-03-17T13:19:58Z</time>
      </trkpt>
      <trkpt lat="43.139067" lon="-4.644267">
        <ele>1182.0</ele>
        <time>2015-03-17T13:19:59Z</time>
      </trkpt>
      <trkpt lat="43.138983" lon="-4.644283">
        <ele>1185.0</ele>
        <time>2015-03-17T13:20:00Z</time>
      </trkpt>
      <trkpt lat="43.138917" lon="-4.644283">
        <ele>1188.0</ele>
        <time>2015-03-17T13:20:01Z</time>
      </trkpt>
      <trkpt lat="43.138850" lon="-4.644250">
        <ele>1191.0</ele>
        <time>2015-03-17T13:20:02Z</time>
      </trkpt>
      <trkpt lat="43.138800" lon="-4.644183">
        <ele>1195.0</ele>
        <time>2015-03-17T13:20:03Z</time>
      </trkpt>
      <trkpt lat="43.138783" lon="-4.644100">
        <ele>1198.0</ele>
        <time>2015-03-17T13:20:04Z</time>
      </trkpt>
      <trkpt lat="43.138800" lon="-4.644033">
        <ele>1202.0</ele>
        <time>2015-03-17T13:20:05Z</time>
      </trkpt>
      <trkpt lat="43.138817" lon="-4.643967">
        <ele>1205.0</ele>
        <time>2015-03-17T13:20:06Z</time>
      </trkpt>
      <trkpt lat="43.138850" lon="-4.643933">
        <ele>1208.0</ele>
        <time>2015-03-17T13:20:07Z</time>
      </trkpt>
      <trkpt lat="43.138867" lon="-4.643883">
        <ele>1211.0</ele>
        <time>2015-03-17T13:20:08Z</time>
      </trkpt>
      <trkpt lat="43.138900" lon="-4.643833">
        <ele>1213.0</ele>
        <time>2015-03-17T13:20:09Z</time>
      </trkpt>
      <trkpt lat="43.138950" lon="-4.643783">
        <ele>1216.0</ele>
        <time>2015-03-17T13:20:10Z</time>
      </trkpt>
      <trkpt lat="43.139000" lon="-4.643750">
        <ele>1220.0</ele>
        <time>2015-03-17T13:20:11Z</time>
      </trkpt>
      <trkpt lat="43.139033" lon="-4.643750">
        <ele>1225.0</ele>
        <time>2015-03-17T13:20:12Z</time>
      </trkpt>
      <trkpt lat="43.139083" lon="-4.643767">
        <ele>1230.0</ele>
        <time>2015-03-17T13:20:13Z</time>
      </trkpt>
      <trkpt lat="43.139117" lon="-4.643783">
        <ele>1234.0</ele>
        <time>2015-03-17T13:20:14Z</time>
      </trkpt>
      <trkpt lat="43.139167" lon="-4.643767">
        <ele>1237.0</ele>
        <time>2015-03-17T13:20:15Z</time>
      </trkpt>
      <trkpt lat="43.139233" lon="-4.643750">
        <ele>1240.0</ele>
        <time>2015-03-17T13:20:16Z</time>
      </trkpt>
      <trkpt lat="43.139300" lon="-4.643750">
        <ele>1243.0</ele>
        <time>2015-03-17T13:20:17Z</time>
      </trkpt>
      <trkpt lat="43.139350" lon="-4.643817">
        <ele>1246.0</ele>
        <time>2015-03-17T13:20:18Z</time>
      </trkpt>
      <trkpt lat="43.139383" lon="-4.643917">
        <ele>1249.0</ele>
        <time>2015-03-17T13:20:19Z</time>
      </trkpt>
      <trkpt lat="43.139417" lon="-4.644050">
        <ele>1252.0</ele>
        <time>2015-03-17T13:20:20Z</time>
      </trkpt>
      <trkpt lat="43.139450" lon="-4.644150">
        <ele>1257.0</ele>
        <time>2015-03-17T13:20:21Z</time>
      </trkpt>
      <trkpt lat="43.139467" lon="-4.644250">
        <ele>1260.0</ele>
        <time>2015-03-17T13:20:22Z</time>
      </trkpt>
      <trkpt lat="43.139500" lon="-4.644350">
        <ele>1263.0</ele>
        <time>2015-03-17T13:20:23Z</time>
      </trkpt>
      <trkpt lat="43.139533" lon="-4.644450">
        <ele>1266.0</ele>
        <time>2015-03-17T13:20:24Z</time>
      </trkpt>
      <trkpt lat="43.139550" lon="-4.644550">
        <ele>1268.0</ele>
        <time>2015-03-17T13:20:25Z</time>
      </trkpt>
      <trkpt lat="43.139567" lon="-4.644683">
        <ele>1270.0</ele>
        <time>2015-03-17T13:20:26Z</time>
      </trkpt>
      <trkpt lat="43.139533" lon="-4.644783">
        <ele>1272.0</ele>
        <time>2015-03-17T13:20:27Z</time>
      </trkpt>
      <trkpt lat="43.139483" lon="-4.644883">
        <ele>1274.0</ele>
        <time>2015-03-17T13:20:28Z</time>
      </trkpt>
      <trkpt lat="43.139417" lon="-4.644967">
        <ele>1275.0</ele>
        <time>2015-03-17T13:20:29Z</time>
      </trkpt>
      <trkpt lat="43.139350" lon="-4.645050">
        <ele>1277.0</ele>
        <time>2015-03-17T13:20:30Z</time>
      </trkpt>
      <trkpt lat="43.139300" lon="-4.645150">
        <ele>1279.0</ele>
        <time>2015-03-17T13:20:31Z</time>
      </trkpt>
      <trkpt lat="43.139233" lon="-4.645217">
        <ele>1280.0</ele>
        <time>2015-03-17T13:20:32Z</time>
      </trkpt>
      <trkpt lat="43.139150" lon="-4.645267">
        <ele>1281.0</ele>
        <time>2015-03-17T13:20:33Z</time>
      </trkpt>
      <trkpt lat="43.139067" lon="-4.645300">
        <ele>1282.0</ele>
        <time>2015-03-17T13:20:34Z</time>
      </trkpt>
      <trkpt lat="43.138967" lon="-4.645317">
        <ele>1284.0</ele>
        <time>2015-03-17T13:20:35Z</time>
      </trkpt>
      <trkpt lat="43.138883" lon="-4.645333">
        <ele>1287.0</ele>
        <time>2015-03-17T13:20:36Z</time>
      </trkpt>
      <trkpt lat="43.138817" lon="-4.645333">
        <ele>1289.0</ele>
        <time>2015-03-17T13:20:37Z</time>
      </trkpt>
      <trkpt lat="43.138733" lon="-4.645333">
        <ele>1290.0</ele>
        <time>2015-03-17T13:20:38Z</time>
      </trkpt>
      <trkpt lat="43.138650" lon="-4.645317">
        <ele>1291.0</ele>
        <time>2015-03-17T13:20:39Z</time>
      </trkpt>
      <trkpt lat="43.138567" lon="-4.645283">
        <ele>1292.0</ele>
        <time>2015-03-17T13:20:40Z</time>
      </trkpt>
      <trkpt lat="43.138483" lon="-4.645250">
        <ele>1295.0</ele>
        <time>2015-03-17T13:20:41Z</time>
      </trkpt>
      <trkpt lat="43.138417" lon="-4.645200">
        <ele>1298.0</ele>
        <time>2015-03-17T13:20:42Z</time>
      </trkpt>
      <trkpt lat="43.138367" lon="-4.645183">
        <ele>1301.0</ele>
        <time>2015-03-17T13:20:43Z</time>
      </trkpt>
      <trkpt lat="43.138317" lon="-4.645150">
        <ele>1304.0</ele>
        <time>2015-03-17T13:20:44Z</time>
      </trkpt>
      <trkpt lat="43.138267" lon="-4.645117">
        <ele>1306.0</ele>
        <time>2015-03-17T13:20:45Z</time>
      </trkpt>
      <trkpt lat="43.138217" lon="-4.645067">
        <ele>1306.0</ele>
        <time>2015-03-17T13:20:46Z</time>
      </trkpt>
      <trkpt lat="43.138167" lon="-4.644983">
        <ele>1308.0</ele>
        <time>2015-03-17T13:20:47Z</time>
      </trkpt>
      <trkpt lat="43.138133" lon="-4.644917">
        <ele>1309.0</ele>
        <time>2015-03-17T13:20:48Z</time>
      </trkpt>
      <trkpt lat="43.138100" lon="-4.644833">
        <ele>1310.0</ele>
        <time>2015-03-17T13:20:49Z</time>
      </trkpt>
      <trkpt lat="43.138067" lon="-4.644750">
        <ele>1311.0</ele>
        <time>2015-03-17T13:20:50Z</time>
      </trkpt>
      <trkpt lat="43.138050" lon="-4.644667">
        <ele>1312.0</ele>
        <time>2015-03-17T13:20:51Z</time>
      </trkpt>
      <trkpt lat="43.138067" lon="-4.644567">
        <ele>1312.0</ele>
        <time>2015-03-17T13:20:52Z</time>
      </trkpt>
      <trkpt lat="43.138083" lon="-4.644467">
        <ele>1312.0</ele>
        <time>2015-03-17T13:20:53Z</time>
      </trkpt>
      <trkpt lat="43.138117" lon="-4.644383">
        <ele>1313.0</ele>
        <time>2015-03-17T13:20:54Z</time>
      </trkpt>
      <trkpt lat="43.138167" lon="-4.644317">
        <ele>1315.0</ele>
        <time>2015-03-17T13:20:55Z</time>
      </trkpt>
      <trkpt lat="43.138217" lon="-4.644250">
        <ele>1314.0</ele>
        <time>2015-03-17T13:20:56Z</time>
      </trkpt>
      <trkpt lat="43.138233" lon="-4.644167">
        <ele>1314.0</ele>
        <time>2015-03-17T13:20:57Z</time>
      </trkpt>
      <trkpt lat="43.138250" lon="-4.644083">
        <ele>1314.0</ele>
        <time>2015-03-17T13:20:58Z</time>
      </trkpt>
      <trkpt lat="43.138267" lon="-4.643983">
        <ele>1314.0</ele>
        <time>2015-03-17T13:20:59Z</time>
      </trkpt>
      <trkpt lat="43.138300" lon="-4.643867">
        <ele>1313.0</ele>
        <time>2015-03-17T13:21:00Z</time>
      </trkpt>
      <trkpt lat="43.138367" lon="-4.643767">
        <ele>1314.0</ele>
        <time>2015-03-17T13:21:01Z</time>
      </trkpt>
      <trkpt lat="43.138433" lon="-4.643683">
        <ele>1315.0</ele>
        <time>2015-03-17T13:21:02Z</time>
      </trkpt>
      <trkpt lat="43.138500" lon="-4.643617">
        <ele>1316.0</ele>
        <time>2015-03-17T13:21:03Z</time>
      </trkpt>
      <trkpt lat="43.138583" lon="-4.643583">
        <ele>1316.0</ele>
        <time>2015-03-17T13:21:04Z</time>
      </trkpt>
      <trkpt lat="43.138667" lon="-4.643583">
        <ele>1316.0</ele>
        <time>2015-03-17T13:21:05Z</time>
      </trkpt>
      <trkpt lat="43.138750" lon="-4.643617">
        <ele>1316.0</ele>
        <time>2015-03-17T13:21:06Z</time>
      </trkpt>
      <trkpt lat="43.138850" lon="-4.643667">
        <ele>1318.0</ele>
        <time>2015-03-17T13:21:07Z</time>
      </trkpt>
      <trkpt lat="43.138917" lon="-4.643750">
        <ele>1321.0</ele>
        <time>2015-03-17T13:21:08Z</time>
      </trkpt>
      <trkpt lat="43.138967" lon="-4.643833">
        <ele>1324.0</ele>
        <time>2015-03-17T13:21:09Z</time>
      </trkpt>
      <trkpt lat="43.139017" lon="-4.643900">
        <ele>1328.0</ele>
        <time>2015-03-17T13:21:10Z</time>
      </trkpt>
      <trkpt lat="43.139050" lon="-4.643967">
        <ele>1332.0</ele>
        <time>2015-03-17T13:21:11Z</time>
      </trkpt>
      <trkpt lat="43.139100" lon="-4.644050">
        <ele>1334.0</ele>
        <time>2015-03-17T13:21:12Z</time>
      </trkpt>
      <trkpt lat="43.139133" lon="-4.644150">
        <ele>1337.0</ele>
        <time>2015-03-17T13:21:13Z</time>
      </trkpt>
      <trkpt lat="43.139133" lon="-4.644283">
        <ele>1340.0</ele>
        <time>2015-03-17T13:21:14Z</time>
      </trkpt>
      <trkpt lat="43.139117" lon="-4.644417">
        <ele>1343.0</ele>
        <time>2015-03-17T13:21:15Z</time>
      </trkpt>
      <trkpt lat="43.139083" lon="-4.644533">
        <ele>1346.0</ele>
        <time>2015-03-17T13:21:16Z</time>
      </trkpt>
      <trkpt lat="43.139033" lon="-4.644617">
        <ele>1349.0</ele>
        <time>2015-03-17T13:21:17Z</time>
      </trkpt>
      <trkpt lat="43.138983" lon="-4.644717">
        <ele>1351.0</ele>
        <time>2015-03-17T13:21:18Z</time>
      </trkpt>
      <trkpt lat="43.138933" lon="-4.644800">
        <ele>1352.0</ele>
        <time>2015-03-17T13:21:19Z</time>
      </trkpt>
      <trkpt lat="43.138850" lon="-4.644900">
        <ele>1354.0</ele>
        <time>2015-03-17T13:21:20Z</time>
      </trkpt>
      <trkpt lat="43.138767" lon="-4.645000">
        <ele>1356.0</ele>
        <time>2015-03-17T13:21:21Z</time>
      </trkpt>
      <trkpt lat="43.138667" lon="-4.645083">
        <ele>1360.0</ele>
        <time>2015-03-17T13:21:22Z</time>
      </trkpt>
      <trkpt lat="43.138583" lon="-4.645167">
        <ele>1363.0</ele>
        <time>2015-03-17T13:21:23Z</time>
      </trkpt>
      <trkpt lat="43.138517" lon="-4.645233">
        <ele>1367.0</ele>
        <time>2015-03-17T13:21:24Z</time>
      </trkpt>
      <trkpt lat="43.138467" lon="-4.645283">
        <ele>1371.0</ele>
        <time>2015-03-17T13:21:25Z</time>
      </trkpt>
      <trkpt lat="43.138400" lon="-4.645300">
        <ele>1374.0</ele>
        <time>2015-03-17T13:21:26Z</time>
      </trkpt>
      <trkpt lat="43.138317" lon="-4.645300">
        <ele>1375.0</ele>
        <time>2015-03-17T13:21:27Z</time>
      </trkpt>
      <trkpt lat="43.138233" lon="-4.645250">
        <ele>1374.0</ele>
        <time>2015-03-17T13:21:28Z</time>
      </trkpt>
      <trkpt lat="43.138183" lon="-4.645183">
        <ele>1377.0</ele>
        <time>2015-03-17T13:21:29Z</time>
      </trkpt>
      <trkpt lat="43.138150" lon="-4.645100">
        <ele>1380.0</ele>
        <time>2015-03-17T13:21:30Z</time>
      </trkpt>
      <trkpt lat="43.138150" lon="-4.645033">
        <ele>1383.0</ele>
        <time>2015-03-17T13:21:31Z</time>
      </trkpt>
      <trkpt lat="43.138167" lon="-4.644967">
        <ele>1385.0</ele>
        <time>2015-03-17T13:21:32Z</time>
      </trkpt>
      <trkpt lat="43.138167" lon="-4.644900">
        <ele>1386.0</ele>
        <time>2015-03-17T13:21:33Z</time>
      </trkpt>
      <trkpt lat="43.138183" lon="-4.644833">
        <ele>1387.0</ele>
        <time>2015-03-17T13:21:34Z</time>
      </trkpt>
      <trkpt lat="43.138217" lon="-4.644767">
        <ele>1389.0</ele>
        <time>2015-03-17T13:21:35Z</time>
      </trkpt>
      <trkpt lat="43.138267" lon="-4.644700">
        <ele>1391.0</ele>
        <time>2015-03-17T13:21:36Z</time>
      </trkpt>
      <trkpt lat="43.138333" lon="-4.644667">
        <ele>1392.0</ele>
        <time>2015-03-17T13:21:37Z</time>
      </trkpt>
      <trkpt lat="43.138400" lon="-4.644633">
        <ele>1394.0</ele>
        <time>2015-03-17T13:21:38Z</time>
      </trkpt>
      <trkpt lat="43.138467" lon="-4.644633">
        <ele>1395.0</ele>
        <time>2015-03-17T13:21:39Z</time>
      </trkpt>
      <trkpt lat="43.138533" lon="-4.644650">
        <ele>1396.0</ele>
        <time>2015-03-17T13:21:40Z</time>
      </trkpt>
      <trkpt lat="43.138600" lon="-4.644667">
        <ele>1397.0</ele>
        <time>2015-03-17T13:21:41Z</time>
      </trkpt>
      <trkpt lat="43.138650" lon="-4.644717">
        <ele>1399.0</ele>
        <time>2015-03-17T13:21:42Z</time>
      </trkpt>
      <trkpt lat="43.138700" lon="-4.644783">
        <ele>1402.0</ele>
        <time>2015-03-17T13:21:43Z</time>
      </trkpt>
      <trkpt lat="43.138733" lon="-4.644833">
        <ele>1406.0</ele>
        <time>2015-03-17T13:21:44Z</time>
      </trkpt>
      <trkpt lat="43.138750" lon="-4.644883">
        <ele>1409.0</ele>
        <time>2015-03-17T13:21:45Z</time>
      </trkpt>
      <trkpt lat="43.138783" lon="-4.644933">
        <ele>1408.0</ele>
        <time>2015-03-17T13:21:46Z</time>
      </trkpt>
      <trkpt lat="43.138817" lon="-4.645000">
        <ele>1411.0</ele>
        <time>2015-03-17T13:21:47Z</time>
      </trkpt>
      <trkpt lat="43.138850" lon="-4.645083">
        <ele>1414.0</ele>
        <time>2015-03-17T13:21:48Z</time>
      </trkpt>
      <trkpt lat="43.138867" lon="-4.645167">
        <ele>1418.0</ele>
        <time>2015-03-17T13:21:49Z</time>
      </trkpt>
      <trkpt lat="43.138867" lon="-4.645250">
        <ele>1421.0</ele>
        <time>2015-03-17T13:21:50Z</time>
      </trkpt>
      <trkpt lat="43.138883" lon="-4.645333">
        <ele>1424.0</ele>
        <time>2015-03-17T13:21:51Z</time>
      </trkpt>
      <trkpt lat="43.138867" lon="-4.645433">
        <ele>1427.0</ele>
        <time>2015-03-17T13:21:52Z</time>
      </trkpt>
      <trkpt lat="43.138850" lon="-4.645550">
        <ele>1428.0</ele>
        <time>2015-03-17T13:21:53Z</time>
      </trkpt>
      <trkpt lat="43.138800" lon="-4.645667">
        <ele>1431.0</ele>
        <time>2015-03-17T13:21:54Z</time>
      </trkpt>
      <trkpt lat="43.138750" lon="-4.645783">
        <ele>1432.0</ele>
        <time>2015-03-17T13:21:55Z</time>
      </trkpt>
      <trkpt lat="43.138667" lon="-4.645867">
        <ele>1434.0</ele>
        <time>2015-03-17T13:21:56Z</time>
      </trkpt>
      <trkpt lat="43.138583" lon="-4.645933">
        <ele>1437.0</ele>
        <time>2015-03-17T13:21:57Z</time>
      </trkpt>
      <trkpt lat="43.138483" lon="-4.646000">
        <ele>1439.0</ele>
        <time>2015-03-17T13:21:58Z</time>
      </trkpt>
      <trkpt lat="43.138400" lon="-4.646050">
        <ele>1442.0</ele>
        <time>2015-03-17T13:21:59Z</time>
      </trkpt>
      <trkpt lat="43.138317" lon="-4.646117">
        <ele>1446.0</ele>
        <time>2015-03-17T13:22:00Z</time>
      </trkpt>
      <trkpt lat="43.138233" lon="-4.646167">
        <ele>1448.0</ele>
        <time>2015-03-17T13:22:01Z</time>
      </trkpt>
      <trkpt lat="43.138150" lon="-4.646200">
        <ele>1450.0</ele>
        <time>2015-03-17T13:22:02Z</time>
      </trkpt>
      <trkpt lat="43.138067" lon="-4.646233">
        <ele>1452.0</ele>
        <time>2015-03-17T13:22:03Z</time>
      </trkpt>
      <trkpt lat="43.137967" lon="-4.646250">
        <ele>1455.0</ele>
        <time>2015-03-17T13:22:04Z</time>
      </trkpt>
      <trkpt lat="43.137883" lon="-4.646250">
        <ele>1457.0</ele>
        <time>2015-03-17T13:22:05Z</time>
      </trkpt>
      <trkpt lat="43.137800" lon="-4.646267">
        <ele>1459.0</ele>
        <time>2015-03-17T13:22:06Z</time>
      </trkpt>
      <trkpt lat="43.137717" lon="-4.646267">
        <ele>1462.0</ele>
        <time>2015-03-17T13:22:07Z</time>
      </trkpt>
      <trkpt lat="43.137633" lon="-4.646267">
        <ele>1464.0</ele>
        <time>2015-03-17T13:22:08Z</time>
      </trkpt>
      <trkpt lat="43.137550" lon="-4.646250">
        <ele>1468.0</ele>
        <time>2015-03-17T13:22:09Z</time>
      </trkpt>
      <trkpt lat="43.137483" lon="-4.646217">
        <ele>1472.0</ele>
        <time>2015-03-17T13:22:10Z</time>
      </trkpt>
      <trkpt lat="43.137417" lon="-4.646183">
        <ele>1477.0</ele>
        <time>2015-03-17T13:22:11Z</time>
      </trkpt>
      <trkpt lat="43.137367" lon="-4.646150">
        <ele>1481.0</ele>
        <time>2015-03-17T13:22:12Z</time>
      </trkpt>
      <trkpt lat="43.137333" lon="-4.646117">
        <ele>1484.0</ele>
        <time>2015-03-17T13:22:13Z</time>
      </trkpt>
      <trkpt lat="43.137300" lon="-4.646067">
        <ele>1485.0</ele>
        <time>2015-03-17T13:22:14Z</time>
      </trkpt>
      <trkpt lat="43.137267" lon="-4.645983">
        <ele>1486.0</ele>
        <time>2015-03-17T13:22:15Z</time>
      </trkpt>
      <trkpt lat="43.137250" lon="-4.645883">
        <ele>1487.0</ele>
        <time>2015-03-17T13:22:16Z</time>
      </trkpt>
      <trkpt lat="43.137267" lon="-4.645767">
        <ele>1489.0</ele>
        <time>2015-03-17T13:22:17Z</time>
      </trkpt>
      <trkpt lat="43.137267" lon="-4.645683">
        <ele>1492.0</ele>
        <time>2015-03-17T13:22:18Z</time>
      </trkpt>
      <trkpt lat="43.137283" lon="-4.645600">
        <ele>1491.0</ele>
        <time>2015-03-17T13:22:19Z</time>
      </trkpt>
      <trkpt lat="43.137317" lon="-4.645517">
        <ele>1493.0</ele>
        <time>2015-03-17T13:22:20Z</time>
      </trkpt>
      <trkpt lat="43.137333" lon="-4.645450">
        <ele>1495.0</ele>
        <time>2015-03-17T13:22:21Z</time>
      </trkpt>
      <trkpt lat="43.137350" lon="-4.645367">
        <ele>1496.0</ele>
        <time>2015-03-17T13:22:22Z</time>
      </trkpt>
      <trkpt lat="43.137367" lon="-4.645283">
        <ele>1497.0</ele>
        <time>2015-03-17T13:22:23Z</time>
      </trkpt>
      <trkpt lat="43.137400" lon="-4.645200">
        <ele>1498.0</ele>
        <time>2015-03-17T13:22:24Z</time>
      </trkpt>
      <trkpt lat="43.137433" lon="-4.645133">
        <ele>1498.0</ele>
        <time>2015-03-17T13:22:25Z</time>
      </trkpt>
      <trkpt lat="43.137483" lon="-4.645083">
        <ele>1499.0</ele>
        <time>2015-03-17T13:22:26Z</time>
      </trkpt>
      <trkpt lat="43.137550" lon="-4.645050">
        <ele>1499.0</ele>
        <time>2015-03-17T13:22:27Z</time>
      </trkpt>
      <trkpt lat="43.137633" lon="-4.645033">
        <ele>1499.0</ele>
        <time>2015-03-17T13:22:28Z</time>
      </trkpt>
      <trkpt lat="43.137733" lon="-4.645067">
        <ele>1499.0</ele>
        <time>2015-03-17T13:22:29Z</time>
      </trkpt>
      <trkpt lat="43.137833" lon="-4.645100">
        <ele>1500.0</ele>
        <time>2015-03-17T13:22:30Z</time>
      </trkpt>
      <trkpt lat="43.137933" lon="-4.645150">
        <ele>1502.0</ele>
        <time>2015-03-17T13:22:31Z</time>
      </trkpt>
      <trkpt lat="43.138033" lon="-4.645183">
        <ele>1503.0</ele>
        <time>2015-03-17T13:22:32Z</time>
      </trkpt>
      <trkpt lat="43.138117" lon="-4.645233">
        <ele>1503.0</ele>
        <time>2015-03-17T13:22:33Z</time>
      </trkpt>
      <trkpt lat="43.138217" lon="-4.645283">
        <ele>1503.0</ele>
        <time>2015-03-17T13:22:34Z</time>
      </trkpt>
      <trkpt lat="43.138317" lon="-4.645350">
        <ele>1503.0</ele>
        <time>2015-03-17T13:22:35Z</time>
      </trkpt>
      <trkpt lat="43.138417" lon="-4.645433">
        <ele>1503.0</ele>
        <time>2015-03-17T13:22:36Z</time>
      </trkpt>
      <trkpt lat="43.138517" lon="-4.645500">
        <ele>1503.0</ele>
        <time>2015-03-17T13:22:37Z</time>
      </trkpt>
      <trkpt lat="43.138617" lon="-4.645567">
        <ele>1503.0</ele>
        <time>2015-03-17T13:22:38Z</time>
      </trkpt>
      <trkpt lat="43.138700" lon="-4.645633">
        <ele>1503.0</ele>
        <time>2015-03-17T13:22:39Z</time>
      </trkpt>
      <trkpt lat="43.138817" lon="-4.645700">
        <ele>1505.0</ele>
        <time>2015-03-17T13:22:40Z</time>
      </trkpt>
      <trkpt lat="43.138917" lon="-4.645767">
        <ele>1508.0</ele>
        <time>2015-03-17T13:22:41Z</time>
      </trkpt>
      <trkpt lat="43.139000" lon="-4.645833">
        <ele>1511.0</ele>
        <time>2015-03-17T13:22:42Z</time>
      </trkpt>
      <trkpt lat="43.139083" lon="-4.645867">
        <ele>1516.0</ele>
        <time>2015-03-17T13:22:43Z</time>
      </trkpt>
      <trkpt lat="43.139167" lon="-4.645917">
        <ele>1519.0</ele>
        <time>2015-03-17T13:22:44Z</time>
      </trkpt>
      <trkpt lat="43.139250" lon="-4.645967">
        <ele>1520.0</ele>
        <time>2015-03-17T13:22:45Z</time>
      </trkpt>
      <trkpt lat="43.139333" lon="-4.646033">
        <ele>1522.0</ele>
        <time>2015-03-17T13:22:46Z</time>
      </trkpt>
      <trkpt lat="43.139433" lon="-4.646133">
        <ele>1525.0</ele>
        <time>2015-03-17T13:22:47Z</time>
      </trkpt>
      <trkpt lat="43.139517" lon="-4.646250">
        <ele>1527.0</ele>
        <time>2015-03-17T13:22:48Z</time>
      </trkpt>
      <trkpt lat="43.139567" lon="-4.646383">
        <ele>1531.0</ele>
        <time>2015-03-17T13:22:49Z</time>
      </trkpt>
      <trkpt lat="43.139600" lon="-4.646517">
        <ele>1534.0</ele>
        <time>2015-03-17T13:22:50Z</time>
      </trkpt>
      <trkpt lat="43.139617" lon="-4.646650">
        <ele>1537.0</ele>
        <time>2015-03-17T13:22:51Z</time>
      </trkpt>
      <trkpt lat="43.139617" lon="-4.646783">
        <ele>1540.0</ele>
        <time>2015-03-17T13:22:52Z</time>
      </trkpt>
      <trkpt lat="43.139617" lon="-4.646917">
        <ele>1542.0</ele>
        <time>2015-03-17T13:22:53Z</time>
      </trkpt>
      <trkpt lat="43.139583" lon="-4.647050">
        <ele>1545.0</ele>
        <time>2015-03-17T13:22:54Z</time>
      </trkpt>
      <trkpt lat="43.139533" lon="-4.647167">
        <ele>1548.0</ele>
        <time>2015-03-17T13:22:55Z</time>
      </trkpt>
      <trkpt lat="43.139467" lon="-4.647267">
        <ele>1551.0</ele>
        <time>2015-03-17T13:22:56Z</time>
      </trkpt>
      <trkpt lat="43.139400" lon="-4.647367">
        <ele>1555.0</ele>
        <time>2015-03-17T13:22:57Z</time>
      </trkpt>
      <trkpt lat="43.139367" lon="-4.647467">
        <ele>1559.0</ele>
        <time>2015-03-17T13:22:58Z</time>
      </trkpt>
      <trkpt lat="43.139317" lon="-4.647550">
        <ele>1564.0</ele>
        <time>2015-03-17T13:22:59Z</time>
      </trkpt>
      <trkpt lat="43.139267" lon="-4.647600">
        <ele>1568.0</ele>
        <time>2015-03-17T13:23:00Z</time>
      </trkpt>
      <trkpt lat="43.139200" lon="-4.647667">
        <ele>1570.0</ele>
        <time>2015-03-17T13:23:01Z</time>
      </trkpt>
      <trkpt lat="43.139133" lon="-4.647700">
        <ele>1571.0</ele>
        <time>2015-03-17T13:23:02Z</time>
      </trkpt>
      <trkpt lat="43.139033" lon="-4.647733">
        <ele>1574.0</ele>
        <time>2015-03-17T13:23:03Z</time>
      </trkpt>
      <trkpt lat="43.138933" lon="-4.647750">
        <ele>1577.0</ele>
        <time>2015-03-17T13:23:04Z</time>
      </trkpt>
      <trkpt lat="43.138833" lon="-4.647733">
        <ele>1582.0</ele>
        <time>2015-03-17T13:23:05Z</time>
      </trkpt>
      <trkpt lat="43.138767" lon="-4.647733">
        <ele>1588.0</ele>
        <time>2015-03-17T13:23:06Z</time>
      </trkpt>
      <trkpt lat="43.138700" lon="-4.647733">
        <ele>1593.0</ele>
        <time>2015-03-17T13:23:07Z</time>
      </trkpt>
      <trkpt lat="43.138633" lon="-4.647733">
        <ele>1597.0</ele>
        <time>2015-03-17T13:23:08Z</time>
      </trkpt>
      <trkpt lat="43.138567" lon="-4.647733">
        <ele>1601.0</ele>
        <time>2015-03-17T13:23:09Z</time>
      </trkpt>
      <trkpt lat="43.138483" lon="-4.647717">
        <ele>1605.0</ele>
        <time>2015-03-17T13:23:10Z</time>
      </trkpt>
      <trkpt lat="43.138417" lon="-4.647700">
        <ele>1608.0</ele>
        <time>2015-03-17T13:23:11Z</time>
      </trkpt>
      <trkpt lat="43.138383" lon="-4.647667">
        <ele>1611.0</ele>
        <time>2015-03-17T13:23:12Z</time>
      </trkpt>
      <trkpt lat="43.138367" lon="-4.647600">
        <ele>1614.0</ele>
        <time>2015-03-17T13:23:13Z</time>
      </trkpt>
      <trkpt lat="43.138400" lon="-4.647533">
        <ele>1616.0</ele>
        <time>2015-03-17T13:23:14Z</time>
      </trkpt>
      <trkpt lat="43.138467" lon="-4.647483">
        <ele>1618.0</ele>
        <time>2015-03-17T13:23:15Z</time>
      </trkpt>
      <trkpt lat="43.138550" lon="-4.647467">
        <ele>1621.0</ele>
        <time>2015-03-17T13:23:16Z</time>
      </trkpt>
      <trkpt lat="43.138633" lon="-4.647450">
        <ele>1623.0</ele>
        <time>2015-03-17T13:23:17Z</time>
      </trkpt>
      <trkpt lat="43.138717" lon="-4.647467">
        <ele>1626.0</ele>
        <time>2015-03-17T13:23:18Z</time>
      </trkpt>
      <trkpt lat="43.138800" lon="-4.647500">
        <ele>1630.0</ele>
        <time>2015-03-17T13:23:19Z</time>
      </trkpt>
      <trkpt lat="43.138867" lon="-4.647517">
        <ele>1634.0</ele>
        <time>2015-03-17T13:23:20Z</time>
      </trkpt>
      <trkpt lat="43.138917" lon="-4.647550">
        <ele>1637.0</ele>
        <time>2015-03-17T13:23:21Z</time>
      </trkpt>
      <trkpt lat="43.138967" lon="-4.647600">
        <ele>1637.0</ele>
        <time>2015-03-17T13:23:22Z</time>
      </trkpt>
      <trkpt lat="43.139050" lon="-4.647617">
        <ele>1641.0</ele>
        <time>2015-03-17T13:23:23Z</time>
      </trkpt>
      <trkpt lat="43.139133" lon="-4.647633">
        <ele>1646.0</ele>
        <time>2015-03-17T13:23:24Z</time>
      </trkpt>
      <trkpt lat="43.139200" lon="-4.647667">
        <ele>1650.0</ele>
        <time>2015-03-17T13:23:25Z</time>
      </trkpt>
      <trkpt lat="43.139267" lon="-4.647733">
        <ele>1655.0</ele>
        <time>2015-03-17T13:23:26Z</time>
      </trkpt>
      <trkpt lat="43.139317" lon="-4.647817">
        <ele>1658.0</ele>
        <time>2015-03-17T13:23:27Z</time>
      </trkpt>
      <trkpt lat="43.139350" lon="-4.647933">
        <ele>1662.0</ele>
        <time>2015-03-17T13:23:28Z</time>
      </trkpt>
      <trkpt lat="43.139367" lon="-4.648067">
        <ele>1666.0</ele>
        <time>2015-03-17T13:23:29Z</time>
      </trkpt>
      <trkpt lat="43.139350" lon="-4.648183">
        <ele>1670.0</ele>
        <time>2015-03-17T13:23:30Z</time>
      </trkpt>
      <trkpt lat="43.139333" lon="-4.648300">
        <ele>1674.0</ele>
        <time>2015-03-17T13:23:31Z</time>
      </trkpt>
      <trkpt lat="43.139283" lon="-4.648433">
        <ele>1677.0</ele>
        <time>2015-03-17T13:23:32Z</time>
      </trkpt>
      <trkpt lat="43.139217" lon="-4.648533">
        <ele>1680.0</ele>
        <time>2015-03-17T13:23:33Z</time>
      </trkpt>
      <trkpt lat="43.139133" lon="-4.648600">
        <ele>1683.0</ele>
        <time>2015-03-17T13:23:34Z</time>
      </trkpt>
      <trkpt lat="43.139050" lon="-4.648617">
        <ele>1686.0</ele>
        <time>2015-03-17T13:23:35Z</time>
      </trkpt>
      <trkpt lat="43.138950" lon="-4.648617">
        <ele>1689.0</ele>
        <time>2015-03-17T13:23:36Z</time>
      </trkpt>
      <trkpt lat="43.138883" lon="-4.648617">
        <ele>1694.0</ele>
        <time>2015-03-17T13:23:37Z</time>
      </trkpt>
      <trkpt lat="43.138817" lon="-4.648600">
        <ele>1699.0</ele>
        <time>2015-03-17T13:23:38Z</time>
      </trkpt>
      <trkpt lat="43.138750" lon="-4.648583">
        <ele>1705.0</ele>
        <time>2015-03-17T13:23:39Z</time>
      </trkpt>
      <trkpt lat="43.138683" lon="-4.648583">
        <ele>1710.0</ele>
        <time>2015-03-17T13:23:40Z</time>
      </trkpt>
      <trkpt lat="43.138633" lon="-4.648600">
        <ele>1714.0</ele>
        <time>2015-03-17T13:23:41Z</time>
      </trkpt>
      <trkpt lat="43.138583" lon="-4.648600">
        <ele>1717.0</ele>
        <time>2015-03-17T13:23:42Z</time>
      </trkpt>
      <trkpt lat="43.138550" lon="-4.648583">
        <ele>1720.0</ele>
        <time>2015-03-17T13:23:43Z</time>
      </trkpt>
      <trkpt lat="43.138517" lon="-4.648517">
        <ele>1723.0</ele>
        <time>2015-03-17T13:23:44Z</time>
      </trkpt>
      <trkpt lat="43.138533" lon="-4.648433">
        <ele>1726.0</ele>
        <time>2015-03-17T13:23:45Z</time>
      </trkpt>
      <trkpt lat="43.138567" lon="-4.648383">
        <ele>1729.0</ele>
        <time>2015-03-17T13:23:46Z</time>
      </trkpt>
      <trkpt lat="43.138617" lon="-4.648333">
        <ele>1732.0</ele>
        <time>2015-03-17T13:23:47Z</time>
      </trkpt>
      <trkpt lat="43.138683" lon="-4.648317">
        <ele>1736.0</ele>
        <time>2015-03-17T13:23:48Z</time>
      </trkpt>
      <trkpt lat="43.138767" lon="-4.648333">
        <ele>1738.0</ele>
        <time>2015-03-17T13:23:49Z</time>
      </trkpt>
      <trkpt lat="43.138833" lon="-4.648400">
        <ele>1741.0</ele>
        <time>2015-03-17T13:23:50Z</time>
      </trkpt>
      <trkpt lat="43.138900" lon="-4.648467">
        <ele>1744.0</ele>
        <time>2015-03-17T13:23:51Z</time>
      </trkpt>
      <trkpt lat="43.138967" lon="-4.648533">
        <ele>1748.0</ele>
        <time>2015-03-17T13:23:52Z</time>
      </trkpt>
      <trkpt lat="43.139033" lon="-4.648617">
        <ele>1751.0</ele>
        <time>2015-03-17T13:23:53Z</time>
      </trkpt>
      <trkpt lat="43.139100" lon="-4.648700">
        <ele>1754.0</ele>
        <time>2015-03-17T13:23:54Z</time>
      </trkpt>
      <trkpt lat="43.139167" lon="-4.648800">
        <ele>1757.0</ele>
        <time>2015-03-17T13:23:55Z</time>
      </trkpt>
      <trkpt lat="43.139250" lon="-4.648900">
        <ele>1761.0</ele>
        <time>2015-03-17T13:23:56Z</time>
      </trkpt>
      <trkpt lat="43.139300" lon="-4.649017">
        <ele>1765.0</ele>
        <time>2015-03-17T13:23:57Z</time>
      </trkpt>
      <trkpt lat="43.139333" lon="-4.649133">
        <ele>1770.0</ele>
        <time>2015-03-17T13:23:58Z</time>
      </trkpt>
      <trkpt lat="43.139367" lon="-4.649233">
        <ele>1774.0</ele>
        <time>2015-03-17T13:23:59Z</time>
      </trkpt>
      <trkpt lat="43.139367" lon="-4.649350">
        <ele>1777.0</ele>
        <time>2015-03-17T13:24:00Z</time>
      </trkpt>
      <trkpt lat="43.139383" lon="-4.649450">
        <ele>1780.0</ele>
        <time>2015-03-17T13:24:01Z</time>
      </trkpt>
      <trkpt lat="43.139383" lon="-4.649567">
        <ele>1782.0</ele>
        <time>2015-03-17T13:24:02Z</time>
      </trkpt>
      <trkpt lat="43.139350" lon="-4.649700">
        <ele>1784.0</ele>
        <time>2015-03-17T13:24:03Z</time>
      </trkpt>
      <trkpt lat="43.139300" lon="-4.649833">
        <ele>1787.0</ele>
        <time>2015-03-17T13:24:04Z</time>
      </trkpt>
      <trkpt lat="43.139233" lon="-4.649933">
        <ele>1790.0</ele>
        <time>2015-03-17T13:24:05Z</time>
      </trkpt>
      <trkpt lat="43.139167" lon="-4.650017">
        <ele>1794.0</ele>
        <time>2015-03-17T13:24:06Z</time>
      </trkpt>
      <trkpt lat="43.139117" lon="-4.650100">
        <ele>1797.0</ele>
        <time>2015-03-17T13:24:07Z</time>
      </trkpt>
      <trkpt lat="43.139067" lon="-4.650183">
        <ele>1800.0</ele>
        <time>2015-03-17T13:24:08Z</time>
      </trkpt>
      <trkpt lat="43.139017" lon="-4.650267">
        <ele>1802.0</ele>
        <time>2015-03-17T13:24:09Z</time>
      </trkpt>
      <trkpt lat="43.138950" lon="-4.650350">
        <ele>1803.0</ele>
        <time>2015-03-17T13:24:10Z</time>
      </trkpt>
      <trkpt lat="43.138883" lon="-4.650417">
        <ele>1804.0</ele>
        <time>2015-03-17T13:24:11Z</time>
      </trkpt>
      <trkpt lat="43.138783" lon="-4.650483">
        <ele>1805.0</ele>
        <time>2015-03-17T13:24:12Z</time>
      </trkpt>
      <trkpt lat="43.138700" lon="-4.650550">
        <ele>1806.0</ele>
        <time>2015-03-17T13:24:13Z</time>
      </trkpt>
      <trkpt lat="43.138617" lon="-4.650617">
        <ele>1810.0</ele>
        <time>2015-03-17T13:24:14Z</time>
      </trkpt>
      <trkpt lat="43.138550" lon="-4.650683">
        <ele>1812.0</ele>
        <time>2015-03-17T13:24:15Z</time>
      </trkpt>
      <trkpt lat="43.138483" lon="-4.650733">
        <ele>1813.0</ele>
        <time>2015-03-17T13:24:16Z</time>
      </trkpt>
      <trkpt lat="43.138417" lon="-4.650750">
        <ele>1812.0</ele>
        <time>2015-03-17T13:24:17Z</time>
      </trkpt>
      <trkpt lat="43.138333" lon="-4.650750">
        <ele>1812.0</ele>
        <time>2015-03-17T13:24:18Z</time>
      </trkpt>
      <trkpt lat="43.138233" lon="-4.650733">
        <ele>1813.0</ele>
        <time>2015-03-17T13:24:19Z</time>
      </trkpt>
      <trkpt lat="43.138150" lon="-4.650700">
        <ele>1814.0</ele>
        <time>2015-03-17T13:24:20Z</time>
      </trkpt>
      <trkpt lat="43.138050" lon="-4.650683">
        <ele>1816.0</ele>
        <time>2015-03-17T13:24:21Z</time>
      </trkpt>
      <trkpt lat="43.137983" lon="-4.650683">
        <ele>1819.0</ele>
        <time>2015-03-17T13:24:22Z</time>
      </trkpt>
      <trkpt lat="43.137900" lon="-4.650667">
        <ele>1821.0</ele>
        <time>2015-03-17T13:24:23Z</time>
      </trkpt>
      <trkpt lat="43.137817" lon="-4.650633">
        <ele>1823.0</ele>
        <time>2015-03-17T13:24:24Z</time>
      </trkpt>
      <trkpt lat="43.137750" lon="-4.650617">
        <ele>1824.0</ele>
        <time>2015-03-17T13:24:25Z</time>
      </trkpt>
      <trkpt lat="43.137667" lon="-4.650583">
        <ele>1826.0</ele>
        <time>2015-03-17T13:24:26Z</time>
      </trkpt>
      <trkpt lat="43.137600" lon="-4.650533">
        <ele>1829.0</ele>
        <time>2015-03-17T13:24:27Z</time>
      </trkpt>
      <trkpt lat="43.137550" lon="-4.650483">
        <ele>1831.0</ele>
        <time>2015-03-17T13:24:28Z</time>
      </trkpt>
      <trkpt lat="43.137500" lon="-4.650417">
        <ele>1834.0</ele>
        <time>2015-03-17T13:24:29Z</time>
      </trkpt>
      <trkpt lat="43.137467" lon="-4.650350">
        <ele>1836.0</ele>
        <time>2015-03-17T13:24:30Z</time>
      </trkpt>
      <trkpt lat="43.137433" lon="-4.650283">
        <ele>1839.0</ele>
        <time>2015-03-17T13:24:31Z</time>
      </trkpt>
      <trkpt lat="43.137400" lon="-4.650250">
        <ele>1840.0</ele>
        <time>2015-03-17T13:24:32Z</time>
      </trkpt>
      <trkpt lat="43.137367" lon="-4.650183">
        <ele>1841.0</ele>
        <time>2015-03-17T13:24:33Z</time>
      </trkpt>
      <trkpt lat="43.137350" lon="-4.650117">
        <ele>1841.0</ele>
        <time>2015-03-17T13:24:34Z</time>
      </trkpt>
      <trkpt lat="43.137383" lon="-4.650033">
        <ele>1841.0</ele>
        <time>2015-03-17T13:24:35Z</time>
      </trkpt>
      <trkpt lat="43.137417" lon="-4.649950">
        <ele>1842.0</ele>
        <time>2015-03-17T13:24:36Z</time>
      </trkpt>
      <trkpt lat="43.137467" lon="-4.649900">
        <ele>1844.0</ele>
        <time>2015-03-17T13:24:37Z</time>
      </trkpt>
      <trkpt lat="43.137533" lon="-4.649883">
        <ele>1846.0</ele>
        <time>2015-03-17T13:24:38Z</time>
      </trkpt>
      <trkpt lat="43.137583" lon="-4.649883">
        <ele>1847.0</ele>
        <time>2015-03-17T13:24:39Z</time>
      </trkpt>
      <trkpt lat="43.137650" lon="-4.649917">
        <ele>1847.0</ele>
        <time>2015-03-17T13:24:40Z</time>
      </trkpt>
      <trkpt lat="43.137733" lon="-4.649950">
        <ele>1846.0</ele>
        <time>2015-03-17T13:24:41Z</time>
      </trkpt>
      <trkpt lat="43.137817" lon="-4.650017">
        <ele>1847.0</ele>
        <time>2015-03-17T13:24:42Z</time>
      </trkpt>
      <trkpt lat="43.137883" lon="-4.650117">
        <ele>1847.0</ele>
        <time>2015-03-17T13:24:43Z</time>
      </trkpt>
      <trkpt lat="43.137950" lon="-4.650200">
        <ele>1848.0</ele>
        <time>2015-03-17T13:24:44Z</time>
      </trkpt>
      <trkpt lat="43.138000" lon="-4.650300">
        <ele>1849.0</ele>
        <time>2015-03-17T13:24:45Z</time>
      </trkpt>
      <trkpt lat="43.138067" lon="-4.650417">
        <ele>1850.0</ele>
        <time>2015-03-17T13:24:46Z</time>
      </trkpt>
      <trkpt lat="43.138133" lon="-4.650517">
        <ele>1850.0</ele>
        <time>2015-03-17T13:24:47Z</time>
      </trkpt>
      <trkpt lat="43.138200" lon="-4.650617">
        <ele>1851.0</ele>
        <time>2015-03-17T13:24:48Z</time>
      </trkpt>
      <trkpt lat="43.138267" lon="-4.650717">
        <ele>1851.0</ele>
        <time>2015-03-17T13:24:49Z</time>
      </trkpt>
      <trkpt lat="43.138317" lon="-4.650833">
        <ele>1850.0</ele>
        <time>2015-03-17T13:24:50Z</time>
      </trkpt>
      <trkpt lat="43.138383" lon="-4.650967">
        <ele>1851.0</ele>
        <time>2015-03-17T13:24:51Z</time>
      </trkpt>
      <trkpt lat="43.138433" lon="-4.651100">
        <ele>1851.0</ele>
        <time>2015-03-17T13:24:52Z</time>
      </trkpt>
      <trkpt lat="43.138500" lon="-4.651217">
        <ele>1852.0</ele>
        <time>2015-03-17T13:24:53Z</time>
      </trkpt>
      <trkpt lat="43.138550" lon="-4.651333">
        <ele>1856.0</ele>
        <time>2015-03-17T13:24:54Z</time>
      </trkpt>
      <trkpt lat="43.138600" lon="-4.651450">
        <ele>1860.0</ele>
        <time>2015-03-17T13:24:55Z</time>
      </trkpt>
      <trkpt lat="43.138650" lon="-4.651550">
        <ele>1863.0</ele>
        <time>2015-03-17T13:24:56Z</time>
      </trkpt>
      <trkpt lat="43.138683" lon="-4.651650">
        <ele>1865.0</ele>
        <time>2015-03-17T13:24:57Z</time>
      </trkpt>
      <trkpt lat="43.138700" lon="-4.651767">
        <ele>1867.0</ele>
        <time>2015-03-17T13:24:58Z</time>
      </trkpt>
      <trkpt lat="43.138700" lon="-4.651883">
        <ele>1870.0</ele>
        <time>2015-03-17T13:24:59Z</time>
      </trkpt>
      <trkpt lat="43.138683" lon="-4.651983">
        <ele>1872.0</ele>
        <time>2015-03-17T13:25:00Z</time>
      </trkpt>
      <trkpt lat="43.138633" lon="-4.652067">
        <ele>1873.0</ele>
        <time>2015-03-17T13:25:01Z</time>
      </trkpt>
      <trkpt lat="43.138567" lon="-4.652133">
        <ele>1875.0</ele>
        <time>2015-03-17T13:25:02Z</time>
      </trkpt>
      <trkpt lat="43.138517" lon="-4.652167">
        <ele>1877.0</ele>
        <time>2015-03-17T13:25:03Z</time>
      </trkpt>
      <trkpt lat="43.138467" lon="-4.652183">
        <ele>1879.0</ele>
        <time>2015-03-17T13:25:04Z</time>
      </trkpt>
      <trkpt lat="43.138417" lon="-4.652200">
        <ele>1878.0</ele>
        <time>2015-03-17T13:25:05Z</time>
      </trkpt>
      <trkpt lat="43.138350" lon="-4.652233">
        <ele>1879.0</ele>
        <time>2015-03-17T13:25:06Z</time>
      </trkpt>
      <trkpt lat="43.138300" lon="-4.652267">
        <ele>1881.0</ele>
        <time>2015-03-17T13:25:07Z</time>
      </trkpt>
      <trkpt lat="43.138250" lon="-4.652283">
        <ele>1883.0</ele>
        <time>2015-03-17T13:25:08Z</time>
      </trkpt>
      <trkpt lat="43.138183" lon="-4.652283">
        <ele>1884.0</ele>
        <time>2015-03-17T13:25:09Z</time>
      </trkpt>
      <trkpt lat="43.138100" lon="-4.652300">
        <ele>1886.0</ele>
        <time>2015-03-17T13:25:10Z</time>
      </trkpt>
      <trkpt lat="43.138017" lon="-4.652317">
        <ele>1886.0</ele>
        <time>2015-03-17T13:25:11Z</time>
      </trkpt>
      <trkpt lat="43.137950" lon="-4.652333">
        <ele>1888.0</ele>
        <time>2015-03-17T13:25:12Z</time>
      </trkpt>
      <trkpt lat="43.137883" lon="-4.652333">
        <ele>1890.0</ele>
        <time>2015-03-17T13:25:13Z</time>
      </trkpt>
      <trkpt lat="43.137833" lon="-4.652350">
        <ele>1892.0</ele>
        <time>2015-03-17T13:25:14Z</time>
      </trkpt>
      <trkpt lat="43.137783" lon="-4.652383">
        <ele>1894.0</ele>
        <time>2015-03-17T13:25:15Z</time>
      </trkpt>
      <trkpt lat="43.137717" lon="-4.652383">
        <ele>1895.0</ele>
        <time>2015-03-17T13:25:16Z</time>
      </trkpt>
      <trkpt lat="43.137650" lon="-4.652383">
        <ele>1895.0</ele>
        <time>2015-03-17T13:25:17Z</time>
      </trkpt>
      <trkpt lat="43.137583" lon="-4.652367">
        <ele>1897.0</ele>
        <time>2015-03-17T13:25:18Z</time>
      </trkpt>
      <trkpt lat="43.137533" lon="-4.652317">
        <ele>1898.0</ele>
        <time>2015-03-17T13:25:19Z</time>
      </trkpt>
      <trkpt lat="43.137500" lon="-4.652267">
        <ele>1899.0</ele>
        <time>2015-03-17T13:25:20Z</time>
      </trkpt>
      <trkpt lat="43.137450" lon="-4.652217">
        <ele>1900.0</ele>
        <time>2015-03-17T13:25:21Z</time>
      </trkpt>
      <trkpt lat="43.137417" lon="-4.652150">
        <ele>1900.0</ele>
        <time>2015-03-17T13:25:22Z</time>
      </trkpt>
      <trkpt lat="43.137383" lon="-4.652083">
        <ele>1901.0</ele>
        <time>2015-03-17T13:25:23Z</time>
      </trkpt>
      <trkpt lat="43.137333" lon="-4.652033">
        <ele>1903.0</ele>
        <time>2015-03-17T13:25:24Z</time>
      </trkpt>
      <trkpt lat="43.137333" lon="-4.651950">
        <ele>1904.0</ele>
        <time>2015-03-17T13:25:25Z</time>
      </trkpt>
      <trkpt lat="43.137350" lon="-4.651867">
        <ele>1905.0</ele>
        <time>2015-03-17T13:25:26Z</time>
      </trkpt>
      <trkpt lat="43.137400" lon="-4.651783">
        <ele>1906.0</ele>
        <time>2015-03-17T13:25:27Z</time>
      </trkpt>
      <trkpt lat="43.137483" lon="-4.651733">
        <ele>1908.0</ele>
        <time>2015-03-17T13:25:28Z</time>
      </trkpt>
      <trkpt lat="43.137583" lon="-4.651717">
        <ele>1911.0</ele>
        <time>2015-03-17T13:25:29Z</time>
      </trkpt>
      <trkpt lat="43.137683" lon="-4.651700">
        <ele>1913.0</ele>
        <time>2015-03-17T13:25:30Z</time>
      </trkpt>
      <trkpt lat="43.137767" lon="-4.651717">
        <ele>1915.0</ele>
        <time>2015-03-17T13:25:31Z</time>
      </trkpt>
      <trkpt lat="43.137867" lon="-4.651733">
        <ele>1916.0</ele>
        <time>2015-03-17T13:25:32Z</time>
      </trkpt>
      <trkpt lat="43.137950" lon="-4.651783">
        <ele>1916.0</ele>
        <time>2015-03-17T13:25:33Z</time>
      </trkpt>
      <trkpt lat="43.138067" lon="-4.651833">
        <ele>1918.0</ele>
        <time>2015-03-17T13:25:34Z</time>
      </trkpt>
      <trkpt lat="43.138183" lon="-4.651900">
        <ele>1919.0</ele>
        <time>2015-03-17T13:25:35Z</time>
      </trkpt>
      <trkpt lat="43.138283" lon="-4.651950">
        <ele>1920.0</ele>
        <time>2015-03-17T13:25:36Z</time>
      </trkpt>
      <trkpt lat="43.138383" lon="-4.652017">
        <ele>1921.0</ele>
        <time>2015-03-17T13:25:37Z</time>
      </trkpt>
      <trkpt lat="43.138483" lon="-4.652083">
        <ele>1923.0</ele>
        <time>2015-03-17T13:25:38Z</time>
      </trkpt>
      <trkpt lat="43.138600" lon="-4.652150">
        <ele>1923.0</ele>
        <time>2015-03-17T13:25:39Z</time>
      </trkpt>
      <trkpt lat="43.138700" lon="-4.652217">
        <ele>1924.0</ele>
        <time>2015-03-17T13:25:40Z</time>
      </trkpt>
      <trkpt lat="43.138783" lon="-4.652300">
        <ele>1927.0</ele>
        <time>2015-03-17T13:25:41Z</time>
      </trkpt>
      <trkpt lat="43.138883" lon="-4.652350">
        <ele>1929.0</ele>
        <time>2015-03-17T13:25:42Z</time>
      </trkpt>
      <trkpt lat="43.138983" lon="-4.652383">
        <ele>1931.0</ele>
        <time>2015-03-17T13:25:43Z</time>
      </trkpt>
      <trkpt lat="43.139067" lon="-4.652433">
        <ele>1933.0</ele>
        <time>2015-03-17T13:25:44Z</time>
      </trkpt>
      <trkpt lat="43.139150" lon="-4.652500">
        <ele>1935.0</ele>
        <time>2015-03-17T13:25:45Z</time>
      </trkpt>
      <trkpt lat="43.139233" lon="-4.652583">
        <ele>1937.0</ele>
        <time>2015-03-17T13:25:46Z</time>
      </trkpt>
      <trkpt lat="43.139317" lon="-4.652667">
        <ele>1938.0</ele>
        <time>2015-03-17T13:25:47Z</time>
      </trkpt>
      <trkpt lat="43.139383" lon="-4.652767">
        <ele>1939.0</ele>
        <time>2015-03-17T13:25:48Z</time>
      </trkpt>
      <trkpt lat="43.139483" lon="-4.652850">
        <ele>1939.0</ele>
        <time>2015-03-17T13:25:49Z</time>
      </trkpt>
      <trkpt lat="43.139583" lon="-4.652917">
        <ele>1939.0</ele>
        <time>2015-03-17T13:25:50Z</time>
      </trkpt>
      <trkpt lat="43.139683" lon="-4.652950">
        <ele>1940.0</ele>
        <time>2015-03-17T13:25:51Z</time>
      </trkpt>
      <trkpt lat="43.139783" lon="-4.652967">
        <ele>1942.0</ele>
        <time>2015-03-17T13:25:52Z</time>
      </trkpt>
      <trkpt lat="43.139883" lon="-4.652983">
        <ele>1944.0</ele>
        <time>2015-03-17T13:25:53Z</time>
      </trkpt>
      <trkpt lat="43.139967" lon="-4.653017">
        <ele>1947.0</ele>
        <time>2015-03-17T13:25:54Z</time>
      </trkpt>
      <trkpt lat="43.140067" lon="-4.653083">
        <ele>1948.0</ele>
        <time>2015-03-17T13:25:55Z</time>
      </trkpt>
      <trkpt lat="43.140167" lon="-4.653150">
        <ele>1950.0</ele>
        <time>2015-03-17T13:25:56Z</time>
      </trkpt>
      <trkpt lat="43.140267" lon="-4.653217">
        <ele>1954.0</ele>
        <time>2015-03-17T13:25:57Z</time>
      </trkpt>
      <trkpt lat="43.140350" lon="-4.653283">
        <ele>1957.0</ele>
        <time>2015-03-17T13:25:58Z</time>
      </trkpt>
      <trkpt lat="43.140417" lon="-4.653350">
        <ele>1961.0</ele>
        <time>2015-03-17T13:25:59Z</time>
      </trkpt>
      <trkpt lat="43.140483" lon="-4.653417">
        <ele>1964.0</ele>
        <time>2015-03-17T13:26:00Z</time>
      </trkpt>
      <trkpt lat="43.140550" lon="-4.653500">
        <ele>1966.0</ele>
        <time>2015-03-17T13:26:01Z</time>
      </trkpt>
      <trkpt lat="43.140633" lon="-4.653583">
        <ele>1968.0</ele>
        <time>2015-03-17T13:26:02Z</time>
      </trkpt>
      <trkpt lat="43.140700" lon="-4.653700">
        <ele>1970.0</ele>
        <time>2015-03-17T13:26:03Z</time>
      </trkpt>
      <trkpt lat="43.140750" lon="-4.653833">
        <ele>1973.0</ele>
        <time>2015-03-17T13:26:04Z</time>
      </trkpt>
      <trkpt lat="43.140783" lon="-4.653967">
        <ele>1976.0</ele>
        <time>2015-03-17T13:26:05Z</time>
      </trkpt>
      <trkpt lat="43.140783" lon="-4.654100">
        <ele>1979.0</ele>
        <time>2015-03-17T13:26:06Z</time>
      </trkpt>
      <trkpt lat="43.140783" lon="-4.654233">
        <ele>1982.0</ele>
        <time>2015-03-17T13:26:07Z</time>
      </trkpt>
      <trkpt lat="43.140783" lon="-4.654350">
        <ele>1985.0</ele>
        <time>2015-03-17T13:26:08Z</time>
      </trkpt>
      <trkpt lat="43.140783" lon="-4.654483">
        <ele>1987.0</ele>
        <time>2015-03-17T13:26:09Z</time>
      </trkpt>
      <trkpt lat="43.140767" lon="-4.654617">
        <ele>1989.0</ele>
        <time>2015-03-17T13:26:10Z</time>
      </trkpt>
      <trkpt lat="43.140733" lon="-4.654750">
        <ele>1993.0</ele>
        <time>2015-03-17T13:26:11Z</time>
      </trkpt>
      <trkpt lat="43.140700" lon="-4.654867">
        <ele>1996.0</ele>
        <time>2015-03-17T13:26:12Z</time>
      </trkpt>
      <trkpt lat="43.140667" lon="-4.654950">
        <ele>1999.0</ele>
        <time>2015-03-17T13:26:13Z</time>
      </trkpt>
      <trkpt lat="43.140617" lon="-4.655050">
        <ele>2001.0</ele>
        <time>2015-03-17T13:26:14Z</time>
      </trkpt>
      <trkpt lat="43.140583" lon="-4.655133">
        <ele>2002.0</ele>
        <time>2015-03-17T13:26:15Z</time>
      </trkpt>
      <trkpt lat="43.140517" lon="-4.655233">
        <ele>2004.0</ele>
        <time>2015-03-17T13:26:16Z</time>
      </trkpt>
      <trkpt lat="43.140467" lon="-4.655300">
        <ele>2006.0</ele>
        <time>2015-03-17T13:26:17Z</time>
      </trkpt>
      <trkpt lat="43.140417" lon="-4.655367">
        <ele>2008.0</ele>
        <time>2015-03-17T13:26:18Z</time>
      </trkpt>
      <trkpt lat="43.140383" lon="-4.655417">
        <ele>2010.0</ele>
        <time>2015-03-17T13:26:19Z</time>
      </trkpt>
      <trkpt lat="43.140333" lon="-4.655483">
        <ele>2011.0</ele>
        <time>2015-03-17T13:26:20Z</time>
      </trkpt>
      <trkpt lat="43.140267" lon="-4.655533">
        <ele>2012.0</ele>
        <time>2015-03-17T13:26:21Z</time>
      </trkpt>
      <trkpt lat="43.140217" lon="-4.655600">
        <ele>2013.0</ele>
        <time>2015-03-17T13:26:22Z</time>
      </trkpt>
      <trkpt lat="43.140150" lon="-4.655633">
        <ele>2015.0</ele>
        <time>2015-03-17T13:26:23Z</time>
      </trkpt>
      <trkpt lat="43.140083" lon="-4.655683">
        <ele>2017.0</ele>
        <time>2015-03-17T13:26:24Z</time>
      </trkpt>
      <trkpt lat="43.140033" lon="-4.655733">
        <ele>2019.0</ele>
        <time>2015-03-17T13:26:25Z</time>
      </trkpt>
      <trkpt lat="43.139983" lon="-4.655783">
        <ele>2021.0</ele>
        <time>2015-03-17T13:26:26Z</time>
      </trkpt>
      <trkpt lat="43.139917" lon="-4.655817">
        <ele>2023.0</ele>
        <time>2015-03-17T13:26:27Z</time>
      </trkpt>
      <trkpt lat="43.139867" lon="-4.655867">
        <ele>2025.0</ele>
        <time>2015-03-17T13:26:28Z</time>
      </trkpt>
      <trkpt lat="43.139800" lon="-4.655917">
        <ele>2027.0</ele>
        <time>2015-03-17T13:26:29Z</time>
      </trkpt>
      <trkpt lat="43.139733" lon="-4.655950">
        <ele>2029.0</ele>
        <time>2015-03-17T13:26:30Z</time>
      </trkpt>
      <trkpt lat="43.139683" lon="-4.656000">
        <ele>2031.0</ele>
        <time>2015-03-17T13:26:31Z</time>
      </trkpt>
      <trkpt lat="43.139617" lon="-4.656033">
        <ele>2032.0</ele>
        <time>2015-03-17T13:26:32Z</time>
      </trkpt>
      <trkpt lat="43.139550" lon="-4.656033">
        <ele>2034.0</ele>
        <time>2015-03-17T13:26:33Z</time>
      </trkpt>
      <trkpt lat="43.139483" lon="-4.656033">
        <ele>2035.0</ele>
        <time>2015-03-17T13:26:34Z</time>
      </trkpt>
      <trkpt lat="43.139417" lon="-4.656033">
        <ele>2037.0</ele>
        <time>2015-03-17T13:26:35Z</time>
      </trkpt>
      <trkpt lat="43.139367" lon="-4.656017">
        <ele>2038.0</ele>
        <time>2015-03-17T13:26:36Z</time>
      </trkpt>
      <trkpt lat="43.139317" lon="-4.655983">
        <ele>2039.0</ele>
        <time>2015-03-17T13:26:37Z</time>
      </trkpt>
      <trkpt lat="43.139267" lon="-4.655950">
        <ele>2039.0</ele>
        <time>2015-03-17T13:26:38Z</time>
      </trkpt>
      <trkpt lat="43.139217" lon="-4.655900">
        <ele>2040.0</ele>
        <time>2015-03-17T13:26:39Z</time>
      </trkpt>
      <trkpt lat="43.139167" lon="-4.655833">
        <ele>2042.0</ele>
        <time>2015-03-17T13:26:40Z</time>
      </trkpt>
      <trkpt lat="43.139117" lon="-4.655783">
        <ele>2044.0</ele>
        <time>2015-03-17T13:26:41Z</time>
      </trkpt>
      <trkpt lat="43.139083" lon="-4.655733">
        <ele>2045.0</ele>
        <time>2015-03-17T13:26:42Z</time>
      </trkpt>
      <trkpt lat="43.139050" lon="-4.655650">
        <ele>2045.0</ele>
        <time>2015-03-17T13:26:43Z</time>
      </trkpt>
      <trkpt lat="43.139033" lon="-4.655567">
        <ele>2045.0</ele>
        <time>2015-03-17T13:26:44Z</time>
      </trkpt>
      <trkpt lat="43.139033" lon="-4.655483">
        <ele>2046.0</ele>
        <time>2015-03-17T13:26:45Z</time>
      </trkpt>
      <trkpt lat="43.139050" lon="-4.655400">
        <ele>2047.0</ele>
        <time>2015-03-17T13:26:46Z</time>
      </trkpt>
      <trkpt lat="43.139117" lon="-4.655333">
        <ele>2047.0</ele>
        <time>2015-03-17T13:26:47Z</time>
      </trkpt>
      <trkpt lat="43.139183" lon="-4.655283">
        <ele>2048.0</ele>
        <time>2015-03-17T13:26:48Z</time>
      </trkpt>
      <trkpt lat="43.139267" lon="-4.655250">
        <ele>2049.0</ele>
        <time>2015-03-17T13:26:49Z</time>
      </trkpt>
      <trkpt lat="43.139367" lon="-4.655233">
        <ele>2050.0</ele>
        <time>2015-03-17T13:26:50Z</time>
      </trkpt>
      <trkpt lat="43.139450" lon="-4.655250">
        <ele>2052.0</ele>
        <time>2015-03-17T13:26:51Z</time>
      </trkpt>
      <trkpt lat="43.139533" lon="-4.655283">
        <ele>2054.0</ele>
        <time>2015-03-17T13:26:52Z</time>
      </trkpt>
      <trkpt lat="43.139617" lon="-4.655350">
        <ele>2056.0</ele>
        <time>2015-03-17T13:26:53Z</time>
      </trkpt>
      <trkpt lat="43.139683" lon="-4.655433">
        <ele>2057.0</ele>
        <time>2015-03-17T13:26:54Z</time>
      </trkpt>
      <trkpt lat="43.139750" lon="-4.655550">
        <ele>2058.0</ele>
        <time>2015-03-17T13:26:55Z</time>
      </trkpt>
      <trkpt lat="43.139800" lon="-4.655700">
        <ele>2059.0</ele>
        <time>2015-03-17T13:26:56Z</time>
      </trkpt>
      <trkpt lat="43.139850" lon="-4.655833">
        <ele>2061.0</ele>
        <time>2015-03-17T13:26:57Z</time>
      </trkpt>
      <trkpt lat="43.139900" lon="-4.655967">
        <ele>2064.0</ele>
        <time>2015-03-17T13:26:58Z</time>
      </trkpt>
      <trkpt lat="43.139950" lon="-4.656100">
        <ele>2066.0</ele>
        <time>2015-03-17T13:26:59Z</time>
      </trkpt>
      <trkpt lat="43.139983" lon="-4.656250">
        <ele>2069.0</ele>
        <time>2015-03-17T13:27:00Z</time>
      </trkpt>
      <trkpt lat="43.140033" lon="-4.656383">
        <ele>2072.0</ele>
        <time>2015-03-17T13:27:01Z</time>
      </trkpt>
      <trkpt lat="43.140050" lon="-4.656500">
        <ele>2075.0</ele>
        <time>2015-03-17T13:27:02Z</time>
      </trkpt>
      <trkpt lat="43.140067" lon="-4.656617">
        <ele>2078.0</ele>
        <time>2015-03-17T13:27:03Z</time>
      </trkpt>
      <trkpt lat="43.140083" lon="-4.656733">
        <ele>2080.0</ele>
        <time>2015-03-17T13:27:04Z</time>
      </trkpt>
      <trkpt lat="43.140083" lon="-4.656850">
        <ele>2082.0</ele>
        <time>2015-03-17T13:27:05Z</time>
      </trkpt>
      <trkpt lat="43.140083" lon="-4.656950">
        <ele>2084.0</ele>
        <time>2015-03-17T13:27:06Z</time>
      </trkpt>
      <trkpt lat="43.140067" lon="-4.657050">
        <ele>2083.0</ele>
        <time>2015-03-17T13:27:07Z</time>
      </trkpt>
      <trkpt lat="43.140067" lon="-4.657150">
        <ele>2083.0</ele>
        <time>2015-03-17T13:27:08Z</time>
      </trkpt>
      <trkpt lat="43.140067" lon="-4.657267">
        <ele>2084.0</ele>
        <time>2015-03-17T13:27:09Z</time>
      </trkpt>
      <trkpt lat="43.140067" lon="-4.657383">
        <ele>2085.0</ele>
        <time>2015-03-17T13:27:10Z</time>
      </trkpt>
      <trkpt lat="43.140067" lon="-4.657517">
        <ele>2086.0</ele>
        <time>2015-03-17T13:27:11Z</time>
      </trkpt>
      <trkpt lat="43.140067" lon="-4.657667">
        <ele>2087.0</ele>
        <time>2015-03-17T13:27:12Z</time>
      </trkpt>
      <trkpt lat="43.140050" lon="-4.657817">
        <ele>2087.0</ele>
        <time>2015-03-17T13:27:13Z</time>
      </trkpt>
      <trkpt lat="43.140017" lon="-4.657950">
        <ele>2087.0</ele>
        <time>2015-03-17T13:27:14Z</time>
      </trkpt>
      <trkpt lat="43.140000" lon="-4.658117">
        <ele>2088.0</ele>
        <time>2015-03-17T13:27:15Z</time>
      </trkpt>
      <trkpt lat="43.140000" lon="-4.658267">
        <ele>2088.0</ele>
        <time>2015-03-17T13:27:16Z</time>
      </trkpt>
      <trkpt lat="43.139983" lon="-4.658433">
        <ele>2089.0</ele>
        <time>2015-03-17T13:27:17Z</time>
      </trkpt>
      <trkpt lat="43.139950" lon="-4.658617">
        <ele>2089.0</ele>
        <time>2015-03-17T13:27:18Z</time>
      </trkpt>
      <trkpt lat="43.139933" lon="-4.658800">
        <ele>2092.0</ele>
        <time>2015-03-17T13:27:19Z</time>
      </trkpt>
      <trkpt lat="43.139900" lon="-4.658967">
        <ele>2094.0</ele>
        <time>2015-03-17T13:27:20Z</time>
      </trkpt>
      <trkpt lat="43.139883" lon="-4.659100">
        <ele>2097.0</ele>
        <time>2015-03-17T13:27:21Z</time>
      </trkpt>
      <trkpt lat="43.139867" lon="-4.659217">
        <ele>2100.0</ele>
        <time>2015-03-17T13:27:22Z</time>
      </trkpt>
      <trkpt lat="43.139850" lon="-4.659317">
        <ele>2102.0</ele>
        <time>2015-03-17T13:27:23Z</time>
      </trkpt>
      <trkpt lat="43.139833" lon="-4.659417">
        <ele>2104.0</ele>
        <time>2015-03-17T13:27:24Z</time>
      </trkpt>
      <trkpt lat="43.139800" lon="-4.659550">
        <ele>2105.0</ele>
        <time>2015-03-17T13:27:25Z</time>
      </trkpt>
      <trkpt lat="43.139783" lon="-4.659667">
        <ele>2107.0</ele>
        <time>2015-03-17T13:27:26Z</time>
      </trkpt>
      <trkpt lat="43.139750" lon="-4.659800">
        <ele>2107.0</ele>
        <time>2015-03-17T13:27:27Z</time>
      </trkpt>
      <trkpt lat="43.139717" lon="-4.659950">
        <ele>2109.0</ele>
        <time>2015-03-17T13:27:28Z</time>
      </trkpt>
      <trkpt lat="43.139700" lon="-4.660083">
        <ele>2110.0</ele>
        <time>2015-03-17T13:27:29Z</time>
      </trkpt>
      <trkpt lat="43.139683" lon="-4.660217">
        <ele>2112.0</ele>
        <time>2015-03-17T13:27:30Z</time>
      </trkpt>
      <trkpt lat="43.139667" lon="-4.660350">
        <ele>2113.0</ele>
        <time>2015-03-17T13:27:31Z</time>
      </trkpt>
      <trkpt lat="43.139633" lon="-4.660483">
        <ele>2115.0</ele>
        <time>2015-03-17T13:27:32Z</time>
      </trkpt>
      <trkpt lat="43.139617" lon="-4.660600">
        <ele>2116.0</ele>
        <time>2015-03-17T13:27:33Z</time>
      </trkpt>
      <trkpt lat="43.139583" lon="-4.660750">
        <ele>2117.0</ele>
        <time>2015-03-17T13:27:34Z</time>
      </trkpt>
      <trkpt lat="43.139550" lon="-4.660900">
        <ele>2117.0</ele>
        <time>2015-03-17T13:27:35Z</time>
      </trkpt>
      <trkpt lat="43.139517" lon="-4.661050">
        <ele>2119.0</ele>
        <time>2015-03-17T13:27:36Z</time>
      </trkpt>
      <trkpt lat="43.139483" lon="-4.661183">
        <ele>2123.0</ele>
        <time>2015-03-17T13:27:37Z</time>
      </trkpt>
      <trkpt lat="43.139450" lon="-4.661317">
        <ele>2126.0</ele>
        <time>2015-03-17T13:27:38Z</time>
      </trkpt>
      <trkpt lat="43.139450" lon="-4.661433">
        <ele>2130.0</ele>
        <time>2015-03-17T13:27:39Z</time>
      </trkpt>
      <trkpt lat="43.139450" lon="-4.661550">
        <ele>2132.0</ele>
        <time>2015-03-17T13:27:40Z</time>
      </trkpt>
      <trkpt lat="43.139433" lon="-4.661667">
        <ele>2135.0</ele>
        <time>2015-03-17T13:27:41Z</time>
      </trkpt>
      <trkpt lat="43.139417" lon="-4.661783">
        <ele>2137.0</ele>
        <time>2015-03-17T13:27:42Z</time>
      </trkpt>
      <trkpt lat="43.139400" lon="-4.661900">
        <ele>2140.0</ele>
        <time>2015-03-17T13:27:43Z</time>
      </trkpt>
      <trkpt lat="43.139367" lon="-4.662000">
        <ele>2143.0</ele>
        <time>2015-03-17T13:27:44Z</time>
      </trkpt>
      <trkpt lat="43.139350" lon="-4.662067">
        <ele>2140.0</ele>
        <time>2015-03-17T13:27:45Z</time>
      </trkpt>
      <trkpt lat="43.139317" lon="-4.662150">
        <ele>2142.0</ele>
        <time>2015-03-17T13:27:46Z</time>
      </trkpt>
      <trkpt lat="43.139267" lon="-4.662250">
        <ele>2144.0</ele>
        <time>2015-03-17T13:27:47Z</time>
      </trkpt>
      <trkpt lat="43.139233" lon="-4.662350">
        <ele>2148.0</ele>
        <time>2015-03-17T13:27:48Z</time>
      </trkpt>
      <trkpt lat="43.139183" lon="-4.662417">
        <ele>2150.0</ele>
        <time>2015-03-17T13:27:49Z</time>
      </trkpt>
      <trkpt lat="43.139150" lon="-4.662500">
        <ele>2153.0</ele>
        <time>2015-03-17T13:27:50Z</time>
      </trkpt>
      <trkpt lat="43.139117" lon="-4.662583">
        <ele>2155.0</ele>
        <time>2015-03-17T13:27:51Z</time>
      </trkpt>
      <trkpt lat="43.139083" lon="-4.662667">
        <ele>2156.0</ele>
        <time>2015-03-17T13:27:52Z</time>
      </trkpt>
      <trkpt lat="43.139050" lon="-4.662750">
        <ele>2155.0</ele>
        <time>2015-03-17T13:27:53Z</time>
      </trkpt>
      <trkpt lat="43.139000" lon="-4.662850">
        <ele>2156.0</ele>
        <time>2015-03-17T13:27:54Z</time>
      </trkpt>
      <trkpt lat="43.138950" lon="-4.662917">
        <ele>2157.0</ele>
        <time>2015-03-17T13:27:55Z</time>
      </trkpt>
      <trkpt lat="43.138900" lon="-4.663000">
        <ele>2157.0</ele>
        <time>2015-03-17T13:27:56Z</time>
      </trkpt>
      <trkpt lat="43.138850" lon="-4.663083">
        <ele>2158.0</ele>
        <time>2015-03-17T13:27:57Z</time>
      </trkpt>
      <trkpt lat="43.138800" lon="-4.663183">
        <ele>2158.0</ele>
        <time>2015-03-17T13:27:58Z</time>
      </trkpt>
      <trkpt lat="43.138767" lon="-4.663300">
        <ele>2158.0</ele>
        <time>2015-03-17T13:27:59Z</time>
      </trkpt>
      <trkpt lat="43.138733" lon="-4.663400">
        <ele>2158.0</ele>
        <time>2015-03-17T13:28:00Z</time>
      </trkpt>
      <trkpt lat="43.138683" lon="-4.663517">
        <ele>2158.0</ele>
        <time>2015-03-17T13:28:01Z</time>
      </trkpt>
      <trkpt lat="43.138633" lon="-4.663650">
        <ele>2158.0</ele>
        <time>2015-03-17T13:28:02Z</time>
      </trkpt>
      <trkpt lat="43.138600" lon="-4.663783">
        <ele>2158.0</ele>
        <time>2015-03-17T13:28:03Z</time>
      </trkpt>
      <trkpt lat="43.138567" lon="-4.663900">
        <ele>2158.0</ele>
        <time>2015-03-17T13:28:04Z</time>
      </trkpt>
      <trkpt lat="43.138533" lon="-4.664017">
        <ele>2158.0</ele>
        <time>2015-03-17T13:28:05Z</time>
      </trkpt>
      <trkpt lat="43.138500" lon="-4.664133">
        <ele>2158.0</ele>
        <time>2015-03-17T13:28:06Z</time>
      </trkpt>
      <trkpt lat="43.138467" lon="-4.664267">
        <ele>2158.0</ele>
        <time>2015-03-17T13:28:07Z</time>
      </trkpt>
      <trkpt lat="43.138450" lon="-4.664400">
        <ele>2158.0</ele>
        <time>2015-03-17T13:28:08Z</time>
      </trkpt>
      <trkpt lat="43.138417" lon="-4.664533">
        <ele>2159.0</ele>
        <time>2015-03-17T13:28:09Z</time>
      </trkpt>
      <trkpt lat="43.138383" lon="-4.664667">
        <ele>2160.0</ele>
        <time>2015-03-17T13:28:10Z</time>
      </trkpt>
      <trkpt lat="43.138350" lon="-4.664783">
        <ele>2162.0</ele>
        <time>2015-03-17T13:28:11Z</time>
      </trkpt>
      <trkpt lat="43.138333" lon="-4.664900">
        <ele>2162.0</ele>
        <time>2015-03-17T13:28:12Z</time>
      </trkpt>
      <trkpt lat="43.138300" lon="-4.665033">
        <ele>2162.0</ele>
        <time>2015-03-17T13:28:13Z</time>
      </trkpt>
      <trkpt lat="43.138283" lon="-4.665167">
        <ele>2162.0</ele>
        <time>2015-03-17T13:28:14Z</time>
      </trkpt>
      <trkpt lat="43.138233" lon="-4.665300">
        <ele>2160.0</ele>
        <time>2015-03-17T13:28:15Z</time>
      </trkpt>
      <trkpt lat="43.138200" lon="-4.665450">
        <ele>2159.0</ele>
        <time>2015-03-17T13:28:16Z</time>
      </trkpt>
      <trkpt lat="43.138150" lon="-4.665600">
        <ele>2158.0</ele>
        <time>2015-03-17T13:28:17Z</time>
      </trkpt>
      <trkpt lat="43.138117" lon="-4.665750">
        <ele>2158.0</ele>
        <time>2015-03-17T13:28:18Z</time>
      </trkpt>
      <trkpt lat="43.138083" lon="-4.665900">
        <ele>2158.0</ele>
        <time>2015-03-17T13:28:19Z</time>
      </trkpt>
      <trkpt lat="43.138067" lon="-4.666033">
        <ele>2159.0</ele>
        <time>2015-03-17T13:28:20Z</time>
      </trkpt>
      <trkpt lat="43.138033" lon="-4.666183">
        <ele>2158.0</ele>
        <time>2015-03-17T13:28:21Z</time>
      </trkpt>
      <trkpt lat="43.138000" lon="-4.666333">
        <ele>2158.0</ele>
        <time>2015-03-17T13:28:22Z</time>
      </trkpt>
      <trkpt lat="43.137967" lon="-4.666467">
        <ele>2158.0</ele>
        <time>2015-03-17T13:28:23Z</time>
      </trkpt>
      <trkpt lat="43.137933" lon="-4.666583">
        <ele>2159.0</ele>
        <time>2015-03-17T13:28:24Z</time>
      </trkpt>
      <trkpt lat="43.137883" lon="-4.666700">
        <ele>2159.0</ele>
        <time>2015-03-17T13:28:25Z</time>
      </trkpt>
      <trkpt lat="43.137850" lon="-4.666800">
        <ele>2159.0</ele>
        <time>2015-03-17T13:28:26Z</time>
      </trkpt>
      <trkpt lat="43.137817" lon="-4.666900">
        <ele>2159.0</ele>
        <time>2015-03-17T13:28:27Z</time>
      </trkpt>
      <trkpt lat="43.137800" lon="-4.667000">
        <ele>2159.0</ele>
        <time>2015-03-17T13:28:28Z</time>
      </trkpt>
      <trkpt lat="43.137767" lon="-4.667117">
        <ele>2159.0</ele>
        <time>2015-03-17T13:28:29Z</time>
      </trkpt>
      <trkpt lat="43.137750" lon="-4.667233">
        <ele>2160.0</ele>
        <time>2015-03-17T13:28:30Z</time>
      </trkpt>
      <trkpt lat="43.137717" lon="-4.667333">
        <ele>2159.0</ele>
        <time>2015-03-17T13:28:31Z</time>
      </trkpt>
      <trkpt lat="43.137667" lon="-4.667433">
        <ele>2157.0</ele>
        <time>2015-03-17T13:28:32Z</time>
      </trkpt>
      <trkpt lat="43.137633" lon="-4.667550">
        <ele>2154.0</ele>
        <time>2015-03-17T13:28:33Z</time>
      </trkpt>
      <trkpt lat="43.137583" lon="-4.667683">
        <ele>2152.0</ele>
        <time>2015-03-17T13:28:34Z</time>
      </trkpt>
      <trkpt lat="43.137533" lon="-4.667800">
        <ele>2151.0</ele>
        <time>2015-03-17T13:28:35Z</time>
      </trkpt>
      <trkpt lat="43.137483" lon="-4.667900">
        <ele>2149.0</ele>
        <time>2015-03-17T13:28:36Z</time>
      </trkpt>
      <trkpt lat="43.137433" lon="-4.667983">
        <ele>2147.0</ele>
        <time>2015-03-17T13:28:37Z</time>
      </trkpt>
      <trkpt lat="43.137400" lon="-4.668083">
        <ele>2145.0</ele>
        <time>2015-03-17T13:28:38Z</time>
      </trkpt>
      <trkpt lat="43.137367" lon="-4.668183">
        <ele>2143.0</ele>
        <time>2015-03-17T13:28:39Z</time>
      </trkpt>
      <trkpt lat="43.137317" lon="-4.668283">
        <ele>2140.0</ele>
        <time>2015-03-17T13:28:40Z</time>
      </trkpt>
      <trkpt lat="43.137267" lon="-4.668367">
        <ele>2138.0</ele>
        <time>2015-03-17T13:28:41Z</time>
      </trkpt>
      <trkpt lat="43.137233" lon="-4.668467">
        <ele>2136.0</ele>
        <time>2015-03-17T13:28:42Z</time>
      </trkpt>
      <trkpt lat="43.137183" lon="-4.668550">
        <ele>2133.0</ele>
        <time>2015-03-17T13:28:43Z</time>
      </trkpt>
      <trkpt lat="43.137150" lon="-4.668650">
        <ele>2129.0</ele>
        <time>2015-03-17T13:28:44Z</time>
      </trkpt>
      <trkpt lat="43.137100" lon="-4.668767">
        <ele>2126.0</ele>
        <time>2015-03-17T13:28:45Z</time>
      </trkpt>
      <trkpt lat="43.137050" lon="-4.668883">
        <ele>2122.0</ele>
        <time>2015-03-17T13:28:46Z</time>
      </trkpt>
      <trkpt lat="43.136983" lon="-4.668983">
        <ele>2119.0</ele>
        <time>2015-03-17T13:28:47Z</time>
      </trkpt>
      <trkpt lat="43.136933" lon="-4.669083">
        <ele>2116.0</ele>
        <time>2015-03-17T13:28:48Z</time>
      </trkpt>
      <trkpt lat="43.136883" lon="-4.669183">
        <ele>2113.0</ele>
        <time>2015-03-17T13:28:49Z</time>
      </trkpt>
      <trkpt lat="43.136850" lon="-4.669283">
        <ele>2111.0</ele>
        <time>2015-03-17T13:28:50Z</time>
      </trkpt>
      <trkpt lat="43.136817" lon="-4.669383">
        <ele>2108.0</ele>
        <time>2015-03-17T13:28:51Z</time>
      </trkpt>
      <trkpt lat="43.136750" lon="-4.669500">
        <ele>2107.0</ele>
        <time>2015-03-17T13:28:52Z</time>
      </trkpt>
      <trkpt lat="43.136700" lon="-4.669600">
        <ele>2105.0</ele>
        <time>2015-03-17T13:28:53Z</time>
      </trkpt>
      <trkpt lat="43.136617" lon="-4.669683">
        <ele>2103.0</ele>
        <time>2015-03-17T13:28:54Z</time>
      </trkpt>
      <trkpt lat="43.136550" lon="-4.669767">
        <ele>2101.0</ele>
        <time>2015-03-17T13:28:55Z</time>
      </trkpt>
      <trkpt lat="43.136483" lon="-4.669850">
        <ele>2099.0</ele>
        <time>2015-03-17T13:28:56Z</time>
      </trkpt>
      <trkpt lat="43.136417" lon="-4.669967">
        <ele>2098.0</ele>
        <time>2015-03-17T13:28:57Z</time>
      </trkpt>
      <trkpt lat="43.136350" lon="-4.670067">
        <ele>2105.0</ele>
        <time>2015-03-17T13:28:58Z</time>
      </trkpt>
      <trkpt lat="43.136300" lon="-4.670167">
        <ele>2106.0</ele>
        <time>2015-03-17T13:28:59Z</time>
      </trkpt>
      <trkpt lat="43.136233" lon="-4.670250">
        <ele>2106.0</ele>
        <time>2015-03-17T13:29:00Z</time>
      </trkpt>
      <trkpt lat="43.136183" lon="-4.670333">
        <ele>2106.0</ele>
        <time>2015-03-17T13:29:01Z</time>
      </trkpt>
      <trkpt lat="43.136117" lon="-4.670417">
        <ele>2106.0</ele>
        <time>2015-03-17T13:29:02Z</time>
      </trkpt>
      <trkpt lat="43.136067" lon="-4.670517">
        <ele>2106.0</ele>
        <time>2015-03-17T13:29:03Z</time>
      </trkpt>
      <trkpt lat="43.136017" lon="-4.670633">
        <ele>2105.0</ele>
        <time>2015-03-17T13:29:04Z</time>
      </trkpt>
      <trkpt lat="43.135967" lon="-4.670767">
        <ele>2105.0</ele>
        <time>2015-03-17T13:29:05Z</time>
      </trkpt>
      <trkpt lat="43.135933" lon="-4.670883">
        <ele>2104.0</ele>
        <time>2015-03-17T13:29:06Z</time>
      </trkpt>
      <trkpt lat="43.135917" lon="-4.671017">
        <ele>2103.0</ele>
        <time>2015-03-17T13:29:07Z</time>
      </trkpt>
      <trkpt lat="43.135900" lon="-4.671117">
        <ele>2102.0</ele>
        <time>2015-03-17T13:29:08Z</time>
      </trkpt>
      <trkpt lat="43.135867" lon="-4.671200">
        <ele>2100.0</ele>
        <time>2015-03-17T13:29:09Z</time>
      </trkpt>
      <trkpt lat="43.135833" lon="-4.671300">
        <ele>2098.0</ele>
        <time>2015-03-17T13:29:10Z</time>
      </trkpt>
      <trkpt lat="43.135800" lon="-4.671417">
        <ele>2094.0</ele>
        <time>2015-03-17T13:29:11Z</time>
      </trkpt>
      <trkpt lat="43.135783" lon="-4.671533">
        <ele>2091.0</ele>
        <time>2015-03-17T13:29:12Z</time>
      </trkpt>
      <trkpt lat="43.135750" lon="-4.671667">
        <ele>2089.0</ele>
        <time>2015-03-17T13:29:13Z</time>
      </trkpt>
      <trkpt lat="43.135717" lon="-4.671767">
        <ele>2087.0</ele>
        <time>2015-03-17T13:29:14Z</time>
      </trkpt>
      <trkpt lat="43.135667" lon="-4.671867">
        <ele>2085.0</ele>
        <time>2015-03-17T13:29:15Z</time>
      </trkpt>
      <trkpt lat="43.135633" lon="-4.672017">
        <ele>2089.0</ele>
        <time>2015-03-17T13:29:16Z</time>
      </trkpt>
      <trkpt lat="43.135600" lon="-4.672133">
        <ele>2088.0</ele>
        <time>2015-03-17T13:29:17Z</time>
      </trkpt>
      <trkpt lat="43.135567" lon="-4.672250">
        <ele>2087.0</ele>
        <time>2015-03-17T13:29:18Z</time>
      </trkpt>
      <trkpt lat="43.135533" lon="-4.672383">
        <ele>2085.0</ele>
        <time>2015-03-17T13:29:19Z</time>
      </trkpt>
      <trkpt lat="43.135500" lon="-4.672500">
        <ele>2084.0</ele>
        <time>2015-03-17T13:29:20Z</time>
      </trkpt>
      <trkpt lat="43.135467" lon="-4.672600">
        <ele>2082.0</ele>
        <time>2015-03-17T13:29:21Z</time>
      </trkpt>
      <trkpt lat="43.135433" lon="-4.672717">
        <ele>2081.0</ele>
        <time>2015-03-17T13:29:22Z</time>
      </trkpt>
      <trkpt lat="43.135417" lon="-4.672833">
        <ele>2079.0</ele>
        <time>2015-03-17T13:29:23Z</time>
      </trkpt>
      <trkpt lat="43.135383" lon="-4.672950">
        <ele>2077.0</ele>
        <time>2015-03-17T13:29:24Z</time>
      </trkpt>
      <trkpt lat="43.135333" lon="-4.673083">
        <ele>2076.0</ele>
        <time>2015-03-17T13:29:25Z</time>
      </trkpt>
      <trkpt lat="43.135283" lon="-4.673200">
        <ele>2075.0</ele>
        <time>2015-03-17T13:29:26Z</time>
      </trkpt>
      <trkpt lat="43.135250" lon="-4.673317">
        <ele>2075.0</ele>
        <time>2015-03-17T13:29:27Z</time>
      </trkpt>
      <trkpt lat="43.135217" lon="-4.673433">
        <ele>2075.0</ele>
        <time>2015-03-17T13:29:28Z</time>
      </trkpt>
      <trkpt lat="43.135167" lon="-4.673533">
        <ele>2074.0</ele>
        <time>2015-03-17T13:29:29Z</time>
      </trkpt>
      <trkpt lat="43.135133" lon="-4.673650">
        <ele>2073.0</ele>
        <time>2015-03-17T13:29:30Z</time>
      </trkpt>
      <trkpt lat="43.135083" lon="-4.673750">
        <ele>2074.0</ele>
        <time>2015-03-17T13:29:31Z</time>
      </trkpt>
      <trkpt lat="43.135050" lon="-4.673833">
        <ele>2075.0</ele>
        <time>2015-03-17T13:29:32Z</time>
      </trkpt>
      <trkpt lat="43.135017" lon="-4.673933">
        <ele>2075.0</ele>
        <time>2015-03-17T13:29:33Z</time>
      </trkpt>
      <trkpt lat="43.134983" lon="-4.674033">
        <ele>2075.0</ele>
        <time>2015-03-17T13:29:34Z</time>
      </trkpt>
      <trkpt lat="43.134950" lon="-4.674133">
        <ele>2075.0</ele>
        <time>2015-03-17T13:29:35Z</time>
      </trkpt>
      <trkpt lat="43.134917" lon="-4.674250">
        <ele>2074.0</ele>
        <time>2015-03-17T13:29:36Z</time>
      </trkpt>
      <trkpt lat="43.134867" lon="-4.674367">
        <ele>2074.0</ele>
        <time>2015-03-17T13:29:37Z</time>
      </trkpt>
      <trkpt lat="43.134833" lon="-4.674467">
        <ele>2073.0</ele>
        <time>2015-03-17T13:29:38Z</time>
      </trkpt>
      <trkpt lat="43.134783" lon="-4.674567">
        <ele>2074.0</ele>
        <time>2015-03-17T13:29:39Z</time>
      </trkpt>
      <trkpt lat="43.134733" lon="-4.674650">
        <ele>2074.0</ele>
        <time>2015-03-17T13:29:40Z</time>
      </trkpt>
      <trkpt lat="43.134683" lon="-4.674750">
        <ele>2075.0</ele>
        <time>2015-03-17T13:29:41Z</time>
      </trkpt>
      <trkpt lat="43.134633" lon="-4.674867">
        <ele>2075.0</ele>
        <time>2015-03-17T13:29:42Z</time>
      </trkpt>
      <trkpt lat="43.134600" lon="-4.674983">
        <ele>2074.0</ele>
        <time>2015-03-17T13:29:43Z</time>
      </trkpt>
      <trkpt lat="43.134550" lon="-4.675100">
        <ele>2074.0</ele>
        <time>2015-03-17T13:29:44Z</time>
      </trkpt>
      <trkpt lat="43.134500" lon="-4.675200">
        <ele>2074.0</ele>
        <time>2015-03-17T13:29:45Z</time>
      </trkpt>
      <trkpt lat="43.134450" lon="-4.675300">
        <ele>2074.0</ele>
        <time>2015-03-17T13:29:46Z</time>
      </trkpt>
      <trkpt lat="43.134400" lon="-4.675383">
        <ele>2074.0</ele>
        <time>2015-03-17T13:29:47Z</time>
      </trkpt>
      <trkpt lat="43.134367" lon="-4.675483">
        <ele>2074.0</ele>
        <time>2015-03-17T13:29:48Z</time>
      </trkpt>
      <trkpt lat="43.134317" lon="-4.675583">
        <ele>2073.0</ele>
        <time>2015-03-17T13:29:49Z</time>
      </trkpt>
      <trkpt lat="43.134250" lon="-4.675683">
        <ele>2072.0</ele>
        <time>2015-03-17T13:29:50Z</time>
      </trkpt>
      <trkpt lat="43.134183" lon="-4.675783">
        <ele>2071.0</ele>
        <time>2015-03-17T13:29:51Z</time>
      </trkpt>
      <trkpt lat="43.134133" lon="-4.675850">
        <ele>2070.0</ele>
        <time>2015-03-17T13:29:52Z</time>
      </trkpt>
      <trkpt lat="43.134083" lon="-4.675933">
        <ele>2069.0</ele>
        <time>2015-03-17T13:29:53Z</time>
      </trkpt>
      <trkpt lat="43.134033" lon="-4.676017">
        <ele>2068.0</ele>
        <time>2015-03-17T13:29:54Z</time>
      </trkpt>
      <trkpt lat="43.134000" lon="-4.676100">
        <ele>2069.0</ele>
        <time>2015-03-17T13:29:55Z</time>
      </trkpt>
      <trkpt lat="43.133933" lon="-4.676200">
        <ele>2068.0</ele>
        <time>2015-03-17T13:29:56Z</time>
      </trkpt>
      <trkpt lat="43.133867" lon="-4.676317">
        <ele>2066.0</ele>
        <time>2015-03-17T13:29:57Z</time>
      </trkpt>
      <trkpt lat="43.133817" lon="-4.676400">
        <ele>2065.0</ele>
        <time>2015-03-17T13:29:58Z</time>
      </trkpt>
      <trkpt lat="43.133750" lon="-4.676483">
        <ele>2065.0</ele>
        <time>2015-03-17T13:29:59Z</time>
      </trkpt>
      <trkpt lat="43.133700" lon="-4.676567">
        <ele>2065.0</ele>
        <time>2015-03-17T13:30:00Z</time>
      </trkpt>
      <trkpt lat="43.133650" lon="-4.676650">
        <ele>2064.0</ele>
        <time>2015-03-17T13:30:01Z</time>
      </trkpt>
      <trkpt lat="43.133600" lon="-4.676750">
        <ele>2063.0</ele>
        <time>2015-03-17T13:30:02Z</time>
      </trkpt>
      <trkpt lat="43.133533" lon="-4.676833">
        <ele>2062.0</ele>
        <time>2015-03-17T13:30:03Z</time>
      </trkpt>
      <trkpt lat="43.133467" lon="-4.676917">
        <ele>2062.0</ele>
        <time>2015-03-17T13:30:04Z</time>
      </trkpt>
      <trkpt lat="43.133417" lon="-4.677000">
        <ele>2061.0</ele>
        <time>2015-03-17T13:30:05Z</time>
      </trkpt>
      <trkpt lat="43.133383" lon="-4.677083">
        <ele>2061.0</ele>
        <time>2015-03-17T13:30:06Z</time>
      </trkpt>
      <trkpt lat="43.133350" lon="-4.677167">
        <ele>2062.0</ele>
        <time>2015-03-17T13:30:07Z</time>
      </trkpt>
      <trkpt lat="43.133317" lon="-4.677250">
        <ele>2061.0</ele>
        <time>2015-03-17T13:30:08Z</time>
      </trkpt>
      <trkpt lat="43.133283" lon="-4.677317">
        <ele>2061.0</ele>
        <time>2015-03-17T13:30:09Z</time>
      </trkpt>
      <trkpt lat="43.133233" lon="-4.677383">
        <ele>2059.0</ele>
        <time>2015-03-17T13:30:10Z</time>
      </trkpt>
      <trkpt lat="43.133183" lon="-4.677467">
        <ele>2056.0</ele>
        <time>2015-03-17T13:30:11Z</time>
      </trkpt>
      <trkpt lat="43.133133" lon="-4.677550">
        <ele>2055.0</ele>
        <time>2015-03-17T13:30:12Z</time>
      </trkpt>
      <trkpt lat="43.133083" lon="-4.677633">
        <ele>2054.0</ele>
        <time>2015-03-17T13:30:13Z</time>
      </trkpt>
      <trkpt lat="43.133050" lon="-4.677717">
        <ele>2053.0</ele>
        <time>2015-03-17T13:30:14Z</time>
      </trkpt>
      <trkpt lat="43.133017" lon="-4.677783">
        <ele>2053.0</ele>
        <time>2015-03-17T13:30:15Z</time>
      </trkpt>
      <trkpt lat="43.132983" lon="-4.677883">
        <ele>2052.0</ele>
        <time>2015-03-17T13:30:16Z</time>
      </trkpt>
      <trkpt lat="43.132950" lon="-4.677983">
        <ele>2051.0</ele>
        <time>2015-03-17T13:30:17Z</time>
      </trkpt>
      <trkpt lat="43.132900" lon="-4.678083">
        <ele>2050.0</ele>
        <time>2015-03-17T13:30:18Z</time>
      </trkpt>
      <trkpt lat="43.132850" lon="-4.678217">
        <ele>2052.0</ele>
        <time>2015-03-17T13:30:19Z</time>
      </trkpt>
      <trkpt lat="43.132817" lon="-4.678317">
        <ele>2051.0</ele>
        <time>2015-03-17T13:30:20Z</time>
      </trkpt>
      <trkpt lat="43.132767" lon="-4.678417">
        <ele>2052.0</ele>
        <time>2015-03-17T13:30:21Z</time>
      </trkpt>
      <trkpt lat="43.132733" lon="-4.678533">
        <ele>2051.0</ele>
        <time>2015-03-17T13:30:22Z</time>
      </trkpt>
      <trkpt lat="43.132700" lon="-4.678633">
        <ele>2051.0</ele>
        <time>2015-03-17T13:30:23Z</time>
      </trkpt>
      <trkpt lat="43.132667" lon="-4.678733">
        <ele>2050.0</ele>
        <time>2015-03-17T13:30:24Z</time>
      </trkpt>
      <trkpt lat="43.132633" lon="-4.678867">
        <ele>2050.0</ele>
        <time>2015-03-17T13:30:25Z</time>
      </trkpt>
      <trkpt lat="43.132617" lon="-4.678983">
        <ele>2050.0</ele>
        <time>2015-03-17T13:30:26Z</time>
      </trkpt>
      <trkpt lat="43.132600" lon="-4.679083">
        <ele>2049.0</ele>
        <time>2015-03-17T13:30:27Z</time>
      </trkpt>
      <trkpt lat="43.132567" lon="-4.679183">
        <ele>2049.0</ele>
        <time>2015-03-17T13:30:28Z</time>
      </trkpt>
      <trkpt lat="43.132533" lon="-4.679283">
        <ele>2047.0</ele>
        <time>2015-03-17T13:30:29Z</time>
      </trkpt>
      <trkpt lat="43.132517" lon="-4.679400">
        <ele>2047.0</ele>
        <time>2015-03-17T13:30:30Z</time>
      </trkpt>
      <trkpt lat="43.132483" lon="-4.679517">
        <ele>2046.0</ele>
        <time>2015-03-17T13:30:31Z</time>
      </trkpt>
      <trkpt lat="43.132433" lon="-4.679617">
        <ele>2045.0</ele>
        <time>2015-03-17T13:30:32Z</time>
      </trkpt>
      <trkpt lat="43.132383" lon="-4.679717">
        <ele>2044.0</ele>
        <time>2015-03-17T13:30:33Z</time>
      </trkpt>
      <trkpt lat="43.132350" lon="-4.679800">
        <ele>2044.0</ele>
        <time>2015-03-17T13:30:34Z</time>
      </trkpt>
      <trkpt lat="43.132300" lon="-4.679900">
        <ele>2043.0</ele>
        <time>2015-03-17T13:30:35Z</time>
      </trkpt>
      <trkpt lat="43.132267" lon="-4.679983">
        <ele>2043.0</ele>
        <time>2015-03-17T13:30:36Z</time>
      </trkpt>
      <trkpt lat="43.132200" lon="-4.680067">
        <ele>2042.0</ele>
        <time>2015-03-17T13:30:37Z</time>
      </trkpt>
      <trkpt lat="43.132150" lon="-4.680150">
        <ele>2041.0</ele>
        <time>2015-03-17T13:30:38Z</time>
      </trkpt>
      <trkpt lat="43.132083" lon="-4.680217">
        <ele>2040.0</ele>
        <time>2015-03-17T13:30:39Z</time>
      </trkpt>
      <trkpt lat="43.132050" lon="-4.680317">
        <ele>2039.0</ele>
        <time>2015-03-17T13:30:40Z</time>
      </trkpt>
      <trkpt lat="43.132000" lon="-4.680400">
        <ele>2038.0</ele>
        <time>2015-03-17T13:30:41Z</time>
      </trkpt>
      <trkpt lat="43.131967" lon="-4.680483">
        <ele>2037.0</ele>
        <time>2015-03-17T13:30:42Z</time>
      </trkpt>
      <trkpt lat="43.131917" lon="-4.680567">
        <ele>2035.0</ele>
        <time>2015-03-17T13:30:43Z</time>
      </trkpt>
      <trkpt lat="43.131867" lon="-4.680667">
        <ele>2036.0</ele>
        <time>2015-03-17T13:30:44Z</time>
      </trkpt>
      <trkpt lat="43.131817" lon="-4.680767">
        <ele>2035.0</ele>
        <time>2015-03-17T13:30:45Z</time>
      </trkpt>
      <trkpt lat="43.131783" lon="-4.680867">
        <ele>2034.0</ele>
        <time>2015-03-17T13:30:46Z</time>
      </trkpt>
      <trkpt lat="43.131750" lon="-4.680950">
        <ele>2033.0</ele>
        <time>2015-03-17T13:30:47Z</time>
      </trkpt>
      <trkpt lat="43.131700" lon="-4.681033">
        <ele>2032.0</ele>
        <time>2015-03-17T13:30:48Z</time>
      </trkpt>
      <trkpt lat="43.131650" lon="-4.681133">
        <ele>2030.0</ele>
        <time>2015-03-17T13:30:49Z</time>
      </trkpt>
      <trkpt lat="43.131600" lon="-4.681233">
        <ele>2029.0</ele>
        <time>2015-03-17T13:30:50Z</time>
      </trkpt>
      <trkpt lat="43.131567" lon="-4.681317">
        <ele>2028.0</ele>
        <time>2015-03-17T13:30:51Z</time>
      </trkpt>
      <trkpt lat="43.131517" lon="-4.681400">
        <ele>2028.0</ele>
        <time>2015-03-17T13:30:52Z</time>
      </trkpt>
      <trkpt lat="43.131483" lon="-4.681483">
        <ele>2027.0</ele>
        <time>2015-03-17T13:30:53Z</time>
      </trkpt>
      <trkpt lat="43.131450" lon="-4.681567">
        <ele>2026.0</ele>
        <time>2015-03-17T13:30:54Z</time>
      </trkpt>
      <trkpt lat="43.131417" lon="-4.681683">
        <ele>2028.0</ele>
        <time>2015-03-17T13:30:55Z</time>
      </trkpt>
      <trkpt lat="43.131383" lon="-4.681767">
        <ele>2028.0</ele>
        <time>2015-03-17T13:30:56Z</time>
      </trkpt>
      <trkpt lat="43.131350" lon="-4.681833">
        <ele>2026.0</ele>
        <time>2015-03-17T13:30:57Z</time>
      </trkpt>
      <trkpt lat="43.131300" lon="-4.681883">
        <ele>2025.0</ele>
        <time>2015-03-17T13:30:58Z</time>
      </trkpt>
      <trkpt lat="43.131250" lon="-4.681967">
        <ele>2024.0</ele>
        <time>2015-03-17T13:30:59Z</time>
      </trkpt>
      <trkpt lat="43.131200" lon="-4.682033">
        <ele>2022.0</ele>
        <time>2015-03-17T13:31:00Z</time>
      </trkpt>
      <trkpt lat="43.131133" lon="-4.682117">
        <ele>2021.0</ele>
        <time>2015-03-17T13:31:01Z</time>
      </trkpt>
      <trkpt lat="43.131083" lon="-4.682167">
        <ele>2019.0</ele>
        <time>2015-03-17T13:31:02Z</time>
      </trkpt>
      <trkpt lat="43.131017" lon="-4.682233">
        <ele>2017.0</ele>
        <time>2015-03-17T13:31:03Z</time>
      </trkpt>
      <trkpt lat="43.130967" lon="-4.682283">
        <ele>2019.0</ele>
        <time>2015-03-17T13:31:04Z</time>
      </trkpt>
      <trkpt lat="43.130917" lon="-4.682367">
        <ele>2018.0</ele>
        <time>2015-03-17T13:31:05Z</time>
      </trkpt>
      <trkpt lat="43.130850" lon="-4.682450">
        <ele>2016.0</ele>
        <time>2015-03-17T13:31:06Z</time>
      </trkpt>
      <trkpt lat="43.130800" lon="-4.682533">
        <ele>2015.0</ele>
        <time>2015-03-17T13:31:07Z</time>
      </trkpt>
      <trkpt lat="43.130750" lon="-4.682600">
        <ele>2014.0</ele>
        <time>2015-03-17T13:31:08Z</time>
      </trkpt>
      <trkpt lat="43.130700" lon="-4.682683">
        <ele>2014.0</ele>
        <time>2015-03-17T13:31:09Z</time>
      </trkpt>
      <trkpt lat="43.130650" lon="-4.682767">
        <ele>2014.0</ele>
        <time>2015-03-17T13:31:10Z</time>
      </trkpt>
      <trkpt lat="43.130600" lon="-4.682867">
        <ele>2011.0</ele>
        <time>2015-03-17T13:31:11Z</time>
      </trkpt>
      <trkpt lat="43.130533" lon="-4.682950">
        <ele>2010.0</ele>
        <time>2015-03-17T13:31:12Z</time>
      </trkpt>
      <trkpt lat="43.130483" lon="-4.683033">
        <ele>2009.0</ele>
        <time>2015-03-17T13:31:13Z</time>
      </trkpt>
      <trkpt lat="43.130433" lon="-4.683117">
        <ele>2007.0</ele>
        <time>2015-03-17T13:31:14Z</time>
      </trkpt>
      <trkpt lat="43.130383" lon="-4.683217">
        <ele>2006.0</ele>
        <time>2015-03-17T13:31:15Z</time>
      </trkpt>
      <trkpt lat="43.130333" lon="-4.683300">
        <ele>2006.0</ele>
        <time>2015-03-17T13:31:16Z</time>
      </trkpt>
      <trkpt lat="43.130283" lon="-4.683400">
        <ele>2005.0</ele>
        <time>2015-03-17T13:31:17Z</time>
      </trkpt>
      <trkpt lat="43.130233" lon="-4.683500">
        <ele>2003.0</ele>
        <time>2015-03-17T13:31:18Z</time>
      </trkpt>
      <trkpt lat="43.130200" lon="-4.683600">
        <ele>2002.0</ele>
        <time>2015-03-17T13:31:19Z</time>
      </trkpt>
      <trkpt lat="43.130167" lon="-4.683700">
        <ele>2001.0</ele>
        <time>2015-03-17T13:31:20Z</time>
      </trkpt>
      <trkpt lat="43.130117" lon="-4.683817">
        <ele>1999.0</ele>
        <time>2015-03-17T13:31:21Z</time>
      </trkpt>
      <trkpt lat="43.130083" lon="-4.683883">
        <ele>2000.0</ele>
        <time>2015-03-17T13:31:22Z</time>
      </trkpt>
      <trkpt lat="43.130017" lon="-4.683967">
        <ele>1998.0</ele>
        <time>2015-03-17T13:31:23Z</time>
      </trkpt>
      <trkpt lat="43.129967" lon="-4.684067">
        <ele>1997.0</ele>
        <time>2015-03-17T13:31:24Z</time>
      </trkpt>
      <trkpt lat="43.129917" lon="-4.684150">
        <ele>1995.0</ele>
        <time>2015-03-17T13:31:25Z</time>
      </trkpt>
      <trkpt lat="43.129850" lon="-4.684233">
        <ele>1993.0</ele>
        <time>2015-03-17T13:31:26Z</time>
      </trkpt>
      <trkpt lat="43.129783" lon="-4.684317">
        <ele>1993.0</ele>
        <time>2015-03-17T13:31:27Z</time>
      </trkpt>
      <trkpt lat="43.129717" lon="-4.684417">
        <ele>1992.0</ele>
        <time>2015-03-17T13:31:28Z</time>
      </trkpt>
      <trkpt lat="43.129650" lon="-4.684517">
        <ele>1991.0</ele>
        <time>2015-03-17T13:31:29Z</time>
      </trkpt>
      <trkpt lat="43.129567" lon="-4.684617">
        <ele>1990.0</ele>
        <time>2015-03-17T13:31:30Z</time>
      </trkpt>
      <trkpt lat="43.129500" lon="-4.684683">
        <ele>1989.0</ele>
        <time>2015-03-17T13:31:31Z</time>
      </trkpt>
      <trkpt lat="43.129417" lon="-4.684750">
        <ele>1987.0</ele>
        <time>2015-03-17T13:31:32Z</time>
      </trkpt>
      <trkpt lat="43.129350" lon="-4.684833">
        <ele>1986.0</ele>
        <time>2015-03-17T13:31:33Z</time>
      </trkpt>
      <trkpt lat="43.129283" lon="-4.684883">
        <ele>1984.0</ele>
        <time>2015-03-17T13:31:34Z</time>
      </trkpt>
      <trkpt lat="43.129233" lon="-4.684950">
        <ele>1982.0</ele>
        <time>2015-03-17T13:31:35Z</time>
      </trkpt>
      <trkpt lat="43.129167" lon="-4.685000">
        <ele>1979.0</ele>
        <time>2015-03-17T13:31:36Z</time>
      </trkpt>
      <trkpt lat="43.129100" lon="-4.685050">
        <ele>1976.0</ele>
        <time>2015-03-17T13:31:37Z</time>
      </trkpt>
      <trkpt lat="43.129017" lon="-4.685117">
        <ele>1973.0</ele>
        <time>2015-03-17T13:31:38Z</time>
      </trkpt>
      <trkpt lat="43.128950" lon="-4.685200">
        <ele>1971.0</ele>
        <time>2015-03-17T13:31:39Z</time>
      </trkpt>
      <trkpt lat="43.128883" lon="-4.685283">
        <ele>1969.0</ele>
        <time>2015-03-17T13:31:40Z</time>
      </trkpt>
      <trkpt lat="43.128833" lon="-4.685367">
        <ele>1967.0</ele>
        <time>2015-03-17T13:31:41Z</time>
      </trkpt>
      <trkpt lat="43.128767" lon="-4.685483">
        <ele>1970.0</ele>
        <time>2015-03-17T13:31:42Z</time>
      </trkpt>
      <trkpt lat="43.128717" lon="-4.685567">
        <ele>1970.0</ele>
        <time>2015-03-17T13:31:43Z</time>
      </trkpt>
      <trkpt lat="43.128650" lon="-4.685650">
        <ele>1969.0</ele>
        <time>2015-03-17T13:31:44Z</time>
      </trkpt>
      <trkpt lat="43.128583" lon="-4.685750">
        <ele>1968.0</ele>
        <time>2015-03-17T13:31:45Z</time>
      </trkpt>
      <trkpt lat="43.128533" lon="-4.685833">
        <ele>1967.0</ele>
        <time>2015-03-17T13:31:46Z</time>
      </trkpt>
      <trkpt lat="43.128467" lon="-4.685917">
        <ele>1966.0</ele>
        <time>2015-03-17T13:31:47Z</time>
      </trkpt>
      <trkpt lat="43.128417" lon="-4.686017">
        <ele>1965.0</ele>
        <time>2015-03-17T13:31:48Z</time>
      </trkpt>
      <trkpt lat="43.128350" lon="-4.686117">
        <ele>1963.0</ele>
        <time>2015-03-17T13:31:49Z</time>
      </trkpt>
      <trkpt lat="43.128283" lon="-4.686200">
        <ele>1962.0</ele>
        <time>2015-03-17T13:31:50Z</time>
      </trkpt>
      <trkpt lat="43.128233" lon="-4.686300">
        <ele>1961.0</ele>
        <time>2015-03-17T13:31:51Z</time>
      </trkpt>
      <trkpt lat="43.128167" lon="-4.686383">
        <ele>1960.0</ele>
        <time>2015-03-17T13:31:52Z</time>
      </trkpt>
      <trkpt lat="43.128117" lon="-4.686467">
        <ele>1960.0</ele>
        <time>2015-03-17T13:31:53Z</time>
      </trkpt>
      <trkpt lat="43.128067" lon="-4.686550">
        <ele>1959.0</ele>
        <time>2015-03-17T13:31:54Z</time>
      </trkpt>
      <trkpt lat="43.128000" lon="-4.686650">
        <ele>1958.0</ele>
        <time>2015-03-17T13:31:55Z</time>
      </trkpt>
      <trkpt lat="43.127950" lon="-4.686750">
        <ele>1957.0</ele>
        <time>2015-03-17T13:31:56Z</time>
      </trkpt>
      <trkpt lat="43.127883" lon="-4.686833">
        <ele>1955.0</ele>
        <time>2015-03-17T13:31:57Z</time>
      </trkpt>
      <trkpt lat="43.127817" lon="-4.686933">
        <ele>1952.0</ele>
        <time>2015-03-17T13:31:58Z</time>
      </trkpt>
      <trkpt lat="43.127750" lon="-4.687017">
        <ele>1951.0</ele>
        <time>2015-03-17T13:31:59Z</time>
      </trkpt>
      <trkpt lat="43.127700" lon="-4.687100">
        <ele>1950.0</ele>
        <time>2015-03-17T13:32:00Z</time>
      </trkpt>
      <trkpt lat="43.127633" lon="-4.687167">
        <ele>1948.0</ele>
        <time>2015-03-17T13:32:01Z</time>
      </trkpt>
      <trkpt lat="43.127567" lon="-4.687233">
        <ele>1946.0</ele>
        <time>2015-03-17T13:32:02Z</time>
      </trkpt>
      <trkpt lat="43.127500" lon="-4.687333">
        <ele>1947.0</ele>
        <time>2015-03-17T13:32:03Z</time>
      </trkpt>
      <trkpt lat="43.127433" lon="-4.687417">
        <ele>1946.0</ele>
        <time>2015-03-17T13:32:04Z</time>
      </trkpt>
      <trkpt lat="43.127367" lon="-4.687500">
        <ele>1944.0</ele>
        <time>2015-03-17T13:32:05Z</time>
      </trkpt>
      <trkpt lat="43.127317" lon="-4.687600">
        <ele>1943.0</ele>
        <time>2015-03-17T13:32:06Z</time>
      </trkpt>
      <trkpt lat="43.127250" lon="-4.687700">
        <ele>1942.0</ele>
        <time>2015-03-17T13:32:07Z</time>
      </trkpt>
      <trkpt lat="43.127183" lon="-4.687800">
        <ele>1940.0</ele>
        <time>2015-03-17T13:32:08Z</time>
      </trkpt>
      <trkpt lat="43.127117" lon="-4.687867">
        <ele>1938.0</ele>
        <time>2015-03-17T13:32:09Z</time>
      </trkpt>
      <trkpt lat="43.127050" lon="-4.687967">
        <ele>1936.0</ele>
        <time>2015-03-17T13:32:10Z</time>
      </trkpt>
      <trkpt lat="43.126983" lon="-4.688067">
        <ele>1938.0</ele>
        <time>2015-03-17T13:32:11Z</time>
      </trkpt>
      <trkpt lat="43.126933" lon="-4.688167">
        <ele>1937.0</ele>
        <time>2015-03-17T13:32:12Z</time>
      </trkpt>
      <trkpt lat="43.126850" lon="-4.688267">
        <ele>1936.0</ele>
        <time>2015-03-17T13:32:13Z</time>
      </trkpt>
      <trkpt lat="43.126783" lon="-4.688350">
        <ele>1934.0</ele>
        <time>2015-03-17T13:32:14Z</time>
      </trkpt>
      <trkpt lat="43.126717" lon="-4.688433">
        <ele>1932.0</ele>
        <time>2015-03-17T13:32:15Z</time>
      </trkpt>
      <trkpt lat="43.126667" lon="-4.688517">
        <ele>1930.0</ele>
        <time>2015-03-17T13:32:16Z</time>
      </trkpt>
      <trkpt lat="43.126600" lon="-4.688600">
        <ele>1930.0</ele>
        <time>2015-03-17T13:32:17Z</time>
      </trkpt>
      <trkpt lat="43.126533" lon="-4.688683">
        <ele>1929.0</ele>
        <time>2015-03-17T13:32:18Z</time>
      </trkpt>
      <trkpt lat="43.126467" lon="-4.688767">
        <ele>1927.0</ele>
        <time>2015-03-17T13:32:19Z</time>
      </trkpt>
      <trkpt lat="43.126400" lon="-4.688867">
        <ele>1925.0</ele>
        <time>2015-03-17T13:32:20Z</time>
      </trkpt>
      <trkpt lat="43.126333" lon="-4.688950">
        <ele>1923.0</ele>
        <time>2015-03-17T13:32:21Z</time>
      </trkpt>
      <trkpt lat="43.126267" lon="-4.689033">
        <ele>1921.0</ele>
        <time>2015-03-17T13:32:22Z</time>
      </trkpt>
      <trkpt lat="43.126200" lon="-4.689117">
        <ele>1921.0</ele>
        <time>2015-03-17T13:32:23Z</time>
      </trkpt>
      <trkpt lat="43.126133" lon="-4.689183">
        <ele>1920.0</ele>
        <time>2015-03-17T13:32:24Z</time>
      </trkpt>
      <trkpt lat="43.126067" lon="-4.689283">
        <ele>1918.0</ele>
        <time>2015-03-17T13:32:25Z</time>
      </trkpt>
      <trkpt lat="43.126000" lon="-4.689367">
        <ele>1917.0</ele>
        <time>2015-03-17T13:32:26Z</time>
      </trkpt>
      <trkpt lat="43.125933" lon="-4.689467">
        <ele>1915.0</ele>
        <time>2015-03-17T13:32:27Z</time>
      </trkpt>
      <trkpt lat="43.125867" lon="-4.689550">
        <ele>1913.0</ele>
        <time>2015-03-17T13:32:28Z</time>
      </trkpt>
      <trkpt lat="43.125800" lon="-4.689650">
        <ele>1912.0</ele>
        <time>2015-03-17T13:32:29Z</time>
      </trkpt>
      <trkpt lat="43.125717" lon="-4.689733">
        <ele>1908.0</ele>
        <time>2015-03-17T13:32:30Z</time>
      </trkpt>
      <trkpt lat="43.125667" lon="-4.689833">
        <ele>1909.0</ele>
        <time>2015-03-17T13:32:31Z</time>
      </trkpt>
      <trkpt lat="43.125600" lon="-4.689917">
        <ele>1908.0</ele>
        <time>2015-03-17T13:32:32Z</time>
      </trkpt>
      <trkpt lat="43.125533" lon="-4.690000">
        <ele>1906.0</ele>
        <time>2015-03-17T13:32:33Z</time>
      </trkpt>
      <trkpt lat="43.125467" lon="-4.690083">
        <ele>1902.0</ele>
        <time>2015-03-17T13:32:34Z</time>
      </trkpt>
      <trkpt lat="43.125400" lon="-4.690167">
        <ele>1899.0</ele>
        <time>2015-03-17T13:32:35Z</time>
      </trkpt>
      <trkpt lat="43.125350" lon="-4.690233">
        <ele>1897.0</ele>
        <time>2015-03-17T13:32:36Z</time>
      </trkpt>
      <trkpt lat="43.125300" lon="-4.690267">
        <ele>1893.0</ele>
        <time>2015-03-17T13:32:37Z</time>
      </trkpt>
      <trkpt lat="43.125250" lon="-4.690333">
        <ele>1889.0</ele>
        <time>2015-03-17T13:32:38Z</time>
      </trkpt>
      <trkpt lat="43.125200" lon="-4.690400">
        <ele>1886.0</ele>
        <time>2015-03-17T13:32:39Z</time>
      </trkpt>
      <trkpt lat="43.125133" lon="-4.690467">
        <ele>1882.0</ele>
        <time>2015-03-17T13:32:40Z</time>
      </trkpt>
      <trkpt lat="43.125083" lon="-4.690550">
        <ele>1879.0</ele>
        <time>2015-03-17T13:32:41Z</time>
      </trkpt>
      <trkpt lat="43.125017" lon="-4.690617">
        <ele>1876.0</ele>
        <time>2015-03-17T13:32:42Z</time>
      </trkpt>
      <trkpt lat="43.124967" lon="-4.690700">
        <ele>1874.0</ele>
        <time>2015-03-17T13:32:43Z</time>
      </trkpt>
      <trkpt lat="43.124917" lon="-4.690783">
        <ele>1872.0</ele>
        <time>2015-03-17T13:32:44Z</time>
      </trkpt>
      <trkpt lat="43.124867" lon="-4.690867">
        <ele>1869.0</ele>
        <time>2015-03-17T13:32:45Z</time>
      </trkpt>
      <trkpt lat="43.124800" lon="-4.690950">
        <ele>1867.0</ele>
        <time>2015-03-17T13:32:46Z</time>
      </trkpt>
      <trkpt lat="43.124733" lon="-4.691033">
        <ele>1866.0</ele>
        <time>2015-03-17T13:32:47Z</time>
      </trkpt>
      <trkpt lat="43.124683" lon="-4.691117">
        <ele>1864.0</ele>
        <time>2015-03-17T13:32:48Z</time>
      </trkpt>
      <trkpt lat="43.124617" lon="-4.691200">
        <ele>1863.0</ele>
        <time>2015-03-17T13:32:49Z</time>
      </trkpt>
      <trkpt lat="43.124583" lon="-4.691283">
        <ele>1862.0</ele>
        <time>2015-03-17T13:32:50Z</time>
      </trkpt>
      <trkpt lat="43.124533" lon="-4.691350">
        <ele>1862.0</ele>
        <time>2015-03-17T13:32:51Z</time>
      </trkpt>
      <trkpt lat="43.124467" lon="-4.691433">
        <ele>1861.0</ele>
        <time>2015-03-17T13:32:52Z</time>
      </trkpt>
      <trkpt lat="43.124417" lon="-4.691500">
        <ele>1860.0</ele>
        <time>2015-03-17T13:32:53Z</time>
      </trkpt>
      <trkpt lat="43.124350" lon="-4.691583">
        <ele>1859.0</ele>
        <time>2015-03-17T13:32:54Z</time>
      </trkpt>
      <trkpt lat="43.124283" lon="-4.691667">
        <ele>1858.0</ele>
        <time>2015-03-17T13:32:55Z</time>
      </trkpt>
      <trkpt lat="43.124233" lon="-4.691750">
        <ele>1857.0</ele>
        <time>2015-03-17T13:32:56Z</time>
      </trkpt>
      <trkpt lat="43.124167" lon="-4.691833">
        <ele>1856.0</ele>
        <time>2015-03-17T13:32:57Z</time>
      </trkpt>
      <trkpt lat="43.124100" lon="-4.691900">
        <ele>1855.0</ele>
        <time>2015-03-17T13:32:58Z</time>
      </trkpt>
      <trkpt lat="43.124033" lon="-4.692000">
        <ele>1854.0</ele>
        <time>2015-03-17T13:32:59Z</time>
      </trkpt>
      <trkpt lat="43.123967" lon="-4.692083">
        <ele>1854.0</ele>
        <time>2015-03-17T13:33:00Z</time>
      </trkpt>
      <trkpt lat="43.123900" lon="-4.692183">
        <ele>1854.0</ele>
        <time>2015-03-17T13:33:01Z</time>
      </trkpt>
      <trkpt lat="43.123833" lon="-4.692267">
        <ele>1854.0</ele>
        <time>2015-03-17T13:33:02Z</time>
      </trkpt>
      <trkpt lat="43.123767" lon="-4.692367">
        <ele>1853.0</ele>
        <time>2015-03-17T13:33:03Z</time>
      </trkpt>
      <trkpt lat="43.123700" lon="-4.692450">
        <ele>1853.0</ele>
        <time>2015-03-17T13:33:04Z</time>
      </trkpt>
      <trkpt lat="43.123633" lon="-4.692533">
        <ele>1853.0</ele>
        <time>2015-03-17T13:33:05Z</time>
      </trkpt>
      <trkpt lat="43.123583" lon="-4.692617">
        <ele>1853.0</ele>
        <time>2015-03-17T13:33:06Z</time>
      </trkpt>
      <trkpt lat="43.123533" lon="-4.692700">
        <ele>1853.0</ele>
        <time>2015-03-17T13:33:07Z</time>
      </trkpt>
      <trkpt lat="43.123483" lon="-4.692767">
        <ele>1853.0</ele>
        <time>2015-03-17T13:33:08Z</time>
      </trkpt>
      <trkpt lat="43.123433" lon="-4.692833">
        <ele>1853.0</ele>
        <time>2015-03-17T13:33:09Z</time>
      </trkpt>
      <trkpt lat="43.123383" lon="-4.692900">
        <ele>1852.0</ele>
        <time>2015-03-17T13:33:10Z</time>
      </trkpt>
      <trkpt lat="43.123317" lon="-4.692967">
        <ele>1851.0</ele>
        <time>2015-03-17T13:33:11Z</time>
      </trkpt>
      <trkpt lat="43.123267" lon="-4.693033">
        <ele>1850.0</ele>
        <time>2015-03-17T13:33:12Z</time>
      </trkpt>
      <trkpt lat="43.123200" lon="-4.693100">
        <ele>1850.0</ele>
        <time>2015-03-17T13:33:13Z</time>
      </trkpt>
      <trkpt lat="43.123133" lon="-4.693150">
        <ele>1849.0</ele>
        <time>2015-03-17T13:33:14Z</time>
      </trkpt>
      <trkpt lat="43.123083" lon="-4.693217">
        <ele>1849.0</ele>
        <time>2015-03-17T13:33:15Z</time>
      </trkpt>
      <trkpt lat="43.123033" lon="-4.693267">
        <ele>1849.0</ele>
        <time>2015-03-17T13:33:16Z</time>
      </trkpt>
      <trkpt lat="43.122983" lon="-4.693317">
        <ele>1849.0</ele>
        <time>2015-03-17T13:33:17Z</time>
      </trkpt>
      <trkpt lat="43.122917" lon="-4.693383">
        <ele>1848.0</ele>
        <time>2015-03-17T13:33:18Z</time>
      </trkpt>
      <trkpt lat="43.122850" lon="-4.693450">
        <ele>1847.0</ele>
        <time>2015-03-17T13:33:19Z</time>
      </trkpt>
      <trkpt lat="43.122783" lon="-4.693517">
        <ele>1847.0</ele>
        <time>2015-03-17T13:33:20Z</time>
      </trkpt>
      <trkpt lat="43.122733" lon="-4.693583">
        <ele>1847.0</ele>
        <time>2015-03-17T13:33:21Z</time>
      </trkpt>
      <trkpt lat="43.122683" lon="-4.693667">
        <ele>1846.0</ele>
        <time>2015-03-17T13:33:22Z</time>
      </trkpt>
      <trkpt lat="43.122633" lon="-4.693750">
        <ele>1845.0</ele>
        <time>2015-03-17T13:33:23Z</time>
      </trkpt>
      <trkpt lat="43.122583" lon="-4.693833">
        <ele>1844.0</ele>
        <time>2015-03-17T13:33:24Z</time>
      </trkpt>
      <trkpt lat="43.122533" lon="-4.693900">
        <ele>1843.0</ele>
        <time>2015-03-17T13:33:25Z</time>
      </trkpt>
      <trkpt lat="43.122467" lon="-4.693983">
        <ele>1842.0</ele>
        <time>2015-03-17T13:33:26Z</time>
      </trkpt>
      <trkpt lat="43.122417" lon="-4.694050">
        <ele>1842.0</ele>
        <time>2015-03-17T13:33:27Z</time>
      </trkpt>
      <trkpt lat="43.122367" lon="-4.694117">
        <ele>1841.0</ele>
        <time>2015-03-17T13:33:28Z</time>
      </trkpt>
      <trkpt lat="43.122300" lon="-4.694200">
        <ele>1840.0</ele>
        <time>2015-03-17T13:33:29Z</time>
      </trkpt>
      <trkpt lat="43.122250" lon="-4.694267">
        <ele>1839.0</ele>
        <time>2015-03-17T13:33:30Z</time>
      </trkpt>
      <trkpt lat="43.122183" lon="-4.694350">
        <ele>1838.0</ele>
        <time>2015-03-17T13:33:31Z</time>
      </trkpt>
      <trkpt lat="43.122133" lon="-4.694417">
        <ele>1838.0</ele>
        <time>2015-03-17T13:33:32Z</time>
      </trkpt>
      <trkpt lat="43.122083" lon="-4.694500">
        <ele>1837.0</ele>
        <time>2015-03-17T13:33:33Z</time>
      </trkpt>
      <trkpt lat="43.122033" lon="-4.694567">
        <ele>1836.0</ele>
        <time>2015-03-17T13:33:34Z</time>
      </trkpt>
      <trkpt lat="43.121967" lon="-4.694633">
        <ele>1835.0</ele>
        <time>2015-03-17T13:33:35Z</time>
      </trkpt>
      <trkpt lat="43.121917" lon="-4.694700">
        <ele>1834.0</ele>
        <time>2015-03-17T13:33:36Z</time>
      </trkpt>
      <trkpt lat="43.121850" lon="-4.694767">
        <ele>1833.0</ele>
        <time>2015-03-17T13:33:37Z</time>
      </trkpt>
      <trkpt lat="43.121800" lon="-4.694817">
        <ele>1833.0</ele>
        <time>2015-03-17T13:33:38Z</time>
      </trkpt>
      <trkpt lat="43.121750" lon="-4.694883">
        <ele>1832.0</ele>
        <time>2015-03-17T13:33:39Z</time>
      </trkpt>
      <trkpt lat="43.121700" lon="-4.694950">
        <ele>1831.0</ele>
        <time>2015-03-17T13:33:40Z</time>
      </trkpt>
      <trkpt lat="43.121633" lon="-4.695017">
        <ele>1830.0</ele>
        <time>2015-03-17T13:33:41Z</time>
      </trkpt>
      <trkpt lat="43.121583" lon="-4.695083">
        <ele>1828.0</ele>
        <time>2015-03-17T13:33:42Z</time>
      </trkpt>
      <trkpt lat="43.121517" lon="-4.695150">
        <ele>1828.0</ele>
        <time>2015-03-17T13:33:43Z</time>
      </trkpt>
      <trkpt lat="43.121467" lon="-4.695200">
        <ele>1828.0</ele>
        <time>2015-03-17T13:33:44Z</time>
      </trkpt>
      <trkpt lat="43.121417" lon="-4.695250">
        <ele>1828.0</ele>
        <time>2015-03-17T13:33:45Z</time>
      </trkpt>
      <trkpt lat="43.121367" lon="-4.695317">
        <ele>1827.0</ele>
        <time>2015-03-17T13:33:46Z</time>
      </trkpt>
      <trkpt lat="43.121300" lon="-4.695383">
        <ele>1827.0</ele>
        <time>2015-03-17T13:33:47Z</time>
      </trkpt>
      <trkpt lat="43.121250" lon="-4.695450">
        <ele>1826.0</ele>
        <time>2015-03-17T13:33:48Z</time>
      </trkpt>
      <trkpt lat="43.121183" lon="-4.695517">
        <ele>1826.0</ele>
        <time>2015-03-17T13:33:49Z</time>
      </trkpt>
      <trkpt lat="43.121117" lon="-4.695583">
        <ele>1826.0</ele>
        <time>2015-03-17T13:33:50Z</time>
      </trkpt>
      <trkpt lat="43.121067" lon="-4.695650">
        <ele>1828.0</ele>
        <time>2015-03-17T13:33:51Z</time>
      </trkpt>
      <trkpt lat="43.121000" lon="-4.695700">
        <ele>1829.0</ele>
        <time>2015-03-17T13:33:52Z</time>
      </trkpt>
      <trkpt lat="43.120950" lon="-4.695750">
        <ele>1828.0</ele>
        <time>2015-03-17T13:33:53Z</time>
      </trkpt>
      <trkpt lat="43.120900" lon="-4.695800">
        <ele>1828.0</ele>
        <time>2015-03-17T13:33:54Z</time>
      </trkpt>
      <trkpt lat="43.120833" lon="-4.695867">
        <ele>1828.0</ele>
        <time>2015-03-17T13:33:55Z</time>
      </trkpt>
      <trkpt lat="43.120767" lon="-4.695933">
        <ele>1829.0</ele>
        <time>2015-03-17T13:33:56Z</time>
      </trkpt>
      <trkpt lat="43.120717" lon="-4.696000">
        <ele>1829.0</ele>
        <time>2015-03-17T13:33:57Z</time>
      </trkpt>
      <trkpt lat="43.120667" lon="-4.696067">
        <ele>1829.0</ele>
        <time>2015-03-17T13:33:58Z</time>
      </trkpt>
      <trkpt lat="43.120617" lon="-4.696133">
        <ele>1830.0</ele>
        <time>2015-03-17T13:33:59Z</time>
      </trkpt>
      <trkpt lat="43.120567" lon="-4.696200">
        <ele>1830.0</ele>
        <time>2015-03-17T13:34:00Z</time>
      </trkpt>
      <trkpt lat="43.120500" lon="-4.696283">
        <ele>1830.0</ele>
        <time>2015-03-17T13:34:01Z</time>
      </trkpt>
      <trkpt lat="43.120450" lon="-4.696350">
        <ele>1830.0</ele>
        <time>2015-03-17T13:34:02Z</time>
      </trkpt>
      <trkpt lat="43.120417" lon="-4.696417">
        <ele>1830.0</ele>
        <time>2015-03-17T13:34:03Z</time>
      </trkpt>
      <trkpt lat="43.120367" lon="-4.696483">
        <ele>1830.0</ele>
        <time>2015-03-17T13:34:04Z</time>
      </trkpt>
      <trkpt lat="43.120333" lon="-4.696550">
        <ele>1831.0</ele>
        <time>2015-03-17T13:34:05Z</time>
      </trkpt>
      <trkpt lat="43.120317" lon="-4.696617">
        <ele>1831.0</ele>
        <time>2015-03-17T13:34:06Z</time>
      </trkpt>
      <trkpt lat="43.120283" lon="-4.696683">
        <ele>1831.0</ele>
        <time>2015-03-17T13:34:07Z</time>
      </trkpt>
      <trkpt lat="43.120250" lon="-4.696750">
        <ele>1831.0</ele>
        <time>2015-03-17T13:34:08Z</time>
      </trkpt>
      <trkpt lat="43.120217" lon="-4.696817">
        <ele>1831.0</ele>
        <time>2015-03-17T13:34:09Z</time>
      </trkpt>
      <trkpt lat="43.120167" lon="-4.696900">
        <ele>1830.0</ele>
        <time>2015-03-17T13:34:10Z</time>
      </trkpt>
      <trkpt lat="43.120117" lon="-4.697000">
        <ele>1830.0</ele>
        <time>2015-03-17T13:34:11Z</time>
      </trkpt>
      <trkpt lat="43.120067" lon="-4.697083">
        <ele>1829.0</ele>
        <time>2015-03-17T13:34:12Z</time>
      </trkpt>
      <trkpt lat="43.120017" lon="-4.697183">
        <ele>1829.0</ele>
        <time>2015-03-17T13:34:13Z</time>
      </trkpt>
      <trkpt lat="43.119983" lon="-4.697267">
        <ele>1828.0</ele>
        <time>2015-03-17T13:34:14Z</time>
      </trkpt>
      <trkpt lat="43.119933" lon="-4.697350">
        <ele>1829.0</ele>
        <time>2015-03-17T13:34:15Z</time>
      </trkpt>
      <trkpt lat="43.119883" lon="-4.697450">
        <ele>1829.0</ele>
        <time>2015-03-17T13:34:16Z</time>
      </trkpt>
      <trkpt lat="43.119850" lon="-4.697533">
        <ele>1829.0</ele>
        <time>2015-03-17T13:34:17Z</time>
      </trkpt>
      <trkpt lat="43.119800" lon="-4.697633">
        <ele>1829.0</ele>
        <time>2015-03-17T13:34:18Z</time>
      </trkpt>
      <trkpt lat="43.119750" lon="-4.697717">
        <ele>1829.0</ele>
        <time>2015-03-17T13:34:19Z</time>
      </trkpt>
      <trkpt lat="43.119700" lon="-4.697800">
        <ele>1829.0</ele>
        <time>2015-03-17T13:34:20Z</time>
      </trkpt>
      <trkpt lat="43.119650" lon="-4.697883">
        <ele>1829.0</ele>
        <time>2015-03-17T13:34:21Z</time>
      </trkpt>
      <trkpt lat="43.119600" lon="-4.697950">
        <ele>1829.0</ele>
        <time>2015-03-17T13:34:22Z</time>
      </trkpt>
      <trkpt lat="43.119550" lon="-4.698017">
        <ele>1828.0</ele>
        <time>2015-03-17T13:34:23Z</time>
      </trkpt>
      <trkpt lat="43.119483" lon="-4.698083">
        <ele>1828.0</ele>
        <time>2015-03-17T13:34:24Z</time>
      </trkpt>
      <trkpt lat="43.119433" lon="-4.698150">
        <ele>1828.0</ele>
        <time>2015-03-17T13:34:25Z</time>
      </trkpt>
      <trkpt lat="43.119383" lon="-4.698217">
        <ele>1828.0</ele>
        <time>2015-03-17T13:34:26Z</time>
      </trkpt>
      <trkpt lat="43.119333" lon="-4.698283">
        <ele>1828.0</ele>
        <time>2015-03-17T13:34:27Z</time>
      </trkpt>
      <trkpt lat="43.119283" lon="-4.698350">
        <ele>1828.0</ele>
        <time>2015-03-17T13:34:28Z</time>
      </trkpt>
      <trkpt lat="43.119233" lon="-4.698400">
        <ele>1829.0</ele>
        <time>2015-03-17T13:34:29Z</time>
      </trkpt>
      <trkpt lat="43.119217" lon="-4.698450">
        <ele>1830.0</ele>
        <time>2015-03-17T13:34:30Z</time>
      </trkpt>
      <trkpt lat="43.119200" lon="-4.698483">
        <ele>1831.0</ele>
        <time>2015-03-17T13:34:31Z</time>
      </trkpt>
      <trkpt lat="43.119183" lon="-4.698533">
        <ele>1831.0</ele>
        <time>2015-03-17T13:34:32Z</time>
      </trkpt>
      <trkpt lat="43.119150" lon="-4.698583">
        <ele>1831.0</ele>
        <time>2015-03-17T13:34:33Z</time>
      </trkpt>
      <trkpt lat="43.119100" lon="-4.698650">
        <ele>1831.0</ele>
        <time>2015-03-17T13:34:34Z</time>
      </trkpt>
      <trkpt lat="43.119067" lon="-4.698717">
        <ele>1831.0</ele>
        <time>2015-03-17T13:34:35Z</time>
      </trkpt>
      <trkpt lat="43.119017" lon="-4.698800">
        <ele>1832.0</ele>
        <time>2015-03-17T13:34:36Z</time>
      </trkpt>
      <trkpt lat="43.118967" lon="-4.698867">
        <ele>1835.0</ele>
        <time>2015-03-17T13:34:37Z</time>
      </trkpt>
      <trkpt lat="43.118933" lon="-4.698933">
        <ele>1837.0</ele>
        <time>2015-03-17T13:34:38Z</time>
      </trkpt>
      <trkpt lat="43.118917" lon="-4.698967">
        <ele>1840.0</ele>
        <time>2015-03-17T13:34:39Z</time>
      </trkpt>
      <trkpt lat="43.118900" lon="-4.699017">
        <ele>1836.0</ele>
        <time>2015-03-17T13:34:40Z</time>
      </trkpt>
      <trkpt lat="43.118883" lon="-4.699067">
        <ele>1838.0</ele>
        <time>2015-03-17T13:34:41Z</time>
      </trkpt>
      <trkpt lat="43.118867" lon="-4.699150">
        <ele>1839.0</ele>
        <time>2015-03-17T13:34:42Z</time>
      </trkpt>
      <trkpt lat="43.118850" lon="-4.699233">
        <ele>1841.0</ele>
        <time>2015-03-17T13:34:43Z</time>
      </trkpt>
      <trkpt lat="43.118833" lon="-4.699333">
        <ele>1843.0</ele>
        <time>2015-03-17T13:34:44Z</time>
      </trkpt>
      <trkpt lat="43.118850" lon="-4.699417">
        <ele>1845.0</ele>
        <time>2015-03-17T13:34:45Z</time>
      </trkpt>
      <trkpt lat="43.118850" lon="-4.699483">
        <ele>1848.0</ele>
        <time>2015-03-17T13:34:46Z</time>
      </trkpt>
      <trkpt lat="43.118833" lon="-4.699567">
        <ele>1847.0</ele>
        <time>2015-03-17T13:34:47Z</time>
      </trkpt>
      <trkpt lat="43.118817" lon="-4.699650">
        <ele>1850.0</ele>
        <time>2015-03-17T13:34:48Z</time>
      </trkpt>
      <trkpt lat="43.118783" lon="-4.699733">
        <ele>1852.0</ele>
        <time>2015-03-17T13:34:49Z</time>
      </trkpt>
      <trkpt lat="43.118750" lon="-4.699800">
        <ele>1855.0</ele>
        <time>2015-03-17T13:34:50Z</time>
      </trkpt>
      <trkpt lat="43.118717" lon="-4.699833">
        <ele>1859.0</ele>
        <time>2015-03-17T13:34:51Z</time>
      </trkpt>
      <trkpt lat="43.118683" lon="-4.699883">
        <ele>1862.0</ele>
        <time>2015-03-17T13:34:52Z</time>
      </trkpt>
      <trkpt lat="43.118633" lon="-4.699933">
        <ele>1865.0</ele>
        <time>2015-03-17T13:34:53Z</time>
      </trkpt>
      <trkpt lat="43.118583" lon="-4.700000">
        <ele>1869.0</ele>
        <time>2015-03-17T13:34:54Z</time>
      </trkpt>
      <trkpt lat="43.118533" lon="-4.700033">
        <ele>1874.0</ele>
        <time>2015-03-17T13:34:55Z</time>
      </trkpt>
      <trkpt lat="43.118500" lon="-4.700050">
        <ele>1878.0</ele>
        <time>2015-03-17T13:34:56Z</time>
      </trkpt>
      <trkpt lat="43.118467" lon="-4.700050">
        <ele>1882.0</ele>
        <time>2015-03-17T13:34:57Z</time>
      </trkpt>
      <trkpt lat="43.118433" lon="-4.700050">
        <ele>1885.0</ele>
        <time>2015-03-17T13:34:58Z</time>
      </trkpt>
      <trkpt lat="43.118400" lon="-4.700067">
        <ele>1887.0</ele>
        <time>2015-03-17T13:34:59Z</time>
      </trkpt>
      <trkpt lat="43.118333" lon="-4.700050">
        <ele>1888.0</ele>
        <time>2015-03-17T13:35:00Z</time>
      </trkpt>
      <trkpt lat="43.118300" lon="-4.699983">
        <ele>1886.0</ele>
        <time>2015-03-17T13:35:01Z</time>
      </trkpt>
      <trkpt lat="43.118267" lon="-4.699883">
        <ele>1887.0</ele>
        <time>2015-03-17T13:35:02Z</time>
      </trkpt>
      <trkpt lat="43.118250" lon="-4.699783">
        <ele>1889.0</ele>
        <time>2015-03-17T13:35:03Z</time>
      </trkpt>
      <trkpt lat="43.118267" lon="-4.699667">
        <ele>1891.0</ele>
        <time>2015-03-17T13:35:04Z</time>
      </trkpt>
      <trkpt lat="43.118250" lon="-4.699583">
        <ele>1893.0</ele>
        <time>2015-03-17T13:35:05Z</time>
      </trkpt>
      <trkpt lat="43.118250" lon="-4.699517">
        <ele>1895.0</ele>
        <time>2015-03-17T13:35:06Z</time>
      </trkpt>
      <trkpt lat="43.118250" lon="-4.699433">
        <ele>1896.0</ele>
        <time>2015-03-17T13:35:07Z</time>
      </trkpt>
      <trkpt lat="43.118267" lon="-4.699350">
        <ele>1897.0</ele>
        <time>2015-03-17T13:35:08Z</time>
      </trkpt>
      <trkpt lat="43.118300" lon="-4.699250">
        <ele>1897.0</ele>
        <time>2015-03-17T13:35:09Z</time>
      </trkpt>
      <trkpt lat="43.118333" lon="-4.699150">
        <ele>1898.0</ele>
        <time>2015-03-17T13:35:10Z</time>
      </trkpt>
      <trkpt lat="43.118383" lon="-4.699067">
        <ele>1899.0</ele>
        <time>2015-03-17T13:35:11Z</time>
      </trkpt>
      <trkpt lat="43.118450" lon="-4.698967">
        <ele>1899.0</ele>
        <time>2015-03-17T13:35:12Z</time>
      </trkpt>
      <trkpt lat="43.118500" lon="-4.698900">
        <ele>1899.0</ele>
        <time>2015-03-17T13:35:13Z</time>
      </trkpt>
      <trkpt lat="43.118567" lon="-4.698817">
        <ele>1900.0</ele>
        <time>2015-03-17T13:35:14Z</time>
      </trkpt>
      <trkpt lat="43.118650" lon="-4.698733">
        <ele>1901.0</ele>
        <time>2015-03-17T13:35:15Z</time>
      </trkpt>
      <trkpt lat="43.118717" lon="-4.698667">
        <ele>1902.0</ele>
        <time>2015-03-17T13:35:16Z</time>
      </trkpt>
      <trkpt lat="43.118800" lon="-4.698583">
        <ele>1903.0</ele>
        <time>2015-03-17T13:35:17Z</time>
      </trkpt>
      <trkpt lat="43.118883" lon="-4.698533">
        <ele>1904.0</ele>
        <time>2015-03-17T13:35:18Z</time>
      </trkpt>
      <trkpt lat="43.118967" lon="-4.698467">
        <ele>1905.0</ele>
        <time>2015-03-17T13:35:19Z</time>
      </trkpt>
      <trkpt lat="43.119050" lon="-4.698433">
        <ele>1906.0</ele>
        <time>2015-03-17T13:35:20Z</time>
      </trkpt>
      <trkpt lat="43.119150" lon="-4.698383">
        <ele>1907.0</ele>
        <time>2015-03-17T13:35:21Z</time>
      </trkpt>
      <trkpt lat="43.119233" lon="-4.698333">
        <ele>1908.0</ele>
        <time>2015-03-17T13:35:22Z</time>
      </trkpt>
      <trkpt lat="43.119333" lon="-4.698283">
        <ele>1909.0</ele>
        <time>2015-03-17T13:35:23Z</time>
      </trkpt>
      <trkpt lat="43.119417" lon="-4.698233">
        <ele>1911.0</ele>
        <time>2015-03-17T13:35:24Z</time>
      </trkpt>
      <trkpt lat="43.119500" lon="-4.698183">
        <ele>1912.0</ele>
        <time>2015-03-17T13:35:25Z</time>
      </trkpt>
      <trkpt lat="43.119583" lon="-4.698133">
        <ele>1913.0</ele>
        <time>2015-03-17T13:35:26Z</time>
      </trkpt>
      <trkpt lat="43.119667" lon="-4.698083">
        <ele>1913.0</ele>
        <time>2015-03-17T13:35:27Z</time>
      </trkpt>
      <trkpt lat="43.119750" lon="-4.698033">
        <ele>1913.0</ele>
        <time>2015-03-17T13:35:28Z</time>
      </trkpt>
      <trkpt lat="43.119833" lon="-4.697983">
        <ele>1914.0</ele>
        <time>2015-03-17T13:35:29Z</time>
      </trkpt>
      <trkpt lat="43.119917" lon="-4.697917">
        <ele>1914.0</ele>
        <time>2015-03-17T13:35:30Z</time>
      </trkpt>
      <trkpt lat="43.120000" lon="-4.697867">
        <ele>1914.0</ele>
        <time>2015-03-17T13:35:31Z</time>
      </trkpt>
      <trkpt lat="43.120083" lon="-4.697800">
        <ele>1915.0</ele>
        <time>2015-03-17T13:35:32Z</time>
      </trkpt>
      <trkpt lat="43.120167" lon="-4.697750">
        <ele>1915.0</ele>
        <time>2015-03-17T13:35:33Z</time>
      </trkpt>
      <trkpt lat="43.120250" lon="-4.697700">
        <ele>1915.0</ele>
        <time>2015-03-17T13:35:34Z</time>
      </trkpt>
      <trkpt lat="43.120350" lon="-4.697667">
        <ele>1915.0</ele>
        <time>2015-03-17T13:35:35Z</time>
      </trkpt>
      <trkpt lat="43.120433" lon="-4.697617">
        <ele>1915.0</ele>
        <time>2015-03-17T13:35:36Z</time>
      </trkpt>
      <trkpt lat="43.120533" lon="-4.697567">
        <ele>1914.0</ele>
        <time>2015-03-17T13:35:37Z</time>
      </trkpt>
      <trkpt lat="43.120650" lon="-4.697517">
        <ele>1913.0</ele>
        <time>2015-03-17T13:35:38Z</time>
      </trkpt>
      <trkpt lat="43.120750" lon="-4.697433">
        <ele>1913.0</ele>
        <time>2015-03-17T13:35:39Z</time>
      </trkpt>
      <trkpt lat="43.120850" lon="-4.697367">
        <ele>1913.0</ele>
        <time>2015-03-17T13:35:40Z</time>
      </trkpt>
      <trkpt lat="43.120933" lon="-4.697267">
        <ele>1914.0</ele>
        <time>2015-03-17T13:35:41Z</time>
      </trkpt>
      <trkpt lat="43.121017" lon="-4.697167">
        <ele>1914.0</ele>
        <time>2015-03-17T13:35:42Z</time>
      </trkpt>
      <trkpt lat="43.121083" lon="-4.697067">
        <ele>1914.0</ele>
        <time>2015-03-17T13:35:43Z</time>
      </trkpt>
      <trkpt lat="43.121167" lon="-4.696967">
        <ele>1914.0</ele>
        <time>2015-03-17T13:35:44Z</time>
      </trkpt>
      <trkpt lat="43.121217" lon="-4.696850">
        <ele>1914.0</ele>
        <time>2015-03-17T13:35:45Z</time>
      </trkpt>
      <trkpt lat="43.121267" lon="-4.696733">
        <ele>1914.0</ele>
        <time>2015-03-17T13:35:46Z</time>
      </trkpt>
      <trkpt lat="43.121283" lon="-4.696617">
        <ele>1913.0</ele>
        <time>2015-03-17T13:35:47Z</time>
      </trkpt>
      <trkpt lat="43.121300" lon="-4.696500">
        <ele>1913.0</ele>
        <time>2015-03-17T13:35:48Z</time>
      </trkpt>
      <trkpt lat="43.121300" lon="-4.696367">
        <ele>1913.0</ele>
        <time>2015-03-17T13:35:49Z</time>
      </trkpt>
      <trkpt lat="43.121283" lon="-4.696267">
        <ele>1913.0</ele>
        <time>2015-03-17T13:35:50Z</time>
      </trkpt>
      <trkpt lat="43.121267" lon="-4.696167">
        <ele>1913.0</ele>
        <time>2015-03-17T13:35:51Z</time>
      </trkpt>
      <trkpt lat="43.121250" lon="-4.696083">
        <ele>1913.0</ele>
        <time>2015-03-17T13:35:52Z</time>
      </trkpt>
      <trkpt lat="43.121200" lon="-4.696000">
        <ele>1914.0</ele>
        <time>2015-03-17T13:35:53Z</time>
      </trkpt>
      <trkpt lat="43.121167" lon="-4.695967">
        <ele>1914.0</ele>
        <time>2015-03-17T13:35:54Z</time>
      </trkpt>
      <trkpt lat="43.121117" lon="-4.695950">
        <ele>1914.0</ele>
        <time>2015-03-17T13:35:55Z</time>
      </trkpt>
      <trkpt lat="43.121083" lon="-4.695950">
        <ele>1914.0</ele>
        <time>2015-03-17T13:35:56Z</time>
      </trkpt>
      <trkpt lat="43.121033" lon="-4.695933">
        <ele>1914.0</ele>
        <time>2015-03-17T13:35:57Z</time>
      </trkpt>
      <trkpt lat="43.120983" lon="-4.695933">
        <ele>1913.0</ele>
        <time>2015-03-17T13:35:58Z</time>
      </trkpt>
      <trkpt lat="43.120933" lon="-4.695950">
        <ele>1913.0</ele>
        <time>2015-03-17T13:35:59Z</time>
      </trkpt>
      <trkpt lat="43.120883" lon="-4.696000">
        <ele>1912.0</ele>
        <time>2015-03-17T13:36:00Z</time>
      </trkpt>
      <trkpt lat="43.120833" lon="-4.696083">
        <ele>1911.0</ele>
        <time>2015-03-17T13:36:01Z</time>
      </trkpt>
      <trkpt lat="43.120767" lon="-4.696183">
        <ele>1910.0</ele>
        <time>2015-03-17T13:36:02Z</time>
      </trkpt>
      <trkpt lat="43.120717" lon="-4.696267">
        <ele>1910.0</ele>
        <time>2015-03-17T13:36:03Z</time>
      </trkpt>
      <trkpt lat="43.120667" lon="-4.696350">
        <ele>1911.0</ele>
        <time>2015-03-17T13:36:04Z</time>
      </trkpt>
      <trkpt lat="43.120633" lon="-4.696433">
        <ele>1911.0</ele>
        <time>2015-03-17T13:36:05Z</time>
      </trkpt>
      <trkpt lat="43.120617" lon="-4.696533">
        <ele>1911.0</ele>
        <time>2015-03-17T13:36:06Z</time>
      </trkpt>
      <trkpt lat="43.120583" lon="-4.696617">
        <ele>1910.0</ele>
        <time>2015-03-17T13:36:07Z</time>
      </trkpt>
      <trkpt lat="43.120533" lon="-4.696733">
        <ele>1909.0</ele>
        <time>2015-03-17T13:36:08Z</time>
      </trkpt>
      <trkpt lat="43.120500" lon="-4.696850">
        <ele>1908.0</ele>
        <time>2015-03-17T13:36:09Z</time>
      </trkpt>
      <trkpt lat="43.120467" lon="-4.696967">
        <ele>1909.0</ele>
        <time>2015-03-17T13:36:10Z</time>
      </trkpt>
      <trkpt lat="43.120450" lon="-4.697067">
        <ele>1910.0</ele>
        <time>2015-03-17T13:36:11Z</time>
      </trkpt>
      <trkpt lat="43.120433" lon="-4.697183">
        <ele>1910.0</ele>
        <time>2015-03-17T13:36:12Z</time>
      </trkpt>
      <trkpt lat="43.120400" lon="-4.697267">
        <ele>1911.0</ele>
        <time>2015-03-17T13:36:13Z</time>
      </trkpt>
      <trkpt lat="43.120383" lon="-4.697367">
        <ele>1911.0</ele>
        <time>2015-03-17T13:36:14Z</time>
      </trkpt>
      <trkpt lat="43.120367" lon="-4.697483">
        <ele>1911.0</ele>
        <time>2015-03-17T13:36:15Z</time>
      </trkpt>
      <trkpt lat="43.120350" lon="-4.697600">
        <ele>1911.0</ele>
        <time>2015-03-17T13:36:16Z</time>
      </trkpt>
      <trkpt lat="43.120350" lon="-4.697733">
        <ele>1912.0</ele>
        <time>2015-03-17T13:36:17Z</time>
      </trkpt>
      <trkpt lat="43.120333" lon="-4.697850">
        <ele>1914.0</ele>
        <time>2015-03-17T13:36:18Z</time>
      </trkpt>
      <trkpt lat="43.120333" lon="-4.697950">
        <ele>1915.0</ele>
        <time>2015-03-17T13:36:19Z</time>
      </trkpt>
      <trkpt lat="43.120317" lon="-4.698050">
        <ele>1916.0</ele>
        <time>2015-03-17T13:36:20Z</time>
      </trkpt>
      <trkpt lat="43.120317" lon="-4.698150">
        <ele>1917.0</ele>
        <time>2015-03-17T13:36:21Z</time>
      </trkpt>
      <trkpt lat="43.120300" lon="-4.698267">
        <ele>1918.0</ele>
        <time>2015-03-17T13:36:22Z</time>
      </trkpt>
      <trkpt lat="43.120317" lon="-4.698383">
        <ele>1919.0</ele>
        <time>2015-03-17T13:36:23Z</time>
      </trkpt>
      <trkpt lat="43.120317" lon="-4.698500">
        <ele>1920.0</ele>
        <time>2015-03-17T13:36:24Z</time>
      </trkpt>
      <trkpt lat="43.120333" lon="-4.698600">
        <ele>1922.0</ele>
        <time>2015-03-17T13:36:25Z</time>
      </trkpt>
      <trkpt lat="43.120350" lon="-4.698700">
        <ele>1923.0</ele>
        <time>2015-03-17T13:36:26Z</time>
      </trkpt>
      <trkpt lat="43.120350" lon="-4.698783">
        <ele>1924.0</ele>
        <time>2015-03-17T13:36:27Z</time>
      </trkpt>
      <trkpt lat="43.120367" lon="-4.698883">
        <ele>1924.0</ele>
        <time>2015-03-17T13:36:28Z</time>
      </trkpt>
      <trkpt lat="43.120383" lon="-4.698983">
        <ele>1925.0</ele>
        <time>2015-03-17T13:36:29Z</time>
      </trkpt>
      <trkpt lat="43.120400" lon="-4.699067">
        <ele>1927.0</ele>
        <time>2015-03-17T13:36:30Z</time>
      </trkpt>
      <trkpt lat="43.120433" lon="-4.699133">
        <ele>1929.0</ele>
        <time>2015-03-17T13:36:31Z</time>
      </trkpt>
      <trkpt lat="43.120467" lon="-4.699183">
        <ele>1931.0</ele>
        <time>2015-03-17T13:36:32Z</time>
      </trkpt>
      <trkpt lat="43.120517" lon="-4.699233">
        <ele>1932.0</ele>
        <time>2015-03-17T13:36:33Z</time>
      </trkpt>
      <trkpt lat="43.120550" lon="-4.699300">
        <ele>1934.0</ele>
        <time>2015-03-17T13:36:34Z</time>
      </trkpt>
      <trkpt lat="43.120600" lon="-4.699367">
        <ele>1937.0</ele>
        <time>2015-03-17T13:36:35Z</time>
      </trkpt>
      <trkpt lat="43.120650" lon="-4.699417">
        <ele>1939.0</ele>
        <time>2015-03-17T13:36:36Z</time>
      </trkpt>
      <trkpt lat="43.120717" lon="-4.699467">
        <ele>1942.0</ele>
        <time>2015-03-17T13:36:37Z</time>
      </trkpt>
      <trkpt lat="43.120783" lon="-4.699500">
        <ele>1945.0</ele>
        <time>2015-03-17T13:36:38Z</time>
      </trkpt>
      <trkpt lat="43.120850" lon="-4.699533">
        <ele>1947.0</ele>
        <time>2015-03-17T13:36:39Z</time>
      </trkpt>
      <trkpt lat="43.120933" lon="-4.699567">
        <ele>1950.0</ele>
        <time>2015-03-17T13:36:40Z</time>
      </trkpt>
      <trkpt lat="43.121033" lon="-4.699567">
        <ele>1951.0</ele>
        <time>2015-03-17T13:36:41Z</time>
      </trkpt>
      <trkpt lat="43.121133" lon="-4.699550">
        <ele>1953.0</ele>
        <time>2015-03-17T13:36:42Z</time>
      </trkpt>
      <trkpt lat="43.121233" lon="-4.699517">
        <ele>1955.0</ele>
        <time>2015-03-17T13:36:43Z</time>
      </trkpt>
      <trkpt lat="43.121333" lon="-4.699467">
        <ele>1958.0</ele>
        <time>2015-03-17T13:36:44Z</time>
      </trkpt>
      <trkpt lat="43.121417" lon="-4.699417">
        <ele>1960.0</ele>
        <time>2015-03-17T13:36:45Z</time>
      </trkpt>
      <trkpt lat="43.121483" lon="-4.699333">
        <ele>1961.0</ele>
        <time>2015-03-17T13:36:46Z</time>
      </trkpt>
      <trkpt lat="43.121550" lon="-4.699233">
        <ele>1961.0</ele>
        <time>2015-03-17T13:36:47Z</time>
      </trkpt>
      <trkpt lat="43.121600" lon="-4.699100">
        <ele>1961.0</ele>
        <time>2015-03-17T13:36:48Z</time>
      </trkpt>
      <trkpt lat="43.121600" lon="-4.698967">
        <ele>1961.0</ele>
        <time>2015-03-17T13:36:49Z</time>
      </trkpt>
      <trkpt lat="43.121600" lon="-4.698850">
        <ele>1962.0</ele>
        <time>2015-03-17T13:36:50Z</time>
      </trkpt>
      <trkpt lat="43.121567" lon="-4.698750">
        <ele>1962.0</ele>
        <time>2015-03-17T13:36:51Z</time>
      </trkpt>
      <trkpt lat="43.121533" lon="-4.698667">
        <ele>1963.0</ele>
        <time>2015-03-17T13:36:52Z</time>
      </trkpt>
      <trkpt lat="43.121483" lon="-4.698633">
        <ele>1964.0</ele>
        <time>2015-03-17T13:36:53Z</time>
      </trkpt>
      <trkpt lat="43.121450" lon="-4.698617">
        <ele>1965.0</ele>
        <time>2015-03-17T13:36:54Z</time>
      </trkpt>
      <trkpt lat="43.121417" lon="-4.698617">
        <ele>1966.0</ele>
        <time>2015-03-17T13:36:55Z</time>
      </trkpt>
      <trkpt lat="43.121367" lon="-4.698600">
        <ele>1966.0</ele>
        <time>2015-03-17T13:36:56Z</time>
      </trkpt>
      <trkpt lat="43.121333" lon="-4.698617">
        <ele>1966.0</ele>
        <time>2015-03-17T13:36:57Z</time>
      </trkpt>
      <trkpt lat="43.121267" lon="-4.698650">
        <ele>1967.0</ele>
        <time>2015-03-17T13:36:58Z</time>
      </trkpt>
      <trkpt lat="43.121217" lon="-4.698700">
        <ele>1967.0</ele>
        <time>2015-03-17T13:36:59Z</time>
      </trkpt>
      <trkpt lat="43.121183" lon="-4.698767">
        <ele>1968.0</ele>
        <time>2015-03-17T13:37:00Z</time>
      </trkpt>
      <trkpt lat="43.121150" lon="-4.698833">
        <ele>1970.0</ele>
        <time>2015-03-17T13:37:01Z</time>
      </trkpt>
      <trkpt lat="43.121117" lon="-4.698917">
        <ele>1977.0</ele>
        <time>2015-03-17T13:37:02Z</time>
      </trkpt>
      <trkpt lat="43.121100" lon="-4.698967">
        <ele>1981.0</ele>
        <time>2015-03-17T13:37:03Z</time>
      </trkpt>
      <trkpt lat="43.121100" lon="-4.699017">
        <ele>1984.0</ele>
        <time>2015-03-17T13:37:04Z</time>
      </trkpt>
      <trkpt lat="43.121117" lon="-4.699067">
        <ele>1986.0</ele>
        <time>2015-03-17T13:37:05Z</time>
      </trkpt>
      <trkpt lat="43.121117" lon="-4.699117">
        <ele>1986.0</ele>
        <time>2015-03-17T13:37:06Z</time>
      </trkpt>
      <trkpt lat="43.121100" lon="-4.699183">
        <ele>1988.0</ele>
        <time>2015-03-17T13:37:07Z</time>
      </trkpt>
      <trkpt lat="43.121083" lon="-4.699233">
        <ele>1991.0</ele>
        <time>2015-03-17T13:37:08Z</time>
      </trkpt>
      <trkpt lat="43.121050" lon="-4.699250">
        <ele>1994.0</ele>
        <time>2015-03-17T13:37:09Z</time>
      </trkpt>
      <trkpt lat="43.121017" lon="-4.699200">
        <ele>1997.0</ele>
        <time>2015-03-17T13:37:10Z</time>
      </trkpt>
      <trkpt lat="43.120983" lon="-4.699100">
        <ele>1999.0</ele>
        <time>2015-03-17T13:37:11Z</time>
      </trkpt>
      <trkpt lat="43.120983" lon="-4.698983">
        <ele>2003.0</ele>
        <time>2015-03-17T13:37:12Z</time>
      </trkpt>
      <trkpt lat="43.121000" lon="-4.698883">
        <ele>2004.0</ele>
        <time>2015-03-17T13:37:13Z</time>
      </trkpt>
      <trkpt lat="43.121033" lon="-4.698783">
        <ele>2005.0</ele>
        <time>2015-03-17T13:37:14Z</time>
      </trkpt>
      <trkpt lat="43.121100" lon="-4.698667">
        <ele>2007.0</ele>
        <time>2015-03-17T13:37:15Z</time>
      </trkpt>
      <trkpt lat="43.121183" lon="-4.698567">
        <ele>2010.0</ele>
        <time>2015-03-17T13:37:16Z</time>
      </trkpt>
      <trkpt lat="43.121283" lon="-4.698500">
        <ele>2013.0</ele>
        <time>2015-03-17T13:37:17Z</time>
      </trkpt>
      <trkpt lat="43.121400" lon="-4.698450">
        <ele>2016.0</ele>
        <time>2015-03-17T13:37:18Z</time>
      </trkpt>
      <trkpt lat="43.121500" lon="-4.698450">
        <ele>2019.0</ele>
        <time>2015-03-17T13:37:19Z</time>
      </trkpt>
      <trkpt lat="43.121583" lon="-4.698483">
        <ele>2021.0</ele>
        <time>2015-03-17T13:37:20Z</time>
      </trkpt>
      <trkpt lat="43.121667" lon="-4.698550">
        <ele>2023.0</ele>
        <time>2015-03-17T13:37:21Z</time>
      </trkpt>
      <trkpt lat="43.121733" lon="-4.698633">
        <ele>2024.0</ele>
        <time>2015-03-17T13:37:22Z</time>
      </trkpt>
      <trkpt lat="43.121783" lon="-4.698733">
        <ele>2027.0</ele>
        <time>2015-03-17T13:37:23Z</time>
      </trkpt>
      <trkpt lat="43.121817" lon="-4.698817">
        <ele>2030.0</ele>
        <time>2015-03-17T13:37:24Z</time>
      </trkpt>
      <trkpt lat="43.121800" lon="-4.698883">
        <ele>2033.0</ele>
        <time>2015-03-17T13:37:25Z</time>
      </trkpt>
      <trkpt lat="43.121783" lon="-4.698933">
        <ele>2035.0</ele>
        <time>2015-03-17T13:37:26Z</time>
      </trkpt>
      <trkpt lat="43.121750" lon="-4.698967">
        <ele>2037.0</ele>
        <time>2015-03-17T13:37:27Z</time>
      </trkpt>
      <trkpt lat="43.121717" lon="-4.698983">
        <ele>2040.0</ele>
        <time>2015-03-17T13:37:28Z</time>
      </trkpt>
      <trkpt lat="43.121683" lon="-4.699017">
        <ele>2042.0</ele>
        <time>2015-03-17T13:37:29Z</time>
      </trkpt>
      <trkpt lat="43.121633" lon="-4.699017">
        <ele>2044.0</ele>
        <time>2015-03-17T13:37:30Z</time>
      </trkpt>
      <trkpt lat="43.121583" lon="-4.699000">
        <ele>2046.0</ele>
        <time>2015-03-17T13:37:31Z</time>
      </trkpt>
      <trkpt lat="43.121533" lon="-4.698967">
        <ele>2047.0</ele>
        <time>2015-03-17T13:37:32Z</time>
      </trkpt>
      <trkpt lat="43.121483" lon="-4.698933">
        <ele>2050.0</ele>
        <time>2015-03-17T13:37:33Z</time>
      </trkpt>
      <trkpt lat="43.121450" lon="-4.698883">
        <ele>2054.0</ele>
        <time>2015-03-17T13:37:34Z</time>
      </trkpt>
      <trkpt lat="43.121417" lon="-4.698817">
        <ele>2057.0</ele>
        <time>2015-03-17T13:37:35Z</time>
      </trkpt>
      <trkpt lat="43.121417" lon="-4.698750">
        <ele>2059.0</ele>
        <time>2015-03-17T13:37:36Z</time>
      </trkpt>
      <trkpt lat="43.121400" lon="-4.698667">
        <ele>2061.0</ele>
        <time>2015-03-17T13:37:37Z</time>
      </trkpt>
      <trkpt lat="43.121400" lon="-4.698583">
        <ele>2063.0</ele>
        <time>2015-03-17T13:37:38Z</time>
      </trkpt>
      <trkpt lat="43.121400" lon="-4.698467">
        <ele>2065.0</ele>
        <time>2015-03-17T13:37:39Z</time>
      </trkpt>
      <trkpt lat="43.121417" lon="-4.698367">
        <ele>2067.0</ele>
        <time>2015-03-17T13:37:40Z</time>
      </trkpt>
      <trkpt lat="43.121467" lon="-4.698250">
        <ele>2070.0</ele>
        <time>2015-03-17T13:37:41Z</time>
      </trkpt>
      <trkpt lat="43.121517" lon="-4.698150">
        <ele>2070.0</ele>
        <time>2015-03-17T13:37:42Z</time>
      </trkpt>
      <trkpt lat="43.121567" lon="-4.698067">
        <ele>2073.0</ele>
        <time>2015-03-17T13:37:43Z</time>
      </trkpt>
      <trkpt lat="43.121617" lon="-4.697983">
        <ele>2077.0</ele>
        <time>2015-03-17T13:37:44Z</time>
      </trkpt>
      <trkpt lat="43.121667" lon="-4.697900">
        <ele>2080.0</ele>
        <time>2015-03-17T13:37:45Z</time>
      </trkpt>
      <trkpt lat="43.121733" lon="-4.697817">
        <ele>2082.0</ele>
        <time>2015-03-17T13:37:46Z</time>
      </trkpt>
      <trkpt lat="43.121817" lon="-4.697750">
        <ele>2084.0</ele>
        <time>2015-03-17T13:37:47Z</time>
      </trkpt>
      <trkpt lat="43.121900" lon="-4.697700">
        <ele>2085.0</ele>
        <time>2015-03-17T13:37:48Z</time>
      </trkpt>
      <trkpt lat="43.122000" lon="-4.697700">
        <ele>2086.0</ele>
        <time>2015-03-17T13:37:49Z</time>
      </trkpt>
      <trkpt lat="43.122100" lon="-4.697717">
        <ele>2087.0</ele>
        <time>2015-03-17T13:37:50Z</time>
      </trkpt>
      <trkpt lat="43.122183" lon="-4.697767">
        <ele>2089.0</ele>
        <time>2015-03-17T13:37:51Z</time>
      </trkpt>
      <trkpt lat="43.122267" lon="-4.697817">
        <ele>2090.0</ele>
        <time>2015-03-17T13:37:52Z</time>
      </trkpt>
      <trkpt lat="43.122350" lon="-4.697867">
        <ele>2091.0</ele>
        <time>2015-03-17T13:37:53Z</time>
      </trkpt>
      <trkpt lat="43.122433" lon="-4.697917">
        <ele>2092.0</ele>
        <time>2015-03-17T13:37:54Z</time>
      </trkpt>
      <trkpt lat="43.122517" lon="-4.697983">
        <ele>2093.0</ele>
        <time>2015-03-17T13:37:55Z</time>
      </trkpt>
      <trkpt lat="43.122617" lon="-4.698050">
        <ele>2095.0</ele>
        <time>2015-03-17T13:37:56Z</time>
      </trkpt>
      <trkpt lat="43.122700" lon="-4.698117">
        <ele>2096.0</ele>
        <time>2015-03-17T13:37:57Z</time>
      </trkpt>
      <trkpt lat="43.122783" lon="-4.698183">
        <ele>2098.0</ele>
        <time>2015-03-17T13:37:58Z</time>
      </trkpt>
      <trkpt lat="43.122850" lon="-4.698267">
        <ele>2100.0</ele>
        <time>2015-03-17T13:37:59Z</time>
      </trkpt>
      <trkpt lat="43.122900" lon="-4.698350">
        <ele>2102.0</ele>
        <time>2015-03-17T13:38:00Z</time>
      </trkpt>
      <trkpt lat="43.122967" lon="-4.698433">
        <ele>2104.0</ele>
        <time>2015-03-17T13:38:01Z</time>
      </trkpt>
      <trkpt lat="43.123017" lon="-4.698517">
        <ele>2105.0</ele>
        <time>2015-03-17T13:38:02Z</time>
      </trkpt>
      <trkpt lat="43.123083" lon="-4.698617">
        <ele>2107.0</ele>
        <time>2015-03-17T13:38:03Z</time>
      </trkpt>
      <trkpt lat="43.123133" lon="-4.698683">
        <ele>2110.0</ele>
        <time>2015-03-17T13:38:04Z</time>
      </trkpt>
      <trkpt lat="43.123167" lon="-4.698767">
        <ele>2111.0</ele>
        <time>2015-03-17T13:38:05Z</time>
      </trkpt>
      <trkpt lat="43.123183" lon="-4.698850">
        <ele>2113.0</ele>
        <time>2015-03-17T13:38:06Z</time>
      </trkpt>
      <trkpt lat="43.123200" lon="-4.698933">
        <ele>2116.0</ele>
        <time>2015-03-17T13:38:07Z</time>
      </trkpt>
      <trkpt lat="43.123200" lon="-4.699000">
        <ele>2119.0</ele>
        <time>2015-03-17T13:38:08Z</time>
      </trkpt>
      <trkpt lat="43.123217" lon="-4.699067">
        <ele>2123.0</ele>
        <time>2015-03-17T13:38:09Z</time>
      </trkpt>
      <trkpt lat="43.123217" lon="-4.699117">
        <ele>2126.0</ele>
        <time>2015-03-17T13:38:10Z</time>
      </trkpt>
      <trkpt lat="43.123200" lon="-4.699167">
        <ele>2128.0</ele>
        <time>2015-03-17T13:38:11Z</time>
      </trkpt>
      <trkpt lat="43.123200" lon="-4.699233">
        <ele>2130.0</ele>
        <time>2015-03-17T13:38:12Z</time>
      </trkpt>
      <trkpt lat="43.123183" lon="-4.699283">
        <ele>2132.0</ele>
        <time>2015-03-17T13:38:13Z</time>
      </trkpt>
      <trkpt lat="43.123150" lon="-4.699333">
        <ele>2134.0</ele>
        <time>2015-03-17T13:38:14Z</time>
      </trkpt>
      <trkpt lat="43.123100" lon="-4.699350">
        <ele>2136.0</ele>
        <time>2015-03-17T13:38:15Z</time>
      </trkpt>
      <trkpt lat="43.123050" lon="-4.699350">
        <ele>2139.0</ele>
        <time>2015-03-17T13:38:16Z</time>
      </trkpt>
      <trkpt lat="43.123000" lon="-4.699350">
        <ele>2143.0</ele>
        <time>2015-03-17T13:38:17Z</time>
      </trkpt>
      <trkpt lat="43.122950" lon="-4.699367">
        <ele>2148.0</ele>
        <time>2015-03-17T13:38:18Z</time>
      </trkpt>
      <trkpt lat="43.122917" lon="-4.699383">
        <ele>2152.0</ele>
        <time>2015-03-17T13:38:19Z</time>
      </trkpt>
      <trkpt lat="43.122883" lon="-4.699400">
        <ele>2155.0</ele>
        <time>2015-03-17T13:38:20Z</time>
      </trkpt>
      <trkpt lat="43.122867" lon="-4.699433">
        <ele>2158.0</ele>
        <time>2015-03-17T13:38:21Z</time>
      </trkpt>
      <trkpt lat="43.122833" lon="-4.699467">
        <ele>2161.0</ele>
        <time>2015-03-17T13:38:22Z</time>
      </trkpt>
      <trkpt lat="43.122800" lon="-4.699450">
        <ele>2164.0</ele>
        <time>2015-03-17T13:38:23Z</time>
      </trkpt>
      <trkpt lat="43.122750" lon="-4.699417">
        <ele>2167.0</ele>
        <time>2015-03-17T13:38:24Z</time>
      </trkpt>
      <trkpt lat="43.122717" lon="-4.699350">
        <ele>2170.0</ele>
        <time>2015-03-17T13:38:25Z</time>
      </trkpt>
      <trkpt lat="43.122700" lon="-4.699267">
        <ele>2172.0</ele>
        <time>2015-03-17T13:38:26Z</time>
      </trkpt>
      <trkpt lat="43.122683" lon="-4.699200">
        <ele>2175.0</ele>
        <time>2015-03-17T13:38:27Z</time>
      </trkpt>
      <trkpt lat="43.122667" lon="-4.699117">
        <ele>2177.0</ele>
        <time>2015-03-17T13:38:28Z</time>
      </trkpt>
      <trkpt lat="43.122650" lon="-4.699050">
        <ele>2180.0</ele>
        <time>2015-03-17T13:38:29Z</time>
      </trkpt>
      <trkpt lat="43.122633" lon="-4.698950">
        <ele>2182.0</ele>
        <time>2015-03-17T13:38:30Z</time>
      </trkpt>
      <trkpt lat="43.122617" lon="-4.698833">
        <ele>2184.0</ele>
        <time>2015-03-17T13:38:31Z</time>
      </trkpt>
      <trkpt lat="43.122600" lon="-4.698733">
        <ele>2187.0</ele>
        <time>2015-03-17T13:38:32Z</time>
      </trkpt>
      <trkpt lat="43.122600" lon="-4.698633">
        <ele>2190.0</ele>
        <time>2015-03-17T13:38:33Z</time>
      </trkpt>
      <trkpt lat="43.122583" lon="-4.698517">
        <ele>2193.0</ele>
        <time>2015-03-17T13:38:34Z</time>
      </trkpt>
      <trkpt lat="43.122583" lon="-4.698400">
        <ele>2196.0</ele>
        <time>2015-03-17T13:38:35Z</time>
      </trkpt>
      <trkpt lat="43.122583" lon="-4.698283">
        <ele>2199.0</ele>
        <time>2015-03-17T13:38:36Z</time>
      </trkpt>
      <trkpt lat="43.122583" lon="-4.698167">
        <ele>2202.0</ele>
        <time>2015-03-17T13:38:37Z</time>
      </trkpt>
      <trkpt lat="43.122600" lon="-4.698050">
        <ele>2205.0</ele>
        <time>2015-03-17T13:38:38Z</time>
      </trkpt>
      <trkpt lat="43.122617" lon="-4.697933">
        <ele>2208.0</ele>
        <time>2015-03-17T13:38:39Z</time>
      </trkpt>
      <trkpt lat="43.122633" lon="-4.697817">
        <ele>2211.0</ele>
        <time>2015-03-17T13:38:40Z</time>
      </trkpt>
      <trkpt lat="43.122650" lon="-4.697700">
        <ele>2214.0</ele>
        <time>2015-03-17T13:38:41Z</time>
      </trkpt>
      <trkpt lat="43.122667" lon="-4.697567">
        <ele>2217.0</ele>
        <time>2015-03-17T13:38:42Z</time>
      </trkpt>
      <trkpt lat="43.122700" lon="-4.697433">
        <ele>2220.0</ele>
        <time>2015-03-17T13:38:43Z</time>
      </trkpt>
      <trkpt lat="43.122733" lon="-4.697317">
        <ele>2223.0</ele>
        <time>2015-03-17T13:38:44Z</time>
      </trkpt>
      <trkpt lat="43.122783" lon="-4.697217">
        <ele>2227.0</ele>
        <time>2015-03-17T13:38:45Z</time>
      </trkpt>
      <trkpt lat="43.122817" lon="-4.697117">
        <ele>2228.0</ele>
        <time>2015-03-17T13:38:46Z</time>
      </trkpt>
      <trkpt lat="43.122867" lon="-4.697000">
        <ele>2229.0</ele>
        <time>2015-03-17T13:38:47Z</time>
      </trkpt>
      <trkpt lat="43.122933" lon="-4.696883">
        <ele>2230.0</ele>
        <time>2015-03-17T13:38:48Z</time>
      </trkpt>
      <trkpt lat="43.123017" lon="-4.696783">
        <ele>2232.0</ele>
        <time>2015-03-17T13:38:49Z</time>
      </trkpt>
      <trkpt lat="43.123117" lon="-4.696700">
        <ele>2235.0</ele>
        <time>2015-03-17T13:38:50Z</time>
      </trkpt>
      <trkpt lat="43.123217" lon="-4.696650">
        <ele>2238.0</ele>
        <time>2015-03-17T13:38:51Z</time>
      </trkpt>
      <trkpt lat="43.123300" lon="-4.696633">
        <ele>2240.0</ele>
        <time>2015-03-17T13:38:52Z</time>
      </trkpt>
      <trkpt lat="43.123383" lon="-4.696600">
        <ele>2241.0</ele>
        <time>2015-03-17T13:38:53Z</time>
      </trkpt>
      <trkpt lat="43.123483" lon="-4.696567">
        <ele>2242.0</ele>
        <time>2015-03-17T13:38:54Z</time>
      </trkpt>
      <trkpt lat="43.123583" lon="-4.696550">
        <ele>2243.0</ele>
        <time>2015-03-17T13:38:55Z</time>
      </trkpt>
      <trkpt lat="43.123700" lon="-4.696567">
        <ele>2244.0</ele>
        <time>2015-03-17T13:38:56Z</time>
      </trkpt>
      <trkpt lat="43.123783" lon="-4.696600">
        <ele>2245.0</ele>
        <time>2015-03-17T13:38:57Z</time>
      </trkpt>
      <trkpt lat="43.123850" lon="-4.696667">
        <ele>2247.0</ele>
        <time>2015-03-17T13:38:58Z</time>
      </trkpt>
      <trkpt lat="43.123933" lon="-4.696750">
        <ele>2248.0</ele>
        <time>2015-03-17T13:38:59Z</time>
      </trkpt>
      <trkpt lat="43.124000" lon="-4.696817">
        <ele>2250.0</ele>
        <time>2015-03-17T13:39:00Z</time>
      </trkpt>
      <trkpt lat="43.124067" lon="-4.696883">
        <ele>2253.0</ele>
        <time>2015-03-17T13:39:01Z</time>
      </trkpt>
      <trkpt lat="43.124133" lon="-4.696967">
        <ele>2255.0</ele>
        <time>2015-03-17T13:39:02Z</time>
      </trkpt>
      <trkpt lat="43.124200" lon="-4.697033">
        <ele>2258.0</ele>
        <time>2015-03-17T13:39:03Z</time>
      </trkpt>
      <trkpt lat="43.124233" lon="-4.697100">
        <ele>2261.0</ele>
        <time>2015-03-17T13:39:04Z</time>
      </trkpt>
      <trkpt lat="43.124267" lon="-4.697183">
        <ele>2263.0</ele>
        <time>2015-03-17T13:39:05Z</time>
      </trkpt>
      <trkpt lat="43.124283" lon="-4.697250">
        <ele>2266.0</ele>
        <time>2015-03-17T13:39:06Z</time>
      </trkpt>
      <trkpt lat="43.124317" lon="-4.697317">
        <ele>2268.0</ele>
        <time>2015-03-17T13:39:07Z</time>
      </trkpt>
      <trkpt lat="43.124350" lon="-4.697400">
        <ele>2270.0</ele>
        <time>2015-03-17T13:39:08Z</time>
      </trkpt>
      <trkpt lat="43.124367" lon="-4.697483">
        <ele>2273.0</ele>
        <time>2015-03-17T13:39:09Z</time>
      </trkpt>
      <trkpt lat="43.124383" lon="-4.697550">
        <ele>2276.0</ele>
        <time>2015-03-17T13:39:10Z</time>
      </trkpt>
      <trkpt lat="43.124400" lon="-4.697617">
        <ele>2279.0</ele>
        <time>2015-03-17T13:39:11Z</time>
      </trkpt>
      <trkpt lat="43.124417" lon="-4.697683">
        <ele>2283.0</ele>
        <time>2015-03-17T13:39:12Z</time>
      </trkpt>
      <trkpt lat="43.124433" lon="-4.697750">
        <ele>2286.0</ele>
        <time>2015-03-17T13:39:13Z</time>
      </trkpt>
      <trkpt lat="43.124433" lon="-4.697817">
        <ele>2290.0</ele>
        <time>2015-03-17T13:39:14Z</time>
      </trkpt>
      <trkpt lat="43.124433" lon="-4.697867">
        <ele>2293.0</ele>
        <time>2015-03-17T13:39:15Z</time>
      </trkpt>
      <trkpt lat="43.124417" lon="-4.697917">
        <ele>2296.0</ele>
        <time>2015-03-17T13:39:16Z</time>
      </trkpt>
      <trkpt lat="43.124400" lon="-4.697967">
        <ele>2300.0</ele>
        <time>2015-03-17T13:39:17Z</time>
      </trkpt>
      <trkpt lat="43.124400" lon="-4.698017">
        <ele>2303.0</ele>
        <time>2015-03-17T13:39:18Z</time>
      </trkpt>
      <trkpt lat="43.124383" lon="-4.698050">
        <ele>2306.0</ele>
        <time>2015-03-17T13:39:19Z</time>
      </trkpt>
      <trkpt lat="43.124367" lon="-4.698100">
        <ele>2308.0</ele>
        <time>2015-03-17T13:39:20Z</time>
      </trkpt>
      <trkpt lat="43.124333" lon="-4.698133">
        <ele>2310.0</ele>
        <time>2015-03-17T13:39:21Z</time>
      </trkpt>
      <trkpt lat="43.124283" lon="-4.698167">
        <ele>2312.0</ele>
        <time>2015-03-17T13:39:22Z</time>
      </trkpt>
      <trkpt lat="43.124217" lon="-4.698200">
        <ele>2315.0</ele>
        <time>2015-03-17T13:39:23Z</time>
      </trkpt>
      <trkpt lat="43.124167" lon="-4.698250">
        <ele>2319.0</ele>
        <time>2015-03-17T13:39:24Z</time>
      </trkpt>
      <trkpt lat="43.124133" lon="-4.698283">
        <ele>2323.0</ele>
        <time>2015-03-17T13:39:25Z</time>
      </trkpt>
      <trkpt lat="43.124083" lon="-4.698300">
        <ele>2327.0</ele>
        <time>2015-03-17T13:39:26Z</time>
      </trkpt>
      <trkpt lat="43.124050" lon="-4.698317">
        <ele>2330.0</ele>
        <time>2015-03-17T13:39:27Z</time>
      </trkpt>
      <trkpt lat="43.124017" lon="-4.698333">
        <ele>2334.0</ele>
        <time>2015-03-17T13:39:28Z</time>
      </trkpt>
      <trkpt lat="43.123967" lon="-4.698333">
        <ele>2337.0</ele>
        <time>2015-03-17T13:39:29Z</time>
      </trkpt>
      <trkpt lat="43.123933" lon="-4.698333">
        <ele>2340.0</ele>
        <time>2015-03-17T13:39:30Z</time>
      </trkpt>
      <trkpt lat="43.123883" lon="-4.698333">
        <ele>2342.0</ele>
        <time>2015-03-17T13:39:31Z</time>
      </trkpt>
      <trkpt lat="43.123833" lon="-4.698300">
        <ele>2344.0</ele>
        <time>2015-03-17T13:39:32Z</time>
      </trkpt>
      <trkpt lat="43.123783" lon="-4.698267">
        <ele>2347.0</ele>
        <time>2015-03-17T13:39:33Z</time>
      </trkpt>
      <trkpt lat="43.123733" lon="-4.698217">
        <ele>2350.0</ele>
        <time>2015-03-17T13:39:34Z</time>
      </trkpt>
      <trkpt lat="43.123717" lon="-4.698150">
        <ele>2353.0</ele>
        <time>2015-03-17T13:39:35Z</time>
      </trkpt>
      <trkpt lat="43.123700" lon="-4.698083">
        <ele>2355.0</ele>
        <time>2015-03-17T13:39:36Z</time>
      </trkpt>
      <trkpt lat="43.123683" lon="-4.698017">
        <ele>2356.0</ele>
        <time>2015-03-17T13:39:37Z</time>
      </trkpt>
      <trkpt lat="43.123650" lon="-4.697933">
        <ele>2358.0</ele>
        <time>2015-03-17T13:39:38Z</time>
      </trkpt>
      <trkpt lat="43.123617" lon="-4.697833">
        <ele>2360.0</ele>
        <time>2015-03-17T13:39:39Z</time>
      </trkpt>
      <trkpt lat="43.123583" lon="-4.697750">
        <ele>2365.0</ele>
        <time>2015-03-17T13:39:40Z</time>
      </trkpt>
      <trkpt lat="43.123567" lon="-4.697667">
        <ele>2369.0</ele>
        <time>2015-03-17T13:39:41Z</time>
      </trkpt>
      <trkpt lat="43.123550" lon="-4.697567">
        <ele>2374.0</ele>
        <time>2015-03-17T13:39:42Z</time>
      </trkpt>
      <trkpt lat="43.123533" lon="-4.697483">
        <ele>2379.0</ele>
        <time>2015-03-17T13:39:43Z</time>
      </trkpt>
      <trkpt lat="43.123517" lon="-4.697400">
        <ele>2383.0</ele>
        <time>2015-03-17T13:39:44Z</time>
      </trkpt>
      <trkpt lat="43.123500" lon="-4.697333">
        <ele>2387.0</ele>
        <time>2015-03-17T13:39:45Z</time>
      </trkpt>
      <trkpt lat="43.123500" lon="-4.697233">
        <ele>2390.0</ele>
        <time>2015-03-17T13:39:46Z</time>
      </trkpt>
      <trkpt lat="43.123500" lon="-4.697133">
        <ele>2394.0</ele>
        <time>2015-03-17T13:39:47Z</time>
      </trkpt>
      <trkpt lat="43.123517" lon="-4.697017">
        <ele>2397.0</ele>
        <time>2015-03-17T13:39:48Z</time>
      </trkpt>
      <trkpt lat="43.123533" lon="-4.696883">
        <ele>2400.0</ele>
        <time>2015-03-17T13:39:49Z</time>
      </trkpt>
      <trkpt lat="43.123567" lon="-4.696733">
        <ele>2403.0</ele>
        <time>2015-03-17T13:39:50Z</time>
      </trkpt>
      <trkpt lat="43.123617" lon="-4.696600">
        <ele>2407.0</ele>
        <time>2015-03-17T13:39:51Z</time>
      </trkpt>
      <trkpt lat="43.123700" lon="-4.696483">
        <ele>2410.0</ele>
        <time>2015-03-17T13:39:52Z</time>
      </trkpt>
      <trkpt lat="43.123783" lon="-4.696383">
        <ele>2413.0</ele>
        <time>2015-03-17T13:39:53Z</time>
      </trkpt>
      <trkpt lat="43.123883" lon="-4.696300">
        <ele>2417.0</ele>
        <time>2015-03-17T13:39:54Z</time>
      </trkpt>
      <trkpt lat="43.123983" lon="-4.696217">
        <ele>2422.0</ele>
        <time>2015-03-17T13:39:55Z</time>
      </trkpt>
      <trkpt lat="43.124050" lon="-4.696150">
        <ele>2427.0</ele>
        <time>2015-03-17T13:39:56Z</time>
      </trkpt>
      <trkpt lat="43.124133" lon="-4.696117">
        <ele>2431.0</ele>
        <time>2015-03-17T13:39:57Z</time>
      </trkpt>
      <trkpt lat="43.124233" lon="-4.696100">
        <ele>2434.0</ele>
        <time>2015-03-17T13:39:58Z</time>
      </trkpt>
      <trkpt lat="43.124317" lon="-4.696100">
        <ele>2435.0</ele>
        <time>2015-03-17T13:39:59Z</time>
      </trkpt>
      <trkpt lat="43.124417" lon="-4.696150">
        <ele>2437.0</ele>
        <time>2015-03-17T13:40:00Z</time>
      </trkpt>
      <trkpt lat="43.124483" lon="-4.696217">
        <ele>2439.0</ele>
        <time>2015-03-17T13:40:01Z</time>
      </trkpt>
      <trkpt lat="43.124533" lon="-4.696300">
        <ele>2443.0</ele>
        <time>2015-03-17T13:40:02Z</time>
      </trkpt>
      <trkpt lat="43.124550" lon="-4.696383">
        <ele>2448.0</ele>
        <time>2015-03-17T13:40:03Z</time>
      </trkpt>
      <trkpt lat="43.124550" lon="-4.696450">
        <ele>2452.0</ele>
        <time>2015-03-17T13:40:04Z</time>
      </trkpt>
      <trkpt lat="43.124550" lon="-4.696517">
        <ele>2456.0</ele>
        <time>2015-03-17T13:40:05Z</time>
      </trkpt>
      <trkpt lat="43.124567" lon="-4.696567">
        <ele>2460.0</ele>
        <time>2015-03-17T13:40:06Z</time>
      </trkpt>
      <trkpt lat="43.124550" lon="-4.696617">
        <ele>2462.0</ele>
        <time>2015-03-17T13:40:07Z</time>
      </trkpt>
      <trkpt lat="43.124517" lon="-4.696667">
        <ele>2464.0</ele>
        <time>2015-03-17T13:40:08Z</time>
      </trkpt>
      <trkpt lat="43.124483" lon="-4.696683">
        <ele>2467.0</ele>
        <time>2015-03-17T13:40:09Z</time>
      </trkpt>
      <trkpt lat="43.124433" lon="-4.696667">
        <ele>2470.0</ele>
        <time>2015-03-17T13:40:10Z</time>
      </trkpt>
      <trkpt lat="43.124383" lon="-4.696633">
        <ele>2475.0</ele>
        <time>2015-03-17T13:40:11Z</time>
      </trkpt>
      <trkpt lat="43.124367" lon="-4.696550">
        <ele>2479.0</ele>
        <time>2015-03-17T13:40:12Z</time>
      </trkpt>
      <trkpt lat="43.124350" lon="-4.696467">
        <ele>2484.0</ele>
        <time>2015-03-17T13:40:13Z</time>
      </trkpt>
      <trkpt lat="43.124333" lon="-4.696367">
        <ele>2488.0</ele>
        <time>2015-03-17T13:40:14Z</time>
      </trkpt>
      <trkpt lat="43.124333" lon="-4.696267">
        <ele>2492.0</ele>
        <time>2015-03-17T13:40:15Z</time>
      </trkpt>
      <trkpt lat="43.124333" lon="-4.696150">
        <ele>2497.0</ele>
        <time>2015-03-17T13:40:16Z</time>
      </trkpt>
      <trkpt lat="43.124350" lon="-4.696033">
        <ele>2501.0</ele>
        <time>2015-03-17T13:40:17Z</time>
      </trkpt>
      <trkpt lat="43.124400" lon="-4.695900">
        <ele>2505.0</ele>
        <time>2015-03-17T13:40:18Z</time>
      </trkpt>
      <trkpt lat="43.124450" lon="-4.695767">
        <ele>2509.0</ele>
        <time>2015-03-17T13:40:19Z</time>
      </trkpt>
      <trkpt lat="43.124517" lon="-4.695667">
        <ele>2513.0</ele>
        <time>2015-03-17T13:40:20Z</time>
      </trkpt>
      <trkpt lat="43.124600" lon="-4.695567">
        <ele>2516.0</ele>
        <time>2015-03-17T13:40:21Z</time>
      </trkpt>
      <trkpt lat="43.124683" lon="-4.695517">
        <ele>2519.0</ele>
        <time>2015-03-17T13:40:22Z</time>
      </trkpt>
      <trkpt lat="43.124783" lon="-4.695467">
        <ele>2522.0</ele>
        <time>2015-03-17T13:40:23Z</time>
      </trkpt>
      <trkpt lat="43.124883" lon="-4.695450">
        <ele>2525.0</ele>
        <time>2015-03-17T13:40:24Z</time>
      </trkpt>
      <trkpt lat="43.124983" lon="-4.695450">
        <ele>2529.0</ele>
        <time>2015-03-17T13:40:25Z</time>
      </trkpt>
      <trkpt lat="43.125083" lon="-4.695483">
        <ele>2532.0</ele>
        <time>2015-03-17T13:40:26Z</time>
      </trkpt>
      <trkpt lat="43.125150" lon="-4.695533">
        <ele>2535.0</ele>
        <time>2015-03-17T13:40:27Z</time>
      </trkpt>
      <trkpt lat="43.125217" lon="-4.695600">
        <ele>2537.0</ele>
        <time>2015-03-17T13:40:28Z</time>
      </trkpt>
      <trkpt lat="43.125267" lon="-4.695683">
        <ele>2540.0</ele>
        <time>2015-03-17T13:40:29Z</time>
      </trkpt>
      <trkpt lat="43.125300" lon="-4.695767">
        <ele>2544.0</ele>
        <time>2015-03-17T13:40:30Z</time>
      </trkpt>
      <trkpt lat="43.125333" lon="-4.695850">
        <ele>2548.0</ele>
        <time>2015-03-17T13:40:31Z</time>
      </trkpt>
      <trkpt lat="43.125367" lon="-4.695917">
        <ele>2553.0</ele>
        <time>2015-03-17T13:40:32Z</time>
      </trkpt>
      <trkpt lat="43.125400" lon="-4.695983">
        <ele>2557.0</ele>
        <time>2015-03-17T13:40:33Z</time>
      </trkpt>
      <trkpt lat="43.125433" lon="-4.696050">
        <ele>2561.0</ele>
        <time>2015-03-17T13:40:34Z</time>
      </trkpt>
      <trkpt lat="43.125467" lon="-4.696117">
        <ele>2564.0</ele>
        <time>2015-03-17T13:40:35Z</time>
      </trkpt>
      <trkpt lat="43.125483" lon="-4.696200">
        <ele>2566.0</ele>
        <time>2015-03-17T13:40:36Z</time>
      </trkpt>
      <trkpt lat="43.125500" lon="-4.696283">
        <ele>2570.0</ele>
        <time>2015-03-17T13:40:37Z</time>
      </trkpt>
      <trkpt lat="43.125500" lon="-4.696367">
        <ele>2573.0</ele>
        <time>2015-03-17T13:40:38Z</time>
      </trkpt>
      <trkpt lat="43.125500" lon="-4.696450">
        <ele>2576.0</ele>
        <time>2015-03-17T13:40:39Z</time>
      </trkpt>
      <trkpt lat="43.125483" lon="-4.696533">
        <ele>2579.0</ele>
        <time>2015-03-17T13:40:40Z</time>
      </trkpt>
      <trkpt lat="43.125483" lon="-4.696633">
        <ele>2581.0</ele>
        <time>2015-03-17T13:40:41Z</time>
      </trkpt>
      <trkpt lat="43.125450" lon="-4.696717">
        <ele>2584.0</ele>
        <time>2015-03-17T13:40:42Z</time>
      </trkpt>
      <trkpt lat="43.125433" lon="-4.696800">
        <ele>2586.0</ele>
        <time>2015-03-17T13:40:43Z</time>
      </trkpt>
      <trkpt lat="43.125383" lon="-4.696900">
        <ele>2588.0</ele>
        <time>2015-03-17T13:40:44Z</time>
      </trkpt>
      <trkpt lat="43.125367" lon="-4.696983">
        <ele>2591.0</ele>
        <time>2015-03-17T13:40:45Z</time>
      </trkpt>
      <trkpt lat="43.125333" lon="-4.697050">
        <ele>2594.0</ele>
        <time>2015-03-17T13:40:46Z</time>
      </trkpt>
      <trkpt lat="43.125317" lon="-4.697133">
        <ele>2596.0</ele>
        <time>2015-03-17T13:40:47Z</time>
      </trkpt>
      <trkpt lat="43.125300" lon="-4.697183">
        <ele>2596.0</ele>
        <time>2015-03-17T13:40:48Z</time>
      </trkpt>
      <trkpt lat="43.125283" lon="-4.697217">
        <ele>2597.0</ele>
        <time>2015-03-17T13:40:49Z</time>
      </trkpt>
      <trkpt lat="43.125250" lon="-4.697250">
        <ele>2597.0</ele>
        <time>2015-03-17T13:40:50Z</time>
      </trkpt>
      <trkpt lat="43.125217" lon="-4.697283">
        <ele>2598.0</ele>
        <time>2015-03-17T13:40:51Z</time>
      </trkpt>
      <trkpt lat="43.125183" lon="-4.697300">
        <ele>2598.0</ele>
        <time>2015-03-17T13:40:52Z</time>
      </trkpt>
      <trkpt lat="43.125133" lon="-4.697283">
        <ele>2599.0</ele>
        <time>2015-03-17T13:40:53Z</time>
      </trkpt>
      <trkpt lat="43.125100" lon="-4.697217">
        <ele>2598.0</ele>
        <time>2015-03-17T13:40:54Z</time>
      </trkpt>
      <trkpt lat="43.125067" lon="-4.697133">
        <ele>2598.0</ele>
        <time>2015-03-17T13:40:55Z</time>
      </trkpt>
      <trkpt lat="43.125033" lon="-4.697033">
        <ele>2598.0</ele>
        <time>2015-03-17T13:40:56Z</time>
      </trkpt>
      <trkpt lat="43.125000" lon="-4.696950">
        <ele>2600.0</ele>
        <time>2015-03-17T13:40:57Z</time>
      </trkpt>
      <trkpt lat="43.124983" lon="-4.696867">
        <ele>2601.0</ele>
        <time>2015-03-17T13:40:58Z</time>
      </trkpt>
      <trkpt lat="43.124967" lon="-4.696767">
        <ele>2601.0</ele>
        <time>2015-03-17T13:40:59Z</time>
      </trkpt>
      <trkpt lat="43.124950" lon="-4.696650">
        <ele>2601.0</ele>
        <time>2015-03-17T13:41:00Z</time>
      </trkpt>
      <trkpt lat="43.124950" lon="-4.696500">
        <ele>2602.0</ele>
        <time>2015-03-17T13:41:01Z</time>
      </trkpt>
      <trkpt lat="43.124950" lon="-4.696350">
        <ele>2604.0</ele>
        <time>2015-03-17T13:41:02Z</time>
      </trkpt>
      <trkpt lat="43.124967" lon="-4.696217">
        <ele>2607.0</ele>
        <time>2015-03-17T13:41:03Z</time>
      </trkpt>
      <trkpt lat="43.125000" lon="-4.696083">
        <ele>2609.0</ele>
        <time>2015-03-17T13:41:04Z</time>
      </trkpt>
      <trkpt lat="43.125050" lon="-4.695933">
        <ele>2610.0</ele>
        <time>2015-03-17T13:41:05Z</time>
      </trkpt>
      <trkpt lat="43.125117" lon="-4.695783">
        <ele>2611.0</ele>
        <time>2015-03-17T13:41:06Z</time>
      </trkpt>
      <trkpt lat="43.125217" lon="-4.695650">
        <ele>2613.0</ele>
        <time>2015-03-17T13:41:07Z</time>
      </trkpt>
      <trkpt lat="43.125317" lon="-4.695567">
        <ele>2616.0</ele>
        <time>2015-03-17T13:41:08Z</time>
      </trkpt>
      <trkpt lat="43.125433" lon="-4.695550">
        <ele>2617.0</ele>
        <time>2015-03-17T13:41:09Z</time>
      </trkpt>
      <trkpt lat="43.125517" lon="-4.695600">
        <ele>2619.0</ele>
        <time>2015-03-17T13:41:10Z</time>
      </trkpt>
      <trkpt lat="43.125583" lon="-4.695700">
        <ele>2620.0</ele>
        <time>2015-03-17T13:41:11Z</time>
      </trkpt>
      <trkpt lat="43.125600" lon="-4.695783">
        <ele>2622.0</ele>
        <time>2015-03-17T13:41:12Z</time>
      </trkpt>
      <trkpt lat="43.125600" lon="-4.695850">
        <ele>2623.0</ele>
        <time>2015-03-17T13:41:13Z</time>
      </trkpt>
      <trkpt lat="43.125600" lon="-4.695917">
        <ele>2624.0</ele>
        <time>2015-03-17T13:41:14Z</time>
      </trkpt>
      <trkpt lat="43.125583" lon="-4.695967">
        <ele>2625.0</ele>
        <time>2015-03-17T13:41:15Z</time>
      </trkpt>
      <trkpt lat="43.125567" lon="-4.696033">
        <ele>2625.0</ele>
        <time>2015-03-17T13:41:16Z</time>
      </trkpt>
      <trkpt lat="43.125533" lon="-4.696100">
        <ele>2626.0</ele>
        <time>2015-03-17T13:41:17Z</time>
      </trkpt>
      <trkpt lat="43.125517" lon="-4.696167">
        <ele>2626.0</ele>
        <time>2015-03-17T13:41:18Z</time>
      </trkpt>
      <trkpt lat="43.125500" lon="-4.696250">
        <ele>2627.0</ele>
        <time>2015-03-17T13:41:19Z</time>
      </trkpt>
      <trkpt lat="43.125500" lon="-4.696300">
        <ele>2627.0</ele>
        <time>2015-03-17T13:41:20Z</time>
      </trkpt>
      <trkpt lat="43.125483" lon="-4.696367">
        <ele>2629.0</ele>
        <time>2015-03-17T13:41:21Z</time>
      </trkpt>
      <trkpt lat="43.125467" lon="-4.696417">
        <ele>2630.0</ele>
        <time>2015-03-17T13:41:22Z</time>
      </trkpt>
      <trkpt lat="43.125450" lon="-4.696483">
        <ele>2632.0</ele>
        <time>2015-03-17T13:41:23Z</time>
      </trkpt>
      <trkpt lat="43.125417" lon="-4.696550">
        <ele>2633.0</ele>
        <time>2015-03-17T13:41:24Z</time>
      </trkpt>
      <trkpt lat="43.125367" lon="-4.696600">
        <ele>2635.0</ele>
        <time>2015-03-17T13:41:25Z</time>
      </trkpt>
      <trkpt lat="43.125317" lon="-4.696633">
        <ele>2639.0</ele>
        <time>2015-03-17T13:41:26Z</time>
      </trkpt>
      <trkpt lat="43.125267" lon="-4.696650">
        <ele>2642.0</ele>
        <time>2015-03-17T13:41:27Z</time>
      </trkpt>
      <trkpt lat="43.125233" lon="-4.696667">
        <ele>2644.0</ele>
        <time>2015-03-17T13:41:28Z</time>
      </trkpt>
      <trkpt lat="43.125183" lon="-4.696700">
        <ele>2646.0</ele>
        <time>2015-03-17T13:41:29Z</time>
      </trkpt>
      <trkpt lat="43.125150" lon="-4.696750">
        <ele>2648.0</ele>
        <time>2015-03-17T13:41:30Z</time>
      </trkpt>
      <trkpt lat="43.125117" lon="-4.696800">
        <ele>2650.0</ele>
        <time>2015-03-17T13:41:31Z</time>
      </trkpt>
      <trkpt lat="43.125067" lon="-4.696833">
        <ele>2652.0</ele>
        <time>2015-03-17T13:41:32Z</time>
      </trkpt>
      <trkpt lat="43.125017" lon="-4.696867">
        <ele>2654.0</ele>
        <time>2015-03-17T13:41:33Z</time>
      </trkpt>
      <trkpt lat="43.124983" lon="-4.696900">
        <ele>2657.0</ele>
        <time>2015-03-17T13:41:34Z</time>
      </trkpt>
      <trkpt lat="43.124950" lon="-4.696917">
        <ele>2659.0</ele>
        <time>2015-03-17T13:41:35Z</time>
      </trkpt>
      <trkpt lat="43.124917" lon="-4.696950">
        <ele>2659.0</ele>
        <time>2015-03-17T13:41:36Z</time>
      </trkpt>
      <trkpt lat="43.124867" lon="-4.697000">
        <ele>2660.0</ele>
        <time>2015-03-17T13:41:37Z</time>
      </trkpt>
      <trkpt lat="43.124817" lon="-4.697067">
        <ele>2661.0</ele>
        <time>2015-03-17T13:41:38Z</time>
      </trkpt>
      <trkpt lat="43.124767" lon="-4.697117">
        <ele>2663.0</ele>
        <time>2015-03-17T13:41:39Z</time>
      </trkpt>
      <trkpt lat="43.124700" lon="-4.697167">
        <ele>2667.0</ele>
        <time>2015-03-17T13:41:40Z</time>
      </trkpt>
      <trkpt lat="43.124667" lon="-4.697183">
        <ele>2671.0</ele>
        <time>2015-03-17T13:41:41Z</time>
      </trkpt>
      <trkpt lat="43.124650" lon="-4.697233">
        <ele>2675.0</ele>
        <time>2015-03-17T13:41:42Z</time>
      </trkpt>
      <trkpt lat="43.124633" lon="-4.697300">
        <ele>2678.0</ele>
        <time>2015-03-17T13:41:43Z</time>
      </trkpt>
      <trkpt lat="43.124617" lon="-4.697367">
        <ele>2681.0</ele>
        <time>2015-03-17T13:41:44Z</time>
      </trkpt>
      <trkpt lat="43.124583" lon="-4.697450">
        <ele>2684.0</ele>
        <time>2015-03-17T13:41:45Z</time>
      </trkpt>
      <trkpt lat="43.124550" lon="-4.697533">
        <ele>2687.0</ele>
        <time>2015-03-17T13:41:46Z</time>
      </trkpt>
      <trkpt lat="43.124517" lon="-4.697583">
        <ele>2691.0</ele>
        <time>2015-03-17T13:41:47Z</time>
      </trkpt>
      <trkpt lat="43.124500" lon="-4.697617">
        <ele>2689.0</ele>
        <time>2015-03-17T13:41:48Z</time>
      </trkpt>
      <trkpt lat="43.124467" lon="-4.697667">
        <ele>2691.0</ele>
        <time>2015-03-17T13:41:49Z</time>
      </trkpt>
      <trkpt lat="43.124433" lon="-4.697717">
        <ele>2691.0</ele>
        <time>2015-03-17T13:41:50Z</time>
      </trkpt>
      <trkpt lat="43.124383" lon="-4.697783">
        <ele>2691.0</ele>
        <time>2015-03-17T13:41:51Z</time>
      </trkpt>
      <trkpt lat="43.124333" lon="-4.697867">
        <ele>2691.0</ele>
        <time>2015-03-17T13:41:52Z</time>
      </trkpt>
      <trkpt lat="43.124267" lon="-4.697917">
        <ele>2694.0</ele>
        <time>2015-03-17T13:41:53Z</time>
      </trkpt>
      <trkpt lat="43.124200" lon="-4.697950">
        <ele>2696.0</ele>
        <time>2015-03-17T13:41:54Z</time>
      </trkpt>
      <trkpt lat="43.124150" lon="-4.697983">
        <ele>2698.0</ele>
        <time>2015-03-17T13:41:55Z</time>
      </trkpt>
      <trkpt lat="43.124117" lon="-4.698033">
        <ele>2700.0</ele>
        <time>2015-03-17T13:41:56Z</time>
      </trkpt>
      <trkpt lat="43.124100" lon="-4.698083">
        <ele>2699.0</ele>
        <time>2015-03-17T13:41:57Z</time>
      </trkpt>
      <trkpt lat="43.124100" lon="-4.698150">
        <ele>2700.0</ele>
        <time>2015-03-17T13:41:58Z</time>
      </trkpt>
      <trkpt lat="43.124100" lon="-4.698183">
        <ele>2699.0</ele>
        <time>2015-03-17T13:41:59Z</time>
      </trkpt>
      <trkpt lat="43.124083" lon="-4.698217">
        <ele>2700.0</ele>
        <time>2015-03-17T13:42:00Z</time>
      </trkpt>
      <trkpt lat="43.124050" lon="-4.698267">
        <ele>2699.0</ele>
        <time>2015-03-17T13:42:01Z</time>
      </trkpt>
      <trkpt lat="43.124033" lon="-4.698317">
        <ele>2698.0</ele>
        <time>2015-03-17T13:42:02Z</time>
      </trkpt>
      <trkpt lat="43.124017" lon="-4.698400">
        <ele>2697.0</ele>
        <time>2015-03-17T13:42:03Z</time>
      </trkpt>
      <trkpt lat="43.123983" lon="-4.698467">
        <ele>2696.0</ele>
        <time>2015-03-17T13:42:04Z</time>
      </trkpt>
      <trkpt lat="43.123933" lon="-4.698533">
        <ele>2696.0</ele>
        <time>2015-03-17T13:42:05Z</time>
      </trkpt>
      <trkpt lat="43.123883" lon="-4.698600">
        <ele>2699.0</ele>
        <time>2015-03-17T13:42:06Z</time>
      </trkpt>
      <trkpt lat="43.123833" lon="-4.698650">
        <ele>2701.0</ele>
        <time>2015-03-17T13:42:07Z</time>
      </trkpt>
      <trkpt lat="43.123817" lon="-4.698700">
        <ele>2702.0</ele>
        <time>2015-03-17T13:42:08Z</time>
      </trkpt>
      <trkpt lat="43.123800" lon="-4.698750">
        <ele>2703.0</ele>
        <time>2015-03-17T13:42:09Z</time>
      </trkpt>
      <trkpt lat="43.123783" lon="-4.698800">
        <ele>2704.0</ele>
        <time>2015-03-17T13:42:10Z</time>
      </trkpt>
      <trkpt lat="43.123733" lon="-4.698850">
        <ele>2705.0</ele>
        <time>2015-03-17T13:42:11Z</time>
      </trkpt>
      <trkpt lat="43.123700" lon="-4.698883">
        <ele>2709.0</ele>
        <time>2015-03-17T13:42:12Z</time>
      </trkpt>
      <trkpt lat="43.123700" lon="-4.698917">
        <ele>2711.0</ele>
        <time>2015-03-17T13:42:13Z</time>
      </trkpt>
      <trkpt lat="43.123700" lon="-4.698950">
        <ele>2714.0</ele>
        <time>2015-03-17T13:42:14Z</time>
      </trkpt>
      <trkpt lat="43.123700" lon="-4.698983">
        <ele>2717.0</ele>
        <time>2015-03-17T13:42:15Z</time>
      </trkpt>
      <trkpt lat="43.123700" lon="-4.699033">
        <ele>2718.0</ele>
        <time>2015-03-17T13:42:16Z</time>
      </trkpt>
      <trkpt lat="43.123650" lon="-4.699067">
        <ele>2716.0</ele>
        <time>2015-03-17T13:42:17Z</time>
      </trkpt>
      <trkpt lat="43.123583" lon="-4.699067">
        <ele>2716.0</ele>
        <time>2015-03-17T13:42:18Z</time>
      </trkpt>
      <trkpt lat="43.123517" lon="-4.699067">
        <ele>2719.0</ele>
        <time>2015-03-17T13:42:19Z</time>
      </trkpt>
      <trkpt lat="43.123483" lon="-4.699100">
        <ele>2722.0</ele>
        <time>2015-03-17T13:42:20Z</time>
      </trkpt>
      <trkpt lat="43.123450" lon="-4.699150">
        <ele>2724.0</ele>
        <time>2015-03-17T13:42:21Z</time>
      </trkpt>
      <trkpt lat="43.123417" lon="-4.699217">
        <ele>2726.0</ele>
        <time>2015-03-17T13:42:22Z</time>
      </trkpt>
      <trkpt lat="43.123400" lon="-4.699300">
        <ele>2729.0</ele>
        <time>2015-03-17T13:42:23Z</time>
      </trkpt>
      <trkpt lat="43.123367" lon="-4.699367">
        <ele>2732.0</ele>
        <time>2015-03-17T13:42:24Z</time>
      </trkpt>
      <trkpt lat="43.123317" lon="-4.699433">
        <ele>2734.0</ele>
        <time>2015-03-17T13:42:25Z</time>
      </trkpt>
      <trkpt lat="43.123283" lon="-4.699500">
        <ele>2737.0</ele>
        <time>2015-03-17T13:42:26Z</time>
      </trkpt>
      <trkpt lat="43.123250" lon="-4.699567">
        <ele>2740.0</ele>
        <time>2015-03-17T13:42:27Z</time>
      </trkpt>
      <trkpt lat="43.123233" lon="-4.699633">
        <ele>2743.0</ele>
        <time>2015-03-17T13:42:28Z</time>
      </trkpt>
      <trkpt lat="43.123217" lon="-4.699683">
        <ele>2742.0</ele>
        <time>2015-03-17T13:42:29Z</time>
      </trkpt>
      <trkpt lat="43.123200" lon="-4.699767">
        <ele>2744.0</ele>
        <time>2015-03-17T13:42:30Z</time>
      </trkpt>
      <trkpt lat="43.123183" lon="-4.699867">
        <ele>2747.0</ele>
        <time>2015-03-17T13:42:31Z</time>
      </trkpt>
      <trkpt lat="43.123167" lon="-4.699983">
        <ele>2748.0</ele>
        <time>2015-03-17T13:42:32Z</time>
      </trkpt>
      <trkpt lat="43.123133" lon="-4.700083">
        <ele>2750.0</ele>
        <time>2015-03-17T13:42:33Z</time>
      </trkpt>
      <trkpt lat="43.123083" lon="-4.700183">
        <ele>2751.0</ele>
        <time>2015-03-17T13:42:34Z</time>
      </trkpt>
      <trkpt lat="43.123050" lon="-4.700267">
        <ele>2752.0</ele>
        <time>2015-03-17T13:42:35Z</time>
      </trkpt>
      <trkpt lat="43.123017" lon="-4.700333">
        <ele>2754.0</ele>
        <time>2015-03-17T13:42:36Z</time>
      </trkpt>
      <trkpt lat="43.122983" lon="-4.700417">
        <ele>2755.0</ele>
        <time>2015-03-17T13:42:37Z</time>
      </trkpt>
      <trkpt lat="43.122950" lon="-4.700517">
        <ele>2756.0</ele>
        <time>2015-03-17T13:42:38Z</time>
      </trkpt>
      <trkpt lat="43.122917" lon="-4.700600">
        <ele>2756.0</ele>
        <time>2015-03-17T13:42:39Z</time>
      </trkpt>
      <trkpt lat="43.122867" lon="-4.700700">
        <ele>2756.0</ele>
        <time>2015-03-17T13:42:40Z</time>
      </trkpt>
      <trkpt lat="43.122817" lon="-4.700817">
        <ele>2757.0</ele>
        <time>2015-03-17T13:42:41Z</time>
      </trkpt>
      <trkpt lat="43.122767" lon="-4.700917">
        <ele>2758.0</ele>
        <time>2015-03-17T13:42:42Z</time>
      </trkpt>
      <trkpt lat="43.122733" lon="-4.701017">
        <ele>2759.0</ele>
        <time>2015-03-17T13:42:43Z</time>
      </trkpt>
      <trkpt lat="43.122717" lon="-4.701083">
        <ele>2758.0</ele>
        <time>2015-03-17T13:42:44Z</time>
      </trkpt>
      <trkpt lat="43.122700" lon="-4.701150">
        <ele>2758.0</ele>
        <time>2015-03-17T13:42:45Z</time>
      </trkpt>
      <trkpt lat="43.122683" lon="-4.701233">
        <ele>2758.0</ele>
        <time>2015-03-17T13:42:46Z</time>
      </trkpt>
      <trkpt lat="43.122667" lon="-4.701333">
        <ele>2758.0</ele>
        <time>2015-03-17T13:42:47Z</time>
      </trkpt>
      <trkpt lat="43.122650" lon="-4.701417">
        <ele>2758.0</ele>
        <time>2015-03-17T13:42:48Z</time>
      </trkpt>
      <trkpt lat="43.122633" lon="-4.701500">
        <ele>2758.0</ele>
        <time>2015-03-17T13:42:49Z</time>
      </trkpt>
      <trkpt lat="43.122617" lon="-4.701583">
        <ele>2758.0</ele>
        <time>2015-03-17T13:42:50Z</time>
      </trkpt>
      <trkpt lat="43.122617" lon="-4.701683">
        <ele>2757.0</ele>
        <time>2015-03-17T13:42:51Z</time>
      </trkpt>
      <trkpt lat="43.122600" lon="-4.701783">
        <ele>2756.0</ele>
        <time>2015-03-17T13:42:52Z</time>
      </trkpt>
      <trkpt lat="43.122600" lon="-4.701883">
        <ele>2755.0</ele>
        <time>2015-03-17T13:42:53Z</time>
      </trkpt>
      <trkpt lat="43.122583" lon="-4.702000">
        <ele>2753.0</ele>
        <time>2015-03-17T13:42:54Z</time>
      </trkpt>
      <trkpt lat="43.122550" lon="-4.702117">
        <ele>2751.0</ele>
        <time>2015-03-17T13:42:55Z</time>
      </trkpt>
      <trkpt lat="43.122500" lon="-4.702250">
        <ele>2750.0</ele>
        <time>2015-03-17T13:42:56Z</time>
      </trkpt>
      <trkpt lat="43.122450" lon="-4.702383">
        <ele>2750.0</ele>
        <time>2015-03-17T13:42:57Z</time>
      </trkpt>
      <trkpt lat="43.122383" lon="-4.702483">
        <ele>2750.0</ele>
        <time>2015-03-17T13:42:58Z</time>
      </trkpt>
      <trkpt lat="43.122333" lon="-4.702600">
        <ele>2752.0</ele>
        <time>2015-03-17T13:42:59Z</time>
      </trkpt>
      <trkpt lat="43.122300" lon="-4.702700">
        <ele>2752.0</ele>
        <time>2015-03-17T13:43:00Z</time>
      </trkpt>
      <trkpt lat="43.122267" lon="-4.702817">
        <ele>2752.0</ele>
        <time>2015-03-17T13:43:01Z</time>
      </trkpt>
      <trkpt lat="43.122217" lon="-4.702917">
        <ele>2753.0</ele>
        <time>2015-03-17T13:43:02Z</time>
      </trkpt>
      <trkpt lat="43.122183" lon="-4.703050">
        <ele>2753.0</ele>
        <time>2015-03-17T13:43:03Z</time>
      </trkpt>
      <trkpt lat="43.122150" lon="-4.703183">
        <ele>2755.0</ele>
        <time>2015-03-17T13:43:04Z</time>
      </trkpt>
      <trkpt lat="43.122133" lon="-4.703300">
        <ele>2758.0</ele>
        <time>2015-03-17T13:43:05Z</time>
      </trkpt>
      <trkpt lat="43.122133" lon="-4.703417">
        <ele>2761.0</ele>
        <time>2015-03-17T13:43:06Z</time>
      </trkpt>
      <trkpt lat="43.122100" lon="-4.703533">
        <ele>2765.0</ele>
        <time>2015-03-17T13:43:07Z</time>
      </trkpt>
      <trkpt lat="43.122067" lon="-4.703633">
        <ele>2768.0</ele>
        <time>2015-03-17T13:43:08Z</time>
      </trkpt>
      <trkpt lat="43.122017" lon="-4.703750">
        <ele>2771.0</ele>
        <time>2015-03-17T13:43:09Z</time>
      </trkpt>
      <trkpt lat="43.121967" lon="-4.703867">
        <ele>2774.0</ele>
        <time>2015-03-17T13:43:10Z</time>
      </trkpt>
      <trkpt lat="43.121917" lon="-4.703967">
        <ele>2779.0</ele>
        <time>2015-03-17T13:43:11Z</time>
      </trkpt>
      <trkpt lat="43.121883" lon="-4.704017">
        <ele>2783.0</ele>
        <time>2015-03-17T13:43:12Z</time>
      </trkpt>
      <trkpt lat="43.121883" lon="-4.704100">
        <ele>2780.0</ele>
        <time>2015-03-17T13:43:13Z</time>
      </trkpt>
      <trkpt lat="43.121883" lon="-4.704200">
        <ele>2782.0</ele>
        <time>2015-03-17T13:43:14Z</time>
      </trkpt>
      <trkpt lat="43.121867" lon="-4.704283">
        <ele>2784.0</ele>
        <time>2015-03-17T13:43:15Z</time>
      </trkpt>
      <trkpt lat="43.121850" lon="-4.704383">
        <ele>2787.0</ele>
        <time>2015-03-17T13:43:16Z</time>
      </trkpt>
      <trkpt lat="43.121833" lon="-4.704483">
        <ele>2789.0</ele>
        <time>2015-03-17T13:43:17Z</time>
      </trkpt>
      <trkpt lat="43.121783" lon="-4.704600">
        <ele>2790.0</ele>
        <time>2015-03-17T13:43:18Z</time>
      </trkpt>
      <trkpt lat="43.121733" lon="-4.704717">
        <ele>2793.0</ele>
        <time>2015-03-17T13:43:19Z</time>
      </trkpt>
      <trkpt lat="43.121683" lon="-4.704833">
        <ele>2795.0</ele>
        <time>2015-03-17T13:43:20Z</time>
      </trkpt>
      <trkpt lat="43.121650" lon="-4.704950">
        <ele>2798.0</ele>
        <time>2015-03-17T13:43:21Z</time>
      </trkpt>
      <trkpt lat="43.121633" lon="-4.705083">
        <ele>2800.0</ele>
        <time>2015-03-17T13:43:22Z</time>
      </trkpt>
      <trkpt lat="43.121600" lon="-4.705200">
        <ele>2803.0</ele>
        <time>2015-03-17T13:43:23Z</time>
      </trkpt>
      <trkpt lat="43.121567" lon="-4.705317">
        <ele>2805.0</ele>
        <time>2015-03-17T13:43:24Z</time>
      </trkpt>
      <trkpt lat="43.121533" lon="-4.705417">
        <ele>2807.0</ele>
        <time>2015-03-17T13:43:25Z</time>
      </trkpt>
      <trkpt lat="43.121500" lon="-4.705533">
        <ele>2810.0</ele>
        <time>2015-03-17T13:43:26Z</time>
      </trkpt>
      <trkpt lat="43.121467" lon="-4.705633">
        <ele>2812.0</ele>
        <time>2015-03-17T13:43:27Z</time>
      </trkpt>
      <trkpt lat="43.121433" lon="-4.705733">
        <ele>2814.0</ele>
        <time>2015-03-17T13:43:28Z</time>
      </trkpt>
      <trkpt lat="43.121433" lon="-4.705817">
        <ele>2817.0</ele>
        <time>2015-03-17T13:43:29Z</time>
      </trkpt>
      <trkpt lat="43.121433" lon="-4.705900">
        <ele>2820.0</ele>
        <time>2015-03-17T13:43:30Z</time>
      </trkpt>
      <trkpt lat="43.121417" lon="-4.705983">
        <ele>2822.0</ele>
        <time>2015-03-17T13:43:31Z</time>
      </trkpt>
      <trkpt lat="43.121417" lon="-4.706067">
        <ele>2824.0</ele>
        <time>2015-03-17T13:43:32Z</time>
      </trkpt>
      <trkpt lat="43.121400" lon="-4.706150">
        <ele>2825.0</ele>
        <time>2015-03-17T13:43:33Z</time>
      </trkpt>
      <trkpt lat="43.121383" lon="-4.706250">
        <ele>2827.0</ele>
        <time>2015-03-17T13:43:34Z</time>
      </trkpt>
      <trkpt lat="43.121383" lon="-4.706333">
        <ele>2826.0</ele>
        <time>2015-03-17T13:43:35Z</time>
      </trkpt>
      <trkpt lat="43.121367" lon="-4.706417">
        <ele>2826.0</ele>
        <time>2015-03-17T13:43:36Z</time>
      </trkpt>
      <trkpt lat="43.121367" lon="-4.706500">
        <ele>2827.0</ele>
        <time>2015-03-17T13:43:37Z</time>
      </trkpt>
      <trkpt lat="43.121350" lon="-4.706567">
        <ele>2828.0</ele>
        <time>2015-03-17T13:43:38Z</time>
      </trkpt>
      <trkpt lat="43.121350" lon="-4.706650">
        <ele>2828.0</ele>
        <time>2015-03-17T13:43:39Z</time>
      </trkpt>
      <trkpt lat="43.121350" lon="-4.706733">
        <ele>2829.0</ele>
        <time>2015-03-17T13:43:40Z</time>
      </trkpt>
      <trkpt lat="43.121333" lon="-4.706833">
        <ele>2831.0</ele>
        <time>2015-03-17T13:43:41Z</time>
      </trkpt>
      <trkpt lat="43.121317" lon="-4.706933">
        <ele>2832.0</ele>
        <time>2015-03-17T13:43:42Z</time>
      </trkpt>
      <trkpt lat="43.121300" lon="-4.707033">
        <ele>2834.0</ele>
        <time>2015-03-17T13:43:43Z</time>
      </trkpt>
      <trkpt lat="43.121267" lon="-4.707133">
        <ele>2835.0</ele>
        <time>2015-03-17T13:43:44Z</time>
      </trkpt>
      <trkpt lat="43.121233" lon="-4.707233">
        <ele>2837.0</ele>
        <time>2015-03-17T13:43:45Z</time>
      </trkpt>
      <trkpt lat="43.121200" lon="-4.707333">
        <ele>2839.0</ele>
        <time>2015-03-17T13:43:46Z</time>
      </trkpt>
      <trkpt lat="43.121183" lon="-4.707417">
        <ele>2841.0</ele>
        <time>2015-03-17T13:43:47Z</time>
      </trkpt>
      <trkpt lat="43.121167" lon="-4.707500">
        <ele>2842.0</ele>
        <time>2015-03-17T13:43:48Z</time>
      </trkpt>
      <trkpt lat="43.121150" lon="-4.707583">
        <ele>2840.0</ele>
        <time>2015-03-17T13:43:49Z</time>
      </trkpt>
      <trkpt lat="43.121150" lon="-4.707667">
        <ele>2840.0</ele>
        <time>2015-03-17T13:43:50Z</time>
      </trkpt>
      <trkpt lat="43.121133" lon="-4.707767">
        <ele>2841.0</ele>
        <time>2015-03-17T13:43:51Z</time>
      </trkpt>
      <trkpt lat="43.121133" lon="-4.707850">
        <ele>2841.0</ele>
        <time>2015-03-17T13:43:52Z</time>
      </trkpt>
      <trkpt lat="43.121117" lon="-4.707950">
        <ele>2841.0</ele>
        <time>2015-03-17T13:43:53Z</time>
      </trkpt>
      <trkpt lat="43.121100" lon="-4.708067">
        <ele>2842.0</ele>
        <time>2015-03-17T13:43:54Z</time>
      </trkpt>
      <trkpt lat="43.121067" lon="-4.708150">
        <ele>2842.0</ele>
        <time>2015-03-17T13:43:55Z</time>
      </trkpt>
      <trkpt lat="43.121033" lon="-4.708250">
        <ele>2843.0</ele>
        <time>2015-03-17T13:43:56Z</time>
      </trkpt>
      <trkpt lat="43.121000" lon="-4.708333">
        <ele>2844.0</ele>
        <time>2015-03-17T13:43:57Z</time>
      </trkpt>
      <trkpt lat="43.120983" lon="-4.708450">
        <ele>2845.0</ele>
        <time>2015-03-17T13:43:58Z</time>
      </trkpt>
      <trkpt lat="43.120950" lon="-4.708550">
        <ele>2845.0</ele>
        <time>2015-03-17T13:43:59Z</time>
      </trkpt>
      <trkpt lat="43.120917" lon="-4.708667">
        <ele>2847.0</ele>
        <time>2015-03-17T13:44:00Z</time>
      </trkpt>
      <trkpt lat="43.120883" lon="-4.708750">
        <ele>2850.0</ele>
        <time>2015-03-17T13:44:01Z</time>
      </trkpt>
      <trkpt lat="43.120850" lon="-4.708817">
        <ele>2851.0</ele>
        <time>2015-03-17T13:44:02Z</time>
      </trkpt>
      <trkpt lat="43.120833" lon="-4.708883">
        <ele>2852.0</ele>
        <time>2015-03-17T13:44:03Z</time>
      </trkpt>
      <trkpt lat="43.120800" lon="-4.708967">
        <ele>2853.0</ele>
        <time>2015-03-17T13:44:04Z</time>
      </trkpt>
      <trkpt lat="43.120767" lon="-4.709050">
        <ele>2853.0</ele>
        <time>2015-03-17T13:44:05Z</time>
      </trkpt>
      <trkpt lat="43.120717" lon="-4.709133">
        <ele>2852.0</ele>
        <time>2015-03-17T13:44:06Z</time>
      </trkpt>
      <trkpt lat="43.120667" lon="-4.709183">
        <ele>2853.0</ele>
        <time>2015-03-17T13:44:07Z</time>
      </trkpt>
      <trkpt lat="43.120633" lon="-4.709250">
        <ele>2854.0</ele>
        <time>2015-03-17T13:44:08Z</time>
      </trkpt>
      <trkpt lat="43.120600" lon="-4.709317">
        <ele>2854.0</ele>
        <time>2015-03-17T13:44:09Z</time>
      </trkpt>
      <trkpt lat="43.120567" lon="-4.709400">
        <ele>2854.0</ele>
        <time>2015-03-17T13:44:10Z</time>
      </trkpt>
      <trkpt lat="43.120550" lon="-4.709483">
        <ele>2852.0</ele>
        <time>2015-03-17T13:44:11Z</time>
      </trkpt>
      <trkpt lat="43.120500" lon="-4.709583">
        <ele>2851.0</ele>
        <time>2015-03-17T13:44:12Z</time>
      </trkpt>
      <trkpt lat="43.120467" lon="-4.709683">
        <ele>2851.0</ele>
        <time>2015-03-17T13:44:13Z</time>
      </trkpt>
      <trkpt lat="43.120433" lon="-4.709767">
        <ele>2852.0</ele>
        <time>2015-03-17T13:44:14Z</time>
      </trkpt>
      <trkpt lat="43.120433" lon="-4.709833">
        <ele>2852.0</ele>
        <time>2015-03-17T13:44:15Z</time>
      </trkpt>
      <trkpt lat="43.120433" lon="-4.709917">
        <ele>2852.0</ele>
        <time>2015-03-17T13:44:16Z</time>
      </trkpt>
      <trkpt lat="43.120433" lon="-4.710017">
        <ele>2852.0</ele>
        <time>2015-03-17T13:44:17Z</time>
      </trkpt>
      <trkpt lat="43.120433" lon="-4.710117">
        <ele>2852.0</ele>
        <time>2015-03-17T13:44:18Z</time>
      </trkpt>
      <trkpt lat="43.120433" lon="-4.710233">
        <ele>2851.0</ele>
        <time>2015-03-17T13:44:19Z</time>
      </trkpt>
      <trkpt lat="43.120433" lon="-4.710317">
        <ele>2847.0</ele>
        <time>2015-03-17T13:44:20Z</time>
      </trkpt>
      <trkpt lat="43.120400" lon="-4.710417">
        <ele>2844.0</ele>
        <time>2015-03-17T13:44:21Z</time>
      </trkpt>
      <trkpt lat="43.120383" lon="-4.710500">
        <ele>2842.0</ele>
        <time>2015-03-17T13:44:22Z</time>
      </trkpt>
      <trkpt lat="43.120350" lon="-4.710567">
        <ele>2840.0</ele>
        <time>2015-03-17T13:44:23Z</time>
      </trkpt>
      <trkpt lat="43.120350" lon="-4.710650">
        <ele>2838.0</ele>
        <time>2015-03-17T13:44:24Z</time>
      </trkpt>
      <trkpt lat="43.120333" lon="-4.710750">
        <ele>2839.0</ele>
        <time>2015-03-17T13:44:25Z</time>
      </trkpt>
      <trkpt lat="43.120333" lon="-4.710867">
        <ele>2839.0</ele>
        <time>2015-03-17T13:44:26Z</time>
      </trkpt>
      <trkpt lat="43.120317" lon="-4.710967">
        <ele>2838.0</ele>
        <time>2015-03-17T13:44:27Z</time>
      </trkpt>
      <trkpt lat="43.120317" lon="-4.711050">
        <ele>2837.0</ele>
        <time>2015-03-17T13:44:28Z</time>
      </trkpt>
      <trkpt lat="43.120317" lon="-4.711133">
        <ele>2835.0</ele>
        <time>2015-03-17T13:44:29Z</time>
      </trkpt>
      <trkpt lat="43.120317" lon="-4.711200">
        <ele>2833.0</ele>
        <time>2015-03-17T13:44:30Z</time>
      </trkpt>
      <trkpt lat="43.120300" lon="-4.711283">
        <ele>2831.0</ele>
        <time>2015-03-17T13:44:31Z</time>
      </trkpt>
      <trkpt lat="43.120300" lon="-4.711367">
        <ele>2827.0</ele>
        <time>2015-03-17T13:44:32Z</time>
      </trkpt>
      <trkpt lat="43.120267" lon="-4.711483">
        <ele>2824.0</ele>
        <time>2015-03-17T13:44:33Z</time>
      </trkpt>
      <trkpt lat="43.120233" lon="-4.711600">
        <ele>2821.0</ele>
        <time>2015-03-17T13:44:34Z</time>
      </trkpt>
      <trkpt lat="43.120200" lon="-4.711700">
        <ele>2819.0</ele>
        <time>2015-03-17T13:44:35Z</time>
      </trkpt>
      <trkpt lat="43.120183" lon="-4.711783">
        <ele>2818.0</ele>
        <time>2015-03-17T13:44:36Z</time>
      </trkpt>
      <trkpt lat="43.120167" lon="-4.711883">
        <ele>2815.0</ele>
        <time>2015-03-17T13:44:37Z</time>
      </trkpt>
      <trkpt lat="43.120150" lon="-4.711983">
        <ele>2813.0</ele>
        <time>2015-03-17T13:44:38Z</time>
      </trkpt>
      <trkpt lat="43.120117" lon="-4.712083">
        <ele>2810.0</ele>
        <time>2015-03-17T13:44:39Z</time>
      </trkpt>
      <trkpt lat="43.120100" lon="-4.712200">
        <ele>2808.0</ele>
        <time>2015-03-17T13:44:40Z</time>
      </trkpt>
      <trkpt lat="43.120067" lon="-4.712317">
        <ele>2805.0</ele>
        <time>2015-03-17T13:44:41Z</time>
      </trkpt>
      <trkpt lat="43.120050" lon="-4.712433">
        <ele>2804.0</ele>
        <time>2015-03-17T13:44:42Z</time>
      </trkpt>
      <trkpt lat="43.120033" lon="-4.712533">
        <ele>2804.0</ele>
        <time>2015-03-17T13:44:43Z</time>
      </trkpt>
      <trkpt lat="43.120000" lon="-4.712617">
        <ele>2803.0</ele>
        <time>2015-03-17T13:44:44Z</time>
      </trkpt>
      <trkpt lat="43.119983" lon="-4.712733">
        <ele>2801.0</ele>
        <time>2015-03-17T13:44:45Z</time>
      </trkpt>
      <trkpt lat="43.119983" lon="-4.712850">
        <ele>2800.0</ele>
        <time>2015-03-17T13:44:46Z</time>
      </trkpt>
      <trkpt lat="43.119967" lon="-4.712983">
        <ele>2798.0</ele>
        <time>2015-03-17T13:44:47Z</time>
      </trkpt>
      <trkpt lat="43.119950" lon="-4.713100">
        <ele>2796.0</ele>
        <time>2015-03-17T13:44:48Z</time>
      </trkpt>
      <trkpt lat="43.119917" lon="-4.713200">
        <ele>2794.0</ele>
        <time>2015-03-17T13:44:49Z</time>
      </trkpt>
      <trkpt lat="43.119883" lon="-4.713300">
        <ele>2793.0</ele>
        <time>2015-03-17T13:44:50Z</time>
      </trkpt>
      <trkpt lat="43.119850" lon="-4.713383">
        <ele>2792.0</ele>
        <time>2015-03-17T13:44:51Z</time>
      </trkpt>
      <trkpt lat="43.119833" lon="-4.713500">
        <ele>2791.0</ele>
        <time>2015-03-17T13:44:52Z</time>
      </trkpt>
      <trkpt lat="43.119817" lon="-4.713617">
        <ele>2790.0</ele>
        <time>2015-03-17T13:44:53Z</time>
      </trkpt>
      <trkpt lat="43.119800" lon="-4.713717">
        <ele>2789.0</ele>
        <time>2015-03-17T13:44:54Z</time>
      </trkpt>
      <trkpt lat="43.119750" lon="-4.713817">
        <ele>2789.0</ele>
        <time>2015-03-17T13:44:55Z</time>
      </trkpt>
      <trkpt lat="43.119717" lon="-4.713900">
        <ele>2790.0</ele>
        <time>2015-03-17T13:44:56Z</time>
      </trkpt>
      <trkpt lat="43.119683" lon="-4.713983">
        <ele>2791.0</ele>
        <time>2015-03-17T13:44:57Z</time>
      </trkpt>
      <trkpt lat="43.119667" lon="-4.714067">
        <ele>2791.0</ele>
        <time>2015-03-17T13:44:58Z</time>
      </trkpt>
      <trkpt lat="43.119683" lon="-4.714167">
        <ele>2791.0</ele>
        <time>2015-03-17T13:44:59Z</time>
      </trkpt>
      <trkpt lat="43.119667" lon="-4.714267">
        <ele>2790.0</ele>
        <time>2015-03-17T13:45:00Z</time>
      </trkpt>
      <trkpt lat="43.119650" lon="-4.714367">
        <ele>2789.0</ele>
        <time>2015-03-17T13:45:01Z</time>
      </trkpt>
      <trkpt lat="43.119600" lon="-4.714483">
        <ele>2789.0</ele>
        <time>2015-03-17T13:45:02Z</time>
      </trkpt>
      <trkpt lat="43.119567" lon="-4.714600">
        <ele>2788.0</ele>
        <time>2015-03-17T13:45:03Z</time>
      </trkpt>
      <trkpt lat="43.119550" lon="-4.714717">
        <ele>2788.0</ele>
        <time>2015-03-17T13:45:04Z</time>
      </trkpt>
      <trkpt lat="43.119533" lon="-4.714817">
        <ele>2788.0</ele>
        <time>2015-03-17T13:45:05Z</time>
      </trkpt>
      <trkpt lat="43.119500" lon="-4.714917">
        <ele>2788.0</ele>
        <time>2015-03-17T13:45:06Z</time>
      </trkpt>
      <trkpt lat="43.119467" lon="-4.715017">
        <ele>2787.0</ele>
        <time>2015-03-17T13:45:07Z</time>
      </trkpt>
      <trkpt lat="43.119433" lon="-4.715133">
        <ele>2787.0</ele>
        <time>2015-03-17T13:45:08Z</time>
      </trkpt>
      <trkpt lat="43.119400" lon="-4.715233">
        <ele>2787.0</ele>
        <time>2015-03-17T13:45:09Z</time>
      </trkpt>
      <trkpt lat="43.119383" lon="-4.715350">
        <ele>2787.0</ele>
        <time>2015-03-17T13:45:10Z</time>
      </trkpt>
      <trkpt lat="43.119350" lon="-4.715467">
        <ele>2788.0</ele>
        <time>2015-03-17T13:45:11Z</time>
      </trkpt>
      <trkpt lat="43.119300" lon="-4.715567">
        <ele>2788.0</ele>
        <time>2015-03-17T13:45:12Z</time>
      </trkpt>
      <trkpt lat="43.119267" lon="-4.715650">
        <ele>2788.0</ele>
        <time>2015-03-17T13:45:13Z</time>
      </trkpt>
      <trkpt lat="43.119217" lon="-4.715750">
        <ele>2789.0</ele>
        <time>2015-03-17T13:45:14Z</time>
      </trkpt>
      <trkpt lat="43.119183" lon="-4.715850">
        <ele>2789.0</ele>
        <time>2015-03-17T13:45:15Z</time>
      </trkpt>
      <trkpt lat="43.119167" lon="-4.715950">
        <ele>2789.0</ele>
        <time>2015-03-17T13:45:16Z</time>
      </trkpt>
      <trkpt lat="43.119117" lon="-4.716050">
        <ele>2790.0</ele>
        <time>2015-03-17T13:45:17Z</time>
      </trkpt>
      <trkpt lat="43.119083" lon="-4.716133">
        <ele>2789.0</ele>
        <time>2015-03-17T13:45:18Z</time>
      </trkpt>
      <trkpt lat="43.119050" lon="-4.716233">
        <ele>2790.0</ele>
        <time>2015-03-17T13:45:19Z</time>
      </trkpt>
      <trkpt lat="43.119017" lon="-4.716350">
        <ele>2789.0</ele>
        <time>2015-03-17T13:45:20Z</time>
      </trkpt>
      <trkpt lat="43.118983" lon="-4.716483">
        <ele>2788.0</ele>
        <time>2015-03-17T13:45:21Z</time>
      </trkpt>
      <trkpt lat="43.118950" lon="-4.716600">
        <ele>2788.0</ele>
        <time>2015-03-17T13:45:22Z</time>
      </trkpt>
      <trkpt lat="43.118933" lon="-4.716717">
        <ele>2786.0</ele>
        <time>2015-03-17T13:45:23Z</time>
      </trkpt>
      <trkpt lat="43.118933" lon="-4.716817">
        <ele>2785.0</ele>
        <time>2015-03-17T13:45:24Z</time>
      </trkpt>
      <trkpt lat="43.118933" lon="-4.716933">
        <ele>2784.0</ele>
        <time>2015-03-17T13:45:25Z</time>
      </trkpt>
      <trkpt lat="43.118933" lon="-4.717033">
        <ele>2784.0</ele>
        <time>2015-03-17T13:45:26Z</time>
      </trkpt>
      <trkpt lat="43.118917" lon="-4.717167">
        <ele>2782.0</ele>
        <time>2015-03-17T13:45:27Z</time>
      </trkpt>
      <trkpt lat="43.118900" lon="-4.717300">
        <ele>2781.0</ele>
        <time>2015-03-17T13:45:28Z</time>
      </trkpt>
      <trkpt lat="43.118883" lon="-4.717417">
        <ele>2780.0</ele>
        <time>2015-03-17T13:45:29Z</time>
      </trkpt>
      <trkpt lat="43.118867" lon="-4.717533">
        <ele>2779.0</ele>
        <time>2015-03-17T13:45:30Z</time>
      </trkpt>
      <trkpt lat="43.118867" lon="-4.717650">
        <ele>2779.0</ele>
        <time>2015-03-17T13:45:31Z</time>
      </trkpt>
      <trkpt lat="43.118867" lon="-4.717783">
        <ele>2778.0</ele>
        <time>2015-03-17T13:45:32Z</time>
      </trkpt>
      <trkpt lat="43.118867" lon="-4.717900">
        <ele>2777.0</ele>
        <time>2015-03-17T13:45:33Z</time>
      </trkpt>
      <trkpt lat="43.118867" lon="-4.718017">
        <ele>2777.0</ele>
        <time>2015-03-17T13:45:34Z</time>
      </trkpt>
      <trkpt lat="43.118867" lon="-4.718117">
        <ele>2777.0</ele>
        <time>2015-03-17T13:45:35Z</time>
      </trkpt>
      <trkpt lat="43.118850" lon="-4.718217">
        <ele>2777.0</ele>
        <time>2015-03-17T13:45:36Z</time>
      </trkpt>
      <trkpt lat="43.118850" lon="-4.718300">
        <ele>2777.0</ele>
        <time>2015-03-17T13:45:37Z</time>
      </trkpt>
      <trkpt lat="43.118833" lon="-4.718400">
        <ele>2776.0</ele>
        <time>2015-03-17T13:45:38Z</time>
      </trkpt>
      <trkpt lat="43.118817" lon="-4.718500">
        <ele>2775.0</ele>
        <time>2015-03-17T13:45:39Z</time>
      </trkpt>
      <trkpt lat="43.118783" lon="-4.718600">
        <ele>2775.0</ele>
        <time>2015-03-17T13:45:40Z</time>
      </trkpt>
      <trkpt lat="43.118767" lon="-4.718683">
        <ele>2775.0</ele>
        <time>2015-03-17T13:45:41Z</time>
      </trkpt>
      <trkpt lat="43.118733" lon="-4.718750">
        <ele>2775.0</ele>
        <time>2015-03-17T13:45:42Z</time>
      </trkpt>
      <trkpt lat="43.118700" lon="-4.718833">
        <ele>2775.0</ele>
        <time>2015-03-17T13:45:43Z</time>
      </trkpt>
      <trkpt lat="43.118683" lon="-4.718900">
        <ele>2776.0</ele>
        <time>2015-03-17T13:45:44Z</time>
      </trkpt>
      <trkpt lat="43.118650" lon="-4.718967">
        <ele>2777.0</ele>
        <time>2015-03-17T13:45:45Z</time>
      </trkpt>
      <trkpt lat="43.118633" lon="-4.719050">
        <ele>2777.0</ele>
        <time>2015-03-17T13:45:46Z</time>
      </trkpt>
      <trkpt lat="43.118617" lon="-4.719150">
        <ele>2777.0</ele>
        <time>2015-03-17T13:45:47Z</time>
      </trkpt>
      <trkpt lat="43.118600" lon="-4.719233">
        <ele>2778.0</ele>
        <time>2015-03-17T13:45:48Z</time>
      </trkpt>
      <trkpt lat="43.118583" lon="-4.719333">
        <ele>2778.0</ele>
        <time>2015-03-17T13:45:49Z</time>
      </trkpt>
      <trkpt lat="43.118550" lon="-4.719450">
        <ele>2778.0</ele>
        <time>2015-03-17T13:45:50Z</time>
      </trkpt>
      <trkpt lat="43.118517" lon="-4.719567">
        <ele>2779.0</ele>
        <time>2015-03-17T13:45:51Z</time>
      </trkpt>
      <trkpt lat="43.118500" lon="-4.719650">
        <ele>2782.0</ele>
        <time>2015-03-17T13:45:52Z</time>
      </trkpt>
      <trkpt lat="43.118483" lon="-4.719733">
        <ele>2784.0</ele>
        <time>2015-03-17T13:45:53Z</time>
      </trkpt>
      <trkpt lat="43.118467" lon="-4.719817">
        <ele>2787.0</ele>
        <time>2015-03-17T13:45:54Z</time>
      </trkpt>
      <trkpt lat="43.118450" lon="-4.719867">
        <ele>2788.0</ele>
        <time>2015-03-17T13:45:55Z</time>
      </trkpt>
      <trkpt lat="43.118450" lon="-4.719933">
        <ele>2789.0</ele>
        <time>2015-03-17T13:45:56Z</time>
      </trkpt>
      <trkpt lat="43.118433" lon="-4.720000">
        <ele>2788.0</ele>
        <time>2015-03-17T13:45:57Z</time>
      </trkpt>
      <trkpt lat="43.118417" lon="-4.720083">
        <ele>2788.0</ele>
        <time>2015-03-17T13:45:58Z</time>
      </trkpt>
      <trkpt lat="43.118400" lon="-4.720183">
        <ele>2787.0</ele>
        <time>2015-03-17T13:45:59Z</time>
      </trkpt>
      <trkpt lat="43.118367" lon="-4.720300">
        <ele>2787.0</ele>
        <time>2015-03-17T13:46:00Z</time>
      </trkpt>
      <trkpt lat="43.118333" lon="-4.720417">
        <ele>2787.0</ele>
        <time>2015-03-17T13:46:01Z</time>
      </trkpt>
      <trkpt lat="43.118300" lon="-4.720533">
        <ele>2789.0</ele>
        <time>2015-03-17T13:46:02Z</time>
      </trkpt>
      <trkpt lat="43.118267" lon="-4.720617">
        <ele>2791.0</ele>
        <time>2015-03-17T13:46:03Z</time>
      </trkpt>
      <trkpt lat="43.118250" lon="-4.720717">
        <ele>2792.0</ele>
        <time>2015-03-17T13:46:04Z</time>
      </trkpt>
      <trkpt lat="43.118250" lon="-4.720800">
        <ele>2793.0</ele>
        <time>2015-03-17T13:46:05Z</time>
      </trkpt>
      <trkpt lat="43.118217" lon="-4.720900">
        <ele>2793.0</ele>
        <time>2015-03-17T13:46:06Z</time>
      </trkpt>
      <trkpt lat="43.118200" lon="-4.721000">
        <ele>2792.0</ele>
        <time>2015-03-17T13:46:07Z</time>
      </trkpt>
      <trkpt lat="43.118167" lon="-4.721117">
        <ele>2792.0</ele>
        <time>2015-03-17T13:46:08Z</time>
      </trkpt>
      <trkpt lat="43.118133" lon="-4.721233">
        <ele>2792.0</ele>
        <time>2015-03-17T13:46:09Z</time>
      </trkpt>
      <trkpt lat="43.118100" lon="-4.721350">
        <ele>2792.0</ele>
        <time>2015-03-17T13:46:10Z</time>
      </trkpt>
      <trkpt lat="43.118083" lon="-4.721467">
        <ele>2792.0</ele>
        <time>2015-03-17T13:46:11Z</time>
      </trkpt>
      <trkpt lat="43.118067" lon="-4.721567">
        <ele>2792.0</ele>
        <time>2015-03-17T13:46:12Z</time>
      </trkpt>
      <trkpt lat="43.118033" lon="-4.721683">
        <ele>2792.0</ele>
        <time>2015-03-17T13:46:13Z</time>
      </trkpt>
      <trkpt lat="43.118017" lon="-4.721817">
        <ele>2791.0</ele>
        <time>2015-03-17T13:46:14Z</time>
      </trkpt>
      <trkpt lat="43.118000" lon="-4.721950">
        <ele>2791.0</ele>
        <time>2015-03-17T13:46:15Z</time>
      </trkpt>
      <trkpt lat="43.117983" lon="-4.722083">
        <ele>2792.0</ele>
        <time>2015-03-17T13:46:16Z</time>
      </trkpt>
      <trkpt lat="43.117950" lon="-4.722200">
        <ele>2793.0</ele>
        <time>2015-03-17T13:46:17Z</time>
      </trkpt>
      <trkpt lat="43.117917" lon="-4.722300">
        <ele>2794.0</ele>
        <time>2015-03-17T13:46:18Z</time>
      </trkpt>
      <trkpt lat="43.117900" lon="-4.722383">
        <ele>2796.0</ele>
        <time>2015-03-17T13:46:19Z</time>
      </trkpt>
      <trkpt lat="43.117883" lon="-4.722483">
        <ele>2797.0</ele>
        <time>2015-03-17T13:46:20Z</time>
      </trkpt>
      <trkpt lat="43.117867" lon="-4.722567">
        <ele>2798.0</ele>
        <time>2015-03-17T13:46:21Z</time>
      </trkpt>
      <trkpt lat="43.117833" lon="-4.722667">
        <ele>2799.0</ele>
        <time>2015-03-17T13:46:22Z</time>
      </trkpt>
      <trkpt lat="43.117817" lon="-4.722767">
        <ele>2800.0</ele>
        <time>2015-03-17T13:46:23Z</time>
      </trkpt>
      <trkpt lat="43.117783" lon="-4.722850">
        <ele>2802.0</ele>
        <time>2015-03-17T13:46:24Z</time>
      </trkpt>
      <trkpt lat="43.117767" lon="-4.722950">
        <ele>2803.0</ele>
        <time>2015-03-17T13:46:25Z</time>
      </trkpt>
      <trkpt lat="43.117750" lon="-4.723033">
        <ele>2804.0</ele>
        <time>2015-03-17T13:46:26Z</time>
      </trkpt>
      <trkpt lat="43.117750" lon="-4.723117">
        <ele>2805.0</ele>
        <time>2015-03-17T13:46:27Z</time>
      </trkpt>
      <trkpt lat="43.117733" lon="-4.723217">
        <ele>2804.0</ele>
        <time>2015-03-17T13:46:28Z</time>
      </trkpt>
      <trkpt lat="43.117733" lon="-4.723333">
        <ele>2804.0</ele>
        <time>2015-03-17T13:46:29Z</time>
      </trkpt>
      <trkpt lat="43.117733" lon="-4.723450">
        <ele>2804.0</ele>
        <time>2015-03-17T13:46:30Z</time>
      </trkpt>
      <trkpt lat="43.117733" lon="-4.723583">
        <ele>2805.0</ele>
        <time>2015-03-17T13:46:31Z</time>
      </trkpt>
      <trkpt lat="43.117733" lon="-4.723700">
        <ele>2805.0</ele>
        <time>2015-03-17T13:46:32Z</time>
      </trkpt>
      <trkpt lat="43.117717" lon="-4.723817">
        <ele>2805.0</ele>
        <time>2015-03-17T13:46:33Z</time>
      </trkpt>
      <trkpt lat="43.117717" lon="-4.723917">
        <ele>2805.0</ele>
        <time>2015-03-17T13:46:34Z</time>
      </trkpt>
      <trkpt lat="43.117717" lon="-4.724033">
        <ele>2804.0</ele>
        <time>2015-03-17T13:46:35Z</time>
      </trkpt>
      <trkpt lat="43.117717" lon="-4.724150">
        <ele>2804.0</ele>
        <time>2015-03-17T13:46:36Z</time>
      </trkpt>
      <trkpt lat="43.117717" lon="-4.724267">
        <ele>2804.0</ele>
        <time>2015-03-17T13:46:37Z</time>
      </trkpt>
      <trkpt lat="43.117717" lon="-4.724383">
        <ele>2803.0</ele>
        <time>2015-03-17T13:46:38Z</time>
      </trkpt>
      <trkpt lat="43.117700" lon="-4.724517">
        <ele>2803.0</ele>
        <time>2015-03-17T13:46:39Z</time>
      </trkpt>
      <trkpt lat="43.117700" lon="-4.724650">
        <ele>2802.0</ele>
        <time>2015-03-17T13:46:40Z</time>
      </trkpt>
      <trkpt lat="43.117700" lon="-4.724767">
        <ele>2800.0</ele>
        <time>2015-03-17T13:46:41Z</time>
      </trkpt>
      <trkpt lat="43.117700" lon="-4.724900">
        <ele>2799.0</ele>
        <time>2015-03-17T13:46:42Z</time>
      </trkpt>
      <trkpt lat="43.117700" lon="-4.725017">
        <ele>2799.0</ele>
        <time>2015-03-17T13:46:43Z</time>
      </trkpt>
      <trkpt lat="43.117700" lon="-4.725150">
        <ele>2798.0</ele>
        <time>2015-03-17T13:46:44Z</time>
      </trkpt>
      <trkpt lat="43.117683" lon="-4.725267">
        <ele>2797.0</ele>
        <time>2015-03-17T13:46:45Z</time>
      </trkpt>
      <trkpt lat="43.117667" lon="-4.725400">
        <ele>2795.0</ele>
        <time>2015-03-17T13:46:46Z</time>
      </trkpt>
      <trkpt lat="43.117650" lon="-4.725517">
        <ele>2794.0</ele>
        <time>2015-03-17T13:46:47Z</time>
      </trkpt>
      <trkpt lat="43.117633" lon="-4.725650">
        <ele>2793.0</ele>
        <time>2015-03-17T13:46:48Z</time>
      </trkpt>
      <trkpt lat="43.117617" lon="-4.725767">
        <ele>2793.0</ele>
        <time>2015-03-17T13:46:49Z</time>
      </trkpt>
      <trkpt lat="43.117600" lon="-4.725883">
        <ele>2792.0</ele>
        <time>2015-03-17T13:46:50Z</time>
      </trkpt>
      <trkpt lat="43.117567" lon="-4.726000">
        <ele>2791.0</ele>
        <time>2015-03-17T13:46:51Z</time>
      </trkpt>
      <trkpt lat="43.117550" lon="-4.726117">
        <ele>2791.0</ele>
        <time>2015-03-17T13:46:52Z</time>
      </trkpt>
      <trkpt lat="43.117500" lon="-4.726233">
        <ele>2791.0</ele>
        <time>2015-03-17T13:46:53Z</time>
      </trkpt>
      <trkpt lat="43.117483" lon="-4.726333">
        <ele>2791.0</ele>
        <time>2015-03-17T13:46:54Z</time>
      </trkpt>
      <trkpt lat="43.117450" lon="-4.726433">
        <ele>2792.0</ele>
        <time>2015-03-17T13:46:55Z</time>
      </trkpt>
      <trkpt lat="43.117433" lon="-4.726533">
        <ele>2793.0</ele>
        <time>2015-03-17T13:46:56Z</time>
      </trkpt>
      <trkpt lat="43.117433" lon="-4.726600">
        <ele>2794.0</ele>
        <time>2015-03-17T13:46:57Z</time>
      </trkpt>
      <trkpt lat="43.117417" lon="-4.726683">
        <ele>2794.0</ele>
        <time>2015-03-17T13:46:58Z</time>
      </trkpt>
      <trkpt lat="43.117383" lon="-4.726750">
        <ele>2794.0</ele>
        <time>2015-03-17T13:46:59Z</time>
      </trkpt>
      <trkpt lat="43.117333" lon="-4.726817">
        <ele>2794.0</ele>
        <time>2015-03-17T13:47:00Z</time>
      </trkpt>
      <trkpt lat="43.117283" lon="-4.726883">
        <ele>2794.0</ele>
        <time>2015-03-17T13:47:01Z</time>
      </trkpt>
      <trkpt lat="43.117233" lon="-4.726950">
        <ele>2793.0</ele>
        <time>2015-03-17T13:47:02Z</time>
      </trkpt>
      <trkpt lat="43.117200" lon="-4.727050">
        <ele>2793.0</ele>
        <time>2015-03-17T13:47:03Z</time>
      </trkpt>
      <trkpt lat="43.117150" lon="-4.727167">
        <ele>2792.0</ele>
        <time>2015-03-17T13:47:04Z</time>
      </trkpt>
      <trkpt lat="43.117117" lon="-4.727283">
        <ele>2791.0</ele>
        <time>2015-03-17T13:47:05Z</time>
      </trkpt>
      <trkpt lat="43.117067" lon="-4.727400">
        <ele>2790.0</ele>
        <time>2015-03-17T13:47:06Z</time>
      </trkpt>
      <trkpt lat="43.117033" lon="-4.727517">
        <ele>2789.0</ele>
        <time>2015-03-17T13:47:07Z</time>
      </trkpt>
      <trkpt lat="43.117000" lon="-4.727633">
        <ele>2789.0</ele>
        <time>2015-03-17T13:47:08Z</time>
      </trkpt>
      <trkpt lat="43.116983" lon="-4.727767">
        <ele>2789.0</ele>
        <time>2015-03-17T13:47:09Z</time>
      </trkpt>
      <trkpt lat="43.116950" lon="-4.727883">
        <ele>2788.0</ele>
        <time>2015-03-17T13:47:10Z</time>
      </trkpt>
      <trkpt lat="43.116917" lon="-4.728033">
        <ele>2787.0</ele>
        <time>2015-03-17T13:47:11Z</time>
      </trkpt>
      <trkpt lat="43.116883" lon="-4.728167">
        <ele>2787.0</ele>
        <time>2015-03-17T13:47:12Z</time>
      </trkpt>
      <trkpt lat="43.116867" lon="-4.728300">
        <ele>2787.0</ele>
        <time>2015-03-17T13:47:13Z</time>
      </trkpt>
      <trkpt lat="43.116833" lon="-4.728433">
        <ele>2787.0</ele>
        <time>2015-03-17T13:47:14Z</time>
      </trkpt>
      <trkpt lat="43.116817" lon="-4.728567">
        <ele>2788.0</ele>
        <time>2015-03-17T13:47:15Z</time>
      </trkpt>
      <trkpt lat="43.116800" lon="-4.728700">
        <ele>2787.0</ele>
        <time>2015-03-17T13:47:16Z</time>
      </trkpt>
      <trkpt lat="43.116767" lon="-4.728850">
        <ele>2787.0</ele>
        <time>2015-03-17T13:47:17Z</time>
      </trkpt>
      <trkpt lat="43.116733" lon="-4.728983">
        <ele>2786.0</ele>
        <time>2015-03-17T13:47:18Z</time>
      </trkpt>
      <trkpt lat="43.116700" lon="-4.729133">
        <ele>2786.0</ele>
        <time>2015-03-17T13:47:19Z</time>
      </trkpt>
      <trkpt lat="43.116683" lon="-4.729267">
        <ele>2786.0</ele>
        <time>2015-03-17T13:47:20Z</time>
      </trkpt>
      <trkpt lat="43.116650" lon="-4.729400">
        <ele>2785.0</ele>
        <time>2015-03-17T13:47:21Z</time>
      </trkpt>
      <trkpt lat="43.116633" lon="-4.729517">
        <ele>2785.0</ele>
        <time>2015-03-17T13:47:22Z</time>
      </trkpt>
      <trkpt lat="43.116600" lon="-4.729650">
        <ele>2785.0</ele>
        <time>2015-03-17T13:47:23Z</time>
      </trkpt>
      <trkpt lat="43.116567" lon="-4.729783">
        <ele>2784.0</ele>
        <time>2015-03-17T13:47:24Z</time>
      </trkpt>
      <trkpt lat="43.116533" lon="-4.729900">
        <ele>2783.0</ele>
        <time>2015-03-17T13:47:25Z</time>
      </trkpt>
      <trkpt lat="43.116517" lon="-4.730033">
        <ele>2782.0</ele>
        <time>2015-03-17T13:47:26Z</time>
      </trkpt>
      <trkpt lat="43.116483" lon="-4.730150">
        <ele>2782.0</ele>
        <time>2015-03-17T13:47:27Z</time>
      </trkpt>
      <trkpt lat="43.116450" lon="-4.730267">
        <ele>2780.0</ele>
        <time>2015-03-17T13:47:28Z</time>
      </trkpt>
      <trkpt lat="43.116433" lon="-4.730383">
        <ele>2779.0</ele>
        <time>2015-03-17T13:47:29Z</time>
      </trkpt>
      <trkpt lat="43.116417" lon="-4.730517">
        <ele>2777.0</ele>
        <time>2015-03-17T13:47:30Z</time>
      </trkpt>
      <trkpt lat="43.116383" lon="-4.730650">
        <ele>2776.0</ele>
        <time>2015-03-17T13:47:31Z</time>
      </trkpt>
      <trkpt lat="43.116350" lon="-4.730783">
        <ele>2775.0</ele>
        <time>2015-03-17T13:47:32Z</time>
      </trkpt>
      <trkpt lat="43.116317" lon="-4.730917">
        <ele>2774.0</ele>
        <time>2015-03-17T13:47:33Z</time>
      </trkpt>
      <trkpt lat="43.116300" lon="-4.731050">
        <ele>2773.0</ele>
        <time>2015-03-17T13:47:34Z</time>
      </trkpt>
      <trkpt lat="43.116300" lon="-4.731183">
        <ele>2774.0</ele>
        <time>2015-03-17T13:47:35Z</time>
      </trkpt>
      <trkpt lat="43.116300" lon="-4.731283">
        <ele>2773.0</ele>
        <time>2015-03-17T13:47:36Z</time>
      </trkpt>
      <trkpt lat="43.116283" lon="-4.731400">
        <ele>2771.0</ele>
        <time>2015-03-17T13:47:37Z</time>
      </trkpt>
      <trkpt lat="43.116267" lon="-4.731517">
        <ele>2769.0</ele>
        <time>2015-03-17T13:47:38Z</time>
      </trkpt>
      <trkpt lat="43.116250" lon="-4.731650">
        <ele>2768.0</ele>
        <time>2015-03-17T13:47:39Z</time>
      </trkpt>
      <trkpt lat="43.116200" lon="-4.731750">
        <ele>2768.0</ele>
        <time>2015-03-17T13:47:40Z</time>
      </trkpt>
      <trkpt lat="43.116167" lon="-4.731850">
        <ele>2771.0</ele>
        <time>2015-03-17T13:47:41Z</time>
      </trkpt>
      <trkpt lat="43.116150" lon="-4.731917">
        <ele>2771.0</ele>
        <time>2015-03-17T13:47:42Z</time>
      </trkpt>
      <trkpt lat="43.116117" lon="-4.732000">
        <ele>2771.0</ele>
        <time>2015-03-17T13:47:43Z</time>
      </trkpt>
      <trkpt lat="43.116100" lon="-4.732100">
        <ele>2771.0</ele>
        <time>2015-03-17T13:47:44Z</time>
      </trkpt>
      <trkpt lat="43.116083" lon="-4.732183">
        <ele>2771.0</ele>
        <time>2015-03-17T13:47:45Z</time>
      </trkpt>
      <trkpt lat="43.116050" lon="-4.732283">
        <ele>2770.0</ele>
        <time>2015-03-17T13:47:46Z</time>
      </trkpt>
      <trkpt lat="43.116017" lon="-4.732383">
        <ele>2770.0</ele>
        <time>2015-03-17T13:47:47Z</time>
      </trkpt>
      <trkpt lat="43.115983" lon="-4.732483">
        <ele>2770.0</ele>
        <time>2015-03-17T13:47:48Z</time>
      </trkpt>
      <trkpt lat="43.115950" lon="-4.732600">
        <ele>2769.0</ele>
        <time>2015-03-17T13:47:49Z</time>
      </trkpt>
      <trkpt lat="43.115933" lon="-4.732717">
        <ele>2768.0</ele>
        <time>2015-03-17T13:47:50Z</time>
      </trkpt>
      <trkpt lat="43.115917" lon="-4.732850">
        <ele>2768.0</ele>
        <time>2015-03-17T13:47:51Z</time>
      </trkpt>
      <trkpt lat="43.115900" lon="-4.732983">
        <ele>2768.0</ele>
        <time>2015-03-17T13:47:52Z</time>
      </trkpt>
      <trkpt lat="43.115900" lon="-4.733100">
        <ele>2767.0</ele>
        <time>2015-03-17T13:47:53Z</time>
      </trkpt>
      <trkpt lat="43.115900" lon="-4.733183">
        <ele>2767.0</ele>
        <time>2015-03-17T13:47:54Z</time>
      </trkpt>
      <trkpt lat="43.115900" lon="-4.733250">
        <ele>2767.0</ele>
        <time>2015-03-17T13:47:55Z</time>
      </trkpt>
      <trkpt lat="43.115900" lon="-4.733333">
        <ele>2767.0</ele>
        <time>2015-03-17T13:47:56Z</time>
      </trkpt>
      <trkpt lat="43.115917" lon="-4.733400">
        <ele>2766.0</ele>
        <time>2015-03-17T13:47:57Z</time>
      </trkpt>
      <trkpt lat="43.115933" lon="-4.733483">
        <ele>2764.0</ele>
        <time>2015-03-17T13:47:58Z</time>
      </trkpt>
      <trkpt lat="43.115950" lon="-4.733600">
        <ele>2762.0</ele>
        <time>2015-03-17T13:47:59Z</time>
      </trkpt>
      <trkpt lat="43.115950" lon="-4.733700">
        <ele>2761.0</ele>
        <time>2015-03-17T13:48:00Z</time>
      </trkpt>
      <trkpt lat="43.115933" lon="-4.733833">
        <ele>2759.0</ele>
        <time>2015-03-17T13:48:01Z</time>
      </trkpt>
      <trkpt lat="43.115933" lon="-4.733950">
        <ele>2757.0</ele>
        <time>2015-03-17T13:48:02Z</time>
      </trkpt>
      <trkpt lat="43.115917" lon="-4.734067">
        <ele>2756.0</ele>
        <time>2015-03-17T13:48:03Z</time>
      </trkpt>
      <trkpt lat="43.115917" lon="-4.734183">
        <ele>2755.0</ele>
        <time>2015-03-17T13:48:04Z</time>
      </trkpt>
      <trkpt lat="43.115917" lon="-4.734300">
        <ele>2754.0</ele>
        <time>2015-03-17T13:48:05Z</time>
      </trkpt>
      <trkpt lat="43.115917" lon="-4.734417">
        <ele>2752.0</ele>
        <time>2015-03-17T13:48:06Z</time>
      </trkpt>
      <trkpt lat="43.115900" lon="-4.734533">
        <ele>2751.0</ele>
        <time>2015-03-17T13:48:07Z</time>
      </trkpt>
      <trkpt lat="43.115883" lon="-4.734650">
        <ele>2749.0</ele>
        <time>2015-03-17T13:48:08Z</time>
      </trkpt>
      <trkpt lat="43.115867" lon="-4.734783">
        <ele>2752.0</ele>
        <time>2015-03-17T13:48:09Z</time>
      </trkpt>
      <trkpt lat="43.115850" lon="-4.734917">
        <ele>2753.0</ele>
        <time>2015-03-17T13:48:10Z</time>
      </trkpt>
      <trkpt lat="43.115867" lon="-4.735033">
        <ele>2752.0</ele>
        <time>2015-03-17T13:48:11Z</time>
      </trkpt>
      <trkpt lat="43.115883" lon="-4.735167">
        <ele>2752.0</ele>
        <time>2015-03-17T13:48:12Z</time>
      </trkpt>
      <trkpt lat="43.115883" lon="-4.735300">
        <ele>2751.0</ele>
        <time>2015-03-17T13:48:13Z</time>
      </trkpt>
      <trkpt lat="43.115883" lon="-4.735417">
        <ele>2751.0</ele>
        <time>2015-03-17T13:48:14Z</time>
      </trkpt>
      <trkpt lat="43.115883" lon="-4.735550">
        <ele>2750.0</ele>
        <time>2015-03-17T13:48:15Z</time>
      </trkpt>
      <trkpt lat="43.115900" lon="-4.735667">
        <ele>2750.0</ele>
        <time>2015-03-17T13:48:16Z</time>
      </trkpt>
      <trkpt lat="43.115933" lon="-4.735767">
        <ele>2748.0</ele>
        <time>2015-03-17T13:48:17Z</time>
      </trkpt>
      <trkpt lat="43.115950" lon="-4.735883">
        <ele>2748.0</ele>
        <time>2015-03-17T13:48:18Z</time>
      </trkpt>
      <trkpt lat="43.115950" lon="-4.736000">
        <ele>2746.0</ele>
        <time>2015-03-17T13:48:19Z</time>
      </trkpt>
      <trkpt lat="43.115950" lon="-4.736117">
        <ele>2745.0</ele>
        <time>2015-03-17T13:48:20Z</time>
      </trkpt>
      <trkpt lat="43.115933" lon="-4.736233">
        <ele>2744.0</ele>
        <time>2015-03-17T13:48:21Z</time>
      </trkpt>
      <trkpt lat="43.115933" lon="-4.736350">
        <ele>2742.0</ele>
        <time>2015-03-17T13:48:22Z</time>
      </trkpt>
      <trkpt lat="43.115900" lon="-4.736450">
        <ele>2740.0</ele>
        <time>2015-03-17T13:48:23Z</time>
      </trkpt>
      <trkpt lat="43.115883" lon="-4.736550">
        <ele>2738.0</ele>
        <time>2015-03-17T13:48:24Z</time>
      </trkpt>
      <trkpt lat="43.115867" lon="-4.736650">
        <ele>2735.0</ele>
        <time>2015-03-17T13:48:25Z</time>
      </trkpt>
      <trkpt lat="43.115833" lon="-4.736750">
        <ele>2732.0</ele>
        <time>2015-03-17T13:48:26Z</time>
      </trkpt>
      <trkpt lat="43.115800" lon="-4.736850">
        <ele>2730.0</ele>
        <time>2015-03-17T13:48:27Z</time>
      </trkpt>
      <trkpt lat="43.115767" lon="-4.736933">
        <ele>2726.0</ele>
        <time>2015-03-17T13:48:28Z</time>
      </trkpt>
      <trkpt lat="43.115733" lon="-4.737017">
        <ele>2723.0</ele>
        <time>2015-03-17T13:48:29Z</time>
      </trkpt>
      <trkpt lat="43.115683" lon="-4.737117">
        <ele>2720.0</ele>
        <time>2015-03-17T13:48:30Z</time>
      </trkpt>
      <trkpt lat="43.115650" lon="-4.737217">
        <ele>2717.0</ele>
        <time>2015-03-17T13:48:31Z</time>
      </trkpt>
      <trkpt lat="43.115617" lon="-4.737317">
        <ele>2715.0</ele>
        <time>2015-03-17T13:48:32Z</time>
      </trkpt>
      <trkpt lat="43.115583" lon="-4.737417">
        <ele>2712.0</ele>
        <time>2015-03-17T13:48:33Z</time>
      </trkpt>
      <trkpt lat="43.115533" lon="-4.737533">
        <ele>2710.0</ele>
        <time>2015-03-17T13:48:34Z</time>
      </trkpt>
      <trkpt lat="43.115500" lon="-4.737633">
        <ele>2708.0</ele>
        <time>2015-03-17T13:48:35Z</time>
      </trkpt>
      <trkpt lat="43.115467" lon="-4.737733">
        <ele>2705.0</ele>
        <time>2015-03-17T13:48:36Z</time>
      </trkpt>
      <trkpt lat="43.115417" lon="-4.737850">
        <ele>2703.0</ele>
        <time>2015-03-17T13:48:37Z</time>
      </trkpt>
      <trkpt lat="43.115383" lon="-4.737950">
        <ele>2700.0</ele>
        <time>2015-03-17T13:48:38Z</time>
      </trkpt>
      <trkpt lat="43.115350" lon="-4.738067">
        <ele>2698.0</ele>
        <time>2015-03-17T13:48:39Z</time>
      </trkpt>
      <trkpt lat="43.115300" lon="-4.738183">
        <ele>2695.0</ele>
        <time>2015-03-17T13:48:40Z</time>
      </trkpt>
      <trkpt lat="43.115267" lon="-4.738283">
        <ele>2693.0</ele>
        <time>2015-03-17T13:48:41Z</time>
      </trkpt>
      <trkpt lat="43.115233" lon="-4.738383">
        <ele>2692.0</ele>
        <time>2015-03-17T13:48:42Z</time>
      </trkpt>
      <trkpt lat="43.115217" lon="-4.738500">
        <ele>2691.0</ele>
        <time>2015-03-17T13:48:43Z</time>
      </trkpt>
      <trkpt lat="43.115183" lon="-4.738633">
        <ele>2695.0</ele>
        <time>2015-03-17T13:48:44Z</time>
      </trkpt>
      <trkpt lat="43.115133" lon="-4.738733">
        <ele>2695.0</ele>
        <time>2015-03-17T13:48:45Z</time>
      </trkpt>
      <trkpt lat="43.115100" lon="-4.738850">
        <ele>2695.0</ele>
        <time>2015-03-17T13:48:46Z</time>
      </trkpt>
      <trkpt lat="43.115067" lon="-4.738967">
        <ele>2694.0</ele>
        <time>2015-03-17T13:48:47Z</time>
      </trkpt>
      <trkpt lat="43.115033" lon="-4.739083">
        <ele>2693.0</ele>
        <time>2015-03-17T13:48:48Z</time>
      </trkpt>
      <trkpt lat="43.115000" lon="-4.739217">
        <ele>2692.0</ele>
        <time>2015-03-17T13:48:49Z</time>
      </trkpt>
      <trkpt lat="43.114967" lon="-4.739317">
        <ele>2691.0</ele>
        <time>2015-03-17T13:48:50Z</time>
      </trkpt>
      <trkpt lat="43.114917" lon="-4.739417">
        <ele>2690.0</ele>
        <time>2015-03-17T13:48:51Z</time>
      </trkpt>
      <trkpt lat="43.114883" lon="-4.739500">
        <ele>2688.0</ele>
        <time>2015-03-17T13:48:52Z</time>
      </trkpt>
      <trkpt lat="43.114850" lon="-4.739600">
        <ele>2686.0</ele>
        <time>2015-03-17T13:48:53Z</time>
      </trkpt>
      <trkpt lat="43.114817" lon="-4.739700">
        <ele>2683.0</ele>
        <time>2015-03-17T13:48:54Z</time>
      </trkpt>
      <trkpt lat="43.114783" lon="-4.739783">
        <ele>2681.0</ele>
        <time>2015-03-17T13:48:55Z</time>
      </trkpt>
      <trkpt lat="43.114733" lon="-4.739883">
        <ele>2678.0</ele>
        <time>2015-03-17T13:48:56Z</time>
      </trkpt>
      <trkpt lat="43.114700" lon="-4.739983">
        <ele>2676.0</ele>
        <time>2015-03-17T13:48:57Z</time>
      </trkpt>
      <trkpt lat="43.114667" lon="-4.740100">
        <ele>2673.0</ele>
        <time>2015-03-17T13:48:58Z</time>
      </trkpt>
      <trkpt lat="43.114617" lon="-4.740233">
        <ele>2670.0</ele>
        <time>2015-03-17T13:48:59Z</time>
      </trkpt>
      <trkpt lat="43.114583" lon="-4.740367">
        <ele>2668.0</ele>
        <time>2015-03-17T13:49:00Z</time>
      </trkpt>
      <trkpt lat="43.114533" lon="-4.740483">
        <ele>2666.0</ele>
        <time>2015-03-17T13:49:01Z</time>
      </trkpt>
      <trkpt lat="43.114500" lon="-4.740583">
        <ele>2665.0</ele>
        <time>2015-03-17T13:49:02Z</time>
      </trkpt>
      <trkpt lat="43.114450" lon="-4.740683">
        <ele>2663.0</ele>
        <time>2015-03-17T13:49:03Z</time>
      </trkpt>
      <trkpt lat="43.114417" lon="-4.740800">
        <ele>2661.0</ele>
        <time>2015-03-17T13:49:04Z</time>
      </trkpt>
      <trkpt lat="43.114367" lon="-4.740933">
        <ele>2664.0</ele>
        <time>2015-03-17T13:49:05Z</time>
      </trkpt>
      <trkpt lat="43.114333" lon="-4.741067">
        <ele>2662.0</ele>
        <time>2015-03-17T13:49:06Z</time>
      </trkpt>
      <trkpt lat="43.114283" lon="-4.741200">
        <ele>2660.0</ele>
        <time>2015-03-17T13:49:07Z</time>
      </trkpt>
      <trkpt lat="43.114250" lon="-4.741300">
        <ele>2658.0</ele>
        <time>2015-03-17T13:49:08Z</time>
      </trkpt>
      <trkpt lat="43.114217" lon="-4.741417">
        <ele>2655.0</ele>
        <time>2015-03-17T13:49:09Z</time>
      </trkpt>
      <trkpt lat="43.114183" lon="-4.741533">
        <ele>2653.0</ele>
        <time>2015-03-17T13:49:10Z</time>
      </trkpt>
      <trkpt lat="43.114167" lon="-4.741683">
        <ele>2650.0</ele>
        <time>2015-03-17T13:49:11Z</time>
      </trkpt>
      <trkpt lat="43.114133" lon="-4.741817">
        <ele>2648.0</ele>
        <time>2015-03-17T13:49:12Z</time>
      </trkpt>
      <trkpt lat="43.114117" lon="-4.741967">
        <ele>2645.0</ele>
        <time>2015-03-17T13:49:13Z</time>
      </trkpt>
      <trkpt lat="43.114083" lon="-4.742100">
        <ele>2642.0</ele>
        <time>2015-03-17T13:49:14Z</time>
      </trkpt>
      <trkpt lat="43.114050" lon="-4.742233">
        <ele>2640.0</ele>
        <time>2015-03-17T13:49:15Z</time>
      </trkpt>
      <trkpt lat="43.114017" lon="-4.742367">
        <ele>2638.0</ele>
        <time>2015-03-17T13:49:16Z</time>
      </trkpt>
      <trkpt lat="43.114000" lon="-4.742500">
        <ele>2636.0</ele>
        <time>2015-03-17T13:49:17Z</time>
      </trkpt>
      <trkpt lat="43.113967" lon="-4.742617">
        <ele>2634.0</ele>
        <time>2015-03-17T13:49:18Z</time>
      </trkpt>
      <trkpt lat="43.113933" lon="-4.742750">
        <ele>2631.0</ele>
        <time>2015-03-17T13:49:19Z</time>
      </trkpt>
      <trkpt lat="43.113883" lon="-4.742883">
        <ele>2629.0</ele>
        <time>2015-03-17T13:49:20Z</time>
      </trkpt>
      <trkpt lat="43.113850" lon="-4.743017">
        <ele>2627.0</ele>
        <time>2015-03-17T13:49:21Z</time>
      </trkpt>
      <trkpt lat="43.113817" lon="-4.743133">
        <ele>2625.0</ele>
        <time>2015-03-17T13:49:22Z</time>
      </trkpt>
      <trkpt lat="43.113767" lon="-4.743250">
        <ele>2623.0</ele>
        <time>2015-03-17T13:49:23Z</time>
      </trkpt>
      <trkpt lat="43.113733" lon="-4.743350">
        <ele>2621.0</ele>
        <time>2015-03-17T13:49:24Z</time>
      </trkpt>
      <trkpt lat="43.113683" lon="-4.743467">
        <ele>2619.0</ele>
        <time>2015-03-17T13:49:25Z</time>
      </trkpt>
      <trkpt lat="43.113650" lon="-4.743583">
        <ele>2617.0</ele>
        <time>2015-03-17T13:49:26Z</time>
      </trkpt>
      <trkpt lat="43.113600" lon="-4.743700">
        <ele>2615.0</ele>
        <time>2015-03-17T13:49:27Z</time>
      </trkpt>
      <trkpt lat="43.113567" lon="-4.743817">
        <ele>2614.0</ele>
        <time>2015-03-17T13:49:28Z</time>
      </trkpt>
      <trkpt lat="43.113517" lon="-4.743933">
        <ele>2612.0</ele>
        <time>2015-03-17T13:49:29Z</time>
      </trkpt>
      <trkpt lat="43.113483" lon="-4.744067">
        <ele>2610.0</ele>
        <time>2015-03-17T13:49:30Z</time>
      </trkpt>
      <trkpt lat="43.113433" lon="-4.744200">
        <ele>2608.0</ele>
        <time>2015-03-17T13:49:31Z</time>
      </trkpt>
      <trkpt lat="43.113383" lon="-4.744333">
        <ele>2607.0</ele>
        <time>2015-03-17T13:49:32Z</time>
      </trkpt>
      <trkpt lat="43.113350" lon="-4.744450">
        <ele>2605.0</ele>
        <time>2015-03-17T13:49:33Z</time>
      </trkpt>
      <trkpt lat="43.113300" lon="-4.744567">
        <ele>2604.0</ele>
        <time>2015-03-17T13:49:34Z</time>
      </trkpt>
      <trkpt lat="43.113250" lon="-4.744667">
        <ele>2603.0</ele>
        <time>2015-03-17T13:49:35Z</time>
      </trkpt>
      <trkpt lat="43.113200" lon="-4.744783">
        <ele>2602.0</ele>
        <time>2015-03-17T13:49:36Z</time>
      </trkpt>
      <trkpt lat="43.113150" lon="-4.744900">
        <ele>2600.0</ele>
        <time>2015-03-17T13:49:37Z</time>
      </trkpt>
      <trkpt lat="43.113100" lon="-4.745017">
        <ele>2599.0</ele>
        <time>2015-03-17T13:49:38Z</time>
      </trkpt>
      <trkpt lat="43.113050" lon="-4.745117">
        <ele>2597.0</ele>
        <time>2015-03-17T13:49:39Z</time>
      </trkpt>
      <trkpt lat="43.113000" lon="-4.745233">
        <ele>2596.0</ele>
        <time>2015-03-17T13:49:40Z</time>
      </trkpt>
      <trkpt lat="43.112950" lon="-4.745333">
        <ele>2595.0</ele>
        <time>2015-03-17T13:49:41Z</time>
      </trkpt>
      <trkpt lat="43.112917" lon="-4.745467">
        <ele>2593.0</ele>
        <time>2015-03-17T13:49:42Z</time>
      </trkpt>
      <trkpt lat="43.112867" lon="-4.745583">
        <ele>2592.0</ele>
        <time>2015-03-17T13:49:43Z</time>
      </trkpt>
      <trkpt lat="43.112833" lon="-4.745700">
        <ele>2590.0</ele>
        <time>2015-03-17T13:49:44Z</time>
      </trkpt>
      <trkpt lat="43.112783" lon="-4.745833">
        <ele>2589.0</ele>
        <time>2015-03-17T13:49:45Z</time>
      </trkpt>
      <trkpt lat="43.112750" lon="-4.745950">
        <ele>2588.0</ele>
        <time>2015-03-17T13:49:46Z</time>
      </trkpt>
      <trkpt lat="43.112733" lon="-4.746083">
        <ele>2587.0</ele>
        <time>2015-03-17T13:49:47Z</time>
      </trkpt>
      <trkpt lat="43.112700" lon="-4.746200">
        <ele>2586.0</ele>
        <time>2015-03-17T13:49:48Z</time>
      </trkpt>
      <trkpt lat="43.112667" lon="-4.746333">
        <ele>2585.0</ele>
        <time>2015-03-17T13:49:49Z</time>
      </trkpt>
      <trkpt lat="43.112650" lon="-4.746467">
        <ele>2583.0</ele>
        <time>2015-03-17T13:49:50Z</time>
      </trkpt>
      <trkpt lat="43.112617" lon="-4.746600">
        <ele>2582.0</ele>
        <time>2015-03-17T13:49:51Z</time>
      </trkpt>
      <trkpt lat="43.112600" lon="-4.746750">
        <ele>2580.0</ele>
        <time>2015-03-17T13:49:52Z</time>
      </trkpt>
      <trkpt lat="43.112583" lon="-4.746900">
        <ele>2579.0</ele>
        <time>2015-03-17T13:49:53Z</time>
      </trkpt>
      <trkpt lat="43.112567" lon="-4.747033">
        <ele>2577.0</ele>
        <time>2015-03-17T13:49:54Z</time>
      </trkpt>
      <trkpt lat="43.112533" lon="-4.747167">
        <ele>2575.0</ele>
        <time>2015-03-17T13:49:55Z</time>
      </trkpt>
      <trkpt lat="43.112500" lon="-4.747300">
        <ele>2574.0</ele>
        <time>2015-03-17T13:49:56Z</time>
      </trkpt>
      <trkpt lat="43.112467" lon="-4.747450">
        <ele>2572.0</ele>
        <time>2015-03-17T13:49:57Z</time>
      </trkpt>
      <trkpt lat="43.112450" lon="-4.747583">
        <ele>2570.0</ele>
        <time>2015-03-17T13:49:58Z</time>
      </trkpt>
      <trkpt lat="43.112400" lon="-4.747717">
        <ele>2569.0</ele>
        <time>2015-03-17T13:49:59Z</time>
      </trkpt>
      <trkpt lat="43.112367" lon="-4.747850">
        <ele>2568.0</ele>
        <time>2015-03-17T13:50:00Z</time>
      </trkpt>
      <trkpt lat="43.112333" lon="-4.747967">
        <ele>2566.0</ele>
        <time>2015-03-17T13:50:01Z</time>
      </trkpt>
      <trkpt lat="43.112300" lon="-4.748100">
        <ele>2565.0</ele>
        <time>2015-03-17T13:50:02Z</time>
      </trkpt>
      <trkpt lat="43.112267" lon="-4.748217">
        <ele>2563.0</ele>
        <time>2015-03-17T13:50:03Z</time>
      </trkpt>
      <trkpt lat="43.112233" lon="-4.748333">
        <ele>2561.0</ele>
        <time>2015-03-17T13:50:04Z</time>
      </trkpt>
      <trkpt lat="43.112200" lon="-4.748450">
        <ele>2560.0</ele>
        <time>2015-03-17T13:50:05Z</time>
      </trkpt>
      <trkpt lat="43.112150" lon="-4.748567">
        <ele>2558.0</ele>
        <time>2015-03-17T13:50:06Z</time>
      </trkpt>
      <trkpt lat="43.112117" lon="-4.748683">
        <ele>2556.0</ele>
        <time>2015-03-17T13:50:07Z</time>
      </trkpt>
      <trkpt lat="43.112083" lon="-4.748783">
        <ele>2554.0</ele>
        <time>2015-03-17T13:50:08Z</time>
      </trkpt>
      <trkpt lat="43.112050" lon="-4.748900">
        <ele>2552.0</ele>
        <time>2015-03-17T13:50:09Z</time>
      </trkpt>
      <trkpt lat="43.112017" lon="-4.749000">
        <ele>2550.0</ele>
        <time>2015-03-17T13:50:10Z</time>
      </trkpt>
      <trkpt lat="43.111983" lon="-4.749117">
        <ele>2548.0</ele>
        <time>2015-03-17T13:50:11Z</time>
      </trkpt>
      <trkpt lat="43.111933" lon="-4.749233">
        <ele>2547.0</ele>
        <time>2015-03-17T13:50:12Z</time>
      </trkpt>
      <trkpt lat="43.111900" lon="-4.749350">
        <ele>2545.0</ele>
        <time>2015-03-17T13:50:13Z</time>
      </trkpt>
      <trkpt lat="43.111850" lon="-4.749450">
        <ele>2544.0</ele>
        <time>2015-03-17T13:50:14Z</time>
      </trkpt>
      <trkpt lat="43.111817" lon="-4.749567">
        <ele>2542.0</ele>
        <time>2015-03-17T13:50:15Z</time>
      </trkpt>
      <trkpt lat="43.111783" lon="-4.749683">
        <ele>2541.0</ele>
        <time>2015-03-17T13:50:16Z</time>
      </trkpt>
      <trkpt lat="43.111733" lon="-4.749783">
        <ele>2541.0</ele>
        <time>2015-03-17T13:50:17Z</time>
      </trkpt>
      <trkpt lat="43.111700" lon="-4.749883">
        <ele>2540.0</ele>
        <time>2015-03-17T13:50:18Z</time>
      </trkpt>
      <trkpt lat="43.111683" lon="-4.750017">
        <ele>2542.0</ele>
        <time>2015-03-17T13:50:19Z</time>
      </trkpt>
      <trkpt lat="43.111667" lon="-4.750133">
        <ele>2543.0</ele>
        <time>2015-03-17T13:50:20Z</time>
      </trkpt>
      <trkpt lat="43.111650" lon="-4.750250">
        <ele>2544.0</ele>
        <time>2015-03-17T13:50:21Z</time>
      </trkpt>
      <trkpt lat="43.111633" lon="-4.750350">
        <ele>2546.0</ele>
        <time>2015-03-17T13:50:22Z</time>
      </trkpt>
      <trkpt lat="43.111617" lon="-4.750433">
        <ele>2548.0</ele>
        <time>2015-03-17T13:50:23Z</time>
      </trkpt>
      <trkpt lat="43.111600" lon="-4.750500">
        <ele>2550.0</ele>
        <time>2015-03-17T13:50:24Z</time>
      </trkpt>
      <trkpt lat="43.111583" lon="-4.750567">
        <ele>2552.0</ele>
        <time>2015-03-17T13:50:25Z</time>
      </trkpt>
      <trkpt lat="43.111550" lon="-4.750617">
        <ele>2552.0</ele>
        <time>2015-03-17T13:50:26Z</time>
      </trkpt>
      <trkpt lat="43.111500" lon="-4.750683">
        <ele>2553.0</ele>
        <time>2015-03-17T13:50:27Z</time>
      </trkpt>
      <trkpt lat="43.111450" lon="-4.750717">
        <ele>2554.0</ele>
        <time>2015-03-17T13:50:28Z</time>
      </trkpt>
      <trkpt lat="43.111383" lon="-4.750733">
        <ele>2555.0</ele>
        <time>2015-03-17T13:50:29Z</time>
      </trkpt>
      <trkpt lat="43.111317" lon="-4.750700">
        <ele>2556.0</ele>
        <time>2015-03-17T13:50:30Z</time>
      </trkpt>
      <trkpt lat="43.111283" lon="-4.750617">
        <ele>2556.0</ele>
        <time>2015-03-17T13:50:31Z</time>
      </trkpt>
      <trkpt lat="43.111250" lon="-4.750533">
        <ele>2557.0</ele>
        <time>2015-03-17T13:50:32Z</time>
      </trkpt>
      <trkpt lat="43.111250" lon="-4.750433">
        <ele>2556.0</ele>
        <time>2015-03-17T13:50:33Z</time>
      </trkpt>
      <trkpt lat="43.111267" lon="-4.750333">
        <ele>2557.0</ele>
        <time>2015-03-17T13:50:34Z</time>
      </trkpt>
      <trkpt lat="43.111300" lon="-4.750233">
        <ele>2557.0</ele>
        <time>2015-03-17T13:50:35Z</time>
      </trkpt>
      <trkpt lat="43.111350" lon="-4.750117">
        <ele>2558.0</ele>
        <time>2015-03-17T13:50:36Z</time>
      </trkpt>
      <trkpt lat="43.111417" lon="-4.750000">
        <ele>2559.0</ele>
        <time>2015-03-17T13:50:37Z</time>
      </trkpt>
      <trkpt lat="43.111483" lon="-4.749900">
        <ele>2561.0</ele>
        <time>2015-03-17T13:50:38Z</time>
      </trkpt>
      <trkpt lat="43.111583" lon="-4.749850">
        <ele>2564.0</ele>
        <time>2015-03-17T13:50:39Z</time>
      </trkpt>
      <trkpt lat="43.111667" lon="-4.749833">
        <ele>2565.0</ele>
        <time>2015-03-17T13:50:40Z</time>
      </trkpt>
      <trkpt lat="43.111767" lon="-4.749833">
        <ele>2566.0</ele>
        <time>2015-03-17T13:50:41Z</time>
      </trkpt>
      <trkpt lat="43.111867" lon="-4.749867">
        <ele>2567.0</ele>
        <time>2015-03-17T13:50:42Z</time>
      </trkpt>
      <trkpt lat="43.111967" lon="-4.749917">
        <ele>2568.0</ele>
        <time>2015-03-17T13:50:43Z</time>
      </trkpt>
      <trkpt lat="43.112050" lon="-4.749983">
        <ele>2569.0</ele>
        <time>2015-03-17T13:50:44Z</time>
      </trkpt>
      <trkpt lat="43.112117" lon="-4.750050">
        <ele>2570.0</ele>
        <time>2015-03-17T13:50:45Z</time>
      </trkpt>
      <trkpt lat="43.112167" lon="-4.750150">
        <ele>2571.0</ele>
        <time>2015-03-17T13:50:46Z</time>
      </trkpt>
      <trkpt lat="43.112200" lon="-4.750250">
        <ele>2572.0</ele>
        <time>2015-03-17T13:50:47Z</time>
      </trkpt>
      <trkpt lat="43.112233" lon="-4.750350">
        <ele>2573.0</ele>
        <time>2015-03-17T13:50:48Z</time>
      </trkpt>
      <trkpt lat="43.112250" lon="-4.750450">
        <ele>2575.0</ele>
        <time>2015-03-17T13:50:49Z</time>
      </trkpt>
      <trkpt lat="43.112250" lon="-4.750550">
        <ele>2576.0</ele>
        <time>2015-03-17T13:50:50Z</time>
      </trkpt>
      <trkpt lat="43.112233" lon="-4.750633">
        <ele>2578.0</ele>
        <time>2015-03-17T13:50:51Z</time>
      </trkpt>
      <trkpt lat="43.112217" lon="-4.750700">
        <ele>2579.0</ele>
        <time>2015-03-17T13:50:52Z</time>
      </trkpt>
      <trkpt lat="43.112200" lon="-4.750783">
        <ele>2579.0</ele>
        <time>2015-03-17T13:50:53Z</time>
      </trkpt>
      <trkpt lat="43.112167" lon="-4.750850">
        <ele>2581.0</ele>
        <time>2015-03-17T13:50:54Z</time>
      </trkpt>
      <trkpt lat="43.112133" lon="-4.750900">
        <ele>2582.0</ele>
        <time>2015-03-17T13:50:55Z</time>
      </trkpt>
      <trkpt lat="43.112100" lon="-4.750950">
        <ele>2582.0</ele>
        <time>2015-03-17T13:50:56Z</time>
      </trkpt>
      <trkpt lat="43.112050" lon="-4.750983">
        <ele>2581.0</ele>
        <time>2015-03-17T13:50:57Z</time>
      </trkpt>
      <trkpt lat="43.112000" lon="-4.751017">
        <ele>2581.0</ele>
        <time>2015-03-17T13:50:58Z</time>
      </trkpt>
      <trkpt lat="43.111933" lon="-4.751017">
        <ele>2582.0</ele>
        <time>2015-03-17T13:50:59Z</time>
      </trkpt>
      <trkpt lat="43.111883" lon="-4.751000">
        <ele>2583.0</ele>
        <time>2015-03-17T13:51:00Z</time>
      </trkpt>
      <trkpt lat="43.111833" lon="-4.751000">
        <ele>2585.0</ele>
        <time>2015-03-17T13:51:01Z</time>
      </trkpt>
      <trkpt lat="43.111783" lon="-4.751000">
        <ele>2586.0</ele>
        <time>2015-03-17T13:51:02Z</time>
      </trkpt>
      <trkpt lat="43.111750" lon="-4.751000">
        <ele>2586.0</ele>
        <time>2015-03-17T13:51:03Z</time>
      </trkpt>
      <trkpt lat="43.111700" lon="-4.750983">
        <ele>2586.0</ele>
        <time>2015-03-17T13:51:04Z</time>
      </trkpt>
      <trkpt lat="43.111650" lon="-4.750933">
        <ele>2587.0</ele>
        <time>2015-03-17T13:51:05Z</time>
      </trkpt>
      <trkpt lat="43.111600" lon="-4.750867">
        <ele>2587.0</ele>
        <time>2015-03-17T13:51:06Z</time>
      </trkpt>
      <trkpt lat="43.111567" lon="-4.750800">
        <ele>2588.0</ele>
        <time>2015-03-17T13:51:07Z</time>
      </trkpt>
      <trkpt lat="43.111533" lon="-4.750733">
        <ele>2590.0</ele>
        <time>2015-03-17T13:51:08Z</time>
      </trkpt>
      <trkpt lat="43.111500" lon="-4.750650">
        <ele>2591.0</ele>
        <time>2015-03-17T13:51:09Z</time>
      </trkpt>
      <trkpt lat="43.111483" lon="-4.750583">
        <ele>2592.0</ele>
        <time>2015-03-17T13:51:10Z</time>
      </trkpt>
      <trkpt lat="43.111467" lon="-4.750500">
        <ele>2593.0</ele>
        <time>2015-03-17T13:51:11Z</time>
      </trkpt>
      <trkpt lat="43.111450" lon="-4.750400">
        <ele>2594.0</ele>
        <time>2015-03-17T13:51:12Z</time>
      </trkpt>
      <trkpt lat="43.111450" lon="-4.750300">
        <ele>2595.0</ele>
        <time>2015-03-17T13:51:13Z</time>
      </trkpt>
      <trkpt lat="43.111467" lon="-4.750200">
        <ele>2597.0</ele>
        <time>2015-03-17T13:51:14Z</time>
      </trkpt>
      <trkpt lat="43.111500" lon="-4.750100">
        <ele>2598.0</ele>
        <time>2015-03-17T13:51:15Z</time>
      </trkpt>
      <trkpt lat="43.111533" lon="-4.750017">
        <ele>2599.0</ele>
        <time>2015-03-17T13:51:16Z</time>
      </trkpt>
      <trkpt lat="43.111583" lon="-4.749933">
        <ele>2599.0</ele>
        <time>2015-03-17T13:51:17Z</time>
      </trkpt>
      <trkpt lat="43.111650" lon="-4.749850">
        <ele>2599.0</ele>
        <time>2015-03-17T13:51:18Z</time>
      </trkpt>
      <trkpt lat="43.111700" lon="-4.749767">
        <ele>2600.0</ele>
        <time>2015-03-17T13:51:19Z</time>
      </trkpt>
      <trkpt lat="43.111767" lon="-4.749700">
        <ele>2600.0</ele>
        <time>2015-03-17T13:51:20Z</time>
      </trkpt>
      <trkpt lat="43.111850" lon="-4.749650">
        <ele>2601.0</ele>
        <time>2015-03-17T13:51:21Z</time>
      </trkpt>
      <trkpt lat="43.111950" lon="-4.749633">
        <ele>2602.0</ele>
        <time>2015-03-17T13:51:22Z</time>
      </trkpt>
      <trkpt lat="43.112033" lon="-4.749633">
        <ele>2602.0</ele>
        <time>2015-03-17T13:51:23Z</time>
      </trkpt>
      <trkpt lat="43.112133" lon="-4.749650">
        <ele>2602.0</ele>
        <time>2015-03-17T13:51:24Z</time>
      </trkpt>
      <trkpt lat="43.112217" lon="-4.749683">
        <ele>2602.0</ele>
        <time>2015-03-17T13:51:25Z</time>
      </trkpt>
      <trkpt lat="43.112317" lon="-4.749717">
        <ele>2603.0</ele>
        <time>2015-03-17T13:51:26Z</time>
      </trkpt>
      <trkpt lat="43.112400" lon="-4.749767">
        <ele>2604.0</ele>
        <time>2015-03-17T13:51:27Z</time>
      </trkpt>
      <trkpt lat="43.112467" lon="-4.749850">
        <ele>2605.0</ele>
        <time>2015-03-17T13:51:28Z</time>
      </trkpt>
      <trkpt lat="43.112517" lon="-4.749933">
        <ele>2605.0</ele>
        <time>2015-03-17T13:51:29Z</time>
      </trkpt>
      <trkpt lat="43.112567" lon="-4.750033">
        <ele>2607.0</ele>
        <time>2015-03-17T13:51:30Z</time>
      </trkpt>
      <trkpt lat="43.112600" lon="-4.750117">
        <ele>2608.0</ele>
        <time>2015-03-17T13:51:31Z</time>
      </trkpt>
      <trkpt lat="43.112633" lon="-4.750217">
        <ele>2610.0</ele>
        <time>2015-03-17T13:51:32Z</time>
      </trkpt>
      <trkpt lat="43.112650" lon="-4.750300">
        <ele>2611.0</ele>
        <time>2015-03-17T13:51:33Z</time>
      </trkpt>
      <trkpt lat="43.112683" lon="-4.750400">
        <ele>2612.0</ele>
        <time>2015-03-17T13:51:34Z</time>
      </trkpt>
      <trkpt lat="43.112700" lon="-4.750483">
        <ele>2613.0</ele>
        <time>2015-03-17T13:51:35Z</time>
      </trkpt>
      <trkpt lat="43.112700" lon="-4.750583">
        <ele>2614.0</ele>
        <time>2015-03-17T13:51:36Z</time>
      </trkpt>
      <trkpt lat="43.112700" lon="-4.750667">
        <ele>2615.0</ele>
        <time>2015-03-17T13:51:37Z</time>
      </trkpt>
      <trkpt lat="43.112683" lon="-4.750750">
        <ele>2616.0</ele>
        <time>2015-03-17T13:51:38Z</time>
      </trkpt>
      <trkpt lat="43.112683" lon="-4.750833">
        <ele>2617.0</ele>
        <time>2015-03-17T13:51:39Z</time>
      </trkpt>
      <trkpt lat="43.112683" lon="-4.750917">
        <ele>2618.0</ele>
        <time>2015-03-17T13:51:40Z</time>
      </trkpt>
      <trkpt lat="43.112667" lon="-4.750983">
        <ele>2619.0</ele>
        <time>2015-03-17T13:51:41Z</time>
      </trkpt>
      <trkpt lat="43.112667" lon="-4.751067">
        <ele>2619.0</ele>
        <time>2015-03-17T13:51:42Z</time>
      </trkpt>
      <trkpt lat="43.112667" lon="-4.751150">
        <ele>2619.0</ele>
        <time>2015-03-17T13:51:43Z</time>
      </trkpt>
      <trkpt lat="43.112650" lon="-4.751217">
        <ele>2618.0</ele>
        <time>2015-03-17T13:51:44Z</time>
      </trkpt>
      <trkpt lat="43.112633" lon="-4.751283">
        <ele>2618.0</ele>
        <time>2015-03-17T13:51:45Z</time>
      </trkpt>
      <trkpt lat="43.112583" lon="-4.751333">
        <ele>2617.0</ele>
        <time>2015-03-17T13:51:46Z</time>
      </trkpt>
      <trkpt lat="43.112550" lon="-4.751367">
        <ele>2617.0</ele>
        <time>2015-03-17T13:51:47Z</time>
      </trkpt>
      <trkpt lat="43.112500" lon="-4.751383">
        <ele>2617.0</ele>
        <time>2015-03-17T13:51:48Z</time>
      </trkpt>
      <trkpt lat="43.112450" lon="-4.751400">
        <ele>2617.0</ele>
        <time>2015-03-17T13:51:49Z</time>
      </trkpt>
      <trkpt lat="43.112400" lon="-4.751383">
        <ele>2617.0</ele>
        <time>2015-03-17T13:51:50Z</time>
      </trkpt>
      <trkpt lat="43.112350" lon="-4.751383">
        <ele>2617.0</ele>
        <time>2015-03-17T13:51:51Z</time>
      </trkpt>
      <trkpt lat="43.112283" lon="-4.751400">
        <ele>2618.0</ele>
        <time>2015-03-17T13:51:52Z</time>
      </trkpt>
      <trkpt lat="43.112233" lon="-4.751400">
        <ele>2619.0</ele>
        <time>2015-03-17T13:51:53Z</time>
      </trkpt>
      <trkpt lat="43.112200" lon="-4.751400">
        <ele>2620.0</ele>
        <time>2015-03-17T13:51:54Z</time>
      </trkpt>
      <trkpt lat="43.112150" lon="-4.751417">
        <ele>2622.0</ele>
        <time>2015-03-17T13:51:55Z</time>
      </trkpt>
      <trkpt lat="43.112117" lon="-4.751417">
        <ele>2623.0</ele>
        <time>2015-03-17T13:51:56Z</time>
      </trkpt>
      <trkpt lat="43.112083" lon="-4.751433">
        <ele>2623.0</ele>
        <time>2015-03-17T13:51:57Z</time>
      </trkpt>
      <trkpt lat="43.112050" lon="-4.751433">
        <ele>2622.0</ele>
        <time>2015-03-17T13:51:58Z</time>
      </trkpt>
      <trkpt lat="43.112000" lon="-4.751433">
        <ele>2622.0</ele>
        <time>2015-03-17T13:51:59Z</time>
      </trkpt>
      <trkpt lat="43.111967" lon="-4.751417">
        <ele>2622.0</ele>
        <time>2015-03-17T13:52:00Z</time>
      </trkpt>
      <trkpt lat="43.111917" lon="-4.751417">
        <ele>2622.0</ele>
        <time>2015-03-17T13:52:01Z</time>
      </trkpt>
      <trkpt lat="43.111883" lon="-4.751383">
        <ele>2622.0</ele>
        <time>2015-03-17T13:52:02Z</time>
      </trkpt>
      <trkpt lat="43.111833" lon="-4.751367">
        <ele>2621.0</ele>
        <time>2015-03-17T13:52:03Z</time>
      </trkpt>
      <trkpt lat="43.111800" lon="-4.751317">
        <ele>2620.0</ele>
        <time>2015-03-17T13:52:04Z</time>
      </trkpt>
      <trkpt lat="43.111783" lon="-4.751250">
        <ele>2619.0</ele>
        <time>2015-03-17T13:52:05Z</time>
      </trkpt>
      <trkpt lat="43.111783" lon="-4.751167">
        <ele>2617.0</ele>
        <time>2015-03-17T13:52:06Z</time>
      </trkpt>
      <trkpt lat="43.111800" lon="-4.751050">
        <ele>2616.0</ele>
        <time>2015-03-17T13:52:07Z</time>
      </trkpt>
      <trkpt lat="43.111833" lon="-4.750950">
        <ele>2615.0</ele>
        <time>2015-03-17T13:52:08Z</time>
      </trkpt>
      <trkpt lat="43.111883" lon="-4.750850">
        <ele>2614.0</ele>
        <time>2015-03-17T13:52:09Z</time>
      </trkpt>
      <trkpt lat="43.111933" lon="-4.750750">
        <ele>2615.0</ele>
        <time>2015-03-17T13:52:10Z</time>
      </trkpt>
      <trkpt lat="43.112000" lon="-4.750667">
        <ele>2615.0</ele>
        <time>2015-03-17T13:52:11Z</time>
      </trkpt>
      <trkpt lat="43.112083" lon="-4.750600">
        <ele>2616.0</ele>
        <time>2015-03-17T13:52:12Z</time>
      </trkpt>
      <trkpt lat="43.112167" lon="-4.750550">
        <ele>2616.0</ele>
        <time>2015-03-17T13:52:13Z</time>
      </trkpt>
      <trkpt lat="43.112250" lon="-4.750517">
        <ele>2616.0</ele>
        <time>2015-03-17T13:52:14Z</time>
      </trkpt>
      <trkpt lat="43.112350" lon="-4.750467">
        <ele>2615.0</ele>
        <time>2015-03-17T13:52:15Z</time>
      </trkpt>
      <trkpt lat="43.112450" lon="-4.750417">
        <ele>2615.0</ele>
        <time>2015-03-17T13:52:16Z</time>
      </trkpt>
      <trkpt lat="43.112533" lon="-4.750367">
        <ele>2614.0</ele>
        <time>2015-03-17T13:52:17Z</time>
      </trkpt>
      <trkpt lat="43.112650" lon="-4.750333">
        <ele>2614.0</ele>
        <time>2015-03-17T13:52:18Z</time>
      </trkpt>
      <trkpt lat="43.112750" lon="-4.750317">
        <ele>2615.0</ele>
        <time>2015-03-17T13:52:19Z</time>
      </trkpt>
      <trkpt lat="43.112883" lon="-4.750333">
        <ele>2615.0</ele>
        <time>2015-03-17T13:52:20Z</time>
      </trkpt>
      <trkpt lat="43.112983" lon="-4.750350">
        <ele>2617.0</ele>
        <time>2015-03-17T13:52:21Z</time>
      </trkpt>
      <trkpt lat="43.113083" lon="-4.750383">
        <ele>2619.0</ele>
        <time>2015-03-17T13:52:22Z</time>
      </trkpt>
      <trkpt lat="43.113183" lon="-4.750400">
        <ele>2621.0</ele>
        <time>2015-03-17T13:52:23Z</time>
      </trkpt>
      <trkpt lat="43.113267" lon="-4.750417">
        <ele>2622.0</ele>
        <time>2015-03-17T13:52:24Z</time>
      </trkpt>
      <trkpt lat="43.113367" lon="-4.750433">
        <ele>2623.0</ele>
        <time>2015-03-17T13:52:25Z</time>
      </trkpt>
      <trkpt lat="43.113467" lon="-4.750483">
        <ele>2622.0</ele>
        <time>2015-03-17T13:52:26Z</time>
      </trkpt>
      <trkpt lat="43.113567" lon="-4.750533">
        <ele>2622.0</ele>
        <time>2015-03-17T13:52:27Z</time>
      </trkpt>
      <trkpt lat="43.113650" lon="-4.750600">
        <ele>2623.0</ele>
        <time>2015-03-17T13:52:28Z</time>
      </trkpt>
      <trkpt lat="43.113717" lon="-4.750667">
        <ele>2624.0</ele>
        <time>2015-03-17T13:52:29Z</time>
      </trkpt>
      <trkpt lat="43.113783" lon="-4.750750">
        <ele>2624.0</ele>
        <time>2015-03-17T13:52:30Z</time>
      </trkpt>
      <trkpt lat="43.113850" lon="-4.750833">
        <ele>2624.0</ele>
        <time>2015-03-17T13:52:31Z</time>
      </trkpt>
      <trkpt lat="43.113900" lon="-4.750933">
        <ele>2625.0</ele>
        <time>2015-03-17T13:52:32Z</time>
      </trkpt>
      <trkpt lat="43.113950" lon="-4.751033">
        <ele>2624.0</ele>
        <time>2015-03-17T13:52:33Z</time>
      </trkpt>
      <trkpt lat="43.113983" lon="-4.751133">
        <ele>2624.0</ele>
        <time>2015-03-17T13:52:34Z</time>
      </trkpt>
      <trkpt lat="43.114017" lon="-4.751233">
        <ele>2625.0</ele>
        <time>2015-03-17T13:52:35Z</time>
      </trkpt>
      <trkpt lat="43.114050" lon="-4.751333">
        <ele>2625.0</ele>
        <time>2015-03-17T13:52:36Z</time>
      </trkpt>
      <trkpt lat="43.114067" lon="-4.751450">
        <ele>2625.0</ele>
        <time>2015-03-17T13:52:37Z</time>
      </trkpt>
      <trkpt lat="43.114100" lon="-4.751567">
        <ele>2625.0</ele>
        <time>2015-03-17T13:52:38Z</time>
      </trkpt>
      <trkpt lat="43.114133" lon="-4.751667">
        <ele>2625.0</ele>
        <time>2015-03-17T13:52:39Z</time>
      </trkpt>
      <trkpt lat="43.114167" lon="-4.751783">
        <ele>2624.0</ele>
        <time>2015-03-17T13:52:40Z</time>
      </trkpt>
      <trkpt lat="43.114183" lon="-4.751900">
        <ele>2623.0</ele>
        <time>2015-03-17T13:52:41Z</time>
      </trkpt>
      <trkpt lat="43.114200" lon="-4.752017">
        <ele>2622.0</ele>
        <time>2015-03-17T13:52:42Z</time>
      </trkpt>
      <trkpt lat="43.114233" lon="-4.752133">
        <ele>2622.0</ele>
        <time>2015-03-17T13:52:43Z</time>
      </trkpt>
      <trkpt lat="43.114267" lon="-4.752233">
        <ele>2622.0</ele>
        <time>2015-03-17T13:52:44Z</time>
      </trkpt>
      <trkpt lat="43.114317" lon="-4.752350">
        <ele>2622.0</ele>
        <time>2015-03-17T13:52:45Z</time>
      </trkpt>
      <trkpt lat="43.114350" lon="-4.752467">
        <ele>2620.0</ele>
        <time>2015-03-17T13:52:46Z</time>
      </trkpt>
      <trkpt lat="43.114383" lon="-4.752583">
        <ele>2619.0</ele>
        <time>2015-03-17T13:52:47Z</time>
      </trkpt>
      <trkpt lat="43.114417" lon="-4.752700">
        <ele>2618.0</ele>
        <time>2015-03-17T13:52:48Z</time>
      </trkpt>
      <trkpt lat="43.114450" lon="-4.752833">
        <ele>2617.0</ele>
        <time>2015-03-17T13:52:49Z</time>
      </trkpt>
      <trkpt lat="43.114450" lon="-4.752967">
        <ele>2616.0</ele>
        <time>2015-03-17T13:52:50Z</time>
      </trkpt>
      <trkpt lat="43.114450" lon="-4.753117">
        <ele>2615.0</ele>
        <time>2015-03-17T13:52:51Z</time>
      </trkpt>
      <trkpt lat="43.114450" lon="-4.753250">
        <ele>2614.0</ele>
        <time>2015-03-17T13:52:52Z</time>
      </trkpt>
      <trkpt lat="43.114467" lon="-4.753400">
        <ele>2613.0</ele>
        <time>2015-03-17T13:52:53Z</time>
      </trkpt>
      <trkpt lat="43.114467" lon="-4.753517">
        <ele>2613.0</ele>
        <time>2015-03-17T13:52:54Z</time>
      </trkpt>
      <trkpt lat="43.114500" lon="-4.753650">
        <ele>2613.0</ele>
        <time>2015-03-17T13:52:55Z</time>
      </trkpt>
      <trkpt lat="43.114517" lon="-4.753783">
        <ele>2612.0</ele>
        <time>2015-03-17T13:52:56Z</time>
      </trkpt>
      <trkpt lat="43.114533" lon="-4.753917">
        <ele>2610.0</ele>
        <time>2015-03-17T13:52:57Z</time>
      </trkpt>
      <trkpt lat="43.114550" lon="-4.754067">
        <ele>2608.0</ele>
        <time>2015-03-17T13:52:58Z</time>
      </trkpt>
      <trkpt lat="43.114567" lon="-4.754233">
        <ele>2607.0</ele>
        <time>2015-03-17T13:52:59Z</time>
      </trkpt>
      <trkpt lat="43.114583" lon="-4.754383">
        <ele>2606.0</ele>
        <time>2015-03-17T13:53:00Z</time>
      </trkpt>
      <trkpt lat="43.114600" lon="-4.754533">
        <ele>2606.0</ele>
        <time>2015-03-17T13:53:01Z</time>
      </trkpt>
      <trkpt lat="43.114633" lon="-4.754683">
        <ele>2606.0</ele>
        <time>2015-03-17T13:53:02Z</time>
      </trkpt>
      <trkpt lat="43.114650" lon="-4.754833">
        <ele>2606.0</ele>
        <time>2015-03-17T13:53:03Z</time>
      </trkpt>
      <trkpt lat="43.114650" lon="-4.754967">
        <ele>2606.0</ele>
        <time>2015-03-17T13:53:04Z</time>
      </trkpt>
      <trkpt lat="43.114667" lon="-4.755100">
        <ele>2606.0</ele>
        <time>2015-03-17T13:53:05Z</time>
      </trkpt>
      <trkpt lat="43.114667" lon="-4.755217">
        <ele>2606.0</ele>
        <time>2015-03-17T13:53:06Z</time>
      </trkpt>
      <trkpt lat="43.114667" lon="-4.755333">
        <ele>2606.0</ele>
        <time>2015-03-17T13:53:07Z</time>
      </trkpt>
      <trkpt lat="43.114667" lon="-4.755450">
        <ele>2606.0</ele>
        <time>2015-03-17T13:53:08Z</time>
      </trkpt>
      <trkpt lat="43.114667" lon="-4.755583">
        <ele>2604.0</ele>
        <time>2015-03-17T13:53:09Z</time>
      </trkpt>
      <trkpt lat="43.114667" lon="-4.755750">
        <ele>2603.0</ele>
        <time>2015-03-17T13:53:10Z</time>
      </trkpt>
      <trkpt lat="43.114650" lon="-4.755900">
        <ele>2601.0</ele>
        <time>2015-03-17T13:53:11Z</time>
      </trkpt>
      <trkpt lat="43.114650" lon="-4.756067">
        <ele>2600.0</ele>
        <time>2015-03-17T13:53:12Z</time>
      </trkpt>
      <trkpt lat="43.114650" lon="-4.756217">
        <ele>2600.0</ele>
        <time>2015-03-17T13:53:13Z</time>
      </trkpt>
      <trkpt lat="43.114650" lon="-4.756350">
        <ele>2599.0</ele>
        <time>2015-03-17T13:53:14Z</time>
      </trkpt>
      <trkpt lat="43.114633" lon="-4.756483">
        <ele>2598.0</ele>
        <time>2015-03-17T13:53:15Z</time>
      </trkpt>
      <trkpt lat="43.114633" lon="-4.756600">
        <ele>2596.0</ele>
        <time>2015-03-17T13:53:16Z</time>
      </trkpt>
      <trkpt lat="43.114617" lon="-4.756733">
        <ele>2593.0</ele>
        <time>2015-03-17T13:53:17Z</time>
      </trkpt>
      <trkpt lat="43.114600" lon="-4.756867">
        <ele>2590.0</ele>
        <time>2015-03-17T13:53:18Z</time>
      </trkpt>
      <trkpt lat="43.114600" lon="-4.757017">
        <ele>2587.0</ele>
        <time>2015-03-17T13:53:19Z</time>
      </trkpt>
      <trkpt lat="43.114583" lon="-4.757150">
        <ele>2586.0</ele>
        <time>2015-03-17T13:53:20Z</time>
      </trkpt>
      <trkpt lat="43.114583" lon="-4.757300">
        <ele>2584.0</ele>
        <time>2015-03-17T13:53:21Z</time>
      </trkpt>
      <trkpt lat="43.114567" lon="-4.757417">
        <ele>2583.0</ele>
        <time>2015-03-17T13:53:22Z</time>
      </trkpt>
      <trkpt lat="43.114550" lon="-4.757550">
        <ele>2581.0</ele>
        <time>2015-03-17T13:53:23Z</time>
      </trkpt>
      <trkpt lat="43.114533" lon="-4.757667">
        <ele>2580.0</ele>
        <time>2015-03-17T13:53:24Z</time>
      </trkpt>
      <trkpt lat="43.114517" lon="-4.757783">
        <ele>2578.0</ele>
        <time>2015-03-17T13:53:25Z</time>
      </trkpt>
      <trkpt lat="43.114500" lon="-4.757917">
        <ele>2577.0</ele>
        <time>2015-03-17T13:53:26Z</time>
      </trkpt>
      <trkpt lat="43.114467" lon="-4.758050">
        <ele>2576.0</ele>
        <time>2015-03-17T13:53:27Z</time>
      </trkpt>
      <trkpt lat="43.114450" lon="-4.758167">
        <ele>2575.0</ele>
        <time>2015-03-17T13:53:28Z</time>
      </trkpt>
      <trkpt lat="43.114433" lon="-4.758283">
        <ele>2574.0</ele>
        <time>2015-03-17T13:53:29Z</time>
      </trkpt>
      <trkpt lat="43.114400" lon="-4.758400">
        <ele>2572.0</ele>
        <time>2015-03-17T13:53:30Z</time>
      </trkpt>
      <trkpt lat="43.114367" lon="-4.758517">
        <ele>2570.0</ele>
        <time>2015-03-17T13:53:31Z</time>
      </trkpt>
      <trkpt lat="43.114333" lon="-4.758633">
        <ele>2568.0</ele>
        <time>2015-03-17T13:53:32Z</time>
      </trkpt>
      <trkpt lat="43.114300" lon="-4.758767">
        <ele>2567.0</ele>
        <time>2015-03-17T13:53:33Z</time>
      </trkpt>
      <trkpt lat="43.114267" lon="-4.758883">
        <ele>2566.0</ele>
        <time>2015-03-17T13:53:34Z</time>
      </trkpt>
      <trkpt lat="43.114217" lon="-4.758983">
        <ele>2564.0</ele>
        <time>2015-03-17T13:53:35Z</time>
      </trkpt>
      <trkpt lat="43.114183" lon="-4.759083">
        <ele>2562.0</ele>
        <time>2015-03-17T13:53:36Z</time>
      </trkpt>
      <trkpt lat="43.114150" lon="-4.759183">
        <ele>2561.0</ele>
        <time>2015-03-17T13:53:37Z</time>
      </trkpt>
      <trkpt lat="43.114117" lon="-4.759283">
        <ele>2559.0</ele>
        <time>2015-03-17T13:53:38Z</time>
      </trkpt>
      <trkpt lat="43.114100" lon="-4.759417">
        <ele>2557.0</ele>
        <time>2015-03-17T13:53:39Z</time>
      </trkpt>
      <trkpt lat="43.114067" lon="-4.759533">
        <ele>2555.0</ele>
        <time>2015-03-17T13:53:40Z</time>
      </trkpt>
      <trkpt lat="43.114033" lon="-4.759667">
        <ele>2553.0</ele>
        <time>2015-03-17T13:53:41Z</time>
      </trkpt>
      <trkpt lat="43.113983" lon="-4.759800">
        <ele>2552.0</ele>
        <time>2015-03-17T13:53:42Z</time>
      </trkpt>
      <trkpt lat="43.113950" lon="-4.759917">
        <ele>2551.0</ele>
        <time>2015-03-17T13:53:43Z</time>
      </trkpt>
      <trkpt lat="43.113933" lon="-4.760050">
        <ele>2550.0</ele>
        <time>2015-03-17T13:53:44Z</time>
      </trkpt>
      <trkpt lat="43.113900" lon="-4.760167">
        <ele>2549.0</ele>
        <time>2015-03-17T13:53:45Z</time>
      </trkpt>
      <trkpt lat="43.113883" lon="-4.760300">
        <ele>2547.0</ele>
        <time>2015-03-17T13:53:46Z</time>
      </trkpt>
      <trkpt lat="43.113850" lon="-4.760450">
        <ele>2545.0</ele>
        <time>2015-03-17T13:53:47Z</time>
      </trkpt>
      <trkpt lat="43.113833" lon="-4.760600">
        <ele>2544.0</ele>
        <time>2015-03-17T13:53:48Z</time>
      </trkpt>
      <trkpt lat="43.113800" lon="-4.760733">
        <ele>2543.0</ele>
        <time>2015-03-17T13:53:49Z</time>
      </trkpt>
      <trkpt lat="43.113767" lon="-4.760850">
        <ele>2541.0</ele>
        <time>2015-03-17T13:53:50Z</time>
      </trkpt>
      <trkpt lat="43.113733" lon="-4.760983">
        <ele>2539.0</ele>
        <time>2015-03-17T13:53:51Z</time>
      </trkpt>
      <trkpt lat="43.113700" lon="-4.761100">
        <ele>2537.0</ele>
        <time>2015-03-17T13:53:52Z</time>
      </trkpt>
      <trkpt lat="43.113667" lon="-4.761217">
        <ele>2534.0</ele>
        <time>2015-03-17T13:53:53Z</time>
      </trkpt>
      <trkpt lat="43.113633" lon="-4.761350">
        <ele>2532.0</ele>
        <time>2015-03-17T13:53:54Z</time>
      </trkpt>
      <trkpt lat="43.113600" lon="-4.761467">
        <ele>2529.0</ele>
        <time>2015-03-17T13:53:55Z</time>
      </trkpt>
      <trkpt lat="43.113567" lon="-4.761583">
        <ele>2527.0</ele>
        <time>2015-03-17T13:53:56Z</time>
      </trkpt>
      <trkpt lat="43.113517" lon="-4.761700">
        <ele>2524.0</ele>
        <time>2015-03-17T13:53:57Z</time>
      </trkpt>
      <trkpt lat="43.113483" lon="-4.761817">
        <ele>2522.0</ele>
        <time>2015-03-17T13:53:58Z</time>
      </trkpt>
      <trkpt lat="43.113450" lon="-4.761917">
        <ele>2519.0</ele>
        <time>2015-03-17T13:53:59Z</time>
      </trkpt>
      <trkpt lat="43.113400" lon="-4.762033">
        <ele>2516.0</ele>
        <time>2015-03-17T13:54:00Z</time>
      </trkpt>
      <trkpt lat="43.113350" lon="-4.762167">
        <ele>2512.0</ele>
        <time>2015-03-17T13:54:01Z</time>
      </trkpt>
      <trkpt lat="43.113300" lon="-4.762317">
        <ele>2510.0</ele>
        <time>2015-03-17T13:54:02Z</time>
      </trkpt>
      <trkpt lat="43.113250" lon="-4.762450">
        <ele>2507.0</ele>
        <time>2015-03-17T13:54:03Z</time>
      </trkpt>
      <trkpt lat="43.113217" lon="-4.762583">
        <ele>2505.0</ele>
        <time>2015-03-17T13:54:04Z</time>
      </trkpt>
      <trkpt lat="43.113183" lon="-4.762733">
        <ele>2502.0</ele>
        <time>2015-03-17T13:54:05Z</time>
      </trkpt>
      <trkpt lat="43.113150" lon="-4.762867">
        <ele>2500.0</ele>
        <time>2015-03-17T13:54:06Z</time>
      </trkpt>
      <trkpt lat="43.113100" lon="-4.763000">
        <ele>2497.0</ele>
        <time>2015-03-17T13:54:07Z</time>
      </trkpt>
      <trkpt lat="43.113067" lon="-4.763133">
        <ele>2494.0</ele>
        <time>2015-03-17T13:54:08Z</time>
      </trkpt>
      <trkpt lat="43.113017" lon="-4.763283">
        <ele>2492.0</ele>
        <time>2015-03-17T13:54:09Z</time>
      </trkpt>
      <trkpt lat="43.112983" lon="-4.763417">
        <ele>2490.0</ele>
        <time>2015-03-17T13:54:10Z</time>
      </trkpt>
      <trkpt lat="43.112950" lon="-4.763550">
        <ele>2488.0</ele>
        <time>2015-03-17T13:54:11Z</time>
      </trkpt>
      <trkpt lat="43.112900" lon="-4.763667">
        <ele>2486.0</ele>
        <time>2015-03-17T13:54:12Z</time>
      </trkpt>
      <trkpt lat="43.112867" lon="-4.763800">
        <ele>2484.0</ele>
        <time>2015-03-17T13:54:13Z</time>
      </trkpt>
      <trkpt lat="43.112817" lon="-4.763933">
        <ele>2482.0</ele>
        <time>2015-03-17T13:54:14Z</time>
      </trkpt>
      <trkpt lat="43.112767" lon="-4.764067">
        <ele>2480.0</ele>
        <time>2015-03-17T13:54:15Z</time>
      </trkpt>
      <trkpt lat="43.112717" lon="-4.764200">
        <ele>2478.0</ele>
        <time>2015-03-17T13:54:16Z</time>
      </trkpt>
      <trkpt lat="43.112683" lon="-4.764317">
        <ele>2476.0</ele>
        <time>2015-03-17T13:54:17Z</time>
      </trkpt>
      <trkpt lat="43.112633" lon="-4.764450">
        <ele>2474.0</ele>
        <time>2015-03-17T13:54:18Z</time>
      </trkpt>
      <trkpt lat="43.112583" lon="-4.764567">
        <ele>2472.0</ele>
        <time>2015-03-17T13:54:19Z</time>
      </trkpt>
      <trkpt lat="43.112517" lon="-4.764667">
        <ele>2471.0</ele>
        <time>2015-03-17T13:54:20Z</time>
      </trkpt>
      <trkpt lat="43.112467" lon="-4.764783">
        <ele>2469.0</ele>
        <time>2015-03-17T13:54:21Z</time>
      </trkpt>
      <trkpt lat="43.112400" lon="-4.764900">
        <ele>2467.0</ele>
        <time>2015-03-17T13:54:22Z</time>
      </trkpt>
      <trkpt lat="43.112350" lon="-4.765000">
        <ele>2466.0</ele>
        <time>2015-03-17T13:54:23Z</time>
      </trkpt>
      <trkpt lat="43.112283" lon="-4.765117">
        <ele>2465.0</ele>
        <time>2015-03-17T13:54:24Z</time>
      </trkpt>
      <trkpt lat="43.112217" lon="-4.765217">
        <ele>2464.0</ele>
        <time>2015-03-17T13:54:25Z</time>
      </trkpt>
      <trkpt lat="43.112167" lon="-4.765333">
        <ele>2464.0</ele>
        <time>2015-03-17T13:54:26Z</time>
      </trkpt>
      <trkpt lat="43.112133" lon="-4.765433">
        <ele>2464.0</ele>
        <time>2015-03-17T13:54:27Z</time>
      </trkpt>
      <trkpt lat="43.112100" lon="-4.765533">
        <ele>2463.0</ele>
        <time>2015-03-17T13:54:28Z</time>
      </trkpt>
      <trkpt lat="43.112050" lon="-4.765667">
        <ele>2462.0</ele>
        <time>2015-03-17T13:54:29Z</time>
      </trkpt>
      <trkpt lat="43.112000" lon="-4.765800">
        <ele>2461.0</ele>
        <time>2015-03-17T13:54:30Z</time>
      </trkpt>
      <trkpt lat="43.111950" lon="-4.765933">
        <ele>2460.0</ele>
        <time>2015-03-17T13:54:31Z</time>
      </trkpt>
      <trkpt lat="43.111933" lon="-4.766067">
        <ele>2461.0</ele>
        <time>2015-03-17T13:54:32Z</time>
      </trkpt>
      <trkpt lat="43.111900" lon="-4.766183">
        <ele>2462.0</ele>
        <time>2015-03-17T13:54:33Z</time>
      </trkpt>
      <trkpt lat="43.111867" lon="-4.766300">
        <ele>2462.0</ele>
        <time>2015-03-17T13:54:34Z</time>
      </trkpt>
      <trkpt lat="43.111817" lon="-4.766417">
        <ele>2462.0</ele>
        <time>2015-03-17T13:54:35Z</time>
      </trkpt>
      <trkpt lat="43.111783" lon="-4.766533">
        <ele>2461.0</ele>
        <time>2015-03-17T13:54:36Z</time>
      </trkpt>
      <trkpt lat="43.111750" lon="-4.766667">
        <ele>2460.0</ele>
        <time>2015-03-17T13:54:37Z</time>
      </trkpt>
      <trkpt lat="43.111717" lon="-4.766817">
        <ele>2460.0</ele>
        <time>2015-03-17T13:54:38Z</time>
      </trkpt>
      <trkpt lat="43.111700" lon="-4.766983">
        <ele>2459.0</ele>
        <time>2015-03-17T13:54:39Z</time>
      </trkpt>
      <trkpt lat="43.111667" lon="-4.767133">
        <ele>2459.0</ele>
        <time>2015-03-17T13:54:40Z</time>
      </trkpt>
      <trkpt lat="43.111650" lon="-4.767283">
        <ele>2458.0</ele>
        <time>2015-03-17T13:54:41Z</time>
      </trkpt>
      <trkpt lat="43.111633" lon="-4.767433">
        <ele>2457.0</ele>
        <time>2015-03-17T13:54:42Z</time>
      </trkpt>
      <trkpt lat="43.111617" lon="-4.767567">
        <ele>2456.0</ele>
        <time>2015-03-17T13:54:43Z</time>
      </trkpt>
      <trkpt lat="43.111600" lon="-4.767717">
        <ele>2455.0</ele>
        <time>2015-03-17T13:54:44Z</time>
      </trkpt>
      <trkpt lat="43.111583" lon="-4.767850">
        <ele>2453.0</ele>
        <time>2015-03-17T13:54:45Z</time>
      </trkpt>
      <trkpt lat="43.111567" lon="-4.768000">
        <ele>2451.0</ele>
        <time>2015-03-17T13:54:46Z</time>
      </trkpt>
      <trkpt lat="43.111550" lon="-4.768133">
        <ele>2450.0</ele>
        <time>2015-03-17T13:54:47Z</time>
      </trkpt>
      <trkpt lat="43.111517" lon="-4.768283">
        <ele>2448.0</ele>
        <time>2015-03-17T13:54:48Z</time>
      </trkpt>
      <trkpt lat="43.111500" lon="-4.768417">
        <ele>2447.0</ele>
        <time>2015-03-17T13:54:49Z</time>
      </trkpt>
      <trkpt lat="43.111467" lon="-4.768567">
        <ele>2445.0</ele>
        <time>2015-03-17T13:54:50Z</time>
      </trkpt>
      <trkpt lat="43.111450" lon="-4.768700">
        <ele>2444.0</ele>
        <time>2015-03-17T13:54:51Z</time>
      </trkpt>
      <trkpt lat="43.111433" lon="-4.768867">
        <ele>2442.0</ele>
        <time>2015-03-17T13:54:52Z</time>
      </trkpt>
      <trkpt lat="43.111400" lon="-4.769017">
        <ele>2439.0</ele>
        <time>2015-03-17T13:54:53Z</time>
      </trkpt>
      <trkpt lat="43.111383" lon="-4.769200">
        <ele>2437.0</ele>
        <time>2015-03-17T13:54:54Z</time>
      </trkpt>
      <trkpt lat="43.111383" lon="-4.769350">
        <ele>2435.0</ele>
        <time>2015-03-17T13:54:55Z</time>
      </trkpt>
      <trkpt lat="43.111383" lon="-4.769517">
        <ele>2434.0</ele>
        <time>2015-03-17T13:54:56Z</time>
      </trkpt>
      <trkpt lat="43.111367" lon="-4.769667">
        <ele>2432.0</ele>
        <time>2015-03-17T13:54:57Z</time>
      </trkpt>
      <trkpt lat="43.111367" lon="-4.769817">
        <ele>2429.0</ele>
        <time>2015-03-17T13:54:58Z</time>
      </trkpt>
      <trkpt lat="43.111367" lon="-4.770000">
        <ele>2426.0</ele>
        <time>2015-03-17T13:54:59Z</time>
      </trkpt>
      <trkpt lat="43.111383" lon="-4.770167">
        <ele>2424.0</ele>
        <time>2015-03-17T13:55:00Z</time>
      </trkpt>
      <trkpt lat="43.111400" lon="-4.770350">
        <ele>2422.0</ele>
        <time>2015-03-17T13:55:01Z</time>
      </trkpt>
      <trkpt lat="43.111400" lon="-4.770500">
        <ele>2420.0</ele>
        <time>2015-03-17T13:55:02Z</time>
      </trkpt>
      <trkpt lat="43.111417" lon="-4.770667">
        <ele>2418.0</ele>
        <time>2015-03-17T13:55:03Z</time>
      </trkpt>
      <trkpt lat="43.111417" lon="-4.770817">
        <ele>2416.0</ele>
        <time>2015-03-17T13:55:04Z</time>
      </trkpt>
      <trkpt lat="43.111417" lon="-4.770967">
        <ele>2413.0</ele>
        <time>2015-03-17T13:55:05Z</time>
      </trkpt>
      <trkpt lat="43.111400" lon="-4.771117">
        <ele>2411.0</ele>
        <time>2015-03-17T13:55:06Z</time>
      </trkpt>
      <trkpt lat="43.111383" lon="-4.771283">
        <ele>2408.0</ele>
        <time>2015-03-17T13:55:07Z</time>
      </trkpt>
      <trkpt lat="43.111367" lon="-4.771433">
        <ele>2406.0</ele>
        <time>2015-03-17T13:55:08Z</time>
      </trkpt>
      <trkpt lat="43.111350" lon="-4.771583">
        <ele>2405.0</ele>
        <time>2015-03-17T13:55:09Z</time>
      </trkpt>
      <trkpt lat="43.111317" lon="-4.771733">
        <ele>2404.0</ele>
        <time>2015-03-17T13:55:10Z</time>
      </trkpt>
      <trkpt lat="43.111300" lon="-4.771883">
        <ele>2402.0</ele>
        <time>2015-03-17T13:55:11Z</time>
      </trkpt>
      <trkpt lat="43.111283" lon="-4.772033">
        <ele>2401.0</ele>
        <time>2015-03-17T13:55:12Z</time>
      </trkpt>
      <trkpt lat="43.111250" lon="-4.772183">
        <ele>2399.0</ele>
        <time>2015-03-17T13:55:13Z</time>
      </trkpt>
      <trkpt lat="43.111233" lon="-4.772333">
        <ele>2397.0</ele>
        <time>2015-03-17T13:55:14Z</time>
      </trkpt>
      <trkpt lat="43.111200" lon="-4.772483">
        <ele>2395.0</ele>
        <time>2015-03-17T13:55:15Z</time>
      </trkpt>
      <trkpt lat="43.111167" lon="-4.772633">
        <ele>2394.0</ele>
        <time>2015-03-17T13:55:16Z</time>
      </trkpt>
      <trkpt lat="43.111150" lon="-4.772767">
        <ele>2392.0</ele>
        <time>2015-03-17T13:55:17Z</time>
      </trkpt>
      <trkpt lat="43.111117" lon="-4.772917">
        <ele>2390.0</ele>
        <time>2015-03-17T13:55:18Z</time>
      </trkpt>
      <trkpt lat="43.111100" lon="-4.773067">
        <ele>2389.0</ele>
        <time>2015-03-17T13:55:19Z</time>
      </trkpt>
      <trkpt lat="43.111083" lon="-4.773217">
        <ele>2388.0</ele>
        <time>2015-03-17T13:55:20Z</time>
      </trkpt>
      <trkpt lat="43.111050" lon="-4.773367">
        <ele>2386.0</ele>
        <time>2015-03-17T13:55:21Z</time>
      </trkpt>
      <trkpt lat="43.111033" lon="-4.773517">
        <ele>2385.0</ele>
        <time>2015-03-17T13:55:22Z</time>
      </trkpt>
      <trkpt lat="43.111017" lon="-4.773650">
        <ele>2383.0</ele>
        <time>2015-03-17T13:55:23Z</time>
      </trkpt>
      <trkpt lat="43.110983" lon="-4.773800">
        <ele>2381.0</ele>
        <time>2015-03-17T13:55:24Z</time>
      </trkpt>
      <trkpt lat="43.110967" lon="-4.773950">
        <ele>2379.0</ele>
        <time>2015-03-17T13:55:25Z</time>
      </trkpt>
      <trkpt lat="43.110933" lon="-4.774100">
        <ele>2377.0</ele>
        <time>2015-03-17T13:55:26Z</time>
      </trkpt>
      <trkpt lat="43.110917" lon="-4.774250">
        <ele>2375.0</ele>
        <time>2015-03-17T13:55:27Z</time>
      </trkpt>
      <trkpt lat="43.110883" lon="-4.774400">
        <ele>2374.0</ele>
        <time>2015-03-17T13:55:28Z</time>
      </trkpt>
      <trkpt lat="43.110850" lon="-4.774533">
        <ele>2372.0</ele>
        <time>2015-03-17T13:55:29Z</time>
      </trkpt>
      <trkpt lat="43.110833" lon="-4.774667">
        <ele>2369.0</ele>
        <time>2015-03-17T13:55:30Z</time>
      </trkpt>
      <trkpt lat="43.110800" lon="-4.774817">
        <ele>2367.0</ele>
        <time>2015-03-17T13:55:31Z</time>
      </trkpt>
      <trkpt lat="43.110767" lon="-4.774950">
        <ele>2365.0</ele>
        <time>2015-03-17T13:55:32Z</time>
      </trkpt>
      <trkpt lat="43.110750" lon="-4.775100">
        <ele>2364.0</ele>
        <time>2015-03-17T13:55:33Z</time>
      </trkpt>
      <trkpt lat="43.110733" lon="-4.775233">
        <ele>2362.0</ele>
        <time>2015-03-17T13:55:34Z</time>
      </trkpt>
      <trkpt lat="43.110700" lon="-4.775367">
        <ele>2361.0</ele>
        <time>2015-03-17T13:55:35Z</time>
      </trkpt>
      <trkpt lat="43.110683" lon="-4.775500">
        <ele>2360.0</ele>
        <time>2015-03-17T13:55:36Z</time>
      </trkpt>
      <trkpt lat="43.110667" lon="-4.775633">
        <ele>2358.0</ele>
        <time>2015-03-17T13:55:37Z</time>
      </trkpt>
      <trkpt lat="43.110650" lon="-4.775767">
        <ele>2356.0</ele>
        <time>2015-03-17T13:55:38Z</time>
      </trkpt>
      <trkpt lat="43.110633" lon="-4.775900">
        <ele>2355.0</ele>
        <time>2015-03-17T13:55:39Z</time>
      </trkpt>
      <trkpt lat="43.110617" lon="-4.776033">
        <ele>2352.0</ele>
        <time>2015-03-17T13:55:40Z</time>
      </trkpt>
      <trkpt lat="43.110583" lon="-4.776167">
        <ele>2350.0</ele>
        <time>2015-03-17T13:55:41Z</time>
      </trkpt>
      <trkpt lat="43.110567" lon="-4.776317">
        <ele>2348.0</ele>
        <time>2015-03-17T13:55:42Z</time>
      </trkpt>
      <trkpt lat="43.110550" lon="-4.776467">
        <ele>2346.0</ele>
        <time>2015-03-17T13:55:43Z</time>
      </trkpt>
      <trkpt lat="43.110550" lon="-4.776600">
        <ele>2345.0</ele>
        <time>2015-03-17T13:55:44Z</time>
      </trkpt>
      <trkpt lat="43.110533" lon="-4.776750">
        <ele>2343.0</ele>
        <time>2015-03-17T13:55:45Z</time>
      </trkpt>
      <trkpt lat="43.110533" lon="-4.776900">
        <ele>2341.0</ele>
        <time>2015-03-17T13:55:46Z</time>
      </trkpt>
      <trkpt lat="43.110517" lon="-4.777033">
        <ele>2340.0</ele>
        <time>2015-03-17T13:55:47Z</time>
      </trkpt>
      <trkpt lat="43.110517" lon="-4.777167">
        <ele>2338.0</ele>
        <time>2015-03-17T13:55:48Z</time>
      </trkpt>
      <trkpt lat="43.110533" lon="-4.777317">
        <ele>2336.0</ele>
        <time>2015-03-17T13:55:49Z</time>
      </trkpt>
      <trkpt lat="43.110550" lon="-4.777450">
        <ele>2334.0</ele>
        <time>2015-03-17T13:55:50Z</time>
      </trkpt>
      <trkpt lat="43.110567" lon="-4.777600">
        <ele>2333.0</ele>
        <time>2015-03-17T13:55:51Z</time>
      </trkpt>
      <trkpt lat="43.110583" lon="-4.777733">
        <ele>2331.0</ele>
        <time>2015-03-17T13:55:52Z</time>
      </trkpt>
      <trkpt lat="43.110600" lon="-4.777883">
        <ele>2329.0</ele>
        <time>2015-03-17T13:55:53Z</time>
      </trkpt>
      <trkpt lat="43.110633" lon="-4.778017">
        <ele>2327.0</ele>
        <time>2015-03-17T13:55:54Z</time>
      </trkpt>
      <trkpt lat="43.110667" lon="-4.778167">
        <ele>2325.0</ele>
        <time>2015-03-17T13:55:55Z</time>
      </trkpt>
      <trkpt lat="43.110700" lon="-4.778300">
        <ele>2323.0</ele>
        <time>2015-03-17T13:55:56Z</time>
      </trkpt>
      <trkpt lat="43.110717" lon="-4.778450">
        <ele>2321.0</ele>
        <time>2015-03-17T13:55:57Z</time>
      </trkpt>
      <trkpt lat="43.110750" lon="-4.778583">
        <ele>2320.0</ele>
        <time>2015-03-17T13:55:58Z</time>
      </trkpt>
      <trkpt lat="43.110767" lon="-4.778733">
        <ele>2318.0</ele>
        <time>2015-03-17T13:55:59Z</time>
      </trkpt>
      <trkpt lat="43.110783" lon="-4.778867">
        <ele>2316.0</ele>
        <time>2015-03-17T13:56:00Z</time>
      </trkpt>
      <trkpt lat="43.110800" lon="-4.779017">
        <ele>2315.0</ele>
        <time>2015-03-17T13:56:01Z</time>
      </trkpt>
      <trkpt lat="43.110817" lon="-4.779167">
        <ele>2313.0</ele>
        <time>2015-03-17T13:56:02Z</time>
      </trkpt>
      <trkpt lat="43.110833" lon="-4.779317">
        <ele>2312.0</ele>
        <time>2015-03-17T13:56:03Z</time>
      </trkpt>
      <trkpt lat="43.110850" lon="-4.779450">
        <ele>2310.0</ele>
        <time>2015-03-17T13:56:04Z</time>
      </trkpt>
      <trkpt lat="43.110867" lon="-4.779600">
        <ele>2309.0</ele>
        <time>2015-03-17T13:56:05Z</time>
      </trkpt>
      <trkpt lat="43.110867" lon="-4.779750">
        <ele>2307.0</ele>
        <time>2015-03-17T13:56:06Z</time>
      </trkpt>
      <trkpt lat="43.110883" lon="-4.779883">
        <ele>2305.0</ele>
        <time>2015-03-17T13:56:07Z</time>
      </trkpt>
      <trkpt lat="43.110883" lon="-4.780033">
        <ele>2303.0</ele>
        <time>2015-03-17T13:56:08Z</time>
      </trkpt>
      <trkpt lat="43.110900" lon="-4.780183">
        <ele>2301.0</ele>
        <time>2015-03-17T13:56:09Z</time>
      </trkpt>
      <trkpt lat="43.110900" lon="-4.780333">
        <ele>2299.0</ele>
        <time>2015-03-17T13:56:10Z</time>
      </trkpt>
      <trkpt lat="43.110917" lon="-4.780483">
        <ele>2298.0</ele>
        <time>2015-03-17T13:56:11Z</time>
      </trkpt>
      <trkpt lat="43.110917" lon="-4.780633">
        <ele>2296.0</ele>
        <time>2015-03-17T13:56:12Z</time>
      </trkpt>
      <trkpt lat="43.110900" lon="-4.780767">
        <ele>2295.0</ele>
        <time>2015-03-17T13:56:13Z</time>
      </trkpt>
      <trkpt lat="43.110900" lon="-4.780917">
        <ele>2293.0</ele>
        <time>2015-03-17T13:56:14Z</time>
      </trkpt>
      <trkpt lat="43.110917" lon="-4.781067">
        <ele>2291.0</ele>
        <time>2015-03-17T13:56:15Z</time>
      </trkpt>
      <trkpt lat="43.110917" lon="-4.781217">
        <ele>2290.0</ele>
        <time>2015-03-17T13:56:16Z</time>
      </trkpt>
      <trkpt lat="43.110917" lon="-4.781367">
        <ele>2289.0</ele>
        <time>2015-03-17T13:56:17Z</time>
      </trkpt>
      <trkpt lat="43.110917" lon="-4.781500">
        <ele>2288.0</ele>
        <time>2015-03-17T13:56:18Z</time>
      </trkpt>
      <trkpt lat="43.110900" lon="-4.781650">
        <ele>2287.0</ele>
        <time>2015-03-17T13:56:19Z</time>
      </trkpt>
      <trkpt lat="43.110900" lon="-4.781783">
        <ele>2285.0</ele>
        <time>2015-03-17T13:56:20Z</time>
      </trkpt>
      <trkpt lat="43.110900" lon="-4.781933">
        <ele>2283.0</ele>
        <time>2015-03-17T13:56:21Z</time>
      </trkpt>
      <trkpt lat="43.110900" lon="-4.782067">
        <ele>2282.0</ele>
        <time>2015-03-17T13:56:22Z</time>
      </trkpt>
      <trkpt lat="43.110900" lon="-4.782217">
        <ele>2282.0</ele>
        <time>2015-03-17T13:56:23Z</time>
      </trkpt>
      <trkpt lat="43.110900" lon="-4.782350">
        <ele>2281.0</ele>
        <time>2015-03-17T13:56:24Z</time>
      </trkpt>
      <trkpt lat="43.110900" lon="-4.782467">
        <ele>2280.0</ele>
        <time>2015-03-17T13:56:25Z</time>
      </trkpt>
      <trkpt lat="43.110917" lon="-4.782600">
        <ele>2279.0</ele>
        <time>2015-03-17T13:56:26Z</time>
      </trkpt>
      <trkpt lat="43.110917" lon="-4.782733">
        <ele>2277.0</ele>
        <time>2015-03-17T13:56:27Z</time>
      </trkpt>
      <trkpt lat="43.110917" lon="-4.782883">
        <ele>2275.0</ele>
        <time>2015-03-17T13:56:28Z</time>
      </trkpt>
      <trkpt lat="43.110917" lon="-4.783017">
        <ele>2274.0</ele>
        <time>2015-03-17T13:56:29Z</time>
      </trkpt>
      <trkpt lat="43.110900" lon="-4.783150">
        <ele>2273.0</ele>
        <time>2015-03-17T13:56:30Z</time>
      </trkpt>
      <trkpt lat="43.110917" lon="-4.783267">
        <ele>2272.0</ele>
        <time>2015-03-17T13:56:31Z</time>
      </trkpt>
      <trkpt lat="43.110917" lon="-4.783400">
        <ele>2270.0</ele>
        <time>2015-03-17T13:56:32Z</time>
      </trkpt>
      <trkpt lat="43.110917" lon="-4.783533">
        <ele>2268.0</ele>
        <time>2015-03-17T13:56:33Z</time>
      </trkpt>
      <trkpt lat="43.110933" lon="-4.783667">
        <ele>2266.0</ele>
        <time>2015-03-17T13:56:34Z</time>
      </trkpt>
      <trkpt lat="43.110933" lon="-4.783817">
        <ele>2265.0</ele>
        <time>2015-03-17T13:56:35Z</time>
      </trkpt>
      <trkpt lat="43.110950" lon="-4.783950">
        <ele>2264.0</ele>
        <time>2015-03-17T13:56:36Z</time>
      </trkpt>
      <trkpt lat="43.110950" lon="-4.784083">
        <ele>2263.0</ele>
        <time>2015-03-17T13:56:37Z</time>
      </trkpt>
      <trkpt lat="43.110967" lon="-4.784200">
        <ele>2261.0</ele>
        <time>2015-03-17T13:56:38Z</time>
      </trkpt>
      <trkpt lat="43.110967" lon="-4.784333">
        <ele>2260.0</ele>
        <time>2015-03-17T13:56:39Z</time>
      </trkpt>
      <trkpt lat="43.110983" lon="-4.784467">
        <ele>2258.0</ele>
        <time>2015-03-17T13:56:40Z</time>
      </trkpt>
      <trkpt lat="43.110983" lon="-4.784617">
        <ele>2256.0</ele>
        <time>2015-03-17T13:56:41Z</time>
      </trkpt>
      <trkpt lat="43.111000" lon="-4.784750">
        <ele>2254.0</ele>
        <time>2015-03-17T13:56:42Z</time>
      </trkpt>
      <trkpt lat="43.111000" lon="-4.784883">
        <ele>2252.0</ele>
        <time>2015-03-17T13:56:43Z</time>
      </trkpt>
      <trkpt lat="43.111017" lon="-4.785017">
        <ele>2251.0</ele>
        <time>2015-03-17T13:56:44Z</time>
      </trkpt>
      <trkpt lat="43.111017" lon="-4.785150">
        <ele>2249.0</ele>
        <time>2015-03-17T13:56:45Z</time>
      </trkpt>
      <trkpt lat="43.111033" lon="-4.785283">
        <ele>2248.0</ele>
        <time>2015-03-17T13:56:46Z</time>
      </trkpt>
      <trkpt lat="43.111033" lon="-4.785417">
        <ele>2246.0</ele>
        <time>2015-03-17T13:56:47Z</time>
      </trkpt>
      <trkpt lat="43.111033" lon="-4.785550">
        <ele>2244.0</ele>
        <time>2015-03-17T13:56:48Z</time>
      </trkpt>
      <trkpt lat="43.111033" lon="-4.785683">
        <ele>2242.0</ele>
        <time>2015-03-17T13:56:49Z</time>
      </trkpt>
      <trkpt lat="43.111033" lon="-4.785817">
        <ele>2241.0</ele>
        <time>2015-03-17T13:56:50Z</time>
      </trkpt>
      <trkpt lat="43.111033" lon="-4.785950">
        <ele>2239.0</ele>
        <time>2015-03-17T13:56:51Z</time>
      </trkpt>
      <trkpt lat="43.111033" lon="-4.786083">
        <ele>2237.0</ele>
        <time>2015-03-17T13:56:52Z</time>
      </trkpt>
      <trkpt lat="43.111033" lon="-4.786217">
        <ele>2235.0</ele>
        <time>2015-03-17T13:56:53Z</time>
      </trkpt>
      <trkpt lat="43.111050" lon="-4.786350">
        <ele>2232.0</ele>
        <time>2015-03-17T13:56:54Z</time>
      </trkpt>
      <trkpt lat="43.111050" lon="-4.786483">
        <ele>2230.0</ele>
        <time>2015-03-17T13:56:55Z</time>
      </trkpt>
      <trkpt lat="43.111050" lon="-4.786617">
        <ele>2228.0</ele>
        <time>2015-03-17T13:56:56Z</time>
      </trkpt>
      <trkpt lat="43.111067" lon="-4.786750">
        <ele>2226.0</ele>
        <time>2015-03-17T13:56:57Z</time>
      </trkpt>
      <trkpt lat="43.111067" lon="-4.786883">
        <ele>2224.0</ele>
        <time>2015-03-17T13:56:58Z</time>
      </trkpt>
      <trkpt lat="43.111083" lon="-4.787000">
        <ele>2222.0</ele>
        <time>2015-03-17T13:56:59Z</time>
      </trkpt>
      <trkpt lat="43.111100" lon="-4.787133">
        <ele>2220.0</ele>
        <time>2015-03-17T13:57:00Z</time>
      </trkpt>
      <trkpt lat="43.111117" lon="-4.787283">
        <ele>2218.0</ele>
        <time>2015-03-17T13:57:01Z</time>
      </trkpt>
      <trkpt lat="43.111133" lon="-4.787417">
        <ele>2216.0</ele>
        <time>2015-03-17T13:57:02Z</time>
      </trkpt>
      <trkpt lat="43.111150" lon="-4.787567">
        <ele>2215.0</ele>
        <time>2015-03-17T13:57:03Z</time>
      </trkpt>
      <trkpt lat="43.111150" lon="-4.787683">
        <ele>2215.0</ele>
        <time>2015-03-17T13:57:04Z</time>
      </trkpt>
      <trkpt lat="43.111167" lon="-4.787817">
        <ele>2213.0</ele>
        <time>2015-03-17T13:57:05Z</time>
      </trkpt>
      <trkpt lat="43.111167" lon="-4.787933">
        <ele>2212.0</ele>
        <time>2015-03-17T13:57:06Z</time>
      </trkpt>
      <trkpt lat="43.111183" lon="-4.788050">
        <ele>2209.0</ele>
        <time>2015-03-17T13:57:07Z</time>
      </trkpt>
      <trkpt lat="43.111217" lon="-4.788167">
        <ele>2206.0</ele>
        <time>2015-03-17T13:57:08Z</time>
      </trkpt>
      <trkpt lat="43.111233" lon="-4.788300">
        <ele>2205.0</ele>
        <time>2015-03-17T13:57:09Z</time>
      </trkpt>
      <trkpt lat="43.111267" lon="-4.788433">
        <ele>2203.0</ele>
        <time>2015-03-17T13:57:10Z</time>
      </trkpt>
      <trkpt lat="43.111283" lon="-4.788550">
        <ele>2202.0</ele>
        <time>2015-03-17T13:57:11Z</time>
      </trkpt>
      <trkpt lat="43.111300" lon="-4.788667">
        <ele>2203.0</ele>
        <time>2015-03-17T13:57:12Z</time>
      </trkpt>
      <trkpt lat="43.111317" lon="-4.788783">
        <ele>2201.0</ele>
        <time>2015-03-17T13:57:13Z</time>
      </trkpt>
      <trkpt lat="43.111350" lon="-4.788917">
        <ele>2199.0</ele>
        <time>2015-03-17T13:57:14Z</time>
      </trkpt>
      <trkpt lat="43.111383" lon="-4.789050">
        <ele>2196.0</ele>
        <time>2015-03-17T13:57:15Z</time>
      </trkpt>
      <trkpt lat="43.111400" lon="-4.789200">
        <ele>2193.0</ele>
        <time>2015-03-17T13:57:16Z</time>
      </trkpt>
      <trkpt lat="43.111433" lon="-4.789367">
        <ele>2190.0</ele>
        <time>2015-03-17T13:57:17Z</time>
      </trkpt>
      <trkpt lat="43.111467" lon="-4.789517">
        <ele>2187.0</ele>
        <time>2015-03-17T13:57:18Z</time>
      </trkpt>
      <trkpt lat="43.111500" lon="-4.789667">
        <ele>2185.0</ele>
        <time>2015-03-17T13:57:19Z</time>
      </trkpt>
      <trkpt lat="43.111533" lon="-4.789817">
        <ele>2183.0</ele>
        <time>2015-03-17T13:57:20Z</time>
      </trkpt>
      <trkpt lat="43.111567" lon="-4.789967">
        <ele>2182.0</ele>
        <time>2015-03-17T13:57:21Z</time>
      </trkpt>
      <trkpt lat="43.111617" lon="-4.790117">
        <ele>2180.0</ele>
        <time>2015-03-17T13:57:22Z</time>
      </trkpt>
      <trkpt lat="43.111650" lon="-4.790267">
        <ele>2178.0</ele>
        <time>2015-03-17T13:57:23Z</time>
      </trkpt>
      <trkpt lat="43.111700" lon="-4.790433">
        <ele>2176.0</ele>
        <time>2015-03-17T13:57:24Z</time>
      </trkpt>
      <trkpt lat="43.111750" lon="-4.790583">
        <ele>2175.0</ele>
        <time>2015-03-17T13:57:25Z</time>
      </trkpt>
      <trkpt lat="43.111783" lon="-4.790733">
        <ele>2175.0</ele>
        <time>2015-03-17T13:57:26Z</time>
      </trkpt>
      <trkpt lat="43.111833" lon="-4.790867">
        <ele>2174.0</ele>
        <time>2015-03-17T13:57:27Z</time>
      </trkpt>
      <trkpt lat="43.111867" lon="-4.791000">
        <ele>2174.0</ele>
        <time>2015-03-17T13:57:28Z</time>
      </trkpt>
      <trkpt lat="43.111917" lon="-4.791117">
        <ele>2173.0</ele>
        <time>2015-03-17T13:57:29Z</time>
      </trkpt>
      <trkpt lat="43.111950" lon="-4.791250">
        <ele>2172.0</ele>
        <time>2015-03-17T13:57:30Z</time>
      </trkpt>
      <trkpt lat="43.111983" lon="-4.791383">
        <ele>2171.0</ele>
        <time>2015-03-17T13:57:31Z</time>
      </trkpt>
      <trkpt lat="43.112017" lon="-4.791517">
        <ele>2170.0</ele>
        <time>2015-03-17T13:57:32Z</time>
      </trkpt>
      <trkpt lat="43.112033" lon="-4.791650">
        <ele>2170.0</ele>
        <time>2015-03-17T13:57:33Z</time>
      </trkpt>
      <trkpt lat="43.112033" lon="-4.791767">
        <ele>2170.0</ele>
        <time>2015-03-17T13:57:34Z</time>
      </trkpt>
      <trkpt lat="43.112050" lon="-4.791883">
        <ele>2169.0</ele>
        <time>2015-03-17T13:57:35Z</time>
      </trkpt>
      <trkpt lat="43.112050" lon="-4.792017">
        <ele>2168.0</ele>
        <time>2015-03-17T13:57:36Z</time>
      </trkpt>
      <trkpt lat="43.112067" lon="-4.792150">
        <ele>2166.0</ele>
        <time>2015-03-17T13:57:37Z</time>
      </trkpt>
      <trkpt lat="43.112083" lon="-4.792283">
        <ele>2164.0</ele>
        <time>2015-03-17T13:57:38Z</time>
      </trkpt>
      <trkpt lat="43.112100" lon="-4.792417">
        <ele>2163.0</ele>
        <time>2015-03-17T13:57:39Z</time>
      </trkpt>
      <trkpt lat="43.112117" lon="-4.792550">
        <ele>2161.0</ele>
        <time>2015-03-17T13:57:40Z</time>
      </trkpt>
      <trkpt lat="43.112117" lon="-4.792667">
        <ele>2160.0</ele>
        <time>2015-03-17T13:57:41Z</time>
      </trkpt>
      <trkpt lat="43.112133" lon="-4.792783">
        <ele>2159.0</ele>
        <time>2015-03-17T13:57:42Z</time>
      </trkpt>
      <trkpt lat="43.112150" lon="-4.792900">
        <ele>2157.0</ele>
        <time>2015-03-17T13:57:43Z</time>
      </trkpt>
      <trkpt lat="43.112167" lon="-4.793033">
        <ele>2155.0</ele>
        <time>2015-03-17T13:57:44Z</time>
      </trkpt>
      <trkpt lat="43.112200" lon="-4.793167">
        <ele>2152.0</ele>
        <time>2015-03-17T13:57:45Z</time>
      </trkpt>
      <trkpt lat="43.112233" lon="-4.793283">
        <ele>2151.0</ele>
        <time>2015-03-17T13:57:46Z</time>
      </trkpt>
      <trkpt lat="43.112250" lon="-4.793400">
        <ele>2149.0</ele>
        <time>2015-03-17T13:57:47Z</time>
      </trkpt>
      <trkpt lat="43.112283" lon="-4.793517">
        <ele>2147.0</ele>
        <time>2015-03-17T13:57:48Z</time>
      </trkpt>
      <trkpt lat="43.112300" lon="-4.793617">
        <ele>2145.0</ele>
        <time>2015-03-17T13:57:49Z</time>
      </trkpt>
      <trkpt lat="43.112333" lon="-4.793750">
        <ele>2141.0</ele>
        <time>2015-03-17T13:57:50Z</time>
      </trkpt>
      <trkpt lat="43.112383" lon="-4.793900">
        <ele>2138.0</ele>
        <time>2015-03-17T13:57:51Z</time>
      </trkpt>
      <trkpt lat="43.112417" lon="-4.794050">
        <ele>2135.0</ele>
        <time>2015-03-17T13:57:52Z</time>
      </trkpt>
      <trkpt lat="43.112467" lon="-4.794183">
        <ele>2134.0</ele>
        <time>2015-03-17T13:57:53Z</time>
      </trkpt>
      <trkpt lat="43.112517" lon="-4.794300">
        <ele>2132.0</ele>
        <time>2015-03-17T13:57:54Z</time>
      </trkpt>
      <trkpt lat="43.112567" lon="-4.794417">
        <ele>2130.0</ele>
        <time>2015-03-17T13:57:55Z</time>
      </trkpt>
      <trkpt lat="43.112617" lon="-4.794533">
        <ele>2127.0</ele>
        <time>2015-03-17T13:57:56Z</time>
      </trkpt>
      <trkpt lat="43.112683" lon="-4.794633">
        <ele>2123.0</ele>
        <time>2015-03-17T13:57:57Z</time>
      </trkpt>
      <trkpt lat="43.112750" lon="-4.794750">
        <ele>2120.0</ele>
        <time>2015-03-17T13:57:58Z</time>
      </trkpt>
      <trkpt lat="43.112833" lon="-4.794867">
        <ele>2118.0</ele>
        <time>2015-03-17T13:57:59Z</time>
      </trkpt>
      <trkpt lat="43.112917" lon="-4.794950">
        <ele>2116.0</ele>
        <time>2015-03-17T13:58:00Z</time>
      </trkpt>
      <trkpt lat="43.113017" lon="-4.795050">
        <ele>2114.0</ele>
        <time>2015-03-17T13:58:01Z</time>
      </trkpt>
      <trkpt lat="43.113083" lon="-4.795150">
        <ele>2111.0</ele>
        <time>2015-03-17T13:58:02Z</time>
      </trkpt>
      <trkpt lat="43.113167" lon="-4.795250">
        <ele>2109.0</ele>
        <time>2015-03-17T13:58:03Z</time>
      </trkpt>
      <trkpt lat="43.113233" lon="-4.795350">
        <ele>2106.0</ele>
        <time>2015-03-17T13:58:04Z</time>
      </trkpt>
      <trkpt lat="43.113317" lon="-4.795450">
        <ele>2104.0</ele>
        <time>2015-03-17T13:58:05Z</time>
      </trkpt>
      <trkpt lat="43.113383" lon="-4.795550">
        <ele>2101.0</ele>
        <time>2015-03-17T13:58:06Z</time>
      </trkpt>
      <trkpt lat="43.113450" lon="-4.795667">
        <ele>2099.0</ele>
        <time>2015-03-17T13:58:07Z</time>
      </trkpt>
      <trkpt lat="43.113517" lon="-4.795783">
        <ele>2096.0</ele>
        <time>2015-03-17T13:58:08Z</time>
      </trkpt>
      <trkpt lat="43.113567" lon="-4.795900">
        <ele>2093.0</ele>
        <time>2015-03-17T13:58:09Z</time>
      </trkpt>
      <trkpt lat="43.113633" lon="-4.796017">
        <ele>2090.0</ele>
        <time>2015-03-17T13:58:10Z</time>
      </trkpt>
      <trkpt lat="43.113683" lon="-4.796133">
        <ele>2087.0</ele>
        <time>2015-03-17T13:58:11Z</time>
      </trkpt>
      <trkpt lat="43.113733" lon="-4.796250">
        <ele>2085.0</ele>
        <time>2015-03-17T13:58:12Z</time>
      </trkpt>
      <trkpt lat="43.113783" lon="-4.796383">
        <ele>2082.0</ele>
        <time>2015-03-17T13:58:13Z</time>
      </trkpt>
      <trkpt lat="43.113833" lon="-4.796500">
        <ele>2080.0</ele>
        <time>2015-03-17T13:58:14Z</time>
      </trkpt>
      <trkpt lat="43.113883" lon="-4.796633">
        <ele>2077.0</ele>
        <time>2015-03-17T13:58:15Z</time>
      </trkpt>
      <trkpt lat="43.113917" lon="-4.796750">
        <ele>2075.0</ele>
        <time>2015-03-17T13:58:16Z</time>
      </trkpt>
      <trkpt lat="43.113967" lon="-4.796883">
        <ele>2072.0</ele>
        <time>2015-03-17T13:58:17Z</time>
      </trkpt>
      <trkpt lat="43.114017" lon="-4.797000">
        <ele>2070.0</ele>
        <time>2015-03-17T13:58:18Z</time>
      </trkpt>
      <trkpt lat="43.114083" lon="-4.797117">
        <ele>2067.0</ele>
        <time>2015-03-17T13:58:19Z</time>
      </trkpt>
      <trkpt lat="43.114133" lon="-4.797250">
        <ele>2065.0</ele>
        <time>2015-03-17T13:58:20Z</time>
      </trkpt>
      <trkpt lat="43.114200" lon="-4.797367">
        <ele>2063.0</ele>
        <time>2015-03-17T13:58:21Z</time>
      </trkpt>
      <trkpt lat="43.114267" lon="-4.797467">
        <ele>2061.0</ele>
        <time>2015-03-17T13:58:22Z</time>
      </trkpt>
      <trkpt lat="43.114333" lon="-4.797567">
        <ele>2060.0</ele>
        <time>2015-03-17T13:58:23Z</time>
      </trkpt>
      <trkpt lat="43.114383" lon="-4.797650">
        <ele>2058.0</ele>
        <time>2015-03-17T13:58:24Z</time>
      </trkpt>
      <trkpt lat="43.114417" lon="-4.797733">
        <ele>2057.0</ele>
        <time>2015-03-17T13:58:25Z</time>
      </trkpt>
      <trkpt lat="43.114467" lon="-4.797833">
        <ele>2054.0</ele>
        <time>2015-03-17T13:58:26Z</time>
      </trkpt>
      <trkpt lat="43.114517" lon="-4.797967">
        <ele>2049.0</ele>
        <time>2015-03-17T13:58:27Z</time>
      </trkpt>
      <trkpt lat="43.114567" lon="-4.798117">
        <ele>2045.0</ele>
        <time>2015-03-17T13:58:28Z</time>
      </trkpt>
      <trkpt lat="43.114667" lon="-4.798267">
        <ele>2042.0</ele>
        <time>2015-03-17T13:58:29Z</time>
      </trkpt>
      <trkpt lat="43.114750" lon="-4.798400">
        <ele>2041.0</ele>
        <time>2015-03-17T13:58:30Z</time>
      </trkpt>
      <trkpt lat="43.114833" lon="-4.798517">
        <ele>2040.0</ele>
        <time>2015-03-17T13:58:31Z</time>
      </trkpt>
      <trkpt lat="43.114900" lon="-4.798633">
        <ele>2038.0</ele>
        <time>2015-03-17T13:58:32Z</time>
      </trkpt>
      <trkpt lat="43.114967" lon="-4.798750">
        <ele>2037.0</ele>
        <time>2015-03-17T13:58:33Z</time>
      </trkpt>
      <trkpt lat="43.115033" lon="-4.798867">
        <ele>2035.0</ele>
        <time>2015-03-17T13:58:34Z</time>
      </trkpt>
      <trkpt lat="43.115117" lon="-4.798983">
        <ele>2031.0</ele>
        <time>2015-03-17T13:58:35Z</time>
      </trkpt>
      <trkpt lat="43.115200" lon="-4.799117">
        <ele>2029.0</ele>
        <time>2015-03-17T13:58:36Z</time>
      </trkpt>
      <trkpt lat="43.115267" lon="-4.799267">
        <ele>2026.0</ele>
        <time>2015-03-17T13:58:37Z</time>
      </trkpt>
      <trkpt lat="43.115333" lon="-4.799400">
        <ele>2024.0</ele>
        <time>2015-03-17T13:58:38Z</time>
      </trkpt>
      <trkpt lat="43.115383" lon="-4.799550">
        <ele>2022.0</ele>
        <time>2015-03-17T13:58:39Z</time>
      </trkpt>
      <trkpt lat="43.115450" lon="-4.799683">
        <ele>2020.0</ele>
        <time>2015-03-17T13:58:40Z</time>
      </trkpt>
      <trkpt lat="43.115500" lon="-4.799800">
        <ele>2017.0</ele>
        <time>2015-03-17T13:58:41Z</time>
      </trkpt>
      <trkpt lat="43.115567" lon="-4.799933">
        <ele>2014.0</ele>
        <time>2015-03-17T13:58:42Z</time>
      </trkpt>
      <trkpt lat="43.115633" lon="-4.800083">
        <ele>2012.0</ele>
        <time>2015-03-17T13:58:43Z</time>
      </trkpt>
      <trkpt lat="43.115700" lon="-4.800217">
        <ele>2009.0</ele>
        <time>2015-03-17T13:58:44Z</time>
      </trkpt>
      <trkpt lat="43.115767" lon="-4.800367">
        <ele>2006.0</ele>
        <time>2015-03-17T13:58:45Z</time>
      </trkpt>
      <trkpt lat="43.115833" lon="-4.800500">
        <ele>2003.0</ele>
        <time>2015-03-17T13:58:46Z</time>
      </trkpt>
      <trkpt lat="43.115917" lon="-4.800633">
        <ele>2001.0</ele>
        <time>2015-03-17T13:58:47Z</time>
      </trkpt>
      <trkpt lat="43.115967" lon="-4.800783">
        <ele>1998.0</ele>
        <time>2015-03-17T13:58:48Z</time>
      </trkpt>
      <trkpt lat="43.116033" lon="-4.800917">
        <ele>1995.0</ele>
        <time>2015-03-17T13:58:49Z</time>
      </trkpt>
      <trkpt lat="43.116100" lon="-4.801067">
        <ele>1993.0</ele>
        <time>2015-03-17T13:58:50Z</time>
      </trkpt>
      <trkpt lat="43.116167" lon="-4.801217">
        <ele>1991.0</ele>
        <time>2015-03-17T13:58:51Z</time>
      </trkpt>
      <trkpt lat="43.116217" lon="-4.801367">
        <ele>1990.0</ele>
        <time>2015-03-17T13:58:52Z</time>
      </trkpt>
      <trkpt lat="43.116267" lon="-4.801483">
        <ele>1989.0</ele>
        <time>2015-03-17T13:58:53Z</time>
      </trkpt>
      <trkpt lat="43.116333" lon="-4.801600">
        <ele>1987.0</ele>
        <time>2015-03-17T13:58:54Z</time>
      </trkpt>
      <trkpt lat="43.116367" lon="-4.801700">
        <ele>1985.0</ele>
        <time>2015-03-17T13:58:55Z</time>
      </trkpt>
      <trkpt lat="43.116417" lon="-4.801817">
        <ele>1983.0</ele>
        <time>2015-03-17T13:58:56Z</time>
      </trkpt>
      <trkpt lat="43.116450" lon="-4.801950">
        <ele>1980.0</ele>
        <time>2015-03-17T13:58:57Z</time>
      </trkpt>
      <trkpt lat="43.116483" lon="-4.802100">
        <ele>1976.0</ele>
        <time>2015-03-17T13:58:58Z</time>
      </trkpt>
      <trkpt lat="43.116550" lon="-4.802233">
        <ele>1974.0</ele>
        <time>2015-03-17T13:58:59Z</time>
      </trkpt>
      <trkpt lat="43.116617" lon="-4.802350">
        <ele>1971.0</ele>
        <time>2015-03-17T13:59:00Z</time>
      </trkpt>
      <trkpt lat="43.116683" lon="-4.802467">
        <ele>1969.0</ele>
        <time>2015-03-17T13:59:01Z</time>
      </trkpt>
      <trkpt lat="43.116767" lon="-4.802583">
        <ele>1967.0</ele>
        <time>2015-03-17T13:59:02Z</time>
      </trkpt>
      <trkpt lat="43.116867" lon="-4.802700">
        <ele>1964.0</ele>
        <time>2015-03-17T13:59:03Z</time>
      </trkpt>
      <trkpt lat="43.116933" lon="-4.802817">
        <ele>1964.0</ele>
        <time>2015-03-17T13:59:04Z</time>
      </trkpt>
      <trkpt lat="43.117000" lon="-4.802933">
        <ele>1963.0</ele>
        <time>2015-03-17T13:59:05Z</time>
      </trkpt>
      <trkpt lat="43.117067" lon="-4.803033">
        <ele>1963.0</ele>
        <time>2015-03-17T13:59:06Z</time>
      </trkpt>
      <trkpt lat="43.117133" lon="-4.803117">
        <ele>1962.0</ele>
        <time>2015-03-17T13:59:07Z</time>
      </trkpt>
      <trkpt lat="43.117183" lon="-4.803217">
        <ele>1961.0</ele>
        <time>2015-03-17T13:59:08Z</time>
      </trkpt>
      <trkpt lat="43.117250" lon="-4.803300">
        <ele>1959.0</ele>
        <time>2015-03-17T13:59:09Z</time>
      </trkpt>
      <trkpt lat="43.117317" lon="-4.803417">
        <ele>1958.0</ele>
        <time>2015-03-17T13:59:10Z</time>
      </trkpt>
      <trkpt lat="43.117383" lon="-4.803533">
        <ele>1957.0</ele>
        <time>2015-03-17T13:59:11Z</time>
      </trkpt>
      <trkpt lat="43.117450" lon="-4.803650">
        <ele>1957.0</ele>
        <time>2015-03-17T13:59:12Z</time>
      </trkpt>
      <trkpt lat="43.117500" lon="-4.803750">
        <ele>1956.0</ele>
        <time>2015-03-17T13:59:13Z</time>
      </trkpt>
      <trkpt lat="43.117567" lon="-4.803833">
        <ele>1955.0</ele>
        <time>2015-03-17T13:59:14Z</time>
      </trkpt>
      <trkpt lat="43.117633" lon="-4.803950">
        <ele>1953.0</ele>
        <time>2015-03-17T13:59:15Z</time>
      </trkpt>
      <trkpt lat="43.117683" lon="-4.804050">
        <ele>1952.0</ele>
        <time>2015-03-17T13:59:16Z</time>
      </trkpt>
      <trkpt lat="43.117733" lon="-4.804167">
        <ele>1951.0</ele>
        <time>2015-03-17T13:59:17Z</time>
      </trkpt>
      <trkpt lat="43.117800" lon="-4.804267">
        <ele>1950.0</ele>
        <time>2015-03-17T13:59:18Z</time>
      </trkpt>
      <trkpt lat="43.117867" lon="-4.804383">
        <ele>1949.0</ele>
        <time>2015-03-17T13:59:19Z</time>
      </trkpt>
      <trkpt lat="43.117933" lon="-4.804483">
        <ele>1948.0</ele>
        <time>2015-03-17T13:59:20Z</time>
      </trkpt>
      <trkpt lat="43.118000" lon="-4.804583">
        <ele>1946.0</ele>
        <time>2015-03-17T13:59:21Z</time>
      </trkpt>
      <trkpt lat="43.118067" lon="-4.804700">
        <ele>1944.0</ele>
        <time>2015-03-17T13:59:22Z</time>
      </trkpt>
      <trkpt lat="43.118133" lon="-4.804817">
        <ele>1942.0</ele>
        <time>2015-03-17T13:59:23Z</time>
      </trkpt>
      <trkpt lat="43.118200" lon="-4.804950">
        <ele>1941.0</ele>
        <time>2015-03-17T13:59:24Z</time>
      </trkpt>
      <trkpt lat="43.118267" lon="-4.805067">
        <ele>1940.0</ele>
        <time>2015-03-17T13:59:25Z</time>
      </trkpt>
      <trkpt lat="43.118350" lon="-4.805183">
        <ele>1939.0</ele>
        <time>2015-03-17T13:59:26Z</time>
      </trkpt>
      <trkpt lat="43.118417" lon="-4.805283">
        <ele>1938.0</ele>
        <time>2015-03-17T13:59:27Z</time>
      </trkpt>
      <trkpt lat="43.118483" lon="-4.805400">
        <ele>1936.0</ele>
        <time>2015-03-17T13:59:28Z</time>
      </trkpt>
      <trkpt lat="43.118567" lon="-4.805517">
        <ele>1934.0</ele>
        <time>2015-03-17T13:59:29Z</time>
      </trkpt>
      <trkpt lat="43.118633" lon="-4.805633">
        <ele>1933.0</ele>
        <time>2015-03-17T13:59:30Z</time>
      </trkpt>
      <trkpt lat="43.118700" lon="-4.805767">
        <ele>1931.0</ele>
        <time>2015-03-17T13:59:31Z</time>
      </trkpt>
      <trkpt lat="43.118767" lon="-4.805883">
        <ele>1930.0</ele>
        <time>2015-03-17T13:59:32Z</time>
      </trkpt>
      <trkpt lat="43.118833" lon="-4.806000">
        <ele>1929.0</ele>
        <time>2015-03-17T13:59:33Z</time>
      </trkpt>
      <trkpt lat="43.118883" lon="-4.806117">
        <ele>1928.0</ele>
        <time>2015-03-17T13:59:34Z</time>
      </trkpt>
      <trkpt lat="43.118933" lon="-4.806233">
        <ele>1926.0</ele>
        <time>2015-03-17T13:59:35Z</time>
      </trkpt>
      <trkpt lat="43.118983" lon="-4.806367">
        <ele>1925.0</ele>
        <time>2015-03-17T13:59:36Z</time>
      </trkpt>
      <trkpt lat="43.119033" lon="-4.806483">
        <ele>1924.0</ele>
        <time>2015-03-17T13:59:37Z</time>
      </trkpt>
      <trkpt lat="43.119083" lon="-4.806600">
        <ele>1923.0</ele>
        <time>2015-03-17T13:59:38Z</time>
      </trkpt>
      <trkpt lat="43.119117" lon="-4.806717">
        <ele>1922.0</ele>
        <time>2015-03-17T13:59:39Z</time>
      </trkpt>
      <trkpt lat="43.119167" lon="-4.806833">
        <ele>1921.0</ele>
        <time>2015-03-17T13:59:40Z</time>
      </trkpt>
      <trkpt lat="43.119217" lon="-4.806933">
        <ele>1920.0</ele>
        <time>2015-03-17T13:59:41Z</time>
      </trkpt>
      <trkpt lat="43.119267" lon="-4.807050">
        <ele>1919.0</ele>
        <time>2015-03-17T13:59:42Z</time>
      </trkpt>
      <trkpt lat="43.119317" lon="-4.807167">
        <ele>1918.0</ele>
        <time>2015-03-17T13:59:43Z</time>
      </trkpt>
      <trkpt lat="43.119367" lon="-4.807267">
        <ele>1916.0</ele>
        <time>2015-03-17T13:59:44Z</time>
      </trkpt>
      <trkpt lat="43.119417" lon="-4.807367">
        <ele>1915.0</ele>
        <time>2015-03-17T13:59:45Z</time>
      </trkpt>
      <trkpt lat="43.119467" lon="-4.807467">
        <ele>1913.0</ele>
        <time>2015-03-17T13:59:46Z</time>
      </trkpt>
      <trkpt lat="43.119517" lon="-4.807583">
        <ele>1911.0</ele>
        <time>2015-03-17T13:59:47Z</time>
      </trkpt>
      <trkpt lat="43.119550" lon="-4.807683">
        <ele>1909.0</ele>
        <time>2015-03-17T13:59:48Z</time>
      </trkpt>
      <trkpt lat="43.119583" lon="-4.807800">
        <ele>1906.0</ele>
        <time>2015-03-17T13:59:49Z</time>
      </trkpt>
      <trkpt lat="43.119633" lon="-4.807917">
        <ele>1904.0</ele>
        <time>2015-03-17T13:59:50Z</time>
      </trkpt>
      <trkpt lat="43.119683" lon="-4.808033">
        <ele>1901.0</ele>
        <time>2015-03-17T13:59:51Z</time>
      </trkpt>
      <trkpt lat="43.119733" lon="-4.808133">
        <ele>1899.0</ele>
        <time>2015-03-17T13:59:52Z</time>
      </trkpt>
      <trkpt lat="43.119783" lon="-4.808250">
        <ele>1897.0</ele>
        <time>2015-03-17T13:59:53Z</time>
      </trkpt>
      <trkpt lat="43.119833" lon="-4.808367">
        <ele>1895.0</ele>
        <time>2015-03-17T13:59:54Z</time>
      </trkpt>
      <trkpt lat="43.119883" lon="-4.808483">
        <ele>1892.0</ele>
        <time>2015-03-17T13:59:55Z</time>
      </trkpt>
      <trkpt lat="43.119933" lon="-4.808600">
        <ele>1890.0</ele>
        <time>2015-03-17T13:59:56Z</time>
      </trkpt>
      <trkpt lat="43.119983" lon="-4.808733">
        <ele>1888.0</ele>
        <time>2015-03-17T13:59:57Z</time>
      </trkpt>
      <trkpt lat="43.120033" lon="-4.808850">
        <ele>1886.0</ele>
        <time>2015-03-17T13:59:58Z</time>
      </trkpt>
      <trkpt lat="43.120067" lon="-4.808967">
        <ele>1884.0</ele>
        <time>2015-03-17T13:59:59Z</time>
      </trkpt>
      <trkpt lat="43.120117" lon="-4.809083">
        <ele>1882.0</ele>
        <time>2015-03-17T14:00:00Z</time>
      </trkpt>
      <trkpt lat="43.120150" lon="-4.809183">
        <ele>1881.0</ele>
        <time>2015-03-17T14:00:01Z</time>
      </trkpt>
      <trkpt lat="43.120183" lon="-4.809300">
        <ele>1878.0</ele>
        <time>2015-03-17T14:00:02Z</time>
      </trkpt>
      <trkpt lat="43.120217" lon="-4.809417">
        <ele>1876.0</ele>
        <time>2015-03-17T14:00:03Z</time>
      </trkpt>
      <trkpt lat="43.120250" lon="-4.809550">
        <ele>1874.0</ele>
        <time>2015-03-17T14:00:04Z</time>
      </trkpt>
      <trkpt lat="43.120300" lon="-4.809667">
        <ele>1872.0</ele>
        <time>2015-03-17T14:00:05Z</time>
      </trkpt>
      <trkpt lat="43.120333" lon="-4.809800">
        <ele>1870.0</ele>
        <time>2015-03-17T14:00:06Z</time>
      </trkpt>
      <trkpt lat="43.120367" lon="-4.809917">
        <ele>1869.0</ele>
        <time>2015-03-17T14:00:07Z</time>
      </trkpt>
      <trkpt lat="43.120400" lon="-4.810017">
        <ele>1868.0</ele>
        <time>2015-03-17T14:00:08Z</time>
      </trkpt>
      <trkpt lat="43.120433" lon="-4.810133">
        <ele>1867.0</ele>
        <time>2015-03-17T14:00:09Z</time>
      </trkpt>
      <trkpt lat="43.120450" lon="-4.810233">
        <ele>1865.0</ele>
        <time>2015-03-17T14:00:10Z</time>
      </trkpt>
      <trkpt lat="43.120483" lon="-4.810350">
        <ele>1863.0</ele>
        <time>2015-03-17T14:00:11Z</time>
      </trkpt>
      <trkpt lat="43.120500" lon="-4.810467">
        <ele>1861.0</ele>
        <time>2015-03-17T14:00:12Z</time>
      </trkpt>
      <trkpt lat="43.120533" lon="-4.810600">
        <ele>1859.0</ele>
        <time>2015-03-17T14:00:13Z</time>
      </trkpt>
      <trkpt lat="43.120550" lon="-4.810733">
        <ele>1857.0</ele>
        <time>2015-03-17T14:00:14Z</time>
      </trkpt>
      <trkpt lat="43.120583" lon="-4.810867">
        <ele>1855.0</ele>
        <time>2015-03-17T14:00:15Z</time>
      </trkpt>
      <trkpt lat="43.120600" lon="-4.810983">
        <ele>1854.0</ele>
        <time>2015-03-17T14:00:16Z</time>
      </trkpt>
      <trkpt lat="43.120617" lon="-4.811117">
        <ele>1853.0</ele>
        <time>2015-03-17T14:00:17Z</time>
      </trkpt>
      <trkpt lat="43.120633" lon="-4.811233">
        <ele>1851.0</ele>
        <time>2015-03-17T14:00:18Z</time>
      </trkpt>
      <trkpt lat="43.120650" lon="-4.811350">
        <ele>1849.0</ele>
        <time>2015-03-17T14:00:19Z</time>
      </trkpt>
      <trkpt lat="43.120683" lon="-4.811483">
        <ele>1847.0</ele>
        <time>2015-03-17T14:00:20Z</time>
      </trkpt>
      <trkpt lat="43.120700" lon="-4.811617">
        <ele>1846.0</ele>
        <time>2015-03-17T14:00:21Z</time>
      </trkpt>
      <trkpt lat="43.120717" lon="-4.811750">
        <ele>1844.0</ele>
        <time>2015-03-17T14:00:22Z</time>
      </trkpt>
      <trkpt lat="43.120750" lon="-4.811867">
        <ele>1843.0</ele>
        <time>2015-03-17T14:00:23Z</time>
      </trkpt>
      <trkpt lat="43.120767" lon="-4.812000">
        <ele>1841.0</ele>
        <time>2015-03-17T14:00:24Z</time>
      </trkpt>
      <trkpt lat="43.120800" lon="-4.812133">
        <ele>1840.0</ele>
        <time>2015-03-17T14:00:25Z</time>
      </trkpt>
      <trkpt lat="43.120817" lon="-4.812267">
        <ele>1838.0</ele>
        <time>2015-03-17T14:00:26Z</time>
      </trkpt>
      <trkpt lat="43.120850" lon="-4.812383">
        <ele>1837.0</ele>
        <time>2015-03-17T14:00:27Z</time>
      </trkpt>
      <trkpt lat="43.120883" lon="-4.812517">
        <ele>1835.0</ele>
        <time>2015-03-17T14:00:28Z</time>
      </trkpt>
      <trkpt lat="43.120917" lon="-4.812650">
        <ele>1834.0</ele>
        <time>2015-03-17T14:00:29Z</time>
      </trkpt>
      <trkpt lat="43.120950" lon="-4.812767">
        <ele>1832.0</ele>
        <time>2015-03-17T14:00:30Z</time>
      </trkpt>
      <trkpt lat="43.120983" lon="-4.812883">
        <ele>1831.0</ele>
        <time>2015-03-17T14:00:31Z</time>
      </trkpt>
      <trkpt lat="43.121000" lon="-4.813017">
        <ele>1829.0</ele>
        <time>2015-03-17T14:00:32Z</time>
      </trkpt>
      <trkpt lat="43.121033" lon="-4.813150">
        <ele>1827.0</ele>
        <time>2015-03-17T14:00:33Z</time>
      </trkpt>
      <trkpt lat="43.121067" lon="-4.813267">
        <ele>1825.0</ele>
        <time>2015-03-17T14:00:34Z</time>
      </trkpt>
      <trkpt lat="43.121100" lon="-4.813400">
        <ele>1824.0</ele>
        <time>2015-03-17T14:00:35Z</time>
      </trkpt>
      <trkpt lat="43.121117" lon="-4.813533">
        <ele>1822.0</ele>
        <time>2015-03-17T14:00:36Z</time>
      </trkpt>
      <trkpt lat="43.121150" lon="-4.813650">
        <ele>1821.0</ele>
        <time>2015-03-17T14:00:37Z</time>
      </trkpt>
      <trkpt lat="43.121167" lon="-4.813783">
        <ele>1819.0</ele>
        <time>2015-03-17T14:00:38Z</time>
      </trkpt>
      <trkpt lat="43.121217" lon="-4.813917">
        <ele>1817.0</ele>
        <time>2015-03-17T14:00:39Z</time>
      </trkpt>
      <trkpt lat="43.121250" lon="-4.814050">
        <ele>1815.0</ele>
        <time>2015-03-17T14:00:40Z</time>
      </trkpt>
      <trkpt lat="43.121300" lon="-4.814167">
        <ele>1814.0</ele>
        <time>2015-03-17T14:00:41Z</time>
      </trkpt>
      <trkpt lat="43.121333" lon="-4.814283">
        <ele>1813.0</ele>
        <time>2015-03-17T14:00:42Z</time>
      </trkpt>
      <trkpt lat="43.121367" lon="-4.814400">
        <ele>1811.0</ele>
        <time>2015-03-17T14:00:43Z</time>
      </trkpt>
      <trkpt lat="43.121383" lon="-4.814517">
        <ele>1809.0</ele>
        <time>2015-03-17T14:00:44Z</time>
      </trkpt>
      <trkpt lat="43.121417" lon="-4.814633">
        <ele>1807.0</ele>
        <time>2015-03-17T14:00:45Z</time>
      </trkpt>
      <trkpt lat="43.121433" lon="-4.814767">
        <ele>1805.0</ele>
        <time>2015-03-17T14:00:46Z</time>
      </trkpt>
      <trkpt lat="43.121467" lon="-4.814883">
        <ele>1803.0</ele>
        <time>2015-03-17T14:00:47Z</time>
      </trkpt>
      <trkpt lat="43.121483" lon="-4.815000">
        <ele>1802.0</ele>
        <time>2015-03-17T14:00:48Z</time>
      </trkpt>
      <trkpt lat="43.121500" lon="-4.815117">
        <ele>1800.0</ele>
        <time>2015-03-17T14:00:49Z</time>
      </trkpt>
      <trkpt lat="43.121533" lon="-4.815233">
        <ele>1799.0</ele>
        <time>2015-03-17T14:00:50Z</time>
      </trkpt>
      <trkpt lat="43.121567" lon="-4.815333">
        <ele>1797.0</ele>
        <time>2015-03-17T14:00:51Z</time>
      </trkpt>
      <trkpt lat="43.121600" lon="-4.815450">
        <ele>1795.0</ele>
        <time>2015-03-17T14:00:52Z</time>
      </trkpt>
      <trkpt lat="43.121633" lon="-4.815567">
        <ele>1792.0</ele>
        <time>2015-03-17T14:00:53Z</time>
      </trkpt>
      <trkpt lat="43.121667" lon="-4.815700">
        <ele>1790.0</ele>
        <time>2015-03-17T14:00:54Z</time>
      </trkpt>
      <trkpt lat="43.121700" lon="-4.815817">
        <ele>1788.0</ele>
        <time>2015-03-17T14:00:55Z</time>
      </trkpt>
      <trkpt lat="43.121733" lon="-4.815933">
        <ele>1787.0</ele>
        <time>2015-03-17T14:00:56Z</time>
      </trkpt>
      <trkpt lat="43.121783" lon="-4.816050">
        <ele>1785.0</ele>
        <time>2015-03-17T14:00:57Z</time>
      </trkpt>
      <trkpt lat="43.121817" lon="-4.816150">
        <ele>1783.0</ele>
        <time>2015-03-17T14:00:58Z</time>
      </trkpt>
      <trkpt lat="43.121850" lon="-4.816267">
        <ele>1781.0</ele>
        <time>2015-03-17T14:00:59Z</time>
      </trkpt>
      <trkpt lat="43.121883" lon="-4.816383">
        <ele>1778.0</ele>
        <time>2015-03-17T14:01:00Z</time>
      </trkpt>
      <trkpt lat="43.121933" lon="-4.816500">
        <ele>1776.0</ele>
        <time>2015-03-17T14:01:01Z</time>
      </trkpt>
      <trkpt lat="43.121967" lon="-4.816617">
        <ele>1775.0</ele>
        <time>2015-03-17T14:01:02Z</time>
      </trkpt>
      <trkpt lat="43.121983" lon="-4.816717">
        <ele>1773.0</ele>
        <time>2015-03-17T14:01:03Z</time>
      </trkpt>
      <trkpt lat="43.122017" lon="-4.816817">
        <ele>1771.0</ele>
        <time>2015-03-17T14:01:04Z</time>
      </trkpt>
      <trkpt lat="43.122033" lon="-4.816917">
        <ele>1770.0</ele>
        <time>2015-03-17T14:01:05Z</time>
      </trkpt>
      <trkpt lat="43.122067" lon="-4.817017">
        <ele>1772.0</ele>
        <time>2015-03-17T14:01:06Z</time>
      </trkpt>
      <trkpt lat="43.122083" lon="-4.817133">
        <ele>1770.0</ele>
        <time>2015-03-17T14:01:07Z</time>
      </trkpt>
      <trkpt lat="43.122117" lon="-4.817233">
        <ele>1769.0</ele>
        <time>2015-03-17T14:01:08Z</time>
      </trkpt>
      <trkpt lat="43.122150" lon="-4.817333">
        <ele>1766.0</ele>
        <time>2015-03-17T14:01:09Z</time>
      </trkpt>
      <trkpt lat="43.122200" lon="-4.817450">
        <ele>1764.0</ele>
        <time>2015-03-17T14:01:10Z</time>
      </trkpt>
      <trkpt lat="43.122250" lon="-4.817567">
        <ele>1764.0</ele>
        <time>2015-03-17T14:01:11Z</time>
      </trkpt>
      <trkpt lat="43.122300" lon="-4.817650">
        <ele>1761.0</ele>
        <time>2015-03-17T14:01:12Z</time>
      </trkpt>
      <trkpt lat="43.122350" lon="-4.817750">
        <ele>1758.0</ele>
        <time>2015-03-17T14:01:13Z</time>
      </trkpt>
      <trkpt lat="43.122400" lon="-4.817850">
        <ele>1756.0</ele>
        <time>2015-03-17T14:01:14Z</time>
      </trkpt>
      <trkpt lat="43.122450" lon="-4.817950">
        <ele>1757.0</ele>
        <time>2015-03-17T14:01:15Z</time>
      </trkpt>
      <trkpt lat="43.122500" lon="-4.818050">
        <ele>1755.0</ele>
        <time>2015-03-17T14:01:16Z</time>
      </trkpt>
      <trkpt lat="43.122567" lon="-4.818150">
        <ele>1753.0</ele>
        <time>2015-03-17T14:01:17Z</time>
      </trkpt>
      <trkpt lat="43.122617" lon="-4.818233">
        <ele>1751.0</ele>
        <time>2015-03-17T14:01:18Z</time>
      </trkpt>
      <trkpt lat="43.122683" lon="-4.818333">
        <ele>1751.0</ele>
        <time>2015-03-17T14:01:19Z</time>
      </trkpt>
      <trkpt lat="43.122733" lon="-4.818433">
        <ele>1749.0</ele>
        <time>2015-03-17T14:01:20Z</time>
      </trkpt>
      <trkpt lat="43.122800" lon="-4.818550">
        <ele>1747.0</ele>
        <time>2015-03-17T14:01:21Z</time>
      </trkpt>
      <trkpt lat="43.122867" lon="-4.818650">
        <ele>1744.0</ele>
        <time>2015-03-17T14:01:22Z</time>
      </trkpt>
      <trkpt lat="43.122950" lon="-4.818767">
        <ele>1742.0</ele>
        <time>2015-03-17T14:01:23Z</time>
      </trkpt>
      <trkpt lat="43.123000" lon="-4.818867">
        <ele>1740.0</ele>
        <time>2015-03-17T14:01:24Z</time>
      </trkpt>
      <trkpt lat="43.123050" lon="-4.818967">
        <ele>1737.0</ele>
        <time>2015-03-17T14:01:25Z</time>
      </trkpt>
      <trkpt lat="43.123117" lon="-4.819067">
        <ele>1734.0</ele>
        <time>2015-03-17T14:01:26Z</time>
      </trkpt>
      <trkpt lat="43.123183" lon="-4.819167">
        <ele>1729.0</ele>
        <time>2015-03-17T14:01:27Z</time>
      </trkpt>
      <trkpt lat="43.123267" lon="-4.819267">
        <ele>1721.0</ele>
        <time>2015-03-17T14:01:28Z</time>
      </trkpt>
      <trkpt lat="43.123350" lon="-4.819367">
        <ele>1715.0</ele>
        <time>2015-03-17T14:01:29Z</time>
      </trkpt>
      <trkpt lat="43.123433" lon="-4.819450">
        <ele>1711.0</ele>
        <time>2015-03-17T14:01:30Z</time>
      </trkpt>
      <trkpt lat="43.123517" lon="-4.819533">
        <ele>1707.0</ele>
        <time>2015-03-17T14:01:31Z</time>
      </trkpt>
      <trkpt lat="43.123617" lon="-4.819617">
        <ele>1703.0</ele>
        <time>2015-03-17T14:01:32Z</time>
      </trkpt>
      <trkpt lat="43.123733" lon="-4.819667">
        <ele>1699.0</ele>
        <time>2015-03-17T14:01:33Z</time>
      </trkpt>
      <trkpt lat="43.123833" lon="-4.819717">
        <ele>1696.0</ele>
        <time>2015-03-17T14:01:34Z</time>
      </trkpt>
      <trkpt lat="43.123967" lon="-4.819750">
        <ele>1692.0</ele>
        <time>2015-03-17T14:01:35Z</time>
      </trkpt>
      <trkpt lat="43.124083" lon="-4.819783">
        <ele>1687.0</ele>
        <time>2015-03-17T14:01:36Z</time>
      </trkpt>
      <trkpt lat="43.124217" lon="-4.819800">
        <ele>1683.0</ele>
        <time>2015-03-17T14:01:37Z</time>
      </trkpt>
      <trkpt lat="43.124333" lon="-4.819800">
        <ele>1678.0</ele>
        <time>2015-03-17T14:01:38Z</time>
      </trkpt>
      <trkpt lat="43.124467" lon="-4.819800">
        <ele>1673.0</ele>
        <time>2015-03-17T14:01:39Z</time>
      </trkpt>
      <trkpt lat="43.124600" lon="-4.819800">
        <ele>1669.0</ele>
        <time>2015-03-17T14:01:40Z</time>
      </trkpt>
      <trkpt lat="43.124750" lon="-4.819800">
        <ele>1665.0</ele>
        <time>2015-03-17T14:01:41Z</time>
      </trkpt>
      <trkpt lat="43.124867" lon="-4.819817">
        <ele>1662.0</ele>
        <time>2015-03-17T14:01:42Z</time>
      </trkpt>
      <trkpt lat="43.124983" lon="-4.819833">
        <ele>1660.0</ele>
        <time>2015-03-17T14:01:43Z</time>
      </trkpt>
      <trkpt lat="43.125100" lon="-4.819833">
        <ele>1658.0</ele>
        <time>2015-03-17T14:01:44Z</time>
      </trkpt>
      <trkpt lat="43.125200" lon="-4.819833">
        <ele>1659.0</ele>
        <time>2015-03-17T14:01:45Z</time>
      </trkpt>
      <trkpt lat="43.125283" lon="-4.819833">
        <ele>1658.0</ele>
        <time>2015-03-17T14:01:46Z</time>
      </trkpt>
      <trkpt lat="43.125383" lon="-4.819833">
        <ele>1657.0</ele>
        <time>2015-03-17T14:01:47Z</time>
      </trkpt>
      <trkpt lat="43.125483" lon="-4.819850">
        <ele>1657.0</ele>
        <time>2015-03-17T14:01:48Z</time>
      </trkpt>
      <trkpt lat="43.125583" lon="-4.819867">
        <ele>1658.0</ele>
        <time>2015-03-17T14:01:49Z</time>
      </trkpt>
      <trkpt lat="43.125667" lon="-4.819867">
        <ele>1658.0</ele>
        <time>2015-03-17T14:01:50Z</time>
      </trkpt>
      <trkpt lat="43.125733" lon="-4.819867">
        <ele>1659.0</ele>
        <time>2015-03-17T14:01:51Z</time>
      </trkpt>
      <trkpt lat="43.125800" lon="-4.819883">
        <ele>1660.0</ele>
        <time>2015-03-17T14:01:52Z</time>
      </trkpt>
      <trkpt lat="43.125867" lon="-4.819883">
        <ele>1661.0</ele>
        <time>2015-03-17T14:01:53Z</time>
      </trkpt>
      <trkpt lat="43.125933" lon="-4.819883">
        <ele>1662.0</ele>
        <time>2015-03-17T14:01:54Z</time>
      </trkpt>
      <trkpt lat="43.126000" lon="-4.819900">
        <ele>1662.0</ele>
        <time>2015-03-17T14:01:55Z</time>
      </trkpt>
      <trkpt lat="43.126067" lon="-4.819933">
        <ele>1662.0</ele>
        <time>2015-03-17T14:01:56Z</time>
      </trkpt>
      <trkpt lat="43.126133" lon="-4.820000">
        <ele>1663.0</ele>
        <time>2015-03-17T14:01:57Z</time>
      </trkpt>
      <trkpt lat="43.126200" lon="-4.820067">
        <ele>1664.0</ele>
        <time>2015-03-17T14:01:58Z</time>
      </trkpt>
      <trkpt lat="43.126233" lon="-4.820167">
        <ele>1665.0</ele>
        <time>2015-03-17T14:01:59Z</time>
      </trkpt>
      <trkpt lat="43.126250" lon="-4.820283">
        <ele>1666.0</ele>
        <time>2015-03-17T14:02:00Z</time>
      </trkpt>
      <trkpt lat="43.126267" lon="-4.820383">
        <ele>1668.0</ele>
        <time>2015-03-17T14:02:01Z</time>
      </trkpt>
      <trkpt lat="43.126250" lon="-4.820483">
        <ele>1669.0</ele>
        <time>2015-03-17T14:02:02Z</time>
      </trkpt>
      <trkpt lat="43.126217" lon="-4.820567">
        <ele>1669.0</ele>
        <time>2015-03-17T14:02:03Z</time>
      </trkpt>
      <trkpt lat="43.126183" lon="-4.820650">
        <ele>1670.0</ele>
        <time>2015-03-17T14:02:04Z</time>
      </trkpt>
      <trkpt lat="43.126150" lon="-4.820733">
        <ele>1670.0</ele>
        <time>2015-03-17T14:02:05Z</time>
      </trkpt>
      <trkpt lat="43.126100" lon="-4.820800">
        <ele>1670.0</ele>
        <time>2015-03-17T14:02:06Z</time>
      </trkpt>
      <trkpt lat="43.126033" lon="-4.820867">
        <ele>1670.0</ele>
        <time>2015-03-17T14:02:07Z</time>
      </trkpt>
      <trkpt lat="43.125967" lon="-4.820900">
        <ele>1670.0</ele>
        <time>2015-03-17T14:02:08Z</time>
      </trkpt>
      <trkpt lat="43.125900" lon="-4.820917">
        <ele>1669.0</ele>
        <time>2015-03-17T14:02:09Z</time>
      </trkpt>
      <trkpt lat="43.125833" lon="-4.820900">
        <ele>1669.0</ele>
        <time>2015-03-17T14:02:10Z</time>
      </trkpt>
      <trkpt lat="43.125767" lon="-4.820900">
        <ele>1669.0</ele>
        <time>2015-03-17T14:02:11Z</time>
      </trkpt>
      <trkpt lat="43.125717" lon="-4.820883">
        <ele>1669.0</ele>
        <time>2015-03-17T14:02:12Z</time>
      </trkpt>
      <trkpt lat="43.125650" lon="-4.820850">
        <ele>1669.0</ele>
        <time>2015-03-17T14:02:13Z</time>
      </trkpt>
      <trkpt lat="43.125583" lon="-4.820817">
        <ele>1669.0</ele>
        <time>2015-03-17T14:02:14Z</time>
      </trkpt>
      <trkpt lat="43.125517" lon="-4.820783">
        <ele>1669.0</ele>
        <time>2015-03-17T14:02:15Z</time>
      </trkpt>
      <trkpt lat="43.125450" lon="-4.820767">
        <ele>1668.0</ele>
        <time>2015-03-17T14:02:16Z</time>
      </trkpt>
      <trkpt lat="43.125367" lon="-4.820733">
        <ele>1668.0</ele>
        <time>2015-03-17T14:02:17Z</time>
      </trkpt>
      <trkpt lat="43.125283" lon="-4.820717">
        <ele>1667.0</ele>
        <time>2015-03-17T14:02:18Z</time>
      </trkpt>
      <trkpt lat="43.125200" lon="-4.820717">
        <ele>1664.0</ele>
        <time>2015-03-17T14:02:19Z</time>
      </trkpt>
      <trkpt lat="43.125100" lon="-4.820700">
        <ele>1661.0</ele>
        <time>2015-03-17T14:02:20Z</time>
      </trkpt>
      <trkpt lat="43.125000" lon="-4.820683">
        <ele>1660.0</ele>
        <time>2015-03-17T14:02:21Z</time>
      </trkpt>
      <trkpt lat="43.124933" lon="-4.820650">
        <ele>1659.0</ele>
        <time>2015-03-17T14:02:22Z</time>
      </trkpt>
      <trkpt lat="43.124883" lon="-4.820600">
        <ele>1657.0</ele>
        <time>2015-03-17T14:02:23Z</time>
      </trkpt>
      <trkpt lat="43.124867" lon="-4.820517">
        <ele>1655.0</ele>
        <time>2015-03-17T14:02:24Z</time>
      </trkpt>
      <trkpt lat="43.124883" lon="-4.820400">
        <ele>1651.0</ele>
        <time>2015-03-17T14:02:25Z</time>
      </trkpt>
      <trkpt lat="43.124967" lon="-4.820300">
        <ele>1647.0</ele>
        <time>2015-03-17T14:02:26Z</time>
      </trkpt>
      <trkpt lat="43.125067" lon="-4.820250">
        <ele>1643.0</ele>
        <time>2015-03-17T14:02:27Z</time>
      </trkpt>
      <trkpt lat="43.125167" lon="-4.820233">
        <ele>1643.0</ele>
        <time>2015-03-17T14:02:28Z</time>
      </trkpt>
      <trkpt lat="43.125233" lon="-4.820217">
        <ele>1644.0</ele>
        <time>2015-03-17T14:02:29Z</time>
      </trkpt>
      <trkpt lat="43.125317" lon="-4.820167">
        <ele>1643.0</ele>
        <time>2015-03-17T14:02:30Z</time>
      </trkpt>
      <trkpt lat="43.125383" lon="-4.820117">
        <ele>1641.0</ele>
        <time>2015-03-17T14:02:31Z</time>
      </trkpt>
      <trkpt lat="43.125483" lon="-4.820083">
        <ele>1637.0</ele>
        <time>2015-03-17T14:02:32Z</time>
      </trkpt>
      <trkpt lat="43.125600" lon="-4.820067">
        <ele>1635.0</ele>
        <time>2015-03-17T14:02:33Z</time>
      </trkpt>
      <trkpt lat="43.125700" lon="-4.820050">
        <ele>1635.0</ele>
        <time>2015-03-17T14:02:34Z</time>
      </trkpt>
      <trkpt lat="43.125783" lon="-4.820017">
        <ele>1636.0</ele>
        <time>2015-03-17T14:02:35Z</time>
      </trkpt>
      <trkpt lat="43.125867" lon="-4.819983">
        <ele>1637.0</ele>
        <time>2015-03-17T14:02:36Z</time>
      </trkpt>
      <trkpt lat="43.125950" lon="-4.819967">
        <ele>1637.0</ele>
        <time>2015-03-17T14:02:37Z</time>
      </trkpt>
      <trkpt lat="43.126033" lon="-4.819950">
        <ele>1636.0</ele>
        <time>2015-03-17T14:02:38Z</time>
      </trkpt>
      <trkpt lat="43.126117" lon="-4.819950">
        <ele>1634.0</ele>
        <time>2015-03-17T14:02:39Z</time>
      </trkpt>
      <trkpt lat="43.126217" lon="-4.819950">
        <ele>1632.0</ele>
        <time>2015-03-17T14:02:40Z</time>
      </trkpt>
      <trkpt lat="43.126317" lon="-4.819950">
        <ele>1631.0</ele>
        <time>2015-03-17T14:02:41Z</time>
      </trkpt>
      <trkpt lat="43.126417" lon="-4.819950">
        <ele>1630.0</ele>
        <time>2015-03-17T14:02:42Z</time>
      </trkpt>
      <trkpt lat="43.126517" lon="-4.819967">
        <ele>1631.0</ele>
        <time>2015-03-17T14:02:43Z</time>
      </trkpt>
      <trkpt lat="43.126617" lon="-4.819967">
        <ele>1633.0</ele>
        <time>2015-03-17T14:02:44Z</time>
      </trkpt>
      <trkpt lat="43.126700" lon="-4.819967">
        <ele>1634.0</ele>
        <time>2015-03-17T14:02:45Z</time>
      </trkpt>
      <trkpt lat="43.126783" lon="-4.819950">
        <ele>1635.0</ele>
        <time>2015-03-17T14:02:46Z</time>
      </trkpt>
      <trkpt lat="43.126867" lon="-4.819950">
        <ele>1636.0</ele>
        <time>2015-03-17T14:02:47Z</time>
      </trkpt>
      <trkpt lat="43.126933" lon="-4.819933">
        <ele>1635.0</ele>
        <time>2015-03-17T14:02:48Z</time>
      </trkpt>
      <trkpt lat="43.127000" lon="-4.819900">
        <ele>1635.0</ele>
        <time>2015-03-17T14:02:49Z</time>
      </trkpt>
      <trkpt lat="43.127083" lon="-4.819900">
        <ele>1634.0</ele>
        <time>2015-03-17T14:02:50Z</time>
      </trkpt>
      <trkpt lat="43.127167" lon="-4.819900">
        <ele>1633.0</ele>
        <time>2015-03-17T14:02:51Z</time>
      </trkpt>
      <trkpt lat="43.127267" lon="-4.819933">
        <ele>1632.0</ele>
        <time>2015-03-17T14:02:52Z</time>
      </trkpt>
      <trkpt lat="43.127350" lon="-4.819950">
        <ele>1632.0</ele>
        <time>2015-03-17T14:02:53Z</time>
      </trkpt>
      <trkpt lat="43.127433" lon="-4.819983">
        <ele>1632.0</ele>
        <time>2015-03-17T14:02:54Z</time>
      </trkpt>
      <trkpt lat="43.127533" lon="-4.820017">
        <ele>1632.0</ele>
        <time>2015-03-17T14:02:55Z</time>
      </trkpt>
      <trkpt lat="43.127617" lon="-4.820050">
        <ele>1631.0</ele>
        <time>2015-03-17T14:02:56Z</time>
      </trkpt>
      <trkpt lat="43.127717" lon="-4.820067">
        <ele>1631.0</ele>
        <time>2015-03-17T14:02:57Z</time>
      </trkpt>
      <trkpt lat="43.127817" lon="-4.820100">
        <ele>1630.0</ele>
        <time>2015-03-17T14:02:58Z</time>
      </trkpt>
      <trkpt lat="43.127917" lon="-4.820133">
        <ele>1629.0</ele>
        <time>2015-03-17T14:02:59Z</time>
      </trkpt>
      <trkpt lat="43.128033" lon="-4.820150">
        <ele>1629.0</ele>
        <time>2015-03-17T14:03:00Z</time>
      </trkpt>
      <trkpt lat="43.128133" lon="-4.820167">
        <ele>1629.0</ele>
        <time>2015-03-17T14:03:01Z</time>
      </trkpt>
      <trkpt lat="43.128217" lon="-4.820183">
        <ele>1630.0</ele>
        <time>2015-03-17T14:03:02Z</time>
      </trkpt>
      <trkpt lat="43.128300" lon="-4.820200">
        <ele>1630.0</ele>
        <time>2015-03-17T14:03:03Z</time>
      </trkpt>
      <trkpt lat="43.128400" lon="-4.820217">
        <ele>1629.0</ele>
        <time>2015-03-17T14:03:04Z</time>
      </trkpt>
      <trkpt lat="43.128500" lon="-4.820217">
        <ele>1628.0</ele>
        <time>2015-03-17T14:03:05Z</time>
      </trkpt>
      <trkpt lat="43.128600" lon="-4.820217">
        <ele>1626.0</ele>
        <time>2015-03-17T14:03:06Z</time>
      </trkpt>
      <trkpt lat="43.128700" lon="-4.820217">
        <ele>1625.0</ele>
        <time>2015-03-17T14:03:07Z</time>
      </trkpt>
      <trkpt lat="43.128800" lon="-4.820217">
        <ele>1623.0</ele>
        <time>2015-03-17T14:03:08Z</time>
      </trkpt>
      <trkpt lat="43.128900" lon="-4.820217">
        <ele>1622.0</ele>
        <time>2015-03-17T14:03:09Z</time>
      </trkpt>
      <trkpt lat="43.128983" lon="-4.820217">
        <ele>1621.0</ele>
        <time>2015-03-17T14:03:10Z</time>
      </trkpt>
      <trkpt lat="43.129083" lon="-4.820217">
        <ele>1620.0</ele>
        <time>2015-03-17T14:03:11Z</time>
      </trkpt>
      <trkpt lat="43.129183" lon="-4.820217">
        <ele>1618.0</ele>
        <time>2015-03-17T14:03:12Z</time>
      </trkpt>
      <trkpt lat="43.129267" lon="-4.820217">
        <ele>1617.0</ele>
        <time>2015-03-17T14:03:13Z</time>
      </trkpt>
      <trkpt lat="43.129367" lon="-4.820233">
        <ele>1615.0</ele>
        <time>2015-03-17T14:03:14Z</time>
      </trkpt>
      <trkpt lat="43.129467" lon="-4.820233">
        <ele>1614.0</ele>
        <time>2015-03-17T14:03:15Z</time>
      </trkpt>
      <trkpt lat="43.129567" lon="-4.820233">
        <ele>1611.0</ele>
        <time>2015-03-17T14:03:16Z</time>
      </trkpt>
      <trkpt lat="43.129650" lon="-4.820233">
        <ele>1607.0</ele>
        <time>2015-03-17T14:03:17Z</time>
      </trkpt>
      <trkpt lat="43.129767" lon="-4.820233">
        <ele>1603.0</ele>
        <time>2015-03-17T14:03:18Z</time>
      </trkpt>
      <trkpt lat="43.129867" lon="-4.820250">
        <ele>1601.0</ele>
        <time>2015-03-17T14:03:19Z</time>
      </trkpt>
      <trkpt lat="43.129983" lon="-4.820267">
        <ele>1598.0</ele>
        <time>2015-03-17T14:03:20Z</time>
      </trkpt>
      <trkpt lat="43.130083" lon="-4.820283">
        <ele>1596.0</ele>
        <time>2015-03-17T14:03:21Z</time>
      </trkpt>
      <trkpt lat="43.130183" lon="-4.820300">
        <ele>1594.0</ele>
        <time>2015-03-17T14:03:22Z</time>
      </trkpt>
      <trkpt lat="43.130283" lon="-4.820317">
        <ele>1592.0</ele>
        <time>2015-03-17T14:03:23Z</time>
      </trkpt>
      <trkpt lat="43.130400" lon="-4.820333">
        <ele>1589.0</ele>
        <time>2015-03-17T14:03:24Z</time>
      </trkpt>
      <trkpt lat="43.130500" lon="-4.820350">
        <ele>1587.0</ele>
        <time>2015-03-17T14:03:25Z</time>
      </trkpt>
      <trkpt lat="43.130600" lon="-4.820367">
        <ele>1585.0</ele>
        <time>2015-03-17T14:03:26Z</time>
      </trkpt>
      <trkpt lat="43.130700" lon="-4.820400">
        <ele>1583.0</ele>
        <time>2015-03-17T14:03:27Z</time>
      </trkpt>
      <trkpt lat="43.130783" lon="-4.820450">
        <ele>1581.0</ele>
        <time>2015-03-17T14:03:28Z</time>
      </trkpt>
      <trkpt lat="43.130867" lon="-4.820483">
        <ele>1586.0</ele>
        <time>2015-03-17T14:03:29Z</time>
      </trkpt>
      <trkpt lat="43.130950" lon="-4.820517">
        <ele>1586.0</ele>
        <time>2015-03-17T14:03:30Z</time>
      </trkpt>
      <trkpt lat="43.131067" lon="-4.820550">
        <ele>1585.0</ele>
        <time>2015-03-17T14:03:31Z</time>
      </trkpt>
      <trkpt lat="43.131167" lon="-4.820600">
        <ele>1585.0</ele>
        <time>2015-03-17T14:03:32Z</time>
      </trkpt>
      <trkpt lat="43.131267" lon="-4.820650">
        <ele>1584.0</ele>
        <time>2015-03-17T14:03:33Z</time>
      </trkpt>
      <trkpt lat="43.131367" lon="-4.820683">
        <ele>1583.0</ele>
        <time>2015-03-17T14:03:34Z</time>
      </trkpt>
      <trkpt lat="43.131467" lon="-4.820733">
        <ele>1578.0</ele>
        <time>2015-03-17T14:03:35Z</time>
      </trkpt>
      <trkpt lat="43.131550" lon="-4.820767">
        <ele>1575.0</ele>
        <time>2015-03-17T14:03:36Z</time>
      </trkpt>
      <trkpt lat="43.131650" lon="-4.820800">
        <ele>1571.0</ele>
        <time>2015-03-17T14:03:37Z</time>
      </trkpt>
      <trkpt lat="43.131750" lon="-4.820850">
        <ele>1567.0</ele>
        <time>2015-03-17T14:03:38Z</time>
      </trkpt>
      <trkpt lat="43.131850" lon="-4.820883">
        <ele>1565.0</ele>
        <time>2015-03-17T14:03:39Z</time>
      </trkpt>
      <trkpt lat="43.131950" lon="-4.820917">
        <ele>1562.0</ele>
        <time>2015-03-17T14:03:40Z</time>
      </trkpt>
      <trkpt lat="43.132050" lon="-4.820950">
        <ele>1559.0</ele>
        <time>2015-03-17T14:03:41Z</time>
      </trkpt>
      <trkpt lat="43.132133" lon="-4.820983">
        <ele>1557.0</ele>
        <time>2015-03-17T14:03:42Z</time>
      </trkpt>
      <trkpt lat="43.132217" lon="-4.821017">
        <ele>1554.0</ele>
        <time>2015-03-17T14:03:43Z</time>
      </trkpt>
      <trkpt lat="43.132300" lon="-4.821050">
        <ele>1550.0</ele>
        <time>2015-03-17T14:03:44Z</time>
      </trkpt>
      <trkpt lat="43.132417" lon="-4.821100">
        <ele>1547.0</ele>
        <time>2015-03-17T14:03:45Z</time>
      </trkpt>
      <trkpt lat="43.132517" lon="-4.821167">
        <ele>1545.0</ele>
        <time>2015-03-17T14:03:46Z</time>
      </trkpt>
      <trkpt lat="43.132633" lon="-4.821250">
        <ele>1543.0</ele>
        <time>2015-03-17T14:03:47Z</time>
      </trkpt>
      <trkpt lat="43.132717" lon="-4.821317">
        <ele>1542.0</ele>
        <time>2015-03-17T14:03:48Z</time>
      </trkpt>
      <trkpt lat="43.132817" lon="-4.821350">
        <ele>1542.0</ele>
        <time>2015-03-17T14:03:49Z</time>
      </trkpt>
      <trkpt lat="43.132900" lon="-4.821383">
        <ele>1541.0</ele>
        <time>2015-03-17T14:03:50Z</time>
      </trkpt>
      <trkpt lat="43.133000" lon="-4.821433">
        <ele>1539.0</ele>
        <time>2015-03-17T14:03:51Z</time>
      </trkpt>
      <trkpt lat="43.133100" lon="-4.821500">
        <ele>1537.0</ele>
        <time>2015-03-17T14:03:52Z</time>
      </trkpt>
      <trkpt lat="43.133200" lon="-4.821567">
        <ele>1536.0</ele>
        <time>2015-03-17T14:03:53Z</time>
      </trkpt>
      <trkpt lat="43.133300" lon="-4.821617">
        <ele>1536.0</ele>
        <time>2015-03-17T14:03:54Z</time>
      </trkpt>
      <trkpt lat="43.133400" lon="-4.821650">
        <ele>1536.0</ele>
        <time>2015-03-17T14:03:55Z</time>
      </trkpt>
      <trkpt lat="43.133483" lon="-4.821667">
        <ele>1536.0</ele>
        <time>2015-03-17T14:03:56Z</time>
      </trkpt>
      <trkpt lat="43.133567" lon="-4.821700">
        <ele>1534.0</ele>
        <time>2015-03-17T14:03:57Z</time>
      </trkpt>
      <trkpt lat="43.133650" lon="-4.821733">
        <ele>1532.0</ele>
        <time>2015-03-17T14:03:58Z</time>
      </trkpt>
      <trkpt lat="43.133733" lon="-4.821783">
        <ele>1530.0</ele>
        <time>2015-03-17T14:03:59Z</time>
      </trkpt>
      <trkpt lat="43.133833" lon="-4.821833">
        <ele>1527.0</ele>
        <time>2015-03-17T14:04:00Z</time>
      </trkpt>
      <trkpt lat="43.133933" lon="-4.821883">
        <ele>1526.0</ele>
        <time>2015-03-17T14:04:01Z</time>
      </trkpt>
      <trkpt lat="43.134017" lon="-4.821933">
        <ele>1524.0</ele>
        <time>2015-03-17T14:04:02Z</time>
      </trkpt>
      <trkpt lat="43.134100" lon="-4.821983">
        <ele>1523.0</ele>
        <time>2015-03-17T14:04:03Z</time>
      </trkpt>
      <trkpt lat="43.134183" lon="-4.822050">
        <ele>1523.0</ele>
        <time>2015-03-17T14:04:04Z</time>
      </trkpt>
      <trkpt lat="43.134267" lon="-4.822100">
        <ele>1525.0</ele>
        <time>2015-03-17T14:04:05Z</time>
      </trkpt>
      <trkpt lat="43.134350" lon="-4.822150">
        <ele>1523.0</ele>
        <time>2015-03-17T14:04:06Z</time>
      </trkpt>
      <trkpt lat="43.134417" lon="-4.822200">
        <ele>1521.0</ele>
        <time>2015-03-17T14:04:07Z</time>
      </trkpt>
      <trkpt lat="43.134500" lon="-4.822267">
        <ele>1520.0</ele>
        <time>2015-03-17T14:04:08Z</time>
      </trkpt>
      <trkpt lat="43.134583" lon="-4.822300">
        <ele>1519.0</ele>
        <time>2015-03-17T14:04:09Z</time>
      </trkpt>
      <trkpt lat="43.134667" lon="-4.822333">
        <ele>1519.0</ele>
        <time>2015-03-17T14:04:10Z</time>
      </trkpt>
      <trkpt lat="43.134733" lon="-4.822350">
        <ele>1519.0</ele>
        <time>2015-03-17T14:04:11Z</time>
      </trkpt>
      <trkpt lat="43.134783" lon="-4.822367">
        <ele>1520.0</ele>
        <time>2015-03-17T14:04:12Z</time>
      </trkpt>
      <trkpt lat="43.134850" lon="-4.822367">
        <ele>1520.0</ele>
        <time>2015-03-17T14:04:13Z</time>
      </trkpt>
      <trkpt lat="43.134917" lon="-4.822383">
        <ele>1520.0</ele>
        <time>2015-03-17T14:04:14Z</time>
      </trkpt>
      <trkpt lat="43.134983" lon="-4.822400">
        <ele>1519.0</ele>
        <time>2015-03-17T14:04:15Z</time>
      </trkpt>
      <trkpt lat="43.135083" lon="-4.822467">
        <ele>1518.0</ele>
        <time>2015-03-17T14:04:16Z</time>
      </trkpt>
      <trkpt lat="43.135167" lon="-4.822517">
        <ele>1517.0</ele>
        <time>2015-03-17T14:04:17Z</time>
      </trkpt>
      <trkpt lat="43.135250" lon="-4.822550">
        <ele>1516.0</ele>
        <time>2015-03-17T14:04:18Z</time>
      </trkpt>
      <trkpt lat="43.135333" lon="-4.822567">
        <ele>1516.0</ele>
        <time>2015-03-17T14:04:19Z</time>
      </trkpt>
      <trkpt lat="43.135417" lon="-4.822567">
        <ele>1515.0</ele>
        <time>2015-03-17T14:04:20Z</time>
      </trkpt>
      <trkpt lat="43.135500" lon="-4.822583">
        <ele>1513.0</ele>
        <time>2015-03-17T14:04:21Z</time>
      </trkpt>
      <trkpt lat="43.135583" lon="-4.822600">
        <ele>1512.0</ele>
        <time>2015-03-17T14:04:22Z</time>
      </trkpt>
      <trkpt lat="43.135667" lon="-4.822633">
        <ele>1509.0</ele>
        <time>2015-03-17T14:04:23Z</time>
      </trkpt>
      <trkpt lat="43.135767" lon="-4.822667">
        <ele>1507.0</ele>
        <time>2015-03-17T14:04:24Z</time>
      </trkpt>
      <trkpt lat="43.135850" lon="-4.822683">
        <ele>1506.0</ele>
        <time>2015-03-17T14:04:25Z</time>
      </trkpt>
      <trkpt lat="43.135950" lon="-4.822700">
        <ele>1504.0</ele>
        <time>2015-03-17T14:04:26Z</time>
      </trkpt>
      <trkpt lat="43.136017" lon="-4.822700">
        <ele>1506.0</ele>
        <time>2015-03-17T14:04:27Z</time>
      </trkpt>
      <trkpt lat="43.136083" lon="-4.822700">
        <ele>1505.0</ele>
        <time>2015-03-17T14:04:28Z</time>
      </trkpt>
      <trkpt lat="43.136150" lon="-4.822700">
        <ele>1504.0</ele>
        <time>2015-03-17T14:04:29Z</time>
      </trkpt>
      <trkpt lat="43.136217" lon="-4.822700">
        <ele>1503.0</ele>
        <time>2015-03-17T14:04:30Z</time>
      </trkpt>
      <trkpt lat="43.136317" lon="-4.822683">
        <ele>1502.0</ele>
        <time>2015-03-17T14:04:31Z</time>
      </trkpt>
      <trkpt lat="43.136383" lon="-4.822667">
        <ele>1501.0</ele>
        <time>2015-03-17T14:04:32Z</time>
      </trkpt>
      <trkpt lat="43.136483" lon="-4.822667">
        <ele>1500.0</ele>
        <time>2015-03-17T14:04:33Z</time>
      </trkpt>
      <trkpt lat="43.136567" lon="-4.822650">
        <ele>1497.0</ele>
        <time>2015-03-17T14:04:34Z</time>
      </trkpt>
      <trkpt lat="43.136650" lon="-4.822650">
        <ele>1497.0</ele>
        <time>2015-03-17T14:04:35Z</time>
      </trkpt>
      <trkpt lat="43.136750" lon="-4.822650">
        <ele>1496.0</ele>
        <time>2015-03-17T14:04:36Z</time>
      </trkpt>
      <trkpt lat="43.136833" lon="-4.822667">
        <ele>1494.0</ele>
        <time>2015-03-17T14:04:37Z</time>
      </trkpt>
      <trkpt lat="43.136917" lon="-4.822683">
        <ele>1493.0</ele>
        <time>2015-03-17T14:04:38Z</time>
      </trkpt>
      <trkpt lat="43.137000" lon="-4.822683">
        <ele>1493.0</ele>
        <time>2015-03-17T14:04:39Z</time>
      </trkpt>
      <trkpt lat="43.137100" lon="-4.822683">
        <ele>1491.0</ele>
        <time>2015-03-17T14:04:40Z</time>
      </trkpt>
      <trkpt lat="43.137217" lon="-4.822667">
        <ele>1490.0</ele>
        <time>2015-03-17T14:04:41Z</time>
      </trkpt>
      <trkpt lat="43.137300" lon="-4.822650">
        <ele>1489.0</ele>
        <time>2015-03-17T14:04:42Z</time>
      </trkpt>
      <trkpt lat="43.137400" lon="-4.822633">
        <ele>1488.0</ele>
        <time>2015-03-17T14:04:43Z</time>
      </trkpt>
      <trkpt lat="43.137467" lon="-4.822600">
        <ele>1487.0</ele>
        <time>2015-03-17T14:04:44Z</time>
      </trkpt>
      <trkpt lat="43.137550" lon="-4.822550">
        <ele>1486.0</ele>
        <time>2015-03-17T14:04:45Z</time>
      </trkpt>
      <trkpt lat="43.137650" lon="-4.822517">
        <ele>1485.0</ele>
        <time>2015-03-17T14:04:46Z</time>
      </trkpt>
      <trkpt lat="43.137750" lon="-4.822500">
        <ele>1482.0</ele>
        <time>2015-03-17T14:04:47Z</time>
      </trkpt>
      <trkpt lat="43.137850" lon="-4.822500">
        <ele>1479.0</ele>
        <time>2015-03-17T14:04:48Z</time>
      </trkpt>
      <trkpt lat="43.137950" lon="-4.822500">
        <ele>1475.0</ele>
        <time>2015-03-17T14:04:49Z</time>
      </trkpt>
      <trkpt lat="43.138017" lon="-4.822467">
        <ele>1471.0</ele>
        <time>2015-03-17T14:04:50Z</time>
      </trkpt>
      <trkpt lat="43.138100" lon="-4.822433">
        <ele>1475.0</ele>
        <time>2015-03-17T14:04:51Z</time>
      </trkpt>
      <trkpt lat="43.138183" lon="-4.822367">
        <ele>1473.0</ele>
        <time>2015-03-17T14:04:52Z</time>
      </trkpt>
      <trkpt lat="43.138283" lon="-4.822317">
        <ele>1472.0</ele>
        <time>2015-03-17T14:04:53Z</time>
      </trkpt>
      <trkpt lat="43.138383" lon="-4.822267">
        <ele>1470.0</ele>
        <time>2015-03-17T14:04:54Z</time>
      </trkpt>
      <trkpt lat="43.138483" lon="-4.822233">
        <ele>1468.0</ele>
        <time>2015-03-17T14:04:55Z</time>
      </trkpt>
      <trkpt lat="43.138567" lon="-4.822183">
        <ele>1466.0</ele>
        <time>2015-03-17T14:04:56Z</time>
      </trkpt>
      <trkpt lat="43.138667" lon="-4.822133">
        <ele>1464.0</ele>
        <time>2015-03-17T14:04:57Z</time>
      </trkpt>
      <trkpt lat="43.138767" lon="-4.822067">
        <ele>1462.0</ele>
        <time>2015-03-17T14:04:58Z</time>
      </trkpt>
      <trkpt lat="43.138867" lon="-4.822000">
        <ele>1459.0</ele>
        <time>2015-03-17T14:04:59Z</time>
      </trkpt>
      <trkpt lat="43.138983" lon="-4.821950">
        <ele>1455.0</ele>
        <time>2015-03-17T14:05:00Z</time>
      </trkpt>
      <trkpt lat="43.139083" lon="-4.821883">
        <ele>1451.0</ele>
        <time>2015-03-17T14:05:01Z</time>
      </trkpt>
      <trkpt lat="43.139167" lon="-4.821817">
        <ele>1447.0</ele>
        <time>2015-03-17T14:05:02Z</time>
      </trkpt>
      <trkpt lat="43.139267" lon="-4.821733">
        <ele>1443.0</ele>
        <time>2015-03-17T14:05:03Z</time>
      </trkpt>
      <trkpt lat="43.139367" lon="-4.821617">
        <ele>1439.0</ele>
        <time>2015-03-17T14:05:04Z</time>
      </trkpt>
      <trkpt lat="43.139467" lon="-4.821517">
        <ele>1436.0</ele>
        <time>2015-03-17T14:05:05Z</time>
      </trkpt>
      <trkpt lat="43.139583" lon="-4.821433">
        <ele>1431.0</ele>
        <time>2015-03-17T14:05:06Z</time>
      </trkpt>
      <trkpt lat="43.139683" lon="-4.821367">
        <ele>1426.0</ele>
        <time>2015-03-17T14:05:07Z</time>
      </trkpt>
      <trkpt lat="43.139783" lon="-4.821283">
        <ele>1422.0</ele>
        <time>2015-03-17T14:05:08Z</time>
      </trkpt>
      <trkpt lat="43.139883" lon="-4.821200">
        <ele>1418.0</ele>
        <time>2015-03-17T14:05:09Z</time>
      </trkpt>
      <trkpt lat="43.139967" lon="-4.821117">
        <ele>1414.0</ele>
        <time>2015-03-17T14:05:10Z</time>
      </trkpt>
      <trkpt lat="43.140083" lon="-4.821033">
        <ele>1410.0</ele>
        <time>2015-03-17T14:05:11Z</time>
      </trkpt>
      <trkpt lat="43.140183" lon="-4.820967">
        <ele>1405.0</ele>
        <time>2015-03-17T14:05:12Z</time>
      </trkpt>
      <trkpt lat="43.140300" lon="-4.820883">
        <ele>1401.0</ele>
        <time>2015-03-17T14:05:13Z</time>
      </trkpt>
      <trkpt lat="43.140400" lon="-4.820783">
        <ele>1397.0</ele>
        <time>2015-03-17T14:05:14Z</time>
      </trkpt>
      <trkpt lat="43.140500" lon="-4.820683">
        <ele>1393.0</ele>
        <time>2015-03-17T14:05:15Z</time>
      </trkpt>
      <trkpt lat="43.140600" lon="-4.820600">
        <ele>1389.0</ele>
        <time>2015-03-17T14:05:16Z</time>
      </trkpt>
      <trkpt lat="43.140717" lon="-4.820533">
        <ele>1385.0</ele>
        <time>2015-03-17T14:05:17Z</time>
      </trkpt>
      <trkpt lat="43.140817" lon="-4.820450">
        <ele>1382.0</ele>
        <time>2015-03-17T14:05:18Z</time>
      </trkpt>
      <trkpt lat="43.140900" lon="-4.820350">
        <ele>1378.0</ele>
        <time>2015-03-17T14:05:19Z</time>
      </trkpt>
      <trkpt lat="43.141000" lon="-4.820250">
        <ele>1374.0</ele>
        <time>2015-03-17T14:05:20Z</time>
      </trkpt>
      <trkpt lat="43.141083" lon="-4.820150">
        <ele>1370.0</ele>
        <time>2015-03-17T14:05:21Z</time>
      </trkpt>
      <trkpt lat="43.141200" lon="-4.820033">
        <ele>1366.0</ele>
        <time>2015-03-17T14:05:22Z</time>
      </trkpt>
      <trkpt lat="43.141300" lon="-4.819900">
        <ele>1363.0</ele>
        <time>2015-03-17T14:05:23Z</time>
      </trkpt>
      <trkpt lat="43.141400" lon="-4.819783">
        <ele>1360.0</ele>
        <time>2015-03-17T14:05:24Z</time>
      </trkpt>
      <trkpt lat="43.141500" lon="-4.819650">
        <ele>1357.0</ele>
        <time>2015-03-17T14:05:25Z</time>
      </trkpt>
      <trkpt lat="43.141583" lon="-4.819533">
        <ele>1354.0</ele>
        <time>2015-03-17T14:05:26Z</time>
      </trkpt>
      <trkpt lat="43.141667" lon="-4.819417">
        <ele>1351.0</ele>
        <time>2015-03-17T14:05:27Z</time>
      </trkpt>
      <trkpt lat="43.141767" lon="-4.819300">
        <ele>1347.0</ele>
        <time>2015-03-17T14:05:28Z</time>
      </trkpt>
      <trkpt lat="43.141867" lon="-4.819183">
        <ele>1344.0</ele>
        <time>2015-03-17T14:05:29Z</time>
      </trkpt>
      <trkpt lat="43.141967" lon="-4.819067">
        <ele>1341.0</ele>
        <time>2015-03-17T14:05:30Z</time>
      </trkpt>
      <trkpt lat="43.142083" lon="-4.818950">
        <ele>1338.0</ele>
        <time>2015-03-17T14:05:31Z</time>
      </trkpt>
      <trkpt lat="43.142183" lon="-4.818850">
        <ele>1335.0</ele>
        <time>2015-03-17T14:05:32Z</time>
      </trkpt>
      <trkpt lat="43.142283" lon="-4.818750">
        <ele>1332.0</ele>
        <time>2015-03-17T14:05:33Z</time>
      </trkpt>
      <trkpt lat="43.142383" lon="-4.818650">
        <ele>1329.0</ele>
        <time>2015-03-17T14:05:34Z</time>
      </trkpt>
      <trkpt lat="43.142500" lon="-4.818567">
        <ele>1325.0</ele>
        <time>2015-03-17T14:05:35Z</time>
      </trkpt>
      <trkpt lat="43.142617" lon="-4.818467">
        <ele>1322.0</ele>
        <time>2015-03-17T14:05:36Z</time>
      </trkpt>
      <trkpt lat="43.142717" lon="-4.818367">
        <ele>1319.0</ele>
        <time>2015-03-17T14:05:37Z</time>
      </trkpt>
      <trkpt lat="43.142833" lon="-4.818267">
        <ele>1316.0</ele>
        <time>2015-03-17T14:05:38Z</time>
      </trkpt>
      <trkpt lat="43.142950" lon="-4.818183">
        <ele>1312.0</ele>
        <time>2015-03-17T14:05:39Z</time>
      </trkpt>
      <trkpt lat="43.143083" lon="-4.818100">
        <ele>1308.0</ele>
        <time>2015-03-17T14:05:40Z</time>
      </trkpt>
      <trkpt lat="43.143200" lon="-4.818000">
        <ele>1305.0</ele>
        <time>2015-03-17T14:05:41Z</time>
      </trkpt>
      <trkpt lat="43.143317" lon="-4.817900">
        <ele>1303.0</ele>
        <time>2015-03-17T14:05:42Z</time>
      </trkpt>
      <trkpt lat="43.143417" lon="-4.817817">
        <ele>1299.0</ele>
        <time>2015-03-17T14:05:43Z</time>
      </trkpt>
      <trkpt lat="43.143517" lon="-4.817717">
        <ele>1296.0</ele>
        <time>2015-03-17T14:05:44Z</time>
      </trkpt>
      <trkpt lat="43.143633" lon="-4.817633">
        <ele>1291.0</ele>
        <time>2015-03-17T14:05:45Z</time>
      </trkpt>
      <trkpt lat="43.143750" lon="-4.817550">
        <ele>1286.0</ele>
        <time>2015-03-17T14:05:46Z</time>
      </trkpt>
      <trkpt lat="43.143883" lon="-4.817467">
        <ele>1282.0</ele>
        <time>2015-03-17T14:05:47Z</time>
      </trkpt>
      <trkpt lat="43.144017" lon="-4.817383">
        <ele>1280.0</ele>
        <time>2015-03-17T14:05:48Z</time>
      </trkpt>
      <trkpt lat="43.144150" lon="-4.817317">
        <ele>1278.0</ele>
        <time>2015-03-17T14:05:49Z</time>
      </trkpt>
      <trkpt lat="43.144283" lon="-4.817267">
        <ele>1276.0</ele>
        <time>2015-03-17T14:05:50Z</time>
      </trkpt>
      <trkpt lat="43.144400" lon="-4.817217">
        <ele>1278.0</ele>
        <time>2015-03-17T14:05:51Z</time>
      </trkpt>
      <trkpt lat="43.144483" lon="-4.817183">
        <ele>1277.0</ele>
        <time>2015-03-17T14:05:52Z</time>
      </trkpt>
      <trkpt lat="43.144550" lon="-4.817133">
        <ele>1277.0</ele>
        <time>2015-03-17T14:05:53Z</time>
      </trkpt>
      <trkpt lat="43.144617" lon="-4.817083">
        <ele>1276.0</ele>
        <time>2015-03-17T14:05:54Z</time>
      </trkpt>
      <trkpt lat="43.144667" lon="-4.817050">
        <ele>1276.0</ele>
        <time>2015-03-17T14:05:55Z</time>
      </trkpt>
      <trkpt lat="43.144733" lon="-4.817000">
        <ele>1275.0</ele>
        <time>2015-03-17T14:05:56Z</time>
      </trkpt>
      <trkpt lat="43.144833" lon="-4.816950">
        <ele>1274.0</ele>
        <time>2015-03-17T14:05:57Z</time>
      </trkpt>
      <trkpt lat="43.144933" lon="-4.816917">
        <ele>1273.0</ele>
        <time>2015-03-17T14:05:58Z</time>
      </trkpt>
      <trkpt lat="43.145050" lon="-4.816883">
        <ele>1272.0</ele>
        <time>2015-03-17T14:05:59Z</time>
      </trkpt>
      <trkpt lat="43.145133" lon="-4.816867">
        <ele>1271.0</ele>
        <time>2015-03-17T14:06:00Z</time>
      </trkpt>
      <trkpt lat="43.145217" lon="-4.816867">
        <ele>1270.0</ele>
        <time>2015-03-17T14:06:01Z</time>
      </trkpt>
      <trkpt lat="43.145300" lon="-4.816867">
        <ele>1271.0</ele>
        <time>2015-03-17T14:06:02Z</time>
      </trkpt>
      <trkpt lat="43.145367" lon="-4.816850">
        <ele>1271.0</ele>
        <time>2015-03-17T14:06:03Z</time>
      </trkpt>
      <trkpt lat="43.145433" lon="-4.816850">
        <ele>1270.0</ele>
        <time>2015-03-17T14:06:04Z</time>
      </trkpt>
      <trkpt lat="43.145500" lon="-4.816833">
        <ele>1268.0</ele>
        <time>2015-03-17T14:06:05Z</time>
      </trkpt>
      <trkpt lat="43.145550" lon="-4.816833">
        <ele>1267.0</ele>
        <time>2015-03-17T14:06:06Z</time>
      </trkpt>
      <trkpt lat="43.145617" lon="-4.816850">
        <ele>1266.0</ele>
        <time>2015-03-17T14:06:07Z</time>
      </trkpt>
      <trkpt lat="43.145683" lon="-4.816850">
        <ele>1265.0</ele>
        <time>2015-03-17T14:06:08Z</time>
      </trkpt>
      <trkpt lat="43.145750" lon="-4.816867">
        <ele>1262.0</ele>
        <time>2015-03-17T14:06:09Z</time>
      </trkpt>
      <trkpt lat="43.145817" lon="-4.816883">
        <ele>1262.0</ele>
        <time>2015-03-17T14:06:10Z</time>
      </trkpt>
      <trkpt lat="43.145917" lon="-4.816900">
        <ele>1260.0</ele>
        <time>2015-03-17T14:06:11Z</time>
      </trkpt>
      <trkpt lat="43.146033" lon="-4.816917">
        <ele>1259.0</ele>
        <time>2015-03-17T14:06:12Z</time>
      </trkpt>
      <trkpt lat="43.146150" lon="-4.816933">
        <ele>1257.0</ele>
        <time>2015-03-17T14:06:13Z</time>
      </trkpt>
      <trkpt lat="43.146267" lon="-4.816950">
        <ele>1256.0</ele>
        <time>2015-03-17T14:06:14Z</time>
      </trkpt>
      <trkpt lat="43.146367" lon="-4.816967">
        <ele>1255.0</ele>
        <time>2015-03-17T14:06:15Z</time>
      </trkpt>
      <trkpt lat="43.146450" lon="-4.816967">
        <ele>1254.0</ele>
        <time>2015-03-17T14:06:16Z</time>
      </trkpt>
      <trkpt lat="43.146500" lon="-4.816967">
        <ele>1253.0</ele>
        <time>2015-03-17T14:06:17Z</time>
      </trkpt>
      <trkpt lat="43.146550" lon="-4.816933">
        <ele>1254.0</ele>
        <time>2015-03-17T14:06:18Z</time>
      </trkpt>
      <trkpt lat="43.146617" lon="-4.816900">
        <ele>1254.0</ele>
        <time>2015-03-17T14:06:19Z</time>
      </trkpt>
      <trkpt lat="43.146733" lon="-4.816867">
        <ele>1254.0</ele>
        <time>2015-03-17T14:06:20Z</time>
      </trkpt>
      <trkpt lat="43.146833" lon="-4.816833">
        <ele>1254.0</ele>
        <time>2015-03-17T14:06:21Z</time>
      </trkpt>
      <trkpt lat="43.146950" lon="-4.816817">
        <ele>1254.0</ele>
        <time>2015-03-17T14:06:22Z</time>
      </trkpt>
      <trkpt lat="43.147033" lon="-4.816817">
        <ele>1254.0</ele>
        <time>2015-03-17T14:06:23Z</time>
      </trkpt>
      <trkpt lat="43.147100" lon="-4.816800">
        <ele>1254.0</ele>
        <time>2015-03-17T14:06:24Z</time>
      </trkpt>
      <trkpt lat="43.147150" lon="-4.816783">
        <ele>1255.0</ele>
        <time>2015-03-17T14:06:25Z</time>
      </trkpt>
      <trkpt lat="43.147200" lon="-4.816767">
        <ele>1254.0</ele>
        <time>2015-03-17T14:06:26Z</time>
      </trkpt>
      <trkpt lat="43.147267" lon="-4.816733">
        <ele>1254.0</ele>
        <time>2015-03-17T14:06:27Z</time>
      </trkpt>
      <trkpt lat="43.147317" lon="-4.816717">
        <ele>1254.0</ele>
        <time>2015-03-17T14:06:28Z</time>
      </trkpt>
      <trkpt lat="43.147400" lon="-4.816700">
        <ele>1254.0</ele>
        <time>2015-03-17T14:06:29Z</time>
      </trkpt>
      <trkpt lat="43.147483" lon="-4.816667">
        <ele>1253.0</ele>
        <time>2015-03-17T14:06:30Z</time>
      </trkpt>
      <trkpt lat="43.147567" lon="-4.816650">
        <ele>1253.0</ele>
        <time>2015-03-17T14:06:31Z</time>
      </trkpt>
      <trkpt lat="43.147667" lon="-4.816650">
        <ele>1253.0</ele>
        <time>2015-03-17T14:06:32Z</time>
      </trkpt>
      <trkpt lat="43.147733" lon="-4.816633">
        <ele>1253.0</ele>
        <time>2015-03-17T14:06:33Z</time>
      </trkpt>
      <trkpt lat="43.147817" lon="-4.816600">
        <ele>1253.0</ele>
        <time>2015-03-17T14:06:34Z</time>
      </trkpt>
      <trkpt lat="43.147900" lon="-4.816567">
        <ele>1253.0</ele>
        <time>2015-03-17T14:06:35Z</time>
      </trkpt>
      <trkpt lat="43.147983" lon="-4.816533">
        <ele>1252.0</ele>
        <time>2015-03-17T14:06:36Z</time>
      </trkpt>
      <trkpt lat="43.148067" lon="-4.816500">
        <ele>1253.0</ele>
        <time>2015-03-17T14:06:37Z</time>
      </trkpt>
      <trkpt lat="43.148167" lon="-4.816467">
        <ele>1253.0</ele>
        <time>2015-03-17T14:06:38Z</time>
      </trkpt>
      <trkpt lat="43.148250" lon="-4.816433">
        <ele>1253.0</ele>
        <time>2015-03-17T14:06:39Z</time>
      </trkpt>
      <trkpt lat="43.148333" lon="-4.816400">
        <ele>1253.0</ele>
        <time>2015-03-17T14:06:40Z</time>
      </trkpt>
      <trkpt lat="43.148417" lon="-4.816367">
        <ele>1253.0</ele>
        <time>2015-03-17T14:06:41Z</time>
      </trkpt>
      <trkpt lat="43.148483" lon="-4.816317">
        <ele>1252.0</ele>
        <time>2015-03-17T14:06:42Z</time>
      </trkpt>
      <trkpt lat="43.148550" lon="-4.816283">
        <ele>1252.0</ele>
        <time>2015-03-17T14:06:43Z</time>
      </trkpt>
      <trkpt lat="43.148633" lon="-4.816233">
        <ele>1252.0</ele>
        <time>2015-03-17T14:06:44Z</time>
      </trkpt>
      <trkpt lat="43.148700" lon="-4.816167">
        <ele>1252.0</ele>
        <time>2015-03-17T14:06:45Z</time>
      </trkpt>
      <trkpt lat="43.148767" lon="-4.816117">
        <ele>1252.0</ele>
        <time>2015-03-17T14:06:46Z</time>
      </trkpt>
      <trkpt lat="43.148833" lon="-4.816050">
        <ele>1252.0</ele>
        <time>2015-03-17T14:06:47Z</time>
      </trkpt>
      <trkpt lat="43.148917" lon="-4.816000">
        <ele>1252.0</ele>
        <time>2015-03-17T14:06:48Z</time>
      </trkpt>
      <trkpt lat="43.149000" lon="-4.815950">
        <ele>1252.0</ele>
        <time>2015-03-17T14:06:49Z</time>
      </trkpt>
      <trkpt lat="43.149083" lon="-4.815883">
        <ele>1252.0</ele>
        <time>2015-03-17T14:06:50Z</time>
      </trkpt>
      <trkpt lat="43.149167" lon="-4.815833">
        <ele>1252.0</ele>
        <time>2015-03-17T14:06:51Z</time>
      </trkpt>
      <trkpt lat="43.149233" lon="-4.815767">
        <ele>1251.0</ele>
        <time>2015-03-17T14:06:52Z</time>
      </trkpt>
      <trkpt lat="43.149283" lon="-4.815700">
        <ele>1251.0</ele>
        <time>2015-03-17T14:06:53Z</time>
      </trkpt>
      <trkpt lat="43.149367" lon="-4.815650">
        <ele>1251.0</ele>
        <time>2015-03-17T14:06:54Z</time>
      </trkpt>
      <trkpt lat="43.149433" lon="-4.815600">
        <ele>1251.0</ele>
        <time>2015-03-17T14:06:55Z</time>
      </trkpt>
      <trkpt lat="43.149483" lon="-4.815533">
        <ele>1250.0</ele>
        <time>2015-03-17T14:06:56Z</time>
      </trkpt>
      <trkpt lat="43.149550" lon="-4.815450">
        <ele>1250.0</ele>
        <time>2015-03-17T14:06:57Z</time>
      </trkpt>
      <trkpt lat="43.149617" lon="-4.815367">
        <ele>1250.0</ele>
        <time>2015-03-17T14:06:58Z</time>
      </trkpt>
      <trkpt lat="43.149667" lon="-4.815300">
        <ele>1250.0</ele>
        <time>2015-03-17T14:06:59Z</time>
      </trkpt>
      <trkpt lat="43.149717" lon="-4.815233">
        <ele>1250.0</ele>
        <time>2015-03-17T14:07:00Z</time>
      </trkpt>
      <trkpt lat="43.149767" lon="-4.815150">
        <ele>1250.0</ele>
        <time>2015-03-17T14:07:01Z</time>
      </trkpt>
      <trkpt lat="43.149817" lon="-4.814967">
        <ele>1250.0</ele>
        <time>2015-03-17T14:07:02Z</time>
      </trkpt>
      <trkpt lat="43.149850" lon="-4.814867">
        <ele>1250.0</ele>
        <time>2015-03-17T14:07:03Z</time>
      </trkpt>
      <trkpt lat="43.149867" lon="-4.814783">
        <ele>1249.0</ele>
        <time>2015-03-17T14:07:04Z</time>
      </trkpt>
      <trkpt lat="43.149883" lon="-4.814717">
        <ele>1250.0</ele>
        <time>2015-03-17T14:07:05Z</time>
      </trkpt>
      <trkpt lat="43.149917" lon="-4.814633">
        <ele>1250.0</ele>
        <time>2015-03-17T14:07:06Z</time>
      </trkpt>
      <trkpt lat="43.149933" lon="-4.814567">
        <ele>1250.0</ele>
        <time>2015-03-17T14:07:07Z</time>
      </trkpt>
      <trkpt lat="43.149950" lon="-4.814467">
        <ele>1249.0</ele>
        <time>2015-03-17T14:07:08Z</time>
      </trkpt>
      <trkpt lat="43.149967" lon="-4.814350">
        <ele>1249.0</ele>
        <time>2015-03-17T14:07:09Z</time>
      </trkpt>
      <trkpt lat="43.150000" lon="-4.814233">
        <ele>1249.0</ele>
        <time>2015-03-17T14:07:10Z</time>
      </trkpt>
      <trkpt lat="43.150050" lon="-4.814117">
        <ele>1249.0</ele>
        <time>2015-03-17T14:07:11Z</time>
      </trkpt>
      <trkpt lat="43.150083" lon="-4.814033">
        <ele>1249.0</ele>
        <time>2015-03-17T14:07:12Z</time>
      </trkpt>
      <trkpt lat="43.150100" lon="-4.813950">
        <ele>1249.0</ele>
        <time>2015-03-17T14:07:13Z</time>
      </trkpt>
      <trkpt lat="43.150117" lon="-4.813867">
        <ele>1249.0</ele>
        <time>2015-03-17T14:07:14Z</time>
      </trkpt>
      <trkpt lat="43.150133" lon="-4.813783">
        <ele>1249.0</ele>
        <time>2015-03-17T14:07:15Z</time>
      </trkpt>
      <trkpt lat="43.150150" lon="-4.813683">
        <ele>1249.0</ele>
        <time>2015-03-17T14:07:16Z</time>
      </trkpt>
      <trkpt lat="43.150167" lon="-4.813583">
        <ele>1249.0</ele>
        <time>2015-03-17T14:07:17Z</time>
      </trkpt>
      <trkpt lat="43.150183" lon="-4.813500">
        <ele>1249.0</ele>
        <time>2015-03-17T14:07:18Z</time>
      </trkpt>
      <trkpt lat="43.150217" lon="-4.813400">
        <ele>1249.0</ele>
        <time>2015-03-17T14:07:19Z</time>
      </trkpt>
      <trkpt lat="43.150233" lon="-4.813300">
        <ele>1249.0</ele>
        <time>2015-03-17T14:07:20Z</time>
      </trkpt>
      <trkpt lat="43.150250" lon="-4.813217">
        <ele>1249.0</ele>
        <time>2015-03-17T14:07:21Z</time>
      </trkpt>
      <trkpt lat="43.150267" lon="-4.813117">
        <ele>1249.0</ele>
        <time>2015-03-17T14:07:22Z</time>
      </trkpt>
      <trkpt lat="43.150267" lon="-4.813033">
        <ele>1249.0</ele>
        <time>2015-03-17T14:07:23Z</time>
      </trkpt>
      <trkpt lat="43.150283" lon="-4.812933">
        <ele>1249.0</ele>
        <time>2015-03-17T14:07:24Z</time>
      </trkpt>
      <trkpt lat="43.150283" lon="-4.812850">
        <ele>1249.0</ele>
        <time>2015-03-17T14:07:25Z</time>
      </trkpt>
      <trkpt lat="43.150283" lon="-4.812767">
        <ele>1249.0</ele>
        <time>2015-03-17T14:07:26Z</time>
      </trkpt>
      <trkpt lat="43.150300" lon="-4.812683">
        <ele>1249.0</ele>
        <time>2015-03-17T14:07:27Z</time>
      </trkpt>
      <trkpt lat="43.150333" lon="-4.812617">
        <ele>1249.0</ele>
        <time>2015-03-17T14:07:28Z</time>
      </trkpt>
      <trkpt lat="43.150350" lon="-4.812517">
        <ele>1249.0</ele>
        <time>2015-03-17T14:07:29Z</time>
      </trkpt>
      <trkpt lat="43.150367" lon="-4.812417">
        <ele>1249.0</ele>
        <time>2015-03-17T14:07:30Z</time>
      </trkpt>
      <trkpt lat="43.150383" lon="-4.812333">
        <ele>1249.0</ele>
        <time>2015-03-17T14:07:31Z</time>
      </trkpt>
      <trkpt lat="43.150383" lon="-4.812250">
        <ele>1249.0</ele>
        <time>2015-03-17T14:07:32Z</time>
      </trkpt>
      <trkpt lat="43.150400" lon="-4.812150">
        <ele>1249.0</ele>
        <time>2015-03-17T14:07:33Z</time>
      </trkpt>
      <trkpt lat="43.150400" lon="-4.812050">
        <ele>1249.0</ele>
        <time>2015-03-17T14:07:34Z</time>
      </trkpt>
      <trkpt lat="43.150400" lon="-4.811967">
        <ele>1249.0</ele>
        <time>2015-03-17T14:07:35Z</time>
      </trkpt>
      <trkpt lat="43.150400" lon="-4.811900">
        <ele>1249.0</ele>
        <time>2015-03-17T14:07:36Z</time>
      </trkpt>
      <trkpt lat="43.150400" lon="-4.811833">
        <ele>1249.0</ele>
        <time>2015-03-17T14:07:37Z</time>
      </trkpt>
      <trkpt lat="43.150383" lon="-4.811767">
        <ele>1249.0</ele>
        <time>2015-03-17T14:07:38Z</time>
      </trkpt>
      <trkpt lat="43.150367" lon="-4.811733">
        <ele>1249.0</ele>
        <time>2015-03-17T14:07:39Z</time>
      </trkpt>
      <trkpt lat="43.150350" lon="-4.811683">
        <ele>1249.0</ele>
        <time>2015-03-17T14:07:40Z</time>
      </trkpt>
      <trkpt lat="43.150350" lon="-4.811617">
        <ele>1249.0</ele>
        <time>2015-03-17T14:07:41Z</time>
      </trkpt>
      <trkpt lat="43.150350" lon="-4.811550">
        <ele>1249.0</ele>
        <time>2015-03-17T14:07:42Z</time>
      </trkpt>
      <trkpt lat="43.150350" lon="-4.811483">
        <ele>1249.0</ele>
        <time>2015-03-17T14:07:43Z</time>
      </trkpt>
      <trkpt lat="43.150333" lon="-4.811417">
        <ele>1249.0</ele>
        <time>2015-03-17T14:07:44Z</time>
      </trkpt>
      <trkpt lat="43.150350" lon="-4.811350">
        <ele>1249.0</ele>
        <time>2015-03-17T14:07:45Z</time>
      </trkpt>
      <trkpt lat="43.150350" lon="-4.811283">
        <ele>1249.0</ele>
        <time>2015-03-17T14:07:46Z</time>
      </trkpt>
      <trkpt lat="43.150350" lon="-4.811233">
        <ele>1249.0</ele>
        <time>2015-03-17T14:07:47Z</time>
      </trkpt>
      <trkpt lat="43.150350" lon="-4.811183">
        <ele>1249.0</ele>
        <time>2015-03-17T14:07:48Z</time>
      </trkpt>
      <trkpt lat="43.150333" lon="-4.811133">
        <ele>1249.0</ele>
        <time>2015-03-17T14:07:49Z</time>
      </trkpt>
      <trkpt lat="43.150350" lon="-4.811050">
        <ele>1250.0</ele>
        <time>2015-03-17T14:07:50Z</time>
      </trkpt>
      <trkpt lat="43.150333" lon="-4.810983">
        <ele>1250.0</ele>
        <time>2015-03-17T14:07:51Z</time>
      </trkpt>
      <trkpt lat="43.150317" lon="-4.810917">
        <ele>1250.0</ele>
        <time>2015-03-17T14:07:52Z</time>
      </trkpt>
      <trkpt lat="43.150317" lon="-4.810867">
        <ele>1250.0</ele>
        <time>2015-03-17T14:07:53Z</time>
      </trkpt>
      <trkpt lat="43.150300" lon="-4.810817">
        <ele>1250.0</ele>
        <time>2015-03-17T14:07:54Z</time>
      </trkpt>
      <trkpt lat="43.150250" lon="-4.810817">
        <ele>1250.0</ele>
        <time>2015-03-17T14:07:55Z</time>
      </trkpt>
      <trkpt lat="43.150233" lon="-4.810767">
        <ele>1250.0</ele>
        <time>2015-03-17T14:07:56Z</time>
      </trkpt>
      <trkpt lat="43.150200" lon="-4.810733">
        <ele>1250.0</ele>
        <time>2015-03-17T14:07:57Z</time>
      </trkpt>
      <trkpt lat="43.150183" lon="-4.810667">
        <ele>1251.0</ele>
        <time>2015-03-17T14:07:58Z</time>
      </trkpt>
      <trkpt lat="43.150150" lon="-4.810617">
        <ele>1251.0</ele>
        <time>2015-03-17T14:07:59Z</time>
      </trkpt>
      <trkpt lat="43.150117" lon="-4.810600">
        <ele>1251.0</ele>
        <time>2015-03-17T14:08:00Z</time>
      </trkpt>
      <trkpt lat="43.150067" lon="-4.810667">
        <ele>1251.0</ele>
        <time>2015-03-17T14:08:01Z</time>
      </trkpt>
      <trkpt lat="43.150067" lon="-4.810850">
        <ele>1252.0</ele>
        <time>2015-03-17T14:08:02Z</time>
      </trkpt>
      <trkpt lat="43.150067" lon="-4.810967">
        <ele>1252.0</ele>
        <time>2015-03-17T14:08:03Z</time>
      </trkpt>
      <trkpt lat="43.150117" lon="-4.811067">
        <ele>1253.0</ele>
        <time>2015-03-17T14:08:04Z</time>
      </trkpt>
      <trkpt lat="43.150183" lon="-4.811133">
        <ele>1254.0</ele>
        <time>2015-03-17T14:08:05Z</time>
      </trkpt>
      <trkpt lat="43.150250" lon="-4.811217">
        <ele>1255.0</ele>
        <time>2015-03-17T14:08:06Z</time>
      </trkpt>
      <trkpt lat="43.150300" lon="-4.811300">
        <ele>1255.0</ele>
        <time>2015-03-17T14:08:07Z</time>
      </trkpt>
      <trkpt lat="43.150367" lon="-4.811383">
        <ele>1255.0</ele>
        <time>2015-03-17T14:08:08Z</time>
      </trkpt>
      <trkpt lat="43.150433" lon="-4.811467">
        <ele>1256.0</ele>
        <time>2015-03-17T14:08:09Z</time>
      </trkpt>
      <trkpt lat="43.150500" lon="-4.811567">
        <ele>1256.0</ele>
        <time>2015-03-17T14:08:10Z</time>
      </trkpt>
      <trkpt lat="43.150567" lon="-4.811667">
        <ele>1256.0</ele>
        <time>2015-03-17T14:08:11Z</time>
      </trkpt>
      <trkpt lat="43.150633" lon="-4.811767">
        <ele>1257.0</ele>
        <time>2015-03-17T14:08:12Z</time>
      </trkpt>
      <trkpt lat="43.150667" lon="-4.811867">
        <ele>1258.0</ele>
        <time>2015-03-17T14:08:13Z</time>
      </trkpt>
      <trkpt lat="43.150717" lon="-4.811967">
        <ele>1259.0</ele>
        <time>2015-03-17T14:08:14Z</time>
      </trkpt>
      <trkpt lat="43.150750" lon="-4.812083">
        <ele>1259.0</ele>
        <time>2015-03-17T14:08:15Z</time>
      </trkpt>
      <trkpt lat="43.150800" lon="-4.812200">
        <ele>1260.0</ele>
        <time>2015-03-17T14:08:16Z</time>
      </trkpt>
      <trkpt lat="43.150867" lon="-4.812317">
        <ele>1261.0</ele>
        <time>2015-03-17T14:08:17Z</time>
      </trkpt>
      <trkpt lat="43.150917" lon="-4.812433">
        <ele>1262.0</ele>
        <time>2015-03-17T14:08:18Z</time>
      </trkpt>
      <trkpt lat="43.150933" lon="-4.812517">
        <ele>1261.0</ele>
        <time>2015-03-17T14:08:19Z</time>
      </trkpt>
      <trkpt lat="43.150967" lon="-4.812617">
        <ele>1262.0</ele>
        <time>2015-03-17T14:08:20Z</time>
      </trkpt>
      <trkpt lat="43.150983" lon="-4.812733">
        <ele>1263.0</ele>
        <time>2015-03-17T14:08:21Z</time>
      </trkpt>
      <trkpt lat="43.151017" lon="-4.812867">
        <ele>1263.0</ele>
        <time>2015-03-17T14:08:22Z</time>
      </trkpt>
      <trkpt lat="43.151017" lon="-4.812983">
        <ele>1265.0</ele>
        <time>2015-03-17T14:08:23Z</time>
      </trkpt>
      <trkpt lat="43.151000" lon="-4.813050">
        <ele>1262.0</ele>
        <time>2015-03-17T14:08:24Z</time>
      </trkpt>
      <trkpt lat="43.150967" lon="-4.813083">
        <ele>1261.0</ele>
        <time>2015-03-17T14:08:25Z</time>
      </trkpt>
      <trkpt lat="43.150900" lon="-4.813100">
        <ele>1262.0</ele>
        <time>2015-03-17T14:08:26Z</time>
      </trkpt>
      <trkpt lat="43.150817" lon="-4.813050">
        <ele>1265.0</ele>
        <time>2015-03-17T14:08:27Z</time>
      </trkpt>
      <trkpt lat="43.150783" lon="-4.812983">
        <ele>1269.0</ele>
        <time>2015-03-17T14:08:28Z</time>
      </trkpt>
      <trkpt lat="43.150767" lon="-4.812917">
        <ele>1272.0</ele>
        <time>2015-03-17T14:08:29Z</time>
      </trkpt>
      <trkpt lat="43.150783" lon="-4.812850">
        <ele>1273.0</ele>
        <time>2015-03-17T14:08:30Z</time>
      </trkpt>
      <trkpt lat="43.150800" lon="-4.812783">
        <ele>1274.0</ele>
        <time>2015-03-17T14:08:31Z</time>
      </trkpt>
      <trkpt lat="43.150800" lon="-4.812700">
        <ele>1275.0</ele>
        <time>2015-03-17T14:08:32Z</time>
      </trkpt>
      <trkpt lat="43.150817" lon="-4.812617">
        <ele>1276.0</ele>
        <time>2015-03-17T14:08:33Z</time>
      </trkpt>
      <trkpt lat="43.150867" lon="-4.812500">
        <ele>1272.0</ele>
        <time>2015-03-17T14:08:34Z</time>
      </trkpt>
      <trkpt lat="43.150883" lon="-4.812383">
        <ele>1271.0</ele>
        <time>2015-03-17T14:08:35Z</time>
      </trkpt>
      <trkpt lat="43.150900" lon="-4.812283">
        <ele>1271.0</ele>
        <time>2015-03-17T14:08:36Z</time>
      </trkpt>
      <trkpt lat="43.150917" lon="-4.812183">
        <ele>1271.0</ele>
        <time>2015-03-17T14:08:37Z</time>
      </trkpt>
      <trkpt lat="43.150933" lon="-4.812083">
        <ele>1271.0</ele>
        <time>2015-03-17T14:08:38Z</time>
      </trkpt>
      <trkpt lat="43.150950" lon="-4.812000">
        <ele>1271.0</ele>
        <time>2015-03-17T14:08:39Z</time>
      </trkpt>
      <trkpt lat="43.150967" lon="-4.811900">
        <ele>1271.0</ele>
        <time>2015-03-17T14:08:40Z</time>
      </trkpt>
      <trkpt lat="43.150983" lon="-4.811817">
        <ele>1271.0</ele>
        <time>2015-03-17T14:08:41Z</time>
      </trkpt>
      <trkpt lat="43.150983" lon="-4.811733">
        <ele>1271.0</ele>
        <time>2015-03-17T14:08:42Z</time>
      </trkpt>
      <trkpt lat="43.151000" lon="-4.811667">
        <ele>1271.0</ele>
        <time>2015-03-17T14:08:43Z</time>
      </trkpt>
      <trkpt lat="43.151000" lon="-4.811600">
        <ele>1272.0</ele>
        <time>2015-03-17T14:08:44Z</time>
      </trkpt>
      <trkpt lat="43.151000" lon="-4.811517">
        <ele>1272.0</ele>
        <time>2015-03-17T14:08:45Z</time>
      </trkpt>
      <trkpt lat="43.150983" lon="-4.811433">
        <ele>1272.0</ele>
        <time>2015-03-17T14:08:46Z</time>
      </trkpt>
      <trkpt lat="43.150983" lon="-4.811350">
        <ele>1272.0</ele>
        <time>2015-03-17T14:08:47Z</time>
      </trkpt>
      <trkpt lat="43.150967" lon="-4.811283">
        <ele>1272.0</ele>
        <time>2015-03-17T14:08:48Z</time>
      </trkpt>
      <trkpt lat="43.150950" lon="-4.811217">
        <ele>1272.0</ele>
        <time>2015-03-17T14:08:49Z</time>
      </trkpt>
      <trkpt lat="43.150933" lon="-4.811167">
        <ele>1273.0</ele>
        <time>2015-03-17T14:08:50Z</time>
      </trkpt>
      <trkpt lat="43.150900" lon="-4.811117">
        <ele>1273.0</ele>
        <time>2015-03-17T14:08:51Z</time>
      </trkpt>
      <trkpt lat="43.150883" lon="-4.811050">
        <ele>1273.0</ele>
        <time>2015-03-17T14:08:52Z</time>
      </trkpt>
      <trkpt lat="43.150867" lon="-4.810983">
        <ele>1273.0</ele>
        <time>2015-03-17T14:08:53Z</time>
      </trkpt>
      <trkpt lat="43.150867" lon="-4.810917">
        <ele>1273.0</ele>
        <time>2015-03-17T14:08:54Z</time>
      </trkpt>
      <trkpt lat="43.150867" lon="-4.810850">
        <ele>1273.0</ele>
        <time>2015-03-17T14:08:55Z</time>
      </trkpt>
      <trkpt lat="43.150867" lon="-4.810783">
        <ele>1274.0</ele>
        <time>2015-03-17T14:08:56Z</time>
      </trkpt>
      <trkpt lat="43.150867" lon="-4.810717">
        <ele>1274.0</ele>
        <time>2015-03-17T14:08:57Z</time>
      </trkpt>
      <trkpt lat="43.150850" lon="-4.810650">
        <ele>1274.0</ele>
        <time>2015-03-17T14:08:58Z</time>
      </trkpt>
      <trkpt lat="43.150833" lon="-4.810600">
        <ele>1274.0</ele>
        <time>2015-03-17T14:08:59Z</time>
      </trkpt>
      <trkpt lat="43.150817" lon="-4.810550">
        <ele>1274.0</ele>
        <time>2015-03-17T14:09:00Z</time>
      </trkpt>
      <trkpt lat="43.150783" lon="-4.810517">
        <ele>1275.0</ele>
        <time>2015-03-17T14:09:01Z</time>
      </trkpt>
      <trkpt lat="43.150733" lon="-4.810483">
        <ele>1275.0</ele>
        <time>2015-03-17T14:09:02Z</time>
      </trkpt>
      <trkpt lat="43.150700" lon="-4.810450">
        <ele>1275.0</ele>
        <time>2015-03-17T14:09:03Z</time>
      </trkpt>
      <trkpt lat="43.150667" lon="-4.810417">
        <ele>1275.0</ele>
        <time>2015-03-17T14:09:04Z</time>
      </trkpt>
      <trkpt lat="43.150617" lon="-4.810383">
        <ele>1275.0</ele>
        <time>2015-03-17T14:09:05Z</time>
      </trkpt>
      <trkpt lat="43.150583" lon="-4.810350">
        <ele>1276.0</ele>
        <time>2015-03-17T14:09:06Z</time>
      </trkpt>
      <trkpt lat="43.150533" lon="-4.810317">
        <ele>1276.0</ele>
        <time>2015-03-17T14:09:07Z</time>
      </trkpt>
      <trkpt lat="43.150500" lon="-4.810283">
        <ele>1276.0</ele>
        <time>2015-03-17T14:09:08Z</time>
      </trkpt>
      <trkpt lat="43.150450" lon="-4.810267">
        <ele>1276.0</ele>
        <time>2015-03-17T14:09:09Z</time>
      </trkpt>
      <trkpt lat="43.150417" lon="-4.810233">
        <ele>1276.0</ele>
        <time>2015-03-17T14:09:10Z</time>
      </trkpt>
      <trkpt lat="43.150367" lon="-4.810217">
        <ele>1277.0</ele>
        <time>2015-03-17T14:09:11Z</time>
      </trkpt>
      <trkpt lat="43.150317" lon="-4.810217">
        <ele>1277.0</ele>
        <time>2015-03-17T14:09:12Z</time>
      </trkpt>
      <trkpt lat="43.150283" lon="-4.810233">
        <ele>1277.0</ele>
        <time>2015-03-17T14:09:13Z</time>
      </trkpt>
      <trkpt lat="43.150250" lon="-4.810283">
        <ele>1278.0</ele>
        <time>2015-03-17T14:09:14Z</time>
      </trkpt>
      <trkpt lat="43.150217" lon="-4.810333">
        <ele>1278.0</ele>
        <time>2015-03-17T14:09:15Z</time>
      </trkpt>
      <trkpt lat="43.150200" lon="-4.810400">
        <ele>1278.0</ele>
        <time>2015-03-17T14:09:16Z</time>
      </trkpt>
      <trkpt lat="43.150183" lon="-4.810483">
        <ele>1279.0</ele>
        <time>2015-03-17T14:09:17Z</time>
      </trkpt>
      <trkpt lat="43.150200" lon="-4.810583">
        <ele>1279.0</ele>
        <time>2015-03-17T14:09:18Z</time>
      </trkpt>
      <trkpt lat="43.150217" lon="-4.810700">
        <ele>1279.0</ele>
        <time>2015-03-17T14:09:19Z</time>
      </trkpt>
      <trkpt lat="43.150250" lon="-4.810783">
        <ele>1280.0</ele>
        <time>2015-03-17T14:09:20Z</time>
      </trkpt>
      <trkpt lat="43.150317" lon="-4.810883">
        <ele>1280.0</ele>
        <time>2015-03-17T14:09:21Z</time>
      </trkpt>
      <trkpt lat="43.150383" lon="-4.810950">
        <ele>1281.0</ele>
        <time>2015-03-17T14:09:22Z</time>
      </trkpt>
      <trkpt lat="43.150433" lon="-4.811017">
        <ele>1281.0</ele>
        <time>2015-03-17T14:09:23Z</time>
      </trkpt>
      <trkpt lat="43.150517" lon="-4.811083">
        <ele>1281.0</ele>
        <time>2015-03-17T14:09:24Z</time>
      </trkpt>
      <trkpt lat="43.150583" lon="-4.811133">
        <ele>1282.0</ele>
        <time>2015-03-17T14:09:25Z</time>
      </trkpt>
      <trkpt lat="43.150683" lon="-4.811183">
        <ele>1282.0</ele>
        <time>2015-03-17T14:09:26Z</time>
      </trkpt>
      <trkpt lat="43.150767" lon="-4.811233">
        <ele>1283.0</ele>
        <time>2015-03-17T14:09:27Z</time>
      </trkpt>
      <trkpt lat="43.150850" lon="-4.811300">
        <ele>1283.0</ele>
        <time>2015-03-17T14:09:28Z</time>
      </trkpt>
      <trkpt lat="43.150900" lon="-4.811367">
        <ele>1283.0</ele>
        <time>2015-03-17T14:09:29Z</time>
      </trkpt>
      <trkpt lat="43.150967" lon="-4.811450">
        <ele>1284.0</ele>
        <time>2015-03-17T14:09:30Z</time>
      </trkpt>
      <trkpt lat="43.151033" lon="-4.811550">
        <ele>1284.0</ele>
        <time>2015-03-17T14:09:31Z</time>
      </trkpt>
      <trkpt lat="43.151100" lon="-4.811667">
        <ele>1285.0</ele>
        <time>2015-03-17T14:09:32Z</time>
      </trkpt>
      <trkpt lat="43.151133" lon="-4.811783">
        <ele>1286.0</ele>
        <time>2015-03-17T14:09:33Z</time>
      </trkpt>
      <trkpt lat="43.151183" lon="-4.811900">
        <ele>1287.0</ele>
        <time>2015-03-17T14:09:34Z</time>
      </trkpt>
      <trkpt lat="43.151217" lon="-4.811983">
        <ele>1287.0</ele>
        <time>2015-03-17T14:09:35Z</time>
      </trkpt>
      <trkpt lat="43.151250" lon="-4.812083">
        <ele>1288.0</ele>
        <time>2015-03-17T14:09:36Z</time>
      </trkpt>
      <trkpt lat="43.151267" lon="-4.812167">
        <ele>1288.0</ele>
        <time>2015-03-17T14:09:37Z</time>
      </trkpt>
      <trkpt lat="43.151283" lon="-4.812283">
        <ele>1289.0</ele>
        <time>2015-03-17T14:09:38Z</time>
      </trkpt>
      <trkpt lat="43.151300" lon="-4.812383">
        <ele>1290.0</ele>
        <time>2015-03-17T14:09:39Z</time>
      </trkpt>
      <trkpt lat="43.151317" lon="-4.812500">
        <ele>1291.0</ele>
        <time>2015-03-17T14:09:40Z</time>
      </trkpt>
      <trkpt lat="43.151333" lon="-4.812600">
        <ele>1292.0</ele>
        <time>2015-03-17T14:09:41Z</time>
      </trkpt>
      <trkpt lat="43.151367" lon="-4.812717">
        <ele>1293.0</ele>
        <time>2015-03-17T14:09:42Z</time>
      </trkpt>
      <trkpt lat="43.151383" lon="-4.812817">
        <ele>1295.0</ele>
        <time>2015-03-17T14:09:43Z</time>
      </trkpt>
      <trkpt lat="43.151400" lon="-4.812933">
        <ele>1296.0</ele>
        <time>2015-03-17T14:09:44Z</time>
      </trkpt>
      <trkpt lat="43.151433" lon="-4.813050">
        <ele>1297.0</ele>
        <time>2015-03-17T14:09:45Z</time>
      </trkpt>
      <trkpt lat="43.151467" lon="-4.813133">
        <ele>1296.0</ele>
        <time>2015-03-17T14:09:46Z</time>
      </trkpt>
      <trkpt lat="43.151467" lon="-4.813233">
        <ele>1296.0</ele>
        <time>2015-03-17T14:09:47Z</time>
      </trkpt>
      <trkpt lat="43.151467" lon="-4.813333">
        <ele>1296.0</ele>
        <time>2015-03-17T14:09:48Z</time>
      </trkpt>
      <trkpt lat="43.151467" lon="-4.813450">
        <ele>1297.0</ele>
        <time>2015-03-17T14:09:49Z</time>
      </trkpt>
      <trkpt lat="43.151450" lon="-4.813550">
        <ele>1298.0</ele>
        <time>2015-03-17T14:09:50Z</time>
      </trkpt>
      <trkpt lat="43.151433" lon="-4.813650">
        <ele>1298.0</ele>
        <time>2015-03-17T14:09:51Z</time>
      </trkpt>
      <trkpt lat="43.151400" lon="-4.813767">
        <ele>1301.0</ele>
        <time>2015-03-17T14:09:52Z</time>
      </trkpt>
      <trkpt lat="43.151383" lon="-4.813867">
        <ele>1304.0</ele>
        <time>2015-03-17T14:09:53Z</time>
      </trkpt>
      <trkpt lat="43.151350" lon="-4.813967">
        <ele>1306.0</ele>
        <time>2015-03-17T14:09:54Z</time>
      </trkpt>
      <trkpt lat="43.151317" lon="-4.814050">
        <ele>1307.0</ele>
        <time>2015-03-17T14:09:55Z</time>
      </trkpt>
      <trkpt lat="43.151267" lon="-4.814133">
        <ele>1309.0</ele>
        <time>2015-03-17T14:09:56Z</time>
      </trkpt>
      <trkpt lat="43.151200" lon="-4.814183">
        <ele>1312.0</ele>
        <time>2015-03-17T14:09:57Z</time>
      </trkpt>
      <trkpt lat="43.151133" lon="-4.814183">
        <ele>1315.0</ele>
        <time>2015-03-17T14:09:58Z</time>
      </trkpt>
      <trkpt lat="43.151050" lon="-4.814150">
        <ele>1316.0</ele>
        <time>2015-03-17T14:09:59Z</time>
      </trkpt>
      <trkpt lat="43.150983" lon="-4.814050">
        <ele>1317.0</ele>
        <time>2015-03-17T14:10:00Z</time>
      </trkpt>
      <trkpt lat="43.150967" lon="-4.813933">
        <ele>1318.0</ele>
        <time>2015-03-17T14:10:01Z</time>
      </trkpt>
      <trkpt lat="43.150967" lon="-4.813817">
        <ele>1320.0</ele>
        <time>2015-03-17T14:10:02Z</time>
      </trkpt>
      <trkpt lat="43.150983" lon="-4.813700">
        <ele>1322.0</ele>
        <time>2015-03-17T14:10:03Z</time>
      </trkpt>
      <trkpt lat="43.151017" lon="-4.813617">
        <ele>1323.0</ele>
        <time>2015-03-17T14:10:04Z</time>
      </trkpt>
      <trkpt lat="43.151033" lon="-4.813517">
        <ele>1325.0</ele>
        <time>2015-03-17T14:10:05Z</time>
      </trkpt>
      <trkpt lat="43.151067" lon="-4.813433">
        <ele>1326.0</ele>
        <time>2015-03-17T14:10:06Z</time>
      </trkpt>
      <trkpt lat="43.151083" lon="-4.813333">
        <ele>1328.0</ele>
        <time>2015-03-17T14:10:07Z</time>
      </trkpt>
      <trkpt lat="43.151117" lon="-4.813233">
        <ele>1330.0</ele>
        <time>2015-03-17T14:10:08Z</time>
      </trkpt>
      <trkpt lat="43.151150" lon="-4.813117">
        <ele>1332.0</ele>
        <time>2015-03-17T14:10:09Z</time>
      </trkpt>
      <trkpt lat="43.151183" lon="-4.813017">
        <ele>1335.0</ele>
        <time>2015-03-17T14:10:10Z</time>
      </trkpt>
      <trkpt lat="43.151183" lon="-4.812917">
        <ele>1338.0</ele>
        <time>2015-03-17T14:10:11Z</time>
      </trkpt>
      <trkpt lat="43.151183" lon="-4.812817">
        <ele>1340.0</ele>
        <time>2015-03-17T14:10:12Z</time>
      </trkpt>
      <trkpt lat="43.151167" lon="-4.812733">
        <ele>1342.0</ele>
        <time>2015-03-17T14:10:13Z</time>
      </trkpt>
      <trkpt lat="43.151183" lon="-4.812633">
        <ele>1345.0</ele>
        <time>2015-03-17T14:10:14Z</time>
      </trkpt>
      <trkpt lat="43.151183" lon="-4.812550">
        <ele>1347.0</ele>
        <time>2015-03-17T14:10:15Z</time>
      </trkpt>
      <trkpt lat="43.151167" lon="-4.812450">
        <ele>1351.0</ele>
        <time>2015-03-17T14:10:16Z</time>
      </trkpt>
      <trkpt lat="43.151167" lon="-4.812383">
        <ele>1354.0</ele>
        <time>2015-03-17T14:10:17Z</time>
      </trkpt>
      <trkpt lat="43.151150" lon="-4.812317">
        <ele>1357.0</ele>
        <time>2015-03-17T14:10:18Z</time>
      </trkpt>
      <trkpt lat="43.151133" lon="-4.812233">
        <ele>1359.0</ele>
        <time>2015-03-17T14:10:19Z</time>
      </trkpt>
      <trkpt lat="43.151233" lon="-4.812133">
        <ele>1362.0</ele>
        <time>2015-03-17T14:10:20Z</time>
      </trkpt>
      <trkpt lat="43.151217" lon="-4.812050">
        <ele>1345.0</ele>
        <time>2015-03-17T14:10:21Z</time>
      </trkpt>
      <trkpt lat="43.151217" lon="-4.811967">
        <ele>1346.0</ele>
        <time>2015-03-17T14:10:22Z</time>
      </trkpt>
      <trkpt lat="43.151200" lon="-4.811883">
        <ele>1347.0</ele>
        <time>2015-03-17T14:10:23Z</time>
      </trkpt>
      <trkpt lat="43.151167" lon="-4.811800">
        <ele>1349.0</ele>
        <time>2015-03-17T14:10:24Z</time>
      </trkpt>
      <trkpt lat="43.151150" lon="-4.811733">
        <ele>1350.0</ele>
        <time>2015-03-17T14:10:25Z</time>
      </trkpt>
      <trkpt lat="43.151133" lon="-4.811650">
        <ele>1350.0</ele>
        <time>2015-03-17T14:10:26Z</time>
      </trkpt>
      <trkpt lat="43.151117" lon="-4.811583">
        <ele>1350.0</ele>
        <time>2015-03-17T14:10:27Z</time>
      </trkpt>
      <trkpt lat="43.151100" lon="-4.811517">
        <ele>1351.0</ele>
        <time>2015-03-17T14:10:28Z</time>
      </trkpt>
      <trkpt lat="43.151067" lon="-4.811467">
        <ele>1352.0</ele>
        <time>2015-03-17T14:10:29Z</time>
      </trkpt>
      <trkpt lat="43.151050" lon="-4.811417">
        <ele>1353.0</ele>
        <time>2015-03-17T14:10:30Z</time>
      </trkpt>
      <trkpt lat="43.151033" lon="-4.811350">
        <ele>1353.0</ele>
        <time>2015-03-17T14:10:31Z</time>
      </trkpt>
      <trkpt lat="43.151000" lon="-4.811283">
        <ele>1354.0</ele>
        <time>2015-03-17T14:10:32Z</time>
      </trkpt>
      <trkpt lat="43.150967" lon="-4.811200">
        <ele>1355.0</ele>
        <time>2015-03-17T14:10:33Z</time>
      </trkpt>
      <trkpt lat="43.150967" lon="-4.811133">
        <ele>1357.0</ele>
        <time>2015-03-17T14:10:34Z</time>
      </trkpt>
      <trkpt lat="43.150950" lon="-4.811050">
        <ele>1358.0</ele>
        <time>2015-03-17T14:10:35Z</time>
      </trkpt>
      <trkpt lat="43.150933" lon="-4.810983">
        <ele>1359.0</ele>
        <time>2015-03-17T14:10:36Z</time>
      </trkpt>
      <trkpt lat="43.150900" lon="-4.810900">
        <ele>1361.0</ele>
        <time>2015-03-17T14:10:37Z</time>
      </trkpt>
      <trkpt lat="43.150883" lon="-4.810817">
        <ele>1364.0</ele>
        <time>2015-03-17T14:10:38Z</time>
      </trkpt>
      <trkpt lat="43.150867" lon="-4.810767">
        <ele>1366.0</ele>
        <time>2015-03-17T14:10:39Z</time>
      </trkpt>
      <trkpt lat="43.150850" lon="-4.810717">
        <ele>1369.0</ele>
        <time>2015-03-17T14:10:40Z</time>
      </trkpt>
      <trkpt lat="43.150850" lon="-4.810667">
        <ele>1371.0</ele>
        <time>2015-03-17T14:10:41Z</time>
      </trkpt>
      <trkpt lat="43.150833" lon="-4.810600">
        <ele>1373.0</ele>
        <time>2015-03-17T14:10:42Z</time>
      </trkpt>
      <trkpt lat="43.150800" lon="-4.810533">
        <ele>1375.0</ele>
        <time>2015-03-17T14:10:43Z</time>
      </trkpt>
      <trkpt lat="43.150783" lon="-4.810450">
        <ele>1377.0</ele>
        <time>2015-03-17T14:10:44Z</time>
      </trkpt>
      <trkpt lat="43.150767" lon="-4.810367">
        <ele>1379.0</ele>
        <time>2015-03-17T14:10:45Z</time>
      </trkpt>
      <trkpt lat="43.150733" lon="-4.810300">
        <ele>1382.0</ele>
        <time>2015-03-17T14:10:46Z</time>
      </trkpt>
      <trkpt lat="43.150717" lon="-4.810233">
        <ele>1385.0</ele>
        <time>2015-03-17T14:10:47Z</time>
      </trkpt>
      <trkpt lat="43.150700" lon="-4.810167">
        <ele>1388.0</ele>
        <time>2015-03-17T14:10:48Z</time>
      </trkpt>
      <trkpt lat="43.150683" lon="-4.810100">
        <ele>1390.0</ele>
        <time>2015-03-17T14:10:49Z</time>
      </trkpt>
      <trkpt lat="43.150650" lon="-4.810033">
        <ele>1393.0</ele>
        <time>2015-03-17T14:10:50Z</time>
      </trkpt>
      <trkpt lat="43.150633" lon="-4.809967">
        <ele>1395.0</ele>
        <time>2015-03-17T14:10:51Z</time>
      </trkpt>
      <trkpt lat="43.150667" lon="-4.809883">
        <ele>1384.0</ele>
        <time>2015-03-17T14:10:52Z</time>
      </trkpt>
      <trkpt lat="43.150650" lon="-4.809817">
        <ele>1385.0</ele>
        <time>2015-03-17T14:10:53Z</time>
      </trkpt>
      <trkpt lat="43.150600" lon="-4.809767">
        <ele>1388.0</ele>
        <time>2015-03-17T14:10:54Z</time>
      </trkpt>
      <trkpt lat="43.150533" lon="-4.809733">
        <ele>1394.0</ele>
        <time>2015-03-17T14:10:55Z</time>
      </trkpt>
      <trkpt lat="43.150417" lon="-4.809717">
        <ele>1402.0</ele>
        <time>2015-03-17T14:10:56Z</time>
      </trkpt>
      <trkpt lat="43.150317" lon="-4.809733">
        <ele>1411.0</ele>
        <time>2015-03-17T14:10:57Z</time>
      </trkpt>
      <trkpt lat="43.150217" lon="-4.809783">
        <ele>1415.0</ele>
        <time>2015-03-17T14:10:58Z</time>
      </trkpt>
      <trkpt lat="43.150167" lon="-4.809867">
        <ele>1416.0</ele>
        <time>2015-03-17T14:10:59Z</time>
      </trkpt>
      <trkpt lat="43.150133" lon="-4.810000">
        <ele>1419.0</ele>
        <time>2015-03-17T14:11:00Z</time>
      </trkpt>
      <trkpt lat="43.150167" lon="-4.810117">
        <ele>1422.0</ele>
        <time>2015-03-17T14:11:01Z</time>
      </trkpt>
      <trkpt lat="43.150217" lon="-4.810200">
        <ele>1424.0</ele>
        <time>2015-03-17T14:11:02Z</time>
      </trkpt>
      <trkpt lat="43.150267" lon="-4.810267">
        <ele>1428.0</ele>
        <time>2015-03-17T14:11:03Z</time>
      </trkpt>
      <trkpt lat="43.150333" lon="-4.810317">
        <ele>1429.0</ele>
        <time>2015-03-17T14:11:04Z</time>
      </trkpt>
      <trkpt lat="43.150383" lon="-4.810383">
        <ele>1431.0</ele>
        <time>2015-03-17T14:11:05Z</time>
      </trkpt>
      <trkpt lat="43.150450" lon="-4.810450">
        <ele>1432.0</ele>
        <time>2015-03-17T14:11:06Z</time>
      </trkpt>
      <trkpt lat="43.150533" lon="-4.810500">
        <ele>1433.0</ele>
        <time>2015-03-17T14:11:07Z</time>
      </trkpt>
      <trkpt lat="43.150617" lon="-4.810567">
        <ele>1435.0</ele>
        <time>2015-03-17T14:11:08Z</time>
      </trkpt>
      <trkpt lat="43.150683" lon="-4.810617">
        <ele>1437.0</ele>
        <time>2015-03-17T14:11:09Z</time>
      </trkpt>
      <trkpt lat="43.150750" lon="-4.810667">
        <ele>1441.0</ele>
        <time>2015-03-17T14:11:10Z</time>
      </trkpt>
      <trkpt lat="43.150817" lon="-4.810733">
        <ele>1443.0</ele>
        <time>2015-03-17T14:11:11Z</time>
      </trkpt>
      <trkpt lat="43.150883" lon="-4.810800">
        <ele>1446.0</ele>
        <time>2015-03-17T14:11:12Z</time>
      </trkpt>
      <trkpt lat="43.150967" lon="-4.810867">
        <ele>1448.0</ele>
        <time>2015-03-17T14:11:13Z</time>
      </trkpt>
      <trkpt lat="43.151017" lon="-4.810950">
        <ele>1450.0</ele>
        <time>2015-03-17T14:11:14Z</time>
      </trkpt>
      <trkpt lat="43.151067" lon="-4.811033">
        <ele>1452.0</ele>
        <time>2015-03-17T14:11:15Z</time>
      </trkpt>
      <trkpt lat="43.151117" lon="-4.811117">
        <ele>1454.0</ele>
        <time>2015-03-17T14:11:16Z</time>
      </trkpt>
      <trkpt lat="43.151133" lon="-4.811217">
        <ele>1455.0</ele>
        <time>2015-03-17T14:11:17Z</time>
      </trkpt>
      <trkpt lat="43.151150" lon="-4.811317">
        <ele>1456.0</ele>
        <time>2015-03-17T14:11:18Z</time>
      </trkpt>
      <trkpt lat="43.151133" lon="-4.811400">
        <ele>1458.0</ele>
        <time>2015-03-17T14:11:19Z</time>
      </trkpt>
      <trkpt lat="43.151100" lon="-4.811467">
        <ele>1458.0</ele>
        <time>2015-03-17T14:11:20Z</time>
      </trkpt>
      <trkpt lat="43.151067" lon="-4.811533">
        <ele>1458.0</ele>
        <time>2015-03-17T14:11:21Z</time>
      </trkpt>
      <trkpt lat="43.151017" lon="-4.811550">
        <ele>1459.0</ele>
        <time>2015-03-17T14:11:22Z</time>
      </trkpt>
      <trkpt lat="43.150967" lon="-4.811550">
        <ele>1459.0</ele>
        <time>2015-03-17T14:11:23Z</time>
      </trkpt>
      <trkpt lat="43.150933" lon="-4.811517">
        <ele>1460.0</ele>
        <time>2015-03-17T14:11:24Z</time>
      </trkpt>
      <trkpt lat="43.150900" lon="-4.811450">
        <ele>1460.0</ele>
        <time>2015-03-17T14:11:25Z</time>
      </trkpt>
      <trkpt lat="43.150883" lon="-4.811383">
        <ele>1460.0</ele>
        <time>2015-03-17T14:11:26Z</time>
      </trkpt>
      <trkpt lat="43.150867" lon="-4.811283">
        <ele>1460.0</ele>
        <time>2015-03-17T14:11:27Z</time>
      </trkpt>
      <trkpt lat="43.150883" lon="-4.811200">
        <ele>1461.0</ele>
        <time>2015-03-17T14:11:28Z</time>
      </trkpt>
      <trkpt lat="43.150883" lon="-4.811117">
        <ele>1462.0</ele>
        <time>2015-03-17T14:11:29Z</time>
      </trkpt>
      <trkpt lat="43.150900" lon="-4.811017">
        <ele>1463.0</ele>
        <time>2015-03-17T14:11:30Z</time>
      </trkpt>
      <trkpt lat="43.150900" lon="-4.810950">
        <ele>1464.0</ele>
        <time>2015-03-17T14:11:31Z</time>
      </trkpt>
      <trkpt lat="43.150900" lon="-4.810883">
        <ele>1466.0</ele>
        <time>2015-03-17T14:11:32Z</time>
      </trkpt>
      <trkpt lat="43.150900" lon="-4.810817">
        <ele>1468.0</ele>
        <time>2015-03-17T14:11:33Z</time>
      </trkpt>
      <trkpt lat="43.150883" lon="-4.810733">
        <ele>1469.0</ele>
        <time>2015-03-17T14:11:34Z</time>
      </trkpt>
      <trkpt lat="43.150867" lon="-4.810650">
        <ele>1470.0</ele>
        <time>2015-03-17T14:11:35Z</time>
      </trkpt>
      <trkpt lat="43.150850" lon="-4.810567">
        <ele>1471.0</ele>
        <time>2015-03-17T14:11:36Z</time>
      </trkpt>
      <trkpt lat="43.150833" lon="-4.810483">
        <ele>1473.0</ele>
        <time>2015-03-17T14:11:37Z</time>
      </trkpt>
      <trkpt lat="43.150800" lon="-4.810400">
        <ele>1474.0</ele>
        <time>2015-03-17T14:11:38Z</time>
      </trkpt>
      <trkpt lat="43.150783" lon="-4.810333">
        <ele>1475.0</ele>
        <time>2015-03-17T14:11:39Z</time>
      </trkpt>
      <trkpt lat="43.150767" lon="-4.810250">
        <ele>1476.0</ele>
        <time>2015-03-17T14:11:40Z</time>
      </trkpt>
      <trkpt lat="43.150733" lon="-4.810167">
        <ele>1477.0</ele>
        <time>2015-03-17T14:11:41Z</time>
      </trkpt>
      <trkpt lat="43.150700" lon="-4.810100">
        <ele>1477.0</ele>
        <time>2015-03-17T14:11:42Z</time>
      </trkpt>
      <trkpt lat="43.150667" lon="-4.810017">
        <ele>1478.0</ele>
        <time>2015-03-17T14:11:43Z</time>
      </trkpt>
      <trkpt lat="43.150633" lon="-4.809917">
        <ele>1478.0</ele>
        <time>2015-03-17T14:11:44Z</time>
      </trkpt>
      <trkpt lat="43.150617" lon="-4.809850">
        <ele>1478.0</ele>
        <time>2015-03-17T14:11:45Z</time>
      </trkpt>
      <trkpt lat="43.150600" lon="-4.809750">
        <ele>1479.0</ele>
        <time>2015-03-17T14:11:46Z</time>
      </trkpt>
      <trkpt lat="43.150600" lon="-4.809667">
        <ele>1479.0</ele>
        <time>2015-03-17T14:11:47Z</time>
      </trkpt>
      <trkpt lat="43.150617" lon="-4.809550">
        <ele>1479.0</ele>
        <time>2015-03-17T14:11:48Z</time>
      </trkpt>
      <trkpt lat="43.150667" lon="-4.809433">
        <ele>1477.0</ele>
        <time>2015-03-17T14:11:49Z</time>
      </trkpt>
      <trkpt lat="43.150733" lon="-4.809350">
        <ele>1476.0</ele>
        <time>2015-03-17T14:11:50Z</time>
      </trkpt>
      <trkpt lat="43.150817" lon="-4.809267">
        <ele>1476.0</ele>
        <time>2015-03-17T14:11:51Z</time>
      </trkpt>
      <trkpt lat="43.150917" lon="-4.809217">
        <ele>1476.0</ele>
        <time>2015-03-17T14:11:52Z</time>
      </trkpt>
      <trkpt lat="43.151000" lon="-4.809200">
        <ele>1476.0</ele>
        <time>2015-03-17T14:11:53Z</time>
      </trkpt>
      <trkpt lat="43.151117" lon="-4.809200">
        <ele>1476.0</ele>
        <time>2015-03-17T14:11:54Z</time>
      </trkpt>
      <trkpt lat="43.151200" lon="-4.809233">
        <ele>1475.0</ele>
        <time>2015-03-17T14:11:55Z</time>
      </trkpt>
      <trkpt lat="43.151300" lon="-4.809300">
        <ele>1473.0</ele>
        <time>2015-03-17T14:11:56Z</time>
      </trkpt>
      <trkpt lat="43.151367" lon="-4.809417">
        <ele>1471.0</ele>
        <time>2015-03-17T14:11:57Z</time>
      </trkpt>
      <trkpt lat="43.151417" lon="-4.809550">
        <ele>1470.0</ele>
        <time>2015-03-17T14:11:58Z</time>
      </trkpt>
      <trkpt lat="43.151450" lon="-4.809683">
        <ele>1470.0</ele>
        <time>2015-03-17T14:11:59Z</time>
      </trkpt>
      <trkpt lat="43.151483" lon="-4.809800">
        <ele>1471.0</ele>
        <time>2015-03-17T14:12:00Z</time>
      </trkpt>
      <trkpt lat="43.151483" lon="-4.809883">
        <ele>1470.0</ele>
        <time>2015-03-17T14:12:01Z</time>
      </trkpt>
      <trkpt lat="43.151483" lon="-4.809983">
        <ele>1470.0</ele>
        <time>2015-03-17T14:12:02Z</time>
      </trkpt>
      <trkpt lat="43.151483" lon="-4.810083">
        <ele>1469.0</ele>
        <time>2015-03-17T14:12:03Z</time>
      </trkpt>
      <trkpt lat="43.151483" lon="-4.810233">
        <ele>1469.0</ele>
        <time>2015-03-17T14:12:04Z</time>
      </trkpt>
      <trkpt lat="43.151517" lon="-4.810383">
        <ele>1470.0</ele>
        <time>2015-03-17T14:12:05Z</time>
      </trkpt>
      <trkpt lat="43.151533" lon="-4.810517">
        <ele>1470.0</ele>
        <time>2015-03-17T14:12:06Z</time>
      </trkpt>
      <trkpt lat="43.151550" lon="-4.810650">
        <ele>1474.0</ele>
        <time>2015-03-17T14:12:07Z</time>
      </trkpt>
      <trkpt lat="43.151583" lon="-4.810783">
        <ele>1476.0</ele>
        <time>2015-03-17T14:12:08Z</time>
      </trkpt>
      <trkpt lat="43.151600" lon="-4.810900">
        <ele>1478.0</ele>
        <time>2015-03-17T14:12:09Z</time>
      </trkpt>
      <trkpt lat="43.151617" lon="-4.811017">
        <ele>1480.0</ele>
        <time>2015-03-17T14:12:10Z</time>
      </trkpt>
      <trkpt lat="43.151667" lon="-4.811117">
        <ele>1476.0</ele>
        <time>2015-03-17T14:12:11Z</time>
      </trkpt>
      <trkpt lat="43.151700" lon="-4.811250">
        <ele>1477.0</ele>
        <time>2015-03-17T14:12:12Z</time>
      </trkpt>
      <trkpt lat="43.151717" lon="-4.811367">
        <ele>1478.0</ele>
        <time>2015-03-17T14:12:13Z</time>
      </trkpt>
      <trkpt lat="43.151750" lon="-4.811483">
        <ele>1480.0</ele>
        <time>2015-03-17T14:12:14Z</time>
      </trkpt>
      <trkpt lat="43.151767" lon="-4.811600">
        <ele>1482.0</ele>
        <time>2015-03-17T14:12:15Z</time>
      </trkpt>
      <trkpt lat="43.151783" lon="-4.811700">
        <ele>1484.0</ele>
        <time>2015-03-17T14:12:16Z</time>
      </trkpt>
      <trkpt lat="43.151800" lon="-4.811783">
        <ele>1486.0</ele>
        <time>2015-03-17T14:12:17Z</time>
      </trkpt>
      <trkpt lat="43.151800" lon="-4.811867">
        <ele>1488.0</ele>
        <time>2015-03-17T14:12:18Z</time>
      </trkpt>
      <trkpt lat="43.151817" lon="-4.811967">
        <ele>1488.0</ele>
        <time>2015-03-17T14:12:19Z</time>
      </trkpt>
      <trkpt lat="43.151817" lon="-4.812083">
        <ele>1489.0</ele>
        <time>2015-03-17T14:12:20Z</time>
      </trkpt>
      <trkpt lat="43.151800" lon="-4.812217">
        <ele>1489.0</ele>
        <time>2015-03-17T14:12:21Z</time>
      </trkpt>
      <trkpt lat="43.151800" lon="-4.812367">
        <ele>1491.0</ele>
        <time>2015-03-17T14:12:22Z</time>
      </trkpt>
      <trkpt lat="43.151800" lon="-4.812500">
        <ele>1492.0</ele>
        <time>2015-03-17T14:12:23Z</time>
      </trkpt>
      <trkpt lat="43.151800" lon="-4.812617">
        <ele>1494.0</ele>
        <time>2015-03-17T14:12:24Z</time>
      </trkpt>
      <trkpt lat="43.151817" lon="-4.812733">
        <ele>1492.0</ele>
        <time>2015-03-17T14:12:25Z</time>
      </trkpt>
      <trkpt lat="43.151817" lon="-4.812850">
        <ele>1493.0</ele>
        <time>2015-03-17T14:12:26Z</time>
      </trkpt>
      <trkpt lat="43.151817" lon="-4.812967">
        <ele>1495.0</ele>
        <time>2015-03-17T14:12:27Z</time>
      </trkpt>
      <trkpt lat="43.151817" lon="-4.813067">
        <ele>1495.0</ele>
        <time>2015-03-17T14:12:28Z</time>
      </trkpt>
      <trkpt lat="43.151817" lon="-4.813167">
        <ele>1496.0</ele>
        <time>2015-03-17T14:12:29Z</time>
      </trkpt>
      <trkpt lat="43.151800" lon="-4.813267">
        <ele>1497.0</ele>
        <time>2015-03-17T14:12:30Z</time>
      </trkpt>
      <trkpt lat="43.151767" lon="-4.813367">
        <ele>1502.0</ele>
        <time>2015-03-17T14:12:31Z</time>
      </trkpt>
      <trkpt lat="43.151750" lon="-4.813433">
        <ele>1506.0</ele>
        <time>2015-03-17T14:12:32Z</time>
      </trkpt>
      <trkpt lat="43.151733" lon="-4.813500">
        <ele>1510.0</ele>
        <time>2015-03-17T14:12:33Z</time>
      </trkpt>
      <trkpt lat="43.151717" lon="-4.813550">
        <ele>1514.0</ele>
        <time>2015-03-17T14:12:34Z</time>
      </trkpt>
      <trkpt lat="43.151700" lon="-4.813617">
        <ele>1517.0</ele>
        <time>2015-03-17T14:12:35Z</time>
      </trkpt>
      <trkpt lat="43.151667" lon="-4.813683">
        <ele>1521.0</ele>
        <time>2015-03-17T14:12:36Z</time>
      </trkpt>
      <trkpt lat="43.151650" lon="-4.813733">
        <ele>1525.0</ele>
        <time>2015-03-17T14:12:37Z</time>
      </trkpt>
      <trkpt lat="43.151650" lon="-4.813800">
        <ele>1528.0</ele>
        <time>2015-03-17T14:12:38Z</time>
      </trkpt>
      <trkpt lat="43.151633" lon="-4.813850">
        <ele>1530.0</ele>
        <time>2015-03-17T14:12:39Z</time>
      </trkpt>
      <trkpt lat="43.151617" lon="-4.813917">
        <ele>1533.0</ele>
        <time>2015-03-17T14:12:40Z</time>
      </trkpt>
      <trkpt lat="43.151583" lon="-4.813967">
        <ele>1535.0</ele>
        <time>2015-03-17T14:12:41Z</time>
      </trkpt>
      <trkpt lat="43.151550" lon="-4.814033">
        <ele>1537.0</ele>
        <time>2015-03-17T14:12:42Z</time>
      </trkpt>
      <trkpt lat="43.151517" lon="-4.814067">
        <ele>1537.0</ele>
        <time>2015-03-17T14:12:43Z</time>
      </trkpt>
      <trkpt lat="43.151450" lon="-4.814067">
        <ele>1539.0</ele>
        <time>2015-03-17T14:12:44Z</time>
      </trkpt>
      <trkpt lat="43.151400" lon="-4.814017">
        <ele>1538.0</ele>
        <time>2015-03-17T14:12:45Z</time>
      </trkpt>
      <trkpt lat="43.151350" lon="-4.813950">
        <ele>1538.0</ele>
        <time>2015-03-17T14:12:46Z</time>
      </trkpt>
      <trkpt lat="43.151300" lon="-4.813867">
        <ele>1537.0</ele>
        <time>2015-03-17T14:12:47Z</time>
      </trkpt>
      <trkpt lat="43.151267" lon="-4.813767">
        <ele>1537.0</ele>
        <time>2015-03-17T14:12:48Z</time>
      </trkpt>
      <trkpt lat="43.151250" lon="-4.813650">
        <ele>1537.0</ele>
        <time>2015-03-17T14:12:49Z</time>
      </trkpt>
      <trkpt lat="43.151250" lon="-4.813500">
        <ele>1536.0</ele>
        <time>2015-03-17T14:12:50Z</time>
      </trkpt>
      <trkpt lat="43.151283" lon="-4.813367">
        <ele>1535.0</ele>
        <time>2015-03-17T14:12:51Z</time>
      </trkpt>
      <trkpt lat="43.151333" lon="-4.813233">
        <ele>1535.0</ele>
        <time>2015-03-17T14:12:52Z</time>
      </trkpt>
      <trkpt lat="43.151383" lon="-4.813133">
        <ele>1536.0</ele>
        <time>2015-03-17T14:12:53Z</time>
      </trkpt>
      <trkpt lat="43.151450" lon="-4.813033">
        <ele>1538.0</ele>
        <time>2015-03-17T14:12:54Z</time>
      </trkpt>
      <trkpt lat="43.151517" lon="-4.812950">
        <ele>1541.0</ele>
        <time>2015-03-17T14:12:55Z</time>
      </trkpt>
      <trkpt lat="43.151583" lon="-4.812883">
        <ele>1545.0</ele>
        <time>2015-03-17T14:12:56Z</time>
      </trkpt>
      <trkpt lat="43.151650" lon="-4.812833">
        <ele>1548.0</ele>
        <time>2015-03-17T14:12:57Z</time>
      </trkpt>
      <trkpt lat="43.151717" lon="-4.812817">
        <ele>1550.0</ele>
        <time>2015-03-17T14:12:58Z</time>
      </trkpt>
      <trkpt lat="43.151800" lon="-4.812850">
        <ele>1550.0</ele>
        <time>2015-03-17T14:12:59Z</time>
      </trkpt>
      <trkpt lat="43.151867" lon="-4.812900">
        <ele>1550.0</ele>
        <time>2015-03-17T14:13:00Z</time>
      </trkpt>
      <trkpt lat="43.151933" lon="-4.812983">
        <ele>1552.0</ele>
        <time>2015-03-17T14:13:01Z</time>
      </trkpt>
      <trkpt lat="43.151983" lon="-4.813083">
        <ele>1553.0</ele>
        <time>2015-03-17T14:13:02Z</time>
      </trkpt>
      <trkpt lat="43.152017" lon="-4.813150">
        <ele>1555.0</ele>
        <time>2015-03-17T14:13:03Z</time>
      </trkpt>
      <trkpt lat="43.152017" lon="-4.813233">
        <ele>1557.0</ele>
        <time>2015-03-17T14:13:04Z</time>
      </trkpt>
      <trkpt lat="43.152017" lon="-4.813317">
        <ele>1559.0</ele>
        <time>2015-03-17T14:13:05Z</time>
      </trkpt>
      <trkpt lat="43.152017" lon="-4.813400">
        <ele>1561.0</ele>
        <time>2015-03-17T14:13:06Z</time>
      </trkpt>
      <trkpt lat="43.152000" lon="-4.813450">
        <ele>1563.0</ele>
        <time>2015-03-17T14:13:07Z</time>
      </trkpt>
      <trkpt lat="43.152000" lon="-4.813467">
        <ele>1564.0</ele>
        <time>2015-03-17T14:13:08Z</time>
      </trkpt>
      <trkpt lat="43.151950" lon="-4.813483">
        <ele>1561.0</ele>
        <time>2015-03-17T14:13:09Z</time>
      </trkpt>
      <trkpt lat="43.151917" lon="-4.813500">
        <ele>1563.0</ele>
        <time>2015-03-17T14:13:10Z</time>
      </trkpt>
      <trkpt lat="43.151867" lon="-4.813500">
        <ele>1563.0</ele>
        <time>2015-03-17T14:13:11Z</time>
      </trkpt>
      <trkpt lat="43.151817" lon="-4.813500">
        <ele>1563.0</ele>
        <time>2015-03-17T14:13:12Z</time>
      </trkpt>
      <trkpt lat="43.151767" lon="-4.813467">
        <ele>1563.0</ele>
        <time>2015-03-17T14:13:13Z</time>
      </trkpt>
      <trkpt lat="43.151717" lon="-4.813433">
        <ele>1563.0</ele>
        <time>2015-03-17T14:13:14Z</time>
      </trkpt>
      <trkpt lat="43.151667" lon="-4.813400">
        <ele>1563.0</ele>
        <time>2015-03-17T14:13:15Z</time>
      </trkpt>
      <trkpt lat="43.151600" lon="-4.813333">
        <ele>1563.0</ele>
        <time>2015-03-17T14:13:16Z</time>
      </trkpt>
      <trkpt lat="43.151550" lon="-4.813267">
        <ele>1563.0</ele>
        <time>2015-03-17T14:13:17Z</time>
      </trkpt>
      <trkpt lat="43.151517" lon="-4.813150">
        <ele>1563.0</ele>
        <time>2015-03-17T14:13:18Z</time>
      </trkpt>
      <trkpt lat="43.151483" lon="-4.813033">
        <ele>1563.0</ele>
        <time>2015-03-17T14:13:19Z</time>
      </trkpt>
      <trkpt lat="43.151483" lon="-4.812900">
        <ele>1564.0</ele>
        <time>2015-03-17T14:13:20Z</time>
      </trkpt>
      <trkpt lat="43.151483" lon="-4.812783">
        <ele>1565.0</ele>
        <time>2015-03-17T14:13:21Z</time>
      </trkpt>
      <trkpt lat="43.151467" lon="-4.812683">
        <ele>1566.0</ele>
        <time>2015-03-17T14:13:22Z</time>
      </trkpt>
      <trkpt lat="43.151467" lon="-4.812567">
        <ele>1566.0</ele>
        <time>2015-03-17T14:13:23Z</time>
      </trkpt>
      <trkpt lat="43.151483" lon="-4.812450">
        <ele>1566.0</ele>
        <time>2015-03-17T14:13:24Z</time>
      </trkpt>
      <trkpt lat="43.151500" lon="-4.812317">
        <ele>1566.0</ele>
        <time>2015-03-17T14:13:25Z</time>
      </trkpt>
      <trkpt lat="43.151500" lon="-4.812167">
        <ele>1567.0</ele>
        <time>2015-03-17T14:13:26Z</time>
      </trkpt>
      <trkpt lat="43.151483" lon="-4.812017">
        <ele>1569.0</ele>
        <time>2015-03-17T14:13:27Z</time>
      </trkpt>
      <trkpt lat="43.151483" lon="-4.811883">
        <ele>1571.0</ele>
        <time>2015-03-17T14:13:28Z</time>
      </trkpt>
      <trkpt lat="43.151500" lon="-4.811767">
        <ele>1574.0</ele>
        <time>2015-03-17T14:13:29Z</time>
      </trkpt>
      <trkpt lat="43.151533" lon="-4.811633">
        <ele>1576.0</ele>
        <time>2015-03-17T14:13:30Z</time>
      </trkpt>
      <trkpt lat="43.151583" lon="-4.811533">
        <ele>1578.0</ele>
        <time>2015-03-17T14:13:31Z</time>
      </trkpt>
      <trkpt lat="43.151650" lon="-4.811450">
        <ele>1579.0</ele>
        <time>2015-03-17T14:13:32Z</time>
      </trkpt>
      <trkpt lat="43.151733" lon="-4.811417">
        <ele>1578.0</ele>
        <time>2015-03-17T14:13:33Z</time>
      </trkpt>
      <trkpt lat="43.151833" lon="-4.811400">
        <ele>1577.0</ele>
        <time>2015-03-17T14:13:34Z</time>
      </trkpt>
      <trkpt lat="43.151917" lon="-4.811433">
        <ele>1578.0</ele>
        <time>2015-03-17T14:13:35Z</time>
      </trkpt>
      <trkpt lat="43.151983" lon="-4.811483">
        <ele>1577.0</ele>
        <time>2015-03-17T14:13:36Z</time>
      </trkpt>
      <trkpt lat="43.152050" lon="-4.811550">
        <ele>1577.0</ele>
        <time>2015-03-17T14:13:37Z</time>
      </trkpt>
      <trkpt lat="43.152100" lon="-4.811667">
        <ele>1576.0</ele>
        <time>2015-03-17T14:13:38Z</time>
      </trkpt>
      <trkpt lat="43.152133" lon="-4.811783">
        <ele>1576.0</ele>
        <time>2015-03-17T14:13:39Z</time>
      </trkpt>
      <trkpt lat="43.152167" lon="-4.811917">
        <ele>1576.0</ele>
        <time>2015-03-17T14:13:40Z</time>
      </trkpt>
      <trkpt lat="43.152167" lon="-4.812017">
        <ele>1577.0</ele>
        <time>2015-03-17T14:13:41Z</time>
      </trkpt>
      <trkpt lat="43.152150" lon="-4.812067">
        <ele>1578.0</ele>
        <time>2015-03-17T14:13:42Z</time>
      </trkpt>
      <trkpt lat="43.152150" lon="-4.812117">
        <ele>1579.0</ele>
        <time>2015-03-17T14:13:43Z</time>
      </trkpt>
      <trkpt lat="43.152167" lon="-4.812150">
        <ele>1578.0</ele>
        <time>2015-03-17T14:13:44Z</time>
      </trkpt>
      <trkpt lat="43.152150" lon="-4.812217">
        <ele>1578.0</ele>
        <time>2015-03-17T14:13:45Z</time>
      </trkpt>
      <trkpt lat="43.152150" lon="-4.812283">
        <ele>1579.0</ele>
        <time>2015-03-17T14:13:46Z</time>
      </trkpt>
      <trkpt lat="43.152133" lon="-4.812333">
        <ele>1580.0</ele>
        <time>2015-03-17T14:13:47Z</time>
      </trkpt>
      <trkpt lat="43.152117" lon="-4.812367">
        <ele>1581.0</ele>
        <time>2015-03-17T14:13:48Z</time>
      </trkpt>
      <trkpt lat="43.152083" lon="-4.812417">
        <ele>1583.0</ele>
        <time>2015-03-17T14:13:49Z</time>
      </trkpt>
      <trkpt lat="43.152050" lon="-4.812450">
        <ele>1585.0</ele>
        <time>2015-03-17T14:13:50Z</time>
      </trkpt>
      <trkpt lat="43.152017" lon="-4.812500">
        <ele>1586.0</ele>
        <time>2015-03-17T14:13:51Z</time>
      </trkpt>
      <trkpt lat="43.151967" lon="-4.812533">
        <ele>1589.0</ele>
        <time>2015-03-17T14:13:52Z</time>
      </trkpt>
      <trkpt lat="43.151900" lon="-4.812533">
        <ele>1590.0</ele>
        <time>2015-03-17T14:13:53Z</time>
      </trkpt>
      <trkpt lat="43.151850" lon="-4.812500">
        <ele>1591.0</ele>
        <time>2015-03-17T14:13:54Z</time>
      </trkpt>
      <trkpt lat="43.151783" lon="-4.812467">
        <ele>1592.0</ele>
        <time>2015-03-17T14:13:55Z</time>
      </trkpt>
      <trkpt lat="43.151717" lon="-4.812417">
        <ele>1594.0</ele>
        <time>2015-03-17T14:13:56Z</time>
      </trkpt>
      <trkpt lat="43.151667" lon="-4.812367">
        <ele>1596.0</ele>
        <time>2015-03-17T14:13:57Z</time>
      </trkpt>
      <trkpt lat="43.151617" lon="-4.812300">
        <ele>1597.0</ele>
        <time>2015-03-17T14:13:58Z</time>
      </trkpt>
      <trkpt lat="43.151567" lon="-4.812217">
        <ele>1599.0</ele>
        <time>2015-03-17T14:13:59Z</time>
      </trkpt>
      <trkpt lat="43.151533" lon="-4.812117">
        <ele>1600.0</ele>
        <time>2015-03-17T14:14:00Z</time>
      </trkpt>
      <trkpt lat="43.151500" lon="-4.812017">
        <ele>1601.0</ele>
        <time>2015-03-17T14:14:01Z</time>
      </trkpt>
      <trkpt lat="43.151467" lon="-4.811900">
        <ele>1602.0</ele>
        <time>2015-03-17T14:14:02Z</time>
      </trkpt>
      <trkpt lat="43.151450" lon="-4.811783">
        <ele>1603.0</ele>
        <time>2015-03-17T14:14:03Z</time>
      </trkpt>
      <trkpt lat="43.151433" lon="-4.811667">
        <ele>1604.0</ele>
        <time>2015-03-17T14:14:04Z</time>
      </trkpt>
      <trkpt lat="43.151433" lon="-4.811533">
        <ele>1604.0</ele>
        <time>2015-03-17T14:14:05Z</time>
      </trkpt>
      <trkpt lat="43.151433" lon="-4.811400">
        <ele>1605.0</ele>
        <time>2015-03-17T14:14:06Z</time>
      </trkpt>
      <trkpt lat="43.151450" lon="-4.811267">
        <ele>1606.0</ele>
        <time>2015-03-17T14:14:07Z</time>
      </trkpt>
      <trkpt lat="43.151483" lon="-4.811133">
        <ele>1608.0</ele>
        <time>2015-03-17T14:14:08Z</time>
      </trkpt>
      <trkpt lat="43.151550" lon="-4.811033">
        <ele>1608.0</ele>
        <time>2015-03-17T14:14:09Z</time>
      </trkpt>
      <trkpt lat="43.151617" lon="-4.810967">
        <ele>1608.0</ele>
        <time>2015-03-17T14:14:10Z</time>
      </trkpt>
      <trkpt lat="43.151683" lon="-4.810900">
        <ele>1608.0</ele>
        <time>2015-03-17T14:14:11Z</time>
      </trkpt>
      <trkpt lat="43.151767" lon="-4.810867">
        <ele>1608.0</ele>
        <time>2015-03-17T14:14:12Z</time>
      </trkpt>
      <trkpt lat="43.151833" lon="-4.810850">
        <ele>1607.0</ele>
        <time>2015-03-17T14:14:13Z</time>
      </trkpt>
      <trkpt lat="43.151917" lon="-4.810867">
        <ele>1607.0</ele>
        <time>2015-03-17T14:14:14Z</time>
      </trkpt>
      <trkpt lat="43.151983" lon="-4.810917">
        <ele>1606.0</ele>
        <time>2015-03-17T14:14:15Z</time>
      </trkpt>
      <trkpt lat="43.152033" lon="-4.811000">
        <ele>1605.0</ele>
        <time>2015-03-17T14:14:16Z</time>
      </trkpt>
      <trkpt lat="43.152067" lon="-4.811083">
        <ele>1605.0</ele>
        <time>2015-03-17T14:14:17Z</time>
      </trkpt>
      <trkpt lat="43.152100" lon="-4.811183">
        <ele>1606.0</ele>
        <time>2015-03-17T14:14:18Z</time>
      </trkpt>
      <trkpt lat="43.152117" lon="-4.811250">
        <ele>1606.0</ele>
        <time>2015-03-17T14:14:19Z</time>
      </trkpt>
      <trkpt lat="43.152133" lon="-4.811333">
        <ele>1607.0</ele>
        <time>2015-03-17T14:14:20Z</time>
      </trkpt>
      <trkpt lat="43.152150" lon="-4.811400">
        <ele>1607.0</ele>
        <time>2015-03-17T14:14:21Z</time>
      </trkpt>
      <trkpt lat="43.152150" lon="-4.811467">
        <ele>1608.0</ele>
        <time>2015-03-17T14:14:22Z</time>
      </trkpt>
      <trkpt lat="43.152150" lon="-4.811550">
        <ele>1609.0</ele>
        <time>2015-03-17T14:14:23Z</time>
      </trkpt>
      <trkpt lat="43.152133" lon="-4.811617">
        <ele>1613.0</ele>
        <time>2015-03-17T14:14:24Z</time>
      </trkpt>
      <trkpt lat="43.152083" lon="-4.811700">
        <ele>1621.0</ele>
        <time>2015-03-17T14:14:25Z</time>
      </trkpt>
      <trkpt lat="43.152067" lon="-4.811750">
        <ele>1625.0</ele>
        <time>2015-03-17T14:14:26Z</time>
      </trkpt>
      <trkpt lat="43.152050" lon="-4.811800">
        <ele>1627.0</ele>
        <time>2015-03-17T14:14:27Z</time>
      </trkpt>
      <trkpt lat="43.152050" lon="-4.811867">
        <ele>1629.0</ele>
        <time>2015-03-17T14:14:28Z</time>
      </trkpt>
      <trkpt lat="43.152017" lon="-4.811933">
        <ele>1630.0</ele>
        <time>2015-03-17T14:14:29Z</time>
      </trkpt>
      <trkpt lat="43.151983" lon="-4.812000">
        <ele>1631.0</ele>
        <time>2015-03-17T14:14:30Z</time>
      </trkpt>
      <trkpt lat="43.151933" lon="-4.812050">
        <ele>1631.0</ele>
        <time>2015-03-17T14:14:31Z</time>
      </trkpt>
      <trkpt lat="43.151900" lon="-4.812083">
        <ele>1630.0</ele>
        <time>2015-03-17T14:14:32Z</time>
      </trkpt>
      <trkpt lat="43.151867" lon="-4.812083">
        <ele>1628.0</ele>
        <time>2015-03-17T14:14:33Z</time>
      </trkpt>
      <trkpt lat="43.151817" lon="-4.812100">
        <ele>1627.0</ele>
        <time>2015-03-17T14:14:34Z</time>
      </trkpt>
      <trkpt lat="43.151767" lon="-4.812100">
        <ele>1627.0</ele>
        <time>2015-03-17T14:14:35Z</time>
      </trkpt>
      <trkpt lat="43.151717" lon="-4.812083">
        <ele>1628.0</ele>
        <time>2015-03-17T14:14:36Z</time>
      </trkpt>
      <trkpt lat="43.151667" lon="-4.812050">
        <ele>1629.0</ele>
        <time>2015-03-17T14:14:37Z</time>
      </trkpt>
      <trkpt lat="43.151633" lon="-4.812033">
        <ele>1630.0</ele>
        <time>2015-03-17T14:14:38Z</time>
      </trkpt>
      <trkpt lat="43.151583" lon="-4.812017">
        <ele>1630.0</ele>
        <time>2015-03-17T14:14:39Z</time>
      </trkpt>
      <trkpt lat="43.151533" lon="-4.812017">
        <ele>1630.0</ele>
        <time>2015-03-17T14:14:40Z</time>
      </trkpt>
      <trkpt lat="43.151483" lon="-4.812017">
        <ele>1631.0</ele>
        <time>2015-03-17T14:14:41Z</time>
      </trkpt>
      <trkpt lat="43.151433" lon="-4.812017">
        <ele>1632.0</ele>
        <time>2015-03-17T14:14:42Z</time>
      </trkpt>
      <trkpt lat="43.151367" lon="-4.812033">
        <ele>1633.0</ele>
        <time>2015-03-17T14:14:43Z</time>
      </trkpt>
      <trkpt lat="43.151333" lon="-4.812050">
        <ele>1635.0</ele>
        <time>2015-03-17T14:14:44Z</time>
      </trkpt>
      <trkpt lat="43.151300" lon="-4.812067">
        <ele>1636.0</ele>
        <time>2015-03-17T14:14:45Z</time>
      </trkpt>
      <trkpt lat="43.151267" lon="-4.812083">
        <ele>1637.0</ele>
        <time>2015-03-17T14:14:46Z</time>
      </trkpt>
      <trkpt lat="43.151217" lon="-4.812067">
        <ele>1637.0</ele>
        <time>2015-03-17T14:14:47Z</time>
      </trkpt>
      <trkpt lat="43.151167" lon="-4.812050">
        <ele>1637.0</ele>
        <time>2015-03-17T14:14:48Z</time>
      </trkpt>
      <trkpt lat="43.151133" lon="-4.811983">
        <ele>1637.0</ele>
        <time>2015-03-17T14:14:49Z</time>
      </trkpt>
      <trkpt lat="43.151100" lon="-4.811900">
        <ele>1637.0</ele>
        <time>2015-03-17T14:14:50Z</time>
      </trkpt>
      <trkpt lat="43.151083" lon="-4.811800">
        <ele>1638.0</ele>
        <time>2015-03-17T14:14:51Z</time>
      </trkpt>
      <trkpt lat="43.151100" lon="-4.811700">
        <ele>1639.0</ele>
        <time>2015-03-17T14:14:52Z</time>
      </trkpt>
      <trkpt lat="43.151117" lon="-4.811600">
        <ele>1640.0</ele>
        <time>2015-03-17T14:14:53Z</time>
      </trkpt>
      <trkpt lat="43.151117" lon="-4.811500">
        <ele>1642.0</ele>
        <time>2015-03-17T14:14:54Z</time>
      </trkpt>
      <trkpt lat="43.151133" lon="-4.811383">
        <ele>1643.0</ele>
        <time>2015-03-17T14:14:55Z</time>
      </trkpt>
      <trkpt lat="43.151150" lon="-4.811283">
        <ele>1644.0</ele>
        <time>2015-03-17T14:14:56Z</time>
      </trkpt>
      <trkpt lat="43.151183" lon="-4.811167">
        <ele>1646.0</ele>
        <time>2015-03-17T14:14:57Z</time>
      </trkpt>
      <trkpt lat="43.151233" lon="-4.811067">
        <ele>1647.0</ele>
        <time>2015-03-17T14:14:58Z</time>
      </trkpt>
      <trkpt lat="43.151317" lon="-4.811000">
        <ele>1649.0</ele>
        <time>2015-03-17T14:14:59Z</time>
      </trkpt>
      <trkpt lat="43.151400" lon="-4.810967">
        <ele>1652.0</ele>
        <time>2015-03-17T14:15:00Z</time>
      </trkpt>
      <trkpt lat="43.151483" lon="-4.810950">
        <ele>1655.0</ele>
        <time>2015-03-17T14:15:01Z</time>
      </trkpt>
      <trkpt lat="43.151550" lon="-4.810967">
        <ele>1658.0</ele>
        <time>2015-03-17T14:15:02Z</time>
      </trkpt>
      <trkpt lat="43.151600" lon="-4.811017">
        <ele>1659.0</ele>
        <time>2015-03-17T14:15:03Z</time>
      </trkpt>
      <trkpt lat="43.151650" lon="-4.811083">
        <ele>1659.0</ele>
        <time>2015-03-17T14:15:04Z</time>
      </trkpt>
      <trkpt lat="43.151700" lon="-4.811167">
        <ele>1660.0</ele>
        <time>2015-03-17T14:15:05Z</time>
      </trkpt>
      <trkpt lat="43.151733" lon="-4.811250">
        <ele>1661.0</ele>
        <time>2015-03-17T14:15:06Z</time>
      </trkpt>
      <trkpt lat="43.151750" lon="-4.811350">
        <ele>1662.0</ele>
        <time>2015-03-17T14:15:07Z</time>
      </trkpt>
      <trkpt lat="43.151767" lon="-4.811433">
        <ele>1664.0</ele>
        <time>2015-03-17T14:15:08Z</time>
      </trkpt>
      <trkpt lat="43.151767" lon="-4.811517">
        <ele>1666.0</ele>
        <time>2015-03-17T14:15:09Z</time>
      </trkpt>
      <trkpt lat="43.151767" lon="-4.811600">
        <ele>1667.0</ele>
        <time>2015-03-17T14:15:10Z</time>
      </trkpt>
      <trkpt lat="43.151767" lon="-4.811667">
        <ele>1668.0</ele>
        <time>2015-03-17T14:15:11Z</time>
      </trkpt>
      <trkpt lat="43.151750" lon="-4.811733">
        <ele>1668.0</ele>
        <time>2015-03-17T14:15:12Z</time>
      </trkpt>
      <trkpt lat="43.151733" lon="-4.811800">
        <ele>1669.0</ele>
        <time>2015-03-17T14:15:13Z</time>
      </trkpt>
      <trkpt lat="43.151700" lon="-4.811867">
        <ele>1670.0</ele>
        <time>2015-03-17T14:15:14Z</time>
      </trkpt>
      <trkpt lat="43.151667" lon="-4.811917">
        <ele>1670.0</ele>
        <time>2015-03-17T14:15:15Z</time>
      </trkpt>
      <trkpt lat="43.151633" lon="-4.811950">
        <ele>1670.0</ele>
        <time>2015-03-17T14:15:16Z</time>
      </trkpt>
      <trkpt lat="43.151583" lon="-4.811967">
        <ele>1670.0</ele>
        <time>2015-03-17T14:15:17Z</time>
      </trkpt>
      <trkpt lat="43.151517" lon="-4.811950">
        <ele>1670.0</ele>
        <time>2015-03-17T14:15:18Z</time>
      </trkpt>
      <trkpt lat="43.151467" lon="-4.811933">
        <ele>1670.0</ele>
        <time>2015-03-17T14:15:19Z</time>
      </trkpt>
      <trkpt lat="43.151400" lon="-4.811900">
        <ele>1671.0</ele>
        <time>2015-03-17T14:15:20Z</time>
      </trkpt>
      <trkpt lat="43.151350" lon="-4.811867">
        <ele>1670.0</ele>
        <time>2015-03-17T14:15:21Z</time>
      </trkpt>
      <trkpt lat="43.151300" lon="-4.811817">
        <ele>1671.0</ele>
        <time>2015-03-17T14:15:22Z</time>
      </trkpt>
      <trkpt lat="43.151250" lon="-4.811767">
        <ele>1670.0</ele>
        <time>2015-03-17T14:15:23Z</time>
      </trkpt>
      <trkpt lat="43.151200" lon="-4.811700">
        <ele>1670.0</ele>
        <time>2015-03-17T14:15:24Z</time>
      </trkpt>
      <trkpt lat="43.151150" lon="-4.811633">
        <ele>1668.0</ele>
        <time>2015-03-17T14:15:25Z</time>
      </trkpt>
      <trkpt lat="43.151133" lon="-4.811550">
        <ele>1667.0</ele>
        <time>2015-03-17T14:15:26Z</time>
      </trkpt>
      <trkpt lat="43.151117" lon="-4.811450">
        <ele>1666.0</ele>
        <time>2015-03-17T14:15:27Z</time>
      </trkpt>
      <trkpt lat="43.151133" lon="-4.811333">
        <ele>1665.0</ele>
        <time>2015-03-17T14:15:28Z</time>
      </trkpt>
      <trkpt lat="43.151183" lon="-4.811217">
        <ele>1664.0</ele>
        <time>2015-03-17T14:15:29Z</time>
      </trkpt>
      <trkpt lat="43.151233" lon="-4.811117">
        <ele>1664.0</ele>
        <time>2015-03-17T14:15:30Z</time>
      </trkpt>
      <trkpt lat="43.151283" lon="-4.811017">
        <ele>1664.0</ele>
        <time>2015-03-17T14:15:31Z</time>
      </trkpt>
      <trkpt lat="43.151333" lon="-4.810917">
        <ele>1665.0</ele>
        <time>2015-03-17T14:15:32Z</time>
      </trkpt>
      <trkpt lat="43.151367" lon="-4.810800">
        <ele>1665.0</ele>
        <time>2015-03-17T14:15:33Z</time>
      </trkpt>
      <trkpt lat="43.151417" lon="-4.810667">
        <ele>1665.0</ele>
        <time>2015-03-17T14:15:34Z</time>
      </trkpt>
      <trkpt lat="43.151467" lon="-4.810533">
        <ele>1665.0</ele>
        <time>2015-03-17T14:15:35Z</time>
      </trkpt>
      <trkpt lat="43.151500" lon="-4.810417">
        <ele>1666.0</ele>
        <time>2015-03-17T14:15:36Z</time>
      </trkpt>
      <trkpt lat="43.151533" lon="-4.810300">
        <ele>1668.0</ele>
        <time>2015-03-17T14:15:37Z</time>
      </trkpt>
      <trkpt lat="43.151583" lon="-4.810183">
        <ele>1670.0</ele>
        <time>2015-03-17T14:15:38Z</time>
      </trkpt>
      <trkpt lat="43.151617" lon="-4.810067">
        <ele>1672.0</ele>
        <time>2015-03-17T14:15:39Z</time>
      </trkpt>
      <trkpt lat="43.151650" lon="-4.809950">
        <ele>1673.0</ele>
        <time>2015-03-17T14:15:40Z</time>
      </trkpt>
      <trkpt lat="43.151700" lon="-4.809850">
        <ele>1675.0</ele>
        <time>2015-03-17T14:15:41Z</time>
      </trkpt>
      <trkpt lat="43.151733" lon="-4.809733">
        <ele>1678.0</ele>
        <time>2015-03-17T14:15:42Z</time>
      </trkpt>
      <trkpt lat="43.151767" lon="-4.809617">
        <ele>1680.0</ele>
        <time>2015-03-17T14:15:43Z</time>
      </trkpt>
      <trkpt lat="43.151800" lon="-4.809517">
        <ele>1682.0</ele>
        <time>2015-03-17T14:15:44Z</time>
      </trkpt>
      <trkpt lat="43.151833" lon="-4.809417">
        <ele>1683.0</ele>
        <time>2015-03-17T14:15:45Z</time>
      </trkpt>
      <trkpt lat="43.151850" lon="-4.809317">
        <ele>1684.0</ele>
        <time>2015-03-17T14:15:46Z</time>
      </trkpt>
      <trkpt lat="43.151850" lon="-4.809200">
        <ele>1685.0</ele>
        <time>2015-03-17T14:15:47Z</time>
      </trkpt>
      <trkpt lat="43.151817" lon="-4.809083">
        <ele>1686.0</ele>
        <time>2015-03-17T14:15:48Z</time>
      </trkpt>
      <trkpt lat="43.151767" lon="-4.808983">
        <ele>1687.0</ele>
        <time>2015-03-17T14:15:49Z</time>
      </trkpt>
      <trkpt lat="43.151717" lon="-4.808950">
        <ele>1688.0</ele>
        <time>2015-03-17T14:15:50Z</time>
      </trkpt>
      <trkpt lat="43.151650" lon="-4.808950">
        <ele>1689.0</ele>
        <time>2015-03-17T14:15:51Z</time>
      </trkpt>
      <trkpt lat="43.151600" lon="-4.809017">
        <ele>1690.0</ele>
        <time>2015-03-17T14:15:52Z</time>
      </trkpt>
      <trkpt lat="43.151567" lon="-4.809100">
        <ele>1691.0</ele>
        <time>2015-03-17T14:15:53Z</time>
      </trkpt>
      <trkpt lat="43.151567" lon="-4.809200">
        <ele>1693.0</ele>
        <time>2015-03-17T14:15:54Z</time>
      </trkpt>
      <trkpt lat="43.151583" lon="-4.809283">
        <ele>1695.0</ele>
        <time>2015-03-17T14:15:55Z</time>
      </trkpt>
      <trkpt lat="43.151617" lon="-4.809350">
        <ele>1697.0</ele>
        <time>2015-03-17T14:15:56Z</time>
      </trkpt>
      <trkpt lat="43.151650" lon="-4.809417">
        <ele>1699.0</ele>
        <time>2015-03-17T14:15:57Z</time>
      </trkpt>
      <trkpt lat="43.151700" lon="-4.809467">
        <ele>1701.0</ele>
        <time>2015-03-17T14:15:58Z</time>
      </trkpt>
      <trkpt lat="43.151767" lon="-4.809533">
        <ele>1702.0</ele>
        <time>2015-03-17T14:15:59Z</time>
      </trkpt>
      <trkpt lat="43.151833" lon="-4.809567">
        <ele>1704.0</ele>
        <time>2015-03-17T14:16:00Z</time>
      </trkpt>
      <trkpt lat="43.151900" lon="-4.809583">
        <ele>1706.0</ele>
        <time>2015-03-17T14:16:01Z</time>
      </trkpt>
      <trkpt lat="43.151967" lon="-4.809600">
        <ele>1709.0</ele>
        <time>2015-03-17T14:16:02Z</time>
      </trkpt>
      <trkpt lat="43.152050" lon="-4.809583">
        <ele>1711.0</ele>
        <time>2015-03-17T14:16:03Z</time>
      </trkpt>
      <trkpt lat="43.152117" lon="-4.809550">
        <ele>1713.0</ele>
        <time>2015-03-17T14:16:04Z</time>
      </trkpt>
      <trkpt lat="43.152183" lon="-4.809467">
        <ele>1715.0</ele>
        <time>2015-03-17T14:16:05Z</time>
      </trkpt>
      <trkpt lat="43.152233" lon="-4.809367">
        <ele>1717.0</ele>
        <time>2015-03-17T14:16:06Z</time>
      </trkpt>
      <trkpt lat="43.152267" lon="-4.809267">
        <ele>1720.0</ele>
        <time>2015-03-17T14:16:07Z</time>
      </trkpt>
      <trkpt lat="43.152267" lon="-4.809150">
        <ele>1722.0</ele>
        <time>2015-03-17T14:16:08Z</time>
      </trkpt>
      <trkpt lat="43.152267" lon="-4.809067">
        <ele>1725.0</ele>
        <time>2015-03-17T14:16:09Z</time>
      </trkpt>
      <trkpt lat="43.152267" lon="-4.808967">
        <ele>1726.0</ele>
        <time>2015-03-17T14:16:10Z</time>
      </trkpt>
      <trkpt lat="43.152250" lon="-4.808867">
        <ele>1727.0</ele>
        <time>2015-03-17T14:16:11Z</time>
      </trkpt>
      <trkpt lat="43.152217" lon="-4.808783">
        <ele>1729.0</ele>
        <time>2015-03-17T14:16:12Z</time>
      </trkpt>
      <trkpt lat="43.152167" lon="-4.808700">
        <ele>1730.0</ele>
        <time>2015-03-17T14:16:13Z</time>
      </trkpt>
      <trkpt lat="43.152117" lon="-4.808617">
        <ele>1731.0</ele>
        <time>2015-03-17T14:16:14Z</time>
      </trkpt>
      <trkpt lat="43.152067" lon="-4.808567">
        <ele>1732.0</ele>
        <time>2015-03-17T14:16:15Z</time>
      </trkpt>
      <trkpt lat="43.152017" lon="-4.808500">
        <ele>1734.0</ele>
        <time>2015-03-17T14:16:16Z</time>
      </trkpt>
      <trkpt lat="43.151967" lon="-4.808483">
        <ele>1735.0</ele>
        <time>2015-03-17T14:16:17Z</time>
      </trkpt>
      <trkpt lat="43.151900" lon="-4.808483">
        <ele>1736.0</ele>
        <time>2015-03-17T14:16:18Z</time>
      </trkpt>
      <trkpt lat="43.151833" lon="-4.808517">
        <ele>1737.0</ele>
        <time>2015-03-17T14:16:19Z</time>
      </trkpt>
      <trkpt lat="43.151800" lon="-4.808567">
        <ele>1737.0</ele>
        <time>2015-03-17T14:16:20Z</time>
      </trkpt>
      <trkpt lat="43.151783" lon="-4.808617">
        <ele>1739.0</ele>
        <time>2015-03-17T14:16:21Z</time>
      </trkpt>
      <trkpt lat="43.151783" lon="-4.808683">
        <ele>1741.0</ele>
        <time>2015-03-17T14:16:22Z</time>
      </trkpt>
      <trkpt lat="43.151783" lon="-4.808767">
        <ele>1742.0</ele>
        <time>2015-03-17T14:16:23Z</time>
      </trkpt>
      <trkpt lat="43.151800" lon="-4.808833">
        <ele>1744.0</ele>
        <time>2015-03-17T14:16:24Z</time>
      </trkpt>
      <trkpt lat="43.151833" lon="-4.808883">
        <ele>1745.0</ele>
        <time>2015-03-17T14:16:25Z</time>
      </trkpt>
      <trkpt lat="43.151867" lon="-4.808950">
        <ele>1745.0</ele>
        <time>2015-03-17T14:16:26Z</time>
      </trkpt>
      <trkpt lat="43.151917" lon="-4.809017">
        <ele>1745.0</ele>
        <time>2015-03-17T14:16:27Z</time>
      </trkpt>
      <trkpt lat="43.151983" lon="-4.809083">
        <ele>1747.0</ele>
        <time>2015-03-17T14:16:28Z</time>
      </trkpt>
      <trkpt lat="43.152050" lon="-4.809117">
        <ele>1749.0</ele>
        <time>2015-03-17T14:16:29Z</time>
      </trkpt>
      <trkpt lat="43.152117" lon="-4.809150">
        <ele>1752.0</ele>
        <time>2015-03-17T14:16:30Z</time>
      </trkpt>
      <trkpt lat="43.152183" lon="-4.809183">
        <ele>1754.0</ele>
        <time>2015-03-17T14:16:31Z</time>
      </trkpt>
      <trkpt lat="43.152250" lon="-4.809217">
        <ele>1757.0</ele>
        <time>2015-03-17T14:16:32Z</time>
      </trkpt>
      <trkpt lat="43.152300" lon="-4.809267">
        <ele>1760.0</ele>
        <time>2015-03-17T14:16:33Z</time>
      </trkpt>
      <trkpt lat="43.152367" lon="-4.809317">
        <ele>1759.0</ele>
        <time>2015-03-17T14:16:34Z</time>
      </trkpt>
      <trkpt lat="43.152417" lon="-4.809367">
        <ele>1762.0</ele>
        <time>2015-03-17T14:16:35Z</time>
      </trkpt>
      <trkpt lat="43.152483" lon="-4.809400">
        <ele>1764.0</ele>
        <time>2015-03-17T14:16:36Z</time>
      </trkpt>
      <trkpt lat="43.152550" lon="-4.809433">
        <ele>1766.0</ele>
        <time>2015-03-17T14:16:37Z</time>
      </trkpt>
      <trkpt lat="43.152600" lon="-4.809500">
        <ele>1768.0</ele>
        <time>2015-03-17T14:16:38Z</time>
      </trkpt>
      <trkpt lat="43.152667" lon="-4.809567">
        <ele>1771.0</ele>
        <time>2015-03-17T14:16:39Z</time>
      </trkpt>
      <trkpt lat="43.152717" lon="-4.809617">
        <ele>1773.0</ele>
        <time>2015-03-17T14:16:40Z</time>
      </trkpt>
      <trkpt lat="43.152767" lon="-4.809683">
        <ele>1775.0</ele>
        <time>2015-03-17T14:16:41Z</time>
      </trkpt>
      <trkpt lat="43.152817" lon="-4.809733">
        <ele>1777.0</ele>
        <time>2015-03-17T14:16:42Z</time>
      </trkpt>
      <trkpt lat="43.152867" lon="-4.809800">
        <ele>1779.0</ele>
        <time>2015-03-17T14:16:43Z</time>
      </trkpt>
      <trkpt lat="43.152917" lon="-4.809867">
        <ele>1780.0</ele>
        <time>2015-03-17T14:16:44Z</time>
      </trkpt>
      <trkpt lat="43.152967" lon="-4.809933">
        <ele>1782.0</ele>
        <time>2015-03-17T14:16:45Z</time>
      </trkpt>
      <trkpt lat="43.153017" lon="-4.810017">
        <ele>1783.0</ele>
        <time>2015-03-17T14:16:46Z</time>
      </trkpt>
      <trkpt lat="43.153050" lon="-4.810083">
        <ele>1784.0</ele>
        <time>2015-03-17T14:16:47Z</time>
      </trkpt>
      <trkpt lat="43.153100" lon="-4.810167">
        <ele>1785.0</ele>
        <time>2015-03-17T14:16:48Z</time>
      </trkpt>
      <trkpt lat="43.153133" lon="-4.810233">
        <ele>1786.0</ele>
        <time>2015-03-17T14:16:49Z</time>
      </trkpt>
      <trkpt lat="43.153167" lon="-4.810317">
        <ele>1787.0</ele>
        <time>2015-03-17T14:16:50Z</time>
      </trkpt>
      <trkpt lat="43.153167" lon="-4.810400">
        <ele>1788.0</ele>
        <time>2015-03-17T14:16:51Z</time>
      </trkpt>
      <trkpt lat="43.153150" lon="-4.810467">
        <ele>1789.0</ele>
        <time>2015-03-17T14:16:52Z</time>
      </trkpt>
      <trkpt lat="43.153117" lon="-4.810533">
        <ele>1789.0</ele>
        <time>2015-03-17T14:16:53Z</time>
      </trkpt>
      <trkpt lat="43.153083" lon="-4.810550">
        <ele>1790.0</ele>
        <time>2015-03-17T14:16:54Z</time>
      </trkpt>
      <trkpt lat="43.153033" lon="-4.810550">
        <ele>1790.0</ele>
        <time>2015-03-17T14:16:55Z</time>
      </trkpt>
      <trkpt lat="43.153000" lon="-4.810533">
        <ele>1790.0</ele>
        <time>2015-03-17T14:16:56Z</time>
      </trkpt>
      <trkpt lat="43.152950" lon="-4.810483">
        <ele>1789.0</ele>
        <time>2015-03-17T14:16:57Z</time>
      </trkpt>
      <trkpt lat="43.152883" lon="-4.810433">
        <ele>1788.0</ele>
        <time>2015-03-17T14:16:58Z</time>
      </trkpt>
      <trkpt lat="43.152817" lon="-4.810367">
        <ele>1789.0</ele>
        <time>2015-03-17T14:16:59Z</time>
      </trkpt>
      <trkpt lat="43.152767" lon="-4.810283">
        <ele>1790.0</ele>
        <time>2015-03-17T14:17:00Z</time>
      </trkpt>
      <trkpt lat="43.152733" lon="-4.810200">
        <ele>1792.0</ele>
        <time>2015-03-17T14:17:01Z</time>
      </trkpt>
      <trkpt lat="43.152717" lon="-4.810117">
        <ele>1794.0</ele>
        <time>2015-03-17T14:17:02Z</time>
      </trkpt>
      <trkpt lat="43.152700" lon="-4.810050">
        <ele>1795.0</ele>
        <time>2015-03-17T14:17:03Z</time>
      </trkpt>
      <trkpt lat="43.152683" lon="-4.809950">
        <ele>1796.0</ele>
        <time>2015-03-17T14:17:04Z</time>
      </trkpt>
      <trkpt lat="43.152650" lon="-4.809867">
        <ele>1796.0</ele>
        <time>2015-03-17T14:17:05Z</time>
      </trkpt>
      <trkpt lat="43.152617" lon="-4.809783">
        <ele>1797.0</ele>
        <time>2015-03-17T14:17:06Z</time>
      </trkpt>
      <trkpt lat="43.152600" lon="-4.809717">
        <ele>1800.0</ele>
        <time>2015-03-17T14:17:07Z</time>
      </trkpt>
      <trkpt lat="43.152583" lon="-4.809650">
        <ele>1803.0</ele>
        <time>2015-03-17T14:17:08Z</time>
      </trkpt>
      <trkpt lat="43.152567" lon="-4.809567">
        <ele>1805.0</ele>
        <time>2015-03-17T14:17:09Z</time>
      </trkpt>
      <trkpt lat="43.152533" lon="-4.809483">
        <ele>1806.0</ele>
        <time>2015-03-17T14:17:10Z</time>
      </trkpt>
      <trkpt lat="43.152483" lon="-4.809400">
        <ele>1807.0</ele>
        <time>2015-03-17T14:17:11Z</time>
      </trkpt>
      <trkpt lat="43.152450" lon="-4.809300">
        <ele>1808.0</ele>
        <time>2015-03-17T14:17:12Z</time>
      </trkpt>
      <trkpt lat="43.152433" lon="-4.809200">
        <ele>1809.0</ele>
        <time>2015-03-17T14:17:13Z</time>
      </trkpt>
      <trkpt lat="43.152417" lon="-4.809117">
        <ele>1810.0</ele>
        <time>2015-03-17T14:17:14Z</time>
      </trkpt>
      <trkpt lat="43.152400" lon="-4.809000">
        <ele>1810.0</ele>
        <time>2015-03-17T14:17:15Z</time>
      </trkpt>
      <trkpt lat="43.152400" lon="-4.808883">
        <ele>1810.0</ele>
        <time>2015-03-17T14:17:16Z</time>
      </trkpt>
      <trkpt lat="43.152433" lon="-4.808767">
        <ele>1809.0</ele>
        <time>2015-03-17T14:17:17Z</time>
      </trkpt>
      <trkpt lat="43.152467" lon="-4.808650">
        <ele>1810.0</ele>
        <time>2015-03-17T14:17:18Z</time>
      </trkpt>
      <trkpt lat="43.152517" lon="-4.808517">
        <ele>1810.0</ele>
        <time>2015-03-17T14:17:19Z</time>
      </trkpt>
      <trkpt lat="43.152567" lon="-4.808383">
        <ele>1812.0</ele>
        <time>2015-03-17T14:17:20Z</time>
      </trkpt>
      <trkpt lat="43.152567" lon="-4.808267">
        <ele>1814.0</ele>
        <time>2015-03-17T14:17:21Z</time>
      </trkpt>
      <trkpt lat="43.152567" lon="-4.808150">
        <ele>1817.0</ele>
        <time>2015-03-17T14:17:22Z</time>
      </trkpt>
      <trkpt lat="43.152533" lon="-4.808050">
        <ele>1819.0</ele>
        <time>2015-03-17T14:17:23Z</time>
      </trkpt>
      <trkpt lat="43.152500" lon="-4.807983">
        <ele>1821.0</ele>
        <time>2015-03-17T14:17:24Z</time>
      </trkpt>
      <trkpt lat="43.152467" lon="-4.807917">
        <ele>1821.0</ele>
        <time>2015-03-17T14:17:25Z</time>
      </trkpt>
      <trkpt lat="43.152417" lon="-4.807850">
        <ele>1822.0</ele>
        <time>2015-03-17T14:17:26Z</time>
      </trkpt>
      <trkpt lat="43.152367" lon="-4.807800">
        <ele>1822.0</ele>
        <time>2015-03-17T14:17:27Z</time>
      </trkpt>
      <trkpt lat="43.152300" lon="-4.807767">
        <ele>1822.0</ele>
        <time>2015-03-17T14:17:28Z</time>
      </trkpt>
      <trkpt lat="43.152250" lon="-4.807767">
        <ele>1822.0</ele>
        <time>2015-03-17T14:17:29Z</time>
      </trkpt>
      <trkpt lat="43.152200" lon="-4.807817">
        <ele>1822.0</ele>
        <time>2015-03-17T14:17:30Z</time>
      </trkpt>
      <trkpt lat="43.152150" lon="-4.807867">
        <ele>1822.0</ele>
        <time>2015-03-17T14:17:31Z</time>
      </trkpt>
      <trkpt lat="43.152133" lon="-4.807933">
        <ele>1822.0</ele>
        <time>2015-03-17T14:17:32Z</time>
      </trkpt>
      <trkpt lat="43.152133" lon="-4.808017">
        <ele>1822.0</ele>
        <time>2015-03-17T14:17:33Z</time>
      </trkpt>
      <trkpt lat="43.152150" lon="-4.808083">
        <ele>1822.0</ele>
        <time>2015-03-17T14:17:34Z</time>
      </trkpt>
      <trkpt lat="43.152183" lon="-4.808150">
        <ele>1821.0</ele>
        <time>2015-03-17T14:17:35Z</time>
      </trkpt>
      <trkpt lat="43.152200" lon="-4.808233">
        <ele>1821.0</ele>
        <time>2015-03-17T14:17:36Z</time>
      </trkpt>
      <trkpt lat="43.152250" lon="-4.808317">
        <ele>1821.0</ele>
        <time>2015-03-17T14:17:37Z</time>
      </trkpt>
      <trkpt lat="43.152283" lon="-4.808383">
        <ele>1822.0</ele>
        <time>2015-03-17T14:17:38Z</time>
      </trkpt>
      <trkpt lat="43.152333" lon="-4.808450">
        <ele>1822.0</ele>
        <time>2015-03-17T14:17:39Z</time>
      </trkpt>
      <trkpt lat="43.152400" lon="-4.808517">
        <ele>1822.0</ele>
        <time>2015-03-17T14:17:40Z</time>
      </trkpt>
      <trkpt lat="43.152483" lon="-4.808567">
        <ele>1822.0</ele>
        <time>2015-03-17T14:17:41Z</time>
      </trkpt>
      <trkpt lat="43.152550" lon="-4.808617">
        <ele>1822.0</ele>
        <time>2015-03-17T14:17:42Z</time>
      </trkpt>
      <trkpt lat="43.152633" lon="-4.808667">
        <ele>1822.0</ele>
        <time>2015-03-17T14:17:43Z</time>
      </trkpt>
      <trkpt lat="43.152700" lon="-4.808733">
        <ele>1822.0</ele>
        <time>2015-03-17T14:17:44Z</time>
      </trkpt>
      <trkpt lat="43.152783" lon="-4.808783">
        <ele>1822.0</ele>
        <time>2015-03-17T14:17:45Z</time>
      </trkpt>
      <trkpt lat="43.152850" lon="-4.808867">
        <ele>1823.0</ele>
        <time>2015-03-17T14:17:46Z</time>
      </trkpt>
      <trkpt lat="43.152933" lon="-4.808933">
        <ele>1825.0</ele>
        <time>2015-03-17T14:17:47Z</time>
      </trkpt>
      <trkpt lat="43.153017" lon="-4.809000">
        <ele>1828.0</ele>
        <time>2015-03-17T14:17:48Z</time>
      </trkpt>
      <trkpt lat="43.153083" lon="-4.809067">
        <ele>1831.0</ele>
        <time>2015-03-17T14:17:49Z</time>
      </trkpt>
      <trkpt lat="43.153133" lon="-4.809117">
        <ele>1833.0</ele>
        <time>2015-03-17T14:17:50Z</time>
      </trkpt>
      <trkpt lat="43.153183" lon="-4.809167">
        <ele>1835.0</ele>
        <time>2015-03-17T14:17:51Z</time>
      </trkpt>
      <trkpt lat="43.153233" lon="-4.809233">
        <ele>1836.0</ele>
        <time>2015-03-17T14:17:52Z</time>
      </trkpt>
      <trkpt lat="43.153300" lon="-4.809317">
        <ele>1837.0</ele>
        <time>2015-03-17T14:17:53Z</time>
      </trkpt>
      <trkpt lat="43.153383" lon="-4.809400">
        <ele>1839.0</ele>
        <time>2015-03-17T14:17:54Z</time>
      </trkpt>
      <trkpt lat="43.153450" lon="-4.809483">
        <ele>1841.0</ele>
        <time>2015-03-17T14:17:55Z</time>
      </trkpt>
      <trkpt lat="43.153517" lon="-4.809550">
        <ele>1842.0</ele>
        <time>2015-03-17T14:17:56Z</time>
      </trkpt>
      <trkpt lat="43.153567" lon="-4.809617">
        <ele>1844.0</ele>
        <time>2015-03-17T14:17:57Z</time>
      </trkpt>
      <trkpt lat="43.153600" lon="-4.809700">
        <ele>1846.0</ele>
        <time>2015-03-17T14:17:58Z</time>
      </trkpt>
      <trkpt lat="43.153617" lon="-4.809783">
        <ele>1848.0</ele>
        <time>2015-03-17T14:17:59Z</time>
      </trkpt>
      <trkpt lat="43.153617" lon="-4.809867">
        <ele>1851.0</ele>
        <time>2015-03-17T14:18:00Z</time>
      </trkpt>
      <trkpt lat="43.153633" lon="-4.809950">
        <ele>1855.0</ele>
        <time>2015-03-17T14:18:01Z</time>
      </trkpt>
      <trkpt lat="43.153650" lon="-4.810033">
        <ele>1856.0</ele>
        <time>2015-03-17T14:18:02Z</time>
      </trkpt>
      <trkpt lat="43.153650" lon="-4.810100">
        <ele>1858.0</ele>
        <time>2015-03-17T14:18:03Z</time>
      </trkpt>
      <trkpt lat="43.153667" lon="-4.810183">
        <ele>1859.0</ele>
        <time>2015-03-17T14:18:04Z</time>
      </trkpt>
      <trkpt lat="43.153667" lon="-4.810250">
        <ele>1860.0</ele>
        <time>2015-03-17T14:18:05Z</time>
      </trkpt>
      <trkpt lat="43.153667" lon="-4.810333">
        <ele>1860.0</ele>
        <time>2015-03-17T14:18:06Z</time>
      </trkpt>
      <trkpt lat="43.153683" lon="-4.810417">
        <ele>1860.0</ele>
        <time>2015-03-17T14:18:07Z</time>
      </trkpt>
      <trkpt lat="43.153683" lon="-4.810500">
        <ele>1859.0</ele>
        <time>2015-03-17T14:18:08Z</time>
      </trkpt>
      <trkpt lat="43.153683" lon="-4.810583">
        <ele>1858.0</ele>
        <time>2015-03-17T14:18:09Z</time>
      </trkpt>
      <trkpt lat="43.153650" lon="-4.810650">
        <ele>1858.0</ele>
        <time>2015-03-17T14:18:10Z</time>
      </trkpt>
      <trkpt lat="43.153583" lon="-4.810700">
        <ele>1858.0</ele>
        <time>2015-03-17T14:18:11Z</time>
      </trkpt>
      <trkpt lat="43.153517" lon="-4.810733">
        <ele>1858.0</ele>
        <time>2015-03-17T14:18:12Z</time>
      </trkpt>
      <trkpt lat="43.153450" lon="-4.810733">
        <ele>1859.0</ele>
        <time>2015-03-17T14:18:13Z</time>
      </trkpt>
      <trkpt lat="43.153417" lon="-4.810700">
        <ele>1860.0</ele>
        <time>2015-03-17T14:18:14Z</time>
      </trkpt>
      <trkpt lat="43.153367" lon="-4.810667">
        <ele>1859.0</ele>
        <time>2015-03-17T14:18:15Z</time>
      </trkpt>
      <trkpt lat="43.153317" lon="-4.810617">
        <ele>1857.0</ele>
        <time>2015-03-17T14:18:16Z</time>
      </trkpt>
      <trkpt lat="43.153267" lon="-4.810550">
        <ele>1856.0</ele>
        <time>2015-03-17T14:18:17Z</time>
      </trkpt>
      <trkpt lat="43.153200" lon="-4.810450">
        <ele>1855.0</ele>
        <time>2015-03-17T14:18:18Z</time>
      </trkpt>
      <trkpt lat="43.153167" lon="-4.810367">
        <ele>1855.0</ele>
        <time>2015-03-17T14:18:19Z</time>
      </trkpt>
      <trkpt lat="43.153133" lon="-4.810283">
        <ele>1855.0</ele>
        <time>2015-03-17T14:18:20Z</time>
      </trkpt>
      <trkpt lat="43.153100" lon="-4.810217">
        <ele>1854.0</ele>
        <time>2015-03-17T14:18:21Z</time>
      </trkpt>
      <trkpt lat="43.153067" lon="-4.810133">
        <ele>1853.0</ele>
        <time>2015-03-17T14:18:22Z</time>
      </trkpt>
      <trkpt lat="43.153033" lon="-4.810050">
        <ele>1852.0</ele>
        <time>2015-03-17T14:18:23Z</time>
      </trkpt>
      <trkpt lat="43.153000" lon="-4.809933">
        <ele>1850.0</ele>
        <time>2015-03-17T14:18:24Z</time>
      </trkpt>
      <trkpt lat="43.152983" lon="-4.809800">
        <ele>1848.0</ele>
        <time>2015-03-17T14:18:25Z</time>
      </trkpt>
      <trkpt lat="43.152967" lon="-4.809650">
        <ele>1847.0</ele>
        <time>2015-03-17T14:18:26Z</time>
      </trkpt>
      <trkpt lat="43.152950" lon="-4.809517">
        <ele>1847.0</ele>
        <time>2015-03-17T14:18:27Z</time>
      </trkpt>
      <trkpt lat="43.152933" lon="-4.809383">
        <ele>1848.0</ele>
        <time>2015-03-17T14:18:28Z</time>
      </trkpt>
      <trkpt lat="43.152900" lon="-4.809267">
        <ele>1848.0</ele>
        <time>2015-03-17T14:18:29Z</time>
      </trkpt>
      <trkpt lat="43.152867" lon="-4.809167">
        <ele>1848.0</ele>
        <time>2015-03-17T14:18:30Z</time>
      </trkpt>
      <trkpt lat="43.152850" lon="-4.809067">
        <ele>1848.0</ele>
        <time>2015-03-17T14:18:31Z</time>
      </trkpt>
      <trkpt lat="43.152833" lon="-4.808967">
        <ele>1848.0</ele>
        <time>2015-03-17T14:18:32Z</time>
      </trkpt>
      <trkpt lat="43.152817" lon="-4.808850">
        <ele>1848.0</ele>
        <time>2015-03-17T14:18:33Z</time>
      </trkpt>
      <trkpt lat="43.152817" lon="-4.808750">
        <ele>1848.0</ele>
        <time>2015-03-17T14:18:34Z</time>
      </trkpt>
      <trkpt lat="43.152800" lon="-4.808633">
        <ele>1848.0</ele>
        <time>2015-03-17T14:18:35Z</time>
      </trkpt>
      <trkpt lat="43.152800" lon="-4.808500">
        <ele>1848.0</ele>
        <time>2015-03-17T14:18:36Z</time>
      </trkpt>
      <trkpt lat="43.152800" lon="-4.808367">
        <ele>1848.0</ele>
        <time>2015-03-17T14:18:37Z</time>
      </trkpt>
      <trkpt lat="43.152800" lon="-4.808233">
        <ele>1850.0</ele>
        <time>2015-03-17T14:18:38Z</time>
      </trkpt>
      <trkpt lat="43.152783" lon="-4.808117">
        <ele>1852.0</ele>
        <time>2015-03-17T14:18:39Z</time>
      </trkpt>
      <trkpt lat="43.152767" lon="-4.808017">
        <ele>1854.0</ele>
        <time>2015-03-17T14:18:40Z</time>
      </trkpt>
      <trkpt lat="43.152750" lon="-4.807900">
        <ele>1855.0</ele>
        <time>2015-03-17T14:18:41Z</time>
      </trkpt>
      <trkpt lat="43.152733" lon="-4.807800">
        <ele>1855.0</ele>
        <time>2015-03-17T14:18:42Z</time>
      </trkpt>
      <trkpt lat="43.152717" lon="-4.807667">
        <ele>1856.0</ele>
        <time>2015-03-17T14:18:43Z</time>
      </trkpt>
      <trkpt lat="43.152700" lon="-4.807550">
        <ele>1858.0</ele>
        <time>2015-03-17T14:18:44Z</time>
      </trkpt>
      <trkpt lat="43.152667" lon="-4.807433">
        <ele>1859.0</ele>
        <time>2015-03-17T14:18:45Z</time>
      </trkpt>
      <trkpt lat="43.152650" lon="-4.807317">
        <ele>1860.0</ele>
        <time>2015-03-17T14:18:46Z</time>
      </trkpt>
      <trkpt lat="43.152650" lon="-4.807200">
        <ele>1861.0</ele>
        <time>2015-03-17T14:18:47Z</time>
      </trkpt>
      <trkpt lat="43.152633" lon="-4.807100">
        <ele>1861.0</ele>
        <time>2015-03-17T14:18:48Z</time>
      </trkpt>
      <trkpt lat="43.152633" lon="-4.806983">
        <ele>1861.0</ele>
        <time>2015-03-17T14:18:49Z</time>
      </trkpt>
      <trkpt lat="43.152633" lon="-4.806850">
        <ele>1860.0</ele>
        <time>2015-03-17T14:18:50Z</time>
      </trkpt>
      <trkpt lat="43.152633" lon="-4.806717">
        <ele>1860.0</ele>
        <time>2015-03-17T14:18:51Z</time>
      </trkpt>
      <trkpt lat="43.152633" lon="-4.806583">
        <ele>1862.0</ele>
        <time>2015-03-17T14:18:52Z</time>
      </trkpt>
      <trkpt lat="43.152617" lon="-4.806467">
        <ele>1863.0</ele>
        <time>2015-03-17T14:18:53Z</time>
      </trkpt>
      <trkpt lat="43.152617" lon="-4.806350">
        <ele>1864.0</ele>
        <time>2015-03-17T14:18:54Z</time>
      </trkpt>
      <trkpt lat="43.152600" lon="-4.806233">
        <ele>1864.0</ele>
        <time>2015-03-17T14:18:55Z</time>
      </trkpt>
      <trkpt lat="43.152583" lon="-4.806117">
        <ele>1864.0</ele>
        <time>2015-03-17T14:18:56Z</time>
      </trkpt>
      <trkpt lat="43.152567" lon="-4.806000">
        <ele>1865.0</ele>
        <time>2015-03-17T14:18:57Z</time>
      </trkpt>
      <trkpt lat="43.152550" lon="-4.805883">
        <ele>1866.0</ele>
        <time>2015-03-17T14:18:58Z</time>
      </trkpt>
      <trkpt lat="43.152533" lon="-4.805767">
        <ele>1867.0</ele>
        <time>2015-03-17T14:18:59Z</time>
      </trkpt>
      <trkpt lat="43.152517" lon="-4.805667">
        <ele>1868.0</ele>
        <time>2015-03-17T14:19:00Z</time>
      </trkpt>
      <trkpt lat="43.152517" lon="-4.805567">
        <ele>1868.0</ele>
        <time>2015-03-17T14:19:01Z</time>
      </trkpt>
      <trkpt lat="43.152517" lon="-4.805450">
        <ele>1867.0</ele>
        <time>2015-03-17T14:19:02Z</time>
      </trkpt>
      <trkpt lat="43.152500" lon="-4.805317">
        <ele>1867.0</ele>
        <time>2015-03-17T14:19:03Z</time>
      </trkpt>
      <trkpt lat="43.152500" lon="-4.805183">
        <ele>1867.0</ele>
        <time>2015-03-17T14:19:04Z</time>
      </trkpt>
      <trkpt lat="43.152483" lon="-4.805050">
        <ele>1868.0</ele>
        <time>2015-03-17T14:19:05Z</time>
      </trkpt>
      <trkpt lat="43.152467" lon="-4.804933">
        <ele>1868.0</ele>
        <time>2015-03-17T14:19:06Z</time>
      </trkpt>
      <trkpt lat="43.152433" lon="-4.804833">
        <ele>1869.0</ele>
        <time>2015-03-17T14:19:07Z</time>
      </trkpt>
      <trkpt lat="43.152400" lon="-4.804750">
        <ele>1869.0</ele>
        <time>2015-03-17T14:19:08Z</time>
      </trkpt>
      <trkpt lat="43.152367" lon="-4.804650">
        <ele>1869.0</ele>
        <time>2015-03-17T14:19:09Z</time>
      </trkpt>
      <trkpt lat="43.152317" lon="-4.804567">
        <ele>1869.0</ele>
        <time>2015-03-17T14:19:10Z</time>
      </trkpt>
      <trkpt lat="43.152267" lon="-4.804483">
        <ele>1869.0</ele>
        <time>2015-03-17T14:19:11Z</time>
      </trkpt>
      <trkpt lat="43.152233" lon="-4.804400">
        <ele>1870.0</ele>
        <time>2015-03-17T14:19:12Z</time>
      </trkpt>
      <trkpt lat="43.152183" lon="-4.804317">
        <ele>1871.0</ele>
        <time>2015-03-17T14:19:13Z</time>
      </trkpt>
      <trkpt lat="43.152167" lon="-4.804217">
        <ele>1871.0</ele>
        <time>2015-03-17T14:19:14Z</time>
      </trkpt>
      <trkpt lat="43.152150" lon="-4.804100">
        <ele>1871.0</ele>
        <time>2015-03-17T14:19:15Z</time>
      </trkpt>
      <trkpt lat="43.152150" lon="-4.803967">
        <ele>1871.0</ele>
        <time>2015-03-17T14:19:16Z</time>
      </trkpt>
      <trkpt lat="43.152133" lon="-4.803833">
        <ele>1871.0</ele>
        <time>2015-03-17T14:19:17Z</time>
      </trkpt>
      <trkpt lat="43.152117" lon="-4.803717">
        <ele>1871.0</ele>
        <time>2015-03-17T14:19:18Z</time>
      </trkpt>
      <trkpt lat="43.152083" lon="-4.803617">
        <ele>1871.0</ele>
        <time>2015-03-17T14:19:19Z</time>
      </trkpt>
      <trkpt lat="43.152067" lon="-4.803517">
        <ele>1872.0</ele>
        <time>2015-03-17T14:19:20Z</time>
      </trkpt>
      <trkpt lat="43.152033" lon="-4.803417">
        <ele>1871.0</ele>
        <time>2015-03-17T14:19:21Z</time>
      </trkpt>
      <trkpt lat="43.152017" lon="-4.803300">
        <ele>1871.0</ele>
        <time>2015-03-17T14:19:22Z</time>
      </trkpt>
      <trkpt lat="43.152000" lon="-4.803183">
        <ele>1871.0</ele>
        <time>2015-03-17T14:19:23Z</time>
      </trkpt>
      <trkpt lat="43.151967" lon="-4.803083">
        <ele>1872.0</ele>
        <time>2015-03-17T14:19:24Z</time>
      </trkpt>
      <trkpt lat="43.151933" lon="-4.802983">
        <ele>1872.0</ele>
        <time>2015-03-17T14:19:25Z</time>
      </trkpt>
      <trkpt lat="43.151883" lon="-4.802883">
        <ele>1872.0</ele>
        <time>2015-03-17T14:19:26Z</time>
      </trkpt>
      <trkpt lat="43.151850" lon="-4.802783">
        <ele>1873.0</ele>
        <time>2015-03-17T14:19:27Z</time>
      </trkpt>
      <trkpt lat="43.151817" lon="-4.802683">
        <ele>1873.0</ele>
        <time>2015-03-17T14:19:28Z</time>
      </trkpt>
      <trkpt lat="43.151767" lon="-4.802583">
        <ele>1874.0</ele>
        <time>2015-03-17T14:19:29Z</time>
      </trkpt>
      <trkpt lat="43.151733" lon="-4.802500">
        <ele>1875.0</ele>
        <time>2015-03-17T14:19:30Z</time>
      </trkpt>
      <trkpt lat="43.151683" lon="-4.802417">
        <ele>1876.0</ele>
        <time>2015-03-17T14:19:31Z</time>
      </trkpt>
      <trkpt lat="43.151633" lon="-4.802333">
        <ele>1876.0</ele>
        <time>2015-03-17T14:19:32Z</time>
      </trkpt>
      <trkpt lat="43.151600" lon="-4.802250">
        <ele>1877.0</ele>
        <time>2015-03-17T14:19:33Z</time>
      </trkpt>
      <trkpt lat="43.151550" lon="-4.802150">
        <ele>1877.0</ele>
        <time>2015-03-17T14:19:34Z</time>
      </trkpt>
      <trkpt lat="43.151483" lon="-4.802067">
        <ele>1878.0</ele>
        <time>2015-03-17T14:19:35Z</time>
      </trkpt>
      <trkpt lat="43.151433" lon="-4.801983">
        <ele>1879.0</ele>
        <time>2015-03-17T14:19:36Z</time>
      </trkpt>
      <trkpt lat="43.151383" lon="-4.801900">
        <ele>1880.0</ele>
        <time>2015-03-17T14:19:37Z</time>
      </trkpt>
      <trkpt lat="43.151350" lon="-4.801817">
        <ele>1881.0</ele>
        <time>2015-03-17T14:19:38Z</time>
      </trkpt>
      <trkpt lat="43.151300" lon="-4.801750">
        <ele>1882.0</ele>
        <time>2015-03-17T14:19:39Z</time>
      </trkpt>
      <trkpt lat="43.151250" lon="-4.801667">
        <ele>1882.0</ele>
        <time>2015-03-17T14:19:40Z</time>
      </trkpt>
      <trkpt lat="43.151200" lon="-4.801583">
        <ele>1882.0</ele>
        <time>2015-03-17T14:19:41Z</time>
      </trkpt>
      <trkpt lat="43.151150" lon="-4.801500">
        <ele>1882.0</ele>
        <time>2015-03-17T14:19:42Z</time>
      </trkpt>
      <trkpt lat="43.151083" lon="-4.801417">
        <ele>1883.0</ele>
        <time>2015-03-17T14:19:43Z</time>
      </trkpt>
      <trkpt lat="43.151000" lon="-4.801333">
        <ele>1885.0</ele>
        <time>2015-03-17T14:19:44Z</time>
      </trkpt>
      <trkpt lat="43.150950" lon="-4.801283">
        <ele>1887.0</ele>
        <time>2015-03-17T14:19:45Z</time>
      </trkpt>
      <trkpt lat="43.150883" lon="-4.801250">
        <ele>1890.0</ele>
        <time>2015-03-17T14:19:46Z</time>
      </trkpt>
      <trkpt lat="43.150850" lon="-4.801217">
        <ele>1892.0</ele>
        <time>2015-03-17T14:19:47Z</time>
      </trkpt>
      <trkpt lat="43.150817" lon="-4.801200">
        <ele>1893.0</ele>
        <time>2015-03-17T14:19:48Z</time>
      </trkpt>
      <trkpt lat="43.150783" lon="-4.801167">
        <ele>1892.0</ele>
        <time>2015-03-17T14:19:49Z</time>
      </trkpt>
      <trkpt lat="43.150717" lon="-4.801150">
        <ele>1891.0</ele>
        <time>2015-03-17T14:19:50Z</time>
      </trkpt>
      <trkpt lat="43.150633" lon="-4.801117">
        <ele>1890.0</ele>
        <time>2015-03-17T14:19:51Z</time>
      </trkpt>
      <trkpt lat="43.150550" lon="-4.801083">
        <ele>1890.0</ele>
        <time>2015-03-17T14:19:52Z</time>
      </trkpt>
      <trkpt lat="43.150467" lon="-4.801050">
        <ele>1891.0</ele>
        <time>2015-03-17T14:19:53Z</time>
      </trkpt>
      <trkpt lat="43.150400" lon="-4.801033">
        <ele>1891.0</ele>
        <time>2015-03-17T14:19:54Z</time>
      </trkpt>
      <trkpt lat="43.150333" lon="-4.801017">
        <ele>1891.0</ele>
        <time>2015-03-17T14:19:55Z</time>
      </trkpt>
      <trkpt lat="43.150250" lon="-4.800983">
        <ele>1891.0</ele>
        <time>2015-03-17T14:19:56Z</time>
      </trkpt>
      <trkpt lat="43.150183" lon="-4.800967">
        <ele>1891.0</ele>
        <time>2015-03-17T14:19:57Z</time>
      </trkpt>
      <trkpt lat="43.150100" lon="-4.800950">
        <ele>1890.0</ele>
        <time>2015-03-17T14:19:58Z</time>
      </trkpt>
      <trkpt lat="43.150017" lon="-4.800917">
        <ele>1889.0</ele>
        <time>2015-03-17T14:19:59Z</time>
      </trkpt>
      <trkpt lat="43.149933" lon="-4.800900">
        <ele>1889.0</ele>
        <time>2015-03-17T14:20:00Z</time>
      </trkpt>
      <trkpt lat="43.149850" lon="-4.800867">
        <ele>1889.0</ele>
        <time>2015-03-17T14:20:01Z</time>
      </trkpt>
      <trkpt lat="43.149800" lon="-4.800850">
        <ele>1889.0</ele>
        <time>2015-03-17T14:20:02Z</time>
      </trkpt>
      <trkpt lat="43.149733" lon="-4.800833">
        <ele>1889.0</ele>
        <time>2015-03-17T14:20:03Z</time>
      </trkpt>
      <trkpt lat="43.149683" lon="-4.800833">
        <ele>1889.0</ele>
        <time>2015-03-17T14:20:04Z</time>
      </trkpt>
      <trkpt lat="43.149617" lon="-4.800817">
        <ele>1889.0</ele>
        <time>2015-03-17T14:20:05Z</time>
      </trkpt>
      <trkpt lat="43.149533" lon="-4.800783">
        <ele>1889.0</ele>
        <time>2015-03-17T14:20:06Z</time>
      </trkpt>
      <trkpt lat="43.149483" lon="-4.800767">
        <ele>1888.0</ele>
        <time>2015-03-17T14:20:07Z</time>
      </trkpt>
      <trkpt lat="43.149417" lon="-4.800733">
        <ele>1888.0</ele>
        <time>2015-03-17T14:20:08Z</time>
      </trkpt>
      <trkpt lat="43.149367" lon="-4.800700">
        <ele>1887.0</ele>
        <time>2015-03-17T14:20:09Z</time>
      </trkpt>
      <trkpt lat="43.149300" lon="-4.800667">
        <ele>1886.0</ele>
        <time>2015-03-17T14:20:10Z</time>
      </trkpt>
      <trkpt lat="43.149233" lon="-4.800633">
        <ele>1884.0</ele>
        <time>2015-03-17T14:20:11Z</time>
      </trkpt>
      <trkpt lat="43.149150" lon="-4.800583">
        <ele>1883.0</ele>
        <time>2015-03-17T14:20:12Z</time>
      </trkpt>
      <trkpt lat="43.149067" lon="-4.800533">
        <ele>1881.0</ele>
        <time>2015-03-17T14:20:13Z</time>
      </trkpt>
      <trkpt lat="43.148983" lon="-4.800467">
        <ele>1880.0</ele>
        <time>2015-03-17T14:20:14Z</time>
      </trkpt>
      <trkpt lat="43.148900" lon="-4.800400">
        <ele>1880.0</ele>
        <time>2015-03-17T14:20:15Z</time>
      </trkpt>
      <trkpt lat="43.148833" lon="-4.800333">
        <ele>1881.0</ele>
        <time>2015-03-17T14:20:16Z</time>
      </trkpt>
      <trkpt lat="43.148783" lon="-4.800250">
        <ele>1881.0</ele>
        <time>2015-03-17T14:20:17Z</time>
      </trkpt>
      <trkpt lat="43.148717" lon="-4.800150">
        <ele>1880.0</ele>
        <time>2015-03-17T14:20:18Z</time>
      </trkpt>
      <trkpt lat="43.148667" lon="-4.800067">
        <ele>1879.0</ele>
        <time>2015-03-17T14:20:19Z</time>
      </trkpt>
      <trkpt lat="43.148600" lon="-4.799967">
        <ele>1878.0</ele>
        <time>2015-03-17T14:20:20Z</time>
      </trkpt>
      <trkpt lat="43.148533" lon="-4.799867">
        <ele>1877.0</ele>
        <time>2015-03-17T14:20:21Z</time>
      </trkpt>
      <trkpt lat="43.148467" lon="-4.799767">
        <ele>1876.0</ele>
        <time>2015-03-17T14:20:22Z</time>
      </trkpt>
      <trkpt lat="43.148383" lon="-4.799667">
        <ele>1877.0</ele>
        <time>2015-03-17T14:20:23Z</time>
      </trkpt>
      <trkpt lat="43.148317" lon="-4.799583">
        <ele>1877.0</ele>
        <time>2015-03-17T14:20:24Z</time>
      </trkpt>
      <trkpt lat="43.148267" lon="-4.799500">
        <ele>1877.0</ele>
        <time>2015-03-17T14:20:25Z</time>
      </trkpt>
      <trkpt lat="43.148200" lon="-4.799400">
        <ele>1877.0</ele>
        <time>2015-03-17T14:20:26Z</time>
      </trkpt>
      <trkpt lat="43.148133" lon="-4.799300">
        <ele>1876.0</ele>
        <time>2015-03-17T14:20:27Z</time>
      </trkpt>
      <trkpt lat="43.148067" lon="-4.799183">
        <ele>1876.0</ele>
        <time>2015-03-17T14:20:28Z</time>
      </trkpt>
      <trkpt lat="43.148000" lon="-4.799067">
        <ele>1876.0</ele>
        <time>2015-03-17T14:20:29Z</time>
      </trkpt>
      <trkpt lat="43.147933" lon="-4.798950">
        <ele>1878.0</ele>
        <time>2015-03-17T14:20:30Z</time>
      </trkpt>
      <trkpt lat="43.147883" lon="-4.798850">
        <ele>1879.0</ele>
        <time>2015-03-17T14:20:31Z</time>
      </trkpt>
      <trkpt lat="43.147833" lon="-4.798750">
        <ele>1881.0</ele>
        <time>2015-03-17T14:20:32Z</time>
      </trkpt>
      <trkpt lat="43.147767" lon="-4.798650">
        <ele>1882.0</ele>
        <time>2015-03-17T14:20:33Z</time>
      </trkpt>
      <trkpt lat="43.147700" lon="-4.798550">
        <ele>1882.0</ele>
        <time>2015-03-17T14:20:34Z</time>
      </trkpt>
      <trkpt lat="43.147633" lon="-4.798467">
        <ele>1883.0</ele>
        <time>2015-03-17T14:20:35Z</time>
      </trkpt>
      <trkpt lat="43.147567" lon="-4.798383">
        <ele>1884.0</ele>
        <time>2015-03-17T14:20:36Z</time>
      </trkpt>
      <trkpt lat="43.147500" lon="-4.798300">
        <ele>1885.0</ele>
        <time>2015-03-17T14:20:37Z</time>
      </trkpt>
      <trkpt lat="43.147433" lon="-4.798217">
        <ele>1886.0</ele>
        <time>2015-03-17T14:20:38Z</time>
      </trkpt>
      <trkpt lat="43.147367" lon="-4.798117">
        <ele>1886.0</ele>
        <time>2015-03-17T14:20:39Z</time>
      </trkpt>
      <trkpt lat="43.147300" lon="-4.798033">
        <ele>1886.0</ele>
        <time>2015-03-17T14:20:40Z</time>
      </trkpt>
      <trkpt lat="43.147233" lon="-4.797933">
        <ele>1887.0</ele>
        <time>2015-03-17T14:20:41Z</time>
      </trkpt>
      <trkpt lat="43.147167" lon="-4.797850">
        <ele>1887.0</ele>
        <time>2015-03-17T14:20:42Z</time>
      </trkpt>
      <trkpt lat="43.147100" lon="-4.797767">
        <ele>1888.0</ele>
        <time>2015-03-17T14:20:43Z</time>
      </trkpt>
      <trkpt lat="43.147033" lon="-4.797667">
        <ele>1889.0</ele>
        <time>2015-03-17T14:20:44Z</time>
      </trkpt>
      <trkpt lat="43.146983" lon="-4.797583">
        <ele>1891.0</ele>
        <time>2015-03-17T14:20:45Z</time>
      </trkpt>
      <trkpt lat="43.146933" lon="-4.797500">
        <ele>1891.0</ele>
        <time>2015-03-17T14:20:46Z</time>
      </trkpt>
      <trkpt lat="43.146883" lon="-4.797400">
        <ele>1892.0</ele>
        <time>2015-03-17T14:20:47Z</time>
      </trkpt>
      <trkpt lat="43.146817" lon="-4.797300">
        <ele>1893.0</ele>
        <time>2015-03-17T14:20:48Z</time>
      </trkpt>
      <trkpt lat="43.146783" lon="-4.797200">
        <ele>1895.0</ele>
        <time>2015-03-17T14:20:49Z</time>
      </trkpt>
      <trkpt lat="43.146750" lon="-4.797100">
        <ele>1896.0</ele>
        <time>2015-03-17T14:20:50Z</time>
      </trkpt>
      <trkpt lat="43.146717" lon="-4.797000">
        <ele>1896.0</ele>
        <time>2015-03-17T14:20:51Z</time>
      </trkpt>
      <trkpt lat="43.146683" lon="-4.796900">
        <ele>1896.0</ele>
        <time>2015-03-17T14:20:52Z</time>
      </trkpt>
      <trkpt lat="43.146650" lon="-4.796783">
        <ele>1896.0</ele>
        <time>2015-03-17T14:20:53Z</time>
      </trkpt>
      <trkpt lat="43.146617" lon="-4.796683">
        <ele>1896.0</ele>
        <time>2015-03-17T14:20:54Z</time>
      </trkpt>
      <trkpt lat="43.146583" lon="-4.796600">
        <ele>1898.0</ele>
        <time>2015-03-17T14:20:55Z</time>
      </trkpt>
      <trkpt lat="43.146550" lon="-4.796533">
        <ele>1899.0</ele>
        <time>2015-03-17T14:20:56Z</time>
      </trkpt>
      <trkpt lat="43.146517" lon="-4.796467">
        <ele>1900.0</ele>
        <time>2015-03-17T14:20:57Z</time>
      </trkpt>
      <trkpt lat="43.146500" lon="-4.796383">
        <ele>1900.0</ele>
        <time>2015-03-17T14:20:58Z</time>
      </trkpt>
      <trkpt lat="43.146483" lon="-4.796300">
        <ele>1900.0</ele>
        <time>2015-03-17T14:20:59Z</time>
      </trkpt>
      <trkpt lat="43.146467" lon="-4.796217">
        <ele>1899.0</ele>
        <time>2015-03-17T14:21:00Z</time>
      </trkpt>
      <trkpt lat="43.146400" lon="-4.796150">
        <ele>1899.0</ele>
        <time>2015-03-17T14:21:01Z</time>
      </trkpt>
      <trkpt lat="43.146333" lon="-4.796100">
        <ele>1899.0</ele>
        <time>2015-03-17T14:21:02Z</time>
      </trkpt>
      <trkpt lat="43.146267" lon="-4.796050">
        <ele>1900.0</ele>
        <time>2015-03-17T14:21:03Z</time>
      </trkpt>
      <trkpt lat="43.146200" lon="-4.796017">
        <ele>1901.0</ele>
        <time>2015-03-17T14:21:04Z</time>
      </trkpt>
      <trkpt lat="43.146150" lon="-4.795983">
        <ele>1901.0</ele>
        <time>2015-03-17T14:21:05Z</time>
      </trkpt>
      <trkpt lat="43.146083" lon="-4.795950">
        <ele>1902.0</ele>
        <time>2015-03-17T14:21:06Z</time>
      </trkpt>
      <trkpt lat="43.146033" lon="-4.795900">
        <ele>1903.0</ele>
        <time>2015-03-17T14:21:07Z</time>
      </trkpt>
      <trkpt lat="43.145967" lon="-4.795850">
        <ele>1905.0</ele>
        <time>2015-03-17T14:21:08Z</time>
      </trkpt>
      <trkpt lat="43.145917" lon="-4.795833">
        <ele>1905.0</ele>
        <time>2015-03-17T14:21:09Z</time>
      </trkpt>
      <trkpt lat="43.145867" lon="-4.795800">
        <ele>1905.0</ele>
        <time>2015-03-17T14:21:10Z</time>
      </trkpt>
      <trkpt lat="43.145817" lon="-4.795783">
        <ele>1906.0</ele>
        <time>2015-03-17T14:21:11Z</time>
      </trkpt>
      <trkpt lat="43.145750" lon="-4.795767">
        <ele>1907.0</ele>
        <time>2015-03-17T14:21:12Z</time>
      </trkpt>
      <trkpt lat="43.145700" lon="-4.795733">
        <ele>1909.0</ele>
        <time>2015-03-17T14:21:13Z</time>
      </trkpt>
      <trkpt lat="43.145650" lon="-4.795717">
        <ele>1911.0</ele>
        <time>2015-03-17T14:21:14Z</time>
      </trkpt>
      <trkpt lat="43.145617" lon="-4.795683">
        <ele>1912.0</ele>
        <time>2015-03-17T14:21:15Z</time>
      </trkpt>
      <trkpt lat="43.145583" lon="-4.795650">
        <ele>1914.0</ele>
        <time>2015-03-17T14:21:16Z</time>
      </trkpt>
      <trkpt lat="43.145550" lon="-4.795617">
        <ele>1914.0</ele>
        <time>2015-03-17T14:21:17Z</time>
      </trkpt>
      <trkpt lat="43.145517" lon="-4.795567">
        <ele>1914.0</ele>
        <time>2015-03-17T14:21:18Z</time>
      </trkpt>
      <trkpt lat="43.145483" lon="-4.795533">
        <ele>1914.0</ele>
        <time>2015-03-17T14:21:19Z</time>
      </trkpt>
      <trkpt lat="43.145433" lon="-4.795483">
        <ele>1913.0</ele>
        <time>2015-03-17T14:21:20Z</time>
      </trkpt>
      <trkpt lat="43.145383" lon="-4.795433">
        <ele>1913.0</ele>
        <time>2015-03-17T14:21:21Z</time>
      </trkpt>
      <trkpt lat="43.145350" lon="-4.795350">
        <ele>1913.0</ele>
        <time>2015-03-17T14:21:22Z</time>
      </trkpt>
      <trkpt lat="43.145317" lon="-4.795267">
        <ele>1912.0</ele>
        <time>2015-03-17T14:21:23Z</time>
      </trkpt>
      <trkpt lat="43.145267" lon="-4.795183">
        <ele>1912.0</ele>
        <time>2015-03-17T14:21:24Z</time>
      </trkpt>
      <trkpt lat="43.145233" lon="-4.795100">
        <ele>1911.0</ele>
        <time>2015-03-17T14:21:25Z</time>
      </trkpt>
      <trkpt lat="43.145183" lon="-4.795000">
        <ele>1911.0</ele>
        <time>2015-03-17T14:21:26Z</time>
      </trkpt>
      <trkpt lat="43.145133" lon="-4.794917">
        <ele>1911.0</ele>
        <time>2015-03-17T14:21:27Z</time>
      </trkpt>
      <trkpt lat="43.145100" lon="-4.794817">
        <ele>1911.0</ele>
        <time>2015-03-17T14:21:28Z</time>
      </trkpt>
      <trkpt lat="43.145050" lon="-4.794733">
        <ele>1912.0</ele>
        <time>2015-03-17T14:21:29Z</time>
      </trkpt>
      <trkpt lat="43.145000" lon="-4.794650">
        <ele>1911.0</ele>
        <time>2015-03-17T14:21:30Z</time>
      </trkpt>
      <trkpt lat="43.144950" lon="-4.794550">
        <ele>1911.0</ele>
        <time>2015-03-17T14:21:31Z</time>
      </trkpt>
      <trkpt lat="43.144900" lon="-4.794467">
        <ele>1911.0</ele>
        <time>2015-03-17T14:21:32Z</time>
      </trkpt>
      <trkpt lat="43.144833" lon="-4.794400">
        <ele>1911.0</ele>
        <time>2015-03-17T14:21:33Z</time>
      </trkpt>
      <trkpt lat="43.144767" lon="-4.794317">
        <ele>1912.0</ele>
        <time>2015-03-17T14:21:34Z</time>
      </trkpt>
      <trkpt lat="43.144717" lon="-4.794250">
        <ele>1913.0</ele>
        <time>2015-03-17T14:21:35Z</time>
      </trkpt>
      <trkpt lat="43.144667" lon="-4.794183">
        <ele>1913.0</ele>
        <time>2015-03-17T14:21:36Z</time>
      </trkpt>
      <trkpt lat="43.144600" lon="-4.794117">
        <ele>1913.0</ele>
        <time>2015-03-17T14:21:37Z</time>
      </trkpt>
      <trkpt lat="43.144550" lon="-4.794033">
        <ele>1913.0</ele>
        <time>2015-03-17T14:21:38Z</time>
      </trkpt>
      <trkpt lat="43.144483" lon="-4.793950">
        <ele>1914.0</ele>
        <time>2015-03-17T14:21:39Z</time>
      </trkpt>
      <trkpt lat="43.144433" lon="-4.793867">
        <ele>1916.0</ele>
        <time>2015-03-17T14:21:40Z</time>
      </trkpt>
      <trkpt lat="43.144383" lon="-4.793800">
        <ele>1918.0</ele>
        <time>2015-03-17T14:21:41Z</time>
      </trkpt>
      <trkpt lat="43.144333" lon="-4.793717">
        <ele>1920.0</ele>
        <time>2015-03-17T14:21:42Z</time>
      </trkpt>
      <trkpt lat="43.144300" lon="-4.793633">
        <ele>1922.0</ele>
        <time>2015-03-17T14:21:43Z</time>
      </trkpt>
      <trkpt lat="43.144283" lon="-4.793550">
        <ele>1924.0</ele>
        <time>2015-03-17T14:21:44Z</time>
      </trkpt>
      <trkpt lat="43.144267" lon="-4.793467">
        <ele>1925.0</ele>
        <time>2015-03-17T14:21:45Z</time>
      </trkpt>
      <trkpt lat="43.144233" lon="-4.793383">
        <ele>1925.0</ele>
        <time>2015-03-17T14:21:46Z</time>
      </trkpt>
      <trkpt lat="43.144217" lon="-4.793283">
        <ele>1925.0</ele>
        <time>2015-03-17T14:21:47Z</time>
      </trkpt>
      <trkpt lat="43.144183" lon="-4.793200">
        <ele>1925.0</ele>
        <time>2015-03-17T14:21:48Z</time>
      </trkpt>
      <trkpt lat="43.144150" lon="-4.793100">
        <ele>1925.0</ele>
        <time>2015-03-17T14:21:49Z</time>
      </trkpt>
      <trkpt lat="43.144117" lon="-4.792967">
        <ele>1924.0</ele>
        <time>2015-03-17T14:21:50Z</time>
      </trkpt>
      <trkpt lat="43.144100" lon="-4.792817">
        <ele>1923.0</ele>
        <time>2015-03-17T14:21:51Z</time>
      </trkpt>
      <trkpt lat="43.144067" lon="-4.792667">
        <ele>1922.0</ele>
        <time>2015-03-17T14:21:52Z</time>
      </trkpt>
      <trkpt lat="43.144033" lon="-4.792517">
        <ele>1923.0</ele>
        <time>2015-03-17T14:21:53Z</time>
      </trkpt>
      <trkpt lat="43.144000" lon="-4.792383">
        <ele>1924.0</ele>
        <time>2015-03-17T14:21:54Z</time>
      </trkpt>
      <trkpt lat="43.143950" lon="-4.792267">
        <ele>1925.0</ele>
        <time>2015-03-17T14:21:55Z</time>
      </trkpt>
      <trkpt lat="43.143917" lon="-4.792150">
        <ele>1926.0</ele>
        <time>2015-03-17T14:21:56Z</time>
      </trkpt>
      <trkpt lat="43.143883" lon="-4.792033">
        <ele>1926.0</ele>
        <time>2015-03-17T14:21:57Z</time>
      </trkpt>
      <trkpt lat="43.143867" lon="-4.791900">
        <ele>1926.0</ele>
        <time>2015-03-17T14:21:58Z</time>
      </trkpt>
      <trkpt lat="43.143850" lon="-4.791767">
        <ele>1926.0</ele>
        <time>2015-03-17T14:21:59Z</time>
      </trkpt>
      <trkpt lat="43.143817" lon="-4.791633">
        <ele>1925.0</ele>
        <time>2015-03-17T14:22:00Z</time>
      </trkpt>
      <trkpt lat="43.143783" lon="-4.791517">
        <ele>1925.0</ele>
        <time>2015-03-17T14:22:01Z</time>
      </trkpt>
      <trkpt lat="43.143750" lon="-4.791400">
        <ele>1924.0</ele>
        <time>2015-03-17T14:22:02Z</time>
      </trkpt>
      <trkpt lat="43.143717" lon="-4.791267">
        <ele>1924.0</ele>
        <time>2015-03-17T14:22:03Z</time>
      </trkpt>
      <trkpt lat="43.143700" lon="-4.791150">
        <ele>1923.0</ele>
        <time>2015-03-17T14:22:04Z</time>
      </trkpt>
      <trkpt lat="43.143683" lon="-4.791017">
        <ele>1922.0</ele>
        <time>2015-03-17T14:22:05Z</time>
      </trkpt>
      <trkpt lat="43.143667" lon="-4.790867">
        <ele>1921.0</ele>
        <time>2015-03-17T14:22:06Z</time>
      </trkpt>
      <trkpt lat="43.143633" lon="-4.790750">
        <ele>1920.0</ele>
        <time>2015-03-17T14:22:07Z</time>
      </trkpt>
      <trkpt lat="43.143617" lon="-4.790617">
        <ele>1920.0</ele>
        <time>2015-03-17T14:22:08Z</time>
      </trkpt>
      <trkpt lat="43.143617" lon="-4.790483">
        <ele>1921.0</ele>
        <time>2015-03-17T14:22:09Z</time>
      </trkpt>
      <trkpt lat="43.143600" lon="-4.790333">
        <ele>1921.0</ele>
        <time>2015-03-17T14:22:10Z</time>
      </trkpt>
      <trkpt lat="43.143583" lon="-4.790217">
        <ele>1923.0</ele>
        <time>2015-03-17T14:22:11Z</time>
      </trkpt>
      <trkpt lat="43.143550" lon="-4.790100">
        <ele>1927.0</ele>
        <time>2015-03-17T14:22:12Z</time>
      </trkpt>
      <trkpt lat="43.143533" lon="-4.790017">
        <ele>1930.0</ele>
        <time>2015-03-17T14:22:13Z</time>
      </trkpt>
      <trkpt lat="43.143533" lon="-4.789950">
        <ele>1932.0</ele>
        <time>2015-03-17T14:22:14Z</time>
      </trkpt>
      <trkpt lat="43.143533" lon="-4.789883">
        <ele>1933.0</ele>
        <time>2015-03-17T14:22:15Z</time>
      </trkpt>
      <trkpt lat="43.143517" lon="-4.789817">
        <ele>1932.0</ele>
        <time>2015-03-17T14:22:16Z</time>
      </trkpt>
      <trkpt lat="43.143467" lon="-4.789717">
        <ele>1931.0</ele>
        <time>2015-03-17T14:22:17Z</time>
      </trkpt>
      <trkpt lat="43.143400" lon="-4.789617">
        <ele>1932.0</ele>
        <time>2015-03-17T14:22:18Z</time>
      </trkpt>
      <trkpt lat="43.143350" lon="-4.789517">
        <ele>1934.0</ele>
        <time>2015-03-17T14:22:19Z</time>
      </trkpt>
      <trkpt lat="43.143300" lon="-4.789417">
        <ele>1937.0</ele>
        <time>2015-03-17T14:22:20Z</time>
      </trkpt>
      <trkpt lat="43.143267" lon="-4.789317">
        <ele>1941.0</ele>
        <time>2015-03-17T14:22:21Z</time>
      </trkpt>
      <trkpt lat="43.143250" lon="-4.789233">
        <ele>1943.0</ele>
        <time>2015-03-17T14:22:22Z</time>
      </trkpt>
      <trkpt lat="43.143250" lon="-4.789167">
        <ele>1945.0</ele>
        <time>2015-03-17T14:22:23Z</time>
      </trkpt>
      <trkpt lat="43.143233" lon="-4.789067">
        <ele>1947.0</ele>
        <time>2015-03-17T14:22:24Z</time>
      </trkpt>
      <trkpt lat="43.143233" lon="-4.788933">
        <ele>1947.0</ele>
        <time>2015-03-17T14:22:25Z</time>
      </trkpt>
      <trkpt lat="43.143250" lon="-4.788800">
        <ele>1949.0</ele>
        <time>2015-03-17T14:22:26Z</time>
      </trkpt>
      <trkpt lat="43.143300" lon="-4.788667">
        <ele>1951.0</ele>
        <time>2015-03-17T14:22:27Z</time>
      </trkpt>
      <trkpt lat="43.143367" lon="-4.788550">
        <ele>1953.0</ele>
        <time>2015-03-17T14:22:28Z</time>
      </trkpt>
      <trkpt lat="43.143450" lon="-4.788467">
        <ele>1955.0</ele>
        <time>2015-03-17T14:22:29Z</time>
      </trkpt>
      <trkpt lat="43.143550" lon="-4.788417">
        <ele>1958.0</ele>
        <time>2015-03-17T14:22:30Z</time>
      </trkpt>
      <trkpt lat="43.143650" lon="-4.788400">
        <ele>1962.0</ele>
        <time>2015-03-17T14:22:31Z</time>
      </trkpt>
      <trkpt lat="43.143767" lon="-4.788383">
        <ele>1966.0</ele>
        <time>2015-03-17T14:22:32Z</time>
      </trkpt>
      <trkpt lat="43.143850" lon="-4.788383">
        <ele>1969.0</ele>
        <time>2015-03-17T14:22:33Z</time>
      </trkpt>
      <trkpt lat="43.143933" lon="-4.788400">
        <ele>1973.0</ele>
        <time>2015-03-17T14:22:34Z</time>
      </trkpt>
      <trkpt lat="43.144017" lon="-4.788450">
        <ele>1976.0</ele>
        <time>2015-03-17T14:22:35Z</time>
      </trkpt>
      <trkpt lat="43.144083" lon="-4.788500">
        <ele>1979.0</ele>
        <time>2015-03-17T14:22:36Z</time>
      </trkpt>
      <trkpt lat="43.144133" lon="-4.788567">
        <ele>1982.0</ele>
        <time>2015-03-17T14:22:37Z</time>
      </trkpt>
      <trkpt lat="43.144167" lon="-4.788633">
        <ele>1986.0</ele>
        <time>2015-03-17T14:22:38Z</time>
      </trkpt>
      <trkpt lat="43.144183" lon="-4.788700">
        <ele>1989.0</ele>
        <time>2015-03-17T14:22:39Z</time>
      </trkpt>
      <trkpt lat="43.144183" lon="-4.788767">
        <ele>1990.0</ele>
        <time>2015-03-17T14:22:40Z</time>
      </trkpt>
      <trkpt lat="43.144150" lon="-4.788833">
        <ele>1992.0</ele>
        <time>2015-03-17T14:22:41Z</time>
      </trkpt>
      <trkpt lat="43.144133" lon="-4.788867">
        <ele>1994.0</ele>
        <time>2015-03-17T14:22:42Z</time>
      </trkpt>
      <trkpt lat="43.144083" lon="-4.788867">
        <ele>1995.0</ele>
        <time>2015-03-17T14:22:43Z</time>
      </trkpt>
      <trkpt lat="43.144050" lon="-4.788833">
        <ele>1996.0</ele>
        <time>2015-03-17T14:22:44Z</time>
      </trkpt>
      <trkpt lat="43.144017" lon="-4.788750">
        <ele>1997.0</ele>
        <time>2015-03-17T14:22:45Z</time>
      </trkpt>
      <trkpt lat="43.143967" lon="-4.788667">
        <ele>1999.0</ele>
        <time>2015-03-17T14:22:46Z</time>
      </trkpt>
      <trkpt lat="43.143950" lon="-4.788600">
        <ele>1999.0</ele>
        <time>2015-03-17T14:22:47Z</time>
      </trkpt>
      <trkpt lat="43.143917" lon="-4.788517">
        <ele>2000.0</ele>
        <time>2015-03-17T14:22:48Z</time>
      </trkpt>
      <trkpt lat="43.143883" lon="-4.788417">
        <ele>2001.0</ele>
        <time>2015-03-17T14:22:49Z</time>
      </trkpt>
      <trkpt lat="43.143883" lon="-4.788283">
        <ele>2001.0</ele>
        <time>2015-03-17T14:22:50Z</time>
      </trkpt>
      <trkpt lat="43.143883" lon="-4.788133">
        <ele>2004.0</ele>
        <time>2015-03-17T14:22:51Z</time>
      </trkpt>
      <trkpt lat="43.143917" lon="-4.788000">
        <ele>2008.0</ele>
        <time>2015-03-17T14:22:52Z</time>
      </trkpt>
      <trkpt lat="43.143983" lon="-4.787883">
        <ele>2012.0</ele>
        <time>2015-03-17T14:22:53Z</time>
      </trkpt>
      <trkpt lat="43.144017" lon="-4.787783">
        <ele>2016.0</ele>
        <time>2015-03-17T14:22:54Z</time>
      </trkpt>
      <trkpt lat="43.144067" lon="-4.787700">
        <ele>2019.0</ele>
        <time>2015-03-17T14:22:55Z</time>
      </trkpt>
      <trkpt lat="43.144117" lon="-4.787583">
        <ele>2020.0</ele>
        <time>2015-03-17T14:22:56Z</time>
      </trkpt>
      <trkpt lat="43.144183" lon="-4.787467">
        <ele>2021.0</ele>
        <time>2015-03-17T14:22:57Z</time>
      </trkpt>
      <trkpt lat="43.144283" lon="-4.787350">
        <ele>2023.0</ele>
        <time>2015-03-17T14:22:58Z</time>
      </trkpt>
      <trkpt lat="43.144383" lon="-4.787283">
        <ele>2025.0</ele>
        <time>2015-03-17T14:22:59Z</time>
      </trkpt>
      <trkpt lat="43.144500" lon="-4.787267">
        <ele>2028.0</ele>
        <time>2015-03-17T14:23:00Z</time>
      </trkpt>
      <trkpt lat="43.144617" lon="-4.787283">
        <ele>2030.0</ele>
        <time>2015-03-17T14:23:01Z</time>
      </trkpt>
      <trkpt lat="43.144700" lon="-4.787333">
        <ele>2032.0</ele>
        <time>2015-03-17T14:23:02Z</time>
      </trkpt>
      <trkpt lat="43.144767" lon="-4.787400">
        <ele>2034.0</ele>
        <time>2015-03-17T14:23:03Z</time>
      </trkpt>
      <trkpt lat="43.144833" lon="-4.787483">
        <ele>2037.0</ele>
        <time>2015-03-17T14:23:04Z</time>
      </trkpt>
      <trkpt lat="43.144883" lon="-4.787567">
        <ele>2040.0</ele>
        <time>2015-03-17T14:23:05Z</time>
      </trkpt>
      <trkpt lat="43.144917" lon="-4.787650">
        <ele>2044.0</ele>
        <time>2015-03-17T14:23:06Z</time>
      </trkpt>
      <trkpt lat="43.144950" lon="-4.787700">
        <ele>2047.0</ele>
        <time>2015-03-17T14:23:07Z</time>
      </trkpt>
      <trkpt lat="43.144967" lon="-4.787750">
        <ele>2050.0</ele>
        <time>2015-03-17T14:23:08Z</time>
      </trkpt>
      <trkpt lat="43.144983" lon="-4.787800">
        <ele>2052.0</ele>
        <time>2015-03-17T14:23:09Z</time>
      </trkpt>
      <trkpt lat="43.145000" lon="-4.787850">
        <ele>2053.0</ele>
        <time>2015-03-17T14:23:10Z</time>
      </trkpt>
      <trkpt lat="43.145000" lon="-4.787900">
        <ele>2054.0</ele>
        <time>2015-03-17T14:23:11Z</time>
      </trkpt>
      <trkpt lat="43.144983" lon="-4.787950">
        <ele>2054.0</ele>
        <time>2015-03-17T14:23:12Z</time>
      </trkpt>
      <trkpt lat="43.144950" lon="-4.787983">
        <ele>2054.0</ele>
        <time>2015-03-17T14:23:13Z</time>
      </trkpt>
      <trkpt lat="43.144917" lon="-4.787983">
        <ele>2055.0</ele>
        <time>2015-03-17T14:23:14Z</time>
      </trkpt>
      <trkpt lat="43.144883" lon="-4.787967">
        <ele>2055.0</ele>
        <time>2015-03-17T14:23:15Z</time>
      </trkpt>
      <trkpt lat="43.144850" lon="-4.787917">
        <ele>2055.0</ele>
        <time>2015-03-17T14:23:16Z</time>
      </trkpt>
      <trkpt lat="43.144817" lon="-4.787850">
        <ele>2055.0</ele>
        <time>2015-03-17T14:23:17Z</time>
      </trkpt>
      <trkpt lat="43.144767" lon="-4.787767">
        <ele>2056.0</ele>
        <time>2015-03-17T14:23:18Z</time>
      </trkpt>
      <trkpt lat="43.144733" lon="-4.787683">
        <ele>2056.0</ele>
        <time>2015-03-17T14:23:19Z</time>
      </trkpt>
      <trkpt lat="43.144700" lon="-4.787600">
        <ele>2057.0</ele>
        <time>2015-03-17T14:23:20Z</time>
      </trkpt>
      <trkpt lat="43.144650" lon="-4.787550">
        <ele>2059.0</ele>
        <time>2015-03-17T14:23:21Z</time>
      </trkpt>
      <trkpt lat="43.144633" lon="-4.787500">
        <ele>2061.0</ele>
        <time>2015-03-17T14:23:22Z</time>
      </trkpt>
      <trkpt lat="43.144600" lon="-4.787450">
        <ele>2062.0</ele>
        <time>2015-03-17T14:23:23Z</time>
      </trkpt>
      <trkpt lat="43.144567" lon="-4.787400">
        <ele>2062.0</ele>
        <time>2015-03-17T14:23:24Z</time>
      </trkpt>
      <trkpt lat="43.144533" lon="-4.787333">
        <ele>2061.0</ele>
        <time>2015-03-17T14:23:25Z</time>
      </trkpt>
      <trkpt lat="43.144483" lon="-4.787233">
        <ele>2062.0</ele>
        <time>2015-03-17T14:23:26Z</time>
      </trkpt>
      <trkpt lat="43.144450" lon="-4.787117">
        <ele>2065.0</ele>
        <time>2015-03-17T14:23:27Z</time>
      </trkpt>
      <trkpt lat="43.144450" lon="-4.787033">
        <ele>2068.0</ele>
        <time>2015-03-17T14:23:28Z</time>
      </trkpt>
      <trkpt lat="43.144433" lon="-4.786950">
        <ele>2071.0</ele>
        <time>2015-03-17T14:23:29Z</time>
      </trkpt>
      <trkpt lat="43.144433" lon="-4.786883">
        <ele>2073.0</ele>
        <time>2015-03-17T14:23:30Z</time>
      </trkpt>
      <trkpt lat="43.144417" lon="-4.786817">
        <ele>2073.0</ele>
        <time>2015-03-17T14:23:31Z</time>
      </trkpt>
      <trkpt lat="43.144417" lon="-4.786717">
        <ele>2074.0</ele>
        <time>2015-03-17T14:23:32Z</time>
      </trkpt>
      <trkpt lat="43.144417" lon="-4.786617">
        <ele>2075.0</ele>
        <time>2015-03-17T14:23:33Z</time>
      </trkpt>
      <trkpt lat="43.144450" lon="-4.786517">
        <ele>2077.0</ele>
        <time>2015-03-17T14:23:34Z</time>
      </trkpt>
      <trkpt lat="43.144500" lon="-4.786433">
        <ele>2078.0</ele>
        <time>2015-03-17T14:23:35Z</time>
      </trkpt>
      <trkpt lat="43.144550" lon="-4.786333">
        <ele>2079.0</ele>
        <time>2015-03-17T14:23:36Z</time>
      </trkpt>
      <trkpt lat="43.144600" lon="-4.786250">
        <ele>2080.0</ele>
        <time>2015-03-17T14:23:37Z</time>
      </trkpt>
      <trkpt lat="43.144667" lon="-4.786150">
        <ele>2077.0</ele>
        <time>2015-03-17T14:23:38Z</time>
      </trkpt>
      <trkpt lat="43.144750" lon="-4.786050">
        <ele>2076.0</ele>
        <time>2015-03-17T14:23:39Z</time>
      </trkpt>
      <trkpt lat="43.144850" lon="-4.785967">
        <ele>2075.0</ele>
        <time>2015-03-17T14:23:40Z</time>
      </trkpt>
      <trkpt lat="43.144967" lon="-4.785900">
        <ele>2074.0</ele>
        <time>2015-03-17T14:23:41Z</time>
      </trkpt>
      <trkpt lat="43.145083" lon="-4.785867">
        <ele>2074.0</ele>
        <time>2015-03-17T14:23:42Z</time>
      </trkpt>
      <trkpt lat="43.145200" lon="-4.785833">
        <ele>2075.0</ele>
        <time>2015-03-17T14:23:43Z</time>
      </trkpt>
      <trkpt lat="43.145300" lon="-4.785817">
        <ele>2078.0</ele>
        <time>2015-03-17T14:23:44Z</time>
      </trkpt>
      <trkpt lat="43.145400" lon="-4.785800">
        <ele>2079.0</ele>
        <time>2015-03-17T14:23:45Z</time>
      </trkpt>
      <trkpt lat="43.145483" lon="-4.785783">
        <ele>2080.0</ele>
        <time>2015-03-17T14:23:46Z</time>
      </trkpt>
      <trkpt lat="43.145600" lon="-4.785783">
        <ele>2080.0</ele>
        <time>2015-03-17T14:23:47Z</time>
      </trkpt>
      <trkpt lat="43.145717" lon="-4.785800">
        <ele>2081.0</ele>
        <time>2015-03-17T14:23:48Z</time>
      </trkpt>
      <trkpt lat="43.145817" lon="-4.785817">
        <ele>2082.0</ele>
        <time>2015-03-17T14:23:49Z</time>
      </trkpt>
      <trkpt lat="43.145900" lon="-4.785833">
        <ele>2083.0</ele>
        <time>2015-03-17T14:23:50Z</time>
      </trkpt>
      <trkpt lat="43.145983" lon="-4.785867">
        <ele>2083.0</ele>
        <time>2015-03-17T14:23:51Z</time>
      </trkpt>
      <trkpt lat="43.146067" lon="-4.785900">
        <ele>2083.0</ele>
        <time>2015-03-17T14:23:52Z</time>
      </trkpt>
      <trkpt lat="43.146133" lon="-4.785950">
        <ele>2083.0</ele>
        <time>2015-03-17T14:23:53Z</time>
      </trkpt>
      <trkpt lat="43.146200" lon="-4.786033">
        <ele>2084.0</ele>
        <time>2015-03-17T14:23:54Z</time>
      </trkpt>
      <trkpt lat="43.146233" lon="-4.786117">
        <ele>2085.0</ele>
        <time>2015-03-17T14:23:55Z</time>
      </trkpt>
      <trkpt lat="43.146267" lon="-4.786200">
        <ele>2089.0</ele>
        <time>2015-03-17T14:23:56Z</time>
      </trkpt>
      <trkpt lat="43.146317" lon="-4.786267">
        <ele>2090.0</ele>
        <time>2015-03-17T14:23:57Z</time>
      </trkpt>
      <trkpt lat="43.146367" lon="-4.786333">
        <ele>2092.0</ele>
        <time>2015-03-17T14:23:58Z</time>
      </trkpt>
      <trkpt lat="43.146417" lon="-4.786400">
        <ele>2093.0</ele>
        <time>2015-03-17T14:23:59Z</time>
      </trkpt>
      <trkpt lat="43.146467" lon="-4.786467">
        <ele>2094.0</ele>
        <time>2015-03-17T14:24:00Z</time>
      </trkpt>
      <trkpt lat="43.146500" lon="-4.786533">
        <ele>2096.0</ele>
        <time>2015-03-17T14:24:01Z</time>
      </trkpt>
      <trkpt lat="43.146517" lon="-4.786600">
        <ele>2097.0</ele>
        <time>2015-03-17T14:24:02Z</time>
      </trkpt>
      <trkpt lat="43.146533" lon="-4.786650">
        <ele>2097.0</ele>
        <time>2015-03-17T14:24:03Z</time>
      </trkpt>
      <trkpt lat="43.146550" lon="-4.786700">
        <ele>2098.0</ele>
        <time>2015-03-17T14:24:04Z</time>
      </trkpt>
      <trkpt lat="43.146550" lon="-4.786750">
        <ele>2098.0</ele>
        <time>2015-03-17T14:24:05Z</time>
      </trkpt>
      <trkpt lat="43.146567" lon="-4.786817">
        <ele>2098.0</ele>
        <time>2015-03-17T14:24:06Z</time>
      </trkpt>
      <trkpt lat="43.146567" lon="-4.786850">
        <ele>2098.0</ele>
        <time>2015-03-17T14:24:07Z</time>
      </trkpt>
      <trkpt lat="43.146567" lon="-4.786883">
        <ele>2097.0</ele>
        <time>2015-03-17T14:24:08Z</time>
      </trkpt>
      <trkpt lat="43.146533" lon="-4.786900">
        <ele>2096.0</ele>
        <time>2015-03-17T14:24:09Z</time>
      </trkpt>
      <trkpt lat="43.146500" lon="-4.786883">
        <ele>2095.0</ele>
        <time>2015-03-17T14:24:10Z</time>
      </trkpt>
      <trkpt lat="43.146450" lon="-4.786850">
        <ele>2094.0</ele>
        <time>2015-03-17T14:24:11Z</time>
      </trkpt>
      <trkpt lat="43.146400" lon="-4.786800">
        <ele>2092.0</ele>
        <time>2015-03-17T14:24:12Z</time>
      </trkpt>
      <trkpt lat="43.146350" lon="-4.786733">
        <ele>2091.0</ele>
        <time>2015-03-17T14:24:13Z</time>
      </trkpt>
      <trkpt lat="43.146283" lon="-4.786650">
        <ele>2090.0</ele>
        <time>2015-03-17T14:24:14Z</time>
      </trkpt>
      <trkpt lat="43.146217" lon="-4.786583">
        <ele>2090.0</ele>
        <time>2015-03-17T14:24:15Z</time>
      </trkpt>
      <trkpt lat="43.146150" lon="-4.786533">
        <ele>2089.0</ele>
        <time>2015-03-17T14:24:16Z</time>
      </trkpt>
      <trkpt lat="43.146067" lon="-4.786467">
        <ele>2090.0</ele>
        <time>2015-03-17T14:24:17Z</time>
      </trkpt>
      <trkpt lat="43.146000" lon="-4.786383">
        <ele>2092.0</ele>
        <time>2015-03-17T14:24:18Z</time>
      </trkpt>
      <trkpt lat="43.145933" lon="-4.786300">
        <ele>2094.0</ele>
        <time>2015-03-17T14:24:19Z</time>
      </trkpt>
      <trkpt lat="43.145867" lon="-4.786233">
        <ele>2098.0</ele>
        <time>2015-03-17T14:24:20Z</time>
      </trkpt>
      <trkpt lat="43.145817" lon="-4.786150">
        <ele>2101.0</ele>
        <time>2015-03-17T14:24:21Z</time>
      </trkpt>
      <trkpt lat="43.145767" lon="-4.786083">
        <ele>2105.0</ele>
        <time>2015-03-17T14:24:22Z</time>
      </trkpt>
      <trkpt lat="43.145733" lon="-4.786033">
        <ele>2108.0</ele>
        <time>2015-03-17T14:24:23Z</time>
      </trkpt>
      <trkpt lat="43.145700" lon="-4.785983">
        <ele>2110.0</ele>
        <time>2015-03-17T14:24:24Z</time>
      </trkpt>
      <trkpt lat="43.145667" lon="-4.785950">
        <ele>2111.0</ele>
        <time>2015-03-17T14:24:25Z</time>
      </trkpt>
      <trkpt lat="43.145617" lon="-4.785883">
        <ele>2111.0</ele>
        <time>2015-03-17T14:24:26Z</time>
      </trkpt>
      <trkpt lat="43.145567" lon="-4.785800">
        <ele>2112.0</ele>
        <time>2015-03-17T14:24:27Z</time>
      </trkpt>
      <trkpt lat="43.145517" lon="-4.785717">
        <ele>2113.0</ele>
        <time>2015-03-17T14:24:28Z</time>
      </trkpt>
      <trkpt lat="43.145467" lon="-4.785650">
        <ele>2114.0</ele>
        <time>2015-03-17T14:24:29Z</time>
      </trkpt>
      <trkpt lat="43.145400" lon="-4.785583">
        <ele>2113.0</ele>
        <time>2015-03-17T14:24:30Z</time>
      </trkpt>
      <trkpt lat="43.145350" lon="-4.785500">
        <ele>2113.0</ele>
        <time>2015-03-17T14:24:31Z</time>
      </trkpt>
      <trkpt lat="43.145300" lon="-4.785383">
        <ele>2112.0</ele>
        <time>2015-03-17T14:24:32Z</time>
      </trkpt>
      <trkpt lat="43.145250" lon="-4.785267">
        <ele>2112.0</ele>
        <time>2015-03-17T14:24:33Z</time>
      </trkpt>
      <trkpt lat="43.145200" lon="-4.785150">
        <ele>2111.0</ele>
        <time>2015-03-17T14:24:34Z</time>
      </trkpt>
      <trkpt lat="43.145150" lon="-4.785050">
        <ele>2110.0</ele>
        <time>2015-03-17T14:24:35Z</time>
      </trkpt>
      <trkpt lat="43.145100" lon="-4.784967">
        <ele>2108.0</ele>
        <time>2015-03-17T14:24:36Z</time>
      </trkpt>
      <trkpt lat="43.145033" lon="-4.784917">
        <ele>2107.0</ele>
        <time>2015-03-17T14:24:37Z</time>
      </trkpt>
      <trkpt lat="43.144983" lon="-4.784850">
        <ele>2106.0</ele>
        <time>2015-03-17T14:24:38Z</time>
      </trkpt>
      <trkpt lat="43.144933" lon="-4.784767">
        <ele>2105.0</ele>
        <time>2015-03-17T14:24:39Z</time>
      </trkpt>
      <trkpt lat="43.144883" lon="-4.784667">
        <ele>2103.0</ele>
        <time>2015-03-17T14:24:40Z</time>
      </trkpt>
      <trkpt lat="43.144850" lon="-4.784550">
        <ele>2100.0</ele>
        <time>2015-03-17T14:24:41Z</time>
      </trkpt>
      <trkpt lat="43.144817" lon="-4.784417">
        <ele>2098.0</ele>
        <time>2015-03-17T14:24:42Z</time>
      </trkpt>
      <trkpt lat="43.144767" lon="-4.784300">
        <ele>2096.0</ele>
        <time>2015-03-17T14:24:43Z</time>
      </trkpt>
      <trkpt lat="43.144733" lon="-4.784167">
        <ele>2095.0</ele>
        <time>2015-03-17T14:24:44Z</time>
      </trkpt>
      <trkpt lat="43.144683" lon="-4.784033">
        <ele>2094.0</ele>
        <time>2015-03-17T14:24:45Z</time>
      </trkpt>
      <trkpt lat="43.144633" lon="-4.783933">
        <ele>2094.0</ele>
        <time>2015-03-17T14:24:46Z</time>
      </trkpt>
      <trkpt lat="43.144583" lon="-4.783850">
        <ele>2092.0</ele>
        <time>2015-03-17T14:24:47Z</time>
      </trkpt>
      <trkpt lat="43.144550" lon="-4.783783">
        <ele>2089.0</ele>
        <time>2015-03-17T14:24:48Z</time>
      </trkpt>
      <trkpt lat="43.144517" lon="-4.783683">
        <ele>2087.0</ele>
        <time>2015-03-17T14:24:49Z</time>
      </trkpt>
      <trkpt lat="43.144483" lon="-4.783567">
        <ele>2084.0</ele>
        <time>2015-03-17T14:24:50Z</time>
      </trkpt>
      <trkpt lat="43.144450" lon="-4.783433">
        <ele>2082.0</ele>
        <time>2015-03-17T14:24:51Z</time>
      </trkpt>
      <trkpt lat="43.144417" lon="-4.783317">
        <ele>2081.0</ele>
        <time>2015-03-17T14:24:52Z</time>
      </trkpt>
      <trkpt lat="43.144383" lon="-4.783200">
        <ele>2080.0</ele>
        <time>2015-03-17T14:24:53Z</time>
      </trkpt>
      <trkpt lat="43.144367" lon="-4.783083">
        <ele>2079.0</ele>
        <time>2015-03-17T14:24:54Z</time>
      </trkpt>
      <trkpt lat="43.144333" lon="-4.782983">
        <ele>2077.0</ele>
        <time>2015-03-17T14:24:55Z</time>
      </trkpt>
      <trkpt lat="43.144317" lon="-4.782867">
        <ele>2076.0</ele>
        <time>2015-03-17T14:24:56Z</time>
      </trkpt>
      <trkpt lat="43.144317" lon="-4.782750">
        <ele>2075.0</ele>
        <time>2015-03-17T14:24:57Z</time>
      </trkpt>
      <trkpt lat="43.144300" lon="-4.782633">
        <ele>2073.0</ele>
        <time>2015-03-17T14:24:58Z</time>
      </trkpt>
      <trkpt lat="43.144300" lon="-4.782517">
        <ele>2071.0</ele>
        <time>2015-03-17T14:24:59Z</time>
      </trkpt>
      <trkpt lat="43.144300" lon="-4.782383">
        <ele>2069.0</ele>
        <time>2015-03-17T14:25:00Z</time>
      </trkpt>
      <trkpt lat="43.144283" lon="-4.782250">
        <ele>2066.0</ele>
        <time>2015-03-17T14:25:01Z</time>
      </trkpt>
      <trkpt lat="43.144250" lon="-4.782133">
        <ele>2064.0</ele>
        <time>2015-03-17T14:25:02Z</time>
      </trkpt>
      <trkpt lat="43.144233" lon="-4.782017">
        <ele>2063.0</ele>
        <time>2015-03-17T14:25:03Z</time>
      </trkpt>
      <trkpt lat="43.144217" lon="-4.781900">
        <ele>2061.0</ele>
        <time>2015-03-17T14:25:04Z</time>
      </trkpt>
      <trkpt lat="43.144200" lon="-4.781783">
        <ele>2060.0</ele>
        <time>2015-03-17T14:25:05Z</time>
      </trkpt>
      <trkpt lat="43.144183" lon="-4.781667">
        <ele>2058.0</ele>
        <time>2015-03-17T14:25:06Z</time>
      </trkpt>
      <trkpt lat="43.144167" lon="-4.781550">
        <ele>2056.0</ele>
        <time>2015-03-17T14:25:07Z</time>
      </trkpt>
      <trkpt lat="43.144150" lon="-4.781433">
        <ele>2054.0</ele>
        <time>2015-03-17T14:25:08Z</time>
      </trkpt>
      <trkpt lat="43.144133" lon="-4.781300">
        <ele>2052.0</ele>
        <time>2015-03-17T14:25:09Z</time>
      </trkpt>
      <trkpt lat="43.144133" lon="-4.781167">
        <ele>2051.0</ele>
        <time>2015-03-17T14:25:10Z</time>
      </trkpt>
      <trkpt lat="43.144117" lon="-4.781050">
        <ele>2049.0</ele>
        <time>2015-03-17T14:25:11Z</time>
      </trkpt>
      <trkpt lat="43.144117" lon="-4.780917">
        <ele>2047.0</ele>
        <time>2015-03-17T14:25:12Z</time>
      </trkpt>
      <trkpt lat="43.144117" lon="-4.780783">
        <ele>2046.0</ele>
        <time>2015-03-17T14:25:13Z</time>
      </trkpt>
      <trkpt lat="43.144133" lon="-4.780633">
        <ele>2044.0</ele>
        <time>2015-03-17T14:25:14Z</time>
      </trkpt>
      <trkpt lat="43.144133" lon="-4.780500">
        <ele>2043.0</ele>
        <time>2015-03-17T14:25:15Z</time>
      </trkpt>
      <trkpt lat="43.144117" lon="-4.780367">
        <ele>2042.0</ele>
        <time>2015-03-17T14:25:16Z</time>
      </trkpt>
      <trkpt lat="43.144117" lon="-4.780250">
        <ele>2040.0</ele>
        <time>2015-03-17T14:25:17Z</time>
      </trkpt>
      <trkpt lat="43.144100" lon="-4.780117">
        <ele>2039.0</ele>
        <time>2015-03-17T14:25:18Z</time>
      </trkpt>
      <trkpt lat="43.144083" lon="-4.779983">
        <ele>2038.0</ele>
        <time>2015-03-17T14:25:19Z</time>
      </trkpt>
      <trkpt lat="43.144083" lon="-4.779850">
        <ele>2037.0</ele>
        <time>2015-03-17T14:25:20Z</time>
      </trkpt>
      <trkpt lat="43.144083" lon="-4.779717">
        <ele>2035.0</ele>
        <time>2015-03-17T14:25:21Z</time>
      </trkpt>
      <trkpt lat="43.144100" lon="-4.779583">
        <ele>2034.0</ele>
        <time>2015-03-17T14:25:22Z</time>
      </trkpt>
      <trkpt lat="43.144100" lon="-4.779450">
        <ele>2033.0</ele>
        <time>2015-03-17T14:25:23Z</time>
      </trkpt>
      <trkpt lat="43.144117" lon="-4.779317">
        <ele>2031.0</ele>
        <time>2015-03-17T14:25:24Z</time>
      </trkpt>
      <trkpt lat="43.144133" lon="-4.779167">
        <ele>2030.0</ele>
        <time>2015-03-17T14:25:25Z</time>
      </trkpt>
      <trkpt lat="43.144150" lon="-4.779033">
        <ele>2028.0</ele>
        <time>2015-03-17T14:25:26Z</time>
      </trkpt>
      <trkpt lat="43.144167" lon="-4.778883">
        <ele>2027.0</ele>
        <time>2015-03-17T14:25:27Z</time>
      </trkpt>
      <trkpt lat="43.144200" lon="-4.778733">
        <ele>2026.0</ele>
        <time>2015-03-17T14:25:28Z</time>
      </trkpt>
      <trkpt lat="43.144217" lon="-4.778600">
        <ele>2024.0</ele>
        <time>2015-03-17T14:25:29Z</time>
      </trkpt>
      <trkpt lat="43.144250" lon="-4.778467">
        <ele>2023.0</ele>
        <time>2015-03-17T14:25:30Z</time>
      </trkpt>
      <trkpt lat="43.144267" lon="-4.778317">
        <ele>2022.0</ele>
        <time>2015-03-17T14:25:31Z</time>
      </trkpt>
      <trkpt lat="43.144300" lon="-4.778183">
        <ele>2021.0</ele>
        <time>2015-03-17T14:25:32Z</time>
      </trkpt>
      <trkpt lat="43.144333" lon="-4.778050">
        <ele>2020.0</ele>
        <time>2015-03-17T14:25:33Z</time>
      </trkpt>
      <trkpt lat="43.144367" lon="-4.777900">
        <ele>2019.0</ele>
        <time>2015-03-17T14:25:34Z</time>
      </trkpt>
      <trkpt lat="43.144383" lon="-4.777767">
        <ele>2018.0</ele>
        <time>2015-03-17T14:25:35Z</time>
      </trkpt>
      <trkpt lat="43.144400" lon="-4.777617">
        <ele>2017.0</ele>
        <time>2015-03-17T14:25:36Z</time>
      </trkpt>
      <trkpt lat="43.144433" lon="-4.777483">
        <ele>2017.0</ele>
        <time>2015-03-17T14:25:37Z</time>
      </trkpt>
      <trkpt lat="43.144433" lon="-4.777333">
        <ele>2017.0</ele>
        <time>2015-03-17T14:25:38Z</time>
      </trkpt>
      <trkpt lat="43.144450" lon="-4.777217">
        <ele>2017.0</ele>
        <time>2015-03-17T14:25:39Z</time>
      </trkpt>
      <trkpt lat="43.144483" lon="-4.777100">
        <ele>2016.0</ele>
        <time>2015-03-17T14:25:40Z</time>
      </trkpt>
      <trkpt lat="43.144517" lon="-4.776967">
        <ele>2014.0</ele>
        <time>2015-03-17T14:25:41Z</time>
      </trkpt>
      <trkpt lat="43.144533" lon="-4.776817">
        <ele>2014.0</ele>
        <time>2015-03-17T14:25:42Z</time>
      </trkpt>
      <trkpt lat="43.144533" lon="-4.776650">
        <ele>2013.0</ele>
        <time>2015-03-17T14:25:43Z</time>
      </trkpt>
      <trkpt lat="43.144517" lon="-4.776517">
        <ele>2013.0</ele>
        <time>2015-03-17T14:25:44Z</time>
      </trkpt>
      <trkpt lat="43.144500" lon="-4.776383">
        <ele>2013.0</ele>
        <time>2015-03-17T14:25:45Z</time>
      </trkpt>
      <trkpt lat="43.144483" lon="-4.776267">
        <ele>2013.0</ele>
        <time>2015-03-17T14:25:46Z</time>
      </trkpt>
      <trkpt lat="43.144483" lon="-4.776133">
        <ele>2013.0</ele>
        <time>2015-03-17T14:25:47Z</time>
      </trkpt>
      <trkpt lat="43.144483" lon="-4.776000">
        <ele>2012.0</ele>
        <time>2015-03-17T14:25:48Z</time>
      </trkpt>
      <trkpt lat="43.144483" lon="-4.775850">
        <ele>2011.0</ele>
        <time>2015-03-17T14:25:49Z</time>
      </trkpt>
      <trkpt lat="43.144483" lon="-4.775717">
        <ele>2011.0</ele>
        <time>2015-03-17T14:25:50Z</time>
      </trkpt>
      <trkpt lat="43.144500" lon="-4.775583">
        <ele>2011.0</ele>
        <time>2015-03-17T14:25:51Z</time>
      </trkpt>
      <trkpt lat="43.144517" lon="-4.775467">
        <ele>2011.0</ele>
        <time>2015-03-17T14:25:52Z</time>
      </trkpt>
      <trkpt lat="43.144533" lon="-4.775333">
        <ele>2011.0</ele>
        <time>2015-03-17T14:25:53Z</time>
      </trkpt>
      <trkpt lat="43.144533" lon="-4.775200">
        <ele>2010.0</ele>
        <time>2015-03-17T14:25:54Z</time>
      </trkpt>
      <trkpt lat="43.144550" lon="-4.775050">
        <ele>2009.0</ele>
        <time>2015-03-17T14:25:55Z</time>
      </trkpt>
      <trkpt lat="43.144567" lon="-4.774900">
        <ele>2009.0</ele>
        <time>2015-03-17T14:25:56Z</time>
      </trkpt>
      <trkpt lat="43.144567" lon="-4.774767">
        <ele>2010.0</ele>
        <time>2015-03-17T14:25:57Z</time>
      </trkpt>
      <trkpt lat="43.144567" lon="-4.774633">
        <ele>2010.0</ele>
        <time>2015-03-17T14:25:58Z</time>
      </trkpt>
      <trkpt lat="43.144583" lon="-4.774517">
        <ele>2010.0</ele>
        <time>2015-03-17T14:25:59Z</time>
      </trkpt>
      <trkpt lat="43.144583" lon="-4.774383">
        <ele>2010.0</ele>
        <time>2015-03-17T14:26:00Z</time>
      </trkpt>
      <trkpt lat="43.144583" lon="-4.774250">
        <ele>2009.0</ele>
        <time>2015-03-17T14:26:01Z</time>
      </trkpt>
      <trkpt lat="43.144600" lon="-4.774117">
        <ele>2009.0</ele>
        <time>2015-03-17T14:26:02Z</time>
      </trkpt>
      <trkpt lat="43.144600" lon="-4.773983">
        <ele>2008.0</ele>
        <time>2015-03-17T14:26:03Z</time>
      </trkpt>
      <trkpt lat="43.144600" lon="-4.773867">
        <ele>2008.0</ele>
        <time>2015-03-17T14:26:04Z</time>
      </trkpt>
      <trkpt lat="43.144617" lon="-4.773750">
        <ele>2008.0</ele>
        <time>2015-03-17T14:26:05Z</time>
      </trkpt>
      <trkpt lat="43.144633" lon="-4.773633">
        <ele>2008.0</ele>
        <time>2015-03-17T14:26:06Z</time>
      </trkpt>
      <trkpt lat="43.144633" lon="-4.773517">
        <ele>2008.0</ele>
        <time>2015-03-17T14:26:07Z</time>
      </trkpt>
      <trkpt lat="43.144650" lon="-4.773417">
        <ele>2008.0</ele>
        <time>2015-03-17T14:26:08Z</time>
      </trkpt>
      <trkpt lat="43.144650" lon="-4.773300">
        <ele>2008.0</ele>
        <time>2015-03-17T14:26:09Z</time>
      </trkpt>
      <trkpt lat="43.144650" lon="-4.773167">
        <ele>2008.0</ele>
        <time>2015-03-17T14:26:10Z</time>
      </trkpt>
      <trkpt lat="43.144650" lon="-4.773050">
        <ele>2008.0</ele>
        <time>2015-03-17T14:26:11Z</time>
      </trkpt>
      <trkpt lat="43.144633" lon="-4.772933">
        <ele>2008.0</ele>
        <time>2015-03-17T14:26:12Z</time>
      </trkpt>
      <trkpt lat="43.144650" lon="-4.772817">
        <ele>2008.0</ele>
        <time>2015-03-17T14:26:13Z</time>
      </trkpt>
      <trkpt lat="43.144650" lon="-4.772717">
        <ele>2009.0</ele>
        <time>2015-03-17T14:26:14Z</time>
      </trkpt>
      <trkpt lat="43.144667" lon="-4.772633">
        <ele>2010.0</ele>
        <time>2015-03-17T14:26:15Z</time>
      </trkpt>
      <trkpt lat="43.144683" lon="-4.772583">
        <ele>2010.0</ele>
        <time>2015-03-17T14:26:16Z</time>
      </trkpt>
      <trkpt lat="43.144683" lon="-4.772517">
        <ele>2011.0</ele>
        <time>2015-03-17T14:26:17Z</time>
      </trkpt>
      <trkpt lat="43.144683" lon="-4.772450">
        <ele>2012.0</ele>
        <time>2015-03-17T14:26:18Z</time>
      </trkpt>
      <trkpt lat="43.144700" lon="-4.772333">
        <ele>2012.0</ele>
        <time>2015-03-17T14:26:19Z</time>
      </trkpt>
      <trkpt lat="43.144717" lon="-4.772217">
        <ele>2013.0</ele>
        <time>2015-03-17T14:26:20Z</time>
      </trkpt>
      <trkpt lat="43.144733" lon="-4.772117">
        <ele>2016.0</ele>
        <time>2015-03-17T14:26:21Z</time>
      </trkpt>
      <trkpt lat="43.144767" lon="-4.772033">
        <ele>2015.0</ele>
        <time>2015-03-17T14:26:22Z</time>
      </trkpt>
      <trkpt lat="43.144767" lon="-4.771967">
        <ele>2017.0</ele>
        <time>2015-03-17T14:26:23Z</time>
      </trkpt>
      <trkpt lat="43.144767" lon="-4.771900">
        <ele>2022.0</ele>
        <time>2015-03-17T14:26:24Z</time>
      </trkpt>
      <trkpt lat="43.144767" lon="-4.771850">
        <ele>2025.0</ele>
        <time>2015-03-17T14:26:25Z</time>
      </trkpt>
      <trkpt lat="43.144767" lon="-4.771783">
        <ele>2028.0</ele>
        <time>2015-03-17T14:26:26Z</time>
      </trkpt>
      <trkpt lat="43.144800" lon="-4.771750">
        <ele>2027.0</ele>
        <time>2015-03-17T14:26:27Z</time>
      </trkpt>
      <trkpt lat="43.144817" lon="-4.771683">
        <ele>2030.0</ele>
        <time>2015-03-17T14:26:28Z</time>
      </trkpt>
      <trkpt lat="43.144817" lon="-4.771600">
        <ele>2035.0</ele>
        <time>2015-03-17T14:26:29Z</time>
      </trkpt>
      <trkpt lat="43.144817" lon="-4.771533">
        <ele>2041.0</ele>
        <time>2015-03-17T14:26:30Z</time>
      </trkpt>
      <trkpt lat="43.144817" lon="-4.771467">
        <ele>2046.0</ele>
        <time>2015-03-17T14:26:31Z</time>
      </trkpt>
      <trkpt lat="43.144817" lon="-4.771400">
        <ele>2052.0</ele>
        <time>2015-03-17T14:26:32Z</time>
      </trkpt>
      <trkpt lat="43.144817" lon="-4.771350">
        <ele>2056.0</ele>
        <time>2015-03-17T14:26:33Z</time>
      </trkpt>
      <trkpt lat="43.144800" lon="-4.771300">
        <ele>2060.0</ele>
        <time>2015-03-17T14:26:34Z</time>
      </trkpt>
      <trkpt lat="43.144783" lon="-4.771233">
        <ele>2063.0</ele>
        <time>2015-03-17T14:26:35Z</time>
      </trkpt>
      <trkpt lat="43.144783" lon="-4.771150">
        <ele>2067.0</ele>
        <time>2015-03-17T14:26:36Z</time>
      </trkpt>
      <trkpt lat="43.144800" lon="-4.771100">
        <ele>2071.0</ele>
        <time>2015-03-17T14:26:37Z</time>
      </trkpt>
      <trkpt lat="43.144817" lon="-4.771050">
        <ele>2075.0</ele>
        <time>2015-03-17T14:26:38Z</time>
      </trkpt>
      <trkpt lat="43.144833" lon="-4.771017">
        <ele>2079.0</ele>
        <time>2015-03-17T14:26:39Z</time>
      </trkpt>
      <trkpt lat="43.144833" lon="-4.770967">
        <ele>2080.0</ele>
        <time>2015-03-17T14:26:40Z</time>
      </trkpt>
      <trkpt lat="43.144850" lon="-4.770900">
        <ele>2082.0</ele>
        <time>2015-03-17T14:26:41Z</time>
      </trkpt>
      <trkpt lat="43.144883" lon="-4.770850">
        <ele>2084.0</ele>
        <time>2015-03-17T14:26:42Z</time>
      </trkpt>
      <trkpt lat="43.144933" lon="-4.770800">
        <ele>2085.0</ele>
        <time>2015-03-17T14:26:43Z</time>
      </trkpt>
      <trkpt lat="43.145000" lon="-4.770783">
        <ele>2086.0</ele>
        <time>2015-03-17T14:26:44Z</time>
      </trkpt>
      <trkpt lat="43.145083" lon="-4.770817">
        <ele>2089.0</ele>
        <time>2015-03-17T14:26:45Z</time>
      </trkpt>
      <trkpt lat="43.145167" lon="-4.770867">
        <ele>2093.0</ele>
        <time>2015-03-17T14:26:46Z</time>
      </trkpt>
      <trkpt lat="43.145233" lon="-4.770933">
        <ele>2097.0</ele>
        <time>2015-03-17T14:26:47Z</time>
      </trkpt>
      <trkpt lat="43.145283" lon="-4.770983">
        <ele>2099.0</ele>
        <time>2015-03-17T14:26:48Z</time>
      </trkpt>
      <trkpt lat="43.145317" lon="-4.771050">
        <ele>2101.0</ele>
        <time>2015-03-17T14:26:49Z</time>
      </trkpt>
      <trkpt lat="43.145367" lon="-4.771133">
        <ele>2101.0</ele>
        <time>2015-03-17T14:26:50Z</time>
      </trkpt>
      <trkpt lat="43.145417" lon="-4.771217">
        <ele>2100.0</ele>
        <time>2015-03-17T14:26:51Z</time>
      </trkpt>
      <trkpt lat="43.145467" lon="-4.771333">
        <ele>2100.0</ele>
        <time>2015-03-17T14:26:52Z</time>
      </trkpt>
      <trkpt lat="43.145483" lon="-4.771450">
        <ele>2100.0</ele>
        <time>2015-03-17T14:26:53Z</time>
      </trkpt>
      <trkpt lat="43.145467" lon="-4.771583">
        <ele>2101.0</ele>
        <time>2015-03-17T14:26:54Z</time>
      </trkpt>
      <trkpt lat="43.145417" lon="-4.771700">
        <ele>2101.0</ele>
        <time>2015-03-17T14:26:55Z</time>
      </trkpt>
      <trkpt lat="43.145367" lon="-4.771783">
        <ele>2106.0</ele>
        <time>2015-03-17T14:26:56Z</time>
      </trkpt>
      <trkpt lat="43.145317" lon="-4.771850">
        <ele>2111.0</ele>
        <time>2015-03-17T14:26:57Z</time>
      </trkpt>
      <trkpt lat="43.145283" lon="-4.771900">
        <ele>2116.0</ele>
        <time>2015-03-17T14:26:58Z</time>
      </trkpt>
      <trkpt lat="43.145250" lon="-4.771933">
        <ele>2119.0</ele>
        <time>2015-03-17T14:26:59Z</time>
      </trkpt>
      <trkpt lat="43.145200" lon="-4.771950">
        <ele>2121.0</ele>
        <time>2015-03-17T14:27:00Z</time>
      </trkpt>
      <trkpt lat="43.145133" lon="-4.771983">
        <ele>2123.0</ele>
        <time>2015-03-17T14:27:01Z</time>
      </trkpt>
      <trkpt lat="43.145067" lon="-4.771983">
        <ele>2125.0</ele>
        <time>2015-03-17T14:27:02Z</time>
      </trkpt>
      <trkpt lat="43.145017" lon="-4.771967">
        <ele>2128.0</ele>
        <time>2015-03-17T14:27:03Z</time>
      </trkpt>
      <trkpt lat="43.144983" lon="-4.771933">
        <ele>2130.0</ele>
        <time>2015-03-17T14:27:04Z</time>
      </trkpt>
      <trkpt lat="43.144950" lon="-4.771883">
        <ele>2133.0</ele>
        <time>2015-03-17T14:27:05Z</time>
      </trkpt>
      <trkpt lat="43.144933" lon="-4.771833">
        <ele>2136.0</ele>
        <time>2015-03-17T14:27:06Z</time>
      </trkpt>
      <trkpt lat="43.144933" lon="-4.771783">
        <ele>2139.0</ele>
        <time>2015-03-17T14:27:07Z</time>
      </trkpt>
      <trkpt lat="43.144917" lon="-4.771733">
        <ele>2141.0</ele>
        <time>2015-03-17T14:27:08Z</time>
      </trkpt>
      <trkpt lat="43.144917" lon="-4.771683">
        <ele>2142.0</ele>
        <time>2015-03-17T14:27:09Z</time>
      </trkpt>
      <trkpt lat="43.144883" lon="-4.771633">
        <ele>2144.0</ele>
        <time>2015-03-17T14:27:10Z</time>
      </trkpt>
      <trkpt lat="43.144867" lon="-4.771583">
        <ele>2147.0</ele>
        <time>2015-03-17T14:27:11Z</time>
      </trkpt>
      <trkpt lat="43.144850" lon="-4.771533">
        <ele>2150.0</ele>
        <time>2015-03-17T14:27:12Z</time>
      </trkpt>
      <trkpt lat="43.144833" lon="-4.771483">
        <ele>2154.0</ele>
        <time>2015-03-17T14:27:13Z</time>
      </trkpt>
      <trkpt lat="43.144817" lon="-4.771433">
        <ele>2157.0</ele>
        <time>2015-03-17T14:27:14Z</time>
      </trkpt>
      <trkpt lat="43.144800" lon="-4.771350">
        <ele>2161.0</ele>
        <time>2015-03-17T14:27:15Z</time>
      </trkpt>
      <trkpt lat="43.144767" lon="-4.771283">
        <ele>2164.0</ele>
        <time>2015-03-17T14:27:16Z</time>
      </trkpt>
      <trkpt lat="43.144733" lon="-4.771217">
        <ele>2168.0</ele>
        <time>2015-03-17T14:27:17Z</time>
      </trkpt>
      <trkpt lat="43.144700" lon="-4.771150">
        <ele>2172.0</ele>
        <time>2015-03-17T14:27:18Z</time>
      </trkpt>
      <trkpt lat="43.144667" lon="-4.771100">
        <ele>2176.0</ele>
        <time>2015-03-17T14:27:19Z</time>
      </trkpt>
      <trkpt lat="43.144617" lon="-4.771033">
        <ele>2180.0</ele>
        <time>2015-03-17T14:27:20Z</time>
      </trkpt>
      <trkpt lat="43.144600" lon="-4.770967">
        <ele>2183.0</ele>
        <time>2015-03-17T14:27:21Z</time>
      </trkpt>
      <trkpt lat="43.144583" lon="-4.770900">
        <ele>2186.0</ele>
        <time>2015-03-17T14:27:22Z</time>
      </trkpt>
      <trkpt lat="43.144567" lon="-4.770850">
        <ele>2187.0</ele>
        <time>2015-03-17T14:27:23Z</time>
      </trkpt>
      <trkpt lat="43.144550" lon="-4.770800">
        <ele>2190.0</ele>
        <time>2015-03-17T14:27:24Z</time>
      </trkpt>
      <trkpt lat="43.144517" lon="-4.770733">
        <ele>2192.0</ele>
        <time>2015-03-17T14:27:25Z</time>
      </trkpt>
      <trkpt lat="43.144467" lon="-4.770667">
        <ele>2195.0</ele>
        <time>2015-03-17T14:27:26Z</time>
      </trkpt>
      <trkpt lat="43.144433" lon="-4.770617">
        <ele>2199.0</ele>
        <time>2015-03-17T14:27:27Z</time>
      </trkpt>
      <trkpt lat="43.144383" lon="-4.770567">
        <ele>2202.0</ele>
        <time>2015-03-17T14:27:28Z</time>
      </trkpt>
      <trkpt lat="43.144350" lon="-4.770517">
        <ele>2203.0</ele>
        <time>2015-03-17T14:27:29Z</time>
      </trkpt>
      <trkpt lat="43.144317" lon="-4.770467">
        <ele>2204.0</ele>
        <time>2015-03-17T14:27:30Z</time>
      </trkpt>
      <trkpt lat="43.144283" lon="-4.770417">
        <ele>2204.0</ele>
        <time>2015-03-17T14:27:31Z</time>
      </trkpt>
      <trkpt lat="43.144233" lon="-4.770350">
        <ele>2204.0</ele>
        <time>2015-03-17T14:27:32Z</time>
      </trkpt>
      <trkpt lat="43.144200" lon="-4.770283">
        <ele>2205.0</ele>
        <time>2015-03-17T14:27:33Z</time>
      </trkpt>
      <trkpt lat="43.144183" lon="-4.770200">
        <ele>2206.0</ele>
        <time>2015-03-17T14:27:34Z</time>
      </trkpt>
      <trkpt lat="43.144183" lon="-4.770117">
        <ele>2207.0</ele>
        <time>2015-03-17T14:27:35Z</time>
      </trkpt>
      <trkpt lat="43.144200" lon="-4.770033">
        <ele>2207.0</ele>
        <time>2015-03-17T14:27:36Z</time>
      </trkpt>
      <trkpt lat="43.144233" lon="-4.769950">
        <ele>2208.0</ele>
        <time>2015-03-17T14:27:37Z</time>
      </trkpt>
      <trkpt lat="43.144267" lon="-4.769867">
        <ele>2209.0</ele>
        <time>2015-03-17T14:27:38Z</time>
      </trkpt>
      <trkpt lat="43.144333" lon="-4.769767">
        <ele>2213.0</ele>
        <time>2015-03-17T14:27:39Z</time>
      </trkpt>
      <trkpt lat="43.144383" lon="-4.769700">
        <ele>2217.0</ele>
        <time>2015-03-17T14:27:40Z</time>
      </trkpt>
      <trkpt lat="43.144433" lon="-4.769650">
        <ele>2221.0</ele>
        <time>2015-03-17T14:27:41Z</time>
      </trkpt>
      <trkpt lat="43.144483" lon="-4.769617">
        <ele>2223.0</ele>
        <time>2015-03-17T14:27:42Z</time>
      </trkpt>
      <trkpt lat="43.144533" lon="-4.769583">
        <ele>2225.0</ele>
        <time>2015-03-17T14:27:43Z</time>
      </trkpt>
      <trkpt lat="43.144583" lon="-4.769550">
        <ele>2226.0</ele>
        <time>2015-03-17T14:27:44Z</time>
      </trkpt>
      <trkpt lat="43.144633" lon="-4.769483">
        <ele>2227.0</ele>
        <time>2015-03-17T14:27:45Z</time>
      </trkpt>
      <trkpt lat="43.144683" lon="-4.769433">
        <ele>2228.0</ele>
        <time>2015-03-17T14:27:46Z</time>
      </trkpt>
      <trkpt lat="43.144717" lon="-4.769367">
        <ele>2230.0</ele>
        <time>2015-03-17T14:27:47Z</time>
      </trkpt>
      <trkpt lat="43.144767" lon="-4.769300">
        <ele>2233.0</ele>
        <time>2015-03-17T14:27:48Z</time>
      </trkpt>
      <trkpt lat="43.144800" lon="-4.769250">
        <ele>2235.0</ele>
        <time>2015-03-17T14:27:49Z</time>
      </trkpt>
      <trkpt lat="43.144850" lon="-4.769200">
        <ele>2237.0</ele>
        <time>2015-03-17T14:27:50Z</time>
      </trkpt>
      <trkpt lat="43.144900" lon="-4.769150">
        <ele>2239.0</ele>
        <time>2015-03-17T14:27:51Z</time>
      </trkpt>
      <trkpt lat="43.144967" lon="-4.769083">
        <ele>2240.0</ele>
        <time>2015-03-17T14:27:52Z</time>
      </trkpt>
      <trkpt lat="43.145033" lon="-4.769033">
        <ele>2243.0</ele>
        <time>2015-03-17T14:27:53Z</time>
      </trkpt>
      <trkpt lat="43.145083" lon="-4.768967">
        <ele>2246.0</ele>
        <time>2015-03-17T14:27:54Z</time>
      </trkpt>
      <trkpt lat="43.145150" lon="-4.768917">
        <ele>2249.0</ele>
        <time>2015-03-17T14:27:55Z</time>
      </trkpt>
      <trkpt lat="43.145200" lon="-4.768867">
        <ele>2252.0</ele>
        <time>2015-03-17T14:27:56Z</time>
      </trkpt>
      <trkpt lat="43.145267" lon="-4.768833">
        <ele>2255.0</ele>
        <time>2015-03-17T14:27:57Z</time>
      </trkpt>
      <trkpt lat="43.145333" lon="-4.768767">
        <ele>2258.0</ele>
        <time>2015-03-17T14:27:58Z</time>
      </trkpt>
      <trkpt lat="43.145383" lon="-4.768717">
        <ele>2261.0</ele>
        <time>2015-03-17T14:27:59Z</time>
      </trkpt>
      <trkpt lat="43.145450" lon="-4.768667">
        <ele>2265.0</ele>
        <time>2015-03-17T14:28:00Z</time>
      </trkpt>
      <trkpt lat="43.145500" lon="-4.768633">
        <ele>2266.0</ele>
        <time>2015-03-17T14:28:01Z</time>
      </trkpt>
      <trkpt lat="43.145550" lon="-4.768583">
        <ele>2269.0</ele>
        <time>2015-03-17T14:28:02Z</time>
      </trkpt>
      <trkpt lat="43.145600" lon="-4.768517">
        <ele>2271.0</ele>
        <time>2015-03-17T14:28:03Z</time>
      </trkpt>
      <trkpt lat="43.145633" lon="-4.768450">
        <ele>2273.0</ele>
        <time>2015-03-17T14:28:04Z</time>
      </trkpt>
      <trkpt lat="43.145683" lon="-4.768383">
        <ele>2276.0</ele>
        <time>2015-03-17T14:28:05Z</time>
      </trkpt>
      <trkpt lat="43.145733" lon="-4.768333">
        <ele>2279.0</ele>
        <time>2015-03-17T14:28:06Z</time>
      </trkpt>
      <trkpt lat="43.145767" lon="-4.768300">
        <ele>2281.0</ele>
        <time>2015-03-17T14:28:07Z</time>
      </trkpt>
      <trkpt lat="43.145817" lon="-4.768250">
        <ele>2282.0</ele>
        <time>2015-03-17T14:28:08Z</time>
      </trkpt>
      <trkpt lat="43.145867" lon="-4.768200">
        <ele>2283.0</ele>
        <time>2015-03-17T14:28:09Z</time>
      </trkpt>
      <trkpt lat="43.145917" lon="-4.768133">
        <ele>2284.0</ele>
        <time>2015-03-17T14:28:10Z</time>
      </trkpt>
      <trkpt lat="43.146000" lon="-4.768050">
        <ele>2286.0</ele>
        <time>2015-03-17T14:28:11Z</time>
      </trkpt>
      <trkpt lat="43.146050" lon="-4.767983">
        <ele>2290.0</ele>
        <time>2015-03-17T14:28:12Z</time>
      </trkpt>
      <trkpt lat="43.146067" lon="-4.767933">
        <ele>2293.0</ele>
        <time>2015-03-17T14:28:13Z</time>
      </trkpt>
      <trkpt lat="43.146083" lon="-4.767867">
        <ele>2296.0</ele>
        <time>2015-03-17T14:28:14Z</time>
      </trkpt>
      <trkpt lat="43.146117" lon="-4.767817">
        <ele>2299.0</ele>
        <time>2015-03-17T14:28:15Z</time>
      </trkpt>
      <trkpt lat="43.146150" lon="-4.767783">
        <ele>2302.0</ele>
        <time>2015-03-17T14:28:16Z</time>
      </trkpt>
      <trkpt lat="43.146183" lon="-4.767733">
        <ele>2305.0</ele>
        <time>2015-03-17T14:28:17Z</time>
      </trkpt>
      <trkpt lat="43.146217" lon="-4.767683">
        <ele>2308.0</ele>
        <time>2015-03-17T14:28:18Z</time>
      </trkpt>
      <trkpt lat="43.146250" lon="-4.767617">
        <ele>2311.0</ele>
        <time>2015-03-17T14:28:19Z</time>
      </trkpt>
      <trkpt lat="43.146300" lon="-4.767550">
        <ele>2314.0</ele>
        <time>2015-03-17T14:28:20Z</time>
      </trkpt>
      <trkpt lat="43.146333" lon="-4.767500">
        <ele>2317.0</ele>
        <time>2015-03-17T14:28:21Z</time>
      </trkpt>
      <trkpt lat="43.146367" lon="-4.767433">
        <ele>2320.0</ele>
        <time>2015-03-17T14:28:22Z</time>
      </trkpt>
      <trkpt lat="43.146400" lon="-4.767350">
        <ele>2323.0</ele>
        <time>2015-03-17T14:28:23Z</time>
      </trkpt>
      <trkpt lat="43.146417" lon="-4.767283">
        <ele>2326.0</ele>
        <time>2015-03-17T14:28:24Z</time>
      </trkpt>
      <trkpt lat="43.146450" lon="-4.767200">
        <ele>2328.0</ele>
        <time>2015-03-17T14:28:25Z</time>
      </trkpt>
      <trkpt lat="43.146483" lon="-4.767133">
        <ele>2330.0</ele>
        <time>2015-03-17T14:28:26Z</time>
      </trkpt>
      <trkpt lat="43.146517" lon="-4.767050">
        <ele>2332.0</ele>
        <time>2015-03-17T14:28:27Z</time>
      </trkpt>
      <trkpt lat="43.146567" lon="-4.766983">
        <ele>2333.0</ele>
        <time>2015-03-17T14:28:28Z</time>
      </trkpt>
      <trkpt lat="43.146600" lon="-4.766883">
        <ele>2333.0</ele>
        <time>2015-03-17T14:28:29Z</time>
      </trkpt>
      <trkpt lat="43.146633" lon="-4.766783">
        <ele>2334.0</ele>
        <time>2015-03-17T14:28:30Z</time>
      </trkpt>
      <trkpt lat="43.146667" lon="-4.766683">
        <ele>2336.0</ele>
        <time>2015-03-17T14:28:31Z</time>
      </trkpt>
      <trkpt lat="43.146700" lon="-4.766600">
        <ele>2338.0</ele>
        <time>2015-03-17T14:28:32Z</time>
      </trkpt>
      <trkpt lat="43.146750" lon="-4.766533">
        <ele>2339.0</ele>
        <time>2015-03-17T14:28:33Z</time>
      </trkpt>
      <trkpt lat="43.146800" lon="-4.766483">
        <ele>2341.0</ele>
        <time>2015-03-17T14:28:34Z</time>
      </trkpt>
      <trkpt lat="43.146833" lon="-4.766417">
        <ele>2341.0</ele>
        <time>2015-03-17T14:28:35Z</time>
      </trkpt>
      <trkpt lat="43.146883" lon="-4.766350">
        <ele>2342.0</ele>
        <time>2015-03-17T14:28:36Z</time>
      </trkpt>
      <trkpt lat="43.146917" lon="-4.766267">
        <ele>2343.0</ele>
        <time>2015-03-17T14:28:37Z</time>
      </trkpt>
      <trkpt lat="43.146967" lon="-4.766217">
        <ele>2344.0</ele>
        <time>2015-03-17T14:28:38Z</time>
      </trkpt>
      <trkpt lat="43.147000" lon="-4.766150">
        <ele>2346.0</ele>
        <time>2015-03-17T14:28:39Z</time>
      </trkpt>
      <trkpt lat="43.147050" lon="-4.766100">
        <ele>2346.0</ele>
        <time>2015-03-17T14:28:40Z</time>
      </trkpt>
      <trkpt lat="43.147083" lon="-4.766050">
        <ele>2347.0</ele>
        <time>2015-03-17T14:28:41Z</time>
      </trkpt>
      <trkpt lat="43.147117" lon="-4.766000">
        <ele>2349.0</ele>
        <time>2015-03-17T14:28:42Z</time>
      </trkpt>
      <trkpt lat="43.147150" lon="-4.765933">
        <ele>2350.0</ele>
        <time>2015-03-17T14:28:43Z</time>
      </trkpt>
      <trkpt lat="43.147183" lon="-4.765867">
        <ele>2351.0</ele>
        <time>2015-03-17T14:28:44Z</time>
      </trkpt>
      <trkpt lat="43.147233" lon="-4.765817">
        <ele>2352.0</ele>
        <time>2015-03-17T14:28:45Z</time>
      </trkpt>
      <trkpt lat="43.147267" lon="-4.765767">
        <ele>2353.0</ele>
        <time>2015-03-17T14:28:46Z</time>
      </trkpt>
      <trkpt lat="43.147317" lon="-4.765700">
        <ele>2353.0</ele>
        <time>2015-03-17T14:28:47Z</time>
      </trkpt>
      <trkpt lat="43.147350" lon="-4.765633">
        <ele>2353.0</ele>
        <time>2015-03-17T14:28:48Z</time>
      </trkpt>
      <trkpt lat="43.147400" lon="-4.765550">
        <ele>2353.0</ele>
        <time>2015-03-17T14:28:49Z</time>
      </trkpt>
      <trkpt lat="43.147433" lon="-4.765483">
        <ele>2353.0</ele>
        <time>2015-03-17T14:28:50Z</time>
      </trkpt>
      <trkpt lat="43.147483" lon="-4.765383">
        <ele>2354.0</ele>
        <time>2015-03-17T14:28:51Z</time>
      </trkpt>
      <trkpt lat="43.147533" lon="-4.765300">
        <ele>2354.0</ele>
        <time>2015-03-17T14:28:52Z</time>
      </trkpt>
      <trkpt lat="43.147550" lon="-4.765217">
        <ele>2356.0</ele>
        <time>2015-03-17T14:28:53Z</time>
      </trkpt>
      <trkpt lat="43.147567" lon="-4.765133">
        <ele>2357.0</ele>
        <time>2015-03-17T14:28:54Z</time>
      </trkpt>
      <trkpt lat="43.147583" lon="-4.765050">
        <ele>2358.0</ele>
        <time>2015-03-17T14:28:55Z</time>
      </trkpt>
      <trkpt lat="43.147583" lon="-4.764967">
        <ele>2359.0</ele>
        <time>2015-03-17T14:28:56Z</time>
      </trkpt>
      <trkpt lat="43.147600" lon="-4.764900">
        <ele>2361.0</ele>
        <time>2015-03-17T14:28:57Z</time>
      </trkpt>
      <trkpt lat="43.147600" lon="-4.764833">
        <ele>2362.0</ele>
        <time>2015-03-17T14:28:58Z</time>
      </trkpt>
      <trkpt lat="43.147617" lon="-4.764800">
        <ele>2363.0</ele>
        <time>2015-03-17T14:28:59Z</time>
      </trkpt>
      <trkpt lat="43.147617" lon="-4.764733">
        <ele>2362.0</ele>
        <time>2015-03-17T14:29:00Z</time>
      </trkpt>
      <trkpt lat="43.147617" lon="-4.764667">
        <ele>2361.0</ele>
        <time>2015-03-17T14:29:01Z</time>
      </trkpt>
      <trkpt lat="43.147633" lon="-4.764583">
        <ele>2361.0</ele>
        <time>2015-03-17T14:29:02Z</time>
      </trkpt>
      <trkpt lat="43.147650" lon="-4.764483">
        <ele>2360.0</ele>
        <time>2015-03-17T14:29:03Z</time>
      </trkpt>
      <trkpt lat="43.147650" lon="-4.764400">
        <ele>2359.0</ele>
        <time>2015-03-17T14:29:04Z</time>
      </trkpt>
      <trkpt lat="43.147633" lon="-4.764300">
        <ele>2358.0</ele>
        <time>2015-03-17T14:29:05Z</time>
      </trkpt>
      <trkpt lat="43.147633" lon="-4.764200">
        <ele>2358.0</ele>
        <time>2015-03-17T14:29:06Z</time>
      </trkpt>
      <trkpt lat="43.147633" lon="-4.764100">
        <ele>2358.0</ele>
        <time>2015-03-17T14:29:07Z</time>
      </trkpt>
      <trkpt lat="43.147633" lon="-4.763983">
        <ele>2358.0</ele>
        <time>2015-03-17T14:29:08Z</time>
      </trkpt>
      <trkpt lat="43.147633" lon="-4.763883">
        <ele>2359.0</ele>
        <time>2015-03-17T14:29:09Z</time>
      </trkpt>
      <trkpt lat="43.147633" lon="-4.763767">
        <ele>2360.0</ele>
        <time>2015-03-17T14:29:10Z</time>
      </trkpt>
      <trkpt lat="43.147633" lon="-4.763667">
        <ele>2361.0</ele>
        <time>2015-03-17T14:29:11Z</time>
      </trkpt>
      <trkpt lat="43.147633" lon="-4.763567">
        <ele>2363.0</ele>
        <time>2015-03-17T14:29:12Z</time>
      </trkpt>
      <trkpt lat="43.147633" lon="-4.763483">
        <ele>2364.0</ele>
        <time>2015-03-17T14:29:13Z</time>
      </trkpt>
      <trkpt lat="43.147633" lon="-4.763400">
        <ele>2366.0</ele>
        <time>2015-03-17T14:29:14Z</time>
      </trkpt>
      <trkpt lat="43.147633" lon="-4.763333">
        <ele>2367.0</ele>
        <time>2015-03-17T14:29:15Z</time>
      </trkpt>
      <trkpt lat="43.147633" lon="-4.763267">
        <ele>2367.0</ele>
        <time>2015-03-17T14:29:16Z</time>
      </trkpt>
      <trkpt lat="43.147617" lon="-4.763217">
        <ele>2367.0</ele>
        <time>2015-03-17T14:29:17Z</time>
      </trkpt>
      <trkpt lat="43.147600" lon="-4.763133">
        <ele>2367.0</ele>
        <time>2015-03-17T14:29:18Z</time>
      </trkpt>
      <trkpt lat="43.147600" lon="-4.763067">
        <ele>2367.0</ele>
        <time>2015-03-17T14:29:19Z</time>
      </trkpt>
      <trkpt lat="43.147583" lon="-4.762983">
        <ele>2367.0</ele>
        <time>2015-03-17T14:29:20Z</time>
      </trkpt>
      <trkpt lat="43.147567" lon="-4.762900">
        <ele>2368.0</ele>
        <time>2015-03-17T14:29:21Z</time>
      </trkpt>
      <trkpt lat="43.147567" lon="-4.762817">
        <ele>2369.0</ele>
        <time>2015-03-17T14:29:22Z</time>
      </trkpt>
      <trkpt lat="43.147550" lon="-4.762717">
        <ele>2369.0</ele>
        <time>2015-03-17T14:29:23Z</time>
      </trkpt>
      <trkpt lat="43.147550" lon="-4.762633">
        <ele>2370.0</ele>
        <time>2015-03-17T14:29:24Z</time>
      </trkpt>
      <trkpt lat="43.147533" lon="-4.762533">
        <ele>2371.0</ele>
        <time>2015-03-17T14:29:25Z</time>
      </trkpt>
      <trkpt lat="43.147517" lon="-4.762467">
        <ele>2373.0</ele>
        <time>2015-03-17T14:29:26Z</time>
      </trkpt>
      <trkpt lat="43.147517" lon="-4.762417">
        <ele>2376.0</ele>
        <time>2015-03-17T14:29:27Z</time>
      </trkpt>
      <trkpt lat="43.147517" lon="-4.762367">
        <ele>2379.0</ele>
        <time>2015-03-17T14:29:28Z</time>
      </trkpt>
      <trkpt lat="43.147517" lon="-4.762333">
        <ele>2380.0</ele>
        <time>2015-03-17T14:29:29Z</time>
      </trkpt>
      <trkpt lat="43.147517" lon="-4.762267">
        <ele>2381.0</ele>
        <time>2015-03-17T14:29:30Z</time>
      </trkpt>
      <trkpt lat="43.147500" lon="-4.762217">
        <ele>2382.0</ele>
        <time>2015-03-17T14:29:31Z</time>
      </trkpt>
      <trkpt lat="43.147500" lon="-4.762150">
        <ele>2385.0</ele>
        <time>2015-03-17T14:29:32Z</time>
      </trkpt>
      <trkpt lat="43.147483" lon="-4.762117">
        <ele>2388.0</ele>
        <time>2015-03-17T14:29:33Z</time>
      </trkpt>
      <trkpt lat="43.147467" lon="-4.762100">
        <ele>2391.0</ele>
        <time>2015-03-17T14:29:34Z</time>
      </trkpt>
      <trkpt lat="43.147433" lon="-4.762050">
        <ele>2394.0</ele>
        <time>2015-03-17T14:29:35Z</time>
      </trkpt>
      <trkpt lat="43.147417" lon="-4.762017">
        <ele>2397.0</ele>
        <time>2015-03-17T14:29:36Z</time>
      </trkpt>
      <trkpt lat="43.147400" lon="-4.761967">
        <ele>2401.0</ele>
        <time>2015-03-17T14:29:37Z</time>
      </trkpt>
      <trkpt lat="43.147383" lon="-4.761933">
        <ele>2405.0</ele>
        <time>2015-03-17T14:29:38Z</time>
      </trkpt>
      <trkpt lat="43.147367" lon="-4.761917">
        <ele>2410.0</ele>
        <time>2015-03-17T14:29:39Z</time>
      </trkpt>
      <trkpt lat="43.147350" lon="-4.761900">
        <ele>2413.0</ele>
        <time>2015-03-17T14:29:40Z</time>
      </trkpt>
      <trkpt lat="43.147333" lon="-4.761867">
        <ele>2416.0</ele>
        <time>2015-03-17T14:29:41Z</time>
      </trkpt>
      <trkpt lat="43.147300" lon="-4.761833">
        <ele>2418.0</ele>
        <time>2015-03-17T14:29:42Z</time>
      </trkpt>
      <trkpt lat="43.147283" lon="-4.761800">
        <ele>2421.0</ele>
        <time>2015-03-17T14:29:43Z</time>
      </trkpt>
      <trkpt lat="43.147267" lon="-4.761767">
        <ele>2423.0</ele>
        <time>2015-03-17T14:29:44Z</time>
      </trkpt>
      <trkpt lat="43.147250" lon="-4.761750">
        <ele>2425.0</ele>
        <time>2015-03-17T14:29:45Z</time>
      </trkpt>
      <trkpt lat="43.147233" lon="-4.761733">
        <ele>2425.0</ele>
        <time>2015-03-17T14:29:46Z</time>
      </trkpt>
      <trkpt lat="43.147183" lon="-4.761717">
        <ele>2427.0</ele>
        <time>2015-03-17T14:29:47Z</time>
      </trkpt>
      <trkpt lat="43.147117" lon="-4.761717">
        <ele>2430.0</ele>
        <time>2015-03-17T14:29:48Z</time>
      </trkpt>
      <trkpt lat="43.147050" lon="-4.761750">
        <ele>2433.0</ele>
        <time>2015-03-17T14:29:49Z</time>
      </trkpt>
      <trkpt lat="43.146983" lon="-4.761783">
        <ele>2437.0</ele>
        <time>2015-03-17T14:29:50Z</time>
      </trkpt>
      <trkpt lat="43.146933" lon="-4.761833">
        <ele>2441.0</ele>
        <time>2015-03-17T14:29:51Z</time>
      </trkpt>
      <trkpt lat="43.146883" lon="-4.761900">
        <ele>2444.0</ele>
        <time>2015-03-17T14:29:52Z</time>
      </trkpt>
      <trkpt lat="43.146833" lon="-4.761967">
        <ele>2447.0</ele>
        <time>2015-03-17T14:29:53Z</time>
      </trkpt>
      <trkpt lat="43.146767" lon="-4.762050">
        <ele>2447.0</ele>
        <time>2015-03-17T14:29:54Z</time>
      </trkpt>
      <trkpt lat="43.146717" lon="-4.762117">
        <ele>2449.0</ele>
        <time>2015-03-17T14:29:55Z</time>
      </trkpt>
      <trkpt lat="43.146667" lon="-4.762200">
        <ele>2451.0</ele>
        <time>2015-03-17T14:29:56Z</time>
      </trkpt>
      <trkpt lat="43.146650" lon="-4.762300">
        <ele>2452.0</ele>
        <time>2015-03-17T14:29:57Z</time>
      </trkpt>
      <trkpt lat="43.146683" lon="-4.762417">
        <ele>2453.0</ele>
        <time>2015-03-17T14:29:58Z</time>
      </trkpt>
      <trkpt lat="43.146717" lon="-4.762533">
        <ele>2454.0</ele>
        <time>2015-03-17T14:29:59Z</time>
      </trkpt>
      <trkpt lat="43.146783" lon="-4.762650">
        <ele>2456.0</ele>
        <time>2015-03-17T14:30:00Z</time>
      </trkpt>
      <trkpt lat="43.146850" lon="-4.762733">
        <ele>2458.0</ele>
        <time>2015-03-17T14:30:01Z</time>
      </trkpt>
      <trkpt lat="43.146933" lon="-4.762783">
        <ele>2460.0</ele>
        <time>2015-03-17T14:30:02Z</time>
      </trkpt>
      <trkpt lat="43.147017" lon="-4.762800">
        <ele>2461.0</ele>
        <time>2015-03-17T14:30:03Z</time>
      </trkpt>
      <trkpt lat="43.147117" lon="-4.762783">
        <ele>2462.0</ele>
        <time>2015-03-17T14:30:04Z</time>
      </trkpt>
      <trkpt lat="43.147217" lon="-4.762733">
        <ele>2463.0</ele>
        <time>2015-03-17T14:30:05Z</time>
      </trkpt>
      <trkpt lat="43.147283" lon="-4.762667">
        <ele>2465.0</ele>
        <time>2015-03-17T14:30:06Z</time>
      </trkpt>
      <trkpt lat="43.147350" lon="-4.762583">
        <ele>2467.0</ele>
        <time>2015-03-17T14:30:07Z</time>
      </trkpt>
      <trkpt lat="43.147383" lon="-4.762483">
        <ele>2470.0</ele>
        <time>2015-03-17T14:30:08Z</time>
      </trkpt>
      <trkpt lat="43.147417" lon="-4.762400">
        <ele>2474.0</ele>
        <time>2015-03-17T14:30:09Z</time>
      </trkpt>
      <trkpt lat="43.147450" lon="-4.762317">
        <ele>2477.0</ele>
        <time>2015-03-17T14:30:10Z</time>
      </trkpt>
      <trkpt lat="43.147467" lon="-4.762250">
        <ele>2480.0</ele>
        <time>2015-03-17T14:30:11Z</time>
      </trkpt>
      <trkpt lat="43.147500" lon="-4.762200">
        <ele>2482.0</ele>
        <time>2015-03-17T14:30:12Z</time>
      </trkpt>
      <trkpt lat="43.147500" lon="-4.762133">
        <ele>2483.0</ele>
        <time>2015-03-17T14:30:13Z</time>
      </trkpt>
      <trkpt lat="43.147517" lon="-4.762050">
        <ele>2484.0</ele>
        <time>2015-03-17T14:30:14Z</time>
      </trkpt>
      <trkpt lat="43.147517" lon="-4.761950">
        <ele>2484.0</ele>
        <time>2015-03-17T14:30:15Z</time>
      </trkpt>
      <trkpt lat="43.147533" lon="-4.761833">
        <ele>2485.0</ele>
        <time>2015-03-17T14:30:16Z</time>
      </trkpt>
      <trkpt lat="43.147583" lon="-4.761733">
        <ele>2486.0</ele>
        <time>2015-03-17T14:30:17Z</time>
      </trkpt>
      <trkpt lat="43.147633" lon="-4.761650">
        <ele>2488.0</ele>
        <time>2015-03-17T14:30:18Z</time>
      </trkpt>
      <trkpt lat="43.147667" lon="-4.761567">
        <ele>2490.0</ele>
        <time>2015-03-17T14:30:19Z</time>
      </trkpt>
      <trkpt lat="43.147700" lon="-4.761450">
        <ele>2490.0</ele>
        <time>2015-03-17T14:30:20Z</time>
      </trkpt>
      <trkpt lat="43.147750" lon="-4.761350">
        <ele>2491.0</ele>
        <time>2015-03-17T14:30:21Z</time>
      </trkpt>
      <trkpt lat="43.147817" lon="-4.761233">
        <ele>2495.0</ele>
        <time>2015-03-17T14:30:22Z</time>
      </trkpt>
      <trkpt lat="43.147867" lon="-4.761133">
        <ele>2500.0</ele>
        <time>2015-03-17T14:30:23Z</time>
      </trkpt>
      <trkpt lat="43.147900" lon="-4.761050">
        <ele>2505.0</ele>
        <time>2015-03-17T14:30:24Z</time>
      </trkpt>
      <trkpt lat="43.147917" lon="-4.760967">
        <ele>2510.0</ele>
        <time>2015-03-17T14:30:25Z</time>
      </trkpt>
      <trkpt lat="43.147933" lon="-4.760883">
        <ele>2514.0</ele>
        <time>2015-03-17T14:30:26Z</time>
      </trkpt>
      <trkpt lat="43.147967" lon="-4.760783">
        <ele>2518.0</ele>
        <time>2015-03-17T14:30:27Z</time>
      </trkpt>
      <trkpt lat="43.148017" lon="-4.760750">
        <ele>2523.0</ele>
        <time>2015-03-17T14:30:28Z</time>
      </trkpt>
      <trkpt lat="43.148033" lon="-4.760700">
        <ele>2520.0</ele>
        <time>2015-03-17T14:30:29Z</time>
      </trkpt>
      <trkpt lat="43.148050" lon="-4.760650">
        <ele>2522.0</ele>
        <time>2015-03-17T14:30:30Z</time>
      </trkpt>
      <trkpt lat="43.148050" lon="-4.760567">
        <ele>2524.0</ele>
        <time>2015-03-17T14:30:31Z</time>
      </trkpt>
      <trkpt lat="43.148067" lon="-4.760467">
        <ele>2524.0</ele>
        <time>2015-03-17T14:30:32Z</time>
      </trkpt>
      <trkpt lat="43.148083" lon="-4.760333">
        <ele>2524.0</ele>
        <time>2015-03-17T14:30:33Z</time>
      </trkpt>
      <trkpt lat="43.148100" lon="-4.760217">
        <ele>2526.0</ele>
        <time>2015-03-17T14:30:34Z</time>
      </trkpt>
      <trkpt lat="43.148117" lon="-4.760100">
        <ele>2526.0</ele>
        <time>2015-03-17T14:30:35Z</time>
      </trkpt>
      <trkpt lat="43.148150" lon="-4.760033">
        <ele>2526.0</ele>
        <time>2015-03-17T14:30:36Z</time>
      </trkpt>
      <trkpt lat="43.148150" lon="-4.759950">
        <ele>2527.0</ele>
        <time>2015-03-17T14:30:37Z</time>
      </trkpt>
      <trkpt lat="43.148167" lon="-4.759850">
        <ele>2526.0</ele>
        <time>2015-03-17T14:30:38Z</time>
      </trkpt>
      <trkpt lat="43.148200" lon="-4.759733">
        <ele>2524.0</ele>
        <time>2015-03-17T14:30:39Z</time>
      </trkpt>
      <trkpt lat="43.148250" lon="-4.759583">
        <ele>2524.0</ele>
        <time>2015-03-17T14:30:40Z</time>
      </trkpt>
      <trkpt lat="43.148317" lon="-4.759467">
        <ele>2524.0</ele>
        <time>2015-03-17T14:30:41Z</time>
      </trkpt>
      <trkpt lat="43.148367" lon="-4.759333">
        <ele>2524.0</ele>
        <time>2015-03-17T14:30:42Z</time>
      </trkpt>
      <trkpt lat="43.148433" lon="-4.759217">
        <ele>2526.0</ele>
        <time>2015-03-17T14:30:43Z</time>
      </trkpt>
      <trkpt lat="43.148483" lon="-4.759100">
        <ele>2528.0</ele>
        <time>2015-03-17T14:30:44Z</time>
      </trkpt>
      <trkpt lat="43.148517" lon="-4.759000">
        <ele>2529.0</ele>
        <time>2015-03-17T14:30:45Z</time>
      </trkpt>
      <trkpt lat="43.148567" lon="-4.758883">
        <ele>2530.0</ele>
        <time>2015-03-17T14:30:46Z</time>
      </trkpt>
      <trkpt lat="43.148600" lon="-4.758767">
        <ele>2531.0</ele>
        <time>2015-03-17T14:30:47Z</time>
      </trkpt>
      <trkpt lat="43.148650" lon="-4.758650">
        <ele>2533.0</ele>
        <time>2015-03-17T14:30:48Z</time>
      </trkpt>
      <trkpt lat="43.148717" lon="-4.758533">
        <ele>2537.0</ele>
        <time>2015-03-17T14:30:49Z</time>
      </trkpt>
      <trkpt lat="43.148767" lon="-4.758433">
        <ele>2539.0</ele>
        <time>2015-03-17T14:30:50Z</time>
      </trkpt>
      <trkpt lat="43.148817" lon="-4.758317">
        <ele>2542.0</ele>
        <time>2015-03-17T14:30:51Z</time>
      </trkpt>
      <trkpt lat="43.148867" lon="-4.758200">
        <ele>2543.0</ele>
        <time>2015-03-17T14:30:52Z</time>
      </trkpt>
      <trkpt lat="43.148933" lon="-4.758100">
        <ele>2544.0</ele>
        <time>2015-03-17T14:30:53Z</time>
      </trkpt>
      <trkpt lat="43.148983" lon="-4.758000">
        <ele>2543.0</ele>
        <time>2015-03-17T14:30:54Z</time>
      </trkpt>
      <trkpt lat="43.149050" lon="-4.757883">
        <ele>2542.0</ele>
        <time>2015-03-17T14:30:55Z</time>
      </trkpt>
      <trkpt lat="43.149100" lon="-4.757750">
        <ele>2542.0</ele>
        <time>2015-03-17T14:30:56Z</time>
      </trkpt>
      <trkpt lat="43.149150" lon="-4.757633">
        <ele>2543.0</ele>
        <time>2015-03-17T14:30:57Z</time>
      </trkpt>
      <trkpt lat="43.149200" lon="-4.757533">
        <ele>2545.0</ele>
        <time>2015-03-17T14:30:58Z</time>
      </trkpt>
      <trkpt lat="43.149233" lon="-4.757433">
        <ele>2546.0</ele>
        <time>2015-03-17T14:30:59Z</time>
      </trkpt>
      <trkpt lat="43.149267" lon="-4.757333">
        <ele>2547.0</ele>
        <time>2015-03-17T14:31:00Z</time>
      </trkpt>
      <trkpt lat="43.149300" lon="-4.757233">
        <ele>2547.0</ele>
        <time>2015-03-17T14:31:01Z</time>
      </trkpt>
      <trkpt lat="43.149333" lon="-4.757117">
        <ele>2548.0</ele>
        <time>2015-03-17T14:31:02Z</time>
      </trkpt>
      <trkpt lat="43.149367" lon="-4.756983">
        <ele>2549.0</ele>
        <time>2015-03-17T14:31:03Z</time>
      </trkpt>
      <trkpt lat="43.149417" lon="-4.756850">
        <ele>2552.0</ele>
        <time>2015-03-17T14:31:04Z</time>
      </trkpt>
      <trkpt lat="43.149467" lon="-4.756733">
        <ele>2556.0</ele>
        <time>2015-03-17T14:31:05Z</time>
      </trkpt>
      <trkpt lat="43.149500" lon="-4.756617">
        <ele>2559.0</ele>
        <time>2015-03-17T14:31:06Z</time>
      </trkpt>
      <trkpt lat="43.149533" lon="-4.756500">
        <ele>2562.0</ele>
        <time>2015-03-17T14:31:07Z</time>
      </trkpt>
      <trkpt lat="43.149567" lon="-4.756350">
        <ele>2564.0</ele>
        <time>2015-03-17T14:31:08Z</time>
      </trkpt>
      <trkpt lat="43.149617" lon="-4.756217">
        <ele>2567.0</ele>
        <time>2015-03-17T14:31:09Z</time>
      </trkpt>
      <trkpt lat="43.149650" lon="-4.756067">
        <ele>2570.0</ele>
        <time>2015-03-17T14:31:10Z</time>
      </trkpt>
      <trkpt lat="43.149700" lon="-4.755933">
        <ele>2573.0</ele>
        <time>2015-03-17T14:31:11Z</time>
      </trkpt>
      <trkpt lat="43.149717" lon="-4.755817">
        <ele>2577.0</ele>
        <time>2015-03-17T14:31:12Z</time>
      </trkpt>
      <trkpt lat="43.149733" lon="-4.755683">
        <ele>2580.0</ele>
        <time>2015-03-17T14:31:13Z</time>
      </trkpt>
      <trkpt lat="43.149750" lon="-4.755550">
        <ele>2583.0</ele>
        <time>2015-03-17T14:31:14Z</time>
      </trkpt>
      <trkpt lat="43.149767" lon="-4.755417">
        <ele>2585.0</ele>
        <time>2015-03-17T14:31:15Z</time>
      </trkpt>
      <trkpt lat="43.149783" lon="-4.755283">
        <ele>2588.0</ele>
        <time>2015-03-17T14:31:16Z</time>
      </trkpt>
      <trkpt lat="43.149800" lon="-4.755133">
        <ele>2590.0</ele>
        <time>2015-03-17T14:31:17Z</time>
      </trkpt>
      <trkpt lat="43.149833" lon="-4.755000">
        <ele>2594.0</ele>
        <time>2015-03-17T14:31:18Z</time>
      </trkpt>
      <trkpt lat="43.149867" lon="-4.754883">
        <ele>2597.0</ele>
        <time>2015-03-17T14:31:19Z</time>
      </trkpt>
      <trkpt lat="43.149917" lon="-4.754767">
        <ele>2601.0</ele>
        <time>2015-03-17T14:31:20Z</time>
      </trkpt>
      <trkpt lat="43.149950" lon="-4.754650">
        <ele>2603.0</ele>
        <time>2015-03-17T14:31:21Z</time>
      </trkpt>
      <trkpt lat="43.150000" lon="-4.754533">
        <ele>2606.0</ele>
        <time>2015-03-17T14:31:22Z</time>
      </trkpt>
      <trkpt lat="43.150017" lon="-4.754417">
        <ele>2608.0</ele>
        <time>2015-03-17T14:31:23Z</time>
      </trkpt>
      <trkpt lat="43.150033" lon="-4.754283">
        <ele>2611.0</ele>
        <time>2015-03-17T14:31:24Z</time>
      </trkpt>
      <trkpt lat="43.150067" lon="-4.754150">
        <ele>2613.0</ele>
        <time>2015-03-17T14:31:25Z</time>
      </trkpt>
      <trkpt lat="43.150100" lon="-4.754017">
        <ele>2614.0</ele>
        <time>2015-03-17T14:31:26Z</time>
      </trkpt>
      <trkpt lat="43.150200" lon="-4.753900">
        <ele>2614.0</ele>
        <time>2015-03-17T14:31:27Z</time>
      </trkpt>
      <trkpt lat="43.150317" lon="-4.753783">
        <ele>2614.0</ele>
        <time>2015-03-17T14:31:28Z</time>
      </trkpt>
      <trkpt lat="43.150417" lon="-4.753683">
        <ele>2615.0</ele>
        <time>2015-03-17T14:31:29Z</time>
      </trkpt>
      <trkpt lat="43.150500" lon="-4.753567">
        <ele>2618.0</ele>
        <time>2015-03-17T14:31:30Z</time>
      </trkpt>
      <trkpt lat="43.150533" lon="-4.753450">
        <ele>2620.0</ele>
        <time>2015-03-17T14:31:31Z</time>
      </trkpt>
      <trkpt lat="43.150567" lon="-4.753317">
        <ele>2621.0</ele>
        <time>2015-03-17T14:31:32Z</time>
      </trkpt>
      <trkpt lat="43.150617" lon="-4.753183">
        <ele>2622.0</ele>
        <time>2015-03-17T14:31:33Z</time>
      </trkpt>
      <trkpt lat="43.150667" lon="-4.753050">
        <ele>2624.0</ele>
        <time>2015-03-17T14:31:34Z</time>
      </trkpt>
      <trkpt lat="43.150750" lon="-4.752933">
        <ele>2626.0</ele>
        <time>2015-03-17T14:31:35Z</time>
      </trkpt>
      <trkpt lat="43.150800" lon="-4.752800">
        <ele>2629.0</ele>
        <time>2015-03-17T14:31:36Z</time>
      </trkpt>
      <trkpt lat="43.150850" lon="-4.752667">
        <ele>2632.0</ele>
        <time>2015-03-17T14:31:37Z</time>
      </trkpt>
      <trkpt lat="43.150900" lon="-4.752533">
        <ele>2634.0</ele>
        <time>2015-03-17T14:31:38Z</time>
      </trkpt>
      <trkpt lat="43.150967" lon="-4.752400">
        <ele>2636.0</ele>
        <time>2015-03-17T14:31:39Z</time>
      </trkpt>
      <trkpt lat="43.151050" lon="-4.752283">
        <ele>2637.0</ele>
        <time>2015-03-17T14:31:40Z</time>
      </trkpt>
      <trkpt lat="43.151133" lon="-4.752167">
        <ele>2640.0</ele>
        <time>2015-03-17T14:31:41Z</time>
      </trkpt>
      <trkpt lat="43.151183" lon="-4.752017">
        <ele>2641.0</ele>
        <time>2015-03-17T14:31:42Z</time>
      </trkpt>
      <trkpt lat="43.151217" lon="-4.751850">
        <ele>2642.0</ele>
        <time>2015-03-17T14:31:43Z</time>
      </trkpt>
      <trkpt lat="43.151233" lon="-4.751683">
        <ele>2643.0</ele>
        <time>2015-03-17T14:31:44Z</time>
      </trkpt>
      <trkpt lat="43.151267" lon="-4.751517">
        <ele>2646.0</ele>
        <time>2015-03-17T14:31:45Z</time>
      </trkpt>
      <trkpt lat="43.151317" lon="-4.751383">
        <ele>2649.0</ele>
        <time>2015-03-17T14:31:46Z</time>
      </trkpt>
      <trkpt lat="43.151367" lon="-4.751250">
        <ele>2652.0</ele>
        <time>2015-03-17T14:31:47Z</time>
      </trkpt>
      <trkpt lat="43.151417" lon="-4.751150">
        <ele>2653.0</ele>
        <time>2015-03-17T14:31:48Z</time>
      </trkpt>
      <trkpt lat="43.151433" lon="-4.751017">
        <ele>2653.0</ele>
        <time>2015-03-17T14:31:49Z</time>
      </trkpt>
      <trkpt lat="43.151450" lon="-4.750883">
        <ele>2652.0</ele>
        <time>2015-03-17T14:31:50Z</time>
      </trkpt>
      <trkpt lat="43.151450" lon="-4.750733">
        <ele>2652.0</ele>
        <time>2015-03-17T14:31:51Z</time>
      </trkpt>
      <trkpt lat="43.151467" lon="-4.750600">
        <ele>2654.0</ele>
        <time>2015-03-17T14:31:52Z</time>
      </trkpt>
      <trkpt lat="43.151483" lon="-4.750450">
        <ele>2657.0</ele>
        <time>2015-03-17T14:31:53Z</time>
      </trkpt>
      <trkpt lat="43.151500" lon="-4.750333">
        <ele>2660.0</ele>
        <time>2015-03-17T14:31:54Z</time>
      </trkpt>
      <trkpt lat="43.151533" lon="-4.750233">
        <ele>2663.0</ele>
        <time>2015-03-17T14:31:55Z</time>
      </trkpt>
      <trkpt lat="43.151567" lon="-4.750117">
        <ele>2666.0</ele>
        <time>2015-03-17T14:31:56Z</time>
      </trkpt>
      <trkpt lat="43.151617" lon="-4.750017">
        <ele>2666.0</ele>
        <time>2015-03-17T14:31:57Z</time>
      </trkpt>
      <trkpt lat="43.151667" lon="-4.749900">
        <ele>2665.0</ele>
        <time>2015-03-17T14:31:58Z</time>
      </trkpt>
      <trkpt lat="43.151700" lon="-4.749767">
        <ele>2666.0</ele>
        <time>2015-03-17T14:31:59Z</time>
      </trkpt>
      <trkpt lat="43.151750" lon="-4.749617">
        <ele>2667.0</ele>
        <time>2015-03-17T14:32:00Z</time>
      </trkpt>
      <trkpt lat="43.151800" lon="-4.749483">
        <ele>2669.0</ele>
        <time>2015-03-17T14:32:01Z</time>
      </trkpt>
      <trkpt lat="43.151867" lon="-4.749367">
        <ele>2671.0</ele>
        <time>2015-03-17T14:32:02Z</time>
      </trkpt>
      <trkpt lat="43.151900" lon="-4.749217">
        <ele>2672.0</ele>
        <time>2015-03-17T14:32:03Z</time>
      </trkpt>
      <trkpt lat="43.151933" lon="-4.749083">
        <ele>2673.0</ele>
        <time>2015-03-17T14:32:04Z</time>
      </trkpt>
      <trkpt lat="43.151983" lon="-4.748933">
        <ele>2675.0</ele>
        <time>2015-03-17T14:32:05Z</time>
      </trkpt>
      <trkpt lat="43.152050" lon="-4.748800">
        <ele>2677.0</ele>
        <time>2015-03-17T14:32:06Z</time>
      </trkpt>
      <trkpt lat="43.152133" lon="-4.748683">
        <ele>2679.0</ele>
        <time>2015-03-17T14:32:07Z</time>
      </trkpt>
      <trkpt lat="43.152217" lon="-4.748567">
        <ele>2682.0</ele>
        <time>2015-03-17T14:32:08Z</time>
      </trkpt>
      <trkpt lat="43.152283" lon="-4.748450">
        <ele>2684.0</ele>
        <time>2015-03-17T14:32:09Z</time>
      </trkpt>
      <trkpt lat="43.152350" lon="-4.748333">
        <ele>2685.0</ele>
        <time>2015-03-17T14:32:10Z</time>
      </trkpt>
      <trkpt lat="43.152383" lon="-4.748200">
        <ele>2686.0</ele>
        <time>2015-03-17T14:32:11Z</time>
      </trkpt>
      <trkpt lat="43.152450" lon="-4.748083">
        <ele>2688.0</ele>
        <time>2015-03-17T14:32:12Z</time>
      </trkpt>
      <trkpt lat="43.152517" lon="-4.747967">
        <ele>2689.0</ele>
        <time>2015-03-17T14:32:13Z</time>
      </trkpt>
      <trkpt lat="43.152567" lon="-4.747867">
        <ele>2690.0</ele>
        <time>2015-03-17T14:32:14Z</time>
      </trkpt>
      <trkpt lat="43.152633" lon="-4.747783">
        <ele>2690.0</ele>
        <time>2015-03-17T14:32:15Z</time>
      </trkpt>
      <trkpt lat="43.152683" lon="-4.747667">
        <ele>2689.0</ele>
        <time>2015-03-17T14:32:16Z</time>
      </trkpt>
      <trkpt lat="43.152733" lon="-4.747550">
        <ele>2687.0</ele>
        <time>2015-03-17T14:32:17Z</time>
      </trkpt>
      <trkpt lat="43.152800" lon="-4.747433">
        <ele>2686.0</ele>
        <time>2015-03-17T14:32:18Z</time>
      </trkpt>
      <trkpt lat="43.152850" lon="-4.747317">
        <ele>2686.0</ele>
        <time>2015-03-17T14:32:19Z</time>
      </trkpt>
      <trkpt lat="43.152883" lon="-4.747217">
        <ele>2686.0</ele>
        <time>2015-03-17T14:32:20Z</time>
      </trkpt>
      <trkpt lat="43.152917" lon="-4.747133">
        <ele>2685.0</ele>
        <time>2015-03-17T14:32:21Z</time>
      </trkpt>
      <trkpt lat="43.152933" lon="-4.747033">
        <ele>2684.0</ele>
        <time>2015-03-17T14:32:22Z</time>
      </trkpt>
      <trkpt lat="43.152983" lon="-4.746917">
        <ele>2681.0</ele>
        <time>2015-03-17T14:32:23Z</time>
      </trkpt>
      <trkpt lat="43.153033" lon="-4.746800">
        <ele>2678.0</ele>
        <time>2015-03-17T14:32:24Z</time>
      </trkpt>
      <trkpt lat="43.153100" lon="-4.746667">
        <ele>2676.0</ele>
        <time>2015-03-17T14:32:25Z</time>
      </trkpt>
      <trkpt lat="43.153133" lon="-4.746533">
        <ele>2675.0</ele>
        <time>2015-03-17T14:32:26Z</time>
      </trkpt>
      <trkpt lat="43.153183" lon="-4.746400">
        <ele>2675.0</ele>
        <time>2015-03-17T14:32:27Z</time>
      </trkpt>
      <trkpt lat="43.153233" lon="-4.746283">
        <ele>2675.0</ele>
        <time>2015-03-17T14:32:28Z</time>
      </trkpt>
      <trkpt lat="43.153283" lon="-4.746167">
        <ele>2674.0</ele>
        <time>2015-03-17T14:32:29Z</time>
      </trkpt>
      <trkpt lat="43.153350" lon="-4.746050">
        <ele>2673.0</ele>
        <time>2015-03-17T14:32:30Z</time>
      </trkpt>
      <trkpt lat="43.153417" lon="-4.745917">
        <ele>2672.0</ele>
        <time>2015-03-17T14:32:31Z</time>
      </trkpt>
      <trkpt lat="43.153467" lon="-4.745783">
        <ele>2672.0</ele>
        <time>2015-03-17T14:32:32Z</time>
      </trkpt>
      <trkpt lat="43.153533" lon="-4.745650">
        <ele>2672.0</ele>
        <time>2015-03-17T14:32:33Z</time>
      </trkpt>
      <trkpt lat="43.153617" lon="-4.745533">
        <ele>2672.0</ele>
        <time>2015-03-17T14:32:34Z</time>
      </trkpt>
      <trkpt lat="43.153700" lon="-4.745433">
        <ele>2673.0</ele>
        <time>2015-03-17T14:32:35Z</time>
      </trkpt>
      <trkpt lat="43.153783" lon="-4.745350">
        <ele>2674.0</ele>
        <time>2015-03-17T14:32:36Z</time>
      </trkpt>
      <trkpt lat="43.153867" lon="-4.745250">
        <ele>2674.0</ele>
        <time>2015-03-17T14:32:37Z</time>
      </trkpt>
      <trkpt lat="43.153950" lon="-4.745133">
        <ele>2673.0</ele>
        <time>2015-03-17T14:32:38Z</time>
      </trkpt>
      <trkpt lat="43.154033" lon="-4.745000">
        <ele>2673.0</ele>
        <time>2015-03-17T14:32:39Z</time>
      </trkpt>
      <trkpt lat="43.154133" lon="-4.744900">
        <ele>2675.0</ele>
        <time>2015-03-17T14:32:40Z</time>
      </trkpt>
      <trkpt lat="43.154217" lon="-4.744783">
        <ele>2676.0</ele>
        <time>2015-03-17T14:32:41Z</time>
      </trkpt>
      <trkpt lat="43.154300" lon="-4.744683">
        <ele>2677.0</ele>
        <time>2015-03-17T14:32:42Z</time>
      </trkpt>
      <trkpt lat="43.154383" lon="-4.744583">
        <ele>2678.0</ele>
        <time>2015-03-17T14:32:43Z</time>
      </trkpt>
      <trkpt lat="43.154467" lon="-4.744483">
        <ele>2678.0</ele>
        <time>2015-03-17T14:32:44Z</time>
      </trkpt>
      <trkpt lat="43.154533" lon="-4.744383">
        <ele>2676.0</ele>
        <time>2015-03-17T14:32:45Z</time>
      </trkpt>
      <trkpt lat="43.154617" lon="-4.744283">
        <ele>2676.0</ele>
        <time>2015-03-17T14:32:46Z</time>
      </trkpt>
      <trkpt lat="43.154683" lon="-4.744200">
        <ele>2674.0</ele>
        <time>2015-03-17T14:32:47Z</time>
      </trkpt>
      <trkpt lat="43.154750" lon="-4.744100">
        <ele>2671.0</ele>
        <time>2015-03-17T14:32:48Z</time>
      </trkpt>
      <trkpt lat="43.154800" lon="-4.743983">
        <ele>2668.0</ele>
        <time>2015-03-17T14:32:49Z</time>
      </trkpt>
      <trkpt lat="43.154900" lon="-4.743883">
        <ele>2666.0</ele>
        <time>2015-03-17T14:32:50Z</time>
      </trkpt>
      <trkpt lat="43.155000" lon="-4.743783">
        <ele>2666.0</ele>
        <time>2015-03-17T14:32:51Z</time>
      </trkpt>
      <trkpt lat="43.155100" lon="-4.743700">
        <ele>2667.0</ele>
        <time>2015-03-17T14:32:52Z</time>
      </trkpt>
      <trkpt lat="43.155183" lon="-4.743617">
        <ele>2667.0</ele>
        <time>2015-03-17T14:32:53Z</time>
      </trkpt>
      <trkpt lat="43.155217" lon="-4.743517">
        <ele>2666.0</ele>
        <time>2015-03-17T14:32:54Z</time>
      </trkpt>
      <trkpt lat="43.155250" lon="-4.743400">
        <ele>2666.0</ele>
        <time>2015-03-17T14:32:55Z</time>
      </trkpt>
      <trkpt lat="43.155317" lon="-4.743283">
        <ele>2664.0</ele>
        <time>2015-03-17T14:32:56Z</time>
      </trkpt>
      <trkpt lat="43.155383" lon="-4.743167">
        <ele>2663.0</ele>
        <time>2015-03-17T14:32:57Z</time>
      </trkpt>
      <trkpt lat="43.155483" lon="-4.743083">
        <ele>2663.0</ele>
        <time>2015-03-17T14:32:58Z</time>
      </trkpt>
      <trkpt lat="43.155567" lon="-4.742983">
        <ele>2663.0</ele>
        <time>2015-03-17T14:32:59Z</time>
      </trkpt>
      <trkpt lat="43.155617" lon="-4.742900">
        <ele>2663.0</ele>
        <time>2015-03-17T14:33:00Z</time>
      </trkpt>
      <trkpt lat="43.155650" lon="-4.742800">
        <ele>2664.0</ele>
        <time>2015-03-17T14:33:01Z</time>
      </trkpt>
      <trkpt lat="43.155700" lon="-4.742700">
        <ele>2663.0</ele>
        <time>2015-03-17T14:33:02Z</time>
      </trkpt>
      <trkpt lat="43.155767" lon="-4.742600">
        <ele>2662.0</ele>
        <time>2015-03-17T14:33:03Z</time>
      </trkpt>
      <trkpt lat="43.155833" lon="-4.742500">
        <ele>2661.0</ele>
        <time>2015-03-17T14:33:04Z</time>
      </trkpt>
      <trkpt lat="43.155883" lon="-4.742367">
        <ele>2660.0</ele>
        <time>2015-03-17T14:33:05Z</time>
      </trkpt>
      <trkpt lat="43.155967" lon="-4.742233">
        <ele>2659.0</ele>
        <time>2015-03-17T14:33:06Z</time>
      </trkpt>
      <trkpt lat="43.156033" lon="-4.742117">
        <ele>2661.0</ele>
        <time>2015-03-17T14:33:07Z</time>
      </trkpt>
      <trkpt lat="43.156083" lon="-4.742017">
        <ele>2663.0</ele>
        <time>2015-03-17T14:33:08Z</time>
      </trkpt>
      <trkpt lat="43.156133" lon="-4.741933">
        <ele>2664.0</ele>
        <time>2015-03-17T14:33:09Z</time>
      </trkpt>
      <trkpt lat="43.156200" lon="-4.741833">
        <ele>2665.0</ele>
        <time>2015-03-17T14:33:10Z</time>
      </trkpt>
      <trkpt lat="43.156250" lon="-4.741733">
        <ele>2665.0</ele>
        <time>2015-03-17T14:33:11Z</time>
      </trkpt>
      <trkpt lat="43.156333" lon="-4.741617">
        <ele>2665.0</ele>
        <time>2015-03-17T14:33:12Z</time>
      </trkpt>
      <trkpt lat="43.156417" lon="-4.741483">
        <ele>2664.0</ele>
        <time>2015-03-17T14:33:13Z</time>
      </trkpt>
      <trkpt lat="43.156500" lon="-4.741367">
        <ele>2664.0</ele>
        <time>2015-03-17T14:33:14Z</time>
      </trkpt>
      <trkpt lat="43.156567" lon="-4.741267">
        <ele>2664.0</ele>
        <time>2015-03-17T14:33:15Z</time>
      </trkpt>
      <trkpt lat="43.156633" lon="-4.741150">
        <ele>2662.0</ele>
        <time>2015-03-17T14:33:16Z</time>
      </trkpt>
      <trkpt lat="43.156717" lon="-4.741017">
        <ele>2660.0</ele>
        <time>2015-03-17T14:33:17Z</time>
      </trkpt>
      <trkpt lat="43.156800" lon="-4.740900">
        <ele>2659.0</ele>
        <time>2015-03-17T14:33:18Z</time>
      </trkpt>
      <trkpt lat="43.156883" lon="-4.740783">
        <ele>2657.0</ele>
        <time>2015-03-17T14:33:19Z</time>
      </trkpt>
      <trkpt lat="43.156967" lon="-4.740667">
        <ele>2656.0</ele>
        <time>2015-03-17T14:33:20Z</time>
      </trkpt>
      <trkpt lat="43.157050" lon="-4.740550">
        <ele>2654.0</ele>
        <time>2015-03-17T14:33:21Z</time>
      </trkpt>
      <trkpt lat="43.157150" lon="-4.740450">
        <ele>2651.0</ele>
        <time>2015-03-17T14:33:22Z</time>
      </trkpt>
      <trkpt lat="43.157233" lon="-4.740333">
        <ele>2649.0</ele>
        <time>2015-03-17T14:33:23Z</time>
      </trkpt>
      <trkpt lat="43.157333" lon="-4.740217">
        <ele>2646.0</ele>
        <time>2015-03-17T14:33:24Z</time>
      </trkpt>
      <trkpt lat="43.157433" lon="-4.740083">
        <ele>2644.0</ele>
        <time>2015-03-17T14:33:25Z</time>
      </trkpt>
      <trkpt lat="43.157533" lon="-4.739967">
        <ele>2642.0</ele>
        <time>2015-03-17T14:33:26Z</time>
      </trkpt>
      <trkpt lat="43.157633" lon="-4.739883">
        <ele>2641.0</ele>
        <time>2015-03-17T14:33:27Z</time>
      </trkpt>
      <trkpt lat="43.157733" lon="-4.739783">
        <ele>2639.0</ele>
        <time>2015-03-17T14:33:28Z</time>
      </trkpt>
      <trkpt lat="43.157817" lon="-4.739683">
        <ele>2637.0</ele>
        <time>2015-03-17T14:33:29Z</time>
      </trkpt>
      <trkpt lat="43.157917" lon="-4.739583">
        <ele>2634.0</ele>
        <time>2015-03-17T14:33:30Z</time>
      </trkpt>
      <trkpt lat="43.158017" lon="-4.739467">
        <ele>2631.0</ele>
        <time>2015-03-17T14:33:31Z</time>
      </trkpt>
      <trkpt lat="43.158117" lon="-4.739367">
        <ele>2629.0</ele>
        <time>2015-03-17T14:33:32Z</time>
      </trkpt>
      <trkpt lat="43.158217" lon="-4.739267">
        <ele>2627.0</ele>
        <time>2015-03-17T14:33:33Z</time>
      </trkpt>
      <trkpt lat="43.158317" lon="-4.739167">
        <ele>2625.0</ele>
        <time>2015-03-17T14:33:34Z</time>
      </trkpt>
      <trkpt lat="43.158417" lon="-4.739067">
        <ele>2622.0</ele>
        <time>2015-03-17T14:33:35Z</time>
      </trkpt>
      <trkpt lat="43.158517" lon="-4.738967">
        <ele>2619.0</ele>
        <time>2015-03-17T14:33:36Z</time>
      </trkpt>
      <trkpt lat="43.158633" lon="-4.738867">
        <ele>2615.0</ele>
        <time>2015-03-17T14:33:37Z</time>
      </trkpt>
      <trkpt lat="43.158733" lon="-4.738750">
        <ele>2612.0</ele>
        <time>2015-03-17T14:33:38Z</time>
      </trkpt>
      <trkpt lat="43.158833" lon="-4.738633">
        <ele>2609.0</ele>
        <time>2015-03-17T14:33:39Z</time>
      </trkpt>
      <trkpt lat="43.158883" lon="-4.738550">
        <ele>2607.0</ele>
        <time>2015-03-17T14:33:40Z</time>
      </trkpt>
      <trkpt lat="43.158933" lon="-4.738467">
        <ele>2605.0</ele>
        <time>2015-03-17T14:33:41Z</time>
      </trkpt>
      <trkpt lat="43.159000" lon="-4.738367">
        <ele>2602.0</ele>
        <time>2015-03-17T14:33:42Z</time>
      </trkpt>
      <trkpt lat="43.159067" lon="-4.738267">
        <ele>2599.0</ele>
        <time>2015-03-17T14:33:43Z</time>
      </trkpt>
      <trkpt lat="43.159183" lon="-4.738167">
        <ele>2594.0</ele>
        <time>2015-03-17T14:33:44Z</time>
      </trkpt>
      <trkpt lat="43.159300" lon="-4.738067">
        <ele>2590.0</ele>
        <time>2015-03-17T14:33:45Z</time>
      </trkpt>
      <trkpt lat="43.159433" lon="-4.737950">
        <ele>2587.0</ele>
        <time>2015-03-17T14:33:46Z</time>
      </trkpt>
      <trkpt lat="43.159550" lon="-4.737850">
        <ele>2584.0</ele>
        <time>2015-03-17T14:33:47Z</time>
      </trkpt>
      <trkpt lat="43.159667" lon="-4.737750">
        <ele>2580.0</ele>
        <time>2015-03-17T14:33:48Z</time>
      </trkpt>
      <trkpt lat="43.159767" lon="-4.737650">
        <ele>2577.0</ele>
        <time>2015-03-17T14:33:49Z</time>
      </trkpt>
      <trkpt lat="43.159883" lon="-4.737567">
        <ele>2575.0</ele>
        <time>2015-03-17T14:33:50Z</time>
      </trkpt>
      <trkpt lat="43.159967" lon="-4.737467">
        <ele>2573.0</ele>
        <time>2015-03-17T14:33:51Z</time>
      </trkpt>
      <trkpt lat="43.160050" lon="-4.737367">
        <ele>2571.0</ele>
        <time>2015-03-17T14:33:52Z</time>
      </trkpt>
      <trkpt lat="43.160117" lon="-4.737283">
        <ele>2569.0</ele>
        <time>2015-03-17T14:33:53Z</time>
      </trkpt>
      <trkpt lat="43.160183" lon="-4.737183">
        <ele>2566.0</ele>
        <time>2015-03-17T14:33:54Z</time>
      </trkpt>
      <trkpt lat="43.160233" lon="-4.737083">
        <ele>2564.0</ele>
        <time>2015-03-17T14:33:55Z</time>
      </trkpt>
      <trkpt lat="43.160300" lon="-4.736967">
        <ele>2561.0</ele>
        <time>2015-03-17T14:33:56Z</time>
      </trkpt>
      <trkpt lat="43.160367" lon="-4.736850">
        <ele>2558.0</ele>
        <time>2015-03-17T14:33:57Z</time>
      </trkpt>
      <trkpt lat="43.160450" lon="-4.736750">
        <ele>2556.0</ele>
        <time>2015-03-17T14:33:58Z</time>
      </trkpt>
      <trkpt lat="43.160517" lon="-4.736650">
        <ele>2553.0</ele>
        <time>2015-03-17T14:33:59Z</time>
      </trkpt>
      <trkpt lat="43.160600" lon="-4.736550">
        <ele>2550.0</ele>
        <time>2015-03-17T14:34:00Z</time>
      </trkpt>
      <trkpt lat="43.160683" lon="-4.736433">
        <ele>2546.0</ele>
        <time>2015-03-17T14:34:01Z</time>
      </trkpt>
      <trkpt lat="43.160767" lon="-4.736317">
        <ele>2542.0</ele>
        <time>2015-03-17T14:34:02Z</time>
      </trkpt>
      <trkpt lat="43.160867" lon="-4.736167">
        <ele>2539.0</ele>
        <time>2015-03-17T14:34:03Z</time>
      </trkpt>
      <trkpt lat="43.160967" lon="-4.736033">
        <ele>2536.0</ele>
        <time>2015-03-17T14:34:04Z</time>
      </trkpt>
      <trkpt lat="43.161033" lon="-4.735917">
        <ele>2535.0</ele>
        <time>2015-03-17T14:34:05Z</time>
      </trkpt>
      <trkpt lat="43.161117" lon="-4.735800">
        <ele>2533.0</ele>
        <time>2015-03-17T14:34:06Z</time>
      </trkpt>
      <trkpt lat="43.161167" lon="-4.735700">
        <ele>2531.0</ele>
        <time>2015-03-17T14:34:07Z</time>
      </trkpt>
      <trkpt lat="43.161217" lon="-4.735583">
        <ele>2533.0</ele>
        <time>2015-03-17T14:34:08Z</time>
      </trkpt>
      <trkpt lat="43.161250" lon="-4.735483">
        <ele>2533.0</ele>
        <time>2015-03-17T14:34:09Z</time>
      </trkpt>
      <trkpt lat="43.161283" lon="-4.735367">
        <ele>2532.0</ele>
        <time>2015-03-17T14:34:10Z</time>
      </trkpt>
      <trkpt lat="43.161333" lon="-4.735233">
        <ele>2530.0</ele>
        <time>2015-03-17T14:34:11Z</time>
      </trkpt>
      <trkpt lat="43.161417" lon="-4.735067">
        <ele>2526.0</ele>
        <time>2015-03-17T14:34:12Z</time>
      </trkpt>
      <trkpt lat="43.161500" lon="-4.734950">
        <ele>2522.0</ele>
        <time>2015-03-17T14:34:13Z</time>
      </trkpt>
      <trkpt lat="43.161600" lon="-4.734833">
        <ele>2517.0</ele>
        <time>2015-03-17T14:34:14Z</time>
      </trkpt>
      <trkpt lat="43.161700" lon="-4.734717">
        <ele>2513.0</ele>
        <time>2015-03-17T14:34:15Z</time>
      </trkpt>
      <trkpt lat="43.161817" lon="-4.734617">
        <ele>2509.0</ele>
        <time>2015-03-17T14:34:16Z</time>
      </trkpt>
      <trkpt lat="43.161917" lon="-4.734517">
        <ele>2505.0</ele>
        <time>2015-03-17T14:34:17Z</time>
      </trkpt>
      <trkpt lat="43.162033" lon="-4.734417">
        <ele>2501.0</ele>
        <time>2015-03-17T14:34:18Z</time>
      </trkpt>
      <trkpt lat="43.162133" lon="-4.734317">
        <ele>2497.0</ele>
        <time>2015-03-17T14:34:19Z</time>
      </trkpt>
      <trkpt lat="43.162250" lon="-4.734217">
        <ele>2494.0</ele>
        <time>2015-03-17T14:34:20Z</time>
      </trkpt>
      <trkpt lat="43.162367" lon="-4.734117">
        <ele>2491.0</ele>
        <time>2015-03-17T14:34:21Z</time>
      </trkpt>
      <trkpt lat="43.162483" lon="-4.734033">
        <ele>2488.0</ele>
        <time>2015-03-17T14:34:22Z</time>
      </trkpt>
      <trkpt lat="43.162600" lon="-4.733933">
        <ele>2484.0</ele>
        <time>2015-03-17T14:34:23Z</time>
      </trkpt>
      <trkpt lat="43.162717" lon="-4.733833">
        <ele>2480.0</ele>
        <time>2015-03-17T14:34:24Z</time>
      </trkpt>
      <trkpt lat="43.162850" lon="-4.733750">
        <ele>2477.0</ele>
        <time>2015-03-17T14:34:25Z</time>
      </trkpt>
      <trkpt lat="43.162967" lon="-4.733683">
        <ele>2474.0</ele>
        <time>2015-03-17T14:34:26Z</time>
      </trkpt>
      <trkpt lat="43.163100" lon="-4.733617">
        <ele>2471.0</ele>
        <time>2015-03-17T14:34:27Z</time>
      </trkpt>
      <trkpt lat="43.163233" lon="-4.733550">
        <ele>2468.0</ele>
        <time>2015-03-17T14:34:28Z</time>
      </trkpt>
      <trkpt lat="43.163350" lon="-4.733483">
        <ele>2464.0</ele>
        <time>2015-03-17T14:34:29Z</time>
      </trkpt>
      <trkpt lat="43.163483" lon="-4.733400">
        <ele>2462.0</ele>
        <time>2015-03-17T14:34:30Z</time>
      </trkpt>
      <trkpt lat="43.163583" lon="-4.733300">
        <ele>2460.0</ele>
        <time>2015-03-17T14:34:31Z</time>
      </trkpt>
      <trkpt lat="43.163667" lon="-4.733200">
        <ele>2458.0</ele>
        <time>2015-03-17T14:34:32Z</time>
      </trkpt>
      <trkpt lat="43.163750" lon="-4.733100">
        <ele>2455.0</ele>
        <time>2015-03-17T14:34:33Z</time>
      </trkpt>
      <trkpt lat="43.163850" lon="-4.732983">
        <ele>2450.0</ele>
        <time>2015-03-17T14:34:34Z</time>
      </trkpt>
      <trkpt lat="43.163967" lon="-4.732883">
        <ele>2447.0</ele>
        <time>2015-03-17T14:34:35Z</time>
      </trkpt>
      <trkpt lat="43.164100" lon="-4.732800">
        <ele>2444.0</ele>
        <time>2015-03-17T14:34:36Z</time>
      </trkpt>
      <trkpt lat="43.164217" lon="-4.732700">
        <ele>2442.0</ele>
        <time>2015-03-17T14:34:37Z</time>
      </trkpt>
      <trkpt lat="43.164300" lon="-4.732600">
        <ele>2441.0</ele>
        <time>2015-03-17T14:34:38Z</time>
      </trkpt>
      <trkpt lat="43.164383" lon="-4.732500">
        <ele>2439.0</ele>
        <time>2015-03-17T14:34:39Z</time>
      </trkpt>
      <trkpt lat="43.164433" lon="-4.732417">
        <ele>2438.0</ele>
        <time>2015-03-17T14:34:40Z</time>
      </trkpt>
      <trkpt lat="43.164500" lon="-4.732333">
        <ele>2438.0</ele>
        <time>2015-03-17T14:34:41Z</time>
      </trkpt>
      <trkpt lat="43.164567" lon="-4.732233">
        <ele>2436.0</ele>
        <time>2015-03-17T14:34:42Z</time>
      </trkpt>
      <trkpt lat="43.164650" lon="-4.732150">
        <ele>2433.0</ele>
        <time>2015-03-17T14:34:43Z</time>
      </trkpt>
      <trkpt lat="43.164733" lon="-4.732050">
        <ele>2431.0</ele>
        <time>2015-03-17T14:34:44Z</time>
      </trkpt>
      <trkpt lat="43.164817" lon="-4.731950">
        <ele>2429.0</ele>
        <time>2015-03-17T14:34:45Z</time>
      </trkpt>
      <trkpt lat="43.164900" lon="-4.731850">
        <ele>2426.0</ele>
        <time>2015-03-17T14:34:46Z</time>
      </trkpt>
      <trkpt lat="43.165000" lon="-4.731750">
        <ele>2424.0</ele>
        <time>2015-03-17T14:34:47Z</time>
      </trkpt>
      <trkpt lat="43.165100" lon="-4.731650">
        <ele>2422.0</ele>
        <time>2015-03-17T14:34:48Z</time>
      </trkpt>
      <trkpt lat="43.165200" lon="-4.731533">
        <ele>2420.0</ele>
        <time>2015-03-17T14:34:49Z</time>
      </trkpt>
      <trkpt lat="43.165300" lon="-4.731433">
        <ele>2419.0</ele>
        <time>2015-03-17T14:34:50Z</time>
      </trkpt>
      <trkpt lat="43.165400" lon="-4.731350">
        <ele>2418.0</ele>
        <time>2015-03-17T14:34:51Z</time>
      </trkpt>
      <trkpt lat="43.165483" lon="-4.731250">
        <ele>2416.0</ele>
        <time>2015-03-17T14:34:52Z</time>
      </trkpt>
      <trkpt lat="43.165583" lon="-4.731150">
        <ele>2415.0</ele>
        <time>2015-03-17T14:34:53Z</time>
      </trkpt>
      <trkpt lat="43.165667" lon="-4.731050">
        <ele>2414.0</ele>
        <time>2015-03-17T14:34:54Z</time>
      </trkpt>
      <trkpt lat="43.165733" lon="-4.730967">
        <ele>2414.0</ele>
        <time>2015-03-17T14:34:55Z</time>
      </trkpt>
      <trkpt lat="43.165800" lon="-4.730867">
        <ele>2412.0</ele>
        <time>2015-03-17T14:34:56Z</time>
      </trkpt>
      <trkpt lat="43.165883" lon="-4.730767">
        <ele>2410.0</ele>
        <time>2015-03-17T14:34:57Z</time>
      </trkpt>
      <trkpt lat="43.165967" lon="-4.730667">
        <ele>2408.0</ele>
        <time>2015-03-17T14:34:58Z</time>
      </trkpt>
      <trkpt lat="43.166067" lon="-4.730550">
        <ele>2406.0</ele>
        <time>2015-03-17T14:34:59Z</time>
      </trkpt>
      <trkpt lat="43.166167" lon="-4.730450">
        <ele>2405.0</ele>
        <time>2015-03-17T14:35:00Z</time>
      </trkpt>
      <trkpt lat="43.166267" lon="-4.730333">
        <ele>2404.0</ele>
        <time>2015-03-17T14:35:01Z</time>
      </trkpt>
      <trkpt lat="43.166350" lon="-4.730233">
        <ele>2403.0</ele>
        <time>2015-03-17T14:35:02Z</time>
      </trkpt>
      <trkpt lat="43.166433" lon="-4.730133">
        <ele>2402.0</ele>
        <time>2015-03-17T14:35:03Z</time>
      </trkpt>
      <trkpt lat="43.166517" lon="-4.730033">
        <ele>2400.0</ele>
        <time>2015-03-17T14:35:04Z</time>
      </trkpt>
      <trkpt lat="43.166617" lon="-4.729950">
        <ele>2398.0</ele>
        <time>2015-03-17T14:35:05Z</time>
      </trkpt>
      <trkpt lat="43.166733" lon="-4.729850">
        <ele>2396.0</ele>
        <time>2015-03-17T14:35:06Z</time>
      </trkpt>
      <trkpt lat="43.166833" lon="-4.729733">
        <ele>2394.0</ele>
        <time>2015-03-17T14:35:07Z</time>
      </trkpt>
      <trkpt lat="43.166933" lon="-4.729633">
        <ele>2393.0</ele>
        <time>2015-03-17T14:35:08Z</time>
      </trkpt>
      <trkpt lat="43.167017" lon="-4.729533">
        <ele>2392.0</ele>
        <time>2015-03-17T14:35:09Z</time>
      </trkpt>
      <trkpt lat="43.167100" lon="-4.729433">
        <ele>2390.0</ele>
        <time>2015-03-17T14:35:10Z</time>
      </trkpt>
      <trkpt lat="43.167183" lon="-4.729333">
        <ele>2389.0</ele>
        <time>2015-03-17T14:35:11Z</time>
      </trkpt>
      <trkpt lat="43.167267" lon="-4.729233">
        <ele>2386.0</ele>
        <time>2015-03-17T14:35:12Z</time>
      </trkpt>
      <trkpt lat="43.167333" lon="-4.729133">
        <ele>2384.0</ele>
        <time>2015-03-17T14:35:13Z</time>
      </trkpt>
      <trkpt lat="43.167417" lon="-4.729033">
        <ele>2382.0</ele>
        <time>2015-03-17T14:35:14Z</time>
      </trkpt>
      <trkpt lat="43.167483" lon="-4.728917">
        <ele>2380.0</ele>
        <time>2015-03-17T14:35:15Z</time>
      </trkpt>
      <trkpt lat="43.167550" lon="-4.728817">
        <ele>2378.0</ele>
        <time>2015-03-17T14:35:16Z</time>
      </trkpt>
      <trkpt lat="43.167617" lon="-4.728733">
        <ele>2376.0</ele>
        <time>2015-03-17T14:35:17Z</time>
      </trkpt>
      <trkpt lat="43.167683" lon="-4.728617">
        <ele>2373.0</ele>
        <time>2015-03-17T14:35:18Z</time>
      </trkpt>
      <trkpt lat="43.167750" lon="-4.728483">
        <ele>2370.0</ele>
        <time>2015-03-17T14:35:19Z</time>
      </trkpt>
      <trkpt lat="43.167833" lon="-4.728350">
        <ele>2366.0</ele>
        <time>2015-03-17T14:35:20Z</time>
      </trkpt>
      <trkpt lat="43.167917" lon="-4.728200">
        <ele>2363.0</ele>
        <time>2015-03-17T14:35:21Z</time>
      </trkpt>
      <trkpt lat="43.168000" lon="-4.728067">
        <ele>2363.0</ele>
        <time>2015-03-17T14:35:22Z</time>
      </trkpt>
      <trkpt lat="43.168083" lon="-4.727950">
        <ele>2362.0</ele>
        <time>2015-03-17T14:35:23Z</time>
      </trkpt>
      <trkpt lat="43.168167" lon="-4.727850">
        <ele>2361.0</ele>
        <time>2015-03-17T14:35:24Z</time>
      </trkpt>
      <trkpt lat="43.168250" lon="-4.727750">
        <ele>2359.0</ele>
        <time>2015-03-17T14:35:25Z</time>
      </trkpt>
      <trkpt lat="43.168333" lon="-4.727650">
        <ele>2357.0</ele>
        <time>2015-03-17T14:35:26Z</time>
      </trkpt>
      <trkpt lat="43.168417" lon="-4.727567">
        <ele>2356.0</ele>
        <time>2015-03-17T14:35:27Z</time>
      </trkpt>
      <trkpt lat="43.168517" lon="-4.727467">
        <ele>2354.0</ele>
        <time>2015-03-17T14:35:28Z</time>
      </trkpt>
      <trkpt lat="43.168600" lon="-4.727383">
        <ele>2353.0</ele>
        <time>2015-03-17T14:35:29Z</time>
      </trkpt>
      <trkpt lat="43.168700" lon="-4.727300">
        <ele>2351.0</ele>
        <time>2015-03-17T14:35:30Z</time>
      </trkpt>
      <trkpt lat="43.168783" lon="-4.727200">
        <ele>2349.0</ele>
        <time>2015-03-17T14:35:31Z</time>
      </trkpt>
      <trkpt lat="43.168883" lon="-4.727100">
        <ele>2347.0</ele>
        <time>2015-03-17T14:35:32Z</time>
      </trkpt>
      <trkpt lat="43.169000" lon="-4.727000">
        <ele>2345.0</ele>
        <time>2015-03-17T14:35:33Z</time>
      </trkpt>
      <trkpt lat="43.169117" lon="-4.726900">
        <ele>2343.0</ele>
        <time>2015-03-17T14:35:34Z</time>
      </trkpt>
      <trkpt lat="43.169217" lon="-4.726800">
        <ele>2342.0</ele>
        <time>2015-03-17T14:35:35Z</time>
      </trkpt>
      <trkpt lat="43.169333" lon="-4.726700">
        <ele>2341.0</ele>
        <time>2015-03-17T14:35:36Z</time>
      </trkpt>
      <trkpt lat="43.169450" lon="-4.726617">
        <ele>2339.0</ele>
        <time>2015-03-17T14:35:37Z</time>
      </trkpt>
      <trkpt lat="43.169583" lon="-4.726533">
        <ele>2338.0</ele>
        <time>2015-03-17T14:35:38Z</time>
      </trkpt>
      <trkpt lat="43.169700" lon="-4.726450">
        <ele>2336.0</ele>
        <time>2015-03-17T14:35:39Z</time>
      </trkpt>
      <trkpt lat="43.169817" lon="-4.726383">
        <ele>2335.0</ele>
        <time>2015-03-17T14:35:40Z</time>
      </trkpt>
      <trkpt lat="43.169950" lon="-4.726300">
        <ele>2334.0</ele>
        <time>2015-03-17T14:35:41Z</time>
      </trkpt>
      <trkpt lat="43.170067" lon="-4.726217">
        <ele>2333.0</ele>
        <time>2015-03-17T14:35:42Z</time>
      </trkpt>
      <trkpt lat="43.170183" lon="-4.726150">
        <ele>2331.0</ele>
        <time>2015-03-17T14:35:43Z</time>
      </trkpt>
      <trkpt lat="43.170300" lon="-4.726067">
        <ele>2330.0</ele>
        <time>2015-03-17T14:35:44Z</time>
      </trkpt>
      <trkpt lat="43.170433" lon="-4.725983">
        <ele>2329.0</ele>
        <time>2015-03-17T14:35:45Z</time>
      </trkpt>
      <trkpt lat="43.170550" lon="-4.725883">
        <ele>2327.0</ele>
        <time>2015-03-17T14:35:46Z</time>
      </trkpt>
      <trkpt lat="43.170667" lon="-4.725800">
        <ele>2326.0</ele>
        <time>2015-03-17T14:35:47Z</time>
      </trkpt>
      <trkpt lat="43.170783" lon="-4.725717">
        <ele>2324.0</ele>
        <time>2015-03-17T14:35:48Z</time>
      </trkpt>
      <trkpt lat="43.170917" lon="-4.725633">
        <ele>2323.0</ele>
        <time>2015-03-17T14:35:49Z</time>
      </trkpt>
      <trkpt lat="43.171033" lon="-4.725550">
        <ele>2322.0</ele>
        <time>2015-03-17T14:35:50Z</time>
      </trkpt>
      <trkpt lat="43.171150" lon="-4.725467">
        <ele>2320.0</ele>
        <time>2015-03-17T14:35:51Z</time>
      </trkpt>
      <trkpt lat="43.171267" lon="-4.725383">
        <ele>2318.0</ele>
        <time>2015-03-17T14:35:52Z</time>
      </trkpt>
      <trkpt lat="43.171400" lon="-4.725283">
        <ele>2317.0</ele>
        <time>2015-03-17T14:35:53Z</time>
      </trkpt>
      <trkpt lat="43.171517" lon="-4.725200">
        <ele>2315.0</ele>
        <time>2015-03-17T14:35:54Z</time>
      </trkpt>
      <trkpt lat="43.171633" lon="-4.725100">
        <ele>2314.0</ele>
        <time>2015-03-17T14:35:55Z</time>
      </trkpt>
      <trkpt lat="43.171750" lon="-4.725017">
        <ele>2313.0</ele>
        <time>2015-03-17T14:35:56Z</time>
      </trkpt>
      <trkpt lat="43.171867" lon="-4.724917">
        <ele>2313.0</ele>
        <time>2015-03-17T14:35:57Z</time>
      </trkpt>
      <trkpt lat="43.171983" lon="-4.724833">
        <ele>2312.0</ele>
        <time>2015-03-17T14:35:58Z</time>
      </trkpt>
      <trkpt lat="43.172083" lon="-4.724767">
        <ele>2312.0</ele>
        <time>2015-03-17T14:35:59Z</time>
      </trkpt>
      <trkpt lat="43.172200" lon="-4.724700">
        <ele>2313.0</ele>
        <time>2015-03-17T14:36:00Z</time>
      </trkpt>
      <trkpt lat="43.172317" lon="-4.724650">
        <ele>2312.0</ele>
        <time>2015-03-17T14:36:01Z</time>
      </trkpt>
      <trkpt lat="43.172417" lon="-4.724567">
        <ele>2312.0</ele>
        <time>2015-03-17T14:36:02Z</time>
      </trkpt>
      <trkpt lat="43.172533" lon="-4.724500">
        <ele>2311.0</ele>
        <time>2015-03-17T14:36:03Z</time>
      </trkpt>
      <trkpt lat="43.172633" lon="-4.724433">
        <ele>2311.0</ele>
        <time>2015-03-17T14:36:04Z</time>
      </trkpt>
      <trkpt lat="43.172750" lon="-4.724367">
        <ele>2311.0</ele>
        <time>2015-03-17T14:36:05Z</time>
      </trkpt>
      <trkpt lat="43.172867" lon="-4.724317">
        <ele>2311.0</ele>
        <time>2015-03-17T14:36:06Z</time>
      </trkpt>
      <trkpt lat="43.172983" lon="-4.724267">
        <ele>2312.0</ele>
        <time>2015-03-17T14:36:07Z</time>
      </trkpt>
      <trkpt lat="43.173083" lon="-4.724217">
        <ele>2311.0</ele>
        <time>2015-03-17T14:36:08Z</time>
      </trkpt>
      <trkpt lat="43.173183" lon="-4.724150">
        <ele>2311.0</ele>
        <time>2015-03-17T14:36:09Z</time>
      </trkpt>
      <trkpt lat="43.173300" lon="-4.724083">
        <ele>2310.0</ele>
        <time>2015-03-17T14:36:10Z</time>
      </trkpt>
      <trkpt lat="43.173400" lon="-4.724017">
        <ele>2309.0</ele>
        <time>2015-03-17T14:36:11Z</time>
      </trkpt>
      <trkpt lat="43.173500" lon="-4.723933">
        <ele>2309.0</ele>
        <time>2015-03-17T14:36:12Z</time>
      </trkpt>
      <trkpt lat="43.173583" lon="-4.723867">
        <ele>2308.0</ele>
        <time>2015-03-17T14:36:13Z</time>
      </trkpt>
      <trkpt lat="43.173633" lon="-4.723783">
        <ele>2307.0</ele>
        <time>2015-03-17T14:36:14Z</time>
      </trkpt>
      <trkpt lat="43.173683" lon="-4.723700">
        <ele>2306.0</ele>
        <time>2015-03-17T14:36:15Z</time>
      </trkpt>
      <trkpt lat="43.173717" lon="-4.723600">
        <ele>2304.0</ele>
        <time>2015-03-17T14:36:16Z</time>
      </trkpt>
      <trkpt lat="43.173733" lon="-4.723500">
        <ele>2302.0</ele>
        <time>2015-03-17T14:36:17Z</time>
      </trkpt>
      <trkpt lat="43.173783" lon="-4.723400">
        <ele>2301.0</ele>
        <time>2015-03-17T14:36:18Z</time>
      </trkpt>
      <trkpt lat="43.173833" lon="-4.723300">
        <ele>2299.0</ele>
        <time>2015-03-17T14:36:19Z</time>
      </trkpt>
      <trkpt lat="43.173883" lon="-4.723217">
        <ele>2299.0</ele>
        <time>2015-03-17T14:36:20Z</time>
      </trkpt>
      <trkpt lat="43.173950" lon="-4.723133">
        <ele>2298.0</ele>
        <time>2015-03-17T14:36:21Z</time>
      </trkpt>
      <trkpt lat="43.174000" lon="-4.723050">
        <ele>2298.0</ele>
        <time>2015-03-17T14:36:22Z</time>
      </trkpt>
      <trkpt lat="43.174050" lon="-4.722967">
        <ele>2298.0</ele>
        <time>2015-03-17T14:36:23Z</time>
      </trkpt>
      <trkpt lat="43.174100" lon="-4.722883">
        <ele>2296.0</ele>
        <time>2015-03-17T14:36:24Z</time>
      </trkpt>
      <trkpt lat="43.174167" lon="-4.722800">
        <ele>2295.0</ele>
        <time>2015-03-17T14:36:25Z</time>
      </trkpt>
      <trkpt lat="43.174217" lon="-4.722717">
        <ele>2293.0</ele>
        <time>2015-03-17T14:36:26Z</time>
      </trkpt>
      <trkpt lat="43.174283" lon="-4.722633">
        <ele>2292.0</ele>
        <time>2015-03-17T14:36:27Z</time>
      </trkpt>
      <trkpt lat="43.174350" lon="-4.722550">
        <ele>2291.0</ele>
        <time>2015-03-17T14:36:28Z</time>
      </trkpt>
      <trkpt lat="43.174417" lon="-4.722467">
        <ele>2289.0</ele>
        <time>2015-03-17T14:36:29Z</time>
      </trkpt>
      <trkpt lat="43.174483" lon="-4.722367">
        <ele>2288.0</ele>
        <time>2015-03-17T14:36:30Z</time>
      </trkpt>
      <trkpt lat="43.174567" lon="-4.722267">
        <ele>2285.0</ele>
        <time>2015-03-17T14:36:31Z</time>
      </trkpt>
      <trkpt lat="43.174650" lon="-4.722150">
        <ele>2282.0</ele>
        <time>2015-03-17T14:36:32Z</time>
      </trkpt>
      <trkpt lat="43.174750" lon="-4.722050">
        <ele>2281.0</ele>
        <time>2015-03-17T14:36:33Z</time>
      </trkpt>
      <trkpt lat="43.174833" lon="-4.721950">
        <ele>2280.0</ele>
        <time>2015-03-17T14:36:34Z</time>
      </trkpt>
      <trkpt lat="43.174917" lon="-4.721867">
        <ele>2280.0</ele>
        <time>2015-03-17T14:36:35Z</time>
      </trkpt>
      <trkpt lat="43.174983" lon="-4.721783">
        <ele>2278.0</ele>
        <time>2015-03-17T14:36:36Z</time>
      </trkpt>
      <trkpt lat="43.175050" lon="-4.721700">
        <ele>2277.0</ele>
        <time>2015-03-17T14:36:37Z</time>
      </trkpt>
      <trkpt lat="43.175133" lon="-4.721600">
        <ele>2274.0</ele>
        <time>2015-03-17T14:36:38Z</time>
      </trkpt>
      <trkpt lat="43.175217" lon="-4.721500">
        <ele>2273.0</ele>
        <time>2015-03-17T14:36:39Z</time>
      </trkpt>
      <trkpt lat="43.175300" lon="-4.721417">
        <ele>2273.0</ele>
        <time>2015-03-17T14:36:40Z</time>
      </trkpt>
      <trkpt lat="43.175350" lon="-4.721350">
        <ele>2272.0</ele>
        <time>2015-03-17T14:36:41Z</time>
      </trkpt>
      <trkpt lat="43.175383" lon="-4.721267">
        <ele>2273.0</ele>
        <time>2015-03-17T14:36:42Z</time>
      </trkpt>
      <trkpt lat="43.175433" lon="-4.721183">
        <ele>2272.0</ele>
        <time>2015-03-17T14:36:43Z</time>
      </trkpt>
      <trkpt lat="43.175500" lon="-4.721083">
        <ele>2270.0</ele>
        <time>2015-03-17T14:36:44Z</time>
      </trkpt>
      <trkpt lat="43.175567" lon="-4.720983">
        <ele>2268.0</ele>
        <time>2015-03-17T14:36:45Z</time>
      </trkpt>
      <trkpt lat="43.175633" lon="-4.720883">
        <ele>2267.0</ele>
        <time>2015-03-17T14:36:46Z</time>
      </trkpt>
      <trkpt lat="43.175683" lon="-4.720800">
        <ele>2266.0</ele>
        <time>2015-03-17T14:36:47Z</time>
      </trkpt>
      <trkpt lat="43.175750" lon="-4.720717">
        <ele>2264.0</ele>
        <time>2015-03-17T14:36:48Z</time>
      </trkpt>
      <trkpt lat="43.175817" lon="-4.720633">
        <ele>2262.0</ele>
        <time>2015-03-17T14:36:49Z</time>
      </trkpt>
      <trkpt lat="43.175900" lon="-4.720517">
        <ele>2258.0</ele>
        <time>2015-03-17T14:36:50Z</time>
      </trkpt>
      <trkpt lat="43.175983" lon="-4.720400">
        <ele>2256.0</ele>
        <time>2015-03-17T14:36:51Z</time>
      </trkpt>
      <trkpt lat="43.176067" lon="-4.720300">
        <ele>2256.0</ele>
        <time>2015-03-17T14:36:52Z</time>
      </trkpt>
      <trkpt lat="43.176133" lon="-4.720217">
        <ele>2256.0</ele>
        <time>2015-03-17T14:36:53Z</time>
      </trkpt>
      <trkpt lat="43.176200" lon="-4.720133">
        <ele>2255.0</ele>
        <time>2015-03-17T14:36:54Z</time>
      </trkpt>
      <trkpt lat="43.176267" lon="-4.720067">
        <ele>2253.0</ele>
        <time>2015-03-17T14:36:55Z</time>
      </trkpt>
      <trkpt lat="43.176350" lon="-4.719967">
        <ele>2251.0</ele>
        <time>2015-03-17T14:36:56Z</time>
      </trkpt>
      <trkpt lat="43.176433" lon="-4.719850">
        <ele>2249.0</ele>
        <time>2015-03-17T14:36:57Z</time>
      </trkpt>
      <trkpt lat="43.176517" lon="-4.719750">
        <ele>2248.0</ele>
        <time>2015-03-17T14:36:58Z</time>
      </trkpt>
      <trkpt lat="43.176583" lon="-4.719667">
        <ele>2246.0</ele>
        <time>2015-03-17T14:36:59Z</time>
      </trkpt>
      <trkpt lat="43.176667" lon="-4.719583">
        <ele>2245.0</ele>
        <time>2015-03-17T14:37:00Z</time>
      </trkpt>
      <trkpt lat="43.176733" lon="-4.719500">
        <ele>2244.0</ele>
        <time>2015-03-17T14:37:01Z</time>
      </trkpt>
      <trkpt lat="43.176833" lon="-4.719417">
        <ele>2242.0</ele>
        <time>2015-03-17T14:37:02Z</time>
      </trkpt>
      <trkpt lat="43.176917" lon="-4.719350">
        <ele>2240.0</ele>
        <time>2015-03-17T14:37:03Z</time>
      </trkpt>
      <trkpt lat="43.177000" lon="-4.719267">
        <ele>2238.0</ele>
        <time>2015-03-17T14:37:04Z</time>
      </trkpt>
      <trkpt lat="43.177100" lon="-4.719200">
        <ele>2236.0</ele>
        <time>2015-03-17T14:37:05Z</time>
      </trkpt>
      <trkpt lat="43.177183" lon="-4.719100">
        <ele>2234.0</ele>
        <time>2015-03-17T14:37:06Z</time>
      </trkpt>
      <trkpt lat="43.177267" lon="-4.719000">
        <ele>2232.0</ele>
        <time>2015-03-17T14:37:07Z</time>
      </trkpt>
      <trkpt lat="43.177350" lon="-4.718900">
        <ele>2231.0</ele>
        <time>2015-03-17T14:37:08Z</time>
      </trkpt>
      <trkpt lat="43.177450" lon="-4.718817">
        <ele>2229.0</ele>
        <time>2015-03-17T14:37:09Z</time>
      </trkpt>
      <trkpt lat="43.177533" lon="-4.718733">
        <ele>2228.0</ele>
        <time>2015-03-17T14:37:10Z</time>
      </trkpt>
      <trkpt lat="43.177633" lon="-4.718650">
        <ele>2226.0</ele>
        <time>2015-03-17T14:37:11Z</time>
      </trkpt>
      <trkpt lat="43.177733" lon="-4.718583">
        <ele>2224.0</ele>
        <time>2015-03-17T14:37:12Z</time>
      </trkpt>
      <trkpt lat="43.177833" lon="-4.718500">
        <ele>2222.0</ele>
        <time>2015-03-17T14:37:13Z</time>
      </trkpt>
      <trkpt lat="43.177933" lon="-4.718417">
        <ele>2221.0</ele>
        <time>2015-03-17T14:37:14Z</time>
      </trkpt>
      <trkpt lat="43.178033" lon="-4.718367">
        <ele>2220.0</ele>
        <time>2015-03-17T14:37:15Z</time>
      </trkpt>
      <trkpt lat="43.178150" lon="-4.718300">
        <ele>2219.0</ele>
        <time>2015-03-17T14:37:16Z</time>
      </trkpt>
      <trkpt lat="43.178250" lon="-4.718250">
        <ele>2218.0</ele>
        <time>2015-03-17T14:37:17Z</time>
      </trkpt>
      <trkpt lat="43.178350" lon="-4.718183">
        <ele>2216.0</ele>
        <time>2015-03-17T14:37:18Z</time>
      </trkpt>
      <trkpt lat="43.178450" lon="-4.718100">
        <ele>2214.0</ele>
        <time>2015-03-17T14:37:19Z</time>
      </trkpt>
      <trkpt lat="43.178550" lon="-4.718033">
        <ele>2213.0</ele>
        <time>2015-03-17T14:37:20Z</time>
      </trkpt>
      <trkpt lat="43.178650" lon="-4.717950">
        <ele>2212.0</ele>
        <time>2015-03-17T14:37:21Z</time>
      </trkpt>
      <trkpt lat="43.178750" lon="-4.717883">
        <ele>2211.0</ele>
        <time>2015-03-17T14:37:22Z</time>
      </trkpt>
      <trkpt lat="43.178850" lon="-4.717817">
        <ele>2210.0</ele>
        <time>2015-03-17T14:37:23Z</time>
      </trkpt>
      <trkpt lat="43.178950" lon="-4.717767">
        <ele>2209.0</ele>
        <time>2015-03-17T14:37:24Z</time>
      </trkpt>
      <trkpt lat="43.179067" lon="-4.717700">
        <ele>2208.0</ele>
        <time>2015-03-17T14:37:25Z</time>
      </trkpt>
      <trkpt lat="43.179167" lon="-4.717633">
        <ele>2207.0</ele>
        <time>2015-03-17T14:37:26Z</time>
      </trkpt>
      <trkpt lat="43.179267" lon="-4.717550">
        <ele>2205.0</ele>
        <time>2015-03-17T14:37:27Z</time>
      </trkpt>
      <trkpt lat="43.179367" lon="-4.717483">
        <ele>2204.0</ele>
        <time>2015-03-17T14:37:28Z</time>
      </trkpt>
      <trkpt lat="43.179467" lon="-4.717417">
        <ele>2203.0</ele>
        <time>2015-03-17T14:37:29Z</time>
      </trkpt>
      <trkpt lat="43.179583" lon="-4.717333">
        <ele>2201.0</ele>
        <time>2015-03-17T14:37:30Z</time>
      </trkpt>
      <trkpt lat="43.179683" lon="-4.717267">
        <ele>2200.0</ele>
        <time>2015-03-17T14:37:31Z</time>
      </trkpt>
      <trkpt lat="43.179783" lon="-4.717183">
        <ele>2198.0</ele>
        <time>2015-03-17T14:37:32Z</time>
      </trkpt>
      <trkpt lat="43.179883" lon="-4.717100">
        <ele>2196.0</ele>
        <time>2015-03-17T14:37:33Z</time>
      </trkpt>
      <trkpt lat="43.179983" lon="-4.717017">
        <ele>2195.0</ele>
        <time>2015-03-17T14:37:34Z</time>
      </trkpt>
      <trkpt lat="43.180083" lon="-4.716933">
        <ele>2193.0</ele>
        <time>2015-03-17T14:37:35Z</time>
      </trkpt>
      <trkpt lat="43.180183" lon="-4.716850">
        <ele>2192.0</ele>
        <time>2015-03-17T14:37:36Z</time>
      </trkpt>
      <trkpt lat="43.180283" lon="-4.716767">
        <ele>2190.0</ele>
        <time>2015-03-17T14:37:37Z</time>
      </trkpt>
      <trkpt lat="43.180367" lon="-4.716667">
        <ele>2189.0</ele>
        <time>2015-03-17T14:37:38Z</time>
      </trkpt>
      <trkpt lat="43.180467" lon="-4.716567">
        <ele>2187.0</ele>
        <time>2015-03-17T14:37:39Z</time>
      </trkpt>
      <trkpt lat="43.180550" lon="-4.716467">
        <ele>2185.0</ele>
        <time>2015-03-17T14:37:40Z</time>
      </trkpt>
      <trkpt lat="43.180650" lon="-4.716367">
        <ele>2183.0</ele>
        <time>2015-03-17T14:37:41Z</time>
      </trkpt>
      <trkpt lat="43.180733" lon="-4.716267">
        <ele>2182.0</ele>
        <time>2015-03-17T14:37:42Z</time>
      </trkpt>
      <trkpt lat="43.180833" lon="-4.716167">
        <ele>2181.0</ele>
        <time>2015-03-17T14:37:43Z</time>
      </trkpt>
      <trkpt lat="43.180917" lon="-4.716083">
        <ele>2179.0</ele>
        <time>2015-03-17T14:37:44Z</time>
      </trkpt>
      <trkpt lat="43.181017" lon="-4.716000">
        <ele>2178.0</ele>
        <time>2015-03-17T14:37:45Z</time>
      </trkpt>
      <trkpt lat="43.181100" lon="-4.715900">
        <ele>2176.0</ele>
        <time>2015-03-17T14:37:46Z</time>
      </trkpt>
      <trkpt lat="43.181200" lon="-4.715817">
        <ele>2174.0</ele>
        <time>2015-03-17T14:37:47Z</time>
      </trkpt>
      <trkpt lat="43.181283" lon="-4.715717">
        <ele>2173.0</ele>
        <time>2015-03-17T14:37:48Z</time>
      </trkpt>
      <trkpt lat="43.181367" lon="-4.715600">
        <ele>2171.0</ele>
        <time>2015-03-17T14:37:49Z</time>
      </trkpt>
      <trkpt lat="43.181450" lon="-4.715517">
        <ele>2170.0</ele>
        <time>2015-03-17T14:37:50Z</time>
      </trkpt>
      <trkpt lat="43.181550" lon="-4.715417">
        <ele>2168.0</ele>
        <time>2015-03-17T14:37:51Z</time>
      </trkpt>
      <trkpt lat="43.181650" lon="-4.715333">
        <ele>2167.0</ele>
        <time>2015-03-17T14:37:52Z</time>
      </trkpt>
      <trkpt lat="43.181750" lon="-4.715250">
        <ele>2165.0</ele>
        <time>2015-03-17T14:37:53Z</time>
      </trkpt>
      <trkpt lat="43.181850" lon="-4.715150">
        <ele>2162.0</ele>
        <time>2015-03-17T14:37:54Z</time>
      </trkpt>
      <trkpt lat="43.181933" lon="-4.715050">
        <ele>2160.0</ele>
        <time>2015-03-17T14:37:55Z</time>
      </trkpt>
      <trkpt lat="43.182050" lon="-4.714967">
        <ele>2159.0</ele>
        <time>2015-03-17T14:37:56Z</time>
      </trkpt>
      <trkpt lat="43.182150" lon="-4.714883">
        <ele>2156.0</ele>
        <time>2015-03-17T14:37:57Z</time>
      </trkpt>
      <trkpt lat="43.182267" lon="-4.714800">
        <ele>2154.0</ele>
        <time>2015-03-17T14:37:58Z</time>
      </trkpt>
      <trkpt lat="43.182383" lon="-4.714700">
        <ele>2151.0</ele>
        <time>2015-03-17T14:37:59Z</time>
      </trkpt>
      <trkpt lat="43.182483" lon="-4.714583">
        <ele>2149.0</ele>
        <time>2015-03-17T14:38:00Z</time>
      </trkpt>
      <trkpt lat="43.182583" lon="-4.714483">
        <ele>2148.0</ele>
        <time>2015-03-17T14:38:01Z</time>
      </trkpt>
      <trkpt lat="43.182683" lon="-4.714367">
        <ele>2146.0</ele>
        <time>2015-03-17T14:38:02Z</time>
      </trkpt>
      <trkpt lat="43.182767" lon="-4.714267">
        <ele>2144.0</ele>
        <time>2015-03-17T14:38:03Z</time>
      </trkpt>
      <trkpt lat="43.182867" lon="-4.714150">
        <ele>2142.0</ele>
        <time>2015-03-17T14:38:04Z</time>
      </trkpt>
      <trkpt lat="43.182950" lon="-4.714017">
        <ele>2139.0</ele>
        <time>2015-03-17T14:38:05Z</time>
      </trkpt>
      <trkpt lat="43.183033" lon="-4.713883">
        <ele>2136.0</ele>
        <time>2015-03-17T14:38:06Z</time>
      </trkpt>
      <trkpt lat="43.183133" lon="-4.713733">
        <ele>2134.0</ele>
        <time>2015-03-17T14:38:07Z</time>
      </trkpt>
      <trkpt lat="43.183200" lon="-4.713600">
        <ele>2132.0</ele>
        <time>2015-03-17T14:38:08Z</time>
      </trkpt>
      <trkpt lat="43.183267" lon="-4.713450">
        <ele>2130.0</ele>
        <time>2015-03-17T14:38:09Z</time>
      </trkpt>
      <trkpt lat="43.183333" lon="-4.713317">
        <ele>2128.0</ele>
        <time>2015-03-17T14:38:10Z</time>
      </trkpt>
      <trkpt lat="43.183383" lon="-4.713167">
        <ele>2126.0</ele>
        <time>2015-03-17T14:38:11Z</time>
      </trkpt>
      <trkpt lat="43.183450" lon="-4.713033">
        <ele>2123.0</ele>
        <time>2015-03-17T14:38:12Z</time>
      </trkpt>
      <trkpt lat="43.183533" lon="-4.712883">
        <ele>2120.0</ele>
        <time>2015-03-17T14:38:13Z</time>
      </trkpt>
      <trkpt lat="43.183600" lon="-4.712750">
        <ele>2118.0</ele>
        <time>2015-03-17T14:38:14Z</time>
      </trkpt>
      <trkpt lat="43.183683" lon="-4.712600">
        <ele>2116.0</ele>
        <time>2015-03-17T14:38:15Z</time>
      </trkpt>
      <trkpt lat="43.183767" lon="-4.712467">
        <ele>2115.0</ele>
        <time>2015-03-17T14:38:16Z</time>
      </trkpt>
      <trkpt lat="43.183850" lon="-4.712350">
        <ele>2113.0</ele>
        <time>2015-03-17T14:38:17Z</time>
      </trkpt>
      <trkpt lat="43.183950" lon="-4.712233">
        <ele>2112.0</ele>
        <time>2015-03-17T14:38:18Z</time>
      </trkpt>
      <trkpt lat="43.184033" lon="-4.712117">
        <ele>2110.0</ele>
        <time>2015-03-17T14:38:19Z</time>
      </trkpt>
      <trkpt lat="43.184133" lon="-4.711983">
        <ele>2109.0</ele>
        <time>2015-03-17T14:38:20Z</time>
      </trkpt>
      <trkpt lat="43.184217" lon="-4.711850">
        <ele>2107.0</ele>
        <time>2015-03-17T14:38:21Z</time>
      </trkpt>
      <trkpt lat="43.184300" lon="-4.711717">
        <ele>2107.0</ele>
        <time>2015-03-17T14:38:22Z</time>
      </trkpt>
      <trkpt lat="43.184400" lon="-4.711600">
        <ele>2106.0</ele>
        <time>2015-03-17T14:38:23Z</time>
      </trkpt>
      <trkpt lat="43.184483" lon="-4.711467">
        <ele>2104.0</ele>
        <time>2015-03-17T14:38:24Z</time>
      </trkpt>
      <trkpt lat="43.184567" lon="-4.711333">
        <ele>2103.0</ele>
        <time>2015-03-17T14:38:25Z</time>
      </trkpt>
      <trkpt lat="43.184650" lon="-4.711200">
        <ele>2102.0</ele>
        <time>2015-03-17T14:38:26Z</time>
      </trkpt>
      <trkpt lat="43.184733" lon="-4.711067">
        <ele>2101.0</ele>
        <time>2015-03-17T14:38:27Z</time>
      </trkpt>
      <trkpt lat="43.184817" lon="-4.710933">
        <ele>2099.0</ele>
        <time>2015-03-17T14:38:28Z</time>
      </trkpt>
      <trkpt lat="43.184883" lon="-4.710800">
        <ele>2098.0</ele>
        <time>2015-03-17T14:38:29Z</time>
      </trkpt>
      <trkpt lat="43.184967" lon="-4.710667">
        <ele>2096.0</ele>
        <time>2015-03-17T14:38:30Z</time>
      </trkpt>
      <trkpt lat="43.185050" lon="-4.710517">
        <ele>2095.0</ele>
        <time>2015-03-17T14:38:31Z</time>
      </trkpt>
      <trkpt lat="43.185133" lon="-4.710383">
        <ele>2095.0</ele>
        <time>2015-03-17T14:38:32Z</time>
      </trkpt>
      <trkpt lat="43.185217" lon="-4.710267">
        <ele>2095.0</ele>
        <time>2015-03-17T14:38:33Z</time>
      </trkpt>
      <trkpt lat="43.185300" lon="-4.710150">
        <ele>2095.0</ele>
        <time>2015-03-17T14:38:34Z</time>
      </trkpt>
      <trkpt lat="43.185383" lon="-4.710033">
        <ele>2094.0</ele>
        <time>2015-03-17T14:38:35Z</time>
      </trkpt>
      <trkpt lat="43.185450" lon="-4.709917">
        <ele>2093.0</ele>
        <time>2015-03-17T14:38:36Z</time>
      </trkpt>
      <trkpt lat="43.185533" lon="-4.709817">
        <ele>2092.0</ele>
        <time>2015-03-17T14:38:37Z</time>
      </trkpt>
      <trkpt lat="43.185633" lon="-4.709700">
        <ele>2090.0</ele>
        <time>2015-03-17T14:38:38Z</time>
      </trkpt>
      <trkpt lat="43.185717" lon="-4.709600">
        <ele>2088.0</ele>
        <time>2015-03-17T14:38:39Z</time>
      </trkpt>
      <trkpt lat="43.185817" lon="-4.709500">
        <ele>2087.0</ele>
        <time>2015-03-17T14:38:40Z</time>
      </trkpt>
      <trkpt lat="43.185900" lon="-4.709400">
        <ele>2085.0</ele>
        <time>2015-03-17T14:38:41Z</time>
      </trkpt>
      <trkpt lat="43.186000" lon="-4.709300">
        <ele>2083.0</ele>
        <time>2015-03-17T14:38:42Z</time>
      </trkpt>
      <trkpt lat="43.186100" lon="-4.709200">
        <ele>2081.0</ele>
        <time>2015-03-17T14:38:43Z</time>
      </trkpt>
      <trkpt lat="43.186217" lon="-4.709117">
        <ele>2079.0</ele>
        <time>2015-03-17T14:38:44Z</time>
      </trkpt>
      <trkpt lat="43.186317" lon="-4.709017">
        <ele>2078.0</ele>
        <time>2015-03-17T14:38:45Z</time>
      </trkpt>
      <trkpt lat="43.186417" lon="-4.708917">
        <ele>2076.0</ele>
        <time>2015-03-17T14:38:46Z</time>
      </trkpt>
      <trkpt lat="43.186517" lon="-4.708817">
        <ele>2075.0</ele>
        <time>2015-03-17T14:38:47Z</time>
      </trkpt>
      <trkpt lat="43.186600" lon="-4.708733">
        <ele>2074.0</ele>
        <time>2015-03-17T14:38:48Z</time>
      </trkpt>
      <trkpt lat="43.186700" lon="-4.708633">
        <ele>2072.0</ele>
        <time>2015-03-17T14:38:49Z</time>
      </trkpt>
      <trkpt lat="43.186783" lon="-4.708517">
        <ele>2070.0</ele>
        <time>2015-03-17T14:38:50Z</time>
      </trkpt>
      <trkpt lat="43.186867" lon="-4.708400">
        <ele>2069.0</ele>
        <time>2015-03-17T14:38:51Z</time>
      </trkpt>
      <trkpt lat="43.186950" lon="-4.708283">
        <ele>2067.0</ele>
        <time>2015-03-17T14:38:52Z</time>
      </trkpt>
      <trkpt lat="43.187033" lon="-4.708183">
        <ele>2066.0</ele>
        <time>2015-03-17T14:38:53Z</time>
      </trkpt>
      <trkpt lat="43.187117" lon="-4.708067">
        <ele>2064.0</ele>
        <time>2015-03-17T14:38:54Z</time>
      </trkpt>
      <trkpt lat="43.187200" lon="-4.707950">
        <ele>2062.0</ele>
        <time>2015-03-17T14:38:55Z</time>
      </trkpt>
      <trkpt lat="43.187283" lon="-4.707817">
        <ele>2058.0</ele>
        <time>2015-03-17T14:38:56Z</time>
      </trkpt>
      <trkpt lat="43.187367" lon="-4.707683">
        <ele>2056.0</ele>
        <time>2015-03-17T14:38:57Z</time>
      </trkpt>
      <trkpt lat="43.187450" lon="-4.707533">
        <ele>2055.0</ele>
        <time>2015-03-17T14:38:58Z</time>
      </trkpt>
      <trkpt lat="43.187517" lon="-4.707417">
        <ele>2054.0</ele>
        <time>2015-03-17T14:38:59Z</time>
      </trkpt>
      <trkpt lat="43.187600" lon="-4.707283">
        <ele>2052.0</ele>
        <time>2015-03-17T14:39:00Z</time>
      </trkpt>
      <trkpt lat="43.187667" lon="-4.707167">
        <ele>2051.0</ele>
        <time>2015-03-17T14:39:01Z</time>
      </trkpt>
      <trkpt lat="43.187733" lon="-4.707033">
        <ele>2048.0</ele>
        <time>2015-03-17T14:39:02Z</time>
      </trkpt>
      <trkpt lat="43.187800" lon="-4.706900">
        <ele>2045.0</ele>
        <time>2015-03-17T14:39:03Z</time>
      </trkpt>
      <trkpt lat="43.187883" lon="-4.706767">
        <ele>2044.0</ele>
        <time>2015-03-17T14:39:04Z</time>
      </trkpt>
      <trkpt lat="43.187950" lon="-4.706633">
        <ele>2042.0</ele>
        <time>2015-03-17T14:39:05Z</time>
      </trkpt>
      <trkpt lat="43.188017" lon="-4.706517">
        <ele>2041.0</ele>
        <time>2015-03-17T14:39:06Z</time>
      </trkpt>
      <trkpt lat="43.188083" lon="-4.706400">
        <ele>2039.0</ele>
        <time>2015-03-17T14:39:07Z</time>
      </trkpt>
      <trkpt lat="43.188167" lon="-4.706283">
        <ele>2037.0</ele>
        <time>2015-03-17T14:39:08Z</time>
      </trkpt>
      <trkpt lat="43.188233" lon="-4.706167">
        <ele>2035.0</ele>
        <time>2015-03-17T14:39:09Z</time>
      </trkpt>
      <trkpt lat="43.188317" lon="-4.706033">
        <ele>2033.0</ele>
        <time>2015-03-17T14:39:10Z</time>
      </trkpt>
      <trkpt lat="43.188400" lon="-4.705900">
        <ele>2032.0</ele>
        <time>2015-03-17T14:39:11Z</time>
      </trkpt>
      <trkpt lat="43.188483" lon="-4.705767">
        <ele>2030.0</ele>
        <time>2015-03-17T14:39:12Z</time>
      </trkpt>
      <trkpt lat="43.188550" lon="-4.705650">
        <ele>2030.0</ele>
        <time>2015-03-17T14:39:13Z</time>
      </trkpt>
      <trkpt lat="43.188617" lon="-4.705533">
        <ele>2029.0</ele>
        <time>2015-03-17T14:39:14Z</time>
      </trkpt>
      <trkpt lat="43.188683" lon="-4.705417">
        <ele>2028.0</ele>
        <time>2015-03-17T14:39:15Z</time>
      </trkpt>
      <trkpt lat="43.188750" lon="-4.705300">
        <ele>2027.0</ele>
        <time>2015-03-17T14:39:16Z</time>
      </trkpt>
      <trkpt lat="43.188817" lon="-4.705183">
        <ele>2026.0</ele>
        <time>2015-03-17T14:39:17Z</time>
      </trkpt>
      <trkpt lat="43.188883" lon="-4.705033">
        <ele>2025.0</ele>
        <time>2015-03-17T14:39:18Z</time>
      </trkpt>
      <trkpt lat="43.188933" lon="-4.704900">
        <ele>2024.0</ele>
        <time>2015-03-17T14:39:19Z</time>
      </trkpt>
      <trkpt lat="43.188983" lon="-4.704767">
        <ele>2024.0</ele>
        <time>2015-03-17T14:39:20Z</time>
      </trkpt>
      <trkpt lat="43.189033" lon="-4.704650">
        <ele>2024.0</ele>
        <time>2015-03-17T14:39:21Z</time>
      </trkpt>
      <trkpt lat="43.189083" lon="-4.704533">
        <ele>2024.0</ele>
        <time>2015-03-17T14:39:22Z</time>
      </trkpt>
      <trkpt lat="43.189133" lon="-4.704417">
        <ele>2023.0</ele>
        <time>2015-03-17T14:39:23Z</time>
      </trkpt>
      <trkpt lat="43.189200" lon="-4.704300">
        <ele>2022.0</ele>
        <time>2015-03-17T14:39:24Z</time>
      </trkpt>
      <trkpt lat="43.189250" lon="-4.704167">
        <ele>2022.0</ele>
        <time>2015-03-17T14:39:25Z</time>
      </trkpt>
      <trkpt lat="43.189317" lon="-4.704033">
        <ele>2022.0</ele>
        <time>2015-03-17T14:39:26Z</time>
      </trkpt>
      <trkpt lat="43.189383" lon="-4.703917">
        <ele>2021.0</ele>
        <time>2015-03-17T14:39:27Z</time>
      </trkpt>
      <trkpt lat="43.189450" lon="-4.703800">
        <ele>2021.0</ele>
        <time>2015-03-17T14:39:28Z</time>
      </trkpt>
      <trkpt lat="43.189533" lon="-4.703700">
        <ele>2021.0</ele>
        <time>2015-03-17T14:39:29Z</time>
      </trkpt>
      <trkpt lat="43.189600" lon="-4.703600">
        <ele>2021.0</ele>
        <time>2015-03-17T14:39:30Z</time>
      </trkpt>
      <trkpt lat="43.189683" lon="-4.703500">
        <ele>2020.0</ele>
        <time>2015-03-17T14:39:31Z</time>
      </trkpt>
      <trkpt lat="43.189750" lon="-4.703383">
        <ele>2019.0</ele>
        <time>2015-03-17T14:39:32Z</time>
      </trkpt>
      <trkpt lat="43.189833" lon="-4.703267">
        <ele>2019.0</ele>
        <time>2015-03-17T14:39:33Z</time>
      </trkpt>
      <trkpt lat="43.189900" lon="-4.703150">
        <ele>2019.0</ele>
        <time>2015-03-17T14:39:34Z</time>
      </trkpt>
      <trkpt lat="43.189967" lon="-4.703033">
        <ele>2019.0</ele>
        <time>2015-03-17T14:39:35Z</time>
      </trkpt>
      <trkpt lat="43.190050" lon="-4.702933">
        <ele>2018.0</ele>
        <time>2015-03-17T14:39:36Z</time>
      </trkpt>
      <trkpt lat="43.190100" lon="-4.702817">
        <ele>2018.0</ele>
        <time>2015-03-17T14:39:37Z</time>
      </trkpt>
      <trkpt lat="43.190167" lon="-4.702700">
        <ele>2017.0</ele>
        <time>2015-03-17T14:39:38Z</time>
      </trkpt>
      <trkpt lat="43.190233" lon="-4.702567">
        <ele>2016.0</ele>
        <time>2015-03-17T14:39:39Z</time>
      </trkpt>
      <trkpt lat="43.190300" lon="-4.702433">
        <ele>2015.0</ele>
        <time>2015-03-17T14:39:40Z</time>
      </trkpt>
      <trkpt lat="43.190367" lon="-4.702317">
        <ele>2015.0</ele>
        <time>2015-03-17T14:39:41Z</time>
      </trkpt>
      <trkpt lat="43.190450" lon="-4.702200">
        <ele>2014.0</ele>
        <time>2015-03-17T14:39:42Z</time>
      </trkpt>
      <trkpt lat="43.190517" lon="-4.702083">
        <ele>2013.0</ele>
        <time>2015-03-17T14:39:43Z</time>
      </trkpt>
      <trkpt lat="43.190583" lon="-4.701967">
        <ele>2012.0</ele>
        <time>2015-03-17T14:39:44Z</time>
      </trkpt>
      <trkpt lat="43.190650" lon="-4.701850">
        <ele>2011.0</ele>
        <time>2015-03-17T14:39:45Z</time>
      </trkpt>
      <trkpt lat="43.190717" lon="-4.701717">
        <ele>2010.0</ele>
        <time>2015-03-17T14:39:46Z</time>
      </trkpt>
      <trkpt lat="43.190767" lon="-4.701600">
        <ele>2010.0</ele>
        <time>2015-03-17T14:39:47Z</time>
      </trkpt>
      <trkpt lat="43.190833" lon="-4.701467">
        <ele>2009.0</ele>
        <time>2015-03-17T14:39:48Z</time>
      </trkpt>
      <trkpt lat="43.190883" lon="-4.701350">
        <ele>2008.0</ele>
        <time>2015-03-17T14:39:49Z</time>
      </trkpt>
      <trkpt lat="43.190933" lon="-4.701233">
        <ele>2007.0</ele>
        <time>2015-03-17T14:39:50Z</time>
      </trkpt>
      <trkpt lat="43.191000" lon="-4.701117">
        <ele>2006.0</ele>
        <time>2015-03-17T14:39:51Z</time>
      </trkpt>
      <trkpt lat="43.191050" lon="-4.701000">
        <ele>2005.0</ele>
        <time>2015-03-17T14:39:52Z</time>
      </trkpt>
      <trkpt lat="43.191117" lon="-4.700883">
        <ele>2005.0</ele>
        <time>2015-03-17T14:39:53Z</time>
      </trkpt>
      <trkpt lat="43.191167" lon="-4.700783">
        <ele>2004.0</ele>
        <time>2015-03-17T14:39:54Z</time>
      </trkpt>
      <trkpt lat="43.191217" lon="-4.700667">
        <ele>2004.0</ele>
        <time>2015-03-17T14:39:55Z</time>
      </trkpt>
      <trkpt lat="43.191267" lon="-4.700567">
        <ele>2004.0</ele>
        <time>2015-03-17T14:39:56Z</time>
      </trkpt>
      <trkpt lat="43.191317" lon="-4.700450">
        <ele>2003.0</ele>
        <time>2015-03-17T14:39:57Z</time>
      </trkpt>
      <trkpt lat="43.191367" lon="-4.700350">
        <ele>2003.0</ele>
        <time>2015-03-17T14:39:58Z</time>
      </trkpt>
      <trkpt lat="43.191400" lon="-4.700233">
        <ele>2003.0</ele>
        <time>2015-03-17T14:39:59Z</time>
      </trkpt>
      <trkpt lat="43.191450" lon="-4.700100">
        <ele>2003.0</ele>
        <time>2015-03-17T14:40:00Z</time>
      </trkpt>
      <trkpt lat="43.191483" lon="-4.699983">
        <ele>2003.0</ele>
        <time>2015-03-17T14:40:01Z</time>
      </trkpt>
      <trkpt lat="43.191517" lon="-4.699867">
        <ele>2004.0</ele>
        <time>2015-03-17T14:40:02Z</time>
      </trkpt>
      <trkpt lat="43.191550" lon="-4.699767">
        <ele>2006.0</ele>
        <time>2015-03-17T14:40:03Z</time>
      </trkpt>
      <trkpt lat="43.191567" lon="-4.699683">
        <ele>2008.0</ele>
        <time>2015-03-17T14:40:04Z</time>
      </trkpt>
      <trkpt lat="43.191600" lon="-4.699600">
        <ele>2009.0</ele>
        <time>2015-03-17T14:40:05Z</time>
      </trkpt>
      <trkpt lat="43.191633" lon="-4.699517">
        <ele>2008.0</ele>
        <time>2015-03-17T14:40:06Z</time>
      </trkpt>
      <trkpt lat="43.191667" lon="-4.699433">
        <ele>2008.0</ele>
        <time>2015-03-17T14:40:07Z</time>
      </trkpt>
      <trkpt lat="43.191717" lon="-4.699333">
        <ele>2008.0</ele>
        <time>2015-03-17T14:40:08Z</time>
      </trkpt>
      <trkpt lat="43.191750" lon="-4.699233">
        <ele>2008.0</ele>
        <time>2015-03-17T14:40:09Z</time>
      </trkpt>
      <trkpt lat="43.191817" lon="-4.699133">
        <ele>2007.0</ele>
        <time>2015-03-17T14:40:10Z</time>
      </trkpt>
      <trkpt lat="43.191867" lon="-4.699017">
        <ele>2006.0</ele>
        <time>2015-03-17T14:40:11Z</time>
      </trkpt>
      <trkpt lat="43.191933" lon="-4.698917">
        <ele>2005.0</ele>
        <time>2015-03-17T14:40:12Z</time>
      </trkpt>
      <trkpt lat="43.192000" lon="-4.698817">
        <ele>2005.0</ele>
        <time>2015-03-17T14:40:13Z</time>
      </trkpt>
      <trkpt lat="43.192067" lon="-4.698717">
        <ele>2005.0</ele>
        <time>2015-03-17T14:40:14Z</time>
      </trkpt>
      <trkpt lat="43.192100" lon="-4.698617">
        <ele>2007.0</ele>
        <time>2015-03-17T14:40:15Z</time>
      </trkpt>
      <trkpt lat="43.192133" lon="-4.698533">
        <ele>2008.0</ele>
        <time>2015-03-17T14:40:16Z</time>
      </trkpt>
      <trkpt lat="43.192167" lon="-4.698467">
        <ele>2008.0</ele>
        <time>2015-03-17T14:40:17Z</time>
      </trkpt>
      <trkpt lat="43.192217" lon="-4.698400">
        <ele>2009.0</ele>
        <time>2015-03-17T14:40:18Z</time>
      </trkpt>
      <trkpt lat="43.192283" lon="-4.698333">
        <ele>2008.0</ele>
        <time>2015-03-17T14:40:19Z</time>
      </trkpt>
      <trkpt lat="43.192350" lon="-4.698283">
        <ele>2008.0</ele>
        <time>2015-03-17T14:40:20Z</time>
      </trkpt>
      <trkpt lat="43.192417" lon="-4.698233">
        <ele>2009.0</ele>
        <time>2015-03-17T14:40:21Z</time>
      </trkpt>
      <trkpt lat="43.192483" lon="-4.698183">
        <ele>2009.0</ele>
        <time>2015-03-17T14:40:22Z</time>
      </trkpt>
      <trkpt lat="43.192533" lon="-4.698117">
        <ele>2009.0</ele>
        <time>2015-03-17T14:40:23Z</time>
      </trkpt>
      <trkpt lat="43.192583" lon="-4.698067">
        <ele>2009.0</ele>
        <time>2015-03-17T14:40:24Z</time>
      </trkpt>
      <trkpt lat="43.192633" lon="-4.697983">
        <ele>2009.0</ele>
        <time>2015-03-17T14:40:25Z</time>
      </trkpt>
      <trkpt lat="43.192683" lon="-4.697917">
        <ele>2010.0</ele>
        <time>2015-03-17T14:40:26Z</time>
      </trkpt>
      <trkpt lat="43.192717" lon="-4.697850">
        <ele>2010.0</ele>
        <time>2015-03-17T14:40:27Z</time>
      </trkpt>
      <trkpt lat="43.192750" lon="-4.697783">
        <ele>2010.0</ele>
        <time>2015-03-17T14:40:28Z</time>
      </trkpt>
      <trkpt lat="43.192783" lon="-4.697700">
        <ele>2009.0</ele>
        <time>2015-03-17T14:40:29Z</time>
      </trkpt>
      <trkpt lat="43.192817" lon="-4.697600">
        <ele>2008.0</ele>
        <time>2015-03-17T14:40:30Z</time>
      </trkpt>
      <trkpt lat="43.192833" lon="-4.697500">
        <ele>2008.0</ele>
        <time>2015-03-17T14:40:31Z</time>
      </trkpt>
      <trkpt lat="43.192867" lon="-4.697383">
        <ele>2008.0</ele>
        <time>2015-03-17T14:40:32Z</time>
      </trkpt>
      <trkpt lat="43.192917" lon="-4.697283">
        <ele>2008.0</ele>
        <time>2015-03-17T14:40:33Z</time>
      </trkpt>
      <trkpt lat="43.192950" lon="-4.697183">
        <ele>2009.0</ele>
        <time>2015-03-17T14:40:34Z</time>
      </trkpt>
      <trkpt lat="43.193000" lon="-4.697100">
        <ele>2012.0</ele>
        <time>2015-03-17T14:40:35Z</time>
      </trkpt>
      <trkpt lat="43.193050" lon="-4.697033">
        <ele>2015.0</ele>
        <time>2015-03-17T14:40:36Z</time>
      </trkpt>
      <trkpt lat="43.193083" lon="-4.696983">
        <ele>2017.0</ele>
        <time>2015-03-17T14:40:37Z</time>
      </trkpt>
      <trkpt lat="43.193133" lon="-4.696933">
        <ele>2017.0</ele>
        <time>2015-03-17T14:40:38Z</time>
      </trkpt>
      <trkpt lat="43.193200" lon="-4.696867">
        <ele>2018.0</ele>
        <time>2015-03-17T14:40:39Z</time>
      </trkpt>
      <trkpt lat="43.193267" lon="-4.696833">
        <ele>2019.0</ele>
        <time>2015-03-17T14:40:40Z</time>
      </trkpt>
      <trkpt lat="43.193350" lon="-4.696833">
        <ele>2020.0</ele>
        <time>2015-03-17T14:40:41Z</time>
      </trkpt>
      <trkpt lat="43.193433" lon="-4.696850">
        <ele>2021.0</ele>
        <time>2015-03-17T14:40:42Z</time>
      </trkpt>
      <trkpt lat="43.193517" lon="-4.696900">
        <ele>2022.0</ele>
        <time>2015-03-17T14:40:43Z</time>
      </trkpt>
      <trkpt lat="43.193583" lon="-4.696967">
        <ele>2023.0</ele>
        <time>2015-03-17T14:40:44Z</time>
      </trkpt>
      <trkpt lat="43.193633" lon="-4.697033">
        <ele>2023.0</ele>
        <time>2015-03-17T14:40:45Z</time>
      </trkpt>
      <trkpt lat="43.193683" lon="-4.697133">
        <ele>2023.0</ele>
        <time>2015-03-17T14:40:46Z</time>
      </trkpt>
      <trkpt lat="43.193733" lon="-4.697233">
        <ele>2023.0</ele>
        <time>2015-03-17T14:40:47Z</time>
      </trkpt>
      <trkpt lat="43.193750" lon="-4.697350">
        <ele>2023.0</ele>
        <time>2015-03-17T14:40:48Z</time>
      </trkpt>
      <trkpt lat="43.193767" lon="-4.697467">
        <ele>2024.0</ele>
        <time>2015-03-17T14:40:49Z</time>
      </trkpt>
      <trkpt lat="43.193767" lon="-4.697583">
        <ele>2025.0</ele>
        <time>2015-03-17T14:40:50Z</time>
      </trkpt>
      <trkpt lat="43.193750" lon="-4.697700">
        <ele>2026.0</ele>
        <time>2015-03-17T14:40:51Z</time>
      </trkpt>
      <trkpt lat="43.193750" lon="-4.697800">
        <ele>2027.0</ele>
        <time>2015-03-17T14:40:52Z</time>
      </trkpt>
      <trkpt lat="43.193750" lon="-4.697917">
        <ele>2027.0</ele>
        <time>2015-03-17T14:40:53Z</time>
      </trkpt>
      <trkpt lat="43.193733" lon="-4.698017">
        <ele>2028.0</ele>
        <time>2015-03-17T14:40:54Z</time>
      </trkpt>
      <trkpt lat="43.193700" lon="-4.698117">
        <ele>2028.0</ele>
        <time>2015-03-17T14:40:55Z</time>
      </trkpt>
      <trkpt lat="43.193667" lon="-4.698200">
        <ele>2028.0</ele>
        <time>2015-03-17T14:40:56Z</time>
      </trkpt>
      <trkpt lat="43.193600" lon="-4.698250">
        <ele>2028.0</ele>
        <time>2015-03-17T14:40:57Z</time>
      </trkpt>
      <trkpt lat="43.193533" lon="-4.698300">
        <ele>2029.0</ele>
        <time>2015-03-17T14:40:58Z</time>
      </trkpt>
      <trkpt lat="43.193467" lon="-4.698317">
        <ele>2030.0</ele>
        <time>2015-03-17T14:40:59Z</time>
      </trkpt>
      <trkpt lat="43.193400" lon="-4.698333">
        <ele>2030.0</ele>
        <time>2015-03-17T14:41:00Z</time>
      </trkpt>
      <trkpt lat="43.193350" lon="-4.698333">
        <ele>2030.0</ele>
        <time>2015-03-17T14:41:01Z</time>
      </trkpt>
      <trkpt lat="43.193300" lon="-4.698317">
        <ele>2029.0</ele>
        <time>2015-03-17T14:41:02Z</time>
      </trkpt>
      <trkpt lat="43.193233" lon="-4.698300">
        <ele>2028.0</ele>
        <time>2015-03-17T14:41:03Z</time>
      </trkpt>
      <trkpt lat="43.193150" lon="-4.698300">
        <ele>2029.0</ele>
        <time>2015-03-17T14:41:04Z</time>
      </trkpt>
      <trkpt lat="43.193083" lon="-4.698283">
        <ele>2030.0</ele>
        <time>2015-03-17T14:41:05Z</time>
      </trkpt>
      <trkpt lat="43.193033" lon="-4.698267">
        <ele>2031.0</ele>
        <time>2015-03-17T14:41:06Z</time>
      </trkpt>
      <trkpt lat="43.192983" lon="-4.698267">
        <ele>2031.0</ele>
        <time>2015-03-17T14:41:07Z</time>
      </trkpt>
      <trkpt lat="43.192933" lon="-4.698267">
        <ele>2030.0</ele>
        <time>2015-03-17T14:41:08Z</time>
      </trkpt>
      <trkpt lat="43.192883" lon="-4.698250">
        <ele>2029.0</ele>
        <time>2015-03-17T14:41:09Z</time>
      </trkpt>
      <trkpt lat="43.192817" lon="-4.698200">
        <ele>2029.0</ele>
        <time>2015-03-17T14:41:10Z</time>
      </trkpt>
      <trkpt lat="43.192767" lon="-4.698150">
        <ele>2029.0</ele>
        <time>2015-03-17T14:41:11Z</time>
      </trkpt>
      <trkpt lat="43.192733" lon="-4.698100">
        <ele>2030.0</ele>
        <time>2015-03-17T14:41:12Z</time>
      </trkpt>
      <trkpt lat="43.192683" lon="-4.698050">
        <ele>2030.0</ele>
        <time>2015-03-17T14:41:13Z</time>
      </trkpt>
      <trkpt lat="43.192650" lon="-4.698000">
        <ele>2030.0</ele>
        <time>2015-03-17T14:41:14Z</time>
      </trkpt>
      <trkpt lat="43.192600" lon="-4.697950">
        <ele>2030.0</ele>
        <time>2015-03-17T14:41:15Z</time>
      </trkpt>
      <trkpt lat="43.192567" lon="-4.697883">
        <ele>2029.0</ele>
        <time>2015-03-17T14:41:16Z</time>
      </trkpt>
      <trkpt lat="43.192517" lon="-4.697817">
        <ele>2030.0</ele>
        <time>2015-03-17T14:41:17Z</time>
      </trkpt>
      <trkpt lat="43.192467" lon="-4.697767">
        <ele>2031.0</ele>
        <time>2015-03-17T14:41:18Z</time>
      </trkpt>
      <trkpt lat="43.192417" lon="-4.697717">
        <ele>2032.0</ele>
        <time>2015-03-17T14:41:19Z</time>
      </trkpt>
      <trkpt lat="43.192367" lon="-4.697683">
        <ele>2032.0</ele>
        <time>2015-03-17T14:41:20Z</time>
      </trkpt>
      <trkpt lat="43.192333" lon="-4.697617">
        <ele>2031.0</ele>
        <time>2015-03-17T14:41:21Z</time>
      </trkpt>
      <trkpt lat="43.192283" lon="-4.697550">
        <ele>2030.0</ele>
        <time>2015-03-17T14:41:22Z</time>
      </trkpt>
      <trkpt lat="43.192233" lon="-4.697467">
        <ele>2028.0</ele>
        <time>2015-03-17T14:41:23Z</time>
      </trkpt>
      <trkpt lat="43.192200" lon="-4.697350">
        <ele>2026.0</ele>
        <time>2015-03-17T14:41:24Z</time>
      </trkpt>
      <trkpt lat="43.192200" lon="-4.697233">
        <ele>2025.0</ele>
        <time>2015-03-17T14:41:25Z</time>
      </trkpt>
      <trkpt lat="43.192200" lon="-4.697117">
        <ele>2025.0</ele>
        <time>2015-03-17T14:41:26Z</time>
      </trkpt>
      <trkpt lat="43.192217" lon="-4.697000">
        <ele>2023.0</ele>
        <time>2015-03-17T14:41:27Z</time>
      </trkpt>
      <trkpt lat="43.192217" lon="-4.696900">
        <ele>2021.0</ele>
        <time>2015-03-17T14:41:28Z</time>
      </trkpt>
      <trkpt lat="43.192200" lon="-4.696783">
        <ele>2019.0</ele>
        <time>2015-03-17T14:41:29Z</time>
      </trkpt>
      <trkpt lat="43.192200" lon="-4.696667">
        <ele>2017.0</ele>
        <time>2015-03-17T14:41:30Z</time>
      </trkpt>
      <trkpt lat="43.192233" lon="-4.696533">
        <ele>2015.0</ele>
        <time>2015-03-17T14:41:31Z</time>
      </trkpt>
      <trkpt lat="43.192267" lon="-4.696400">
        <ele>2014.0</ele>
        <time>2015-03-17T14:41:32Z</time>
      </trkpt>
      <trkpt lat="43.192317" lon="-4.696300">
        <ele>2014.0</ele>
        <time>2015-03-17T14:41:33Z</time>
      </trkpt>
      <trkpt lat="43.192367" lon="-4.696183">
        <ele>2013.0</ele>
        <time>2015-03-17T14:41:34Z</time>
      </trkpt>
      <trkpt lat="43.192417" lon="-4.696067">
        <ele>2011.0</ele>
        <time>2015-03-17T14:41:35Z</time>
      </trkpt>
      <trkpt lat="43.192483" lon="-4.695950">
        <ele>2009.0</ele>
        <time>2015-03-17T14:41:36Z</time>
      </trkpt>
      <trkpt lat="43.192550" lon="-4.695833">
        <ele>2008.0</ele>
        <time>2015-03-17T14:41:37Z</time>
      </trkpt>
      <trkpt lat="43.192633" lon="-4.695717">
        <ele>2008.0</ele>
        <time>2015-03-17T14:41:38Z</time>
      </trkpt>
      <trkpt lat="43.192700" lon="-4.695617">
        <ele>2007.0</ele>
        <time>2015-03-17T14:41:39Z</time>
      </trkpt>
      <trkpt lat="43.192750" lon="-4.695500">
        <ele>2007.0</ele>
        <time>2015-03-17T14:41:40Z</time>
      </trkpt>
      <trkpt lat="43.192783" lon="-4.695383">
        <ele>2006.0</ele>
        <time>2015-03-17T14:41:41Z</time>
      </trkpt>
      <trkpt lat="43.192833" lon="-4.695267">
        <ele>2006.0</ele>
        <time>2015-03-17T14:41:42Z</time>
      </trkpt>
      <trkpt lat="43.192867" lon="-4.695150">
        <ele>2006.0</ele>
        <time>2015-03-17T14:41:43Z</time>
      </trkpt>
      <trkpt lat="43.192900" lon="-4.695017">
        <ele>2005.0</ele>
        <time>2015-03-17T14:41:44Z</time>
      </trkpt>
      <trkpt lat="43.192933" lon="-4.694883">
        <ele>2005.0</ele>
        <time>2015-03-17T14:41:45Z</time>
      </trkpt>
      <trkpt lat="43.192983" lon="-4.694750">
        <ele>2004.0</ele>
        <time>2015-03-17T14:41:46Z</time>
      </trkpt>
      <trkpt lat="43.193033" lon="-4.694617">
        <ele>2004.0</ele>
        <time>2015-03-17T14:41:47Z</time>
      </trkpt>
      <trkpt lat="43.193083" lon="-4.694483">
        <ele>2003.0</ele>
        <time>2015-03-17T14:41:48Z</time>
      </trkpt>
      <trkpt lat="43.193117" lon="-4.694350">
        <ele>2003.0</ele>
        <time>2015-03-17T14:41:49Z</time>
      </trkpt>
      <trkpt lat="43.193167" lon="-4.694233">
        <ele>2001.0</ele>
        <time>2015-03-17T14:41:50Z</time>
      </trkpt>
      <trkpt lat="43.193200" lon="-4.694117">
        <ele>1998.0</ele>
        <time>2015-03-17T14:41:51Z</time>
      </trkpt>
      <trkpt lat="43.193233" lon="-4.693983">
        <ele>1996.0</ele>
        <time>2015-03-17T14:41:52Z</time>
      </trkpt>
      <trkpt lat="43.193267" lon="-4.693867">
        <ele>1995.0</ele>
        <time>2015-03-17T14:41:53Z</time>
      </trkpt>
      <trkpt lat="43.193300" lon="-4.693750">
        <ele>1994.0</ele>
        <time>2015-03-17T14:41:54Z</time>
      </trkpt>
      <trkpt lat="43.193333" lon="-4.693633">
        <ele>1994.0</ele>
        <time>2015-03-17T14:41:55Z</time>
      </trkpt>
      <trkpt lat="43.193350" lon="-4.693517">
        <ele>1993.0</ele>
        <time>2015-03-17T14:41:56Z</time>
      </trkpt>
      <trkpt lat="43.193383" lon="-4.693400">
        <ele>1991.0</ele>
        <time>2015-03-17T14:41:57Z</time>
      </trkpt>
      <trkpt lat="43.193400" lon="-4.693283">
        <ele>1990.0</ele>
        <time>2015-03-17T14:41:58Z</time>
      </trkpt>
      <trkpt lat="43.193450" lon="-4.693150">
        <ele>1988.0</ele>
        <time>2015-03-17T14:41:59Z</time>
      </trkpt>
      <trkpt lat="43.193500" lon="-4.693033">
        <ele>1986.0</ele>
        <time>2015-03-17T14:42:00Z</time>
      </trkpt>
      <trkpt lat="43.193550" lon="-4.692900">
        <ele>1985.0</ele>
        <time>2015-03-17T14:42:01Z</time>
      </trkpt>
      <trkpt lat="43.193617" lon="-4.692767">
        <ele>1983.0</ele>
        <time>2015-03-17T14:42:02Z</time>
      </trkpt>
      <trkpt lat="43.193667" lon="-4.692633">
        <ele>1983.0</ele>
        <time>2015-03-17T14:42:03Z</time>
      </trkpt>
      <trkpt lat="43.193717" lon="-4.692500">
        <ele>1982.0</ele>
        <time>2015-03-17T14:42:04Z</time>
      </trkpt>
      <trkpt lat="43.193767" lon="-4.692367">
        <ele>1981.0</ele>
        <time>2015-03-17T14:42:05Z</time>
      </trkpt>
      <trkpt lat="43.193817" lon="-4.692217">
        <ele>1979.0</ele>
        <time>2015-03-17T14:42:06Z</time>
      </trkpt>
      <trkpt lat="43.193867" lon="-4.692083">
        <ele>1978.0</ele>
        <time>2015-03-17T14:42:07Z</time>
      </trkpt>
      <trkpt lat="43.193900" lon="-4.691950">
        <ele>1977.0</ele>
        <time>2015-03-17T14:42:08Z</time>
      </trkpt>
      <trkpt lat="43.193950" lon="-4.691817">
        <ele>1977.0</ele>
        <time>2015-03-17T14:42:09Z</time>
      </trkpt>
      <trkpt lat="43.193983" lon="-4.691700">
        <ele>1977.0</ele>
        <time>2015-03-17T14:42:10Z</time>
      </trkpt>
      <trkpt lat="43.194017" lon="-4.691567">
        <ele>1978.0</ele>
        <time>2015-03-17T14:42:11Z</time>
      </trkpt>
      <trkpt lat="43.194067" lon="-4.691467">
        <ele>1979.0</ele>
        <time>2015-03-17T14:42:12Z</time>
      </trkpt>
      <trkpt lat="43.194117" lon="-4.691383">
        <ele>1980.0</ele>
        <time>2015-03-17T14:42:13Z</time>
      </trkpt>
      <trkpt lat="43.194183" lon="-4.691300">
        <ele>1980.0</ele>
        <time>2015-03-17T14:42:14Z</time>
      </trkpt>
      <trkpt lat="43.194250" lon="-4.691200">
        <ele>1979.0</ele>
        <time>2015-03-17T14:42:15Z</time>
      </trkpt>
      <trkpt lat="43.194317" lon="-4.691100">
        <ele>1979.0</ele>
        <time>2015-03-17T14:42:16Z</time>
      </trkpt>
      <trkpt lat="43.194417" lon="-4.691017">
        <ele>1978.0</ele>
        <time>2015-03-17T14:42:17Z</time>
      </trkpt>
      <trkpt lat="43.194517" lon="-4.690917">
        <ele>1977.0</ele>
        <time>2015-03-17T14:42:18Z</time>
      </trkpt>
      <trkpt lat="43.194600" lon="-4.690833">
        <ele>1976.0</ele>
        <time>2015-03-17T14:42:19Z</time>
      </trkpt>
      <trkpt lat="43.194683" lon="-4.690750">
        <ele>1975.0</ele>
        <time>2015-03-17T14:42:20Z</time>
      </trkpt>
      <trkpt lat="43.194767" lon="-4.690633">
        <ele>1975.0</ele>
        <time>2015-03-17T14:42:21Z</time>
      </trkpt>
      <trkpt lat="43.194833" lon="-4.690533">
        <ele>1975.0</ele>
        <time>2015-03-17T14:42:22Z</time>
      </trkpt>
      <trkpt lat="43.194900" lon="-4.690450">
        <ele>1975.0</ele>
        <time>2015-03-17T14:42:23Z</time>
      </trkpt>
      <trkpt lat="43.194950" lon="-4.690350">
        <ele>1974.0</ele>
        <time>2015-03-17T14:42:24Z</time>
      </trkpt>
      <trkpt lat="43.195000" lon="-4.690233">
        <ele>1974.0</ele>
        <time>2015-03-17T14:42:25Z</time>
      </trkpt>
      <trkpt lat="43.195067" lon="-4.690117">
        <ele>1973.0</ele>
        <time>2015-03-17T14:42:26Z</time>
      </trkpt>
      <trkpt lat="43.195133" lon="-4.690000">
        <ele>1973.0</ele>
        <time>2015-03-17T14:42:27Z</time>
      </trkpt>
      <trkpt lat="43.195200" lon="-4.689883">
        <ele>1974.0</ele>
        <time>2015-03-17T14:42:28Z</time>
      </trkpt>
      <trkpt lat="43.195250" lon="-4.689783">
        <ele>1975.0</ele>
        <time>2015-03-17T14:42:29Z</time>
      </trkpt>
      <trkpt lat="43.195300" lon="-4.689683">
        <ele>1975.0</ele>
        <time>2015-03-17T14:42:30Z</time>
      </trkpt>
      <trkpt lat="43.195367" lon="-4.689600">
        <ele>1974.0</ele>
        <time>2015-03-17T14:42:31Z</time>
      </trkpt>
      <trkpt lat="43.195433" lon="-4.689500">
        <ele>1973.0</ele>
        <time>2015-03-17T14:42:32Z</time>
      </trkpt>
      <trkpt lat="43.195500" lon="-4.689417">
        <ele>1971.0</ele>
        <time>2015-03-17T14:42:33Z</time>
      </trkpt>
      <trkpt lat="43.195600" lon="-4.689317">
        <ele>1970.0</ele>
        <time>2015-03-17T14:42:34Z</time>
      </trkpt>
      <trkpt lat="43.195683" lon="-4.689233">
        <ele>1969.0</ele>
        <time>2015-03-17T14:42:35Z</time>
      </trkpt>
      <trkpt lat="43.195733" lon="-4.689100">
        <ele>1968.0</ele>
        <time>2015-03-17T14:42:36Z</time>
      </trkpt>
      <trkpt lat="43.195783" lon="-4.688983">
        <ele>1967.0</ele>
        <time>2015-03-17T14:42:37Z</time>
      </trkpt>
      <trkpt lat="43.195800" lon="-4.688867">
        <ele>1967.0</ele>
        <time>2015-03-17T14:42:38Z</time>
      </trkpt>
      <trkpt lat="43.195833" lon="-4.688767">
        <ele>1968.0</ele>
        <time>2015-03-17T14:42:39Z</time>
      </trkpt>
      <trkpt lat="43.195850" lon="-4.688650">
        <ele>1968.0</ele>
        <time>2015-03-17T14:42:40Z</time>
      </trkpt>
      <trkpt lat="43.195867" lon="-4.688550">
        <ele>1969.0</ele>
        <time>2015-03-17T14:42:41Z</time>
      </trkpt>
      <trkpt lat="43.195867" lon="-4.688450">
        <ele>1969.0</ele>
        <time>2015-03-17T14:42:42Z</time>
      </trkpt>
      <trkpt lat="43.195867" lon="-4.688333">
        <ele>1968.0</ele>
        <time>2015-03-17T14:42:43Z</time>
      </trkpt>
      <trkpt lat="43.195867" lon="-4.688217">
        <ele>1968.0</ele>
        <time>2015-03-17T14:42:44Z</time>
      </trkpt>
      <trkpt lat="43.195883" lon="-4.688083">
        <ele>1968.0</ele>
        <time>2015-03-17T14:42:45Z</time>
      </trkpt>
      <trkpt lat="43.195900" lon="-4.687950">
        <ele>1968.0</ele>
        <time>2015-03-17T14:42:46Z</time>
      </trkpt>
      <trkpt lat="43.195900" lon="-4.687800">
        <ele>1968.0</ele>
        <time>2015-03-17T14:42:47Z</time>
      </trkpt>
      <trkpt lat="43.195900" lon="-4.687667">
        <ele>1970.0</ele>
        <time>2015-03-17T14:42:48Z</time>
      </trkpt>
      <trkpt lat="43.195917" lon="-4.687533">
        <ele>1970.0</ele>
        <time>2015-03-17T14:42:49Z</time>
      </trkpt>
      <trkpt lat="43.195917" lon="-4.687417">
        <ele>1971.0</ele>
        <time>2015-03-17T14:42:50Z</time>
      </trkpt>
      <trkpt lat="43.195917" lon="-4.687300">
        <ele>1971.0</ele>
        <time>2015-03-17T14:42:51Z</time>
      </trkpt>
      <trkpt lat="43.195917" lon="-4.687183">
        <ele>1971.0</ele>
        <time>2015-03-17T14:42:52Z</time>
      </trkpt>
      <trkpt lat="43.195917" lon="-4.687050">
        <ele>1970.0</ele>
        <time>2015-03-17T14:42:53Z</time>
      </trkpt>
      <trkpt lat="43.195917" lon="-4.686900">
        <ele>1970.0</ele>
        <time>2015-03-17T14:42:54Z</time>
      </trkpt>
      <trkpt lat="43.195933" lon="-4.686767">
        <ele>1971.0</ele>
        <time>2015-03-17T14:42:55Z</time>
      </trkpt>
      <trkpt lat="43.195950" lon="-4.686650">
        <ele>1972.0</ele>
        <time>2015-03-17T14:42:56Z</time>
      </trkpt>
      <trkpt lat="43.195950" lon="-4.686533">
        <ele>1972.0</ele>
        <time>2015-03-17T14:42:57Z</time>
      </trkpt>
      <trkpt lat="43.195933" lon="-4.686417">
        <ele>1973.0</ele>
        <time>2015-03-17T14:42:58Z</time>
      </trkpt>
      <trkpt lat="43.195933" lon="-4.686333">
        <ele>1973.0</ele>
        <time>2015-03-17T14:42:59Z</time>
      </trkpt>
      <trkpt lat="43.195933" lon="-4.686233">
        <ele>1972.0</ele>
        <time>2015-03-17T14:43:00Z</time>
      </trkpt>
      <trkpt lat="43.195967" lon="-4.686117">
        <ele>1972.0</ele>
        <time>2015-03-17T14:43:01Z</time>
      </trkpt>
      <trkpt lat="43.196017" lon="-4.686017">
        <ele>1971.0</ele>
        <time>2015-03-17T14:43:02Z</time>
      </trkpt>
      <trkpt lat="43.196083" lon="-4.685933">
        <ele>1970.0</ele>
        <time>2015-03-17T14:43:03Z</time>
      </trkpt>
      <trkpt lat="43.196167" lon="-4.685883">
        <ele>1970.0</ele>
        <time>2015-03-17T14:43:04Z</time>
      </trkpt>
      <trkpt lat="43.196267" lon="-4.685867">
        <ele>1970.0</ele>
        <time>2015-03-17T14:43:05Z</time>
      </trkpt>
      <trkpt lat="43.196367" lon="-4.685867">
        <ele>1970.0</ele>
        <time>2015-03-17T14:43:06Z</time>
      </trkpt>
      <trkpt lat="43.196450" lon="-4.685883">
        <ele>1970.0</ele>
        <time>2015-03-17T14:43:07Z</time>
      </trkpt>
      <trkpt lat="43.196533" lon="-4.685917">
        <ele>1970.0</ele>
        <time>2015-03-17T14:43:08Z</time>
      </trkpt>
      <trkpt lat="43.196617" lon="-4.685950">
        <ele>1970.0</ele>
        <time>2015-03-17T14:43:09Z</time>
      </trkpt>
      <trkpt lat="43.196683" lon="-4.686000">
        <ele>1969.0</ele>
        <time>2015-03-17T14:43:10Z</time>
      </trkpt>
      <trkpt lat="43.196767" lon="-4.686050">
        <ele>1969.0</ele>
        <time>2015-03-17T14:43:11Z</time>
      </trkpt>
      <trkpt lat="43.196850" lon="-4.686117">
        <ele>1968.0</ele>
        <time>2015-03-17T14:43:12Z</time>
      </trkpt>
      <trkpt lat="43.196933" lon="-4.686167">
        <ele>1968.0</ele>
        <time>2015-03-17T14:43:13Z</time>
      </trkpt>
      <trkpt lat="43.197000" lon="-4.686217">
        <ele>1967.0</ele>
        <time>2015-03-17T14:43:14Z</time>
      </trkpt>
      <trkpt lat="43.197083" lon="-4.686267">
        <ele>1967.0</ele>
        <time>2015-03-17T14:43:15Z</time>
      </trkpt>
      <trkpt lat="43.197150" lon="-4.686300">
        <ele>1966.0</ele>
        <time>2015-03-17T14:43:16Z</time>
      </trkpt>
      <trkpt lat="43.197233" lon="-4.686350">
        <ele>1965.0</ele>
        <time>2015-03-17T14:43:17Z</time>
      </trkpt>
      <trkpt lat="43.197317" lon="-4.686400">
        <ele>1964.0</ele>
        <time>2015-03-17T14:43:18Z</time>
      </trkpt>
      <trkpt lat="43.197383" lon="-4.686483">
        <ele>1962.0</ele>
        <time>2015-03-17T14:43:19Z</time>
      </trkpt>
      <trkpt lat="43.197450" lon="-4.686583">
        <ele>1961.0</ele>
        <time>2015-03-17T14:43:20Z</time>
      </trkpt>
      <trkpt lat="43.197483" lon="-4.686683">
        <ele>1960.0</ele>
        <time>2015-03-17T14:43:21Z</time>
      </trkpt>
      <trkpt lat="43.197517" lon="-4.686800">
        <ele>1959.0</ele>
        <time>2015-03-17T14:43:22Z</time>
      </trkpt>
      <trkpt lat="43.197533" lon="-4.686900">
        <ele>1957.0</ele>
        <time>2015-03-17T14:43:23Z</time>
      </trkpt>
      <trkpt lat="43.197550" lon="-4.687000">
        <ele>1955.0</ele>
        <time>2015-03-17T14:43:24Z</time>
      </trkpt>
      <trkpt lat="43.197550" lon="-4.687117">
        <ele>1953.0</ele>
        <time>2015-03-17T14:43:25Z</time>
      </trkpt>
      <trkpt lat="43.197533" lon="-4.687233">
        <ele>1952.0</ele>
        <time>2015-03-17T14:43:26Z</time>
      </trkpt>
      <trkpt lat="43.197500" lon="-4.687350">
        <ele>1952.0</ele>
        <time>2015-03-17T14:43:27Z</time>
      </trkpt>
      <trkpt lat="43.197483" lon="-4.687467">
        <ele>1953.0</ele>
        <time>2015-03-17T14:43:28Z</time>
      </trkpt>
      <trkpt lat="43.197467" lon="-4.687567">
        <ele>1954.0</ele>
        <time>2015-03-17T14:43:29Z</time>
      </trkpt>
      <trkpt lat="43.197450" lon="-4.687667">
        <ele>1955.0</ele>
        <time>2015-03-17T14:43:30Z</time>
      </trkpt>
      <trkpt lat="43.197433" lon="-4.687783">
        <ele>1955.0</ele>
        <time>2015-03-17T14:43:31Z</time>
      </trkpt>
      <trkpt lat="43.197417" lon="-4.687883">
        <ele>1956.0</ele>
        <time>2015-03-17T14:43:32Z</time>
      </trkpt>
      <trkpt lat="43.197400" lon="-4.687983">
        <ele>1958.0</ele>
        <time>2015-03-17T14:43:33Z</time>
      </trkpt>
      <trkpt lat="43.197350" lon="-4.688050">
        <ele>1959.0</ele>
        <time>2015-03-17T14:43:34Z</time>
      </trkpt>
      <trkpt lat="43.197317" lon="-4.688100">
        <ele>1962.0</ele>
        <time>2015-03-17T14:43:35Z</time>
      </trkpt>
      <trkpt lat="43.197267" lon="-4.688150">
        <ele>1964.0</ele>
        <time>2015-03-17T14:43:36Z</time>
      </trkpt>
      <trkpt lat="43.197217" lon="-4.688183">
        <ele>1965.0</ele>
        <time>2015-03-17T14:43:37Z</time>
      </trkpt>
      <trkpt lat="43.197183" lon="-4.688217">
        <ele>1967.0</ele>
        <time>2015-03-17T14:43:38Z</time>
      </trkpt>
      <trkpt lat="43.197150" lon="-4.688250">
        <ele>1966.0</ele>
        <time>2015-03-17T14:43:39Z</time>
      </trkpt>
      <trkpt lat="43.197100" lon="-4.688300">
        <ele>1966.0</ele>
        <time>2015-03-17T14:43:40Z</time>
      </trkpt>
      <trkpt lat="43.197033" lon="-4.688350">
        <ele>1966.0</ele>
        <time>2015-03-17T14:43:41Z</time>
      </trkpt>
      <trkpt lat="43.196967" lon="-4.688383">
        <ele>1967.0</ele>
        <time>2015-03-17T14:43:42Z</time>
      </trkpt>
      <trkpt lat="43.196917" lon="-4.688400">
        <ele>1969.0</ele>
        <time>2015-03-17T14:43:43Z</time>
      </trkpt>
      <trkpt lat="43.196850" lon="-4.688383">
        <ele>1971.0</ele>
        <time>2015-03-17T14:43:44Z</time>
      </trkpt>
      <trkpt lat="43.196800" lon="-4.688383">
        <ele>1973.0</ele>
        <time>2015-03-17T14:43:45Z</time>
      </trkpt>
      <trkpt lat="43.196767" lon="-4.688367">
        <ele>1973.0</ele>
        <time>2015-03-17T14:43:46Z</time>
      </trkpt>
      <trkpt lat="43.196700" lon="-4.688333">
        <ele>1974.0</ele>
        <time>2015-03-17T14:43:47Z</time>
      </trkpt>
      <trkpt lat="43.196650" lon="-4.688267">
        <ele>1975.0</ele>
        <time>2015-03-17T14:43:48Z</time>
      </trkpt>
      <trkpt lat="43.196633" lon="-4.688183">
        <ele>1976.0</ele>
        <time>2015-03-17T14:43:49Z</time>
      </trkpt>
      <trkpt lat="43.196633" lon="-4.688083">
        <ele>1978.0</ele>
        <time>2015-03-17T14:43:50Z</time>
      </trkpt>
      <trkpt lat="43.196667" lon="-4.687983">
        <ele>1979.0</ele>
        <time>2015-03-17T14:43:51Z</time>
      </trkpt>
      <trkpt lat="43.196683" lon="-4.687917">
        <ele>1981.0</ele>
        <time>2015-03-17T14:43:52Z</time>
      </trkpt>
      <trkpt lat="43.196717" lon="-4.687833">
        <ele>1981.0</ele>
        <time>2015-03-17T14:43:53Z</time>
      </trkpt>
      <trkpt lat="43.196733" lon="-4.687750">
        <ele>1980.0</ele>
        <time>2015-03-17T14:43:54Z</time>
      </trkpt>
      <trkpt lat="43.196767" lon="-4.687650">
        <ele>1980.0</ele>
        <time>2015-03-17T14:43:55Z</time>
      </trkpt>
      <trkpt lat="43.196833" lon="-4.687550">
        <ele>1979.0</ele>
        <time>2015-03-17T14:43:56Z</time>
      </trkpt>
      <trkpt lat="43.196933" lon="-4.687483">
        <ele>1979.0</ele>
        <time>2015-03-17T14:43:57Z</time>
      </trkpt>
      <trkpt lat="43.197033" lon="-4.687467">
        <ele>1979.0</ele>
        <time>2015-03-17T14:43:58Z</time>
      </trkpt>
      <trkpt lat="43.197150" lon="-4.687517">
        <ele>1978.0</ele>
        <time>2015-03-17T14:43:59Z</time>
      </trkpt>
      <trkpt lat="43.197233" lon="-4.687583">
        <ele>1979.0</ele>
        <time>2015-03-17T14:44:00Z</time>
      </trkpt>
      <trkpt lat="43.197317" lon="-4.687650">
        <ele>1980.0</ele>
        <time>2015-03-17T14:44:01Z</time>
      </trkpt>
      <trkpt lat="43.197383" lon="-4.687733">
        <ele>1980.0</ele>
        <time>2015-03-17T14:44:02Z</time>
      </trkpt>
      <trkpt lat="43.197433" lon="-4.687817">
        <ele>1980.0</ele>
        <time>2015-03-17T14:44:03Z</time>
      </trkpt>
      <trkpt lat="43.197467" lon="-4.687933">
        <ele>1979.0</ele>
        <time>2015-03-17T14:44:04Z</time>
      </trkpt>
      <trkpt lat="43.197483" lon="-4.688050">
        <ele>1979.0</ele>
        <time>2015-03-17T14:44:05Z</time>
      </trkpt>
      <trkpt lat="43.197467" lon="-4.688150">
        <ele>1979.0</ele>
        <time>2015-03-17T14:44:06Z</time>
      </trkpt>
      <trkpt lat="43.197450" lon="-4.688233">
        <ele>1979.0</ele>
        <time>2015-03-17T14:44:07Z</time>
      </trkpt>
      <trkpt lat="43.197417" lon="-4.688300">
        <ele>1981.0</ele>
        <time>2015-03-17T14:44:08Z</time>
      </trkpt>
      <trkpt lat="43.197400" lon="-4.688350">
        <ele>1982.0</ele>
        <time>2015-03-17T14:44:09Z</time>
      </trkpt>
      <trkpt lat="43.197383" lon="-4.688400">
        <ele>1984.0</ele>
        <time>2015-03-17T14:44:10Z</time>
      </trkpt>
      <trkpt lat="43.197367" lon="-4.688467">
        <ele>1984.0</ele>
        <time>2015-03-17T14:44:11Z</time>
      </trkpt>
      <trkpt lat="43.197333" lon="-4.688533">
        <ele>1985.0</ele>
        <time>2015-03-17T14:44:12Z</time>
      </trkpt>
      <trkpt lat="43.197283" lon="-4.688600">
        <ele>1985.0</ele>
        <time>2015-03-17T14:44:13Z</time>
      </trkpt>
      <trkpt lat="43.197233" lon="-4.688650">
        <ele>1987.0</ele>
        <time>2015-03-17T14:44:14Z</time>
      </trkpt>
      <trkpt lat="43.197183" lon="-4.688700">
        <ele>1989.0</ele>
        <time>2015-03-17T14:44:15Z</time>
      </trkpt>
      <trkpt lat="43.197150" lon="-4.688733">
        <ele>1991.0</ele>
        <time>2015-03-17T14:44:16Z</time>
      </trkpt>
      <trkpt lat="43.197117" lon="-4.688783">
        <ele>1992.0</ele>
        <time>2015-03-17T14:44:17Z</time>
      </trkpt>
      <trkpt lat="43.197083" lon="-4.688833">
        <ele>1993.0</ele>
        <time>2015-03-17T14:44:18Z</time>
      </trkpt>
      <trkpt lat="43.197033" lon="-4.688883">
        <ele>1994.0</ele>
        <time>2015-03-17T14:44:19Z</time>
      </trkpt>
      <trkpt lat="43.196983" lon="-4.688933">
        <ele>1995.0</ele>
        <time>2015-03-17T14:44:20Z</time>
      </trkpt>
      <trkpt lat="43.196933" lon="-4.688983">
        <ele>1996.0</ele>
        <time>2015-03-17T14:44:21Z</time>
      </trkpt>
      <trkpt lat="43.196900" lon="-4.689033">
        <ele>1997.0</ele>
        <time>2015-03-17T14:44:22Z</time>
      </trkpt>
      <trkpt lat="43.196867" lon="-4.689083">
        <ele>1998.0</ele>
        <time>2015-03-17T14:44:23Z</time>
      </trkpt>
      <trkpt lat="43.196817" lon="-4.689133">
        <ele>1998.0</ele>
        <time>2015-03-17T14:44:24Z</time>
      </trkpt>
      <trkpt lat="43.196767" lon="-4.689150">
        <ele>1998.0</ele>
        <time>2015-03-17T14:44:25Z</time>
      </trkpt>
      <trkpt lat="43.196700" lon="-4.689150">
        <ele>1998.0</ele>
        <time>2015-03-17T14:44:26Z</time>
      </trkpt>
      <trkpt lat="43.196650" lon="-4.689150">
        <ele>1998.0</ele>
        <time>2015-03-17T14:44:27Z</time>
      </trkpt>
      <trkpt lat="43.196583" lon="-4.689133">
        <ele>1998.0</ele>
        <time>2015-03-17T14:44:28Z</time>
      </trkpt>
      <trkpt lat="43.196533" lon="-4.689117">
        <ele>1997.0</ele>
        <time>2015-03-17T14:44:29Z</time>
      </trkpt>
      <trkpt lat="43.196467" lon="-4.689083">
        <ele>1998.0</ele>
        <time>2015-03-17T14:44:30Z</time>
      </trkpt>
      <trkpt lat="43.196417" lon="-4.689050">
        <ele>1998.0</ele>
        <time>2015-03-17T14:44:31Z</time>
      </trkpt>
      <trkpt lat="43.196367" lon="-4.689033">
        <ele>1998.0</ele>
        <time>2015-03-17T14:44:32Z</time>
      </trkpt>
      <trkpt lat="43.196333" lon="-4.689000">
        <ele>1998.0</ele>
        <time>2015-03-17T14:44:33Z</time>
      </trkpt>
      <trkpt lat="43.196300" lon="-4.688983">
        <ele>1997.0</ele>
        <time>2015-03-17T14:44:34Z</time>
      </trkpt>
      <trkpt lat="43.196250" lon="-4.688933">
        <ele>1996.0</ele>
        <time>2015-03-17T14:44:35Z</time>
      </trkpt>
      <trkpt lat="43.196183" lon="-4.688883">
        <ele>1995.0</ele>
        <time>2015-03-17T14:44:36Z</time>
      </trkpt>
      <trkpt lat="43.196133" lon="-4.688833">
        <ele>1996.0</ele>
        <time>2015-03-17T14:44:37Z</time>
      </trkpt>
      <trkpt lat="43.196100" lon="-4.688800">
        <ele>1996.0</ele>
        <time>2015-03-17T14:44:38Z</time>
      </trkpt>
      <trkpt lat="43.196067" lon="-4.688750">
        <ele>1996.0</ele>
        <time>2015-03-17T14:44:39Z</time>
      </trkpt>
      <trkpt lat="43.196033" lon="-4.688700">
        <ele>1996.0</ele>
        <time>2015-03-17T14:44:40Z</time>
      </trkpt>
      <trkpt lat="43.195983" lon="-4.688633">
        <ele>1996.0</ele>
        <time>2015-03-17T14:44:41Z</time>
      </trkpt>
      <trkpt lat="43.195950" lon="-4.688583">
        <ele>1994.0</ele>
        <time>2015-03-17T14:44:42Z</time>
      </trkpt>
      <trkpt lat="43.195900" lon="-4.688517">
        <ele>1993.0</ele>
        <time>2015-03-17T14:44:43Z</time>
      </trkpt>
      <trkpt lat="43.195867" lon="-4.688450">
        <ele>1993.0</ele>
        <time>2015-03-17T14:44:44Z</time>
      </trkpt>
      <trkpt lat="43.195833" lon="-4.688367">
        <ele>1992.0</ele>
        <time>2015-03-17T14:44:45Z</time>
      </trkpt>
      <trkpt lat="43.195817" lon="-4.688283">
        <ele>1991.0</ele>
        <time>2015-03-17T14:44:46Z</time>
      </trkpt>
      <trkpt lat="43.195783" lon="-4.688200">
        <ele>1989.0</ele>
        <time>2015-03-17T14:44:47Z</time>
      </trkpt>
      <trkpt lat="43.195750" lon="-4.688100">
        <ele>1988.0</ele>
        <time>2015-03-17T14:44:48Z</time>
      </trkpt>
      <trkpt lat="43.195700" lon="-4.688017">
        <ele>1987.0</ele>
        <time>2015-03-17T14:44:49Z</time>
      </trkpt>
      <trkpt lat="43.195667" lon="-4.687917">
        <ele>1988.0</ele>
        <time>2015-03-17T14:44:50Z</time>
      </trkpt>
      <trkpt lat="43.195650" lon="-4.687833">
        <ele>1988.0</ele>
        <time>2015-03-17T14:44:51Z</time>
      </trkpt>
      <trkpt lat="43.195633" lon="-4.687767">
        <ele>1988.0</ele>
        <time>2015-03-17T14:44:52Z</time>
      </trkpt>
      <trkpt lat="43.195633" lon="-4.687667">
        <ele>1988.0</ele>
        <time>2015-03-17T14:44:53Z</time>
      </trkpt>
      <trkpt lat="43.195633" lon="-4.687567">
        <ele>1987.0</ele>
        <time>2015-03-17T14:44:54Z</time>
      </trkpt>
      <trkpt lat="43.195633" lon="-4.687450">
        <ele>1985.0</ele>
        <time>2015-03-17T14:44:55Z</time>
      </trkpt>
      <trkpt lat="43.195633" lon="-4.687317">
        <ele>1985.0</ele>
        <time>2015-03-17T14:44:56Z</time>
      </trkpt>
      <trkpt lat="43.195650" lon="-4.687183">
        <ele>1985.0</ele>
        <time>2015-03-17T14:44:57Z</time>
      </trkpt>
      <trkpt lat="43.195667" lon="-4.687050">
        <ele>1985.0</ele>
        <time>2015-03-17T14:44:58Z</time>
      </trkpt>
      <trkpt lat="43.195683" lon="-4.686933">
        <ele>1986.0</ele>
        <time>2015-03-17T14:44:59Z</time>
      </trkpt>
      <trkpt lat="43.195683" lon="-4.686833">
        <ele>1986.0</ele>
        <time>2015-03-17T14:45:00Z</time>
      </trkpt>
      <trkpt lat="43.195717" lon="-4.686733">
        <ele>1985.0</ele>
        <time>2015-03-17T14:45:01Z</time>
      </trkpt>
      <trkpt lat="43.195767" lon="-4.686650">
        <ele>1985.0</ele>
        <time>2015-03-17T14:45:02Z</time>
      </trkpt>
      <trkpt lat="43.195817" lon="-4.686550">
        <ele>1982.0</ele>
        <time>2015-03-17T14:45:03Z</time>
      </trkpt>
      <trkpt lat="43.195883" lon="-4.686467">
        <ele>1980.0</ele>
        <time>2015-03-17T14:45:04Z</time>
      </trkpt>
      <trkpt lat="43.195933" lon="-4.686367">
        <ele>1978.0</ele>
        <time>2015-03-17T14:45:05Z</time>
      </trkpt>
      <trkpt lat="43.195983" lon="-4.686250">
        <ele>1976.0</ele>
        <time>2015-03-17T14:45:06Z</time>
      </trkpt>
      <trkpt lat="43.196017" lon="-4.686117">
        <ele>1974.0</ele>
        <time>2015-03-17T14:45:07Z</time>
      </trkpt>
      <trkpt lat="43.196033" lon="-4.685967">
        <ele>1973.0</ele>
        <time>2015-03-17T14:45:08Z</time>
      </trkpt>
      <trkpt lat="43.196050" lon="-4.685833">
        <ele>1971.0</ele>
        <time>2015-03-17T14:45:09Z</time>
      </trkpt>
      <trkpt lat="43.196067" lon="-4.685683">
        <ele>1971.0</ele>
        <time>2015-03-17T14:45:10Z</time>
      </trkpt>
      <trkpt lat="43.196083" lon="-4.685567">
        <ele>1970.0</ele>
        <time>2015-03-17T14:45:11Z</time>
      </trkpt>
      <trkpt lat="43.196083" lon="-4.685433">
        <ele>1970.0</ele>
        <time>2015-03-17T14:45:12Z</time>
      </trkpt>
      <trkpt lat="43.196083" lon="-4.685317">
        <ele>1968.0</ele>
        <time>2015-03-17T14:45:13Z</time>
      </trkpt>
      <trkpt lat="43.196083" lon="-4.685183">
        <ele>1966.0</ele>
        <time>2015-03-17T14:45:14Z</time>
      </trkpt>
      <trkpt lat="43.196083" lon="-4.685050">
        <ele>1963.0</ele>
        <time>2015-03-17T14:45:15Z</time>
      </trkpt>
      <trkpt lat="43.196100" lon="-4.684900">
        <ele>1962.0</ele>
        <time>2015-03-17T14:45:16Z</time>
      </trkpt>
      <trkpt lat="43.196100" lon="-4.684767">
        <ele>1961.0</ele>
        <time>2015-03-17T14:45:17Z</time>
      </trkpt>
      <trkpt lat="43.196083" lon="-4.684633">
        <ele>1960.0</ele>
        <time>2015-03-17T14:45:18Z</time>
      </trkpt>
      <trkpt lat="43.196083" lon="-4.684517">
        <ele>1959.0</ele>
        <time>2015-03-17T14:45:19Z</time>
      </trkpt>
      <trkpt lat="43.196067" lon="-4.684417">
        <ele>1958.0</ele>
        <time>2015-03-17T14:45:20Z</time>
      </trkpt>
      <trkpt lat="43.196050" lon="-4.684283">
        <ele>1957.0</ele>
        <time>2015-03-17T14:45:21Z</time>
      </trkpt>
      <trkpt lat="43.196033" lon="-4.684167">
        <ele>1955.0</ele>
        <time>2015-03-17T14:45:22Z</time>
      </trkpt>
      <trkpt lat="43.196017" lon="-4.684033">
        <ele>1954.0</ele>
        <time>2015-03-17T14:45:23Z</time>
      </trkpt>
      <trkpt lat="43.195983" lon="-4.683900">
        <ele>1953.0</ele>
        <time>2015-03-17T14:45:24Z</time>
      </trkpt>
      <trkpt lat="43.195967" lon="-4.683783">
        <ele>1953.0</ele>
        <time>2015-03-17T14:45:25Z</time>
      </trkpt>
      <trkpt lat="43.195950" lon="-4.683667">
        <ele>1952.0</ele>
        <time>2015-03-17T14:45:26Z</time>
      </trkpt>
      <trkpt lat="43.195933" lon="-4.683567">
        <ele>1952.0</ele>
        <time>2015-03-17T14:45:27Z</time>
      </trkpt>
      <trkpt lat="43.195917" lon="-4.683467">
        <ele>1951.0</ele>
        <time>2015-03-17T14:45:28Z</time>
      </trkpt>
      <trkpt lat="43.195883" lon="-4.683367">
        <ele>1949.0</ele>
        <time>2015-03-17T14:45:29Z</time>
      </trkpt>
      <trkpt lat="43.195850" lon="-4.683267">
        <ele>1948.0</ele>
        <time>2015-03-17T14:45:30Z</time>
      </trkpt>
      <trkpt lat="43.195817" lon="-4.683167">
        <ele>1947.0</ele>
        <time>2015-03-17T14:45:31Z</time>
      </trkpt>
      <trkpt lat="43.195783" lon="-4.683067">
        <ele>1946.0</ele>
        <time>2015-03-17T14:45:32Z</time>
      </trkpt>
      <trkpt lat="43.195750" lon="-4.682950">
        <ele>1945.0</ele>
        <time>2015-03-17T14:45:33Z</time>
      </trkpt>
      <trkpt lat="43.195733" lon="-4.682850">
        <ele>1945.0</ele>
        <time>2015-03-17T14:45:34Z</time>
      </trkpt>
      <trkpt lat="43.195700" lon="-4.682750">
        <ele>1945.0</ele>
        <time>2015-03-17T14:45:35Z</time>
      </trkpt>
      <trkpt lat="43.195683" lon="-4.682633">
        <ele>1945.0</ele>
        <time>2015-03-17T14:45:36Z</time>
      </trkpt>
      <trkpt lat="43.195650" lon="-4.682533">
        <ele>1945.0</ele>
        <time>2015-03-17T14:45:37Z</time>
      </trkpt>
      <trkpt lat="43.195633" lon="-4.682433">
        <ele>1945.0</ele>
        <time>2015-03-17T14:45:38Z</time>
      </trkpt>
      <trkpt lat="43.195617" lon="-4.682317">
        <ele>1945.0</ele>
        <time>2015-03-17T14:45:39Z</time>
      </trkpt>
      <trkpt lat="43.195600" lon="-4.682200">
        <ele>1945.0</ele>
        <time>2015-03-17T14:45:40Z</time>
      </trkpt>
      <trkpt lat="43.195583" lon="-4.682083">
        <ele>1944.0</ele>
        <time>2015-03-17T14:45:41Z</time>
      </trkpt>
      <trkpt lat="43.195583" lon="-4.681983">
        <ele>1944.0</ele>
        <time>2015-03-17T14:45:42Z</time>
      </trkpt>
      <trkpt lat="43.195567" lon="-4.681867">
        <ele>1944.0</ele>
        <time>2015-03-17T14:45:43Z</time>
      </trkpt>
      <trkpt lat="43.195583" lon="-4.681733">
        <ele>1943.0</ele>
        <time>2015-03-17T14:45:44Z</time>
      </trkpt>
      <trkpt lat="43.195583" lon="-4.681600">
        <ele>1942.0</ele>
        <time>2015-03-17T14:45:45Z</time>
      </trkpt>
      <trkpt lat="43.195583" lon="-4.681467">
        <ele>1942.0</ele>
        <time>2015-03-17T14:45:46Z</time>
      </trkpt>
      <trkpt lat="43.195600" lon="-4.681350">
        <ele>1941.0</ele>
        <time>2015-03-17T14:45:47Z</time>
      </trkpt>
      <trkpt lat="43.195600" lon="-4.681217">
        <ele>1940.0</ele>
        <time>2015-03-17T14:45:48Z</time>
      </trkpt>
      <trkpt lat="43.195617" lon="-4.681100">
        <ele>1939.0</ele>
        <time>2015-03-17T14:45:49Z</time>
      </trkpt>
      <trkpt lat="43.195633" lon="-4.680983">
        <ele>1937.0</ele>
        <time>2015-03-17T14:45:50Z</time>
      </trkpt>
      <trkpt lat="43.195650" lon="-4.680867">
        <ele>1934.0</ele>
        <time>2015-03-17T14:45:51Z</time>
      </trkpt>
      <trkpt lat="43.195650" lon="-4.680750">
        <ele>1932.0</ele>
        <time>2015-03-17T14:45:52Z</time>
      </trkpt>
      <trkpt lat="43.195650" lon="-4.680600">
        <ele>1930.0</ele>
        <time>2015-03-17T14:45:53Z</time>
      </trkpt>
      <trkpt lat="43.195667" lon="-4.680467">
        <ele>1928.0</ele>
        <time>2015-03-17T14:45:54Z</time>
      </trkpt>
      <trkpt lat="43.195683" lon="-4.680333">
        <ele>1928.0</ele>
        <time>2015-03-17T14:45:55Z</time>
      </trkpt>
      <trkpt lat="43.195683" lon="-4.680200">
        <ele>1927.0</ele>
        <time>2015-03-17T14:45:56Z</time>
      </trkpt>
      <trkpt lat="43.195683" lon="-4.680083">
        <ele>1926.0</ele>
        <time>2015-03-17T14:45:57Z</time>
      </trkpt>
      <trkpt lat="43.195700" lon="-4.679950">
        <ele>1925.0</ele>
        <time>2015-03-17T14:45:58Z</time>
      </trkpt>
      <trkpt lat="43.195700" lon="-4.679817">
        <ele>1923.0</ele>
        <time>2015-03-17T14:45:59Z</time>
      </trkpt>
      <trkpt lat="43.195733" lon="-4.679683">
        <ele>1922.0</ele>
        <time>2015-03-17T14:46:00Z</time>
      </trkpt>
      <trkpt lat="43.195750" lon="-4.679533">
        <ele>1922.0</ele>
        <time>2015-03-17T14:46:01Z</time>
      </trkpt>
      <trkpt lat="43.195783" lon="-4.679400">
        <ele>1922.0</ele>
        <time>2015-03-17T14:46:02Z</time>
      </trkpt>
      <trkpt lat="43.195817" lon="-4.679267">
        <ele>1923.0</ele>
        <time>2015-03-17T14:46:03Z</time>
      </trkpt>
      <trkpt lat="43.195850" lon="-4.679150">
        <ele>1923.0</ele>
        <time>2015-03-17T14:46:04Z</time>
      </trkpt>
      <trkpt lat="43.195867" lon="-4.679017">
        <ele>1923.0</ele>
        <time>2015-03-17T14:46:05Z</time>
      </trkpt>
      <trkpt lat="43.195883" lon="-4.678883">
        <ele>1922.0</ele>
        <time>2015-03-17T14:46:06Z</time>
      </trkpt>
      <trkpt lat="43.195900" lon="-4.678733">
        <ele>1922.0</ele>
        <time>2015-03-17T14:46:07Z</time>
      </trkpt>
      <trkpt lat="43.195933" lon="-4.678600">
        <ele>1923.0</ele>
        <time>2015-03-17T14:46:08Z</time>
      </trkpt>
      <trkpt lat="43.195950" lon="-4.678483">
        <ele>1924.0</ele>
        <time>2015-03-17T14:46:09Z</time>
      </trkpt>
      <trkpt lat="43.195967" lon="-4.678367">
        <ele>1925.0</ele>
        <time>2015-03-17T14:46:10Z</time>
      </trkpt>
      <trkpt lat="43.196000" lon="-4.678267">
        <ele>1925.0</ele>
        <time>2015-03-17T14:46:11Z</time>
      </trkpt>
      <trkpt lat="43.196000" lon="-4.678150">
        <ele>1925.0</ele>
        <time>2015-03-17T14:46:12Z</time>
      </trkpt>
      <trkpt lat="43.196000" lon="-4.678033">
        <ele>1925.0</ele>
        <time>2015-03-17T14:46:13Z</time>
      </trkpt>
      <trkpt lat="43.196000" lon="-4.677917">
        <ele>1924.0</ele>
        <time>2015-03-17T14:46:14Z</time>
      </trkpt>
      <trkpt lat="43.196000" lon="-4.677800">
        <ele>1924.0</ele>
        <time>2015-03-17T14:46:15Z</time>
      </trkpt>
      <trkpt lat="43.196017" lon="-4.677683">
        <ele>1924.0</ele>
        <time>2015-03-17T14:46:16Z</time>
      </trkpt>
      <trkpt lat="43.196017" lon="-4.677567">
        <ele>1924.0</ele>
        <time>2015-03-17T14:46:17Z</time>
      </trkpt>
      <trkpt lat="43.196017" lon="-4.677467">
        <ele>1924.0</ele>
        <time>2015-03-17T14:46:18Z</time>
      </trkpt>
      <trkpt lat="43.196017" lon="-4.677350">
        <ele>1924.0</ele>
        <time>2015-03-17T14:46:19Z</time>
      </trkpt>
      <trkpt lat="43.196000" lon="-4.677233">
        <ele>1924.0</ele>
        <time>2015-03-17T14:46:20Z</time>
      </trkpt>
      <trkpt lat="43.196000" lon="-4.677117">
        <ele>1924.0</ele>
        <time>2015-03-17T14:46:21Z</time>
      </trkpt>
      <trkpt lat="43.196000" lon="-4.677000">
        <ele>1924.0</ele>
        <time>2015-03-17T14:46:22Z</time>
      </trkpt>
      <trkpt lat="43.196000" lon="-4.676883">
        <ele>1924.0</ele>
        <time>2015-03-17T14:46:23Z</time>
      </trkpt>
      <trkpt lat="43.195983" lon="-4.676767">
        <ele>1924.0</ele>
        <time>2015-03-17T14:46:24Z</time>
      </trkpt>
      <trkpt lat="43.195983" lon="-4.676650">
        <ele>1924.0</ele>
        <time>2015-03-17T14:46:25Z</time>
      </trkpt>
      <trkpt lat="43.195967" lon="-4.676533">
        <ele>1924.0</ele>
        <time>2015-03-17T14:46:26Z</time>
      </trkpt>
      <trkpt lat="43.195950" lon="-4.676417">
        <ele>1923.0</ele>
        <time>2015-03-17T14:46:27Z</time>
      </trkpt>
      <trkpt lat="43.195933" lon="-4.676300">
        <ele>1923.0</ele>
        <time>2015-03-17T14:46:28Z</time>
      </trkpt>
      <trkpt lat="43.195900" lon="-4.676183">
        <ele>1922.0</ele>
        <time>2015-03-17T14:46:29Z</time>
      </trkpt>
      <trkpt lat="43.195867" lon="-4.676067">
        <ele>1921.0</ele>
        <time>2015-03-17T14:46:30Z</time>
      </trkpt>
      <trkpt lat="43.195850" lon="-4.675933">
        <ele>1921.0</ele>
        <time>2015-03-17T14:46:31Z</time>
      </trkpt>
      <trkpt lat="43.195833" lon="-4.675817">
        <ele>1922.0</ele>
        <time>2015-03-17T14:46:32Z</time>
      </trkpt>
      <trkpt lat="43.195817" lon="-4.675717">
        <ele>1922.0</ele>
        <time>2015-03-17T14:46:33Z</time>
      </trkpt>
      <trkpt lat="43.195817" lon="-4.675617">
        <ele>1923.0</ele>
        <time>2015-03-17T14:46:34Z</time>
      </trkpt>
      <trkpt lat="43.195800" lon="-4.675517">
        <ele>1923.0</ele>
        <time>2015-03-17T14:46:35Z</time>
      </trkpt>
      <trkpt lat="43.195800" lon="-4.675400">
        <ele>1923.0</ele>
        <time>2015-03-17T14:46:36Z</time>
      </trkpt>
      <trkpt lat="43.195800" lon="-4.675283">
        <ele>1923.0</ele>
        <time>2015-03-17T14:46:37Z</time>
      </trkpt>
      <trkpt lat="43.195800" lon="-4.675150">
        <ele>1923.0</ele>
        <time>2015-03-17T14:46:38Z</time>
      </trkpt>
      <trkpt lat="43.195800" lon="-4.675017">
        <ele>1923.0</ele>
        <time>2015-03-17T14:46:39Z</time>
      </trkpt>
      <trkpt lat="43.195783" lon="-4.674900">
        <ele>1923.0</ele>
        <time>2015-03-17T14:46:40Z</time>
      </trkpt>
      <trkpt lat="43.195783" lon="-4.674783">
        <ele>1924.0</ele>
        <time>2015-03-17T14:46:41Z</time>
      </trkpt>
      <trkpt lat="43.195767" lon="-4.674667">
        <ele>1924.0</ele>
        <time>2015-03-17T14:46:42Z</time>
      </trkpt>
      <trkpt lat="43.195767" lon="-4.674533">
        <ele>1924.0</ele>
        <time>2015-03-17T14:46:43Z</time>
      </trkpt>
      <trkpt lat="43.195783" lon="-4.674417">
        <ele>1924.0</ele>
        <time>2015-03-17T14:46:44Z</time>
      </trkpt>
      <trkpt lat="43.195783" lon="-4.674283">
        <ele>1924.0</ele>
        <time>2015-03-17T14:46:45Z</time>
      </trkpt>
      <trkpt lat="43.195767" lon="-4.674167">
        <ele>1925.0</ele>
        <time>2015-03-17T14:46:46Z</time>
      </trkpt>
      <trkpt lat="43.195783" lon="-4.674033">
        <ele>1926.0</ele>
        <time>2015-03-17T14:46:47Z</time>
      </trkpt>
      <trkpt lat="43.195783" lon="-4.673900">
        <ele>1927.0</ele>
        <time>2015-03-17T14:46:48Z</time>
      </trkpt>
      <trkpt lat="43.195817" lon="-4.673767">
        <ele>1927.0</ele>
        <time>2015-03-17T14:46:49Z</time>
      </trkpt>
      <trkpt lat="43.195833" lon="-4.673633">
        <ele>1927.0</ele>
        <time>2015-03-17T14:46:50Z</time>
      </trkpt>
      <trkpt lat="43.195850" lon="-4.673500">
        <ele>1927.0</ele>
        <time>2015-03-17T14:46:51Z</time>
      </trkpt>
      <trkpt lat="43.195850" lon="-4.673383">
        <ele>1927.0</ele>
        <time>2015-03-17T14:46:52Z</time>
      </trkpt>
      <trkpt lat="43.195833" lon="-4.673283">
        <ele>1928.0</ele>
        <time>2015-03-17T14:46:53Z</time>
      </trkpt>
      <trkpt lat="43.195817" lon="-4.673200">
        <ele>1927.0</ele>
        <time>2015-03-17T14:46:54Z</time>
      </trkpt>
      <trkpt lat="43.195783" lon="-4.673117">
        <ele>1928.0</ele>
        <time>2015-03-17T14:46:55Z</time>
      </trkpt>
      <trkpt lat="43.195767" lon="-4.673033">
        <ele>1928.0</ele>
        <time>2015-03-17T14:46:56Z</time>
      </trkpt>
      <trkpt lat="43.195750" lon="-4.672917">
        <ele>1928.0</ele>
        <time>2015-03-17T14:46:57Z</time>
      </trkpt>
      <trkpt lat="43.195733" lon="-4.672800">
        <ele>1927.0</ele>
        <time>2015-03-17T14:46:58Z</time>
      </trkpt>
      <trkpt lat="43.195717" lon="-4.672667">
        <ele>1926.0</ele>
        <time>2015-03-17T14:46:59Z</time>
      </trkpt>
      <trkpt lat="43.195683" lon="-4.672550">
        <ele>1926.0</ele>
        <time>2015-03-17T14:47:00Z</time>
      </trkpt>
      <trkpt lat="43.195650" lon="-4.672450">
        <ele>1926.0</ele>
        <time>2015-03-17T14:47:01Z</time>
      </trkpt>
      <trkpt lat="43.195617" lon="-4.672333">
        <ele>1926.0</ele>
        <time>2015-03-17T14:47:02Z</time>
      </trkpt>
      <trkpt lat="43.195600" lon="-4.672233">
        <ele>1926.0</ele>
        <time>2015-03-17T14:47:03Z</time>
      </trkpt>
      <trkpt lat="43.195583" lon="-4.672117">
        <ele>1926.0</ele>
        <time>2015-03-17T14:47:04Z</time>
      </trkpt>
      <trkpt lat="43.195567" lon="-4.672000">
        <ele>1926.0</ele>
        <time>2015-03-17T14:47:05Z</time>
      </trkpt>
      <trkpt lat="43.195567" lon="-4.671867">
        <ele>1926.0</ele>
        <time>2015-03-17T14:47:06Z</time>
      </trkpt>
      <trkpt lat="43.195550" lon="-4.671733">
        <ele>1926.0</ele>
        <time>2015-03-17T14:47:07Z</time>
      </trkpt>
      <trkpt lat="43.195533" lon="-4.671600">
        <ele>1927.0</ele>
        <time>2015-03-17T14:47:08Z</time>
      </trkpt>
      <trkpt lat="43.195517" lon="-4.671483">
        <ele>1928.0</ele>
        <time>2015-03-17T14:47:09Z</time>
      </trkpt>
      <trkpt lat="43.195500" lon="-4.671350">
        <ele>1928.0</ele>
        <time>2015-03-17T14:47:10Z</time>
      </trkpt>
      <trkpt lat="43.195500" lon="-4.671217">
        <ele>1928.0</ele>
        <time>2015-03-17T14:47:11Z</time>
      </trkpt>
      <trkpt lat="43.195517" lon="-4.671067">
        <ele>1928.0</ele>
        <time>2015-03-17T14:47:12Z</time>
      </trkpt>
      <trkpt lat="43.195517" lon="-4.670933">
        <ele>1928.0</ele>
        <time>2015-03-17T14:47:13Z</time>
      </trkpt>
      <trkpt lat="43.195533" lon="-4.670783">
        <ele>1928.0</ele>
        <time>2015-03-17T14:47:14Z</time>
      </trkpt>
      <trkpt lat="43.195550" lon="-4.670633">
        <ele>1929.0</ele>
        <time>2015-03-17T14:47:15Z</time>
      </trkpt>
      <trkpt lat="43.195550" lon="-4.670500">
        <ele>1929.0</ele>
        <time>2015-03-17T14:47:16Z</time>
      </trkpt>
      <trkpt lat="43.195567" lon="-4.670367">
        <ele>1930.0</ele>
        <time>2015-03-17T14:47:17Z</time>
      </trkpt>
      <trkpt lat="43.195583" lon="-4.670250">
        <ele>1931.0</ele>
        <time>2015-03-17T14:47:18Z</time>
      </trkpt>
      <trkpt lat="43.195617" lon="-4.670133">
        <ele>1931.0</ele>
        <time>2015-03-17T14:47:19Z</time>
      </trkpt>
      <trkpt lat="43.195633" lon="-4.670017">
        <ele>1931.0</ele>
        <time>2015-03-17T14:47:20Z</time>
      </trkpt>
      <trkpt lat="43.195650" lon="-4.669900">
        <ele>1931.0</ele>
        <time>2015-03-17T14:47:21Z</time>
      </trkpt>
      <trkpt lat="43.195667" lon="-4.669767">
        <ele>1931.0</ele>
        <time>2015-03-17T14:47:22Z</time>
      </trkpt>
      <trkpt lat="43.195700" lon="-4.669633">
        <ele>1931.0</ele>
        <time>2015-03-17T14:47:23Z</time>
      </trkpt>
      <trkpt lat="43.195717" lon="-4.669500">
        <ele>1930.0</ele>
        <time>2015-03-17T14:47:24Z</time>
      </trkpt>
      <trkpt lat="43.195733" lon="-4.669367">
        <ele>1930.0</ele>
        <time>2015-03-17T14:47:25Z</time>
      </trkpt>
      <trkpt lat="43.195733" lon="-4.669217">
        <ele>1929.0</ele>
        <time>2015-03-17T14:47:26Z</time>
      </trkpt>
      <trkpt lat="43.195733" lon="-4.669067">
        <ele>1928.0</ele>
        <time>2015-03-17T14:47:27Z</time>
      </trkpt>
      <trkpt lat="43.195750" lon="-4.668917">
        <ele>1928.0</ele>
        <time>2015-03-17T14:47:28Z</time>
      </trkpt>
      <trkpt lat="43.195783" lon="-4.668767">
        <ele>1928.0</ele>
        <time>2015-03-17T14:47:29Z</time>
      </trkpt>
      <trkpt lat="43.195800" lon="-4.668617">
        <ele>1929.0</ele>
        <time>2015-03-17T14:47:30Z</time>
      </trkpt>
      <trkpt lat="43.195817" lon="-4.668467">
        <ele>1930.0</ele>
        <time>2015-03-17T14:47:31Z</time>
      </trkpt>
      <trkpt lat="43.195833" lon="-4.668317">
        <ele>1930.0</ele>
        <time>2015-03-17T14:47:32Z</time>
      </trkpt>
      <trkpt lat="43.195850" lon="-4.668167">
        <ele>1931.0</ele>
        <time>2015-03-17T14:47:33Z</time>
      </trkpt>
      <trkpt lat="43.195867" lon="-4.668017">
        <ele>1931.0</ele>
        <time>2015-03-17T14:47:34Z</time>
      </trkpt>
      <trkpt lat="43.195900" lon="-4.667850">
        <ele>1931.0</ele>
        <time>2015-03-17T14:47:35Z</time>
      </trkpt>
      <trkpt lat="43.195917" lon="-4.667683">
        <ele>1931.0</ele>
        <time>2015-03-17T14:47:36Z</time>
      </trkpt>
      <trkpt lat="43.195917" lon="-4.667550">
        <ele>1932.0</ele>
        <time>2015-03-17T14:47:37Z</time>
      </trkpt>
      <trkpt lat="43.195933" lon="-4.667433">
        <ele>1933.0</ele>
        <time>2015-03-17T14:47:38Z</time>
      </trkpt>
      <trkpt lat="43.195950" lon="-4.667300">
        <ele>1932.0</ele>
        <time>2015-03-17T14:47:39Z</time>
      </trkpt>
      <trkpt lat="43.195967" lon="-4.667167">
        <ele>1932.0</ele>
        <time>2015-03-17T14:47:40Z</time>
      </trkpt>
      <trkpt lat="43.195967" lon="-4.667033">
        <ele>1932.0</ele>
        <time>2015-03-17T14:47:41Z</time>
      </trkpt>
      <trkpt lat="43.195967" lon="-4.666883">
        <ele>1932.0</ele>
        <time>2015-03-17T14:47:42Z</time>
      </trkpt>
      <trkpt lat="43.195983" lon="-4.666750">
        <ele>1931.0</ele>
        <time>2015-03-17T14:47:43Z</time>
      </trkpt>
      <trkpt lat="43.196000" lon="-4.666600">
        <ele>1932.0</ele>
        <time>2015-03-17T14:47:44Z</time>
      </trkpt>
      <trkpt lat="43.196017" lon="-4.666467">
        <ele>1932.0</ele>
        <time>2015-03-17T14:47:45Z</time>
      </trkpt>
      <trkpt lat="43.196017" lon="-4.666333">
        <ele>1932.0</ele>
        <time>2015-03-17T14:47:46Z</time>
      </trkpt>
      <trkpt lat="43.196017" lon="-4.666200">
        <ele>1932.0</ele>
        <time>2015-03-17T14:47:47Z</time>
      </trkpt>
      <trkpt lat="43.196000" lon="-4.666050">
        <ele>1932.0</ele>
        <time>2015-03-17T14:47:48Z</time>
      </trkpt>
      <trkpt lat="43.196000" lon="-4.665900">
        <ele>1932.0</ele>
        <time>2015-03-17T14:47:49Z</time>
      </trkpt>
      <trkpt lat="43.196000" lon="-4.665767">
        <ele>1933.0</ele>
        <time>2015-03-17T14:47:50Z</time>
      </trkpt>
      <trkpt lat="43.196000" lon="-4.665633">
        <ele>1933.0</ele>
        <time>2015-03-17T14:47:51Z</time>
      </trkpt>
      <trkpt lat="43.196000" lon="-4.665483">
        <ele>1934.0</ele>
        <time>2015-03-17T14:47:52Z</time>
      </trkpt>
      <trkpt lat="43.196017" lon="-4.665350">
        <ele>1934.0</ele>
        <time>2015-03-17T14:47:53Z</time>
      </trkpt>
      <trkpt lat="43.196033" lon="-4.665217">
        <ele>1934.0</ele>
        <time>2015-03-17T14:47:54Z</time>
      </trkpt>
      <trkpt lat="43.196050" lon="-4.665083">
        <ele>1934.0</ele>
        <time>2015-03-17T14:47:55Z</time>
      </trkpt>
      <trkpt lat="43.196083" lon="-4.664950">
        <ele>1935.0</ele>
        <time>2015-03-17T14:47:56Z</time>
      </trkpt>
      <trkpt lat="43.196100" lon="-4.664817">
        <ele>1935.0</ele>
        <time>2015-03-17T14:47:57Z</time>
      </trkpt>
      <trkpt lat="43.196133" lon="-4.664683">
        <ele>1935.0</ele>
        <time>2015-03-17T14:47:58Z</time>
      </trkpt>
      <trkpt lat="43.196167" lon="-4.664550">
        <ele>1935.0</ele>
        <time>2015-03-17T14:47:59Z</time>
      </trkpt>
      <trkpt lat="43.196200" lon="-4.664417">
        <ele>1935.0</ele>
        <time>2015-03-17T14:48:00Z</time>
      </trkpt>
      <trkpt lat="43.196250" lon="-4.664283">
        <ele>1935.0</ele>
        <time>2015-03-17T14:48:01Z</time>
      </trkpt>
      <trkpt lat="43.196317" lon="-4.664150">
        <ele>1935.0</ele>
        <time>2015-03-17T14:48:02Z</time>
      </trkpt>
      <trkpt lat="43.196350" lon="-4.664033">
        <ele>1935.0</ele>
        <time>2015-03-17T14:48:03Z</time>
      </trkpt>
      <trkpt lat="43.196400" lon="-4.663900">
        <ele>1935.0</ele>
        <time>2015-03-17T14:48:04Z</time>
      </trkpt>
      <trkpt lat="43.196450" lon="-4.663767">
        <ele>1935.0</ele>
        <time>2015-03-17T14:48:05Z</time>
      </trkpt>
      <trkpt lat="43.196500" lon="-4.663633">
        <ele>1934.0</ele>
        <time>2015-03-17T14:48:06Z</time>
      </trkpt>
      <trkpt lat="43.196550" lon="-4.663500">
        <ele>1933.0</ele>
        <time>2015-03-17T14:48:07Z</time>
      </trkpt>
      <trkpt lat="43.196600" lon="-4.663350">
        <ele>1932.0</ele>
        <time>2015-03-17T14:48:08Z</time>
      </trkpt>
      <trkpt lat="43.196633" lon="-4.663200">
        <ele>1931.0</ele>
        <time>2015-03-17T14:48:09Z</time>
      </trkpt>
      <trkpt lat="43.196667" lon="-4.663067">
        <ele>1932.0</ele>
        <time>2015-03-17T14:48:10Z</time>
      </trkpt>
      <trkpt lat="43.196700" lon="-4.662933">
        <ele>1931.0</ele>
        <time>2015-03-17T14:48:11Z</time>
      </trkpt>
      <trkpt lat="43.196733" lon="-4.662817">
        <ele>1930.0</ele>
        <time>2015-03-17T14:48:12Z</time>
      </trkpt>
      <trkpt lat="43.196750" lon="-4.662667">
        <ele>1929.0</ele>
        <time>2015-03-17T14:48:13Z</time>
      </trkpt>
      <trkpt lat="43.196767" lon="-4.662517">
        <ele>1928.0</ele>
        <time>2015-03-17T14:48:14Z</time>
      </trkpt>
      <trkpt lat="43.196783" lon="-4.662383">
        <ele>1928.0</ele>
        <time>2015-03-17T14:48:15Z</time>
      </trkpt>
      <trkpt lat="43.196800" lon="-4.662250">
        <ele>1928.0</ele>
        <time>2015-03-17T14:48:16Z</time>
      </trkpt>
      <trkpt lat="43.196817" lon="-4.662117">
        <ele>1928.0</ele>
        <time>2015-03-17T14:48:17Z</time>
      </trkpt>
      <trkpt lat="43.196833" lon="-4.661983">
        <ele>1928.0</ele>
        <time>2015-03-17T14:48:18Z</time>
      </trkpt>
      <trkpt lat="43.196850" lon="-4.661850">
        <ele>1927.0</ele>
        <time>2015-03-17T14:48:19Z</time>
      </trkpt>
      <trkpt lat="43.196867" lon="-4.661700">
        <ele>1925.0</ele>
        <time>2015-03-17T14:48:20Z</time>
      </trkpt>
      <trkpt lat="43.196883" lon="-4.661567">
        <ele>1924.0</ele>
        <time>2015-03-17T14:48:21Z</time>
      </trkpt>
      <trkpt lat="43.196900" lon="-4.661417">
        <ele>1924.0</ele>
        <time>2015-03-17T14:48:22Z</time>
      </trkpt>
      <trkpt lat="43.196917" lon="-4.661267">
        <ele>1923.0</ele>
        <time>2015-03-17T14:48:23Z</time>
      </trkpt>
      <trkpt lat="43.196933" lon="-4.661117">
        <ele>1923.0</ele>
        <time>2015-03-17T14:48:24Z</time>
      </trkpt>
      <trkpt lat="43.196933" lon="-4.660967">
        <ele>1924.0</ele>
        <time>2015-03-17T14:48:25Z</time>
      </trkpt>
      <trkpt lat="43.196950" lon="-4.660817">
        <ele>1924.0</ele>
        <time>2015-03-17T14:48:26Z</time>
      </trkpt>
      <trkpt lat="43.196967" lon="-4.660683">
        <ele>1924.0</ele>
        <time>2015-03-17T14:48:27Z</time>
      </trkpt>
      <trkpt lat="43.197000" lon="-4.660533">
        <ele>1924.0</ele>
        <time>2015-03-17T14:48:28Z</time>
      </trkpt>
      <trkpt lat="43.197017" lon="-4.660400">
        <ele>1924.0</ele>
        <time>2015-03-17T14:48:29Z</time>
      </trkpt>
      <trkpt lat="43.197033" lon="-4.660250">
        <ele>1924.0</ele>
        <time>2015-03-17T14:48:30Z</time>
      </trkpt>
      <trkpt lat="43.197050" lon="-4.660117">
        <ele>1924.0</ele>
        <time>2015-03-17T14:48:31Z</time>
      </trkpt>
      <trkpt lat="43.197067" lon="-4.659983">
        <ele>1925.0</ele>
        <time>2015-03-17T14:48:32Z</time>
      </trkpt>
      <trkpt lat="43.197067" lon="-4.659850">
        <ele>1925.0</ele>
        <time>2015-03-17T14:48:33Z</time>
      </trkpt>
      <trkpt lat="43.197083" lon="-4.659733">
        <ele>1925.0</ele>
        <time>2015-03-17T14:48:34Z</time>
      </trkpt>
      <trkpt lat="43.197100" lon="-4.659600">
        <ele>1925.0</ele>
        <time>2015-03-17T14:48:35Z</time>
      </trkpt>
      <trkpt lat="43.197117" lon="-4.659467">
        <ele>1925.0</ele>
        <time>2015-03-17T14:48:36Z</time>
      </trkpt>
      <trkpt lat="43.197117" lon="-4.659333">
        <ele>1925.0</ele>
        <time>2015-03-17T14:48:37Z</time>
      </trkpt>
      <trkpt lat="43.197133" lon="-4.659217">
        <ele>1925.0</ele>
        <time>2015-03-17T14:48:38Z</time>
      </trkpt>
      <trkpt lat="43.197133" lon="-4.659083">
        <ele>1926.0</ele>
        <time>2015-03-17T14:48:39Z</time>
      </trkpt>
      <trkpt lat="43.197150" lon="-4.658967">
        <ele>1926.0</ele>
        <time>2015-03-17T14:48:40Z</time>
      </trkpt>
      <trkpt lat="43.197167" lon="-4.658833">
        <ele>1926.0</ele>
        <time>2015-03-17T14:48:41Z</time>
      </trkpt>
      <trkpt lat="43.197183" lon="-4.658717">
        <ele>1925.0</ele>
        <time>2015-03-17T14:48:42Z</time>
      </trkpt>
      <trkpt lat="43.197183" lon="-4.658583">
        <ele>1925.0</ele>
        <time>2015-03-17T14:48:43Z</time>
      </trkpt>
      <trkpt lat="43.197200" lon="-4.658467">
        <ele>1925.0</ele>
        <time>2015-03-17T14:48:44Z</time>
      </trkpt>
      <trkpt lat="43.197217" lon="-4.658333">
        <ele>1925.0</ele>
        <time>2015-03-17T14:48:45Z</time>
      </trkpt>
      <trkpt lat="43.197217" lon="-4.658217">
        <ele>1925.0</ele>
        <time>2015-03-17T14:48:46Z</time>
      </trkpt>
      <trkpt lat="43.197233" lon="-4.658083">
        <ele>1925.0</ele>
        <time>2015-03-17T14:48:47Z</time>
      </trkpt>
      <trkpt lat="43.197250" lon="-4.657950">
        <ele>1925.0</ele>
        <time>2015-03-17T14:48:48Z</time>
      </trkpt>
      <trkpt lat="43.197250" lon="-4.657817">
        <ele>1925.0</ele>
        <time>2015-03-17T14:48:49Z</time>
      </trkpt>
      <trkpt lat="43.197267" lon="-4.657683">
        <ele>1925.0</ele>
        <time>2015-03-17T14:48:50Z</time>
      </trkpt>
      <trkpt lat="43.197267" lon="-4.657550">
        <ele>1925.0</ele>
        <time>2015-03-17T14:48:51Z</time>
      </trkpt>
      <trkpt lat="43.197283" lon="-4.657417">
        <ele>1925.0</ele>
        <time>2015-03-17T14:48:52Z</time>
      </trkpt>
      <trkpt lat="43.197283" lon="-4.657283">
        <ele>1926.0</ele>
        <time>2015-03-17T14:48:53Z</time>
      </trkpt>
      <trkpt lat="43.197283" lon="-4.657150">
        <ele>1926.0</ele>
        <time>2015-03-17T14:48:54Z</time>
      </trkpt>
      <trkpt lat="43.197283" lon="-4.657033">
        <ele>1926.0</ele>
        <time>2015-03-17T14:48:55Z</time>
      </trkpt>
      <trkpt lat="43.197283" lon="-4.656900">
        <ele>1926.0</ele>
        <time>2015-03-17T14:48:56Z</time>
      </trkpt>
      <trkpt lat="43.197283" lon="-4.656767">
        <ele>1925.0</ele>
        <time>2015-03-17T14:48:57Z</time>
      </trkpt>
      <trkpt lat="43.197283" lon="-4.656650">
        <ele>1925.0</ele>
        <time>2015-03-17T14:48:58Z</time>
      </trkpt>
      <trkpt lat="43.197267" lon="-4.656517">
        <ele>1925.0</ele>
        <time>2015-03-17T14:48:59Z</time>
      </trkpt>
      <trkpt lat="43.197267" lon="-4.656400">
        <ele>1924.0</ele>
        <time>2015-03-17T14:49:00Z</time>
      </trkpt>
      <trkpt lat="43.197250" lon="-4.656267">
        <ele>1924.0</ele>
        <time>2015-03-17T14:49:01Z</time>
      </trkpt>
      <trkpt lat="43.197233" lon="-4.656150">
        <ele>1923.0</ele>
        <time>2015-03-17T14:49:02Z</time>
      </trkpt>
      <trkpt lat="43.197217" lon="-4.656033">
        <ele>1923.0</ele>
        <time>2015-03-17T14:49:03Z</time>
      </trkpt>
      <trkpt lat="43.197217" lon="-4.655900">
        <ele>1922.0</ele>
        <time>2015-03-17T14:49:04Z</time>
      </trkpt>
      <trkpt lat="43.197200" lon="-4.655783">
        <ele>1922.0</ele>
        <time>2015-03-17T14:49:05Z</time>
      </trkpt>
      <trkpt lat="43.197183" lon="-4.655667">
        <ele>1921.0</ele>
        <time>2015-03-17T14:49:06Z</time>
      </trkpt>
      <trkpt lat="43.197150" lon="-4.655550">
        <ele>1921.0</ele>
        <time>2015-03-17T14:49:07Z</time>
      </trkpt>
      <trkpt lat="43.197133" lon="-4.655450">
        <ele>1921.0</ele>
        <time>2015-03-17T14:49:08Z</time>
      </trkpt>
      <trkpt lat="43.197100" lon="-4.655350">
        <ele>1920.0</ele>
        <time>2015-03-17T14:49:09Z</time>
      </trkpt>
      <trkpt lat="43.197067" lon="-4.655233">
        <ele>1920.0</ele>
        <time>2015-03-17T14:49:10Z</time>
      </trkpt>
      <trkpt lat="43.197050" lon="-4.655133">
        <ele>1919.0</ele>
        <time>2015-03-17T14:49:11Z</time>
      </trkpt>
      <trkpt lat="43.197017" lon="-4.655017">
        <ele>1919.0</ele>
        <time>2015-03-17T14:49:12Z</time>
      </trkpt>
      <trkpt lat="43.197000" lon="-4.654917">
        <ele>1919.0</ele>
        <time>2015-03-17T14:49:13Z</time>
      </trkpt>
      <trkpt lat="43.196967" lon="-4.654817">
        <ele>1918.0</ele>
        <time>2015-03-17T14:49:14Z</time>
      </trkpt>
      <trkpt lat="43.196950" lon="-4.654700">
        <ele>1918.0</ele>
        <time>2015-03-17T14:49:15Z</time>
      </trkpt>
      <trkpt lat="43.196917" lon="-4.654600">
        <ele>1917.0</ele>
        <time>2015-03-17T14:49:16Z</time>
      </trkpt>
      <trkpt lat="43.196883" lon="-4.654483">
        <ele>1916.0</ele>
        <time>2015-03-17T14:49:17Z</time>
      </trkpt>
      <trkpt lat="43.196833" lon="-4.654383">
        <ele>1916.0</ele>
        <time>2015-03-17T14:49:18Z</time>
      </trkpt>
      <trkpt lat="43.196783" lon="-4.654300">
        <ele>1916.0</ele>
        <time>2015-03-17T14:49:19Z</time>
      </trkpt>
      <trkpt lat="43.196733" lon="-4.654217">
        <ele>1916.0</ele>
        <time>2015-03-17T14:49:20Z</time>
      </trkpt>
      <trkpt lat="43.196683" lon="-4.654133">
        <ele>1916.0</ele>
        <time>2015-03-17T14:49:21Z</time>
      </trkpt>
      <trkpt lat="43.196633" lon="-4.654033">
        <ele>1915.0</ele>
        <time>2015-03-17T14:49:22Z</time>
      </trkpt>
      <trkpt lat="43.196600" lon="-4.653950">
        <ele>1915.0</ele>
        <time>2015-03-17T14:49:23Z</time>
      </trkpt>
      <trkpt lat="43.196550" lon="-4.653850">
        <ele>1914.0</ele>
        <time>2015-03-17T14:49:24Z</time>
      </trkpt>
      <trkpt lat="43.196500" lon="-4.653750">
        <ele>1914.0</ele>
        <time>2015-03-17T14:49:25Z</time>
      </trkpt>
      <trkpt lat="43.196467" lon="-4.653667">
        <ele>1914.0</ele>
        <time>2015-03-17T14:49:26Z</time>
      </trkpt>
      <trkpt lat="43.196417" lon="-4.653567">
        <ele>1914.0</ele>
        <time>2015-03-17T14:49:27Z</time>
      </trkpt>
      <trkpt lat="43.196367" lon="-4.653483">
        <ele>1914.0</ele>
        <time>2015-03-17T14:49:28Z</time>
      </trkpt>
      <trkpt lat="43.196333" lon="-4.653383">
        <ele>1913.0</ele>
        <time>2015-03-17T14:49:29Z</time>
      </trkpt>
      <trkpt lat="43.196300" lon="-4.653283">
        <ele>1912.0</ele>
        <time>2015-03-17T14:49:30Z</time>
      </trkpt>
      <trkpt lat="43.196250" lon="-4.653183">
        <ele>1910.0</ele>
        <time>2015-03-17T14:49:31Z</time>
      </trkpt>
      <trkpt lat="43.196200" lon="-4.653100">
        <ele>1909.0</ele>
        <time>2015-03-17T14:49:32Z</time>
      </trkpt>
      <trkpt lat="43.196150" lon="-4.653000">
        <ele>1908.0</ele>
        <time>2015-03-17T14:49:33Z</time>
      </trkpt>
      <trkpt lat="43.196100" lon="-4.652917">
        <ele>1907.0</ele>
        <time>2015-03-17T14:49:34Z</time>
      </trkpt>
      <trkpt lat="43.196067" lon="-4.652833">
        <ele>1907.0</ele>
        <time>2015-03-17T14:49:35Z</time>
      </trkpt>
      <trkpt lat="43.196017" lon="-4.652733">
        <ele>1906.0</ele>
        <time>2015-03-17T14:49:36Z</time>
      </trkpt>
      <trkpt lat="43.195983" lon="-4.652633">
        <ele>1905.0</ele>
        <time>2015-03-17T14:49:37Z</time>
      </trkpt>
      <trkpt lat="43.195933" lon="-4.652550">
        <ele>1904.0</ele>
        <time>2015-03-17T14:49:38Z</time>
      </trkpt>
      <trkpt lat="43.195883" lon="-4.652467">
        <ele>1904.0</ele>
        <time>2015-03-17T14:49:39Z</time>
      </trkpt>
      <trkpt lat="43.195850" lon="-4.652367">
        <ele>1903.0</ele>
        <time>2015-03-17T14:49:40Z</time>
      </trkpt>
      <trkpt lat="43.195817" lon="-4.652283">
        <ele>1902.0</ele>
        <time>2015-03-17T14:49:41Z</time>
      </trkpt>
      <trkpt lat="43.195783" lon="-4.652183">
        <ele>1902.0</ele>
        <time>2015-03-17T14:49:42Z</time>
      </trkpt>
      <trkpt lat="43.195733" lon="-4.652083">
        <ele>1902.0</ele>
        <time>2015-03-17T14:49:43Z</time>
      </trkpt>
      <trkpt lat="43.195700" lon="-4.652000">
        <ele>1900.0</ele>
        <time>2015-03-17T14:49:44Z</time>
      </trkpt>
      <trkpt lat="43.195650" lon="-4.651917">
        <ele>1899.0</ele>
        <time>2015-03-17T14:49:45Z</time>
      </trkpt>
      <trkpt lat="43.195617" lon="-4.651817">
        <ele>1898.0</ele>
        <time>2015-03-17T14:49:46Z</time>
      </trkpt>
      <trkpt lat="43.195567" lon="-4.651733">
        <ele>1897.0</ele>
        <time>2015-03-17T14:49:47Z</time>
      </trkpt>
      <trkpt lat="43.195533" lon="-4.651633">
        <ele>1896.0</ele>
        <time>2015-03-17T14:49:48Z</time>
      </trkpt>
      <trkpt lat="43.195483" lon="-4.651550">
        <ele>1894.0</ele>
        <time>2015-03-17T14:49:49Z</time>
      </trkpt>
      <trkpt lat="43.195450" lon="-4.651467">
        <ele>1893.0</ele>
        <time>2015-03-17T14:49:50Z</time>
      </trkpt>
      <trkpt lat="43.195400" lon="-4.651383">
        <ele>1892.0</ele>
        <time>2015-03-17T14:49:51Z</time>
      </trkpt>
      <trkpt lat="43.195350" lon="-4.651283">
        <ele>1890.0</ele>
        <time>2015-03-17T14:49:52Z</time>
      </trkpt>
      <trkpt lat="43.195317" lon="-4.651200">
        <ele>1889.0</ele>
        <time>2015-03-17T14:49:53Z</time>
      </trkpt>
      <trkpt lat="43.195283" lon="-4.651100">
        <ele>1888.0</ele>
        <time>2015-03-17T14:49:54Z</time>
      </trkpt>
      <trkpt lat="43.195250" lon="-4.651017">
        <ele>1887.0</ele>
        <time>2015-03-17T14:49:55Z</time>
      </trkpt>
      <trkpt lat="43.195200" lon="-4.650917">
        <ele>1886.0</ele>
        <time>2015-03-17T14:49:56Z</time>
      </trkpt>
      <trkpt lat="43.195167" lon="-4.650833">
        <ele>1885.0</ele>
        <time>2015-03-17T14:49:57Z</time>
      </trkpt>
      <trkpt lat="43.195133" lon="-4.650733">
        <ele>1883.0</ele>
        <time>2015-03-17T14:49:58Z</time>
      </trkpt>
      <trkpt lat="43.195100" lon="-4.650633">
        <ele>1881.0</ele>
        <time>2015-03-17T14:49:59Z</time>
      </trkpt>
      <trkpt lat="43.195050" lon="-4.650517">
        <ele>1880.0</ele>
        <time>2015-03-17T14:50:00Z</time>
      </trkpt>
      <trkpt lat="43.195017" lon="-4.650433">
        <ele>1879.0</ele>
        <time>2015-03-17T14:50:01Z</time>
      </trkpt>
      <trkpt lat="43.194967" lon="-4.650333">
        <ele>1878.0</ele>
        <time>2015-03-17T14:50:02Z</time>
      </trkpt>
      <trkpt lat="43.194933" lon="-4.650250">
        <ele>1877.0</ele>
        <time>2015-03-17T14:50:03Z</time>
      </trkpt>
      <trkpt lat="43.194900" lon="-4.650167">
        <ele>1876.0</ele>
        <time>2015-03-17T14:50:04Z</time>
      </trkpt>
      <trkpt lat="43.194850" lon="-4.650067">
        <ele>1874.0</ele>
        <time>2015-03-17T14:50:05Z</time>
      </trkpt>
      <trkpt lat="43.194800" lon="-4.649983">
        <ele>1872.0</ele>
        <time>2015-03-17T14:50:06Z</time>
      </trkpt>
      <trkpt lat="43.194733" lon="-4.649900">
        <ele>1871.0</ele>
        <time>2015-03-17T14:50:07Z</time>
      </trkpt>
      <trkpt lat="43.194683" lon="-4.649833">
        <ele>1870.0</ele>
        <time>2015-03-17T14:50:08Z</time>
      </trkpt>
      <trkpt lat="43.194633" lon="-4.649750">
        <ele>1871.0</ele>
        <time>2015-03-17T14:50:09Z</time>
      </trkpt>
      <trkpt lat="43.194583" lon="-4.649683">
        <ele>1870.0</ele>
        <time>2015-03-17T14:50:10Z</time>
      </trkpt>
      <trkpt lat="43.194533" lon="-4.649600">
        <ele>1868.0</ele>
        <time>2015-03-17T14:50:11Z</time>
      </trkpt>
      <trkpt lat="43.194483" lon="-4.649533">
        <ele>1867.0</ele>
        <time>2015-03-17T14:50:12Z</time>
      </trkpt>
      <trkpt lat="43.194417" lon="-4.649450">
        <ele>1865.0</ele>
        <time>2015-03-17T14:50:13Z</time>
      </trkpt>
      <trkpt lat="43.194367" lon="-4.649383">
        <ele>1864.0</ele>
        <time>2015-03-17T14:50:14Z</time>
      </trkpt>
      <trkpt lat="43.194317" lon="-4.649283">
        <ele>1863.0</ele>
        <time>2015-03-17T14:50:15Z</time>
      </trkpt>
      <trkpt lat="43.194267" lon="-4.649200">
        <ele>1863.0</ele>
        <time>2015-03-17T14:50:16Z</time>
      </trkpt>
      <trkpt lat="43.194233" lon="-4.649117">
        <ele>1862.0</ele>
        <time>2015-03-17T14:50:17Z</time>
      </trkpt>
      <trkpt lat="43.194183" lon="-4.649033">
        <ele>1860.0</ele>
        <time>2015-03-17T14:50:18Z</time>
      </trkpt>
      <trkpt lat="43.194133" lon="-4.648950">
        <ele>1859.0</ele>
        <time>2015-03-17T14:50:19Z</time>
      </trkpt>
      <trkpt lat="43.194083" lon="-4.648850">
        <ele>1857.0</ele>
        <time>2015-03-17T14:50:20Z</time>
      </trkpt>
      <trkpt lat="43.194033" lon="-4.648767">
        <ele>1856.0</ele>
        <time>2015-03-17T14:50:21Z</time>
      </trkpt>
      <trkpt lat="43.194000" lon="-4.648683">
        <ele>1855.0</ele>
        <time>2015-03-17T14:50:22Z</time>
      </trkpt>
      <trkpt lat="43.193950" lon="-4.648600">
        <ele>1854.0</ele>
        <time>2015-03-17T14:50:23Z</time>
      </trkpt>
      <trkpt lat="43.193900" lon="-4.648533">
        <ele>1853.0</ele>
        <time>2015-03-17T14:50:24Z</time>
      </trkpt>
      <trkpt lat="43.193850" lon="-4.648450">
        <ele>1851.0</ele>
        <time>2015-03-17T14:50:25Z</time>
      </trkpt>
      <trkpt lat="43.193800" lon="-4.648350">
        <ele>1849.0</ele>
        <time>2015-03-17T14:50:26Z</time>
      </trkpt>
      <trkpt lat="43.193750" lon="-4.648267">
        <ele>1848.0</ele>
        <time>2015-03-17T14:50:27Z</time>
      </trkpt>
      <trkpt lat="43.193700" lon="-4.648167">
        <ele>1847.0</ele>
        <time>2015-03-17T14:50:28Z</time>
      </trkpt>
      <trkpt lat="43.193650" lon="-4.648083">
        <ele>1846.0</ele>
        <time>2015-03-17T14:50:29Z</time>
      </trkpt>
      <trkpt lat="43.193600" lon="-4.648000">
        <ele>1845.0</ele>
        <time>2015-03-17T14:50:30Z</time>
      </trkpt>
      <trkpt lat="43.193550" lon="-4.647917">
        <ele>1844.0</ele>
        <time>2015-03-17T14:50:31Z</time>
      </trkpt>
      <trkpt lat="43.193500" lon="-4.647817">
        <ele>1842.0</ele>
        <time>2015-03-17T14:50:32Z</time>
      </trkpt>
      <trkpt lat="43.193450" lon="-4.647733">
        <ele>1841.0</ele>
        <time>2015-03-17T14:50:33Z</time>
      </trkpt>
      <trkpt lat="43.193400" lon="-4.647667">
        <ele>1840.0</ele>
        <time>2015-03-17T14:50:34Z</time>
      </trkpt>
      <trkpt lat="43.193350" lon="-4.647600">
        <ele>1839.0</ele>
        <time>2015-03-17T14:50:35Z</time>
      </trkpt>
      <trkpt lat="43.193300" lon="-4.647517">
        <ele>1839.0</ele>
        <time>2015-03-17T14:50:36Z</time>
      </trkpt>
      <trkpt lat="43.193267" lon="-4.647433">
        <ele>1838.0</ele>
        <time>2015-03-17T14:50:37Z</time>
      </trkpt>
      <trkpt lat="43.193233" lon="-4.647333">
        <ele>1836.0</ele>
        <time>2015-03-17T14:50:38Z</time>
      </trkpt>
      <trkpt lat="43.193183" lon="-4.647233">
        <ele>1833.0</ele>
        <time>2015-03-17T14:50:39Z</time>
      </trkpt>
      <trkpt lat="43.193100" lon="-4.647167">
        <ele>1831.0</ele>
        <time>2015-03-17T14:50:40Z</time>
      </trkpt>
      <trkpt lat="43.193033" lon="-4.647083">
        <ele>1830.0</ele>
        <time>2015-03-17T14:50:41Z</time>
      </trkpt>
      <trkpt lat="43.192983" lon="-4.647000">
        <ele>1829.0</ele>
        <time>2015-03-17T14:50:42Z</time>
      </trkpt>
      <trkpt lat="43.192933" lon="-4.646917">
        <ele>1828.0</ele>
        <time>2015-03-17T14:50:43Z</time>
      </trkpt>
      <trkpt lat="43.192883" lon="-4.646833">
        <ele>1828.0</ele>
        <time>2015-03-17T14:50:44Z</time>
      </trkpt>
      <trkpt lat="43.192833" lon="-4.646783">
        <ele>1826.0</ele>
        <time>2015-03-17T14:50:45Z</time>
      </trkpt>
      <trkpt lat="43.192767" lon="-4.646733">
        <ele>1824.0</ele>
        <time>2015-03-17T14:50:46Z</time>
      </trkpt>
      <trkpt lat="43.192700" lon="-4.646683">
        <ele>1823.0</ele>
        <time>2015-03-17T14:50:47Z</time>
      </trkpt>
      <trkpt lat="43.192617" lon="-4.646633">
        <ele>1822.0</ele>
        <time>2015-03-17T14:50:48Z</time>
      </trkpt>
      <trkpt lat="43.192550" lon="-4.646583">
        <ele>1821.0</ele>
        <time>2015-03-17T14:50:49Z</time>
      </trkpt>
      <trkpt lat="43.192483" lon="-4.646533">
        <ele>1821.0</ele>
        <time>2015-03-17T14:50:50Z</time>
      </trkpt>
      <trkpt lat="43.192433" lon="-4.646467">
        <ele>1820.0</ele>
        <time>2015-03-17T14:50:51Z</time>
      </trkpt>
      <trkpt lat="43.192367" lon="-4.646400">
        <ele>1819.0</ele>
        <time>2015-03-17T14:50:52Z</time>
      </trkpt>
      <trkpt lat="43.192317" lon="-4.646317">
        <ele>1819.0</ele>
        <time>2015-03-17T14:50:53Z</time>
      </trkpt>
      <trkpt lat="43.192267" lon="-4.646250">
        <ele>1818.0</ele>
        <time>2015-03-17T14:50:54Z</time>
      </trkpt>
      <trkpt lat="43.192200" lon="-4.646183">
        <ele>1818.0</ele>
        <time>2015-03-17T14:50:55Z</time>
      </trkpt>
      <trkpt lat="43.192150" lon="-4.646133">
        <ele>1818.0</ele>
        <time>2015-03-17T14:50:56Z</time>
      </trkpt>
      <trkpt lat="43.192083" lon="-4.646083">
        <ele>1818.0</ele>
        <time>2015-03-17T14:50:57Z</time>
      </trkpt>
      <trkpt lat="43.192033" lon="-4.646033">
        <ele>1818.0</ele>
        <time>2015-03-17T14:50:58Z</time>
      </trkpt>
      <trkpt lat="43.191983" lon="-4.645983">
        <ele>1816.0</ele>
        <time>2015-03-17T14:50:59Z</time>
      </trkpt>
      <trkpt lat="43.191917" lon="-4.645917">
        <ele>1815.0</ele>
        <time>2015-03-17T14:51:00Z</time>
      </trkpt>
      <trkpt lat="43.191850" lon="-4.645850">
        <ele>1815.0</ele>
        <time>2015-03-17T14:51:01Z</time>
      </trkpt>
      <trkpt lat="43.191800" lon="-4.645783">
        <ele>1814.0</ele>
        <time>2015-03-17T14:51:02Z</time>
      </trkpt>
      <trkpt lat="43.191750" lon="-4.645717">
        <ele>1814.0</ele>
        <time>2015-03-17T14:51:03Z</time>
      </trkpt>
      <trkpt lat="43.191700" lon="-4.645633">
        <ele>1813.0</ele>
        <time>2015-03-17T14:51:04Z</time>
      </trkpt>
      <trkpt lat="43.191650" lon="-4.645567">
        <ele>1813.0</ele>
        <time>2015-03-17T14:51:05Z</time>
      </trkpt>
      <trkpt lat="43.191583" lon="-4.645500">
        <ele>1812.0</ele>
        <time>2015-03-17T14:51:06Z</time>
      </trkpt>
      <trkpt lat="43.191533" lon="-4.645450">
        <ele>1812.0</ele>
        <time>2015-03-17T14:51:07Z</time>
      </trkpt>
      <trkpt lat="43.191483" lon="-4.645383">
        <ele>1812.0</ele>
        <time>2015-03-17T14:51:08Z</time>
      </trkpt>
      <trkpt lat="43.191433" lon="-4.645333">
        <ele>1811.0</ele>
        <time>2015-03-17T14:51:09Z</time>
      </trkpt>
      <trkpt lat="43.191367" lon="-4.645267">
        <ele>1811.0</ele>
        <time>2015-03-17T14:51:10Z</time>
      </trkpt>
      <trkpt lat="43.191317" lon="-4.645233">
        <ele>1811.0</ele>
        <time>2015-03-17T14:51:11Z</time>
      </trkpt>
      <trkpt lat="43.191250" lon="-4.645183">
        <ele>1811.0</ele>
        <time>2015-03-17T14:51:12Z</time>
      </trkpt>
      <trkpt lat="43.191200" lon="-4.645133">
        <ele>1811.0</ele>
        <time>2015-03-17T14:51:13Z</time>
      </trkpt>
      <trkpt lat="43.191133" lon="-4.645083">
        <ele>1810.0</ele>
        <time>2015-03-17T14:51:14Z</time>
      </trkpt>
      <trkpt lat="43.191083" lon="-4.645033">
        <ele>1810.0</ele>
        <time>2015-03-17T14:51:15Z</time>
      </trkpt>
      <trkpt lat="43.191033" lon="-4.644983">
        <ele>1810.0</ele>
        <time>2015-03-17T14:51:16Z</time>
      </trkpt>
      <trkpt lat="43.190983" lon="-4.644917">
        <ele>1809.0</ele>
        <time>2015-03-17T14:51:17Z</time>
      </trkpt>
      <trkpt lat="43.190933" lon="-4.644850">
        <ele>1808.0</ele>
        <time>2015-03-17T14:51:18Z</time>
      </trkpt>
      <trkpt lat="43.190883" lon="-4.644800">
        <ele>1808.0</ele>
        <time>2015-03-17T14:51:19Z</time>
      </trkpt>
      <trkpt lat="43.190833" lon="-4.644733">
        <ele>1807.0</ele>
        <time>2015-03-17T14:51:20Z</time>
      </trkpt>
      <trkpt lat="43.190783" lon="-4.644667">
        <ele>1807.0</ele>
        <time>2015-03-17T14:51:21Z</time>
      </trkpt>
      <trkpt lat="43.190733" lon="-4.644617">
        <ele>1806.0</ele>
        <time>2015-03-17T14:51:22Z</time>
      </trkpt>
      <trkpt lat="43.190667" lon="-4.644550">
        <ele>1805.0</ele>
        <time>2015-03-17T14:51:23Z</time>
      </trkpt>
      <trkpt lat="43.190617" lon="-4.644483">
        <ele>1805.0</ele>
        <time>2015-03-17T14:51:24Z</time>
      </trkpt>
      <trkpt lat="43.190567" lon="-4.644433">
        <ele>1805.0</ele>
        <time>2015-03-17T14:51:25Z</time>
      </trkpt>
      <trkpt lat="43.190500" lon="-4.644383">
        <ele>1805.0</ele>
        <time>2015-03-17T14:51:26Z</time>
      </trkpt>
      <trkpt lat="43.190467" lon="-4.644317">
        <ele>1805.0</ele>
        <time>2015-03-17T14:51:27Z</time>
      </trkpt>
      <trkpt lat="43.190417" lon="-4.644233">
        <ele>1805.0</ele>
        <time>2015-03-17T14:51:28Z</time>
      </trkpt>
      <trkpt lat="43.190367" lon="-4.644167">
        <ele>1805.0</ele>
        <time>2015-03-17T14:51:29Z</time>
      </trkpt>
      <trkpt lat="43.190317" lon="-4.644100">
        <ele>1805.0</ele>
        <time>2015-03-17T14:51:30Z</time>
      </trkpt>
      <trkpt lat="43.190283" lon="-4.644017">
        <ele>1805.0</ele>
        <time>2015-03-17T14:51:31Z</time>
      </trkpt>
      <trkpt lat="43.190250" lon="-4.643933">
        <ele>1805.0</ele>
        <time>2015-03-17T14:51:32Z</time>
      </trkpt>
      <trkpt lat="43.190200" lon="-4.643850">
        <ele>1804.0</ele>
        <time>2015-03-17T14:51:33Z</time>
      </trkpt>
      <trkpt lat="43.190167" lon="-4.643767">
        <ele>1804.0</ele>
        <time>2015-03-17T14:51:34Z</time>
      </trkpt>
      <trkpt lat="43.190117" lon="-4.643700">
        <ele>1804.0</ele>
        <time>2015-03-17T14:51:35Z</time>
      </trkpt>
      <trkpt lat="43.190067" lon="-4.643633">
        <ele>1804.0</ele>
        <time>2015-03-17T14:51:36Z</time>
      </trkpt>
      <trkpt lat="43.190017" lon="-4.643567">
        <ele>1804.0</ele>
        <time>2015-03-17T14:51:37Z</time>
      </trkpt>
      <trkpt lat="43.189983" lon="-4.643500">
        <ele>1805.0</ele>
        <time>2015-03-17T14:51:38Z</time>
      </trkpt>
      <trkpt lat="43.189933" lon="-4.643450">
        <ele>1805.0</ele>
        <time>2015-03-17T14:51:39Z</time>
      </trkpt>
      <trkpt lat="43.189883" lon="-4.643417">
        <ele>1805.0</ele>
        <time>2015-03-17T14:51:40Z</time>
      </trkpt>
      <trkpt lat="43.189833" lon="-4.643400">
        <ele>1805.0</ele>
        <time>2015-03-17T14:51:41Z</time>
      </trkpt>
      <trkpt lat="43.189783" lon="-4.643367">
        <ele>1805.0</ele>
        <time>2015-03-17T14:51:42Z</time>
      </trkpt>
      <trkpt lat="43.189733" lon="-4.643317">
        <ele>1804.0</ele>
        <time>2015-03-17T14:51:43Z</time>
      </trkpt>
      <trkpt lat="43.189683" lon="-4.643267">
        <ele>1804.0</ele>
        <time>2015-03-17T14:51:44Z</time>
      </trkpt>
      <trkpt lat="43.189633" lon="-4.643217">
        <ele>1804.0</ele>
        <time>2015-03-17T14:51:45Z</time>
      </trkpt>
      <trkpt lat="43.189567" lon="-4.643167">
        <ele>1804.0</ele>
        <time>2015-03-17T14:51:46Z</time>
      </trkpt>
      <trkpt lat="43.189517" lon="-4.643133">
        <ele>1804.0</ele>
        <time>2015-03-17T14:51:47Z</time>
      </trkpt>
      <trkpt lat="43.189467" lon="-4.643117">
        <ele>1804.0</ele>
        <time>2015-03-17T14:51:48Z</time>
      </trkpt>
      <trkpt lat="43.189417" lon="-4.643083">
        <ele>1803.0</ele>
        <time>2015-03-17T14:51:49Z</time>
      </trkpt>
      <trkpt lat="43.189350" lon="-4.643033">
        <ele>1802.0</ele>
        <time>2015-03-17T14:51:50Z</time>
      </trkpt>
      <trkpt lat="43.189283" lon="-4.643000">
        <ele>1801.0</ele>
        <time>2015-03-17T14:51:51Z</time>
      </trkpt>
      <trkpt lat="43.189217" lon="-4.642983">
        <ele>1800.0</ele>
        <time>2015-03-17T14:51:52Z</time>
      </trkpt>
      <trkpt lat="43.189167" lon="-4.642950">
        <ele>1800.0</ele>
        <time>2015-03-17T14:51:53Z</time>
      </trkpt>
      <trkpt lat="43.189100" lon="-4.642917">
        <ele>1799.0</ele>
        <time>2015-03-17T14:51:54Z</time>
      </trkpt>
      <trkpt lat="43.189050" lon="-4.642867">
        <ele>1799.0</ele>
        <time>2015-03-17T14:51:55Z</time>
      </trkpt>
      <trkpt lat="43.189000" lon="-4.642817">
        <ele>1799.0</ele>
        <time>2015-03-17T14:51:56Z</time>
      </trkpt>
      <trkpt lat="43.188950" lon="-4.642750">
        <ele>1798.0</ele>
        <time>2015-03-17T14:51:57Z</time>
      </trkpt>
      <trkpt lat="43.188883" lon="-4.642700">
        <ele>1798.0</ele>
        <time>2015-03-17T14:51:58Z</time>
      </trkpt>
      <trkpt lat="43.188850" lon="-4.642633">
        <ele>1798.0</ele>
        <time>2015-03-17T14:51:59Z</time>
      </trkpt>
      <trkpt lat="43.188800" lon="-4.642567">
        <ele>1797.0</ele>
        <time>2015-03-17T14:52:00Z</time>
      </trkpt>
      <trkpt lat="43.188750" lon="-4.642483">
        <ele>1797.0</ele>
        <time>2015-03-17T14:52:01Z</time>
      </trkpt>
      <trkpt lat="43.188683" lon="-4.642417">
        <ele>1797.0</ele>
        <time>2015-03-17T14:52:02Z</time>
      </trkpt>
      <trkpt lat="43.188633" lon="-4.642350">
        <ele>1797.0</ele>
        <time>2015-03-17T14:52:03Z</time>
      </trkpt>
      <trkpt lat="43.188583" lon="-4.642267">
        <ele>1798.0</ele>
        <time>2015-03-17T14:52:04Z</time>
      </trkpt>
      <trkpt lat="43.188550" lon="-4.642200">
        <ele>1798.0</ele>
        <time>2015-03-17T14:52:05Z</time>
      </trkpt>
      <trkpt lat="43.188500" lon="-4.642133">
        <ele>1798.0</ele>
        <time>2015-03-17T14:52:06Z</time>
      </trkpt>
      <trkpt lat="43.188450" lon="-4.642083">
        <ele>1798.0</ele>
        <time>2015-03-17T14:52:07Z</time>
      </trkpt>
      <trkpt lat="43.188400" lon="-4.642033">
        <ele>1797.0</ele>
        <time>2015-03-17T14:52:08Z</time>
      </trkpt>
      <trkpt lat="43.188350" lon="-4.641983">
        <ele>1796.0</ele>
        <time>2015-03-17T14:52:09Z</time>
      </trkpt>
      <trkpt lat="43.188300" lon="-4.641950">
        <ele>1795.0</ele>
        <time>2015-03-17T14:52:10Z</time>
      </trkpt>
      <trkpt lat="43.188250" lon="-4.641883">
        <ele>1795.0</ele>
        <time>2015-03-17T14:52:11Z</time>
      </trkpt>
      <trkpt lat="43.188200" lon="-4.641833">
        <ele>1794.0</ele>
        <time>2015-03-17T14:52:12Z</time>
      </trkpt>
      <trkpt lat="43.188150" lon="-4.641783">
        <ele>1793.0</ele>
        <time>2015-03-17T14:52:13Z</time>
      </trkpt>
      <trkpt lat="43.188083" lon="-4.641717">
        <ele>1791.0</ele>
        <time>2015-03-17T14:52:14Z</time>
      </trkpt>
      <trkpt lat="43.188017" lon="-4.641667">
        <ele>1790.0</ele>
        <time>2015-03-17T14:52:15Z</time>
      </trkpt>
      <trkpt lat="43.187950" lon="-4.641600">
        <ele>1789.0</ele>
        <time>2015-03-17T14:52:16Z</time>
      </trkpt>
      <trkpt lat="43.187900" lon="-4.641533">
        <ele>1788.0</ele>
        <time>2015-03-17T14:52:17Z</time>
      </trkpt>
      <trkpt lat="43.187833" lon="-4.641467">
        <ele>1788.0</ele>
        <time>2015-03-17T14:52:18Z</time>
      </trkpt>
      <trkpt lat="43.187800" lon="-4.641400">
        <ele>1787.0</ele>
        <time>2015-03-17T14:52:19Z</time>
      </trkpt>
      <trkpt lat="43.187750" lon="-4.641350">
        <ele>1787.0</ele>
        <time>2015-03-17T14:52:20Z</time>
      </trkpt>
      <trkpt lat="43.187683" lon="-4.641283">
        <ele>1785.0</ele>
        <time>2015-03-17T14:52:21Z</time>
      </trkpt>
      <trkpt lat="43.187617" lon="-4.641233">
        <ele>1784.0</ele>
        <time>2015-03-17T14:52:22Z</time>
      </trkpt>
      <trkpt lat="43.187567" lon="-4.641167">
        <ele>1784.0</ele>
        <time>2015-03-17T14:52:23Z</time>
      </trkpt>
      <trkpt lat="43.187517" lon="-4.641083">
        <ele>1784.0</ele>
        <time>2015-03-17T14:52:24Z</time>
      </trkpt>
      <trkpt lat="43.187450" lon="-4.641017">
        <ele>1784.0</ele>
        <time>2015-03-17T14:52:25Z</time>
      </trkpt>
      <trkpt lat="43.187400" lon="-4.640967">
        <ele>1784.0</ele>
        <time>2015-03-17T14:52:26Z</time>
      </trkpt>
      <trkpt lat="43.187350" lon="-4.640900">
        <ele>1784.0</ele>
        <time>2015-03-17T14:52:27Z</time>
      </trkpt>
      <trkpt lat="43.187300" lon="-4.640833">
        <ele>1783.0</ele>
        <time>2015-03-17T14:52:28Z</time>
      </trkpt>
      <trkpt lat="43.187250" lon="-4.640767">
        <ele>1783.0</ele>
        <time>2015-03-17T14:52:29Z</time>
      </trkpt>
      <trkpt lat="43.187200" lon="-4.640700">
        <ele>1782.0</ele>
        <time>2015-03-17T14:52:30Z</time>
      </trkpt>
      <trkpt lat="43.187150" lon="-4.640617">
        <ele>1781.0</ele>
        <time>2015-03-17T14:52:31Z</time>
      </trkpt>
      <trkpt lat="43.187100" lon="-4.640533">
        <ele>1781.0</ele>
        <time>2015-03-17T14:52:32Z</time>
      </trkpt>
      <trkpt lat="43.187067" lon="-4.640450">
        <ele>1781.0</ele>
        <time>2015-03-17T14:52:33Z</time>
      </trkpt>
      <trkpt lat="43.187017" lon="-4.640367">
        <ele>1781.0</ele>
        <time>2015-03-17T14:52:34Z</time>
      </trkpt>
      <trkpt lat="43.186983" lon="-4.640283">
        <ele>1780.0</ele>
        <time>2015-03-17T14:52:35Z</time>
      </trkpt>
      <trkpt lat="43.186950" lon="-4.640217">
        <ele>1780.0</ele>
        <time>2015-03-17T14:52:36Z</time>
      </trkpt>
      <trkpt lat="43.186900" lon="-4.640133">
        <ele>1779.0</ele>
        <time>2015-03-17T14:52:37Z</time>
      </trkpt>
      <trkpt lat="43.186867" lon="-4.640050">
        <ele>1777.0</ele>
        <time>2015-03-17T14:52:38Z</time>
      </trkpt>
      <trkpt lat="43.186817" lon="-4.639950">
        <ele>1776.0</ele>
        <time>2015-03-17T14:52:39Z</time>
      </trkpt>
      <trkpt lat="43.186767" lon="-4.639850">
        <ele>1776.0</ele>
        <time>2015-03-17T14:52:40Z</time>
      </trkpt>
      <trkpt lat="43.186733" lon="-4.639767">
        <ele>1776.0</ele>
        <time>2015-03-17T14:52:41Z</time>
      </trkpt>
      <trkpt lat="43.186700" lon="-4.639683">
        <ele>1775.0</ele>
        <time>2015-03-17T14:52:42Z</time>
      </trkpt>
      <trkpt lat="43.186667" lon="-4.639600">
        <ele>1775.0</ele>
        <time>2015-03-17T14:52:43Z</time>
      </trkpt>
      <trkpt lat="43.186617" lon="-4.639500">
        <ele>1774.0</ele>
        <time>2015-03-17T14:52:44Z</time>
      </trkpt>
      <trkpt lat="43.186583" lon="-4.639400">
        <ele>1773.0</ele>
        <time>2015-03-17T14:52:45Z</time>
      </trkpt>
      <trkpt lat="43.186533" lon="-4.639300">
        <ele>1772.0</ele>
        <time>2015-03-17T14:52:46Z</time>
      </trkpt>
      <trkpt lat="43.186467" lon="-4.639217">
        <ele>1773.0</ele>
        <time>2015-03-17T14:52:47Z</time>
      </trkpt>
      <trkpt lat="43.186417" lon="-4.639150">
        <ele>1774.0</ele>
        <time>2015-03-17T14:52:48Z</time>
      </trkpt>
      <trkpt lat="43.186367" lon="-4.639067">
        <ele>1775.0</ele>
        <time>2015-03-17T14:52:49Z</time>
      </trkpt>
      <trkpt lat="43.186317" lon="-4.639000">
        <ele>1775.0</ele>
        <time>2015-03-17T14:52:50Z</time>
      </trkpt>
      <trkpt lat="43.186267" lon="-4.638950">
        <ele>1775.0</ele>
        <time>2015-03-17T14:52:51Z</time>
      </trkpt>
      <trkpt lat="43.186200" lon="-4.638883">
        <ele>1773.0</ele>
        <time>2015-03-17T14:52:52Z</time>
      </trkpt>
      <trkpt lat="43.186133" lon="-4.638817">
        <ele>1773.0</ele>
        <time>2015-03-17T14:52:53Z</time>
      </trkpt>
      <trkpt lat="43.186067" lon="-4.638750">
        <ele>1773.0</ele>
        <time>2015-03-17T14:52:54Z</time>
      </trkpt>
      <trkpt lat="43.186017" lon="-4.638700">
        <ele>1773.0</ele>
        <time>2015-03-17T14:52:55Z</time>
      </trkpt>
      <trkpt lat="43.185967" lon="-4.638650">
        <ele>1773.0</ele>
        <time>2015-03-17T14:52:56Z</time>
      </trkpt>
      <trkpt lat="43.185933" lon="-4.638583">
        <ele>1773.0</ele>
        <time>2015-03-17T14:52:57Z</time>
      </trkpt>
      <trkpt lat="43.185883" lon="-4.638517">
        <ele>1772.0</ele>
        <time>2015-03-17T14:52:58Z</time>
      </trkpt>
      <trkpt lat="43.185833" lon="-4.638450">
        <ele>1771.0</ele>
        <time>2015-03-17T14:52:59Z</time>
      </trkpt>
      <trkpt lat="43.185767" lon="-4.638367">
        <ele>1770.0</ele>
        <time>2015-03-17T14:53:00Z</time>
      </trkpt>
      <trkpt lat="43.185700" lon="-4.638300">
        <ele>1770.0</ele>
        <time>2015-03-17T14:53:01Z</time>
      </trkpt>
      <trkpt lat="43.185650" lon="-4.638250">
        <ele>1771.0</ele>
        <time>2015-03-17T14:53:02Z</time>
      </trkpt>
      <trkpt lat="43.185583" lon="-4.638183">
        <ele>1771.0</ele>
        <time>2015-03-17T14:53:03Z</time>
      </trkpt>
      <trkpt lat="43.185533" lon="-4.638133">
        <ele>1771.0</ele>
        <time>2015-03-17T14:53:04Z</time>
      </trkpt>
      <trkpt lat="43.185500" lon="-4.638067">
        <ele>1771.0</ele>
        <time>2015-03-17T14:53:05Z</time>
      </trkpt>
      <trkpt lat="43.185433" lon="-4.638017">
        <ele>1770.0</ele>
        <time>2015-03-17T14:53:06Z</time>
      </trkpt>
      <trkpt lat="43.185383" lon="-4.637950">
        <ele>1769.0</ele>
        <time>2015-03-17T14:53:07Z</time>
      </trkpt>
      <trkpt lat="43.185333" lon="-4.637883">
        <ele>1769.0</ele>
        <time>2015-03-17T14:53:08Z</time>
      </trkpt>
      <trkpt lat="43.185267" lon="-4.637817">
        <ele>1768.0</ele>
        <time>2015-03-17T14:53:09Z</time>
      </trkpt>
      <trkpt lat="43.185233" lon="-4.637750">
        <ele>1768.0</ele>
        <time>2015-03-17T14:53:10Z</time>
      </trkpt>
      <trkpt lat="43.185183" lon="-4.637700">
        <ele>1768.0</ele>
        <time>2015-03-17T14:53:11Z</time>
      </trkpt>
      <trkpt lat="43.185133" lon="-4.637633">
        <ele>1768.0</ele>
        <time>2015-03-17T14:53:12Z</time>
      </trkpt>
      <trkpt lat="43.185067" lon="-4.637567">
        <ele>1767.0</ele>
        <time>2015-03-17T14:53:13Z</time>
      </trkpt>
      <trkpt lat="43.185033" lon="-4.637483">
        <ele>1766.0</ele>
        <time>2015-03-17T14:53:14Z</time>
      </trkpt>
      <trkpt lat="43.184983" lon="-4.637383">
        <ele>1766.0</ele>
        <time>2015-03-17T14:53:15Z</time>
      </trkpt>
      <trkpt lat="43.184950" lon="-4.637283">
        <ele>1766.0</ele>
        <time>2015-03-17T14:53:16Z</time>
      </trkpt>
      <trkpt lat="43.184917" lon="-4.637183">
        <ele>1766.0</ele>
        <time>2015-03-17T14:53:17Z</time>
      </trkpt>
      <trkpt lat="43.184867" lon="-4.637100">
        <ele>1766.0</ele>
        <time>2015-03-17T14:53:18Z</time>
      </trkpt>
      <trkpt lat="43.184833" lon="-4.637017">
        <ele>1765.0</ele>
        <time>2015-03-17T14:53:19Z</time>
      </trkpt>
      <trkpt lat="43.184800" lon="-4.636917">
        <ele>1765.0</ele>
        <time>2015-03-17T14:53:20Z</time>
      </trkpt>
      <trkpt lat="43.184767" lon="-4.636833">
        <ele>1764.0</ele>
        <time>2015-03-17T14:53:21Z</time>
      </trkpt>
      <trkpt lat="43.184717" lon="-4.636733">
        <ele>1764.0</ele>
        <time>2015-03-17T14:53:22Z</time>
      </trkpt>
      <trkpt lat="43.184683" lon="-4.636667">
        <ele>1764.0</ele>
        <time>2015-03-17T14:53:23Z</time>
      </trkpt>
      <trkpt lat="43.184633" lon="-4.636617">
        <ele>1764.0</ele>
        <time>2015-03-17T14:53:24Z</time>
      </trkpt>
      <trkpt lat="43.184583" lon="-4.636550">
        <ele>1763.0</ele>
        <time>2015-03-17T14:53:25Z</time>
      </trkpt>
      <trkpt lat="43.184533" lon="-4.636500">
        <ele>1763.0</ele>
        <time>2015-03-17T14:53:26Z</time>
      </trkpt>
      <trkpt lat="43.184500" lon="-4.636433">
        <ele>1763.0</ele>
        <time>2015-03-17T14:53:27Z</time>
      </trkpt>
      <trkpt lat="43.184467" lon="-4.636350">
        <ele>1762.0</ele>
        <time>2015-03-17T14:53:28Z</time>
      </trkpt>
      <trkpt lat="43.184433" lon="-4.636267">
        <ele>1761.0</ele>
        <time>2015-03-17T14:53:29Z</time>
      </trkpt>
      <trkpt lat="43.184400" lon="-4.636167">
        <ele>1761.0</ele>
        <time>2015-03-17T14:53:30Z</time>
      </trkpt>
      <trkpt lat="43.184367" lon="-4.636083">
        <ele>1760.0</ele>
        <time>2015-03-17T14:53:31Z</time>
      </trkpt>
      <trkpt lat="43.184350" lon="-4.636000">
        <ele>1760.0</ele>
        <time>2015-03-17T14:53:32Z</time>
      </trkpt>
      <trkpt lat="43.184317" lon="-4.635900">
        <ele>1759.0</ele>
        <time>2015-03-17T14:53:33Z</time>
      </trkpt>
      <trkpt lat="43.184283" lon="-4.635800">
        <ele>1759.0</ele>
        <time>2015-03-17T14:53:34Z</time>
      </trkpt>
      <trkpt lat="43.184267" lon="-4.635700">
        <ele>1758.0</ele>
        <time>2015-03-17T14:53:35Z</time>
      </trkpt>
      <trkpt lat="43.184233" lon="-4.635600">
        <ele>1758.0</ele>
        <time>2015-03-17T14:53:36Z</time>
      </trkpt>
      <trkpt lat="43.184200" lon="-4.635517">
        <ele>1758.0</ele>
        <time>2015-03-17T14:53:37Z</time>
      </trkpt>
      <trkpt lat="43.184167" lon="-4.635417">
        <ele>1758.0</ele>
        <time>2015-03-17T14:53:38Z</time>
      </trkpt>
      <trkpt lat="43.184150" lon="-4.635317">
        <ele>1757.0</ele>
        <time>2015-03-17T14:53:39Z</time>
      </trkpt>
      <trkpt lat="43.184117" lon="-4.635217">
        <ele>1756.0</ele>
        <time>2015-03-17T14:53:40Z</time>
      </trkpt>
      <trkpt lat="43.184083" lon="-4.635117">
        <ele>1756.0</ele>
        <time>2015-03-17T14:53:41Z</time>
      </trkpt>
      <trkpt lat="43.184050" lon="-4.635017">
        <ele>1755.0</ele>
        <time>2015-03-17T14:53:42Z</time>
      </trkpt>
      <trkpt lat="43.184000" lon="-4.634933">
        <ele>1754.0</ele>
        <time>2015-03-17T14:53:43Z</time>
      </trkpt>
      <trkpt lat="43.183967" lon="-4.634833">
        <ele>1754.0</ele>
        <time>2015-03-17T14:53:44Z</time>
      </trkpt>
      <trkpt lat="43.183917" lon="-4.634750">
        <ele>1754.0</ele>
        <time>2015-03-17T14:53:45Z</time>
      </trkpt>
      <trkpt lat="43.183883" lon="-4.634650">
        <ele>1753.0</ele>
        <time>2015-03-17T14:53:46Z</time>
      </trkpt>
      <trkpt lat="43.183850" lon="-4.634567">
        <ele>1753.0</ele>
        <time>2015-03-17T14:53:47Z</time>
      </trkpt>
      <trkpt lat="43.183800" lon="-4.634467">
        <ele>1752.0</ele>
        <time>2015-03-17T14:53:48Z</time>
      </trkpt>
      <trkpt lat="43.183767" lon="-4.634383">
        <ele>1751.0</ele>
        <time>2015-03-17T14:53:49Z</time>
      </trkpt>
      <trkpt lat="43.183717" lon="-4.634300">
        <ele>1751.0</ele>
        <time>2015-03-17T14:53:50Z</time>
      </trkpt>
      <trkpt lat="43.183667" lon="-4.634217">
        <ele>1750.0</ele>
        <time>2015-03-17T14:53:51Z</time>
      </trkpt>
      <trkpt lat="43.183617" lon="-4.634133">
        <ele>1750.0</ele>
        <time>2015-03-17T14:53:52Z</time>
      </trkpt>
      <trkpt lat="43.183567" lon="-4.634067">
        <ele>1749.0</ele>
        <time>2015-03-17T14:53:53Z</time>
      </trkpt>
      <trkpt lat="43.183517" lon="-4.634000">
        <ele>1748.0</ele>
        <time>2015-03-17T14:53:54Z</time>
      </trkpt>
      <trkpt lat="43.183467" lon="-4.633917">
        <ele>1748.0</ele>
        <time>2015-03-17T14:53:55Z</time>
      </trkpt>
      <trkpt lat="43.183417" lon="-4.633850">
        <ele>1747.0</ele>
        <time>2015-03-17T14:53:56Z</time>
      </trkpt>
      <trkpt lat="43.183367" lon="-4.633800">
        <ele>1746.0</ele>
        <time>2015-03-17T14:53:57Z</time>
      </trkpt>
      <trkpt lat="43.183317" lon="-4.633733">
        <ele>1745.0</ele>
        <time>2015-03-17T14:53:58Z</time>
      </trkpt>
      <trkpt lat="43.183250" lon="-4.633683">
        <ele>1744.0</ele>
        <time>2015-03-17T14:53:59Z</time>
      </trkpt>
      <trkpt lat="43.183183" lon="-4.633617">
        <ele>1743.0</ele>
        <time>2015-03-17T14:54:00Z</time>
      </trkpt>
      <trkpt lat="43.183133" lon="-4.633567">
        <ele>1743.0</ele>
        <time>2015-03-17T14:54:01Z</time>
      </trkpt>
      <trkpt lat="43.183083" lon="-4.633517">
        <ele>1743.0</ele>
        <time>2015-03-17T14:54:02Z</time>
      </trkpt>
      <trkpt lat="43.183017" lon="-4.633467">
        <ele>1742.0</ele>
        <time>2015-03-17T14:54:03Z</time>
      </trkpt>
      <trkpt lat="43.182967" lon="-4.633417">
        <ele>1740.0</ele>
        <time>2015-03-17T14:54:04Z</time>
      </trkpt>
      <trkpt lat="43.182900" lon="-4.633350">
        <ele>1739.0</ele>
        <time>2015-03-17T14:54:05Z</time>
      </trkpt>
      <trkpt lat="43.182850" lon="-4.633300">
        <ele>1739.0</ele>
        <time>2015-03-17T14:54:06Z</time>
      </trkpt>
      <trkpt lat="43.182783" lon="-4.633250">
        <ele>1739.0</ele>
        <time>2015-03-17T14:54:07Z</time>
      </trkpt>
      <trkpt lat="43.182717" lon="-4.633200">
        <ele>1739.0</ele>
        <time>2015-03-17T14:54:08Z</time>
      </trkpt>
      <trkpt lat="43.182667" lon="-4.633150">
        <ele>1738.0</ele>
        <time>2015-03-17T14:54:09Z</time>
      </trkpt>
      <trkpt lat="43.182617" lon="-4.633100">
        <ele>1737.0</ele>
        <time>2015-03-17T14:54:10Z</time>
      </trkpt>
      <trkpt lat="43.182550" lon="-4.633067">
        <ele>1737.0</ele>
        <time>2015-03-17T14:54:11Z</time>
      </trkpt>
      <trkpt lat="43.182500" lon="-4.633017">
        <ele>1735.0</ele>
        <time>2015-03-17T14:54:12Z</time>
      </trkpt>
      <trkpt lat="43.182433" lon="-4.632967">
        <ele>1734.0</ele>
        <time>2015-03-17T14:54:13Z</time>
      </trkpt>
      <trkpt lat="43.182367" lon="-4.632917">
        <ele>1732.0</ele>
        <time>2015-03-17T14:54:14Z</time>
      </trkpt>
      <trkpt lat="43.182300" lon="-4.632850">
        <ele>1732.0</ele>
        <time>2015-03-17T14:54:15Z</time>
      </trkpt>
      <trkpt lat="43.182233" lon="-4.632783">
        <ele>1731.0</ele>
        <time>2015-03-17T14:54:16Z</time>
      </trkpt>
      <trkpt lat="43.182183" lon="-4.632733">
        <ele>1731.0</ele>
        <time>2015-03-17T14:54:17Z</time>
      </trkpt>
      <trkpt lat="43.182133" lon="-4.632667">
        <ele>1730.0</ele>
        <time>2015-03-17T14:54:18Z</time>
      </trkpt>
      <trkpt lat="43.182083" lon="-4.632617">
        <ele>1729.0</ele>
        <time>2015-03-17T14:54:19Z</time>
      </trkpt>
      <trkpt lat="43.182017" lon="-4.632567">
        <ele>1727.0</ele>
        <time>2015-03-17T14:54:20Z</time>
      </trkpt>
      <trkpt lat="43.181950" lon="-4.632500">
        <ele>1725.0</ele>
        <time>2015-03-17T14:54:21Z</time>
      </trkpt>
      <trkpt lat="43.181900" lon="-4.632417">
        <ele>1724.0</ele>
        <time>2015-03-17T14:54:22Z</time>
      </trkpt>
      <trkpt lat="43.181833" lon="-4.632367">
        <ele>1724.0</ele>
        <time>2015-03-17T14:54:23Z</time>
      </trkpt>
      <trkpt lat="43.181783" lon="-4.632317">
        <ele>1723.0</ele>
        <time>2015-03-17T14:54:24Z</time>
      </trkpt>
      <trkpt lat="43.181733" lon="-4.632267">
        <ele>1722.0</ele>
        <time>2015-03-17T14:54:25Z</time>
      </trkpt>
      <trkpt lat="43.181667" lon="-4.632200">
        <ele>1720.0</ele>
        <time>2015-03-17T14:54:26Z</time>
      </trkpt>
      <trkpt lat="43.181617" lon="-4.632150">
        <ele>1719.0</ele>
        <time>2015-03-17T14:54:27Z</time>
      </trkpt>
      <trkpt lat="43.181550" lon="-4.632083">
        <ele>1717.0</ele>
        <time>2015-03-17T14:54:28Z</time>
      </trkpt>
      <trkpt lat="43.181483" lon="-4.632033">
        <ele>1716.0</ele>
        <time>2015-03-17T14:54:29Z</time>
      </trkpt>
      <trkpt lat="43.181417" lon="-4.631983">
        <ele>1715.0</ele>
        <time>2015-03-17T14:54:30Z</time>
      </trkpt>
      <trkpt lat="43.181367" lon="-4.631917">
        <ele>1714.0</ele>
        <time>2015-03-17T14:54:31Z</time>
      </trkpt>
      <trkpt lat="43.181317" lon="-4.631850">
        <ele>1713.0</ele>
        <time>2015-03-17T14:54:32Z</time>
      </trkpt>
      <trkpt lat="43.181300" lon="-4.631750">
        <ele>1712.0</ele>
        <time>2015-03-17T14:54:33Z</time>
      </trkpt>
      <trkpt lat="43.181267" lon="-4.631650">
        <ele>1711.0</ele>
        <time>2015-03-17T14:54:34Z</time>
      </trkpt>
      <trkpt lat="43.181233" lon="-4.631550">
        <ele>1709.0</ele>
        <time>2015-03-17T14:54:35Z</time>
      </trkpt>
      <trkpt lat="43.181200" lon="-4.631450">
        <ele>1707.0</ele>
        <time>2015-03-17T14:54:36Z</time>
      </trkpt>
      <trkpt lat="43.181150" lon="-4.631350">
        <ele>1706.0</ele>
        <time>2015-03-17T14:54:37Z</time>
      </trkpt>
      <trkpt lat="43.181117" lon="-4.631250">
        <ele>1706.0</ele>
        <time>2015-03-17T14:54:38Z</time>
      </trkpt>
      <trkpt lat="43.181083" lon="-4.631167">
        <ele>1706.0</ele>
        <time>2015-03-17T14:54:39Z</time>
      </trkpt>
      <trkpt lat="43.181050" lon="-4.631067">
        <ele>1705.0</ele>
        <time>2015-03-17T14:54:40Z</time>
      </trkpt>
      <trkpt lat="43.181017" lon="-4.630983">
        <ele>1704.0</ele>
        <time>2015-03-17T14:54:41Z</time>
      </trkpt>
      <trkpt lat="43.180983" lon="-4.630900">
        <ele>1703.0</ele>
        <time>2015-03-17T14:54:42Z</time>
      </trkpt>
      <trkpt lat="43.180933" lon="-4.630817">
        <ele>1701.0</ele>
        <time>2015-03-17T14:54:43Z</time>
      </trkpt>
      <trkpt lat="43.180900" lon="-4.630733">
        <ele>1700.0</ele>
        <time>2015-03-17T14:54:44Z</time>
      </trkpt>
      <trkpt lat="43.180850" lon="-4.630633">
        <ele>1699.0</ele>
        <time>2015-03-17T14:54:45Z</time>
      </trkpt>
      <trkpt lat="43.180817" lon="-4.630550">
        <ele>1699.0</ele>
        <time>2015-03-17T14:54:46Z</time>
      </trkpt>
      <trkpt lat="43.180783" lon="-4.630483">
        <ele>1698.0</ele>
        <time>2015-03-17T14:54:47Z</time>
      </trkpt>
      <trkpt lat="43.180733" lon="-4.630400">
        <ele>1696.0</ele>
        <time>2015-03-17T14:54:48Z</time>
      </trkpt>
      <trkpt lat="43.180700" lon="-4.630333">
        <ele>1695.0</ele>
        <time>2015-03-17T14:54:49Z</time>
      </trkpt>
      <trkpt lat="43.180650" lon="-4.630250">
        <ele>1694.0</ele>
        <time>2015-03-17T14:54:50Z</time>
      </trkpt>
      <trkpt lat="43.180600" lon="-4.630183">
        <ele>1693.0</ele>
        <time>2015-03-17T14:54:51Z</time>
      </trkpt>
      <trkpt lat="43.180550" lon="-4.630117">
        <ele>1692.0</ele>
        <time>2015-03-17T14:54:52Z</time>
      </trkpt>
      <trkpt lat="43.180483" lon="-4.630050">
        <ele>1691.0</ele>
        <time>2015-03-17T14:54:53Z</time>
      </trkpt>
      <trkpt lat="43.180433" lon="-4.629983">
        <ele>1691.0</ele>
        <time>2015-03-17T14:54:54Z</time>
      </trkpt>
      <trkpt lat="43.180400" lon="-4.629917">
        <ele>1691.0</ele>
        <time>2015-03-17T14:54:55Z</time>
      </trkpt>
      <trkpt lat="43.180367" lon="-4.629867">
        <ele>1691.0</ele>
        <time>2015-03-17T14:54:56Z</time>
      </trkpt>
      <trkpt lat="43.180333" lon="-4.629817">
        <ele>1690.0</ele>
        <time>2015-03-17T14:54:57Z</time>
      </trkpt>
      <trkpt lat="43.180283" lon="-4.629750">
        <ele>1688.0</ele>
        <time>2015-03-17T14:54:58Z</time>
      </trkpt>
      <trkpt lat="43.180233" lon="-4.629683">
        <ele>1685.0</ele>
        <time>2015-03-17T14:54:59Z</time>
      </trkpt>
      <trkpt lat="43.180167" lon="-4.629600">
        <ele>1684.0</ele>
        <time>2015-03-17T14:55:00Z</time>
      </trkpt>
      <trkpt lat="43.180117" lon="-4.629533">
        <ele>1683.0</ele>
        <time>2015-03-17T14:55:01Z</time>
      </trkpt>
      <trkpt lat="43.180067" lon="-4.629467">
        <ele>1684.0</ele>
        <time>2015-03-17T14:55:02Z</time>
      </trkpt>
      <trkpt lat="43.180017" lon="-4.629400">
        <ele>1684.0</ele>
        <time>2015-03-17T14:55:03Z</time>
      </trkpt>
      <trkpt lat="43.179983" lon="-4.629333">
        <ele>1684.0</ele>
        <time>2015-03-17T14:55:04Z</time>
      </trkpt>
      <trkpt lat="43.179950" lon="-4.629250">
        <ele>1683.0</ele>
        <time>2015-03-17T14:55:05Z</time>
      </trkpt>
      <trkpt lat="43.179917" lon="-4.629167">
        <ele>1682.0</ele>
        <time>2015-03-17T14:55:06Z</time>
      </trkpt>
      <trkpt lat="43.179867" lon="-4.629067">
        <ele>1681.0</ele>
        <time>2015-03-17T14:55:07Z</time>
      </trkpt>
      <trkpt lat="43.179833" lon="-4.628983">
        <ele>1680.0</ele>
        <time>2015-03-17T14:55:08Z</time>
      </trkpt>
      <trkpt lat="43.179783" lon="-4.628900">
        <ele>1680.0</ele>
        <time>2015-03-17T14:55:09Z</time>
      </trkpt>
      <trkpt lat="43.179750" lon="-4.628817">
        <ele>1679.0</ele>
        <time>2015-03-17T14:55:10Z</time>
      </trkpt>
      <trkpt lat="43.179717" lon="-4.628733">
        <ele>1678.0</ele>
        <time>2015-03-17T14:55:11Z</time>
      </trkpt>
      <trkpt lat="43.179683" lon="-4.628667">
        <ele>1677.0</ele>
        <time>2015-03-17T14:55:12Z</time>
      </trkpt>
      <trkpt lat="43.179633" lon="-4.628583">
        <ele>1675.0</ele>
        <time>2015-03-17T14:55:13Z</time>
      </trkpt>
      <trkpt lat="43.179600" lon="-4.628500">
        <ele>1674.0</ele>
        <time>2015-03-17T14:55:14Z</time>
      </trkpt>
      <trkpt lat="43.179550" lon="-4.628417">
        <ele>1672.0</ele>
        <time>2015-03-17T14:55:15Z</time>
      </trkpt>
      <trkpt lat="43.179500" lon="-4.628333">
        <ele>1672.0</ele>
        <time>2015-03-17T14:55:16Z</time>
      </trkpt>
      <trkpt lat="43.179450" lon="-4.628267">
        <ele>1671.0</ele>
        <time>2015-03-17T14:55:17Z</time>
      </trkpt>
      <trkpt lat="43.179417" lon="-4.628183">
        <ele>1670.0</ele>
        <time>2015-03-17T14:55:18Z</time>
      </trkpt>
      <trkpt lat="43.179367" lon="-4.628117">
        <ele>1669.0</ele>
        <time>2015-03-17T14:55:19Z</time>
      </trkpt>
      <trkpt lat="43.179333" lon="-4.628033">
        <ele>1668.0</ele>
        <time>2015-03-17T14:55:20Z</time>
      </trkpt>
      <trkpt lat="43.179283" lon="-4.627967">
        <ele>1667.0</ele>
        <time>2015-03-17T14:55:21Z</time>
      </trkpt>
      <trkpt lat="43.179233" lon="-4.627883">
        <ele>1666.0</ele>
        <time>2015-03-17T14:55:22Z</time>
      </trkpt>
      <trkpt lat="43.179167" lon="-4.627833">
        <ele>1666.0</ele>
        <time>2015-03-17T14:55:23Z</time>
      </trkpt>
      <trkpt lat="43.179117" lon="-4.627783">
        <ele>1666.0</ele>
        <time>2015-03-17T14:55:24Z</time>
      </trkpt>
      <trkpt lat="43.179083" lon="-4.627717">
        <ele>1665.0</ele>
        <time>2015-03-17T14:55:25Z</time>
      </trkpt>
      <trkpt lat="43.179033" lon="-4.627650">
        <ele>1664.0</ele>
        <time>2015-03-17T14:55:26Z</time>
      </trkpt>
      <trkpt lat="43.178983" lon="-4.627600">
        <ele>1662.0</ele>
        <time>2015-03-17T14:55:27Z</time>
      </trkpt>
      <trkpt lat="43.178933" lon="-4.627533">
        <ele>1661.0</ele>
        <time>2015-03-17T14:55:28Z</time>
      </trkpt>
      <trkpt lat="43.178867" lon="-4.627483">
        <ele>1661.0</ele>
        <time>2015-03-17T14:55:29Z</time>
      </trkpt>
      <trkpt lat="43.178817" lon="-4.627450">
        <ele>1661.0</ele>
        <time>2015-03-17T14:55:30Z</time>
      </trkpt>
      <trkpt lat="43.178767" lon="-4.627400">
        <ele>1661.0</ele>
        <time>2015-03-17T14:55:31Z</time>
      </trkpt>
      <trkpt lat="43.178717" lon="-4.627350">
        <ele>1661.0</ele>
        <time>2015-03-17T14:55:32Z</time>
      </trkpt>
      <trkpt lat="43.178667" lon="-4.627317">
        <ele>1661.0</ele>
        <time>2015-03-17T14:55:33Z</time>
      </trkpt>
      <trkpt lat="43.178600" lon="-4.627283">
        <ele>1661.0</ele>
        <time>2015-03-17T14:55:34Z</time>
      </trkpt>
      <trkpt lat="43.178533" lon="-4.627250">
        <ele>1661.0</ele>
        <time>2015-03-17T14:55:35Z</time>
      </trkpt>
      <trkpt lat="43.178467" lon="-4.627233">
        <ele>1661.0</ele>
        <time>2015-03-17T14:55:36Z</time>
      </trkpt>
      <trkpt lat="43.178400" lon="-4.627233">
        <ele>1660.0</ele>
        <time>2015-03-17T14:55:37Z</time>
      </trkpt>
      <trkpt lat="43.178350" lon="-4.627233">
        <ele>1660.0</ele>
        <time>2015-03-17T14:55:38Z</time>
      </trkpt>
      <trkpt lat="43.178283" lon="-4.627233">
        <ele>1660.0</ele>
        <time>2015-03-17T14:55:39Z</time>
      </trkpt>
      <trkpt lat="43.178233" lon="-4.627267">
        <ele>1660.0</ele>
        <time>2015-03-17T14:55:40Z</time>
      </trkpt>
      <trkpt lat="43.178167" lon="-4.627300">
        <ele>1660.0</ele>
        <time>2015-03-17T14:55:41Z</time>
      </trkpt>
      <trkpt lat="43.178117" lon="-4.627367">
        <ele>1660.0</ele>
        <time>2015-03-17T14:55:42Z</time>
      </trkpt>
      <trkpt lat="43.178050" lon="-4.627400">
        <ele>1660.0</ele>
        <time>2015-03-17T14:55:43Z</time>
      </trkpt>
      <trkpt lat="43.178017" lon="-4.627433">
        <ele>1660.0</ele>
        <time>2015-03-17T14:55:44Z</time>
      </trkpt>
      <trkpt lat="43.177967" lon="-4.627433">
        <ele>1660.0</ele>
        <time>2015-03-17T14:55:45Z</time>
      </trkpt>
      <trkpt lat="43.177917" lon="-4.627433">
        <ele>1659.0</ele>
        <time>2015-03-17T14:55:46Z</time>
      </trkpt>
      <trkpt lat="43.177867" lon="-4.627450">
        <ele>1659.0</ele>
        <time>2015-03-17T14:55:47Z</time>
      </trkpt>
      <trkpt lat="43.177800" lon="-4.627483">
        <ele>1659.0</ele>
        <time>2015-03-17T14:55:48Z</time>
      </trkpt>
      <trkpt lat="43.177750" lon="-4.627517">
        <ele>1659.0</ele>
        <time>2015-03-17T14:55:49Z</time>
      </trkpt>
      <trkpt lat="43.177700" lon="-4.627533">
        <ele>1659.0</ele>
        <time>2015-03-17T14:55:50Z</time>
      </trkpt>
      <trkpt lat="43.177650" lon="-4.627533">
        <ele>1658.0</ele>
        <time>2015-03-17T14:55:51Z</time>
      </trkpt>
      <trkpt lat="43.177600" lon="-4.627533">
        <ele>1658.0</ele>
        <time>2015-03-17T14:55:52Z</time>
      </trkpt>
      <trkpt lat="43.177550" lon="-4.627533">
        <ele>1658.0</ele>
        <time>2015-03-17T14:55:53Z</time>
      </trkpt>
      <trkpt lat="43.177500" lon="-4.627533">
        <ele>1658.0</ele>
        <time>2015-03-17T14:55:54Z</time>
      </trkpt>
      <trkpt lat="43.177450" lon="-4.627517">
        <ele>1657.0</ele>
        <time>2015-03-17T14:55:55Z</time>
      </trkpt>
      <trkpt lat="43.177400" lon="-4.627517">
        <ele>1657.0</ele>
        <time>2015-03-17T14:55:56Z</time>
      </trkpt>
      <trkpt lat="43.177350" lon="-4.627500">
        <ele>1657.0</ele>
        <time>2015-03-17T14:55:57Z</time>
      </trkpt>
      <trkpt lat="43.177283" lon="-4.627500">
        <ele>1657.0</ele>
        <time>2015-03-17T14:55:58Z</time>
      </trkpt>
      <trkpt lat="43.177217" lon="-4.627500">
        <ele>1656.0</ele>
        <time>2015-03-17T14:55:59Z</time>
      </trkpt>
      <trkpt lat="43.177167" lon="-4.627500">
        <ele>1656.0</ele>
        <time>2015-03-17T14:56:00Z</time>
      </trkpt>
      <trkpt lat="43.177117" lon="-4.627500">
        <ele>1656.0</ele>
        <time>2015-03-17T14:56:01Z</time>
      </trkpt>
      <trkpt lat="43.177067" lon="-4.627500">
        <ele>1655.0</ele>
        <time>2015-03-17T14:56:02Z</time>
      </trkpt>
      <trkpt lat="43.177033" lon="-4.627483">
        <ele>1654.0</ele>
        <time>2015-03-17T14:56:03Z</time>
      </trkpt>
      <trkpt lat="43.176967" lon="-4.627483">
        <ele>1655.0</ele>
        <time>2015-03-17T14:56:04Z</time>
      </trkpt>
      <trkpt lat="43.176900" lon="-4.627517">
        <ele>1654.0</ele>
        <time>2015-03-17T14:56:05Z</time>
      </trkpt>
      <trkpt lat="43.176833" lon="-4.627567">
        <ele>1653.0</ele>
        <time>2015-03-17T14:56:06Z</time>
      </trkpt>
      <trkpt lat="43.176767" lon="-4.627600">
        <ele>1652.0</ele>
        <time>2015-03-17T14:56:07Z</time>
      </trkpt>
      <trkpt lat="43.176717" lon="-4.627667">
        <ele>1652.0</ele>
        <time>2015-03-17T14:56:08Z</time>
      </trkpt>
      <trkpt lat="43.176650" lon="-4.627733">
        <ele>1650.0</ele>
        <time>2015-03-17T14:56:09Z</time>
      </trkpt>
      <trkpt lat="43.176583" lon="-4.627800">
        <ele>1649.0</ele>
        <time>2015-03-17T14:56:10Z</time>
      </trkpt>
      <trkpt lat="43.176517" lon="-4.627850">
        <ele>1648.0</ele>
        <time>2015-03-17T14:56:11Z</time>
      </trkpt>
      <trkpt lat="43.176483" lon="-4.627883">
        <ele>1648.0</ele>
        <time>2015-03-17T14:56:12Z</time>
      </trkpt>
      <trkpt lat="43.176433" lon="-4.627883">
        <ele>1647.0</ele>
        <time>2015-03-17T14:56:13Z</time>
      </trkpt>
      <trkpt lat="43.176383" lon="-4.627883">
        <ele>1647.0</ele>
        <time>2015-03-17T14:56:14Z</time>
      </trkpt>
      <trkpt lat="43.176350" lon="-4.627900">
        <ele>1647.0</ele>
        <time>2015-03-17T14:56:15Z</time>
      </trkpt>
      <trkpt lat="43.176283" lon="-4.627900">
        <ele>1646.0</ele>
        <time>2015-03-17T14:56:16Z</time>
      </trkpt>
      <trkpt lat="43.176183" lon="-4.627917">
        <ele>1645.0</ele>
        <time>2015-03-17T14:56:17Z</time>
      </trkpt>
      <trkpt lat="43.176117" lon="-4.627900">
        <ele>1644.0</ele>
        <time>2015-03-17T14:56:18Z</time>
      </trkpt>
      <trkpt lat="43.176050" lon="-4.627867">
        <ele>1643.0</ele>
        <time>2015-03-17T14:56:19Z</time>
      </trkpt>
      <trkpt lat="43.175983" lon="-4.627850">
        <ele>1643.0</ele>
        <time>2015-03-17T14:56:20Z</time>
      </trkpt>
      <trkpt lat="43.175933" lon="-4.627817">
        <ele>1642.0</ele>
        <time>2015-03-17T14:56:21Z</time>
      </trkpt>
      <trkpt lat="43.175867" lon="-4.627783">
        <ele>1640.0</ele>
        <time>2015-03-17T14:56:22Z</time>
      </trkpt>
      <trkpt lat="43.175800" lon="-4.627750">
        <ele>1638.0</ele>
        <time>2015-03-17T14:56:23Z</time>
      </trkpt>
      <trkpt lat="43.175733" lon="-4.627700">
        <ele>1635.0</ele>
        <time>2015-03-17T14:56:24Z</time>
      </trkpt>
      <trkpt lat="43.175667" lon="-4.627667">
        <ele>1634.0</ele>
        <time>2015-03-17T14:56:25Z</time>
      </trkpt>
      <trkpt lat="43.175600" lon="-4.627617">
        <ele>1632.0</ele>
        <time>2015-03-17T14:56:26Z</time>
      </trkpt>
      <trkpt lat="43.175533" lon="-4.627567">
        <ele>1631.0</ele>
        <time>2015-03-17T14:56:27Z</time>
      </trkpt>
      <trkpt lat="43.175483" lon="-4.627517">
        <ele>1631.0</ele>
        <time>2015-03-17T14:56:28Z</time>
      </trkpt>
      <trkpt lat="43.175417" lon="-4.627450">
        <ele>1629.0</ele>
        <time>2015-03-17T14:56:29Z</time>
      </trkpt>
      <trkpt lat="43.175367" lon="-4.627383">
        <ele>1628.0</ele>
        <time>2015-03-17T14:56:30Z</time>
      </trkpt>
      <trkpt lat="43.175317" lon="-4.627317">
        <ele>1627.0</ele>
        <time>2015-03-17T14:56:31Z</time>
      </trkpt>
      <trkpt lat="43.175250" lon="-4.627250">
        <ele>1625.0</ele>
        <time>2015-03-17T14:56:32Z</time>
      </trkpt>
      <trkpt lat="43.175183" lon="-4.627200">
        <ele>1625.0</ele>
        <time>2015-03-17T14:56:33Z</time>
      </trkpt>
      <trkpt lat="43.175133" lon="-4.627133">
        <ele>1624.0</ele>
        <time>2015-03-17T14:56:34Z</time>
      </trkpt>
      <trkpt lat="43.175067" lon="-4.627067">
        <ele>1623.0</ele>
        <time>2015-03-17T14:56:35Z</time>
      </trkpt>
      <trkpt lat="43.175017" lon="-4.627017">
        <ele>1622.0</ele>
        <time>2015-03-17T14:56:36Z</time>
      </trkpt>
      <trkpt lat="43.174950" lon="-4.626967">
        <ele>1620.0</ele>
        <time>2015-03-17T14:56:37Z</time>
      </trkpt>
      <trkpt lat="43.174900" lon="-4.626917">
        <ele>1619.0</ele>
        <time>2015-03-17T14:56:38Z</time>
      </trkpt>
      <trkpt lat="43.174833" lon="-4.626867">
        <ele>1617.0</ele>
        <time>2015-03-17T14:56:39Z</time>
      </trkpt>
      <trkpt lat="43.174767" lon="-4.626833">
        <ele>1616.0</ele>
        <time>2015-03-17T14:56:40Z</time>
      </trkpt>
      <trkpt lat="43.174700" lon="-4.626800">
        <ele>1614.0</ele>
        <time>2015-03-17T14:56:41Z</time>
      </trkpt>
      <trkpt lat="43.174633" lon="-4.626750">
        <ele>1612.0</ele>
        <time>2015-03-17T14:56:42Z</time>
      </trkpt>
      <trkpt lat="43.174567" lon="-4.626700">
        <ele>1611.0</ele>
        <time>2015-03-17T14:56:43Z</time>
      </trkpt>
      <trkpt lat="43.174500" lon="-4.626667">
        <ele>1609.0</ele>
        <time>2015-03-17T14:56:44Z</time>
      </trkpt>
      <trkpt lat="43.174433" lon="-4.626633">
        <ele>1608.0</ele>
        <time>2015-03-17T14:56:45Z</time>
      </trkpt>
      <trkpt lat="43.174367" lon="-4.626617">
        <ele>1606.0</ele>
        <time>2015-03-17T14:56:46Z</time>
      </trkpt>
      <trkpt lat="43.174300" lon="-4.626583">
        <ele>1604.0</ele>
        <time>2015-03-17T14:56:47Z</time>
      </trkpt>
      <trkpt lat="43.174233" lon="-4.626550">
        <ele>1602.0</ele>
        <time>2015-03-17T14:56:48Z</time>
      </trkpt>
      <trkpt lat="43.174150" lon="-4.626517">
        <ele>1600.0</ele>
        <time>2015-03-17T14:56:49Z</time>
      </trkpt>
      <trkpt lat="43.174083" lon="-4.626500">
        <ele>1598.0</ele>
        <time>2015-03-17T14:56:50Z</time>
      </trkpt>
      <trkpt lat="43.174000" lon="-4.626483">
        <ele>1597.0</ele>
        <time>2015-03-17T14:56:51Z</time>
      </trkpt>
      <trkpt lat="43.173933" lon="-4.626467">
        <ele>1595.0</ele>
        <time>2015-03-17T14:56:52Z</time>
      </trkpt>
      <trkpt lat="43.173867" lon="-4.626450">
        <ele>1593.0</ele>
        <time>2015-03-17T14:56:53Z</time>
      </trkpt>
      <trkpt lat="43.173800" lon="-4.626450">
        <ele>1592.0</ele>
        <time>2015-03-17T14:56:54Z</time>
      </trkpt>
      <trkpt lat="43.173717" lon="-4.626450">
        <ele>1590.0</ele>
        <time>2015-03-17T14:56:55Z</time>
      </trkpt>
      <trkpt lat="43.173650" lon="-4.626450">
        <ele>1588.0</ele>
        <time>2015-03-17T14:56:56Z</time>
      </trkpt>
      <trkpt lat="43.173567" lon="-4.626450">
        <ele>1587.0</ele>
        <time>2015-03-17T14:56:57Z</time>
      </trkpt>
      <trkpt lat="43.173517" lon="-4.626450">
        <ele>1589.0</ele>
        <time>2015-03-17T14:56:58Z</time>
      </trkpt>
      <trkpt lat="43.173450" lon="-4.626450">
        <ele>1590.0</ele>
        <time>2015-03-17T14:56:59Z</time>
      </trkpt>
      <trkpt lat="43.173383" lon="-4.626467">
        <ele>1589.0</ele>
        <time>2015-03-17T14:57:00Z</time>
      </trkpt>
      <trkpt lat="43.173333" lon="-4.626483">
        <ele>1589.0</ele>
        <time>2015-03-17T14:57:01Z</time>
      </trkpt>
      <trkpt lat="43.173267" lon="-4.626500">
        <ele>1589.0</ele>
        <time>2015-03-17T14:57:02Z</time>
      </trkpt>
      <trkpt lat="43.173200" lon="-4.626533">
        <ele>1589.0</ele>
        <time>2015-03-17T14:57:03Z</time>
      </trkpt>
      <trkpt lat="43.173133" lon="-4.626567">
        <ele>1588.0</ele>
        <time>2015-03-17T14:57:04Z</time>
      </trkpt>
      <trkpt lat="43.173050" lon="-4.626617">
        <ele>1588.0</ele>
        <time>2015-03-17T14:57:05Z</time>
      </trkpt>
      <trkpt lat="43.172983" lon="-4.626650">
        <ele>1587.0</ele>
        <time>2015-03-17T14:57:06Z</time>
      </trkpt>
      <trkpt lat="43.172933" lon="-4.626683">
        <ele>1586.0</ele>
        <time>2015-03-17T14:57:07Z</time>
      </trkpt>
      <trkpt lat="43.172867" lon="-4.626717">
        <ele>1585.0</ele>
        <time>2015-03-17T14:57:08Z</time>
      </trkpt>
      <trkpt lat="43.172800" lon="-4.626733">
        <ele>1584.0</ele>
        <time>2015-03-17T14:57:09Z</time>
      </trkpt>
      <trkpt lat="43.172733" lon="-4.626750">
        <ele>1583.0</ele>
        <time>2015-03-17T14:57:10Z</time>
      </trkpt>
      <trkpt lat="43.172667" lon="-4.626750">
        <ele>1583.0</ele>
        <time>2015-03-17T14:57:11Z</time>
      </trkpt>
      <trkpt lat="43.172583" lon="-4.626767">
        <ele>1582.0</ele>
        <time>2015-03-17T14:57:12Z</time>
      </trkpt>
      <trkpt lat="43.172500" lon="-4.626800">
        <ele>1581.0</ele>
        <time>2015-03-17T14:57:13Z</time>
      </trkpt>
      <trkpt lat="43.172417" lon="-4.626833">
        <ele>1580.0</ele>
        <time>2015-03-17T14:57:14Z</time>
      </trkpt>
      <trkpt lat="43.172367" lon="-4.626850">
        <ele>1580.0</ele>
        <time>2015-03-17T14:57:15Z</time>
      </trkpt>
      <trkpt lat="43.172283" lon="-4.626883">
        <ele>1579.0</ele>
        <time>2015-03-17T14:57:16Z</time>
      </trkpt>
      <trkpt lat="43.172217" lon="-4.626900">
        <ele>1578.0</ele>
        <time>2015-03-17T14:57:17Z</time>
      </trkpt>
      <trkpt lat="43.172133" lon="-4.626917">
        <ele>1577.0</ele>
        <time>2015-03-17T14:57:18Z</time>
      </trkpt>
      <trkpt lat="43.172067" lon="-4.626950">
        <ele>1576.0</ele>
        <time>2015-03-17T14:57:19Z</time>
      </trkpt>
      <trkpt lat="43.171983" lon="-4.626983">
        <ele>1575.0</ele>
        <time>2015-03-17T14:57:20Z</time>
      </trkpt>
      <trkpt lat="43.171900" lon="-4.627017">
        <ele>1573.0</ele>
        <time>2015-03-17T14:57:21Z</time>
      </trkpt>
      <trkpt lat="43.171833" lon="-4.627050">
        <ele>1571.0</ele>
        <time>2015-03-17T14:57:22Z</time>
      </trkpt>
      <trkpt lat="43.171767" lon="-4.627067">
        <ele>1571.0</ele>
        <time>2015-03-17T14:57:23Z</time>
      </trkpt>
      <trkpt lat="43.171700" lon="-4.627083">
        <ele>1570.0</ele>
        <time>2015-03-17T14:57:24Z</time>
      </trkpt>
      <trkpt lat="43.171633" lon="-4.627117">
        <ele>1569.0</ele>
        <time>2015-03-17T14:57:25Z</time>
      </trkpt>
      <trkpt lat="43.171550" lon="-4.627133">
        <ele>1568.0</ele>
        <time>2015-03-17T14:57:26Z</time>
      </trkpt>
      <trkpt lat="43.171450" lon="-4.627167">
        <ele>1567.0</ele>
        <time>2015-03-17T14:57:27Z</time>
      </trkpt>
      <trkpt lat="43.171350" lon="-4.627183">
        <ele>1564.0</ele>
        <time>2015-03-17T14:57:28Z</time>
      </trkpt>
      <trkpt lat="43.171267" lon="-4.627200">
        <ele>1562.0</ele>
        <time>2015-03-17T14:57:29Z</time>
      </trkpt>
      <trkpt lat="43.171183" lon="-4.627200">
        <ele>1559.0</ele>
        <time>2015-03-17T14:57:30Z</time>
      </trkpt>
      <trkpt lat="43.171100" lon="-4.627183">
        <ele>1557.0</ele>
        <time>2015-03-17T14:57:31Z</time>
      </trkpt>
      <trkpt lat="43.171017" lon="-4.627150">
        <ele>1557.0</ele>
        <time>2015-03-17T14:57:32Z</time>
      </trkpt>
      <trkpt lat="43.170950" lon="-4.627133">
        <ele>1555.0</ele>
        <time>2015-03-17T14:57:33Z</time>
      </trkpt>
      <trkpt lat="43.170867" lon="-4.627117">
        <ele>1553.0</ele>
        <time>2015-03-17T14:57:34Z</time>
      </trkpt>
      <trkpt lat="43.170800" lon="-4.627083">
        <ele>1552.0</ele>
        <time>2015-03-17T14:57:35Z</time>
      </trkpt>
      <trkpt lat="43.170717" lon="-4.627050">
        <ele>1551.0</ele>
        <time>2015-03-17T14:57:36Z</time>
      </trkpt>
      <trkpt lat="43.170650" lon="-4.627017">
        <ele>1548.0</ele>
        <time>2015-03-17T14:57:37Z</time>
      </trkpt>
      <trkpt lat="43.170583" lon="-4.626967">
        <ele>1545.0</ele>
        <time>2015-03-17T14:57:38Z</time>
      </trkpt>
      <trkpt lat="43.170500" lon="-4.626933">
        <ele>1544.0</ele>
        <time>2015-03-17T14:57:39Z</time>
      </trkpt>
      <trkpt lat="43.170433" lon="-4.626900">
        <ele>1541.0</ele>
        <time>2015-03-17T14:57:40Z</time>
      </trkpt>
      <trkpt lat="43.170367" lon="-4.626867">
        <ele>1539.0</ele>
        <time>2015-03-17T14:57:41Z</time>
      </trkpt>
      <trkpt lat="43.170283" lon="-4.626833">
        <ele>1537.0</ele>
        <time>2015-03-17T14:57:42Z</time>
      </trkpt>
      <trkpt lat="43.170217" lon="-4.626783">
        <ele>1534.0</ele>
        <time>2015-03-17T14:57:43Z</time>
      </trkpt>
      <trkpt lat="43.170150" lon="-4.626750">
        <ele>1532.0</ele>
        <time>2015-03-17T14:57:44Z</time>
      </trkpt>
      <trkpt lat="43.170083" lon="-4.626717">
        <ele>1529.0</ele>
        <time>2015-03-17T14:57:45Z</time>
      </trkpt>
      <trkpt lat="43.170017" lon="-4.626683">
        <ele>1526.0</ele>
        <time>2015-03-17T14:57:46Z</time>
      </trkpt>
      <trkpt lat="43.169950" lon="-4.626633">
        <ele>1523.0</ele>
        <time>2015-03-17T14:57:47Z</time>
      </trkpt>
      <trkpt lat="43.169883" lon="-4.626600">
        <ele>1520.0</ele>
        <time>2015-03-17T14:57:48Z</time>
      </trkpt>
      <trkpt lat="43.169817" lon="-4.626550">
        <ele>1517.0</ele>
        <time>2015-03-17T14:57:49Z</time>
      </trkpt>
      <trkpt lat="43.169750" lon="-4.626517">
        <ele>1514.0</ele>
        <time>2015-03-17T14:57:50Z</time>
      </trkpt>
      <trkpt lat="43.169683" lon="-4.626483">
        <ele>1511.0</ele>
        <time>2015-03-17T14:57:51Z</time>
      </trkpt>
      <trkpt lat="43.169617" lon="-4.626450">
        <ele>1508.0</ele>
        <time>2015-03-17T14:57:52Z</time>
      </trkpt>
      <trkpt lat="43.169550" lon="-4.626417">
        <ele>1505.0</ele>
        <time>2015-03-17T14:57:53Z</time>
      </trkpt>
      <trkpt lat="43.169483" lon="-4.626383">
        <ele>1502.0</ele>
        <time>2015-03-17T14:57:54Z</time>
      </trkpt>
      <trkpt lat="43.169417" lon="-4.626333">
        <ele>1499.0</ele>
        <time>2015-03-17T14:57:55Z</time>
      </trkpt>
      <trkpt lat="43.169333" lon="-4.626300">
        <ele>1497.0</ele>
        <time>2015-03-17T14:57:56Z</time>
      </trkpt>
      <trkpt lat="43.169267" lon="-4.626267">
        <ele>1497.0</ele>
        <time>2015-03-17T14:57:57Z</time>
      </trkpt>
      <trkpt lat="43.169200" lon="-4.626217">
        <ele>1497.0</ele>
        <time>2015-03-17T14:57:58Z</time>
      </trkpt>
      <trkpt lat="43.169133" lon="-4.626183">
        <ele>1495.0</ele>
        <time>2015-03-17T14:57:59Z</time>
      </trkpt>
      <trkpt lat="43.169067" lon="-4.626117">
        <ele>1494.0</ele>
        <time>2015-03-17T14:58:00Z</time>
      </trkpt>
      <trkpt lat="43.169000" lon="-4.626050">
        <ele>1492.0</ele>
        <time>2015-03-17T14:58:01Z</time>
      </trkpt>
      <trkpt lat="43.168933" lon="-4.626000">
        <ele>1490.0</ele>
        <time>2015-03-17T14:58:02Z</time>
      </trkpt>
      <trkpt lat="43.168867" lon="-4.625933">
        <ele>1488.0</ele>
        <time>2015-03-17T14:58:03Z</time>
      </trkpt>
      <trkpt lat="43.168817" lon="-4.625883">
        <ele>1485.0</ele>
        <time>2015-03-17T14:58:04Z</time>
      </trkpt>
      <trkpt lat="43.168750" lon="-4.625817">
        <ele>1483.0</ele>
        <time>2015-03-17T14:58:05Z</time>
      </trkpt>
      <trkpt lat="43.168683" lon="-4.625750">
        <ele>1481.0</ele>
        <time>2015-03-17T14:58:06Z</time>
      </trkpt>
      <trkpt lat="43.168633" lon="-4.625683">
        <ele>1478.0</ele>
        <time>2015-03-17T14:58:07Z</time>
      </trkpt>
      <trkpt lat="43.168567" lon="-4.625600">
        <ele>1479.0</ele>
        <time>2015-03-17T14:58:08Z</time>
      </trkpt>
      <trkpt lat="43.168500" lon="-4.625533">
        <ele>1477.0</ele>
        <time>2015-03-17T14:58:09Z</time>
      </trkpt>
      <trkpt lat="43.168433" lon="-4.625467">
        <ele>1475.0</ele>
        <time>2015-03-17T14:58:10Z</time>
      </trkpt>
      <trkpt lat="43.168383" lon="-4.625400">
        <ele>1473.0</ele>
        <time>2015-03-17T14:58:11Z</time>
      </trkpt>
      <trkpt lat="43.168333" lon="-4.625317">
        <ele>1471.0</ele>
        <time>2015-03-17T14:58:12Z</time>
      </trkpt>
      <trkpt lat="43.168283" lon="-4.625233">
        <ele>1468.0</ele>
        <time>2015-03-17T14:58:13Z</time>
      </trkpt>
      <trkpt lat="43.168233" lon="-4.625150">
        <ele>1465.0</ele>
        <time>2015-03-17T14:58:14Z</time>
      </trkpt>
      <trkpt lat="43.168183" lon="-4.625083">
        <ele>1462.0</ele>
        <time>2015-03-17T14:58:15Z</time>
      </trkpt>
      <trkpt lat="43.168117" lon="-4.625017">
        <ele>1459.0</ele>
        <time>2015-03-17T14:58:16Z</time>
      </trkpt>
      <trkpt lat="43.168083" lon="-4.624933">
        <ele>1456.0</ele>
        <time>2015-03-17T14:58:17Z</time>
      </trkpt>
      <trkpt lat="43.168050" lon="-4.624850">
        <ele>1453.0</ele>
        <time>2015-03-17T14:58:18Z</time>
      </trkpt>
      <trkpt lat="43.168017" lon="-4.624767">
        <ele>1450.0</ele>
        <time>2015-03-17T14:58:19Z</time>
      </trkpt>
      <trkpt lat="43.167967" lon="-4.624650">
        <ele>1446.0</ele>
        <time>2015-03-17T14:58:20Z</time>
      </trkpt>
      <trkpt lat="43.167917" lon="-4.624550">
        <ele>1442.0</ele>
        <time>2015-03-17T14:58:21Z</time>
      </trkpt>
      <trkpt lat="43.167850" lon="-4.624450">
        <ele>1440.0</ele>
        <time>2015-03-17T14:58:22Z</time>
      </trkpt>
      <trkpt lat="43.167783" lon="-4.624350">
        <ele>1443.0</ele>
        <time>2015-03-17T14:58:23Z</time>
      </trkpt>
      <trkpt lat="43.167717" lon="-4.624300">
        <ele>1443.0</ele>
        <time>2015-03-17T14:58:24Z</time>
      </trkpt>
      <trkpt lat="43.167683" lon="-4.624267">
        <ele>1444.0</ele>
        <time>2015-03-17T14:58:25Z</time>
      </trkpt>
      <trkpt lat="43.167667" lon="-4.624233">
        <ele>1443.0</ele>
        <time>2015-03-17T14:58:26Z</time>
      </trkpt>
      <trkpt lat="43.167667" lon="-4.624183">
        <ele>1442.0</ele>
        <time>2015-03-17T14:58:27Z</time>
      </trkpt>
      <trkpt lat="43.167633" lon="-4.624117">
        <ele>1439.0</ele>
        <time>2015-03-17T14:58:28Z</time>
      </trkpt>
      <trkpt lat="43.167583" lon="-4.624050">
        <ele>1436.0</ele>
        <time>2015-03-17T14:58:29Z</time>
      </trkpt>
      <trkpt lat="43.167533" lon="-4.623967">
        <ele>1433.0</ele>
        <time>2015-03-17T14:58:30Z</time>
      </trkpt>
      <trkpt lat="43.167483" lon="-4.623900">
        <ele>1432.0</ele>
        <time>2015-03-17T14:58:31Z</time>
      </trkpt>
      <trkpt lat="43.167433" lon="-4.623817">
        <ele>1431.0</ele>
        <time>2015-03-17T14:58:32Z</time>
      </trkpt>
      <trkpt lat="43.167367" lon="-4.623767">
        <ele>1430.0</ele>
        <time>2015-03-17T14:58:33Z</time>
      </trkpt>
      <trkpt lat="43.167317" lon="-4.623700">
        <ele>1430.0</ele>
        <time>2015-03-17T14:58:34Z</time>
      </trkpt>
      <trkpt lat="43.167267" lon="-4.623633">
        <ele>1429.0</ele>
        <time>2015-03-17T14:58:35Z</time>
      </trkpt>
      <trkpt lat="43.167217" lon="-4.623567">
        <ele>1428.0</ele>
        <time>2015-03-17T14:58:36Z</time>
      </trkpt>
      <trkpt lat="43.167167" lon="-4.623500">
        <ele>1427.0</ele>
        <time>2015-03-17T14:58:37Z</time>
      </trkpt>
      <trkpt lat="43.167117" lon="-4.623433">
        <ele>1426.0</ele>
        <time>2015-03-17T14:58:38Z</time>
      </trkpt>
      <trkpt lat="43.167067" lon="-4.623367">
        <ele>1425.0</ele>
        <time>2015-03-17T14:58:39Z</time>
      </trkpt>
      <trkpt lat="43.167017" lon="-4.623300">
        <ele>1424.0</ele>
        <time>2015-03-17T14:58:40Z</time>
      </trkpt>
      <trkpt lat="43.166967" lon="-4.623233">
        <ele>1423.0</ele>
        <time>2015-03-17T14:58:41Z</time>
      </trkpt>
      <trkpt lat="43.166917" lon="-4.623167">
        <ele>1422.0</ele>
        <time>2015-03-17T14:58:42Z</time>
      </trkpt>
      <trkpt lat="43.166867" lon="-4.623100">
        <ele>1420.0</ele>
        <time>2015-03-17T14:58:43Z</time>
      </trkpt>
      <trkpt lat="43.166800" lon="-4.623050">
        <ele>1419.0</ele>
        <time>2015-03-17T14:58:44Z</time>
      </trkpt>
      <trkpt lat="43.166750" lon="-4.623000">
        <ele>1418.0</ele>
        <time>2015-03-17T14:58:45Z</time>
      </trkpt>
      <trkpt lat="43.166683" lon="-4.622950">
        <ele>1416.0</ele>
        <time>2015-03-17T14:58:46Z</time>
      </trkpt>
      <trkpt lat="43.166633" lon="-4.622900">
        <ele>1415.0</ele>
        <time>2015-03-17T14:58:47Z</time>
      </trkpt>
      <trkpt lat="43.166567" lon="-4.622850">
        <ele>1414.0</ele>
        <time>2015-03-17T14:58:48Z</time>
      </trkpt>
      <trkpt lat="43.166517" lon="-4.622800">
        <ele>1413.0</ele>
        <time>2015-03-17T14:58:49Z</time>
      </trkpt>
      <trkpt lat="43.166467" lon="-4.622750">
        <ele>1411.0</ele>
        <time>2015-03-17T14:58:50Z</time>
      </trkpt>
      <trkpt lat="43.166400" lon="-4.622700">
        <ele>1410.0</ele>
        <time>2015-03-17T14:58:51Z</time>
      </trkpt>
      <trkpt lat="43.166350" lon="-4.622650">
        <ele>1408.0</ele>
        <time>2015-03-17T14:58:52Z</time>
      </trkpt>
      <trkpt lat="43.166283" lon="-4.622600">
        <ele>1406.0</ele>
        <time>2015-03-17T14:58:53Z</time>
      </trkpt>
      <trkpt lat="43.166217" lon="-4.622533">
        <ele>1404.0</ele>
        <time>2015-03-17T14:58:54Z</time>
      </trkpt>
      <trkpt lat="43.166167" lon="-4.622467">
        <ele>1403.0</ele>
        <time>2015-03-17T14:58:55Z</time>
      </trkpt>
      <trkpt lat="43.166117" lon="-4.622400">
        <ele>1402.0</ele>
        <time>2015-03-17T14:58:56Z</time>
      </trkpt>
      <trkpt lat="43.166067" lon="-4.622317">
        <ele>1400.0</ele>
        <time>2015-03-17T14:58:57Z</time>
      </trkpt>
      <trkpt lat="43.166017" lon="-4.622233">
        <ele>1399.0</ele>
        <time>2015-03-17T14:58:58Z</time>
      </trkpt>
      <trkpt lat="43.165983" lon="-4.622150">
        <ele>1398.0</ele>
        <time>2015-03-17T14:58:59Z</time>
      </trkpt>
      <trkpt lat="43.165933" lon="-4.622067">
        <ele>1395.0</ele>
        <time>2015-03-17T14:59:00Z</time>
      </trkpt>
      <trkpt lat="43.165900" lon="-4.621967">
        <ele>1393.0</ele>
        <time>2015-03-17T14:59:01Z</time>
      </trkpt>
      <trkpt lat="43.165850" lon="-4.621867">
        <ele>1391.0</ele>
        <time>2015-03-17T14:59:02Z</time>
      </trkpt>
      <trkpt lat="43.165800" lon="-4.621750">
        <ele>1389.0</ele>
        <time>2015-03-17T14:59:03Z</time>
      </trkpt>
      <trkpt lat="43.165750" lon="-4.621633">
        <ele>1387.0</ele>
        <time>2015-03-17T14:59:04Z</time>
      </trkpt>
      <trkpt lat="43.165717" lon="-4.621533">
        <ele>1387.0</ele>
        <time>2015-03-17T14:59:05Z</time>
      </trkpt>
      <trkpt lat="43.165683" lon="-4.621417">
        <ele>1386.0</ele>
        <time>2015-03-17T14:59:06Z</time>
      </trkpt>
      <trkpt lat="43.165667" lon="-4.621317">
        <ele>1386.0</ele>
        <time>2015-03-17T14:59:07Z</time>
      </trkpt>
      <trkpt lat="43.165633" lon="-4.621200">
        <ele>1386.0</ele>
        <time>2015-03-17T14:59:08Z</time>
      </trkpt>
      <trkpt lat="43.165600" lon="-4.621117">
        <ele>1386.0</ele>
        <time>2015-03-17T14:59:09Z</time>
      </trkpt>
      <trkpt lat="43.165533" lon="-4.621050">
        <ele>1385.0</ele>
        <time>2015-03-17T14:59:10Z</time>
      </trkpt>
      <trkpt lat="43.165467" lon="-4.621000">
        <ele>1383.0</ele>
        <time>2015-03-17T14:59:11Z</time>
      </trkpt>
      <trkpt lat="43.165400" lon="-4.620933">
        <ele>1381.0</ele>
        <time>2015-03-17T14:59:12Z</time>
      </trkpt>
      <trkpt lat="43.165333" lon="-4.620850">
        <ele>1379.0</ele>
        <time>2015-03-17T14:59:13Z</time>
      </trkpt>
      <trkpt lat="43.165250" lon="-4.620783">
        <ele>1379.0</ele>
        <time>2015-03-17T14:59:14Z</time>
      </trkpt>
      <trkpt lat="43.165183" lon="-4.620717">
        <ele>1378.0</ele>
        <time>2015-03-17T14:59:15Z</time>
      </trkpt>
      <trkpt lat="43.165133" lon="-4.620650">
        <ele>1378.0</ele>
        <time>2015-03-17T14:59:16Z</time>
      </trkpt>
      <trkpt lat="43.165083" lon="-4.620600">
        <ele>1379.0</ele>
        <time>2015-03-17T14:59:17Z</time>
      </trkpt>
      <trkpt lat="43.165033" lon="-4.620550">
        <ele>1379.0</ele>
        <time>2015-03-17T14:59:18Z</time>
      </trkpt>
      <trkpt lat="43.164983" lon="-4.620517">
        <ele>1379.0</ele>
        <time>2015-03-17T14:59:19Z</time>
      </trkpt>
      <trkpt lat="43.164933" lon="-4.620467">
        <ele>1378.0</ele>
        <time>2015-03-17T14:59:20Z</time>
      </trkpt>
      <trkpt lat="43.164867" lon="-4.620417">
        <ele>1377.0</ele>
        <time>2015-03-17T14:59:21Z</time>
      </trkpt>
      <trkpt lat="43.164817" lon="-4.620367">
        <ele>1376.0</ele>
        <time>2015-03-17T14:59:22Z</time>
      </trkpt>
      <trkpt lat="43.164750" lon="-4.620333">
        <ele>1375.0</ele>
        <time>2015-03-17T14:59:23Z</time>
      </trkpt>
      <trkpt lat="43.164683" lon="-4.620283">
        <ele>1374.0</ele>
        <time>2015-03-17T14:59:24Z</time>
      </trkpt>
      <trkpt lat="43.164617" lon="-4.620250">
        <ele>1374.0</ele>
        <time>2015-03-17T14:59:25Z</time>
      </trkpt>
      <trkpt lat="43.164550" lon="-4.620217">
        <ele>1374.0</ele>
        <time>2015-03-17T14:59:26Z</time>
      </trkpt>
      <trkpt lat="43.164483" lon="-4.620200">
        <ele>1373.0</ele>
        <time>2015-03-17T14:59:27Z</time>
      </trkpt>
      <trkpt lat="43.164417" lon="-4.620167">
        <ele>1372.0</ele>
        <time>2015-03-17T14:59:28Z</time>
      </trkpt>
      <trkpt lat="43.164350" lon="-4.620133">
        <ele>1371.0</ele>
        <time>2015-03-17T14:59:29Z</time>
      </trkpt>
      <trkpt lat="43.164283" lon="-4.620083">
        <ele>1370.0</ele>
        <time>2015-03-17T14:59:30Z</time>
      </trkpt>
      <trkpt lat="43.164217" lon="-4.620050">
        <ele>1369.0</ele>
        <time>2015-03-17T14:59:31Z</time>
      </trkpt>
      <trkpt lat="43.164150" lon="-4.620017">
        <ele>1369.0</ele>
        <time>2015-03-17T14:59:32Z</time>
      </trkpt>
      <trkpt lat="43.164100" lon="-4.620000">
        <ele>1369.0</ele>
        <time>2015-03-17T14:59:33Z</time>
      </trkpt>
      <trkpt lat="43.164033" lon="-4.619983">
        <ele>1368.0</ele>
        <time>2015-03-17T14:59:34Z</time>
      </trkpt>
      <trkpt lat="43.163983" lon="-4.619967">
        <ele>1368.0</ele>
        <time>2015-03-17T14:59:35Z</time>
      </trkpt>
      <trkpt lat="43.163917" lon="-4.619950">
        <ele>1367.0</ele>
        <time>2015-03-17T14:59:36Z</time>
      </trkpt>
      <trkpt lat="43.163850" lon="-4.619917">
        <ele>1365.0</ele>
        <time>2015-03-17T14:59:37Z</time>
      </trkpt>
      <trkpt lat="43.163783" lon="-4.619900">
        <ele>1363.0</ele>
        <time>2015-03-17T14:59:38Z</time>
      </trkpt>
      <trkpt lat="43.163700" lon="-4.619883">
        <ele>1363.0</ele>
        <time>2015-03-17T14:59:39Z</time>
      </trkpt>
      <trkpt lat="43.163633" lon="-4.619867">
        <ele>1363.0</ele>
        <time>2015-03-17T14:59:40Z</time>
      </trkpt>
      <trkpt lat="43.163567" lon="-4.619867">
        <ele>1363.0</ele>
        <time>2015-03-17T14:59:41Z</time>
      </trkpt>
      <trkpt lat="43.163500" lon="-4.619867">
        <ele>1363.0</ele>
        <time>2015-03-17T14:59:42Z</time>
      </trkpt>
      <trkpt lat="43.163433" lon="-4.619867">
        <ele>1362.0</ele>
        <time>2015-03-17T14:59:43Z</time>
      </trkpt>
      <trkpt lat="43.163367" lon="-4.619850">
        <ele>1362.0</ele>
        <time>2015-03-17T14:59:44Z</time>
      </trkpt>
      <trkpt lat="43.163283" lon="-4.619850">
        <ele>1361.0</ele>
        <time>2015-03-17T14:59:45Z</time>
      </trkpt>
      <trkpt lat="43.163217" lon="-4.619850">
        <ele>1361.0</ele>
        <time>2015-03-17T14:59:46Z</time>
      </trkpt>
      <trkpt lat="43.163150" lon="-4.619850">
        <ele>1361.0</ele>
        <time>2015-03-17T14:59:47Z</time>
      </trkpt>
      <trkpt lat="43.163067" lon="-4.619833">
        <ele>1361.0</ele>
        <time>2015-03-17T14:59:48Z</time>
      </trkpt>
      <trkpt lat="43.163000" lon="-4.619833">
        <ele>1361.0</ele>
        <time>2015-03-17T14:59:49Z</time>
      </trkpt>
      <trkpt lat="43.162933" lon="-4.619817">
        <ele>1361.0</ele>
        <time>2015-03-17T14:59:50Z</time>
      </trkpt>
      <trkpt lat="43.162867" lon="-4.619817">
        <ele>1360.0</ele>
        <time>2015-03-17T14:59:51Z</time>
      </trkpt>
      <trkpt lat="43.162800" lon="-4.619800">
        <ele>1359.0</ele>
        <time>2015-03-17T14:59:52Z</time>
      </trkpt>
      <trkpt lat="43.162733" lon="-4.619800">
        <ele>1358.0</ele>
        <time>2015-03-17T14:59:53Z</time>
      </trkpt>
      <trkpt lat="43.162667" lon="-4.619817">
        <ele>1357.0</ele>
        <time>2015-03-17T14:59:54Z</time>
      </trkpt>
      <trkpt lat="43.162600" lon="-4.619817">
        <ele>1356.0</ele>
        <time>2015-03-17T14:59:55Z</time>
      </trkpt>
      <trkpt lat="43.162533" lon="-4.619833">
        <ele>1357.0</ele>
        <time>2015-03-17T14:59:56Z</time>
      </trkpt>
      <trkpt lat="43.162467" lon="-4.619850">
        <ele>1356.0</ele>
        <time>2015-03-17T14:59:57Z</time>
      </trkpt>
      <trkpt lat="43.162417" lon="-4.619850">
        <ele>1356.0</ele>
        <time>2015-03-17T14:59:58Z</time>
      </trkpt>
      <trkpt lat="43.162367" lon="-4.619867">
        <ele>1355.0</ele>
        <time>2015-03-17T14:59:59Z</time>
      </trkpt>
      <trkpt lat="43.162300" lon="-4.619883">
        <ele>1355.0</ele>
        <time>2015-03-17T15:00:00Z</time>
      </trkpt>
      <trkpt lat="43.162233" lon="-4.619900">
        <ele>1353.0</ele>
        <time>2015-03-17T15:00:01Z</time>
      </trkpt>
      <trkpt lat="43.162167" lon="-4.619933">
        <ele>1352.0</ele>
        <time>2015-03-17T15:00:02Z</time>
      </trkpt>
      <trkpt lat="43.162100" lon="-4.619950">
        <ele>1352.0</ele>
        <time>2015-03-17T15:00:03Z</time>
      </trkpt>
      <trkpt lat="43.162033" lon="-4.619967">
        <ele>1351.0</ele>
        <time>2015-03-17T15:00:04Z</time>
      </trkpt>
      <trkpt lat="43.161967" lon="-4.619983">
        <ele>1351.0</ele>
        <time>2015-03-17T15:00:05Z</time>
      </trkpt>
      <trkpt lat="43.161917" lon="-4.620017">
        <ele>1351.0</ele>
        <time>2015-03-17T15:00:06Z</time>
      </trkpt>
      <trkpt lat="43.161850" lon="-4.620033">
        <ele>1350.0</ele>
        <time>2015-03-17T15:00:07Z</time>
      </trkpt>
      <trkpt lat="43.161783" lon="-4.620067">
        <ele>1350.0</ele>
        <time>2015-03-17T15:00:08Z</time>
      </trkpt>
      <trkpt lat="43.161717" lon="-4.620117">
        <ele>1349.0</ele>
        <time>2015-03-17T15:00:09Z</time>
      </trkpt>
      <trkpt lat="43.161650" lon="-4.620150">
        <ele>1348.0</ele>
        <time>2015-03-17T15:00:10Z</time>
      </trkpt>
      <trkpt lat="43.161583" lon="-4.620200">
        <ele>1347.0</ele>
        <time>2015-03-17T15:00:11Z</time>
      </trkpt>
      <trkpt lat="43.161533" lon="-4.620233">
        <ele>1346.0</ele>
        <time>2015-03-17T15:00:12Z</time>
      </trkpt>
      <trkpt lat="43.161483" lon="-4.620283">
        <ele>1346.0</ele>
        <time>2015-03-17T15:00:13Z</time>
      </trkpt>
      <trkpt lat="43.161417" lon="-4.620333">
        <ele>1344.0</ele>
        <time>2015-03-17T15:00:14Z</time>
      </trkpt>
      <trkpt lat="43.161350" lon="-4.620383">
        <ele>1343.0</ele>
        <time>2015-03-17T15:00:15Z</time>
      </trkpt>
      <trkpt lat="43.161300" lon="-4.620417">
        <ele>1342.0</ele>
        <time>2015-03-17T15:00:16Z</time>
      </trkpt>
      <trkpt lat="43.161233" lon="-4.620467">
        <ele>1341.0</ele>
        <time>2015-03-17T15:00:17Z</time>
      </trkpt>
      <trkpt lat="43.161167" lon="-4.620500">
        <ele>1340.0</ele>
        <time>2015-03-17T15:00:18Z</time>
      </trkpt>
      <trkpt lat="43.161100" lon="-4.620533">
        <ele>1339.0</ele>
        <time>2015-03-17T15:00:19Z</time>
      </trkpt>
      <trkpt lat="43.161017" lon="-4.620583">
        <ele>1337.0</ele>
        <time>2015-03-17T15:00:20Z</time>
      </trkpt>
      <trkpt lat="43.160933" lon="-4.620617">
        <ele>1336.0</ele>
        <time>2015-03-17T15:00:21Z</time>
      </trkpt>
      <trkpt lat="43.160867" lon="-4.620667">
        <ele>1335.0</ele>
        <time>2015-03-17T15:00:22Z</time>
      </trkpt>
      <trkpt lat="43.160783" lon="-4.620683">
        <ele>1333.0</ele>
        <time>2015-03-17T15:00:23Z</time>
      </trkpt>
      <trkpt lat="43.160733" lon="-4.620700">
        <ele>1333.0</ele>
        <time>2015-03-17T15:00:24Z</time>
      </trkpt>
      <trkpt lat="43.160667" lon="-4.620717">
        <ele>1333.0</ele>
        <time>2015-03-17T15:00:25Z</time>
      </trkpt>
      <trkpt lat="43.160583" lon="-4.620750">
        <ele>1332.0</ele>
        <time>2015-03-17T15:00:26Z</time>
      </trkpt>
      <trkpt lat="43.160517" lon="-4.620767">
        <ele>1332.0</ele>
        <time>2015-03-17T15:00:27Z</time>
      </trkpt>
      <trkpt lat="43.160433" lon="-4.620800">
        <ele>1331.0</ele>
        <time>2015-03-17T15:00:28Z</time>
      </trkpt>
      <trkpt lat="43.160350" lon="-4.620833">
        <ele>1330.0</ele>
        <time>2015-03-17T15:00:29Z</time>
      </trkpt>
      <trkpt lat="43.160283" lon="-4.620850">
        <ele>1329.0</ele>
        <time>2015-03-17T15:00:30Z</time>
      </trkpt>
      <trkpt lat="43.160183" lon="-4.620900">
        <ele>1328.0</ele>
        <time>2015-03-17T15:00:31Z</time>
      </trkpt>
      <trkpt lat="43.160083" lon="-4.620967">
        <ele>1327.0</ele>
        <time>2015-03-17T15:00:32Z</time>
      </trkpt>
      <trkpt lat="43.160017" lon="-4.621033">
        <ele>1326.0</ele>
        <time>2015-03-17T15:00:33Z</time>
      </trkpt>
      <trkpt lat="43.159950" lon="-4.621117">
        <ele>1325.0</ele>
        <time>2015-03-17T15:00:34Z</time>
      </trkpt>
      <trkpt lat="43.159867" lon="-4.621200">
        <ele>1324.0</ele>
        <time>2015-03-17T15:00:35Z</time>
      </trkpt>
      <trkpt lat="43.159817" lon="-4.621267">
        <ele>1322.0</ele>
        <time>2015-03-17T15:00:36Z</time>
      </trkpt>
      <trkpt lat="43.159733" lon="-4.621333">
        <ele>1320.0</ele>
        <time>2015-03-17T15:00:37Z</time>
      </trkpt>
      <trkpt lat="43.159667" lon="-4.621400">
        <ele>1319.0</ele>
        <time>2015-03-17T15:00:38Z</time>
      </trkpt>
      <trkpt lat="43.159600" lon="-4.621467">
        <ele>1317.0</ele>
        <time>2015-03-17T15:00:39Z</time>
      </trkpt>
      <trkpt lat="43.159533" lon="-4.621533">
        <ele>1315.0</ele>
        <time>2015-03-17T15:00:40Z</time>
      </trkpt>
      <trkpt lat="43.159467" lon="-4.621583">
        <ele>1313.0</ele>
        <time>2015-03-17T15:00:41Z</time>
      </trkpt>
      <trkpt lat="43.159400" lon="-4.621633">
        <ele>1311.0</ele>
        <time>2015-03-17T15:00:42Z</time>
      </trkpt>
      <trkpt lat="43.159317" lon="-4.621700">
        <ele>1308.0</ele>
        <time>2015-03-17T15:00:43Z</time>
      </trkpt>
      <trkpt lat="43.159250" lon="-4.621767">
        <ele>1305.0</ele>
        <time>2015-03-17T15:00:44Z</time>
      </trkpt>
      <trkpt lat="43.159167" lon="-4.621833">
        <ele>1303.0</ele>
        <time>2015-03-17T15:00:45Z</time>
      </trkpt>
      <trkpt lat="43.159100" lon="-4.621917">
        <ele>1303.0</ele>
        <time>2015-03-17T15:00:46Z</time>
      </trkpt>
      <trkpt lat="43.159033" lon="-4.621983">
        <ele>1301.0</ele>
        <time>2015-03-17T15:00:47Z</time>
      </trkpt>
      <trkpt lat="43.158967" lon="-4.622033">
        <ele>1299.0</ele>
        <time>2015-03-17T15:00:48Z</time>
      </trkpt>
      <trkpt lat="43.158900" lon="-4.622100">
        <ele>1297.0</ele>
        <time>2015-03-17T15:00:49Z</time>
      </trkpt>
      <trkpt lat="43.158833" lon="-4.622167">
        <ele>1295.0</ele>
        <time>2015-03-17T15:00:50Z</time>
      </trkpt>
      <trkpt lat="43.158767" lon="-4.622233">
        <ele>1292.0</ele>
        <time>2015-03-17T15:00:51Z</time>
      </trkpt>
      <trkpt lat="43.158683" lon="-4.622300">
        <ele>1290.0</ele>
        <time>2015-03-17T15:00:52Z</time>
      </trkpt>
      <trkpt lat="43.158617" lon="-4.622350">
        <ele>1288.0</ele>
        <time>2015-03-17T15:00:53Z</time>
      </trkpt>
      <trkpt lat="43.158550" lon="-4.622383">
        <ele>1288.0</ele>
        <time>2015-03-17T15:00:54Z</time>
      </trkpt>
      <trkpt lat="43.158483" lon="-4.622433">
        <ele>1287.0</ele>
        <time>2015-03-17T15:00:55Z</time>
      </trkpt>
      <trkpt lat="43.158383" lon="-4.622467">
        <ele>1285.0</ele>
        <time>2015-03-17T15:00:56Z</time>
      </trkpt>
      <trkpt lat="43.158300" lon="-4.622533">
        <ele>1282.0</ele>
        <time>2015-03-17T15:00:57Z</time>
      </trkpt>
      <trkpt lat="43.158233" lon="-4.622583">
        <ele>1281.0</ele>
        <time>2015-03-17T15:00:58Z</time>
      </trkpt>
      <trkpt lat="43.158150" lon="-4.622617">
        <ele>1280.0</ele>
        <time>2015-03-17T15:00:59Z</time>
      </trkpt>
      <trkpt lat="43.158067" lon="-4.622650">
        <ele>1279.0</ele>
        <time>2015-03-17T15:01:00Z</time>
      </trkpt>
      <trkpt lat="43.158000" lon="-4.622667">
        <ele>1278.0</ele>
        <time>2015-03-17T15:01:01Z</time>
      </trkpt>
      <trkpt lat="43.157917" lon="-4.622717">
        <ele>1277.0</ele>
        <time>2015-03-17T15:01:02Z</time>
      </trkpt>
      <trkpt lat="43.157850" lon="-4.622750">
        <ele>1277.0</ele>
        <time>2015-03-17T15:01:03Z</time>
      </trkpt>
      <trkpt lat="43.157783" lon="-4.622783">
        <ele>1276.0</ele>
        <time>2015-03-17T15:01:04Z</time>
      </trkpt>
      <trkpt lat="43.157700" lon="-4.622817">
        <ele>1275.0</ele>
        <time>2015-03-17T15:01:05Z</time>
      </trkpt>
      <trkpt lat="43.157633" lon="-4.622850">
        <ele>1273.0</ele>
        <time>2015-03-17T15:01:06Z</time>
      </trkpt>
      <trkpt lat="43.157550" lon="-4.622900">
        <ele>1273.0</ele>
        <time>2015-03-17T15:01:07Z</time>
      </trkpt>
      <trkpt lat="43.157483" lon="-4.622933">
        <ele>1272.0</ele>
        <time>2015-03-17T15:01:08Z</time>
      </trkpt>
      <trkpt lat="43.157400" lon="-4.622967">
        <ele>1271.0</ele>
        <time>2015-03-17T15:01:09Z</time>
      </trkpt>
      <trkpt lat="43.157333" lon="-4.623000">
        <ele>1270.0</ele>
        <time>2015-03-17T15:01:10Z</time>
      </trkpt>
      <trkpt lat="43.157250" lon="-4.623033">
        <ele>1269.0</ele>
        <time>2015-03-17T15:01:11Z</time>
      </trkpt>
      <trkpt lat="43.157167" lon="-4.623067">
        <ele>1268.0</ele>
        <time>2015-03-17T15:01:12Z</time>
      </trkpt>
      <trkpt lat="43.157083" lon="-4.623100">
        <ele>1266.0</ele>
        <time>2015-03-17T15:01:13Z</time>
      </trkpt>
      <trkpt lat="43.157017" lon="-4.623150">
        <ele>1266.0</ele>
        <time>2015-03-17T15:01:14Z</time>
      </trkpt>
      <trkpt lat="43.156950" lon="-4.623183">
        <ele>1265.0</ele>
        <time>2015-03-17T15:01:15Z</time>
      </trkpt>
      <trkpt lat="43.156883" lon="-4.623233">
        <ele>1265.0</ele>
        <time>2015-03-17T15:01:16Z</time>
      </trkpt>
      <trkpt lat="43.156800" lon="-4.623267">
        <ele>1264.0</ele>
        <time>2015-03-17T15:01:17Z</time>
      </trkpt>
      <trkpt lat="43.156733" lon="-4.623300">
        <ele>1263.0</ele>
        <time>2015-03-17T15:01:18Z</time>
      </trkpt>
      <trkpt lat="43.156683" lon="-4.623350">
        <ele>1263.0</ele>
        <time>2015-03-17T15:01:19Z</time>
      </trkpt>
      <trkpt lat="43.156617" lon="-4.623400">
        <ele>1262.0</ele>
        <time>2015-03-17T15:01:20Z</time>
      </trkpt>
      <trkpt lat="43.156567" lon="-4.623450">
        <ele>1261.0</ele>
        <time>2015-03-17T15:01:21Z</time>
      </trkpt>
      <trkpt lat="43.156500" lon="-4.623500">
        <ele>1261.0</ele>
        <time>2015-03-17T15:01:22Z</time>
      </trkpt>
      <trkpt lat="43.156417" lon="-4.623567">
        <ele>1260.0</ele>
        <time>2015-03-17T15:01:23Z</time>
      </trkpt>
      <trkpt lat="43.156350" lon="-4.623617">
        <ele>1260.0</ele>
        <time>2015-03-17T15:01:24Z</time>
      </trkpt>
      <trkpt lat="43.156283" lon="-4.623667">
        <ele>1259.0</ele>
        <time>2015-03-17T15:01:25Z</time>
      </trkpt>
      <trkpt lat="43.156200" lon="-4.623733">
        <ele>1259.0</ele>
        <time>2015-03-17T15:01:26Z</time>
      </trkpt>
      <trkpt lat="43.156150" lon="-4.623783">
        <ele>1258.0</ele>
        <time>2015-03-17T15:01:27Z</time>
      </trkpt>
      <trkpt lat="43.156083" lon="-4.623850">
        <ele>1257.0</ele>
        <time>2015-03-17T15:01:28Z</time>
      </trkpt>
      <trkpt lat="43.156033" lon="-4.623900">
        <ele>1256.0</ele>
        <time>2015-03-17T15:01:29Z</time>
      </trkpt>
      <trkpt lat="43.155967" lon="-4.623950">
        <ele>1255.0</ele>
        <time>2015-03-17T15:01:30Z</time>
      </trkpt>
      <trkpt lat="43.155917" lon="-4.624000">
        <ele>1255.0</ele>
        <time>2015-03-17T15:01:31Z</time>
      </trkpt>
      <trkpt lat="43.155833" lon="-4.624067">
        <ele>1254.0</ele>
        <time>2015-03-17T15:01:32Z</time>
      </trkpt>
      <trkpt lat="43.155767" lon="-4.624117">
        <ele>1253.0</ele>
        <time>2015-03-17T15:01:33Z</time>
      </trkpt>
      <trkpt lat="43.155717" lon="-4.624183">
        <ele>1253.0</ele>
        <time>2015-03-17T15:01:34Z</time>
      </trkpt>
      <trkpt lat="43.155667" lon="-4.624233">
        <ele>1252.0</ele>
        <time>2015-03-17T15:01:35Z</time>
      </trkpt>
      <trkpt lat="43.155617" lon="-4.624283">
        <ele>1252.0</ele>
        <time>2015-03-17T15:01:36Z</time>
      </trkpt>
      <trkpt lat="43.155550" lon="-4.624333">
        <ele>1251.0</ele>
        <time>2015-03-17T15:01:37Z</time>
      </trkpt>
      <trkpt lat="43.155500" lon="-4.624400">
        <ele>1250.0</ele>
        <time>2015-03-17T15:01:38Z</time>
      </trkpt>
      <trkpt lat="43.155433" lon="-4.624467">
        <ele>1250.0</ele>
        <time>2015-03-17T15:01:39Z</time>
      </trkpt>
      <trkpt lat="43.155383" lon="-4.624533">
        <ele>1249.0</ele>
        <time>2015-03-17T15:01:40Z</time>
      </trkpt>
      <trkpt lat="43.155317" lon="-4.624583">
        <ele>1249.0</ele>
        <time>2015-03-17T15:01:41Z</time>
      </trkpt>
      <trkpt lat="43.155267" lon="-4.624650">
        <ele>1248.0</ele>
        <time>2015-03-17T15:01:42Z</time>
      </trkpt>
      <trkpt lat="43.155200" lon="-4.624717">
        <ele>1248.0</ele>
        <time>2015-03-17T15:01:43Z</time>
      </trkpt>
      <trkpt lat="43.155150" lon="-4.624783">
        <ele>1248.0</ele>
        <time>2015-03-17T15:01:44Z</time>
      </trkpt>
      <trkpt lat="43.155067" lon="-4.624867">
        <ele>1247.0</ele>
        <time>2015-03-17T15:01:45Z</time>
      </trkpt>
      <trkpt lat="43.155017" lon="-4.624950">
        <ele>1246.0</ele>
        <time>2015-03-17T15:01:46Z</time>
      </trkpt>
      <trkpt lat="43.154950" lon="-4.625017">
        <ele>1245.0</ele>
        <time>2015-03-17T15:01:47Z</time>
      </trkpt>
      <trkpt lat="43.154900" lon="-4.625083">
        <ele>1245.0</ele>
        <time>2015-03-17T15:01:48Z</time>
      </trkpt>
      <trkpt lat="43.154833" lon="-4.625167">
        <ele>1244.0</ele>
        <time>2015-03-17T15:01:49Z</time>
      </trkpt>
      <trkpt lat="43.154750" lon="-4.625233">
        <ele>1243.0</ele>
        <time>2015-03-17T15:01:50Z</time>
      </trkpt>
      <trkpt lat="43.154683" lon="-4.625300">
        <ele>1242.0</ele>
        <time>2015-03-17T15:01:51Z</time>
      </trkpt>
      <trkpt lat="43.154600" lon="-4.625367">
        <ele>1241.0</ele>
        <time>2015-03-17T15:01:52Z</time>
      </trkpt>
      <trkpt lat="43.154533" lon="-4.625417">
        <ele>1240.0</ele>
        <time>2015-03-17T15:01:53Z</time>
      </trkpt>
      <trkpt lat="43.154467" lon="-4.625483">
        <ele>1238.0</ele>
        <time>2015-03-17T15:01:54Z</time>
      </trkpt>
      <trkpt lat="43.154417" lon="-4.625567">
        <ele>1236.0</ele>
        <time>2015-03-17T15:01:55Z</time>
      </trkpt>
      <trkpt lat="43.154350" lon="-4.625650">
        <ele>1236.0</ele>
        <time>2015-03-17T15:01:56Z</time>
      </trkpt>
      <trkpt lat="43.154267" lon="-4.625717">
        <ele>1235.0</ele>
        <time>2015-03-17T15:01:57Z</time>
      </trkpt>
      <trkpt lat="43.154183" lon="-4.625767">
        <ele>1234.0</ele>
        <time>2015-03-17T15:01:58Z</time>
      </trkpt>
      <trkpt lat="43.154100" lon="-4.625800">
        <ele>1233.0</ele>
        <time>2015-03-17T15:01:59Z</time>
      </trkpt>
      <trkpt lat="43.154017" lon="-4.625833">
        <ele>1231.0</ele>
        <time>2015-03-17T15:02:00Z</time>
      </trkpt>
      <trkpt lat="43.153950" lon="-4.625867">
        <ele>1229.0</ele>
        <time>2015-03-17T15:02:01Z</time>
      </trkpt>
      <trkpt lat="43.153867" lon="-4.625917">
        <ele>1229.0</ele>
        <time>2015-03-17T15:02:02Z</time>
      </trkpt>
      <trkpt lat="43.153800" lon="-4.625967">
        <ele>1229.0</ele>
        <time>2015-03-17T15:02:03Z</time>
      </trkpt>
      <trkpt lat="43.153717" lon="-4.626000">
        <ele>1228.0</ele>
        <time>2015-03-17T15:02:04Z</time>
      </trkpt>
      <trkpt lat="43.153633" lon="-4.626050">
        <ele>1228.0</ele>
        <time>2015-03-17T15:02:05Z</time>
      </trkpt>
      <trkpt lat="43.153600" lon="-4.626083">
        <ele>1227.0</ele>
        <time>2015-03-17T15:02:06Z</time>
      </trkpt>
      <trkpt lat="43.153533" lon="-4.626133">
        <ele>1226.0</ele>
        <time>2015-03-17T15:02:07Z</time>
      </trkpt>
      <trkpt lat="43.153467" lon="-4.626183">
        <ele>1225.0</ele>
        <time>2015-03-17T15:02:08Z</time>
      </trkpt>
      <trkpt lat="43.153383" lon="-4.626250">
        <ele>1224.0</ele>
        <time>2015-03-17T15:02:09Z</time>
      </trkpt>
      <trkpt lat="43.153300" lon="-4.626317">
        <ele>1224.0</ele>
        <time>2015-03-17T15:02:10Z</time>
      </trkpt>
      <trkpt lat="43.153217" lon="-4.626383">
        <ele>1223.0</ele>
        <time>2015-03-17T15:02:11Z</time>
      </trkpt>
      <trkpt lat="43.153150" lon="-4.626450">
        <ele>1222.0</ele>
        <time>2015-03-17T15:02:12Z</time>
      </trkpt>
      <trkpt lat="43.153083" lon="-4.626517">
        <ele>1221.0</ele>
        <time>2015-03-17T15:02:13Z</time>
      </trkpt>
      <trkpt lat="43.153017" lon="-4.626583">
        <ele>1220.0</ele>
        <time>2015-03-17T15:02:14Z</time>
      </trkpt>
      <trkpt lat="43.152950" lon="-4.626650">
        <ele>1219.0</ele>
        <time>2015-03-17T15:02:15Z</time>
      </trkpt>
      <trkpt lat="43.152900" lon="-4.626717">
        <ele>1218.0</ele>
        <time>2015-03-17T15:02:16Z</time>
      </trkpt>
      <trkpt lat="43.152817" lon="-4.626800">
        <ele>1217.0</ele>
        <time>2015-03-17T15:02:17Z</time>
      </trkpt>
      <trkpt lat="43.152750" lon="-4.626850">
        <ele>1216.0</ele>
        <time>2015-03-17T15:02:18Z</time>
      </trkpt>
      <trkpt lat="43.152700" lon="-4.626917">
        <ele>1216.0</ele>
        <time>2015-03-17T15:02:19Z</time>
      </trkpt>
      <trkpt lat="43.152633" lon="-4.626967">
        <ele>1215.0</ele>
        <time>2015-03-17T15:02:20Z</time>
      </trkpt>
      <trkpt lat="43.152567" lon="-4.627017">
        <ele>1213.0</ele>
        <time>2015-03-17T15:02:21Z</time>
      </trkpt>
      <trkpt lat="43.152500" lon="-4.627083">
        <ele>1212.0</ele>
        <time>2015-03-17T15:02:22Z</time>
      </trkpt>
      <trkpt lat="43.152433" lon="-4.627167">
        <ele>1211.0</ele>
        <time>2015-03-17T15:02:23Z</time>
      </trkpt>
      <trkpt lat="43.152383" lon="-4.627233">
        <ele>1210.0</ele>
        <time>2015-03-17T15:02:24Z</time>
      </trkpt>
      <trkpt lat="43.152317" lon="-4.627283">
        <ele>1209.0</ele>
        <time>2015-03-17T15:02:25Z</time>
      </trkpt>
      <trkpt lat="43.152250" lon="-4.627350">
        <ele>1207.0</ele>
        <time>2015-03-17T15:02:26Z</time>
      </trkpt>
      <trkpt lat="43.152183" lon="-4.627417">
        <ele>1206.0</ele>
        <time>2015-03-17T15:02:27Z</time>
      </trkpt>
      <trkpt lat="43.152117" lon="-4.627500">
        <ele>1203.0</ele>
        <time>2015-03-17T15:02:28Z</time>
      </trkpt>
      <trkpt lat="43.152033" lon="-4.627583">
        <ele>1201.0</ele>
        <time>2015-03-17T15:02:29Z</time>
      </trkpt>
      <trkpt lat="43.151967" lon="-4.627650">
        <ele>1201.0</ele>
        <time>2015-03-17T15:02:30Z</time>
      </trkpt>
      <trkpt lat="43.151883" lon="-4.627717">
        <ele>1200.0</ele>
        <time>2015-03-17T15:02:31Z</time>
      </trkpt>
      <trkpt lat="43.151817" lon="-4.627783">
        <ele>1199.0</ele>
        <time>2015-03-17T15:02:32Z</time>
      </trkpt>
      <trkpt lat="43.151717" lon="-4.627850">
        <ele>1198.0</ele>
        <time>2015-03-17T15:02:33Z</time>
      </trkpt>
      <trkpt lat="43.151650" lon="-4.627883">
        <ele>1197.0</ele>
        <time>2015-03-17T15:02:34Z</time>
      </trkpt>
      <trkpt lat="43.151567" lon="-4.627933">
        <ele>1195.0</ele>
        <time>2015-03-17T15:02:35Z</time>
      </trkpt>
      <trkpt lat="43.151483" lon="-4.627967">
        <ele>1193.0</ele>
        <time>2015-03-17T15:02:36Z</time>
      </trkpt>
      <trkpt lat="43.151417" lon="-4.628000">
        <ele>1193.0</ele>
        <time>2015-03-17T15:02:37Z</time>
      </trkpt>
      <trkpt lat="43.151350" lon="-4.628017">
        <ele>1192.0</ele>
        <time>2015-03-17T15:02:38Z</time>
      </trkpt>
      <trkpt lat="43.151267" lon="-4.628050">
        <ele>1190.0</ele>
        <time>2015-03-17T15:02:39Z</time>
      </trkpt>
      <trkpt lat="43.151183" lon="-4.628083">
        <ele>1189.0</ele>
        <time>2015-03-17T15:02:40Z</time>
      </trkpt>
      <trkpt lat="43.151083" lon="-4.628117">
        <ele>1188.0</ele>
        <time>2015-03-17T15:02:41Z</time>
      </trkpt>
      <trkpt lat="43.151000" lon="-4.628150">
        <ele>1187.0</ele>
        <time>2015-03-17T15:02:42Z</time>
      </trkpt>
      <trkpt lat="43.150933" lon="-4.628167">
        <ele>1186.0</ele>
        <time>2015-03-17T15:02:43Z</time>
      </trkpt>
      <trkpt lat="43.150850" lon="-4.628183">
        <ele>1185.0</ele>
        <time>2015-03-17T15:02:44Z</time>
      </trkpt>
      <trkpt lat="43.150767" lon="-4.628200">
        <ele>1184.0</ele>
        <time>2015-03-17T15:02:45Z</time>
      </trkpt>
      <trkpt lat="43.150683" lon="-4.628217">
        <ele>1183.0</ele>
        <time>2015-03-17T15:02:46Z</time>
      </trkpt>
      <trkpt lat="43.150600" lon="-4.628233">
        <ele>1182.0</ele>
        <time>2015-03-17T15:02:47Z</time>
      </trkpt>
      <trkpt lat="43.150517" lon="-4.628267">
        <ele>1182.0</ele>
        <time>2015-03-17T15:02:48Z</time>
      </trkpt>
      <trkpt lat="43.150450" lon="-4.628317">
        <ele>1181.0</ele>
        <time>2015-03-17T15:02:49Z</time>
      </trkpt>
      <trkpt lat="43.150383" lon="-4.628350">
        <ele>1179.0</ele>
        <time>2015-03-17T15:02:50Z</time>
      </trkpt>
      <trkpt lat="43.150300" lon="-4.628400">
        <ele>1178.0</ele>
        <time>2015-03-17T15:02:51Z</time>
      </trkpt>
      <trkpt lat="43.150217" lon="-4.628467">
        <ele>1176.0</ele>
        <time>2015-03-17T15:02:52Z</time>
      </trkpt>
      <trkpt lat="43.150133" lon="-4.628517">
        <ele>1175.0</ele>
        <time>2015-03-17T15:02:53Z</time>
      </trkpt>
      <trkpt lat="43.150067" lon="-4.628583">
        <ele>1174.0</ele>
        <time>2015-03-17T15:02:54Z</time>
      </trkpt>
      <trkpt lat="43.150000" lon="-4.628650">
        <ele>1173.0</ele>
        <time>2015-03-17T15:02:55Z</time>
      </trkpt>
      <trkpt lat="43.149933" lon="-4.628717">
        <ele>1172.0</ele>
        <time>2015-03-17T15:02:56Z</time>
      </trkpt>
      <trkpt lat="43.149867" lon="-4.628783">
        <ele>1172.0</ele>
        <time>2015-03-17T15:02:57Z</time>
      </trkpt>
      <trkpt lat="43.149800" lon="-4.628850">
        <ele>1171.0</ele>
        <time>2015-03-17T15:02:58Z</time>
      </trkpt>
      <trkpt lat="43.149733" lon="-4.628883">
        <ele>1170.0</ele>
        <time>2015-03-17T15:02:59Z</time>
      </trkpt>
      <trkpt lat="43.149667" lon="-4.628900">
        <ele>1170.0</ele>
        <time>2015-03-17T15:03:00Z</time>
      </trkpt>
      <trkpt lat="43.149600" lon="-4.628900">
        <ele>1168.0</ele>
        <time>2015-03-17T15:03:01Z</time>
      </trkpt>
      <trkpt lat="43.149517" lon="-4.628883">
        <ele>1167.0</ele>
        <time>2015-03-17T15:03:02Z</time>
      </trkpt>
      <trkpt lat="43.149433" lon="-4.628850">
        <ele>1165.0</ele>
        <time>2015-03-17T15:03:03Z</time>
      </trkpt>
      <trkpt lat="43.149350" lon="-4.628817">
        <ele>1163.0</ele>
        <time>2015-03-17T15:03:04Z</time>
      </trkpt>
      <trkpt lat="43.149267" lon="-4.628783">
        <ele>1162.0</ele>
        <time>2015-03-17T15:03:05Z</time>
      </trkpt>
      <trkpt lat="43.149200" lon="-4.628733">
        <ele>1161.0</ele>
        <time>2015-03-17T15:03:06Z</time>
      </trkpt>
      <trkpt lat="43.149133" lon="-4.628683">
        <ele>1160.0</ele>
        <time>2015-03-17T15:03:07Z</time>
      </trkpt>
      <trkpt lat="43.149067" lon="-4.628617">
        <ele>1159.0</ele>
        <time>2015-03-17T15:03:08Z</time>
      </trkpt>
      <trkpt lat="43.149000" lon="-4.628567">
        <ele>1157.0</ele>
        <time>2015-03-17T15:03:09Z</time>
      </trkpt>
      <trkpt lat="43.148933" lon="-4.628500">
        <ele>1156.0</ele>
        <time>2015-03-17T15:03:10Z</time>
      </trkpt>
      <trkpt lat="43.148867" lon="-4.628450">
        <ele>1154.0</ele>
        <time>2015-03-17T15:03:11Z</time>
      </trkpt>
      <trkpt lat="43.148800" lon="-4.628383">
        <ele>1153.0</ele>
        <time>2015-03-17T15:03:12Z</time>
      </trkpt>
      <trkpt lat="43.148717" lon="-4.628333">
        <ele>1152.0</ele>
        <time>2015-03-17T15:03:13Z</time>
      </trkpt>
      <trkpt lat="43.148650" lon="-4.628283">
        <ele>1151.0</ele>
        <time>2015-03-17T15:03:14Z</time>
      </trkpt>
      <trkpt lat="43.148583" lon="-4.628217">
        <ele>1150.0</ele>
        <time>2015-03-17T15:03:15Z</time>
      </trkpt>
      <trkpt lat="43.148517" lon="-4.628167">
        <ele>1149.0</ele>
        <time>2015-03-17T15:03:16Z</time>
      </trkpt>
      <trkpt lat="43.148450" lon="-4.628117">
        <ele>1148.0</ele>
        <time>2015-03-17T15:03:17Z</time>
      </trkpt>
      <trkpt lat="43.148383" lon="-4.628050">
        <ele>1147.0</ele>
        <time>2015-03-17T15:03:18Z</time>
      </trkpt>
      <trkpt lat="43.148333" lon="-4.627967">
        <ele>1146.0</ele>
        <time>2015-03-17T15:03:19Z</time>
      </trkpt>
      <trkpt lat="43.148267" lon="-4.627883">
        <ele>1145.0</ele>
        <time>2015-03-17T15:03:20Z</time>
      </trkpt>
      <trkpt lat="43.148200" lon="-4.627800">
        <ele>1143.0</ele>
        <time>2015-03-17T15:03:21Z</time>
      </trkpt>
      <trkpt lat="43.148133" lon="-4.627733">
        <ele>1142.0</ele>
        <time>2015-03-17T15:03:22Z</time>
      </trkpt>
      <trkpt lat="43.148050" lon="-4.627667">
        <ele>1142.0</ele>
        <time>2015-03-17T15:03:23Z</time>
      </trkpt>
      <trkpt lat="43.148000" lon="-4.627600">
        <ele>1141.0</ele>
        <time>2015-03-17T15:03:24Z</time>
      </trkpt>
      <trkpt lat="43.147933" lon="-4.627517">
        <ele>1141.0</ele>
        <time>2015-03-17T15:03:25Z</time>
      </trkpt>
      <trkpt lat="43.147867" lon="-4.627450">
        <ele>1140.0</ele>
        <time>2015-03-17T15:03:26Z</time>
      </trkpt>
      <trkpt lat="43.147800" lon="-4.627383">
        <ele>1139.0</ele>
        <time>2015-03-17T15:03:27Z</time>
      </trkpt>
      <trkpt lat="43.147717" lon="-4.627317">
        <ele>1137.0</ele>
        <time>2015-03-17T15:03:28Z</time>
      </trkpt>
      <trkpt lat="43.147650" lon="-4.627267">
        <ele>1137.0</ele>
        <time>2015-03-17T15:03:29Z</time>
      </trkpt>
      <trkpt lat="43.147583" lon="-4.627217">
        <ele>1136.0</ele>
        <time>2015-03-17T15:03:30Z</time>
      </trkpt>
      <trkpt lat="43.147517" lon="-4.627167">
        <ele>1135.0</ele>
        <time>2015-03-17T15:03:31Z</time>
      </trkpt>
      <trkpt lat="43.147450" lon="-4.627117">
        <ele>1133.0</ele>
        <time>2015-03-17T15:03:32Z</time>
      </trkpt>
      <trkpt lat="43.147367" lon="-4.627083">
        <ele>1131.0</ele>
        <time>2015-03-17T15:03:33Z</time>
      </trkpt>
      <trkpt lat="43.147283" lon="-4.627033">
        <ele>1130.0</ele>
        <time>2015-03-17T15:03:34Z</time>
      </trkpt>
      <trkpt lat="43.147200" lon="-4.627000">
        <ele>1130.0</ele>
        <time>2015-03-17T15:03:35Z</time>
      </trkpt>
      <trkpt lat="43.147133" lon="-4.626950">
        <ele>1129.0</ele>
        <time>2015-03-17T15:03:36Z</time>
      </trkpt>
      <trkpt lat="43.147050" lon="-4.626917">
        <ele>1128.0</ele>
        <time>2015-03-17T15:03:37Z</time>
      </trkpt>
      <trkpt lat="43.146967" lon="-4.626883">
        <ele>1127.0</ele>
        <time>2015-03-17T15:03:38Z</time>
      </trkpt>
      <trkpt lat="43.146900" lon="-4.626850">
        <ele>1127.0</ele>
        <time>2015-03-17T15:03:39Z</time>
      </trkpt>
      <trkpt lat="43.146817" lon="-4.626833">
        <ele>1125.0</ele>
        <time>2015-03-17T15:03:40Z</time>
      </trkpt>
      <trkpt lat="43.146717" lon="-4.626800">
        <ele>1124.0</ele>
        <time>2015-03-17T15:03:41Z</time>
      </trkpt>
      <trkpt lat="43.146633" lon="-4.626767">
        <ele>1124.0</ele>
        <time>2015-03-17T15:03:42Z</time>
      </trkpt>
      <trkpt lat="43.146550" lon="-4.626733">
        <ele>1123.0</ele>
        <time>2015-03-17T15:03:43Z</time>
      </trkpt>
      <trkpt lat="43.146467" lon="-4.626683">
        <ele>1122.0</ele>
        <time>2015-03-17T15:03:44Z</time>
      </trkpt>
      <trkpt lat="43.146367" lon="-4.626633">
        <ele>1121.0</ele>
        <time>2015-03-17T15:03:45Z</time>
      </trkpt>
      <trkpt lat="43.146283" lon="-4.626583">
        <ele>1120.0</ele>
        <time>2015-03-17T15:03:46Z</time>
      </trkpt>
      <trkpt lat="43.146200" lon="-4.626533">
        <ele>1119.0</ele>
        <time>2015-03-17T15:03:47Z</time>
      </trkpt>
      <trkpt lat="43.146117" lon="-4.626483">
        <ele>1118.0</ele>
        <time>2015-03-17T15:03:48Z</time>
      </trkpt>
      <trkpt lat="43.146033" lon="-4.626433">
        <ele>1117.0</ele>
        <time>2015-03-17T15:03:49Z</time>
      </trkpt>
      <trkpt lat="43.145967" lon="-4.626383">
        <ele>1116.0</ele>
        <time>2015-03-17T15:03:50Z</time>
      </trkpt>
      <trkpt lat="43.145883" lon="-4.626350">
        <ele>1116.0</ele>
        <time>2015-03-17T15:03:51Z</time>
      </trkpt>
      <trkpt lat="43.145817" lon="-4.626283">
        <ele>1116.0</ele>
        <time>2015-03-17T15:03:52Z</time>
      </trkpt>
      <trkpt lat="43.145733" lon="-4.626233">
        <ele>1114.0</ele>
        <time>2015-03-17T15:03:53Z</time>
      </trkpt>
      <trkpt lat="43.145667" lon="-4.626150">
        <ele>1113.0</ele>
        <time>2015-03-17T15:03:54Z</time>
      </trkpt>
      <trkpt lat="43.145600" lon="-4.626083">
        <ele>1111.0</ele>
        <time>2015-03-17T15:03:55Z</time>
      </trkpt>
      <trkpt lat="43.145533" lon="-4.626000">
        <ele>1110.0</ele>
        <time>2015-03-17T15:03:56Z</time>
      </trkpt>
      <trkpt lat="43.145467" lon="-4.625933">
        <ele>1109.0</ele>
        <time>2015-03-17T15:03:57Z</time>
      </trkpt>
      <trkpt lat="43.145400" lon="-4.625850">
        <ele>1107.0</ele>
        <time>2015-03-17T15:03:58Z</time>
      </trkpt>
      <trkpt lat="43.145350" lon="-4.625767">
        <ele>1106.0</ele>
        <time>2015-03-17T15:03:59Z</time>
      </trkpt>
      <trkpt lat="43.145317" lon="-4.625683">
        <ele>1105.0</ele>
        <time>2015-03-17T15:04:00Z</time>
      </trkpt>
      <trkpt lat="43.145267" lon="-4.625600">
        <ele>1103.0</ele>
        <time>2015-03-17T15:04:01Z</time>
      </trkpt>
      <trkpt lat="43.145233" lon="-4.625517">
        <ele>1102.0</ele>
        <time>2015-03-17T15:04:02Z</time>
      </trkpt>
      <trkpt lat="43.145183" lon="-4.625433">
        <ele>1100.0</ele>
        <time>2015-03-17T15:04:03Z</time>
      </trkpt>
      <trkpt lat="43.145133" lon="-4.625350">
        <ele>1098.0</ele>
        <time>2015-03-17T15:04:04Z</time>
      </trkpt>
      <trkpt lat="43.145050" lon="-4.625283">
        <ele>1096.0</ele>
        <time>2015-03-17T15:04:05Z</time>
      </trkpt>
      <trkpt lat="43.144983" lon="-4.625233">
        <ele>1094.0</ele>
        <time>2015-03-17T15:04:06Z</time>
      </trkpt>
      <trkpt lat="43.144900" lon="-4.625167">
        <ele>1092.0</ele>
        <time>2015-03-17T15:04:07Z</time>
      </trkpt>
      <trkpt lat="43.144833" lon="-4.625100">
        <ele>1091.0</ele>
        <time>2015-03-17T15:04:08Z</time>
      </trkpt>
      <trkpt lat="43.144767" lon="-4.625033">
        <ele>1090.0</ele>
        <time>2015-03-17T15:04:09Z</time>
      </trkpt>
      <trkpt lat="43.144683" lon="-4.624967">
        <ele>1089.0</ele>
        <time>2015-03-17T15:04:10Z</time>
      </trkpt>
      <trkpt lat="43.144617" lon="-4.624900">
        <ele>1087.0</ele>
        <time>2015-03-17T15:04:11Z</time>
      </trkpt>
      <trkpt lat="43.144517" lon="-4.624850">
        <ele>1086.0</ele>
        <time>2015-03-17T15:04:12Z</time>
      </trkpt>
      <trkpt lat="43.144433" lon="-4.624783">
        <ele>1086.0</ele>
        <time>2015-03-17T15:04:13Z</time>
      </trkpt>
      <trkpt lat="43.144350" lon="-4.624717">
        <ele>1085.0</ele>
        <time>2015-03-17T15:04:14Z</time>
      </trkpt>
      <trkpt lat="43.144267" lon="-4.624683">
        <ele>1085.0</ele>
        <time>2015-03-17T15:04:15Z</time>
      </trkpt>
      <trkpt lat="43.144183" lon="-4.624633">
        <ele>1085.0</ele>
        <time>2015-03-17T15:04:16Z</time>
      </trkpt>
      <trkpt lat="43.144083" lon="-4.624617">
        <ele>1084.0</ele>
        <time>2015-03-17T15:04:17Z</time>
      </trkpt>
      <trkpt lat="43.143983" lon="-4.624583">
        <ele>1083.0</ele>
        <time>2015-03-17T15:04:18Z</time>
      </trkpt>
      <trkpt lat="43.143883" lon="-4.624533">
        <ele>1082.0</ele>
        <time>2015-03-17T15:04:19Z</time>
      </trkpt>
      <trkpt lat="43.143783" lon="-4.624500">
        <ele>1082.0</ele>
        <time>2015-03-17T15:04:20Z</time>
      </trkpt>
      <trkpt lat="43.143683" lon="-4.624467">
        <ele>1082.0</ele>
        <time>2015-03-17T15:04:21Z</time>
      </trkpt>
      <trkpt lat="43.143583" lon="-4.624450">
        <ele>1081.0</ele>
        <time>2015-03-17T15:04:22Z</time>
      </trkpt>
      <trkpt lat="43.143500" lon="-4.624450">
        <ele>1080.0</ele>
        <time>2015-03-17T15:04:23Z</time>
      </trkpt>
      <trkpt lat="43.143400" lon="-4.624450">
        <ele>1080.0</ele>
        <time>2015-03-17T15:04:24Z</time>
      </trkpt>
      <trkpt lat="43.143300" lon="-4.624450">
        <ele>1078.0</ele>
        <time>2015-03-17T15:04:25Z</time>
      </trkpt>
      <trkpt lat="43.143200" lon="-4.624450">
        <ele>1077.0</ele>
        <time>2015-03-17T15:04:26Z</time>
      </trkpt>
      <trkpt lat="43.143100" lon="-4.624450">
        <ele>1075.0</ele>
        <time>2015-03-17T15:04:27Z</time>
      </trkpt>
      <trkpt lat="43.143000" lon="-4.624450">
        <ele>1074.0</ele>
        <time>2015-03-17T15:04:28Z</time>
      </trkpt>
      <trkpt lat="43.142900" lon="-4.624450">
        <ele>1073.0</ele>
        <time>2015-03-17T15:04:29Z</time>
      </trkpt>
      <trkpt lat="43.142800" lon="-4.624467">
        <ele>1073.0</ele>
        <time>2015-03-17T15:04:30Z</time>
      </trkpt>
      <trkpt lat="43.142700" lon="-4.624467">
        <ele>1073.0</ele>
        <time>2015-03-17T15:04:31Z</time>
      </trkpt>
      <trkpt lat="43.142617" lon="-4.624467">
        <ele>1072.0</ele>
        <time>2015-03-17T15:04:32Z</time>
      </trkpt>
      <trkpt lat="43.142517" lon="-4.624467">
        <ele>1071.0</ele>
        <time>2015-03-17T15:04:33Z</time>
      </trkpt>
      <trkpt lat="43.142417" lon="-4.624483">
        <ele>1070.0</ele>
        <time>2015-03-17T15:04:34Z</time>
      </trkpt>
      <trkpt lat="43.142317" lon="-4.624500">
        <ele>1068.0</ele>
        <time>2015-03-17T15:04:35Z</time>
      </trkpt>
      <trkpt lat="43.142200" lon="-4.624533">
        <ele>1067.0</ele>
        <time>2015-03-17T15:04:36Z</time>
      </trkpt>
      <trkpt lat="43.142100" lon="-4.624550">
        <ele>1068.0</ele>
        <time>2015-03-17T15:04:37Z</time>
      </trkpt>
      <trkpt lat="43.142017" lon="-4.624533">
        <ele>1068.0</ele>
        <time>2015-03-17T15:04:38Z</time>
      </trkpt>
      <trkpt lat="43.141950" lon="-4.624483">
        <ele>1067.0</ele>
        <time>2015-03-17T15:04:39Z</time>
      </trkpt>
      <trkpt lat="43.141917" lon="-4.624400">
        <ele>1066.0</ele>
        <time>2015-03-17T15:04:40Z</time>
      </trkpt>
      <trkpt lat="43.141883" lon="-4.624300">
        <ele>1064.0</ele>
        <time>2015-03-17T15:04:41Z</time>
      </trkpt>
      <trkpt lat="43.141867" lon="-4.624200">
        <ele>1064.0</ele>
        <time>2015-03-17T15:04:42Z</time>
      </trkpt>
      <trkpt lat="43.141883" lon="-4.624100">
        <ele>1063.0</ele>
        <time>2015-03-17T15:04:43Z</time>
      </trkpt>
      <trkpt lat="43.141900" lon="-4.624000">
        <ele>1067.0</ele>
        <time>2015-03-17T15:04:44Z</time>
      </trkpt>
      <trkpt lat="43.141883" lon="-4.623917">
        <ele>1069.0</ele>
        <time>2015-03-17T15:04:45Z</time>
      </trkpt>
      <trkpt lat="43.141867" lon="-4.623833">
        <ele>1070.0</ele>
        <time>2015-03-17T15:04:46Z</time>
      </trkpt>
      <trkpt lat="43.141867" lon="-4.623767">
        <ele>1069.0</ele>
        <time>2015-03-17T15:04:47Z</time>
      </trkpt>
      <trkpt lat="43.141867" lon="-4.623683">
        <ele>1069.0</ele>
        <time>2015-03-17T15:04:48Z</time>
      </trkpt>
      <trkpt lat="43.141900" lon="-4.623617">
        <ele>1069.0</ele>
        <time>2015-03-17T15:04:49Z</time>
      </trkpt>
      <trkpt lat="43.141950" lon="-4.623550">
        <ele>1069.0</ele>
        <time>2015-03-17T15:04:50Z</time>
      </trkpt>
      <trkpt lat="43.141983" lon="-4.623483">
        <ele>1069.0</ele>
        <time>2015-03-17T15:04:51Z</time>
      </trkpt>
      <trkpt lat="43.142017" lon="-4.623417">
        <ele>1071.0</ele>
        <time>2015-03-17T15:04:52Z</time>
      </trkpt>
      <trkpt lat="43.142033" lon="-4.623367">
        <ele>1070.0</ele>
        <time>2015-03-17T15:04:53Z</time>
      </trkpt>
      <trkpt lat="43.142050" lon="-4.623300">
        <ele>1070.0</ele>
        <time>2015-03-17T15:04:54Z</time>
      </trkpt>
      <trkpt lat="43.142083" lon="-4.623250">
        <ele>1070.0</ele>
        <time>2015-03-17T15:04:55Z</time>
      </trkpt>
      <trkpt lat="43.142117" lon="-4.623200">
        <ele>1070.0</ele>
        <time>2015-03-17T15:04:56Z</time>
      </trkpt>
      <trkpt lat="43.142167" lon="-4.623150">
        <ele>1070.0</ele>
        <time>2015-03-17T15:04:57Z</time>
      </trkpt>
      <trkpt lat="43.142200" lon="-4.623083">
        <ele>1070.0</ele>
        <time>2015-03-17T15:04:58Z</time>
      </trkpt>
      <trkpt lat="43.142250" lon="-4.623017">
        <ele>1071.0</ele>
        <time>2015-03-17T15:04:59Z</time>
      </trkpt>
      <trkpt lat="43.142283" lon="-4.622967">
        <ele>1071.0</ele>
        <time>2015-03-17T15:05:00Z</time>
      </trkpt>
      <trkpt lat="43.142300" lon="-4.622933">
        <ele>1073.0</ele>
        <time>2015-03-17T15:05:01Z</time>
      </trkpt>
      <trkpt lat="43.142333" lon="-4.622900">
        <ele>1074.0</ele>
        <time>2015-03-17T15:05:02Z</time>
      </trkpt>
      <trkpt lat="43.142350" lon="-4.622867">
        <ele>1074.0</ele>
        <time>2015-03-17T15:05:03Z</time>
      </trkpt>
      <trkpt lat="43.142383" lon="-4.622817">
        <ele>1074.0</ele>
        <time>2015-03-17T15:05:04Z</time>
      </trkpt>
      <trkpt lat="43.142417" lon="-4.622767">
        <ele>1074.0</ele>
        <time>2015-03-17T15:05:05Z</time>
      </trkpt>
      <trkpt lat="43.142450" lon="-4.622717">
        <ele>1076.0</ele>
        <time>2015-03-17T15:05:06Z</time>
      </trkpt>
      <trkpt lat="43.142483" lon="-4.622683">
        <ele>1077.0</ele>
        <time>2015-03-17T15:05:07Z</time>
      </trkpt>
      <trkpt lat="43.142517" lon="-4.622650">
        <ele>1078.0</ele>
        <time>2015-03-17T15:05:08Z</time>
      </trkpt>
      <trkpt lat="43.142533" lon="-4.622650">
        <ele>1079.0</ele>
        <time>2015-03-17T15:05:09Z</time>
      </trkpt>
      <trkpt lat="43.142567" lon="-4.622633">
        <ele>1078.0</ele>
        <time>2015-03-17T15:05:10Z</time>
      </trkpt>
      <trkpt lat="43.142600" lon="-4.622633">
        <ele>1077.0</ele>
        <time>2015-03-17T15:05:11Z</time>
      </trkpt>
      <trkpt lat="43.142650" lon="-4.622633">
        <ele>1077.0</ele>
        <time>2015-03-17T15:05:12Z</time>
      </trkpt>
      <trkpt lat="43.142700" lon="-4.622633">
        <ele>1076.0</ele>
        <time>2015-03-17T15:05:13Z</time>
      </trkpt>
      <trkpt lat="43.142767" lon="-4.622633">
        <ele>1075.0</ele>
        <time>2015-03-17T15:05:14Z</time>
      </trkpt>
      <trkpt lat="43.142817" lon="-4.622600">
        <ele>1074.0</ele>
        <time>2015-03-17T15:05:15Z</time>
      </trkpt>
      <trkpt lat="43.142867" lon="-4.622567">
        <ele>1074.0</ele>
        <time>2015-03-17T15:05:16Z</time>
      </trkpt>
      <trkpt lat="43.142917" lon="-4.622550">
        <ele>1076.0</ele>
        <time>2015-03-17T15:05:17Z</time>
      </trkpt>
      <trkpt lat="43.142950" lon="-4.622550">
        <ele>1076.0</ele>
        <time>2015-03-17T15:05:18Z</time>
      </trkpt>
      <trkpt lat="43.143017" lon="-4.622567">
        <ele>1074.0</ele>
        <time>2015-03-17T15:05:19Z</time>
      </trkpt>
      <trkpt lat="43.143083" lon="-4.622583">
        <ele>1072.0</ele>
        <time>2015-03-17T15:05:20Z</time>
      </trkpt>
      <trkpt lat="43.143167" lon="-4.622550">
        <ele>1071.0</ele>
        <time>2015-03-17T15:05:21Z</time>
      </trkpt>
      <trkpt lat="43.143233" lon="-4.622517">
        <ele>1070.0</ele>
        <time>2015-03-17T15:05:22Z</time>
      </trkpt>
      <trkpt lat="43.143300" lon="-4.622450">
        <ele>1072.0</ele>
        <time>2015-03-17T15:05:23Z</time>
      </trkpt>
      <trkpt lat="43.143333" lon="-4.622417">
        <ele>1074.0</ele>
        <time>2015-03-17T15:05:24Z</time>
      </trkpt>
      <trkpt lat="43.143367" lon="-4.622383">
        <ele>1075.0</ele>
        <time>2015-03-17T15:05:25Z</time>
      </trkpt>
      <trkpt lat="43.143417" lon="-4.622350">
        <ele>1074.0</ele>
        <time>2015-03-17T15:05:26Z</time>
      </trkpt>
      <trkpt lat="43.143467" lon="-4.622300">
        <ele>1073.0</ele>
        <time>2015-03-17T15:05:27Z</time>
      </trkpt>
      <trkpt lat="43.143517" lon="-4.622250">
        <ele>1073.0</ele>
        <time>2015-03-17T15:05:28Z</time>
      </trkpt>
      <trkpt lat="43.143567" lon="-4.622183">
        <ele>1074.0</ele>
        <time>2015-03-17T15:05:29Z</time>
      </trkpt>
      <trkpt lat="43.143600" lon="-4.622150">
        <ele>1075.0</ele>
        <time>2015-03-17T15:05:30Z</time>
      </trkpt>
      <trkpt lat="43.143617" lon="-4.622117">
        <ele>1075.0</ele>
        <time>2015-03-17T15:05:31Z</time>
      </trkpt>
      <trkpt lat="43.143667" lon="-4.622100">
        <ele>1074.0</ele>
        <time>2015-03-17T15:05:32Z</time>
      </trkpt>
      <trkpt lat="43.143717" lon="-4.622067">
        <ele>1072.0</ele>
        <time>2015-03-17T15:05:33Z</time>
      </trkpt>
      <trkpt lat="43.143767" lon="-4.622033">
        <ele>1070.0</ele>
        <time>2015-03-17T15:05:34Z</time>
      </trkpt>
      <trkpt lat="43.143850" lon="-4.621983">
        <ele>1068.0</ele>
        <time>2015-03-17T15:05:35Z</time>
      </trkpt>
      <trkpt lat="43.143900" lon="-4.621917">
        <ele>1068.0</ele>
        <time>2015-03-17T15:05:36Z</time>
      </trkpt>
      <trkpt lat="43.143967" lon="-4.621867">
        <ele>1068.0</ele>
        <time>2015-03-17T15:05:37Z</time>
      </trkpt>
      <trkpt lat="43.144000" lon="-4.621833">
        <ele>1068.0</ele>
        <time>2015-03-17T15:05:38Z</time>
      </trkpt>
      <trkpt lat="43.144050" lon="-4.621800">
        <ele>1066.0</ele>
        <time>2015-03-17T15:05:39Z</time>
      </trkpt>
      <trkpt lat="43.144117" lon="-4.621733">
        <ele>1066.0</ele>
        <time>2015-03-17T15:05:40Z</time>
      </trkpt>
      <trkpt lat="43.144183" lon="-4.621667">
        <ele>1065.0</ele>
        <time>2015-03-17T15:05:41Z</time>
      </trkpt>
      <trkpt lat="43.144233" lon="-4.621600">
        <ele>1064.0</ele>
        <time>2015-03-17T15:05:42Z</time>
      </trkpt>
      <trkpt lat="43.144300" lon="-4.621550">
        <ele>1064.0</ele>
        <time>2015-03-17T15:05:43Z</time>
      </trkpt>
      <trkpt lat="43.144367" lon="-4.621533">
        <ele>1064.0</ele>
        <time>2015-03-17T15:05:44Z</time>
      </trkpt>
      <trkpt lat="43.144433" lon="-4.621517">
        <ele>1063.0</ele>
        <time>2015-03-17T15:05:45Z</time>
      </trkpt>
      <trkpt lat="43.144500" lon="-4.621500">
        <ele>1061.0</ele>
        <time>2015-03-17T15:05:46Z</time>
      </trkpt>
      <trkpt lat="43.144583" lon="-4.621483">
        <ele>1060.0</ele>
        <time>2015-03-17T15:05:47Z</time>
      </trkpt>
      <trkpt lat="43.144650" lon="-4.621467">
        <ele>1059.0</ele>
        <time>2015-03-17T15:05:48Z</time>
      </trkpt>
      <trkpt lat="43.144733" lon="-4.621433">
        <ele>1058.0</ele>
        <time>2015-03-17T15:05:49Z</time>
      </trkpt>
      <trkpt lat="43.144800" lon="-4.621417">
        <ele>1057.0</ele>
        <time>2015-03-17T15:05:50Z</time>
      </trkpt>
      <trkpt lat="43.144850" lon="-4.621383">
        <ele>1057.0</ele>
        <time>2015-03-17T15:05:51Z</time>
      </trkpt>
      <trkpt lat="43.144917" lon="-4.621350">
        <ele>1056.0</ele>
        <time>2015-03-17T15:05:52Z</time>
      </trkpt>
      <trkpt lat="43.144967" lon="-4.621300">
        <ele>1055.0</ele>
        <time>2015-03-17T15:05:53Z</time>
      </trkpt>
      <trkpt lat="43.145050" lon="-4.621267">
        <ele>1053.0</ele>
        <time>2015-03-17T15:05:54Z</time>
      </trkpt>
      <trkpt lat="43.145117" lon="-4.621233">
        <ele>1052.0</ele>
        <time>2015-03-17T15:05:55Z</time>
      </trkpt>
      <trkpt lat="43.145167" lon="-4.621217">
        <ele>1051.0</ele>
        <time>2015-03-17T15:05:56Z</time>
      </trkpt>
      <trkpt lat="43.145233" lon="-4.621183">
        <ele>1050.0</ele>
        <time>2015-03-17T15:05:57Z</time>
      </trkpt>
      <trkpt lat="43.145300" lon="-4.621133">
        <ele>1051.0</ele>
        <time>2015-03-17T15:05:58Z</time>
      </trkpt>
      <trkpt lat="43.145367" lon="-4.621100">
        <ele>1049.0</ele>
        <time>2015-03-17T15:05:59Z</time>
      </trkpt>
      <trkpt lat="43.145433" lon="-4.621033">
        <ele>1048.0</ele>
        <time>2015-03-17T15:06:00Z</time>
      </trkpt>
      <trkpt lat="43.145500" lon="-4.620983">
        <ele>1047.0</ele>
        <time>2015-03-17T15:06:01Z</time>
      </trkpt>
      <trkpt lat="43.145550" lon="-4.620917">
        <ele>1046.0</ele>
        <time>2015-03-17T15:06:02Z</time>
      </trkpt>
      <trkpt lat="43.145583" lon="-4.620850">
        <ele>1046.0</ele>
        <time>2015-03-17T15:06:03Z</time>
      </trkpt>
      <trkpt lat="43.145617" lon="-4.620783">
        <ele>1046.0</ele>
        <time>2015-03-17T15:06:04Z</time>
      </trkpt>
      <trkpt lat="43.145667" lon="-4.620717">
        <ele>1046.0</ele>
        <time>2015-03-17T15:06:05Z</time>
      </trkpt>
      <trkpt lat="43.145700" lon="-4.620650">
        <ele>1045.0</ele>
        <time>2015-03-17T15:06:06Z</time>
      </trkpt>
      <trkpt lat="43.145733" lon="-4.620583">
        <ele>1045.0</ele>
        <time>2015-03-17T15:06:07Z</time>
      </trkpt>
      <trkpt lat="43.145767" lon="-4.620533">
        <ele>1044.0</ele>
        <time>2015-03-17T15:06:08Z</time>
      </trkpt>
      <trkpt lat="43.145800" lon="-4.620500">
        <ele>1043.0</ele>
        <time>2015-03-17T15:06:09Z</time>
      </trkpt>
      <trkpt lat="43.145850" lon="-4.620467">
        <ele>1041.0</ele>
        <time>2015-03-17T15:06:10Z</time>
      </trkpt>
      <trkpt lat="43.145900" lon="-4.620450">
        <ele>1040.0</ele>
        <time>2015-03-17T15:06:11Z</time>
      </trkpt>
      <trkpt lat="43.145967" lon="-4.620433">
        <ele>1038.0</ele>
        <time>2015-03-17T15:06:12Z</time>
      </trkpt>
      <trkpt lat="43.146017" lon="-4.620433">
        <ele>1037.0</ele>
        <time>2015-03-17T15:06:13Z</time>
      </trkpt>
      <trkpt lat="43.146067" lon="-4.620433">
        <ele>1036.0</ele>
        <time>2015-03-17T15:06:14Z</time>
      </trkpt>
      <trkpt lat="43.146117" lon="-4.620433">
        <ele>1036.0</ele>
        <time>2015-03-17T15:06:15Z</time>
      </trkpt>
      <trkpt lat="43.146183" lon="-4.620450">
        <ele>1035.0</ele>
        <time>2015-03-17T15:06:16Z</time>
      </trkpt>
      <trkpt lat="43.146233" lon="-4.620450">
        <ele>1033.0</ele>
        <time>2015-03-17T15:06:17Z</time>
      </trkpt>
      <trkpt lat="43.146300" lon="-4.620467">
        <ele>1034.0</ele>
        <time>2015-03-17T15:06:18Z</time>
      </trkpt>
      <trkpt lat="43.146383" lon="-4.620450">
        <ele>1033.0</ele>
        <time>2015-03-17T15:06:19Z</time>
      </trkpt>
      <trkpt lat="43.146450" lon="-4.620433">
        <ele>1032.0</ele>
        <time>2015-03-17T15:06:20Z</time>
      </trkpt>
      <trkpt lat="43.146517" lon="-4.620400">
        <ele>1031.0</ele>
        <time>2015-03-17T15:06:21Z</time>
      </trkpt>
      <trkpt lat="43.146583" lon="-4.620383">
        <ele>1030.0</ele>
        <time>2015-03-17T15:06:22Z</time>
      </trkpt>
      <trkpt lat="43.146650" lon="-4.620350">
        <ele>1030.0</ele>
        <time>2015-03-17T15:06:23Z</time>
      </trkpt>
      <trkpt lat="43.146717" lon="-4.620333">
        <ele>1029.0</ele>
        <time>2015-03-17T15:06:24Z</time>
      </trkpt>
      <trkpt lat="43.146767" lon="-4.620300">
        <ele>1028.0</ele>
        <time>2015-03-17T15:06:25Z</time>
      </trkpt>
      <trkpt lat="43.146833" lon="-4.620283">
        <ele>1027.0</ele>
        <time>2015-03-17T15:06:26Z</time>
      </trkpt>
      <trkpt lat="43.146883" lon="-4.620233">
        <ele>1028.0</ele>
        <time>2015-03-17T15:06:27Z</time>
      </trkpt>
      <trkpt lat="43.146917" lon="-4.620167">
        <ele>1026.0</ele>
        <time>2015-03-17T15:06:28Z</time>
      </trkpt>
      <trkpt lat="43.146950" lon="-4.620100">
        <ele>1024.0</ele>
        <time>2015-03-17T15:06:29Z</time>
      </trkpt>
      <trkpt lat="43.146967" lon="-4.620033">
        <ele>1020.0</ele>
        <time>2015-03-17T15:06:30Z</time>
      </trkpt>
      <trkpt lat="43.146983" lon="-4.619950">
        <ele>1018.0</ele>
        <time>2015-03-17T15:06:31Z</time>
      </trkpt>
      <trkpt lat="43.147000" lon="-4.619867">
        <ele>1015.0</ele>
        <time>2015-03-17T15:06:32Z</time>
      </trkpt>
      <trkpt lat="43.147000" lon="-4.619783">
        <ele>1013.0</ele>
        <time>2015-03-17T15:06:33Z</time>
      </trkpt>
      <trkpt lat="43.146983" lon="-4.619700">
        <ele>1010.0</ele>
        <time>2015-03-17T15:06:34Z</time>
      </trkpt>
      <trkpt lat="43.146983" lon="-4.619600">
        <ele>1008.0</ele>
        <time>2015-03-17T15:06:35Z</time>
      </trkpt>
      <trkpt lat="43.146950" lon="-4.619500">
        <ele>1005.0</ele>
        <time>2015-03-17T15:06:36Z</time>
      </trkpt>
      <trkpt lat="43.146917" lon="-4.619417">
        <ele>1003.0</ele>
        <time>2015-03-17T15:06:37Z</time>
      </trkpt>
      <trkpt lat="43.146883" lon="-4.619333">
        <ele>1001.0</ele>
        <time>2015-03-17T15:06:38Z</time>
      </trkpt>
      <trkpt lat="43.146833" lon="-4.619250">
        <ele>998.0</ele>
        <time>2015-03-17T15:06:39Z</time>
      </trkpt>
      <trkpt lat="43.146767" lon="-4.619167">
        <ele>996.0</ele>
        <time>2015-03-17T15:06:40Z</time>
      </trkpt>
      <trkpt lat="43.146700" lon="-4.619117">
        <ele>993.0</ele>
        <time>2015-03-17T15:06:41Z</time>
      </trkpt>
      <trkpt lat="43.146617" lon="-4.619083">
        <ele>990.0</ele>
        <time>2015-03-17T15:06:42Z</time>
      </trkpt>
      <trkpt lat="43.146533" lon="-4.619067">
        <ele>987.0</ele>
        <time>2015-03-17T15:06:43Z</time>
      </trkpt>
      <trkpt lat="43.146433" lon="-4.619067">
        <ele>984.0</ele>
        <time>2015-03-17T15:06:44Z</time>
      </trkpt>
      <trkpt lat="43.146333" lon="-4.619083">
        <ele>981.0</ele>
        <time>2015-03-17T15:06:45Z</time>
      </trkpt>
      <trkpt lat="43.146233" lon="-4.619133">
        <ele>978.0</ele>
        <time>2015-03-17T15:06:46Z</time>
      </trkpt>
      <trkpt lat="43.146117" lon="-4.619200">
        <ele>975.0</ele>
        <time>2015-03-17T15:06:47Z</time>
      </trkpt>
      <trkpt lat="43.146033" lon="-4.619267">
        <ele>973.0</ele>
        <time>2015-03-17T15:06:48Z</time>
      </trkpt>
      <trkpt lat="43.145950" lon="-4.619350">
        <ele>971.0</ele>
        <time>2015-03-17T15:06:49Z</time>
      </trkpt>
      <trkpt lat="43.145867" lon="-4.619450">
        <ele>969.0</ele>
        <time>2015-03-17T15:06:50Z</time>
      </trkpt>
      <trkpt lat="43.145800" lon="-4.619550">
        <ele>966.0</ele>
        <time>2015-03-17T15:06:51Z</time>
      </trkpt>
      <trkpt lat="43.145733" lon="-4.619650">
        <ele>963.0</ele>
        <time>2015-03-17T15:06:52Z</time>
      </trkpt>
      <trkpt lat="43.145683" lon="-4.619767">
        <ele>961.0</ele>
        <time>2015-03-17T15:06:53Z</time>
      </trkpt>
      <trkpt lat="43.145633" lon="-4.619900">
        <ele>959.0</ele>
        <time>2015-03-17T15:06:54Z</time>
      </trkpt>
      <trkpt lat="43.145600" lon="-4.620017">
        <ele>958.0</ele>
        <time>2015-03-17T15:06:55Z</time>
      </trkpt>
      <trkpt lat="43.145550" lon="-4.620133">
        <ele>956.0</ele>
        <time>2015-03-17T15:06:56Z</time>
      </trkpt>
      <trkpt lat="43.145533" lon="-4.620267">
        <ele>954.0</ele>
        <time>2015-03-17T15:06:57Z</time>
      </trkpt>
      <trkpt lat="43.145500" lon="-4.620383">
        <ele>953.0</ele>
        <time>2015-03-17T15:06:58Z</time>
      </trkpt>
      <trkpt lat="43.145483" lon="-4.620517">
        <ele>952.0</ele>
        <time>2015-03-17T15:06:59Z</time>
      </trkpt>
      <trkpt lat="43.145483" lon="-4.620633">
        <ele>951.0</ele>
        <time>2015-03-17T15:07:00Z</time>
      </trkpt>
      <trkpt lat="43.145483" lon="-4.620733">
        <ele>950.0</ele>
        <time>2015-03-17T15:07:01Z</time>
      </trkpt>
      <trkpt lat="43.145467" lon="-4.620850">
        <ele>948.0</ele>
        <time>2015-03-17T15:07:02Z</time>
      </trkpt>
      <trkpt lat="43.145467" lon="-4.620983">
        <ele>947.0</ele>
        <time>2015-03-17T15:07:03Z</time>
      </trkpt>
      <trkpt lat="43.145483" lon="-4.621117">
        <ele>945.0</ele>
        <time>2015-03-17T15:07:04Z</time>
      </trkpt>
      <trkpt lat="43.145500" lon="-4.621217">
        <ele>945.0</ele>
        <time>2015-03-17T15:07:05Z</time>
      </trkpt>
      <trkpt lat="43.145550" lon="-4.621283">
        <ele>944.0</ele>
        <time>2015-03-17T15:07:06Z</time>
      </trkpt>
      <trkpt lat="43.145600" lon="-4.621333">
        <ele>942.0</ele>
        <time>2015-03-17T15:07:07Z</time>
      </trkpt>
      <trkpt lat="43.145667" lon="-4.621350">
        <ele>943.0</ele>
        <time>2015-03-17T15:07:08Z</time>
      </trkpt>
      <trkpt lat="43.145717" lon="-4.621383">
        <ele>943.0</ele>
        <time>2015-03-17T15:07:09Z</time>
      </trkpt>
      <trkpt lat="43.145733" lon="-4.621400">
        <ele>943.0</ele>
        <time>2015-03-17T15:07:10Z</time>
      </trkpt>
      <trkpt lat="43.145750" lon="-4.621383">
        <ele>942.0</ele>
        <time>2015-03-17T15:07:11Z</time>
      </trkpt>
      <trkpt lat="43.145767" lon="-4.621317">
        <ele>941.0</ele>
        <time>2015-03-17T15:07:12Z</time>
      </trkpt>
      <trkpt lat="43.145783" lon="-4.621250">
        <ele>942.0</ele>
        <time>2015-03-17T15:07:13Z</time>
      </trkpt>
      <trkpt lat="43.145800" lon="-4.621167">
        <ele>942.0</ele>
        <time>2015-03-17T15:07:14Z</time>
      </trkpt>
      <trkpt lat="43.145800" lon="-4.621083">
        <ele>942.0</ele>
        <time>2015-03-17T15:07:15Z</time>
      </trkpt>
      <trkpt lat="43.145783" lon="-4.621000">
        <ele>941.0</ele>
        <time>2015-03-17T15:07:16Z</time>
      </trkpt>
      <trkpt lat="43.145750" lon="-4.620917">
        <ele>941.0</ele>
        <time>2015-03-17T15:07:17Z</time>
      </trkpt>
      <trkpt lat="43.145700" lon="-4.620833">
        <ele>940.0</ele>
        <time>2015-03-17T15:07:18Z</time>
      </trkpt>
      <trkpt lat="43.145683" lon="-4.620750">
        <ele>940.0</ele>
        <time>2015-03-17T15:07:19Z</time>
      </trkpt>
      <trkpt lat="43.145667" lon="-4.620683">
        <ele>939.0</ele>
        <time>2015-03-17T15:07:20Z</time>
      </trkpt>
      <trkpt lat="43.145667" lon="-4.620600">
        <ele>939.0</ele>
        <time>2015-03-17T15:07:21Z</time>
      </trkpt>
      <trkpt lat="43.145683" lon="-4.620533">
        <ele>938.0</ele>
        <time>2015-03-17T15:07:22Z</time>
      </trkpt>
      <trkpt lat="43.145717" lon="-4.620483">
        <ele>938.0</ele>
        <time>2015-03-17T15:07:23Z</time>
      </trkpt>
      <trkpt lat="43.145767" lon="-4.620467">
        <ele>937.0</ele>
        <time>2015-03-17T15:07:24Z</time>
      </trkpt>
      <trkpt lat="43.145833" lon="-4.620450">
        <ele>938.0</ele>
        <time>2015-03-17T15:07:25Z</time>
      </trkpt>
      <trkpt lat="43.145883" lon="-4.620450">
        <ele>938.0</ele>
        <time>2015-03-17T15:07:26Z</time>
      </trkpt>
      <trkpt lat="43.145933" lon="-4.620450">
        <ele>938.0</ele>
        <time>2015-03-17T15:07:27Z</time>
      </trkpt>
      <trkpt lat="43.145967" lon="-4.620450">
        <ele>938.0</ele>
        <time>2015-03-17T15:07:28Z</time>
      </trkpt>
      <trkpt lat="43.146033" lon="-4.620433">
        <ele>938.0</ele>
        <time>2015-03-17T15:07:29Z</time>
      </trkpt>
      <trkpt lat="43.146083" lon="-4.620417">
        <ele>938.0</ele>
        <time>2015-03-17T15:07:30Z</time>
      </trkpt>
      <trkpt lat="43.146150" lon="-4.620433">
        <ele>937.0</ele>
        <time>2015-03-17T15:07:31Z</time>
      </trkpt>
      <trkpt lat="43.146217" lon="-4.620433">
        <ele>937.0</ele>
        <time>2015-03-17T15:07:32Z</time>
      </trkpt>
      <trkpt lat="43.146267" lon="-4.620450">
        <ele>937.0</ele>
        <time>2015-03-17T15:07:33Z</time>
      </trkpt>
      <trkpt lat="43.146317" lon="-4.620450">
        <ele>937.0</ele>
        <time>2015-03-17T15:07:34Z</time>
      </trkpt>
      <trkpt lat="43.146367" lon="-4.620450">
        <ele>937.0</ele>
        <time>2015-03-17T15:07:35Z</time>
      </trkpt>
      <trkpt lat="43.146417" lon="-4.620450">
        <ele>937.0</ele>
        <time>2015-03-17T15:07:36Z</time>
      </trkpt>
      <trkpt lat="43.146467" lon="-4.620433">
        <ele>936.0</ele>
        <time>2015-03-17T15:07:37Z</time>
      </trkpt>
      <trkpt lat="43.146533" lon="-4.620433">
        <ele>935.0</ele>
        <time>2015-03-17T15:07:38Z</time>
      </trkpt>
      <trkpt lat="43.146567" lon="-4.620417">
        <ele>934.0</ele>
        <time>2015-03-17T15:07:39Z</time>
      </trkpt>
      <trkpt lat="43.146617" lon="-4.620367">
        <ele>932.0</ele>
        <time>2015-03-17T15:07:40Z</time>
      </trkpt>
      <trkpt lat="43.146650" lon="-4.620317">
        <ele>933.0</ele>
        <time>2015-03-17T15:07:41Z</time>
      </trkpt>
      <trkpt lat="43.146700" lon="-4.620267">
        <ele>932.0</ele>
        <time>2015-03-17T15:07:42Z</time>
      </trkpt>
      <trkpt lat="43.146750" lon="-4.620217">
        <ele>931.0</ele>
        <time>2015-03-17T15:07:43Z</time>
      </trkpt>
      <trkpt lat="43.146783" lon="-4.620167">
        <ele>931.0</ele>
        <time>2015-03-17T15:07:44Z</time>
      </trkpt>
      <trkpt lat="43.146800" lon="-4.620083">
        <ele>930.0</ele>
        <time>2015-03-17T15:07:45Z</time>
      </trkpt>
      <trkpt lat="43.146833" lon="-4.620017">
        <ele>929.0</ele>
        <time>2015-03-17T15:07:46Z</time>
      </trkpt>
      <trkpt lat="43.146850" lon="-4.619933">
        <ele>929.0</ele>
        <time>2015-03-17T15:07:47Z</time>
      </trkpt>
      <trkpt lat="43.146867" lon="-4.619850">
        <ele>929.0</ele>
        <time>2015-03-17T15:07:48Z</time>
      </trkpt>
      <trkpt lat="43.146883" lon="-4.619767">
        <ele>928.0</ele>
        <time>2015-03-17T15:07:49Z</time>
      </trkpt>
      <trkpt lat="43.146883" lon="-4.619683">
        <ele>927.0</ele>
        <time>2015-03-17T15:07:50Z</time>
      </trkpt>
      <trkpt lat="43.146883" lon="-4.619583">
        <ele>925.0</ele>
        <time>2015-03-17T15:07:51Z</time>
      </trkpt>
      <trkpt lat="43.146883" lon="-4.619483">
        <ele>923.0</ele>
        <time>2015-03-17T15:07:52Z</time>
      </trkpt>
      <trkpt lat="43.146883" lon="-4.619400">
        <ele>921.0</ele>
        <time>2015-03-17T15:07:53Z</time>
      </trkpt>
      <trkpt lat="43.146867" lon="-4.619317">
        <ele>920.0</ele>
        <time>2015-03-17T15:07:54Z</time>
      </trkpt>
      <trkpt lat="43.146850" lon="-4.619233">
        <ele>916.0</ele>
        <time>2015-03-17T15:07:55Z</time>
      </trkpt>
      <trkpt lat="43.146833" lon="-4.619133">
        <ele>913.0</ele>
        <time>2015-03-17T15:07:56Z</time>
      </trkpt>
      <trkpt lat="43.146817" lon="-4.619033">
        <ele>911.0</ele>
        <time>2015-03-17T15:07:57Z</time>
      </trkpt>
      <trkpt lat="43.146800" lon="-4.618933">
        <ele>909.0</ele>
        <time>2015-03-17T15:07:58Z</time>
      </trkpt>
      <trkpt lat="43.146783" lon="-4.618850">
        <ele>909.0</ele>
        <time>2015-03-17T15:07:59Z</time>
      </trkpt>
      <trkpt lat="43.146783" lon="-4.618767">
        <ele>908.0</ele>
        <time>2015-03-17T15:08:00Z</time>
      </trkpt>
      <trkpt lat="43.146767" lon="-4.618700">
        <ele>907.0</ele>
        <time>2015-03-17T15:08:01Z</time>
      </trkpt>
      <trkpt lat="43.146750" lon="-4.618633">
        <ele>906.0</ele>
        <time>2015-03-17T15:08:02Z</time>
      </trkpt>
      <trkpt lat="43.146733" lon="-4.618533">
        <ele>904.0</ele>
        <time>2015-03-17T15:08:03Z</time>
      </trkpt>
      <trkpt lat="43.146717" lon="-4.618450">
        <ele>902.0</ele>
        <time>2015-03-17T15:08:04Z</time>
      </trkpt>
      <trkpt lat="43.146717" lon="-4.618367">
        <ele>901.0</ele>
        <time>2015-03-17T15:08:05Z</time>
      </trkpt>
      <trkpt lat="43.146717" lon="-4.618283">
        <ele>900.0</ele>
        <time>2015-03-17T15:08:06Z</time>
      </trkpt>
      <trkpt lat="43.146717" lon="-4.618183">
        <ele>901.0</ele>
        <time>2015-03-17T15:08:07Z</time>
      </trkpt>
      <trkpt lat="43.146733" lon="-4.618117">
        <ele>901.0</ele>
        <time>2015-03-17T15:08:08Z</time>
      </trkpt>
      <trkpt lat="43.146750" lon="-4.618033">
        <ele>900.0</ele>
        <time>2015-03-17T15:08:09Z</time>
      </trkpt>
      <trkpt lat="43.146767" lon="-4.617983">
        <ele>898.0</ele>
        <time>2015-03-17T15:08:10Z</time>
      </trkpt>
      <trkpt lat="43.146800" lon="-4.617933">
        <ele>896.0</ele>
        <time>2015-03-17T15:08:11Z</time>
      </trkpt>
      <trkpt lat="43.146833" lon="-4.617883">
        <ele>894.0</ele>
        <time>2015-03-17T15:08:12Z</time>
      </trkpt>
      <trkpt lat="43.146883" lon="-4.617850">
        <ele>892.0</ele>
        <time>2015-03-17T15:08:13Z</time>
      </trkpt>
      <trkpt lat="43.146917" lon="-4.617817">
        <ele>891.0</ele>
        <time>2015-03-17T15:08:14Z</time>
      </trkpt>
      <trkpt lat="43.146950" lon="-4.617783">
        <ele>889.0</ele>
        <time>2015-03-17T15:08:15Z</time>
      </trkpt>
      <trkpt lat="43.146983" lon="-4.617750">
        <ele>886.0</ele>
        <time>2015-03-17T15:08:16Z</time>
      </trkpt>
      <trkpt lat="43.147017" lon="-4.617683">
        <ele>889.0</ele>
        <time>2015-03-17T15:08:17Z</time>
      </trkpt>
      <trkpt lat="43.147050" lon="-4.617633">
        <ele>887.0</ele>
        <time>2015-03-17T15:08:18Z</time>
      </trkpt>
      <trkpt lat="43.147083" lon="-4.617583">
        <ele>886.0</ele>
        <time>2015-03-17T15:08:19Z</time>
      </trkpt>
      <trkpt lat="43.147117" lon="-4.617533">
        <ele>886.0</ele>
        <time>2015-03-17T15:08:20Z</time>
      </trkpt>
      <trkpt lat="43.147150" lon="-4.617483">
        <ele>885.0</ele>
        <time>2015-03-17T15:08:21Z</time>
      </trkpt>
      <trkpt lat="43.147167" lon="-4.617433">
        <ele>884.0</ele>
        <time>2015-03-17T15:08:22Z</time>
      </trkpt>
      <trkpt lat="43.147200" lon="-4.617400">
        <ele>882.0</ele>
        <time>2015-03-17T15:08:23Z</time>
      </trkpt>
      <trkpt lat="43.147233" lon="-4.617367">
        <ele>881.0</ele>
        <time>2015-03-17T15:08:24Z</time>
      </trkpt>
      <trkpt lat="43.147283" lon="-4.617333">
        <ele>878.0</ele>
        <time>2015-03-17T15:08:25Z</time>
      </trkpt>
      <trkpt lat="43.147317" lon="-4.617283">
        <ele>875.0</ele>
        <time>2015-03-17T15:08:26Z</time>
      </trkpt>
      <trkpt lat="43.147367" lon="-4.617250">
        <ele>871.0</ele>
        <time>2015-03-17T15:08:27Z</time>
      </trkpt>
      <trkpt lat="43.147417" lon="-4.617250">
        <ele>866.0</ele>
        <time>2015-03-17T15:08:28Z</time>
      </trkpt>
      <trkpt lat="43.147483" lon="-4.617267">
        <ele>862.0</ele>
        <time>2015-03-17T15:08:29Z</time>
      </trkpt>
      <trkpt lat="43.147550" lon="-4.617267">
        <ele>859.0</ele>
        <time>2015-03-17T15:08:30Z</time>
      </trkpt>
      <trkpt lat="43.147600" lon="-4.617267">
        <ele>855.0</ele>
        <time>2015-03-17T15:08:31Z</time>
      </trkpt>
      <trkpt lat="43.147650" lon="-4.617267">
        <ele>852.0</ele>
        <time>2015-03-17T15:08:32Z</time>
      </trkpt>
      <trkpt lat="43.147717" lon="-4.617283">
        <ele>847.0</ele>
        <time>2015-03-17T15:08:33Z</time>
      </trkpt>
      <trkpt lat="43.147767" lon="-4.617283">
        <ele>843.0</ele>
        <time>2015-03-17T15:08:34Z</time>
      </trkpt>
      <trkpt lat="43.147833" lon="-4.617283">
        <ele>839.0</ele>
        <time>2015-03-17T15:08:35Z</time>
      </trkpt>
      <trkpt lat="43.147883" lon="-4.617267">
        <ele>836.0</ele>
        <time>2015-03-17T15:08:36Z</time>
      </trkpt>
      <trkpt lat="43.147950" lon="-4.617267">
        <ele>832.0</ele>
        <time>2015-03-17T15:08:37Z</time>
      </trkpt>
      <trkpt lat="43.147983" lon="-4.617250">
        <ele>828.0</ele>
        <time>2015-03-17T15:08:38Z</time>
      </trkpt>
      <trkpt lat="43.148033" lon="-4.617233">
        <ele>825.0</ele>
        <time>2015-03-17T15:08:39Z</time>
      </trkpt>
      <trkpt lat="43.148083" lon="-4.617200">
        <ele>821.0</ele>
        <time>2015-03-17T15:08:40Z</time>
      </trkpt>
      <trkpt lat="43.148133" lon="-4.617167">
        <ele>818.0</ele>
        <time>2015-03-17T15:08:41Z</time>
      </trkpt>
      <trkpt lat="43.148183" lon="-4.617150">
        <ele>815.0</ele>
        <time>2015-03-17T15:08:42Z</time>
      </trkpt>
      <trkpt lat="43.148217" lon="-4.617117">
        <ele>812.0</ele>
        <time>2015-03-17T15:08:43Z</time>
      </trkpt>
      <trkpt lat="43.148250" lon="-4.617117">
        <ele>808.0</ele>
        <time>2015-03-17T15:08:44Z</time>
      </trkpt>
      <trkpt lat="43.148317" lon="-4.617100">
        <ele>804.0</ele>
        <time>2015-03-17T15:08:45Z</time>
      </trkpt>
      <trkpt lat="43.148367" lon="-4.617100">
        <ele>801.0</ele>
        <time>2015-03-17T15:08:46Z</time>
      </trkpt>
      <trkpt lat="43.148433" lon="-4.617133">
        <ele>798.0</ele>
        <time>2015-03-17T15:08:47Z</time>
      </trkpt>
      <trkpt lat="43.148467" lon="-4.617200">
        <ele>795.0</ele>
        <time>2015-03-17T15:08:48Z</time>
      </trkpt>
      <trkpt lat="43.148500" lon="-4.617267">
        <ele>792.0</ele>
        <time>2015-03-17T15:08:49Z</time>
      </trkpt>
      <trkpt lat="43.148533" lon="-4.617333">
        <ele>789.0</ele>
        <time>2015-03-17T15:08:50Z</time>
      </trkpt>
      <trkpt lat="43.148600" lon="-4.617400">
        <ele>793.0</ele>
        <time>2015-03-17T15:08:51Z</time>
      </trkpt>
      <trkpt lat="43.148633" lon="-4.617483">
        <ele>791.0</ele>
        <time>2015-03-17T15:08:52Z</time>
      </trkpt>
      <trkpt lat="43.148683" lon="-4.617567">
        <ele>788.0</ele>
        <time>2015-03-17T15:08:53Z</time>
      </trkpt>
      <trkpt lat="43.148733" lon="-4.617633">
        <ele>786.0</ele>
        <time>2015-03-17T15:08:54Z</time>
      </trkpt>
      <trkpt lat="43.148767" lon="-4.617700">
        <ele>784.0</ele>
        <time>2015-03-17T15:08:55Z</time>
      </trkpt>
      <trkpt lat="43.148800" lon="-4.617767">
        <ele>780.0</ele>
        <time>2015-03-17T15:08:56Z</time>
      </trkpt>
      <trkpt lat="43.148850" lon="-4.617817">
        <ele>776.0</ele>
        <time>2015-03-17T15:08:57Z</time>
      </trkpt>
      <trkpt lat="43.148883" lon="-4.617883">
        <ele>772.0</ele>
        <time>2015-03-17T15:08:58Z</time>
      </trkpt>
      <trkpt lat="43.148933" lon="-4.617967">
        <ele>770.0</ele>
        <time>2015-03-17T15:08:59Z</time>
      </trkpt>
      <trkpt lat="43.148967" lon="-4.618050">
        <ele>767.0</ele>
        <time>2015-03-17T15:09:00Z</time>
      </trkpt>
      <trkpt lat="43.149017" lon="-4.618117">
        <ele>766.0</ele>
        <time>2015-03-17T15:09:01Z</time>
      </trkpt>
      <trkpt lat="43.149050" lon="-4.618183">
        <ele>765.0</ele>
        <time>2015-03-17T15:09:02Z</time>
      </trkpt>
      <trkpt lat="43.149067" lon="-4.618250">
        <ele>763.0</ele>
        <time>2015-03-17T15:09:03Z</time>
      </trkpt>
      <trkpt lat="43.149083" lon="-4.618300">
        <ele>761.0</ele>
        <time>2015-03-17T15:09:04Z</time>
      </trkpt>
      <trkpt lat="43.149117" lon="-4.618350">
        <ele>757.0</ele>
        <time>2015-03-17T15:09:05Z</time>
      </trkpt>
      <trkpt lat="43.149150" lon="-4.618417">
        <ele>755.0</ele>
        <time>2015-03-17T15:09:06Z</time>
      </trkpt>
      <trkpt lat="43.149183" lon="-4.618467">
        <ele>752.0</ele>
        <time>2015-03-17T15:09:07Z</time>
      </trkpt>
      <trkpt lat="43.149217" lon="-4.618533">
        <ele>750.0</ele>
        <time>2015-03-17T15:09:08Z</time>
      </trkpt>
      <trkpt lat="43.149233" lon="-4.618600">
        <ele>749.0</ele>
        <time>2015-03-17T15:09:09Z</time>
      </trkpt>
      <trkpt lat="43.149250" lon="-4.618667">
        <ele>746.0</ele>
        <time>2015-03-17T15:09:10Z</time>
      </trkpt>
      <trkpt lat="43.149267" lon="-4.618717">
        <ele>744.0</ele>
        <time>2015-03-17T15:09:11Z</time>
      </trkpt>
      <trkpt lat="43.149300" lon="-4.618767">
        <ele>741.0</ele>
        <time>2015-03-17T15:09:12Z</time>
      </trkpt>
      <trkpt lat="43.149333" lon="-4.618833">
        <ele>738.0</ele>
        <time>2015-03-17T15:09:13Z</time>
      </trkpt>
      <trkpt lat="43.149367" lon="-4.618900">
        <ele>736.0</ele>
        <time>2015-03-17T15:09:14Z</time>
      </trkpt>
      <trkpt lat="43.149400" lon="-4.618983">
        <ele>734.0</ele>
        <time>2015-03-17T15:09:15Z</time>
      </trkpt>
      <trkpt lat="43.149433" lon="-4.619067">
        <ele>733.0</ele>
        <time>2015-03-17T15:09:16Z</time>
      </trkpt>
      <trkpt lat="43.149467" lon="-4.619167">
        <ele>732.0</ele>
        <time>2015-03-17T15:09:17Z</time>
      </trkpt>
      <trkpt lat="43.149483" lon="-4.619250">
        <ele>730.0</ele>
        <time>2015-03-17T15:09:18Z</time>
      </trkpt>
      <trkpt lat="43.149500" lon="-4.619350">
        <ele>728.0</ele>
        <time>2015-03-17T15:09:19Z</time>
      </trkpt>
      <trkpt lat="43.149500" lon="-4.619450">
        <ele>726.0</ele>
        <time>2015-03-17T15:09:20Z</time>
      </trkpt>
      <trkpt lat="43.149500" lon="-4.619550">
        <ele>724.0</ele>
        <time>2015-03-17T15:09:21Z</time>
      </trkpt>
      <trkpt lat="43.149500" lon="-4.619667">
        <ele>721.0</ele>
        <time>2015-03-17T15:09:22Z</time>
      </trkpt>
      <trkpt lat="43.149483" lon="-4.619783">
        <ele>717.0</ele>
        <time>2015-03-17T15:09:23Z</time>
      </trkpt>
      <trkpt lat="43.149467" lon="-4.619900">
        <ele>714.0</ele>
        <time>2015-03-17T15:09:24Z</time>
      </trkpt>
      <trkpt lat="43.149450" lon="-4.620033">
        <ele>711.0</ele>
        <time>2015-03-17T15:09:25Z</time>
      </trkpt>
      <trkpt lat="43.149417" lon="-4.620150">
        <ele>709.0</ele>
        <time>2015-03-17T15:09:26Z</time>
      </trkpt>
      <trkpt lat="43.149367" lon="-4.620267">
        <ele>707.0</ele>
        <time>2015-03-17T15:09:27Z</time>
      </trkpt>
      <trkpt lat="43.149300" lon="-4.620383">
        <ele>705.0</ele>
        <time>2015-03-17T15:09:28Z</time>
      </trkpt>
      <trkpt lat="43.149250" lon="-4.620500">
        <ele>703.0</ele>
        <time>2015-03-17T15:09:29Z</time>
      </trkpt>
      <trkpt lat="43.149183" lon="-4.620633">
        <ele>702.0</ele>
        <time>2015-03-17T15:09:30Z</time>
      </trkpt>
      <trkpt lat="43.149133" lon="-4.620750">
        <ele>700.0</ele>
        <time>2015-03-17T15:09:31Z</time>
      </trkpt>
      <trkpt lat="43.149067" lon="-4.620867">
        <ele>699.0</ele>
        <time>2015-03-17T15:09:32Z</time>
      </trkpt>
      <trkpt lat="43.149000" lon="-4.620983">
        <ele>697.0</ele>
        <time>2015-03-17T15:09:33Z</time>
      </trkpt>
      <trkpt lat="43.148933" lon="-4.621083">
        <ele>696.0</ele>
        <time>2015-03-17T15:09:34Z</time>
      </trkpt>
      <trkpt lat="43.148867" lon="-4.621183">
        <ele>693.0</ele>
        <time>2015-03-17T15:09:35Z</time>
      </trkpt>
      <trkpt lat="43.148800" lon="-4.621300">
        <ele>690.0</ele>
        <time>2015-03-17T15:09:36Z</time>
      </trkpt>
      <trkpt lat="43.148733" lon="-4.621417">
        <ele>688.0</ele>
        <time>2015-03-17T15:09:37Z</time>
      </trkpt>
      <trkpt lat="43.148633" lon="-4.621533">
        <ele>685.0</ele>
        <time>2015-03-17T15:09:38Z</time>
      </trkpt>
      <trkpt lat="43.148550" lon="-4.621650">
        <ele>682.0</ele>
        <time>2015-03-17T15:09:39Z</time>
      </trkpt>
      <trkpt lat="43.148467" lon="-4.621783">
        <ele>680.0</ele>
        <time>2015-03-17T15:09:40Z</time>
      </trkpt>
      <trkpt lat="43.148367" lon="-4.621900">
        <ele>679.0</ele>
        <time>2015-03-17T15:09:41Z</time>
      </trkpt>
      <trkpt lat="43.148267" lon="-4.622017">
        <ele>678.0</ele>
        <time>2015-03-17T15:09:42Z</time>
      </trkpt>
      <trkpt lat="43.148183" lon="-4.622117">
        <ele>678.0</ele>
        <time>2015-03-17T15:09:43Z</time>
      </trkpt>
      <trkpt lat="43.148083" lon="-4.622183">
        <ele>677.0</ele>
        <time>2015-03-17T15:09:44Z</time>
      </trkpt>
      <trkpt lat="43.147983" lon="-4.622267">
        <ele>675.0</ele>
        <time>2015-03-17T15:09:45Z</time>
      </trkpt>
      <trkpt lat="43.147883" lon="-4.622350">
        <ele>672.0</ele>
        <time>2015-03-17T15:09:46Z</time>
      </trkpt>
      <trkpt lat="43.147800" lon="-4.622483">
        <ele>669.0</ele>
        <time>2015-03-17T15:09:47Z</time>
      </trkpt>
      <trkpt lat="43.147733" lon="-4.622650">
        <ele>665.0</ele>
        <time>2015-03-17T15:09:48Z</time>
      </trkpt>
      <trkpt lat="43.147717" lon="-4.622767">
        <ele>665.0</ele>
        <time>2015-03-17T15:09:49Z</time>
      </trkpt>
      <trkpt lat="43.147717" lon="-4.622883">
        <ele>664.0</ele>
        <time>2015-03-17T15:09:50Z</time>
      </trkpt>
      <trkpt lat="43.147717" lon="-4.622950">
        <ele>663.0</ele>
        <time>2015-03-17T15:09:51Z</time>
      </trkpt>
      <trkpt lat="43.147733" lon="-4.623017">
        <ele>660.0</ele>
        <time>2015-03-17T15:09:52Z</time>
      </trkpt>
      <trkpt lat="43.147750" lon="-4.623067">
        <ele>657.0</ele>
        <time>2015-03-17T15:09:53Z</time>
      </trkpt>
      <trkpt lat="43.147783" lon="-4.623133">
        <ele>654.0</ele>
        <time>2015-03-17T15:09:54Z</time>
      </trkpt>
      <trkpt lat="43.147833" lon="-4.623150">
        <ele>651.0</ele>
        <time>2015-03-17T15:09:55Z</time>
      </trkpt>
      <trkpt lat="43.147883" lon="-4.623133">
        <ele>649.0</ele>
        <time>2015-03-17T15:09:56Z</time>
      </trkpt>
      <trkpt lat="43.147917" lon="-4.623100">
        <ele>646.0</ele>
        <time>2015-03-17T15:09:57Z</time>
      </trkpt>
      <trkpt lat="43.147933" lon="-4.623033">
        <ele>644.0</ele>
        <time>2015-03-17T15:09:58Z</time>
      </trkpt>
      <trkpt lat="43.147950" lon="-4.622967">
        <ele>642.0</ele>
        <time>2015-03-17T15:09:59Z</time>
      </trkpt>
      <trkpt lat="43.147950" lon="-4.622883">
        <ele>640.0</ele>
        <time>2015-03-17T15:10:00Z</time>
      </trkpt>
      <trkpt lat="43.147933" lon="-4.622833">
        <ele>638.0</ele>
        <time>2015-03-17T15:10:01Z</time>
      </trkpt>
      <trkpt lat="43.147917" lon="-4.622767">
        <ele>636.0</ele>
        <time>2015-03-17T15:10:02Z</time>
      </trkpt>
      <trkpt lat="43.147917" lon="-4.622683">
        <ele>633.0</ele>
        <time>2015-03-17T15:10:03Z</time>
      </trkpt>
      <trkpt lat="43.147933" lon="-4.622600">
        <ele>630.0</ele>
        <time>2015-03-17T15:10:04Z</time>
      </trkpt>
      <trkpt lat="43.147950" lon="-4.622533">
        <ele>629.0</ele>
        <time>2015-03-17T15:10:05Z</time>
      </trkpt>
      <trkpt lat="43.147950" lon="-4.622450">
        <ele>628.0</ele>
        <time>2015-03-17T15:10:06Z</time>
      </trkpt>
      <trkpt lat="43.147967" lon="-4.622400">
        <ele>627.0</ele>
        <time>2015-03-17T15:10:07Z</time>
      </trkpt>
      <trkpt lat="43.147983" lon="-4.622367">
        <ele>625.0</ele>
        <time>2015-03-17T15:10:08Z</time>
      </trkpt>
      <trkpt lat="43.148000" lon="-4.622333">
        <ele>623.0</ele>
        <time>2015-03-17T15:10:09Z</time>
      </trkpt>
      <trkpt lat="43.148017" lon="-4.622283">
        <ele>620.0</ele>
        <time>2015-03-17T15:10:10Z</time>
      </trkpt>
      <trkpt lat="43.148050" lon="-4.622233">
        <ele>616.0</ele>
        <time>2015-03-17T15:10:11Z</time>
      </trkpt>
      <trkpt lat="43.148083" lon="-4.622217">
        <ele>614.0</ele>
        <time>2015-03-17T15:10:12Z</time>
      </trkpt>
      <trkpt lat="43.148117" lon="-4.622217">
        <ele>611.0</ele>
        <time>2015-03-17T15:10:13Z</time>
      </trkpt>
      <trkpt lat="43.148133" lon="-4.622200">
        <ele>609.0</ele>
        <time>2015-03-17T15:10:14Z</time>
      </trkpt>
      <trkpt lat="43.148150" lon="-4.622150">
        <ele>607.0</ele>
        <time>2015-03-17T15:10:15Z</time>
      </trkpt>
      <trkpt lat="43.148167" lon="-4.622083">
        <ele>611.0</ele>
        <time>2015-03-17T15:10:16Z</time>
      </trkpt>
      <trkpt lat="43.148167" lon="-4.622033">
        <ele>611.0</ele>
        <time>2015-03-17T15:10:17Z</time>
      </trkpt>
      <trkpt lat="43.148167" lon="-4.621983">
        <ele>611.0</ele>
        <time>2015-03-17T15:10:18Z</time>
      </trkpt>
      <trkpt lat="43.148167" lon="-4.621950">
        <ele>610.0</ele>
        <time>2015-03-17T15:10:19Z</time>
      </trkpt>
      <trkpt lat="43.148183" lon="-4.621917">
        <ele>610.0</ele>
        <time>2015-03-17T15:10:20Z</time>
      </trkpt>
      <trkpt lat="43.148200" lon="-4.621883">
        <ele>609.0</ele>
        <time>2015-03-17T15:10:21Z</time>
      </trkpt>
      <trkpt lat="43.148200" lon="-4.621850">
        <ele>609.0</ele>
        <time>2015-03-17T15:10:22Z</time>
      </trkpt>
      <trkpt lat="43.148217" lon="-4.621850">
        <ele>607.0</ele>
        <time>2015-03-17T15:10:23Z</time>
      </trkpt>
      <trkpt lat="43.148233" lon="-4.621867">
        <ele>606.0</ele>
        <time>2015-03-17T15:10:24Z</time>
      </trkpt>
      <trkpt lat="43.148250" lon="-4.621917">
        <ele>604.0</ele>
        <time>2015-03-17T15:10:25Z</time>
      </trkpt>
      <trkpt lat="43.148267" lon="-4.622017">
        <ele>602.0</ele>
        <time>2015-03-17T15:10:26Z</time>
      </trkpt>
      <trkpt lat="43.148267" lon="-4.622117">
        <ele>601.0</ele>
        <time>2015-03-17T15:10:27Z</time>
      </trkpt>
      <trkpt lat="43.148250" lon="-4.622217">
        <ele>601.0</ele>
        <time>2015-03-17T15:10:28Z</time>
      </trkpt>
      <trkpt lat="43.148250" lon="-4.622283">
        <ele>600.0</ele>
        <time>2015-03-17T15:10:29Z</time>
      </trkpt>
      <trkpt lat="43.148233" lon="-4.622350">
        <ele>599.0</ele>
        <time>2015-03-17T15:10:30Z</time>
      </trkpt>
      <trkpt lat="43.148250" lon="-4.622433">
        <ele>598.0</ele>
        <time>2015-03-17T15:10:31Z</time>
      </trkpt>
      <trkpt lat="43.148267" lon="-4.622533">
        <ele>596.0</ele>
        <time>2015-03-17T15:10:32Z</time>
      </trkpt>
      <trkpt lat="43.148283" lon="-4.622633">
        <ele>593.0</ele>
        <time>2015-03-17T15:10:33Z</time>
      </trkpt>
      <trkpt lat="43.148300" lon="-4.622750">
        <ele>592.0</ele>
        <time>2015-03-17T15:10:34Z</time>
      </trkpt>
      <trkpt lat="43.148317" lon="-4.622833">
        <ele>593.0</ele>
        <time>2015-03-17T15:10:35Z</time>
      </trkpt>
      <trkpt lat="43.148333" lon="-4.622900">
        <ele>596.0</ele>
        <time>2015-03-17T15:10:36Z</time>
      </trkpt>
      <trkpt lat="43.148350" lon="-4.622950">
        <ele>596.0</ele>
        <time>2015-03-17T15:10:37Z</time>
      </trkpt>
      <trkpt lat="43.148350" lon="-4.622967">
        <ele>597.0</ele>
        <time>2015-03-17T15:10:38Z</time>
      </trkpt>
      <trkpt lat="43.148367" lon="-4.623000">
        <ele>596.0</ele>
        <time>2015-03-17T15:10:39Z</time>
      </trkpt>
      <trkpt lat="43.148383" lon="-4.623017">
        <ele>595.0</ele>
        <time>2015-03-17T15:10:40Z</time>
      </trkpt>
      <trkpt lat="43.148417" lon="-4.623033">
        <ele>595.0</ele>
        <time>2015-03-17T15:10:41Z</time>
      </trkpt>
      <trkpt lat="43.148450" lon="-4.623033">
        <ele>595.0</ele>
        <time>2015-03-17T15:10:42Z</time>
      </trkpt>
      <trkpt lat="43.148467" lon="-4.623000">
        <ele>595.0</ele>
        <time>2015-03-17T15:10:43Z</time>
      </trkpt>
      <trkpt lat="43.148500" lon="-4.622950">
        <ele>595.0</ele>
        <time>2015-03-17T15:10:44Z</time>
      </trkpt>
      <trkpt lat="43.148517" lon="-4.622917">
        <ele>596.0</ele>
        <time>2015-03-17T15:10:45Z</time>
      </trkpt>
      <trkpt lat="43.148517" lon="-4.622883">
        <ele>595.0</ele>
        <time>2015-03-17T15:10:46Z</time>
      </trkpt>
      <trkpt lat="43.148550" lon="-4.622867">
        <ele>595.0</ele>
        <time>2015-03-17T15:10:47Z</time>
      </trkpt>
      <trkpt lat="43.148567" lon="-4.622850">
        <ele>595.0</ele>
        <time>2015-03-17T15:10:48Z</time>
      </trkpt>
      <trkpt lat="43.148600" lon="-4.622833">
        <ele>595.0</ele>
        <time>2015-03-17T15:10:49Z</time>
      </trkpt>
      <trkpt lat="43.148617" lon="-4.622817">
        <ele>595.0</ele>
        <time>2015-03-17T15:10:50Z</time>
      </trkpt>
      <trkpt lat="43.148667" lon="-4.622783">
        <ele>594.0</ele>
        <time>2015-03-17T15:10:51Z</time>
      </trkpt>
      <trkpt lat="43.148700" lon="-4.622767">
        <ele>594.0</ele>
        <time>2015-03-17T15:10:52Z</time>
      </trkpt>
      <trkpt lat="43.148750" lon="-4.622750">
        <ele>594.0</ele>
        <time>2015-03-17T15:10:53Z</time>
      </trkpt>
      <trkpt lat="43.148800" lon="-4.622750">
        <ele>595.0</ele>
        <time>2015-03-17T15:10:54Z</time>
      </trkpt>
      <trkpt lat="43.148850" lon="-4.622750">
        <ele>596.0</ele>
        <time>2015-03-17T15:10:55Z</time>
      </trkpt>
      <trkpt lat="43.148883" lon="-4.622767">
        <ele>597.0</ele>
        <time>2015-03-17T15:10:56Z</time>
      </trkpt>
      <trkpt lat="43.148917" lon="-4.622783">
        <ele>598.0</ele>
        <time>2015-03-17T15:10:57Z</time>
      </trkpt>
      <trkpt lat="43.148933" lon="-4.622817">
        <ele>599.0</ele>
        <time>2015-03-17T15:10:58Z</time>
      </trkpt>
      <trkpt lat="43.148967" lon="-4.622833">
        <ele>599.0</ele>
        <time>2015-03-17T15:10:59Z</time>
      </trkpt>
      <trkpt lat="43.149000" lon="-4.622850">
        <ele>598.0</ele>
        <time>2015-03-17T15:11:00Z</time>
      </trkpt>
      <trkpt lat="43.149033" lon="-4.622867">
        <ele>598.0</ele>
        <time>2015-03-17T15:11:01Z</time>
      </trkpt>
      <trkpt lat="43.149083" lon="-4.622867">
        <ele>598.0</ele>
        <time>2015-03-17T15:11:02Z</time>
      </trkpt>
      <trkpt lat="43.149117" lon="-4.622850">
        <ele>598.0</ele>
        <time>2015-03-17T15:11:03Z</time>
      </trkpt>
      <trkpt lat="43.149167" lon="-4.622833">
        <ele>598.0</ele>
        <time>2015-03-17T15:11:04Z</time>
      </trkpt>
      <trkpt lat="43.149217" lon="-4.622850">
        <ele>599.0</ele>
        <time>2015-03-17T15:11:05Z</time>
      </trkpt>
      <trkpt lat="43.149267" lon="-4.622900">
        <ele>601.0</ele>
        <time>2015-03-17T15:11:06Z</time>
      </trkpt>
      <trkpt lat="43.149283" lon="-4.622967">
        <ele>601.0</ele>
        <time>2015-03-17T15:11:07Z</time>
      </trkpt>
      <trkpt lat="43.149300" lon="-4.623050">
        <ele>602.0</ele>
        <time>2015-03-17T15:11:08Z</time>
      </trkpt>
      <trkpt lat="43.149317" lon="-4.623150">
        <ele>601.0</ele>
        <time>2015-03-17T15:11:09Z</time>
      </trkpt>
      <trkpt lat="43.149333" lon="-4.623267">
        <ele>601.0</ele>
        <time>2015-03-17T15:11:10Z</time>
      </trkpt>
      <trkpt lat="43.149367" lon="-4.623383">
        <ele>601.0</ele>
        <time>2015-03-17T15:11:11Z</time>
      </trkpt>
      <trkpt lat="43.149400" lon="-4.623500">
        <ele>600.0</ele>
        <time>2015-03-17T15:11:12Z</time>
      </trkpt>
      <trkpt lat="43.149433" lon="-4.623600">
        <ele>601.0</ele>
        <time>2015-03-17T15:11:13Z</time>
      </trkpt>
      <trkpt lat="43.149450" lon="-4.623683">
        <ele>602.0</ele>
        <time>2015-03-17T15:11:14Z</time>
      </trkpt>
      <trkpt lat="43.149467" lon="-4.623733">
        <ele>602.0</ele>
        <time>2015-03-17T15:11:15Z</time>
      </trkpt>
      <trkpt lat="43.149483" lon="-4.623800">
        <ele>602.0</ele>
        <time>2015-03-17T15:11:16Z</time>
      </trkpt>
      <trkpt lat="43.149500" lon="-4.623833">
        <ele>601.0</ele>
        <time>2015-03-17T15:11:17Z</time>
      </trkpt>
      <trkpt lat="43.149533" lon="-4.623867">
        <ele>600.0</ele>
        <time>2015-03-17T15:11:18Z</time>
      </trkpt>
      <trkpt lat="43.149550" lon="-4.623867">
        <ele>600.0</ele>
        <time>2015-03-17T15:11:19Z</time>
      </trkpt>
      <trkpt lat="43.149550" lon="-4.623833">
        <ele>600.0</ele>
        <time>2015-03-17T15:11:20Z</time>
      </trkpt>
      <trkpt lat="43.149550" lon="-4.623783">
        <ele>600.0</ele>
        <time>2015-03-17T15:11:21Z</time>
      </trkpt>
      <trkpt lat="43.149550" lon="-4.623733">
        <ele>600.0</ele>
        <time>2015-03-17T15:11:22Z</time>
      </trkpt>
      <trkpt lat="43.149550" lon="-4.623700">
        <ele>600.0</ele>
        <time>2015-03-17T15:11:23Z</time>
      </trkpt>
      <trkpt lat="43.149550" lon="-4.623633">
        <ele>600.0</ele>
        <time>2015-03-17T15:11:24Z</time>
      </trkpt>
      <trkpt lat="43.149533" lon="-4.623567">
        <ele>600.0</ele>
        <time>2015-03-17T15:11:25Z</time>
      </trkpt>
      <trkpt lat="43.149517" lon="-4.623483">
        <ele>600.0</ele>
        <time>2015-03-17T15:11:26Z</time>
      </trkpt>
      <trkpt lat="43.149483" lon="-4.623400">
        <ele>600.0</ele>
        <time>2015-03-17T15:11:27Z</time>
      </trkpt>
      <trkpt lat="43.149450" lon="-4.623317">
        <ele>600.0</ele>
        <time>2015-03-17T15:11:28Z</time>
      </trkpt>
      <trkpt lat="43.149383" lon="-4.623233">
        <ele>600.0</ele>
        <time>2015-03-17T15:11:29Z</time>
      </trkpt>
      <trkpt lat="43.149317" lon="-4.623150">
        <ele>600.0</ele>
        <time>2015-03-17T15:11:30Z</time>
      </trkpt>
      <trkpt lat="43.149267" lon="-4.623067">
        <ele>600.0</ele>
        <time>2015-03-17T15:11:31Z</time>
      </trkpt>
      <trkpt lat="43.149200" lon="-4.622983">
        <ele>599.0</ele>
        <time>2015-03-17T15:11:32Z</time>
      </trkpt>
      <trkpt lat="43.149167" lon="-4.622900">
        <ele>599.0</ele>
        <time>2015-03-17T15:11:33Z</time>
      </trkpt>
      <trkpt lat="43.149117" lon="-4.622833">
        <ele>599.0</ele>
        <time>2015-03-17T15:11:34Z</time>
      </trkpt>
      <trkpt lat="43.149083" lon="-4.622750">
        <ele>599.0</ele>
        <time>2015-03-17T15:11:35Z</time>
      </trkpt>
      <trkpt lat="43.149067" lon="-4.622683">
        <ele>598.0</ele>
        <time>2015-03-17T15:11:36Z</time>
      </trkpt>
      <trkpt lat="43.149050" lon="-4.622600">
        <ele>598.0</ele>
        <time>2015-03-17T15:11:37Z</time>
      </trkpt>
      <trkpt lat="43.149017" lon="-4.622517">
        <ele>598.0</ele>
        <time>2015-03-17T15:11:38Z</time>
      </trkpt>
      <trkpt lat="43.149017" lon="-4.622450">
        <ele>598.0</ele>
        <time>2015-03-17T15:11:39Z</time>
      </trkpt>
      <trkpt lat="43.149000" lon="-4.622367">
        <ele>597.0</ele>
        <time>2015-03-17T15:11:40Z</time>
      </trkpt>
      <trkpt lat="43.149000" lon="-4.622300">
        <ele>598.0</ele>
        <time>2015-03-17T15:11:41Z</time>
      </trkpt>
      <trkpt lat="43.148983" lon="-4.622250">
        <ele>598.0</ele>
        <time>2015-03-17T15:11:42Z</time>
      </trkpt>
      <trkpt lat="43.149000" lon="-4.622200">
        <ele>597.0</ele>
        <time>2015-03-17T15:11:43Z</time>
      </trkpt>
      <trkpt lat="43.149017" lon="-4.622200">
        <ele>596.0</ele>
        <time>2015-03-17T15:11:44Z</time>
      </trkpt>
      <trkpt lat="43.149033" lon="-4.622217">
        <ele>594.0</ele>
        <time>2015-03-17T15:11:45Z</time>
      </trkpt>
      <trkpt lat="43.149067" lon="-4.622250">
        <ele>593.0</ele>
        <time>2015-03-17T15:11:46Z</time>
      </trkpt>
      <trkpt lat="43.149083" lon="-4.622300">
        <ele>593.0</ele>
        <time>2015-03-17T15:11:47Z</time>
      </trkpt>
      <trkpt lat="43.149117" lon="-4.622367">
        <ele>593.0</ele>
        <time>2015-03-17T15:11:48Z</time>
      </trkpt>
      <trkpt lat="43.149117" lon="-4.622433">
        <ele>593.0</ele>
        <time>2015-03-17T15:11:49Z</time>
      </trkpt>
      <trkpt lat="43.149133" lon="-4.622517">
        <ele>593.0</ele>
        <time>2015-03-17T15:11:50Z</time>
      </trkpt>
      <trkpt lat="43.149150" lon="-4.622583">
        <ele>592.0</ele>
        <time>2015-03-17T15:11:51Z</time>
      </trkpt>
      <trkpt lat="43.149150" lon="-4.622667">
        <ele>591.0</ele>
        <time>2015-03-17T15:11:52Z</time>
      </trkpt>
      <trkpt lat="43.149167" lon="-4.622767">
        <ele>591.0</ele>
        <time>2015-03-17T15:11:53Z</time>
      </trkpt>
      <trkpt lat="43.149183" lon="-4.622850">
        <ele>590.0</ele>
        <time>2015-03-17T15:11:54Z</time>
      </trkpt>
      <trkpt lat="43.149183" lon="-4.622967">
        <ele>590.0</ele>
        <time>2015-03-17T15:11:55Z</time>
      </trkpt>
      <trkpt lat="43.149183" lon="-4.623050">
        <ele>589.0</ele>
        <time>2015-03-17T15:11:56Z</time>
      </trkpt>
      <trkpt lat="43.149167" lon="-4.623167">
        <ele>588.0</ele>
        <time>2015-03-17T15:11:57Z</time>
      </trkpt>
      <trkpt lat="43.149150" lon="-4.623267">
        <ele>585.0</ele>
        <time>2015-03-17T15:11:58Z</time>
      </trkpt>
      <trkpt lat="43.149167" lon="-4.623400">
        <ele>584.0</ele>
        <time>2015-03-17T15:11:59Z</time>
      </trkpt>
      <trkpt lat="43.149167" lon="-4.623533">
        <ele>584.0</ele>
        <time>2015-03-17T15:12:00Z</time>
      </trkpt>
      <trkpt lat="43.149167" lon="-4.623650">
        <ele>585.0</ele>
        <time>2015-03-17T15:12:01Z</time>
      </trkpt>
      <trkpt lat="43.149167" lon="-4.623750">
        <ele>586.0</ele>
        <time>2015-03-17T15:12:02Z</time>
      </trkpt>
      <trkpt lat="43.149183" lon="-4.623850">
        <ele>586.0</ele>
        <time>2015-03-17T15:12:03Z</time>
      </trkpt>
      <trkpt lat="43.149200" lon="-4.623950">
        <ele>585.0</ele>
        <time>2015-03-17T15:12:04Z</time>
      </trkpt>
      <trkpt lat="43.149217" lon="-4.624067">
        <ele>583.0</ele>
        <time>2015-03-17T15:12:05Z</time>
      </trkpt>
      <trkpt lat="43.149233" lon="-4.624150">
        <ele>583.0</ele>
        <time>2015-03-17T15:12:06Z</time>
      </trkpt>
      <trkpt lat="43.149267" lon="-4.624233">
        <ele>584.0</ele>
        <time>2015-03-17T15:12:07Z</time>
      </trkpt>
      <trkpt lat="43.149283" lon="-4.624283">
        <ele>584.0</ele>
        <time>2015-03-17T15:12:08Z</time>
      </trkpt>
      <trkpt lat="43.149300" lon="-4.624317">
        <ele>583.0</ele>
        <time>2015-03-17T15:12:09Z</time>
      </trkpt>
      <trkpt lat="43.149333" lon="-4.624350">
        <ele>581.0</ele>
        <time>2015-03-17T15:12:10Z</time>
      </trkpt>
      <trkpt lat="43.149367" lon="-4.624367">
        <ele>580.0</ele>
        <time>2015-03-17T15:12:11Z</time>
      </trkpt>
      <trkpt lat="43.149383" lon="-4.624367">
        <ele>579.0</ele>
        <time>2015-03-17T15:12:12Z</time>
      </trkpt>
      <trkpt lat="43.149417" lon="-4.624350">
        <ele>578.0</ele>
        <time>2015-03-17T15:12:13Z</time>
      </trkpt>
      <trkpt lat="43.149433" lon="-4.624317">
        <ele>578.0</ele>
        <time>2015-03-17T15:12:14Z</time>
      </trkpt>
      <trkpt lat="43.149467" lon="-4.624283">
        <ele>577.0</ele>
        <time>2015-03-17T15:12:15Z</time>
      </trkpt>
      <trkpt lat="43.149467" lon="-4.624267">
        <ele>577.0</ele>
        <time>2015-03-17T15:12:16Z</time>
      </trkpt>
      <trkpt lat="43.149483" lon="-4.624217">
        <ele>577.0</ele>
        <time>2015-03-17T15:12:17Z</time>
      </trkpt>
      <trkpt lat="43.149467" lon="-4.624183">
        <ele>576.0</ele>
        <time>2015-03-17T15:12:18Z</time>
      </trkpt>
      <trkpt lat="43.149467" lon="-4.624133">
        <ele>574.0</ele>
        <time>2015-03-17T15:12:19Z</time>
      </trkpt>
      <trkpt lat="43.149467" lon="-4.624083">
        <ele>573.0</ele>
        <time>2015-03-17T15:12:20Z</time>
      </trkpt>
      <trkpt lat="43.149483" lon="-4.624017">
        <ele>573.0</ele>
        <time>2015-03-17T15:12:21Z</time>
      </trkpt>
      <trkpt lat="43.149483" lon="-4.623950">
        <ele>572.0</ele>
        <time>2015-03-17T15:12:22Z</time>
      </trkpt>
      <trkpt lat="43.149483" lon="-4.623883">
        <ele>571.0</ele>
        <time>2015-03-17T15:12:23Z</time>
      </trkpt>
      <trkpt lat="43.149483" lon="-4.623800">
        <ele>569.0</ele>
        <time>2015-03-17T15:12:24Z</time>
      </trkpt>
      <trkpt lat="43.149483" lon="-4.623700">
        <ele>566.0</ele>
        <time>2015-03-17T15:12:25Z</time>
      </trkpt>
      <trkpt lat="43.149467" lon="-4.623600">
        <ele>563.0</ele>
        <time>2015-03-17T15:12:26Z</time>
      </trkpt>
      <trkpt lat="43.149450" lon="-4.623500">
        <ele>560.0</ele>
        <time>2015-03-17T15:12:27Z</time>
      </trkpt>
      <trkpt lat="43.149433" lon="-4.623400">
        <ele>558.0</ele>
        <time>2015-03-17T15:12:28Z</time>
      </trkpt>
      <trkpt lat="43.149417" lon="-4.623300">
        <ele>555.0</ele>
        <time>2015-03-17T15:12:29Z</time>
      </trkpt>
      <trkpt lat="43.149400" lon="-4.623200">
        <ele>553.0</ele>
        <time>2015-03-17T15:12:30Z</time>
      </trkpt>
      <trkpt lat="43.149367" lon="-4.623117">
        <ele>552.0</ele>
        <time>2015-03-17T15:12:31Z</time>
      </trkpt>
      <trkpt lat="43.149350" lon="-4.623033">
        <ele>550.0</ele>
        <time>2015-03-17T15:12:32Z</time>
      </trkpt>
      <trkpt lat="43.149317" lon="-4.622933">
        <ele>549.0</ele>
        <time>2015-03-17T15:12:33Z</time>
      </trkpt>
      <trkpt lat="43.149300" lon="-4.622833">
        <ele>547.0</ele>
        <time>2015-03-17T15:12:34Z</time>
      </trkpt>
      <trkpt lat="43.149283" lon="-4.622733">
        <ele>546.0</ele>
        <time>2015-03-17T15:12:35Z</time>
      </trkpt>
      <trkpt lat="43.149267" lon="-4.622633">
        <ele>547.0</ele>
        <time>2015-03-17T15:12:36Z</time>
      </trkpt>
      <trkpt lat="43.149250" lon="-4.622550">
        <ele>547.0</ele>
        <time>2015-03-17T15:12:37Z</time>
      </trkpt>
      <trkpt lat="43.149250" lon="-4.622483">
        <ele>546.0</ele>
        <time>2015-03-17T15:12:38Z</time>
      </trkpt>
      <trkpt lat="43.149250" lon="-4.622433">
        <ele>544.0</ele>
        <time>2015-03-17T15:12:39Z</time>
      </trkpt>
      <trkpt lat="43.149250" lon="-4.622367">
        <ele>543.0</ele>
        <time>2015-03-17T15:12:40Z</time>
      </trkpt>
      <trkpt lat="43.149267" lon="-4.622300">
        <ele>542.0</ele>
        <time>2015-03-17T15:12:41Z</time>
      </trkpt>
      <trkpt lat="43.149267" lon="-4.622267">
        <ele>542.0</ele>
        <time>2015-03-17T15:12:42Z</time>
      </trkpt>
      <trkpt lat="43.149250" lon="-4.622250">
        <ele>542.0</ele>
        <time>2015-03-17T15:12:43Z</time>
      </trkpt>
      <trkpt lat="43.149233" lon="-4.622250">
        <ele>542.0</ele>
        <time>2015-03-17T15:12:44Z</time>
      </trkpt>
      <trkpt lat="43.149217" lon="-4.622250">
        <ele>540.0</ele>
        <time>2015-03-17T15:12:45Z</time>
      </trkpt>
      <trkpt lat="43.149233" lon="-4.622250">
        <ele>538.0</ele>
        <time>2015-03-17T15:12:46Z</time>
      </trkpt>
      <trkpt lat="43.149267" lon="-4.622283">
        <ele>538.0</ele>
        <time>2015-03-17T15:12:47Z</time>
      </trkpt>
      <trkpt lat="43.149267" lon="-4.622317">
        <ele>538.0</ele>
        <time>2015-03-17T15:12:48Z</time>
      </trkpt>
      <trkpt lat="43.149267" lon="-4.622367">
        <ele>538.0</ele>
        <time>2015-03-17T15:12:49Z</time>
      </trkpt>
      <trkpt lat="43.149233" lon="-4.622433">
        <ele>536.0</ele>
        <time>2015-03-17T15:12:50Z</time>
      </trkpt>
      <trkpt lat="43.149200" lon="-4.622533">
        <ele>533.0</ele>
        <time>2015-03-17T15:12:51Z</time>
      </trkpt>
      <trkpt lat="43.149167" lon="-4.622617">
        <ele>531.0</ele>
        <time>2015-03-17T15:12:52Z</time>
      </trkpt>
      <trkpt lat="43.149150" lon="-4.622717">
        <ele>528.0</ele>
        <time>2015-03-17T15:12:53Z</time>
      </trkpt>
      <trkpt lat="43.149150" lon="-4.622783">
        <ele>527.0</ele>
        <time>2015-03-17T15:12:54Z</time>
      </trkpt>
      <trkpt lat="43.149150" lon="-4.622850">
        <ele>526.0</ele>
        <time>2015-03-17T15:12:55Z</time>
      </trkpt>
      <trkpt lat="43.149150" lon="-4.622917">
        <ele>527.0</ele>
        <time>2015-03-17T15:12:56Z</time>
      </trkpt>
      <trkpt lat="43.149150" lon="-4.623000">
        <ele>527.0</ele>
        <time>2015-03-17T15:12:57Z</time>
      </trkpt>
      <trkpt lat="43.149133" lon="-4.623050">
        <ele>527.0</ele>
        <time>2015-03-17T15:12:58Z</time>
      </trkpt>
      <trkpt lat="43.149117" lon="-4.623100">
        <ele>529.0</ele>
        <time>2015-03-17T15:12:59Z</time>
      </trkpt>
      <trkpt lat="43.149117" lon="-4.623167">
        <ele>529.0</ele>
        <time>2015-03-17T15:13:00Z</time>
      </trkpt>
      <trkpt lat="43.149100" lon="-4.623250">
        <ele>529.0</ele>
        <time>2015-03-17T15:13:01Z</time>
      </trkpt>
      <trkpt lat="43.149100" lon="-4.623333">
        <ele>530.0</ele>
        <time>2015-03-17T15:13:02Z</time>
      </trkpt>
      <trkpt lat="43.149100" lon="-4.623400">
        <ele>530.0</ele>
        <time>2015-03-17T15:13:03Z</time>
      </trkpt>
      <trkpt lat="43.149083" lon="-4.623467">
        <ele>532.0</ele>
        <time>2015-03-17T15:13:04Z</time>
      </trkpt>
      <trkpt lat="43.149083" lon="-4.623533">
        <ele>532.0</ele>
        <time>2015-03-17T15:13:05Z</time>
      </trkpt>
      <trkpt lat="43.149083" lon="-4.623600">
        <ele>532.0</ele>
        <time>2015-03-17T15:13:06Z</time>
      </trkpt>
      <trkpt lat="43.149083" lon="-4.623633">
        <ele>533.0</ele>
        <time>2015-03-17T15:13:07Z</time>
      </trkpt>
      <trkpt lat="43.149100" lon="-4.623683">
        <ele>533.0</ele>
        <time>2015-03-17T15:13:08Z</time>
      </trkpt>
      <trkpt lat="43.149117" lon="-4.623717">
        <ele>533.0</ele>
        <time>2015-03-17T15:13:09Z</time>
      </trkpt>
      <trkpt lat="43.149117" lon="-4.623750">
        <ele>532.0</ele>
        <time>2015-03-17T15:13:10Z</time>
      </trkpt>
      <trkpt lat="43.149133" lon="-4.623817">
        <ele>530.0</ele>
        <time>2015-03-17T15:13:11Z</time>
      </trkpt>
      <trkpt lat="43.149167" lon="-4.623867">
        <ele>529.0</ele>
        <time>2015-03-17T15:13:12Z</time>
      </trkpt>
      <trkpt lat="43.149167" lon="-4.623933">
        <ele>529.0</ele>
        <time>2015-03-17T15:13:13Z</time>
      </trkpt>
      <trkpt lat="43.149167" lon="-4.624000">
        <ele>528.0</ele>
        <time>2015-03-17T15:13:14Z</time>
      </trkpt>
      <trkpt lat="43.149150" lon="-4.624083">
        <ele>527.0</ele>
        <time>2015-03-17T15:13:15Z</time>
      </trkpt>
      <trkpt lat="43.149133" lon="-4.624200">
        <ele>525.0</ele>
        <time>2015-03-17T15:13:16Z</time>
      </trkpt>
      <trkpt lat="43.149100" lon="-4.624333">
        <ele>524.0</ele>
        <time>2015-03-17T15:13:17Z</time>
      </trkpt>
      <trkpt lat="43.149083" lon="-4.624467">
        <ele>525.0</ele>
        <time>2015-03-17T15:13:18Z</time>
      </trkpt>
      <trkpt lat="43.149033" lon="-4.624583">
        <ele>525.0</ele>
        <time>2015-03-17T15:13:19Z</time>
      </trkpt>
      <trkpt lat="43.148983" lon="-4.624683">
        <ele>524.0</ele>
        <time>2015-03-17T15:13:20Z</time>
      </trkpt>
      <trkpt lat="43.148950" lon="-4.624800">
        <ele>521.0</ele>
        <time>2015-03-17T15:13:21Z</time>
      </trkpt>
      <trkpt lat="43.148900" lon="-4.624933">
        <ele>519.0</ele>
        <time>2015-03-17T15:13:22Z</time>
      </trkpt>
      <trkpt lat="43.148867" lon="-4.625083">
        <ele>517.0</ele>
        <time>2015-03-17T15:13:23Z</time>
      </trkpt>
      <trkpt lat="43.148817" lon="-4.625200">
        <ele>517.0</ele>
        <time>2015-03-17T15:13:24Z</time>
      </trkpt>
      <trkpt lat="43.148783" lon="-4.625317">
        <ele>517.0</ele>
        <time>2015-03-17T15:13:25Z</time>
      </trkpt>
      <trkpt lat="43.148733" lon="-4.625417">
        <ele>517.0</ele>
        <time>2015-03-17T15:13:26Z</time>
      </trkpt>
      <trkpt lat="43.148700" lon="-4.625517">
        <ele>517.0</ele>
        <time>2015-03-17T15:13:27Z</time>
      </trkpt>
      <trkpt lat="43.148667" lon="-4.625633">
        <ele>515.0</ele>
        <time>2015-03-17T15:13:28Z</time>
      </trkpt>
      <trkpt lat="43.148633" lon="-4.625750">
        <ele>514.0</ele>
        <time>2015-03-17T15:13:29Z</time>
      </trkpt>
      <trkpt lat="43.148600" lon="-4.625883">
        <ele>513.0</ele>
        <time>2015-03-17T15:13:30Z</time>
      </trkpt>
      <trkpt lat="43.148550" lon="-4.625983">
        <ele>512.0</ele>
        <time>2015-03-17T15:13:31Z</time>
      </trkpt>
      <trkpt lat="43.148500" lon="-4.626117">
        <ele>510.0</ele>
        <time>2015-03-17T15:13:32Z</time>
      </trkpt>
      <trkpt lat="43.148450" lon="-4.626250">
        <ele>507.0</ele>
        <time>2015-03-17T15:13:33Z</time>
      </trkpt>
      <trkpt lat="43.148400" lon="-4.626383">
        <ele>505.0</ele>
        <time>2015-03-17T15:13:34Z</time>
      </trkpt>
      <trkpt lat="43.148350" lon="-4.626517">
        <ele>503.0</ele>
        <time>2015-03-17T15:13:35Z</time>
      </trkpt>
      <trkpt lat="43.148300" lon="-4.626650">
        <ele>501.0</ele>
        <time>2015-03-17T15:13:36Z</time>
      </trkpt>
      <trkpt lat="43.148250" lon="-4.626767">
        <ele>500.0</ele>
        <time>2015-03-17T15:13:37Z</time>
      </trkpt>
      <trkpt lat="43.148200" lon="-4.626883">
        <ele>498.0</ele>
        <time>2015-03-17T15:13:38Z</time>
      </trkpt>
      <trkpt lat="43.148150" lon="-4.627017">
        <ele>496.0</ele>
        <time>2015-03-17T15:13:39Z</time>
      </trkpt>
      <trkpt lat="43.148100" lon="-4.627133">
        <ele>494.0</ele>
        <time>2015-03-17T15:13:40Z</time>
      </trkpt>
      <trkpt lat="43.148067" lon="-4.627283">
        <ele>491.0</ele>
        <time>2015-03-17T15:13:41Z</time>
      </trkpt>
      <trkpt lat="43.148050" lon="-4.627383">
        <ele>488.0</ele>
        <time>2015-03-17T15:13:42Z</time>
      </trkpt>
      <trkpt lat="43.148050" lon="-4.627483">
        <ele>486.0</ele>
        <time>2015-03-17T15:13:43Z</time>
      </trkpt>
      <trkpt lat="43.148050" lon="-4.627567">
        <ele>485.0</ele>
        <time>2015-03-17T15:13:44Z</time>
      </trkpt>
      <trkpt lat="43.148050" lon="-4.627600">
        <ele>483.0</ele>
        <time>2015-03-17T15:13:45Z</time>
      </trkpt>
      <trkpt lat="43.148050" lon="-4.627617">
        <ele>480.0</ele>
        <time>2015-03-17T15:13:46Z</time>
      </trkpt>
      <trkpt lat="43.148067" lon="-4.627600">
        <ele>478.0</ele>
        <time>2015-03-17T15:13:47Z</time>
      </trkpt>
      <trkpt lat="43.148067" lon="-4.627567">
        <ele>475.0</ele>
        <time>2015-03-17T15:13:48Z</time>
      </trkpt>
      <trkpt lat="43.148033" lon="-4.627500">
        <ele>473.0</ele>
        <time>2015-03-17T15:13:49Z</time>
      </trkpt>
      <trkpt lat="43.147967" lon="-4.627417">
        <ele>469.0</ele>
        <time>2015-03-17T15:13:50Z</time>
      </trkpt>
      <trkpt lat="43.147850" lon="-4.627350">
        <ele>466.0</ele>
        <time>2015-03-17T15:13:51Z</time>
      </trkpt>
      <trkpt lat="43.147717" lon="-4.627333">
        <ele>461.0</ele>
        <time>2015-03-17T15:13:52Z</time>
      </trkpt>
      <trkpt lat="43.147583" lon="-4.627400">
        <ele>457.0</ele>
        <time>2015-03-17T15:13:53Z</time>
      </trkpt>
      <trkpt lat="43.147467" lon="-4.627517">
        <ele>454.0</ele>
        <time>2015-03-17T15:13:54Z</time>
      </trkpt>
      <trkpt lat="43.147417" lon="-4.627667">
        <ele>449.0</ele>
        <time>2015-03-17T15:13:55Z</time>
      </trkpt>
      <trkpt lat="43.147417" lon="-4.627783">
        <ele>443.0</ele>
        <time>2015-03-17T15:13:56Z</time>
      </trkpt>
      <trkpt lat="43.147450" lon="-4.627800">
        <ele>439.0</ele>
        <time>2015-03-17T15:13:57Z</time>
      </trkpt>
      <trkpt lat="43.147517" lon="-4.627717">
        <ele>448.0</ele>
        <time>2015-03-17T15:13:58Z</time>
      </trkpt>
      <trkpt lat="43.147467" lon="-4.627633">
        <ele>446.0</ele>
        <time>2015-03-17T15:13:59Z</time>
      </trkpt>
      <trkpt lat="43.147383" lon="-4.627550">
        <ele>444.0</ele>
        <time>2015-03-17T15:14:00Z</time>
      </trkpt>
      <trkpt lat="43.147283" lon="-4.627500">
        <ele>442.0</ele>
        <time>2015-03-17T15:14:01Z</time>
      </trkpt>
      <trkpt lat="43.147167" lon="-4.627500">
        <ele>439.0</ele>
        <time>2015-03-17T15:14:02Z</time>
      </trkpt>
      <trkpt lat="43.147017" lon="-4.627533">
        <ele>436.0</ele>
        <time>2015-03-17T15:14:03Z</time>
      </trkpt>
      <trkpt lat="43.146883" lon="-4.627633">
        <ele>432.0</ele>
        <time>2015-03-17T15:14:04Z</time>
      </trkpt>
      <trkpt lat="43.146767" lon="-4.627783">
        <ele>427.0</ele>
        <time>2015-03-17T15:14:05Z</time>
      </trkpt>
      <trkpt lat="43.146717" lon="-4.627950">
        <ele>422.0</ele>
        <time>2015-03-17T15:14:06Z</time>
      </trkpt>
      <trkpt lat="43.146733" lon="-4.628083">
        <ele>416.0</ele>
        <time>2015-03-17T15:14:07Z</time>
      </trkpt>
      <trkpt lat="43.146767" lon="-4.628167">
        <ele>413.0</ele>
        <time>2015-03-17T15:14:08Z</time>
      </trkpt>
      <trkpt lat="43.146783" lon="-4.628200">
        <ele>413.0</ele>
        <time>2015-03-17T15:14:09Z</time>
      </trkpt>
      <trkpt lat="43.146800" lon="-4.628233">
        <ele>412.0</ele>
        <time>2015-03-17T15:14:10Z</time>
      </trkpt>
      <trkpt lat="43.146833" lon="-4.628250">
        <ele>415.0</ele>
        <time>2015-03-17T15:14:11Z</time>
      </trkpt>
      <trkpt lat="43.146883" lon="-4.628283">
        <ele>412.0</ele>
        <time>2015-03-17T15:14:12Z</time>
      </trkpt>
      <trkpt lat="43.146950" lon="-4.628300">
        <ele>409.0</ele>
        <time>2015-03-17T15:14:13Z</time>
      </trkpt>
      <trkpt lat="43.147017" lon="-4.628300">
        <ele>407.0</ele>
        <time>2015-03-17T15:14:14Z</time>
      </trkpt>
      <trkpt lat="43.147050" lon="-4.628283">
        <ele>404.0</ele>
        <time>2015-03-17T15:14:15Z</time>
      </trkpt>
      <trkpt lat="43.147083" lon="-4.628250">
        <ele>404.0</ele>
        <time>2015-03-17T15:14:16Z</time>
      </trkpt>
      <trkpt lat="43.147100" lon="-4.628250">
        <ele>403.0</ele>
        <time>2015-03-17T15:14:17Z</time>
      </trkpt>
      <trkpt lat="43.147117" lon="-4.628250">
        <ele>402.0</ele>
        <time>2015-03-17T15:14:18Z</time>
      </trkpt>
      <trkpt lat="43.147133" lon="-4.628233">
        <ele>400.0</ele>
        <time>2015-03-17T15:14:19Z</time>
      </trkpt>
      <trkpt lat="43.147167" lon="-4.628217">
        <ele>398.0</ele>
        <time>2015-03-17T15:14:20Z</time>
      </trkpt>
      <trkpt lat="43.147233" lon="-4.628200">
        <ele>393.0</ele>
        <time>2015-03-17T15:14:21Z</time>
      </trkpt>
      <trkpt lat="43.147283" lon="-4.628217">
        <ele>390.0</ele>
        <time>2015-03-17T15:14:22Z</time>
      </trkpt>
      <trkpt lat="43.147333" lon="-4.628233">
        <ele>389.0</ele>
        <time>2015-03-17T15:14:23Z</time>
      </trkpt>
      <trkpt lat="43.147350" lon="-4.628233">
        <ele>387.0</ele>
        <time>2015-03-17T15:14:24Z</time>
      </trkpt>
      <trkpt lat="43.147383" lon="-4.628217">
        <ele>391.0</ele>
        <time>2015-03-17T15:14:25Z</time>
      </trkpt>
      <trkpt lat="43.147417" lon="-4.628217">
        <ele>390.0</ele>
        <time>2015-03-17T15:14:26Z</time>
      </trkpt>
      <trkpt lat="43.147467" lon="-4.628217">
        <ele>387.0</ele>
        <time>2015-03-17T15:14:27Z</time>
      </trkpt>
      <trkpt lat="43.147517" lon="-4.628233">
        <ele>387.0</ele>
        <time>2015-03-17T15:14:28Z</time>
      </trkpt>
      <trkpt lat="43.147567" lon="-4.628250">
        <ele>386.0</ele>
        <time>2015-03-17T15:14:29Z</time>
      </trkpt>
      <trkpt lat="43.147583" lon="-4.628250">
        <ele>386.0</ele>
        <time>2015-03-17T15:14:30Z</time>
      </trkpt>
      <trkpt lat="43.147600" lon="-4.628250">
        <ele>385.0</ele>
        <time>2015-03-17T15:14:31Z</time>
      </trkpt>
      <trkpt lat="43.147617" lon="-4.628233">
        <ele>384.0</ele>
        <time>2015-03-17T15:14:32Z</time>
      </trkpt>
      <trkpt lat="43.147633" lon="-4.628233">
        <ele>382.0</ele>
        <time>2015-03-17T15:14:33Z</time>
      </trkpt>
      <trkpt lat="43.147667" lon="-4.628200">
        <ele>381.0</ele>
        <time>2015-03-17T15:14:34Z</time>
      </trkpt>
      <trkpt lat="43.147683" lon="-4.628167">
        <ele>382.0</ele>
        <time>2015-03-17T15:14:35Z</time>
      </trkpt>
      <trkpt lat="43.147700" lon="-4.628150">
        <ele>381.0</ele>
        <time>2015-03-17T15:14:36Z</time>
      </trkpt>
      <trkpt lat="43.147717" lon="-4.628133">
        <ele>380.0</ele>
        <time>2015-03-17T15:14:37Z</time>
      </trkpt>
      <trkpt lat="43.147733" lon="-4.628117">
        <ele>380.0</ele>
        <time>2015-03-17T15:14:38Z</time>
      </trkpt>
      <trkpt lat="43.147750" lon="-4.628067">
        <ele>380.0</ele>
        <time>2015-03-17T15:14:39Z</time>
      </trkpt>
      <trkpt lat="43.147750" lon="-4.628017">
        <ele>379.0</ele>
        <time>2015-03-17T15:14:40Z</time>
      </trkpt>
      <trkpt lat="43.147750" lon="-4.627967">
        <ele>379.0</ele>
        <time>2015-03-17T15:14:41Z</time>
      </trkpt>
      <trkpt lat="43.147767" lon="-4.627917">
        <ele>378.0</ele>
        <time>2015-03-17T15:14:42Z</time>
      </trkpt>
      <trkpt lat="43.147783" lon="-4.627867">
        <ele>378.0</ele>
        <time>2015-03-17T15:14:43Z</time>
      </trkpt>
      <trkpt lat="43.147800" lon="-4.627817">
        <ele>377.0</ele>
        <time>2015-03-17T15:14:44Z</time>
      </trkpt>
      <trkpt lat="43.147817" lon="-4.627783">
        <ele>377.0</ele>
        <time>2015-03-17T15:14:45Z</time>
      </trkpt>
      <trkpt lat="43.147833" lon="-4.627800">
        <ele>376.0</ele>
        <time>2015-03-17T15:14:46Z</time>
      </trkpt>
      <trkpt lat="43.147850" lon="-4.627817">
        <ele>374.0</ele>
        <time>2015-03-17T15:14:47Z</time>
      </trkpt>
      <trkpt lat="43.147883" lon="-4.627833">
        <ele>371.0</ele>
        <time>2015-03-17T15:14:48Z</time>
      </trkpt>
      <trkpt lat="43.147917" lon="-4.627900">
        <ele>368.0</ele>
        <time>2015-03-17T15:14:49Z</time>
      </trkpt>
      <trkpt lat="43.147950" lon="-4.627967">
        <ele>366.0</ele>
        <time>2015-03-17T15:14:50Z</time>
      </trkpt>
      <trkpt lat="43.147967" lon="-4.628033">
        <ele>364.0</ele>
        <time>2015-03-17T15:14:51Z</time>
      </trkpt>
      <trkpt lat="43.147967" lon="-4.628100">
        <ele>362.0</ele>
        <time>2015-03-17T15:14:52Z</time>
      </trkpt>
      <trkpt lat="43.147983" lon="-4.628133">
        <ele>361.0</ele>
        <time>2015-03-17T15:14:53Z</time>
      </trkpt>
      <trkpt lat="43.148017" lon="-4.628167">
        <ele>359.0</ele>
        <time>2015-03-17T15:14:54Z</time>
      </trkpt>
      <trkpt lat="43.148050" lon="-4.628217">
        <ele>356.0</ele>
        <time>2015-03-17T15:14:55Z</time>
      </trkpt>
      <trkpt lat="43.148083" lon="-4.628283">
        <ele>353.0</ele>
        <time>2015-03-17T15:14:56Z</time>
      </trkpt>
      <trkpt lat="43.148100" lon="-4.628350">
        <ele>352.0</ele>
        <time>2015-03-17T15:14:57Z</time>
      </trkpt>
      <trkpt lat="43.148117" lon="-4.628400">
        <ele>351.0</ele>
        <time>2015-03-17T15:14:58Z</time>
      </trkpt>
      <trkpt lat="43.148117" lon="-4.628417">
        <ele>349.0</ele>
        <time>2015-03-17T15:14:59Z</time>
      </trkpt>
      <trkpt lat="43.148150" lon="-4.628433">
        <ele>347.0</ele>
        <time>2015-03-17T15:15:00Z</time>
      </trkpt>
      <trkpt lat="43.148183" lon="-4.628417">
        <ele>344.0</ele>
        <time>2015-03-17T15:15:01Z</time>
      </trkpt>
      <trkpt lat="43.148233" lon="-4.628367">
        <ele>347.0</ele>
        <time>2015-03-17T15:15:02Z</time>
      </trkpt>
      <trkpt lat="43.148233" lon="-4.628300">
        <ele>347.0</ele>
        <time>2015-03-17T15:15:03Z</time>
      </trkpt>
      <trkpt lat="43.148233" lon="-4.628233">
        <ele>346.0</ele>
        <time>2015-03-17T15:15:04Z</time>
      </trkpt>
      <trkpt lat="43.148217" lon="-4.628167">
        <ele>345.0</ele>
        <time>2015-03-17T15:15:05Z</time>
      </trkpt>
      <trkpt lat="43.148233" lon="-4.628117">
        <ele>344.0</ele>
        <time>2015-03-17T15:15:06Z</time>
      </trkpt>
      <trkpt lat="43.148267" lon="-4.628083">
        <ele>343.0</ele>
        <time>2015-03-17T15:15:07Z</time>
      </trkpt>
      <trkpt lat="43.148317" lon="-4.628050">
        <ele>341.0</ele>
        <time>2015-03-17T15:15:08Z</time>
      </trkpt>
      <trkpt lat="43.148367" lon="-4.628017">
        <ele>342.0</ele>
        <time>2015-03-17T15:15:09Z</time>
      </trkpt>
      <trkpt lat="43.148400" lon="-4.627983">
        <ele>341.0</ele>
        <time>2015-03-17T15:15:10Z</time>
      </trkpt>
      <trkpt lat="43.148400" lon="-4.627983">
        <ele>340.0</ele>
        <time>2015-03-17T15:15:11Z</time>
      </trkpt>
      <trkpt lat="43.148417" lon="-4.627983">
        <ele>338.0</ele>
        <time>2015-03-17T15:15:12Z</time>
      </trkpt>
      <trkpt lat="43.148450" lon="-4.627983">
        <ele>338.0</ele>
        <time>2015-03-17T15:15:13Z</time>
      </trkpt>
      <trkpt lat="43.148483" lon="-4.627983">
        <ele>336.0</ele>
        <time>2015-03-17T15:15:14Z</time>
      </trkpt>
      <trkpt lat="43.148550" lon="-4.627967">
        <ele>336.0</ele>
        <time>2015-03-17T15:15:15Z</time>
      </trkpt>
      <trkpt lat="43.148583" lon="-4.627933">
        <ele>335.0</ele>
        <time>2015-03-17T15:15:16Z</time>
      </trkpt>
      <trkpt lat="43.148617" lon="-4.627917">
        <ele>334.0</ele>
        <time>2015-03-17T15:15:17Z</time>
      </trkpt>
      <trkpt lat="43.148633" lon="-4.627900">
        <ele>334.0</ele>
        <time>2015-03-17T15:15:18Z</time>
      </trkpt>
      <trkpt lat="43.148650" lon="-4.627900">
        <ele>334.0</ele>
        <time>2015-03-17T15:15:19Z</time>
      </trkpt>
      <trkpt lat="43.148683" lon="-4.627883">
        <ele>333.0</ele>
        <time>2015-03-17T15:15:20Z</time>
      </trkpt>
      <trkpt lat="43.148700" lon="-4.627867">
        <ele>333.0</ele>
        <time>2015-03-17T15:15:21Z</time>
      </trkpt>
      <trkpt lat="43.148700" lon="-4.627867">
        <ele>333.0</ele>
        <time>2015-03-17T15:15:22Z</time>
      </trkpt>
      <trkpt lat="43.148717" lon="-4.627850">
        <ele>333.0</ele>
        <time>2015-03-17T15:15:23Z</time>
      </trkpt>
      <trkpt lat="43.148717" lon="-4.627833">
        <ele>332.0</ele>
        <time>2015-03-17T15:15:24Z</time>
      </trkpt>
      <trkpt lat="43.148733" lon="-4.627833">
        <ele>332.0</ele>
        <time>2015-03-17T15:15:25Z</time>
      </trkpt>
      <trkpt lat="43.148750" lon="-4.627817">
        <ele>332.0</ele>
        <time>2015-03-17T15:15:26Z</time>
      </trkpt>
      <trkpt lat="43.148767" lon="-4.627800">
        <ele>331.0</ele>
        <time>2015-03-17T15:15:27Z</time>
      </trkpt>
      <trkpt lat="43.148783" lon="-4.627800">
        <ele>331.0</ele>
        <time>2015-03-17T15:15:28Z</time>
      </trkpt>
      <trkpt lat="43.148800" lon="-4.627783">
        <ele>331.0</ele>
        <time>2015-03-17T15:15:29Z</time>
      </trkpt>
      <trkpt lat="43.148833" lon="-4.627783">
        <ele>331.0</ele>
        <time>2015-03-17T15:15:30Z</time>
      </trkpt>
      <trkpt lat="43.148817" lon="-4.627767">
        <ele>331.0</ele>
        <time>2015-03-17T15:15:31Z</time>
      </trkpt>
      <trkpt lat="43.148833" lon="-4.627750">
        <ele>330.0</ele>
        <time>2015-03-17T15:15:32Z</time>
      </trkpt>
      <trkpt lat="43.148850" lon="-4.627733">
        <ele>330.0</ele>
        <time>2015-03-17T15:15:33Z</time>
      </trkpt>
      <trkpt lat="43.148867" lon="-4.627717">
        <ele>330.0</ele>
        <time>2015-03-17T15:15:34Z</time>
      </trkpt>
      <trkpt lat="43.148883" lon="-4.627683">
        <ele>330.0</ele>
        <time>2015-03-17T15:15:35Z</time>
      </trkpt>
      <trkpt lat="43.148900" lon="-4.627667">
        <ele>329.0</ele>
        <time>2015-03-17T15:15:36Z</time>
      </trkpt>
      <trkpt lat="43.148917" lon="-4.627667">
        <ele>329.0</ele>
        <time>2015-03-17T15:15:37Z</time>
      </trkpt>
      <trkpt lat="43.148933" lon="-4.627667">
        <ele>329.0</ele>
        <time>2015-03-17T15:15:38Z</time>
      </trkpt>
      <trkpt lat="43.148950" lon="-4.627650">
        <ele>329.0</ele>
        <time>2015-03-17T15:15:39Z</time>
      </trkpt>
      <trkpt lat="43.148983" lon="-4.627633">
        <ele>329.0</ele>
        <time>2015-03-17T15:15:40Z</time>
      </trkpt>
      <trkpt lat="43.148983" lon="-4.627617">
        <ele>329.0</ele>
        <time>2015-03-17T15:15:41Z</time>
      </trkpt>
      <trkpt lat="43.149000" lon="-4.627583">
        <ele>329.0</ele>
        <time>2015-03-17T15:15:42Z</time>
      </trkpt>
      <trkpt lat="43.149033" lon="-4.627550">
        <ele>329.0</ele>
        <time>2015-03-17T15:15:43Z</time>
      </trkpt>
      <trkpt lat="43.149033" lon="-4.627533">
        <ele>329.0</ele>
        <time>2015-03-17T15:15:44Z</time>
      </trkpt>
      <trkpt lat="43.149050" lon="-4.627517">
        <ele>328.0</ele>
        <time>2015-03-17T15:15:45Z</time>
      </trkpt>
      <trkpt lat="43.149050" lon="-4.627500">
        <ele>328.0</ele>
        <time>2015-03-17T15:15:46Z</time>
      </trkpt>
      <trkpt lat="43.149083" lon="-4.627483">
        <ele>328.0</ele>
        <time>2015-03-17T15:15:47Z</time>
      </trkpt>
      <trkpt lat="43.149100" lon="-4.627467">
        <ele>328.0</ele>
        <time>2015-03-17T15:15:48Z</time>
      </trkpt>
      <trkpt lat="43.149117" lon="-4.627467">
        <ele>328.0</ele>
        <time>2015-03-17T15:15:49Z</time>
      </trkpt>
      <trkpt lat="43.149117" lon="-4.627433">
        <ele>328.0</ele>
        <time>2015-03-17T15:15:50Z</time>
      </trkpt>
      <trkpt lat="43.149133" lon="-4.627433">
        <ele>328.0</ele>
        <time>2015-03-17T15:15:51Z</time>
      </trkpt>
      <trkpt lat="43.149167" lon="-4.627450">
        <ele>327.0</ele>
        <time>2015-03-17T15:15:52Z</time>
      </trkpt>
      <trkpt lat="43.149167" lon="-4.627433">
        <ele>327.0</ele>
        <time>2015-03-17T15:15:53Z</time>
      </trkpt>
      <trkpt lat="43.149167" lon="-4.627433">
        <ele>327.0</ele>
        <time>2015-03-17T15:15:54Z</time>
      </trkpt>
      <trkpt lat="43.149133" lon="-4.627400">
        <ele>327.0</ele>
        <time>2015-03-17T15:15:55Z</time>
      </trkpt>
      <trkpt lat="43.149133" lon="-4.627400">
        <ele>327.0</ele>
        <time>2015-03-17T15:15:56Z</time>
      </trkpt>
      <trkpt lat="43.149133" lon="-4.627400">
        <ele>326.0</ele>
        <time>2015-03-17T15:15:57Z</time>
      </trkpt>
      <trkpt lat="43.149133" lon="-4.627400">
        <ele>326.0</ele>
        <time>2015-03-17T15:15:58Z</time>
      </trkpt>
      <trkpt lat="43.149133" lon="-4.627400">
        <ele>326.0</ele>
        <time>2015-03-17T15:15:59Z</time>
      </trkpt>
      <trkpt lat="43.149133" lon="-4.627400">
        <ele>326.0</ele>
        <time>2015-03-17T15:16:00Z</time>
      </trkpt>
      <trkpt lat="43.149133" lon="-4.627417">
        <ele>326.0</ele>
        <time>2015-03-17T15:16:01Z</time>
      </trkpt>
      <trkpt lat="43.149150" lon="-4.627417">
        <ele>325.0</ele>
        <time>2015-03-17T15:16:02Z</time>
      </trkpt>
      <trkpt lat="43.149150" lon="-4.627417">
        <ele>325.0</ele>
        <time>2015-03-17T15:16:03Z</time>
      </trkpt>
      <trkpt lat="43.149150" lon="-4.627417">
        <ele>325.0</ele>
        <time>2015-03-17T15:16:04Z</time>
      </trkpt>
      <trkpt lat="43.149150" lon="-4.627417">
        <ele>325.0</ele>
        <time>2015-03-17T15:16:05Z</time>
      </trkpt>
      <trkpt lat="43.149150" lon="-4.627417">
        <ele>324.0</ele>
        <time>2015-03-17T15:16:06Z</time>
      </trkpt>
      <trkpt lat="43.149133" lon="-4.627433">
        <ele>324.0</ele>
        <time>2015-03-17T15:16:07Z</time>
      </trkpt>
      <trkpt lat="43.149150" lon="-4.627417">
        <ele>324.0</ele>
        <time>2015-03-17T15:16:08Z</time>
      </trkpt>
      <trkpt lat="43.149150" lon="-4.627400">
        <ele>324.0</ele>
        <time>2015-03-17T15:16:09Z</time>
      </trkpt>
      <trkpt lat="43.149150" lon="-4.627400">
        <ele>324.0</ele>
        <time>2015-03-17T15:16:10Z</time>
      </trkpt>
      <trkpt lat="43.149150" lon="-4.627400">
        <ele>324.0</ele>
        <time>2015-03-17T15:16:11Z</time>
      </trkpt>
      <trkpt lat="43.149150" lon="-4.627400">
        <ele>324.0</ele>
        <time>2015-03-17T15:16:12Z</time>
      </trkpt>
      <trkpt lat="43.149150" lon="-4.627400">
        <ele>324.0</ele>
        <time>2015-03-17T15:16:13Z</time>
      </trkpt>
      <trkpt lat="43.149150" lon="-4.627400">
        <ele>324.0</ele>
        <time>2015-03-17T15:16:14Z</time>
      </trkpt>
      <trkpt lat="43.149150" lon="-4.627400">
        <ele>324.0</ele>
        <time>2015-03-17T15:16:15Z</time>
      </trkpt>
      <trkpt lat="43.149150" lon="-4.627400">
        <ele>324.0</ele>
        <time>2015-03-17T15:16:16Z</time>
      </trkpt>
      <trkpt lat="43.149150" lon="-4.627400">
        <ele>324.0</ele>
        <time>2015-03-17T15:16:17Z</time>
      </trkpt>
      <trkpt lat="43.149150" lon="-4.627383">
        <ele>324.0</ele>
        <time>2015-03-17T15:16:18Z</time>
      </trkpt>
      <trkpt lat="43.149150" lon="-4.627400">
        <ele>324.0</ele>
        <time>2015-03-17T15:16:19Z</time>
      </trkpt>
      <trkpt lat="43.149167" lon="-4.627400">
        <ele>323.0</ele>
        <time>2015-03-17T15:16:20Z</time>
      </trkpt>
      <trkpt lat="43.149150" lon="-4.627417">
        <ele>323.0</ele>
        <time>2015-03-17T15:16:21Z</time>
      </trkpt>
      <trkpt lat="43.149150" lon="-4.627417">
        <ele>322.0</ele>
        <time>2015-03-17T15:16:22Z</time>
      </trkpt>
      <trkpt lat="43.149150" lon="-4.627433">
        <ele>322.0</ele>
        <time>2015-03-17T15:16:23Z</time>
      </trkpt>
      <trkpt lat="43.149150" lon="-4.627433">
        <ele>322.0</ele>
        <time>2015-03-17T15:16:24Z</time>
      </trkpt>
      <trkpt lat="43.149150" lon="-4.627433">
        <ele>321.0</ele>
        <time>2015-03-17T15:16:25Z</time>
      </trkpt>
      <trkpt lat="43.149150" lon="-4.627433">
        <ele>321.0</ele>
        <time>2015-03-17T15:16:26Z</time>
      </trkpt>
      <trkpt lat="43.149150" lon="-4.627433">
        <ele>321.0</ele>
        <time>2015-03-17T15:16:27Z</time>
      </trkpt>
      <trkpt lat="43.149150" lon="-4.627433">
        <ele>321.0</ele>
        <time>2015-03-17T15:16:28Z</time>
      </trkpt>
      <trkpt lat="43.149150" lon="-4.627433">
        <ele>321.0</ele>
        <time>2015-03-17T15:16:29Z</time>
      </trkpt>
      <trkpt lat="43.149133" lon="-4.627433">
        <ele>321.0</ele>
        <time>2015-03-17T15:16:30Z</time>
      </trkpt>
      <trkpt lat="43.149133" lon="-4.627450">
        <ele>321.0</ele>
        <time>2015-03-17T15:16:31Z</time>
      </trkpt>
      <trkpt lat="43.149133" lon="-4.627450">
        <ele>321.0</ele>
        <time>2015-03-17T15:16:32Z</time>
      </trkpt>
      <trkpt lat="43.149133" lon="-4.627450">
        <ele>321.0</ele>
        <time>2015-03-17T15:16:33Z</time>
      </trkpt>
      <trkpt lat="43.149133" lon="-4.627433">
        <ele>321.0</ele>
        <time>2015-03-17T15:16:34Z</time>
      </trkpt>
      <trkpt lat="43.149133" lon="-4.627433">
        <ele>321.0</ele>
        <time>2015-03-17T15:16:35Z</time>
      </trkpt>
      <trkpt lat="43.149133" lon="-4.627417">
        <ele>320.0</ele>
        <time>2015-03-17T15:16:36Z</time>
      </trkpt>
      <trkpt lat="43.149133" lon="-4.627417">
        <ele>320.0</ele>
        <time>2015-03-17T15:16:37Z</time>
      </trkpt>
      <trkpt lat="43.149150" lon="-4.627417">
        <ele>320.0</ele>
        <time>2015-03-17T15:16:38Z</time>
      </trkpt>
      <trkpt lat="43.149150" lon="-4.627400">
        <ele>320.0</ele>
        <time>2015-03-17T15:16:39Z</time>
      </trkpt>
      <trkpt lat="43.149150" lon="-4.627383">
        <ele>320.0</ele>
        <time>2015-03-17T15:16:40Z</time>
      </trkpt>
      <trkpt lat="43.149150" lon="-4.627367">
        <ele>320.0</ele>
        <time>2015-03-17T15:16:41Z</time>
      </trkpt>
      <trkpt lat="43.149150" lon="-4.627350">
        <ele>319.0</ele>
        <time>2015-03-17T15:16:42Z</time>
      </trkpt>
      <trkpt lat="43.149167" lon="-4.627333">
        <ele>319.0</ele>
        <time>2015-03-17T15:16:43Z</time>
      </trkpt>
      <trkpt lat="43.149167" lon="-4.627317">
        <ele>319.0</ele>
        <time>2015-03-17T15:16:44Z</time>
      </trkpt>
      <trkpt lat="43.149167" lon="-4.627317">
        <ele>319.0</ele>
        <time>2015-03-17T15:16:45Z</time>
      </trkpt>
      <trkpt lat="43.149167" lon="-4.627317">
        <ele>319.0</ele>
        <time>2015-03-17T15:16:46Z</time>
      </trkpt>
      <trkpt lat="43.149167" lon="-4.627300">
        <ele>319.0</ele>
        <time>2015-03-17T15:16:47Z</time>
      </trkpt>
      <trkpt lat="43.149183" lon="-4.627283">
        <ele>319.0</ele>
        <time>2015-03-17T15:16:48Z</time>
      </trkpt>
      <trkpt lat="43.149183" lon="-4.627300">
        <ele>318.0</ele>
        <time>2015-03-17T15:16:49Z</time>
      </trkpt>
      <trkpt lat="43.149183" lon="-4.627283">
        <ele>318.0</ele>
        <time>2015-03-17T15:16:50Z</time>
      </trkpt>
      <trkpt lat="43.149183" lon="-4.627283">
        <ele>318.0</ele>
        <time>2015-03-17T15:16:51Z</time>
      </trkpt>
      <trkpt lat="43.149183" lon="-4.627300">
        <ele>318.0</ele>
        <time>2015-03-17T15:16:52Z</time>
      </trkpt>
      <trkpt lat="43.149183" lon="-4.627300">
        <ele>318.0</ele>
        <time>2015-03-17T15:16:53Z</time>
      </trkpt>
      <trkpt lat="43.149200" lon="-4.627300">
        <ele>318.0</ele>
        <time>2015-03-17T15:16:54Z</time>
      </trkpt>
      <trkpt lat="43.149200" lon="-4.627300">
        <ele>318.0</ele>
        <time>2015-03-17T15:16:55Z</time>
      </trkpt>
      <trkpt lat="43.149200" lon="-4.627300">
        <ele>318.0</ele>
        <time>2015-03-17T15:16:56Z</time>
      </trkpt>
      <trkpt lat="43.149200" lon="-4.627300">
        <ele>318.0</ele>
        <time>2015-03-17T15:16:57Z</time>
      </trkpt>
      <trkpt lat="43.149200" lon="-4.627300">
        <ele>318.0</ele>
        <time>2015-03-17T15:16:58Z</time>
      </trkpt>
      <trkpt lat="43.149200" lon="-4.627283">
        <ele>318.0</ele>
        <time>2015-03-17T15:16:59Z</time>
      </trkpt>
      <trkpt lat="43.149200" lon="-4.627283">
        <ele>318.0</ele>
        <time>2015-03-17T15:17:00Z</time>
      </trkpt>
      <trkpt lat="43.149200" lon="-4.627300">
        <ele>318.0</ele>
        <time>2015-03-17T15:17:01Z</time>
      </trkpt>
      <trkpt lat="43.149217" lon="-4.627300">
        <ele>318.0</ele>
        <time>2015-03-17T15:17:02Z</time>
      </trkpt>
      <trkpt lat="43.149217" lon="-4.627300">
        <ele>318.0</ele>
        <time>2015-03-17T15:17:03Z</time>
      </trkpt>
      <trkpt lat="43.149217" lon="-4.627300">
        <ele>318.0</ele>
        <time>2015-03-17T15:17:04Z</time>
      </trkpt>
      <trkpt lat="43.149200" lon="-4.627300">
        <ele>318.0</ele>
        <time>2015-03-17T15:17:05Z</time>
      </trkpt>
      <trkpt lat="43.149200" lon="-4.627300">
        <ele>318.0</ele>
        <time>2015-03-17T15:17:06Z</time>
      </trkpt>
      <trkpt lat="43.149200" lon="-4.627300">
        <ele>318.0</ele>
        <time>2015-03-17T15:17:07Z</time>
      </trkpt>
      <trkpt lat="43.149200" lon="-4.627300">
        <ele>317.0</ele>
        <time>2015-03-17T15:17:08Z</time>
      </trkpt>
      <trkpt lat="43.149200" lon="-4.627300">
        <ele>317.0</ele>
        <time>2015-03-17T15:17:09Z</time>
      </trkpt>
      <trkpt lat="43.149200" lon="-4.627300">
        <ele>317.0</ele>
        <time>2015-03-17T15:17:10Z</time>
      </trkpt>
      <trkpt lat="43.149200" lon="-4.627300">
        <ele>317.0</ele>
        <time>2015-03-17T15:17:11Z</time>
      </trkpt>
      <trkpt lat="43.149200" lon="-4.627300">
        <ele>317.0</ele>
        <time>2015-03-17T15:17:12Z</time>
      </trkpt>
      <trkpt lat="43.149200" lon="-4.627317">
        <ele>317.0</ele>
        <time>2015-03-17T15:17:13Z</time>
      </trkpt>
      <trkpt lat="43.149200" lon="-4.627317">
        <ele>317.0</ele>
        <time>2015-03-17T15:17:14Z</time>
      </trkpt>
      <trkpt lat="43.149200" lon="-4.627317">
        <ele>317.0</ele>
        <time>2015-03-17T15:17:15Z</time>
      </trkpt>
      <trkpt lat="43.149200" lon="-4.627317">
        <ele>318.0</ele>
        <time>2015-03-17T15:17:16Z</time>
      </trkpt>
      <trkpt lat="43.149200" lon="-4.627317">
        <ele>317.0</ele>
        <time>2015-03-17T15:17:17Z</time>
      </trkpt>
      <trkpt lat="43.149200" lon="-4.627317">
        <ele>317.0</ele>
        <time>2015-03-17T15:17:18Z</time>
      </trkpt>
      <trkpt lat="43.149200" lon="-4.627317">
        <ele>317.0</ele>
        <time>2015-03-17T15:17:19Z</time>
      </trkpt>
      <trkpt lat="43.149200" lon="-4.627317">
        <ele>317.0</ele>
        <time>2015-03-17T15:17:20Z</time>
      </trkpt>
      <trkpt lat="43.149183" lon="-4.627317">
        <ele>317.0</ele>
        <time>2015-03-17T15:17:21Z</time>
      </trkpt>
      <trkpt lat="43.149183" lon="-4.627317">
        <ele>317.0</ele>
        <time>2015-03-17T15:17:22Z</time>
      </trkpt>
      <trkpt lat="43.149183" lon="-4.627317">
        <ele>317.0</ele>
        <time>2015-03-17T15:17:23Z</time>
      </trkpt>
      <trkpt lat="43.149183" lon="-4.627317">
        <ele>317.0</ele>
        <time>2015-03-17T15:17:24Z</time>
      </trkpt>
      <trkpt lat="43.149183" lon="-4.627317">
        <ele>317.0</ele>
        <time>2015-03-17T15:17:25Z</time>
      </trkpt>
      <trkpt lat="43.149183" lon="-4.627317">
        <ele>317.0</ele>
        <time>2015-03-17T15:17:26Z</time>
      </trkpt>
      <trkpt lat="43.149183" lon="-4.627317">
        <ele>317.0</ele>
        <time>2015-03-17T15:17:27Z</time>
      </trkpt>
      <trkpt lat="43.149183" lon="-4.627317">
        <ele>317.0</ele>
        <time>2015-03-17T15:17:28Z</time>
      </trkpt>
      <trkpt lat="43.149183" lon="-4.627300">
        <ele>317.0</ele>
        <time>2015-03-17T15:17:29Z</time>
      </trkpt>
      <trkpt lat="43.149183" lon="-4.627300">
        <ele>317.0</ele>
        <time>2015-03-17T15:17:30Z</time>
      </trkpt>
      <trkpt lat="43.149183" lon="-4.627300">
        <ele>316.0</ele>
        <time>2015-03-17T15:17:31Z</time>
      </trkpt>
      <trkpt lat="43.149183" lon="-4.627317">
        <ele>316.0</ele>
        <time>2015-03-17T15:17:32Z</time>
      </trkpt>
      <trkpt lat="43.149183" lon="-4.627317">
        <ele>316.0</ele>
        <time>2015-03-17T15:17:33Z</time>
      </trkpt>
      <trkpt lat="43.149183" lon="-4.627317">
        <ele>316.0</ele>
        <time>2015-03-17T15:17:34Z</time>
      </trkpt>
      <trkpt lat="43.149183" lon="-4.627300">
        <ele>316.0</ele>
        <time>2015-03-17T15:17:35Z</time>
      </trkpt>
      <trkpt lat="43.149183" lon="-4.627300">
        <ele>316.0</ele>
        <time>2015-03-17T15:17:36Z</time>
      </trkpt>
      <trkpt lat="43.149183" lon="-4.627300">
        <ele>316.0</ele>
        <time>2015-03-17T15:17:37Z</time>
      </trkpt>
      <trkpt lat="43.149183" lon="-4.627300">
        <ele>316.0</ele>
        <time>2015-03-17T15:17:38Z</time>
      </trkpt>
      <trkpt lat="43.149200" lon="-4.627300">
        <ele>316.0</ele>
        <time>2015-03-17T15:17:39Z</time>
      </trkpt>
      <trkpt lat="43.149200" lon="-4.627300">
        <ele>316.0</ele>
        <time>2015-03-17T15:17:40Z</time>
      </trkpt>
      <trkpt lat="43.149200" lon="-4.627300">
        <ele>316.0</ele>
        <time>2015-03-17T15:17:41Z</time>
      </trkpt>
      <trkpt lat="43.149200" lon="-4.627300">
        <ele>316.0</ele>
        <time>2015-03-17T15:17:42Z</time>
      </trkpt>
      <trkpt lat="43.149200" lon="-4.627300">
        <ele>316.0</ele>
        <time>2015-03-17T15:17:43Z</time>
      </trkpt>
      <trkpt lat="43.149217" lon="-4.627300">
        <ele>316.0</ele>
        <time>2015-03-17T15:17:44Z</time>
      </trkpt>
      <trkpt lat="43.149200" lon="-4.627300">
        <ele>316.0</ele>
        <time>2015-03-17T15:17:45Z</time>
      </trkpt>
      <trkpt lat="43.149200" lon="-4.627300">
        <ele>316.0</ele>
        <time>2015-03-17T15:17:46Z</time>
      </trkpt>
      <trkpt lat="43.149200" lon="-4.627300">
        <ele>316.0</ele>
        <time>2015-03-17T15:17:47Z</time>
      </trkpt>
      <trkpt lat="43.149183" lon="-4.627300">
        <ele>316.0</ele>
        <time>2015-03-17T15:17:48Z</time>
      </trkpt>
      <trkpt lat="43.149183" lon="-4.627300">
        <ele>315.0</ele>
        <time>2015-03-17T15:17:49Z</time>
      </trkpt>
      <trkpt lat="43.149183" lon="-4.627300">
        <ele>315.0</ele>
        <time>2015-03-17T15:17:50Z</time>
      </trkpt>
      <trkpt lat="43.149183" lon="-4.627300">
        <ele>315.0</ele>
        <time>2015-03-17T15:17:51Z</time>
      </trkpt>
      <trkpt lat="43.149167" lon="-4.627300">
        <ele>315.0</ele>
        <time>2015-03-17T15:17:52Z</time>
      </trkpt>
      <trkpt lat="43.149167" lon="-4.627283">
        <ele>315.0</ele>
        <time>2015-03-17T15:17:53Z</time>
      </trkpt>
      <trkpt lat="43.149167" lon="-4.627283">
        <ele>315.0</ele>
        <time>2015-03-17T15:17:54Z</time>
      </trkpt>
      <trkpt lat="43.149167" lon="-4.627283">
        <ele>315.0</ele>
        <time>2015-03-17T15:17:55Z</time>
      </trkpt>
      <trkpt lat="43.149167" lon="-4.627283">
        <ele>315.0</ele>
        <time>2015-03-17T15:17:56Z</time>
      </trkpt>
      <trkpt lat="43.149167" lon="-4.627283">
        <ele>315.0</ele>
        <time>2015-03-17T15:17:57Z</time>
      </trkpt>
      <trkpt lat="43.149167" lon="-4.627283">
        <ele>315.0</ele>
        <time>2015-03-17T15:17:58Z</time>
      </trkpt>
      <trkpt lat="43.149167" lon="-4.627283">
        <ele>314.0</ele>
        <time>2015-03-17T15:17:59Z</time>
      </trkpt>
      <trkpt lat="43.149183" lon="-4.627300">
        <ele>314.0</ele>
        <time>2015-03-17T15:18:00Z</time>
      </trkpt>
      <trkpt lat="43.149183" lon="-4.627283">
        <ele>314.0</ele>
        <time>2015-03-17T15:18:01Z</time>
      </trkpt>
      <trkpt lat="43.149183" lon="-4.627300">
        <ele>314.0</ele>
        <time>2015-03-17T15:18:02Z</time>
      </trkpt>
      <trkpt lat="43.149183" lon="-4.627300">
        <ele>314.0</ele>
        <time>2015-03-17T15:18:03Z</time>
      </trkpt>
      <trkpt lat="43.149183" lon="-4.627300">
        <ele>314.0</ele>
        <time>2015-03-17T15:18:04Z</time>
      </trkpt>
      <trkpt lat="43.149200" lon="-4.627283">
        <ele>315.0</ele>
        <time>2015-03-17T15:18:05Z</time>
      </trkpt>
      <trkpt lat="43.149200" lon="-4.627283">
        <ele>315.0</ele>
        <time>2015-03-17T15:18:06Z</time>
      </trkpt>
      <trkpt lat="43.149183" lon="-4.627283">
        <ele>315.0</ele>
        <time>2015-03-17T15:18:07Z</time>
      </trkpt>
      <trkpt lat="43.149200" lon="-4.627300">
        <ele>315.0</ele>
        <time>2015-03-17T15:18:08Z</time>
      </trkpt>
      <trkpt lat="43.149200" lon="-4.627300">
        <ele>315.0</ele>
        <time>2015-03-17T15:18:09Z</time>
      </trkpt>
      <trkpt lat="43.149200" lon="-4.627300">
        <ele>315.0</ele>
        <time>2015-03-17T15:18:10Z</time>
      </trkpt>
      <trkpt lat="43.149200" lon="-4.627300">
        <ele>314.0</ele>
        <time>2015-03-17T15:18:11Z</time>
      </trkpt>
      <trkpt lat="43.149200" lon="-4.627300">
        <ele>314.0</ele>
        <time>2015-03-17T15:18:12Z</time>
      </trkpt>
      <trkpt lat="43.149200" lon="-4.627317">
        <ele>314.0</ele>
        <time>2015-03-17T15:18:13Z</time>
      </trkpt>
      <trkpt lat="43.149200" lon="-4.627317">
        <ele>314.0</ele>
        <time>2015-03-17T15:18:14Z</time>
      </trkpt>
      <trkpt lat="43.149200" lon="-4.627317">
        <ele>314.0</ele>
        <time>2015-03-17T15:18:15Z</time>
      </trkpt>
      <trkpt lat="43.149217" lon="-4.627317">
        <ele>314.0</ele>
        <time>2015-03-17T15:18:16Z</time>
      </trkpt>
    </trkseg>
  </trk>
</gpx>
